<?xml version="1.0" encoding="UTF-8" standalone="no" ?>
<gpx xmlns="http://www.topografix.com/GPX/1/1" xmlns:xsi="http://www.w3.org/2001/XMLSchema-instance" xsi:schemaLocation="http://www.topografix.com/GPX/1/1 http://www.topografix.com/GPX/1/1/gpx.xsd" version="1.1" creator="VisuGPX - https://www.visugpx.com">
  <metadata>
    <name>toutes les traces autour de st mayme de pereyrol</name>
  </metadata>
  <trk>
    <name><![CDATA[toutes les traces autour de st mayme de pereyrol_1]]></name>
    <trkseg>
      <trkpt lat="45.01459" lon="0.64641">
        <ele>199.4</ele>
      </trkpt>
      <trkpt lat="45.0139" lon="0.64327">
        <ele>204.8</ele>
      </trkpt>
      <trkpt lat="45.01346" lon="0.64237">
        <ele>212.9</ele>
      </trkpt>
      <trkpt lat="45.01212" lon="0.64188">
        <ele>212.8</ele>
      </trkpt>
      <trkpt lat="45.01134" lon="0.63958">
        <ele>204.3</ele>
      </trkpt>
      <trkpt lat="45.01094" lon="0.63609">
        <ele>189.6</ele>
      </trkpt>
      <trkpt lat="45.00971" lon="0.63609">
        <ele>195.9</ele>
      </trkpt>
      <trkpt lat="45.01094" lon="0.63351">
        <ele>188.9</ele>
      </trkpt>
      <trkpt lat="45.01148" lon="0.63086">
        <ele>183.4</ele>
      </trkpt>
      <trkpt lat="45.01099" lon="0.62905">
        <ele>176.8</ele>
      </trkpt>
      <trkpt lat="45.0101" lon="0.62801">
        <ele>175.7</ele>
      </trkpt>
      <trkpt lat="45.01074" lon="0.62361">
        <ele>193.1</ele>
      </trkpt>
      <trkpt lat="45.0104" lon="0.62278">
        <ele>196.6</ele>
      </trkpt>
      <trkpt lat="45.00872" lon="0.62334">
        <ele>174.1</ele>
      </trkpt>
      <trkpt lat="45.00591" lon="0.61964">
        <ele>166.8</ele>
      </trkpt>
      <trkpt lat="45.00557" lon="0.61859">
        <ele>156.8</ele>
      </trkpt>
      <trkpt lat="45.00596" lon="0.61734">
        <ele>157.7</ele>
      </trkpt>
      <trkpt lat="45.00513" lon="0.61636">
        <ele>152.5</ele>
      </trkpt>
      <trkpt lat="45.00513" lon="0.6156">
        <ele>152.3</ele>
      </trkpt>
      <trkpt lat="45.0031" lon="0.6089">
        <ele>148.9</ele>
      </trkpt>
      <trkpt lat="45.00448" lon="0.60869">
        <ele>168.8</ele>
      </trkpt>
      <trkpt lat="45.0069" lon="0.6066">
        <ele>187.5</ele>
      </trkpt>
      <trkpt lat="45.00641" lon="0.60549">
        <ele>189.8</ele>
      </trkpt>
      <trkpt lat="45.00641" lon="0.6043">
        <ele>192</ele>
      </trkpt>
      <trkpt lat="45.00789" lon="0.60521">
        <ele>198.9</ele>
      </trkpt>
      <trkpt lat="45.00843" lon="0.60465">
        <ele>198.1</ele>
      </trkpt>
      <trkpt lat="45.00818" lon="0.60319">
        <ele>196</ele>
      </trkpt>
      <trkpt lat="45.00838" lon="0.59963">
        <ele>196.4</ele>
      </trkpt>
      <trkpt lat="45.0106" lon="0.59719">
        <ele>188.3</ele>
      </trkpt>
      <trkpt lat="45.01114" lon="0.59768">
        <ele>185.1</ele>
      </trkpt>
      <trkpt lat="45.01074" lon="0.59914">
        <ele>184.4</ele>
      </trkpt>
      <trkpt lat="45.01217" lon="0.59873">
        <ele>165.5</ele>
      </trkpt>
      <trkpt lat="45.01281" lon="0.59796">
        <ele>161.5</ele>
      </trkpt>
      <trkpt lat="45.01237" lon="0.59538">
        <ele>153.1</ele>
      </trkpt>
      <trkpt lat="45.01272" lon="0.59336">
        <ele>153.7</ele>
      </trkpt>
      <trkpt lat="45.014" lon="0.59064">
        <ele>175</ele>
      </trkpt>
      <trkpt lat="45.01479" lon="0.5875">
        <ele>194.3</ele>
      </trkpt>
      <trkpt lat="45.01528" lon="0.58743">
        <ele>195.8</ele>
      </trkpt>
      <trkpt lat="45.01626" lon="0.58548">
        <ele>205.5</ele>
      </trkpt>
      <trkpt lat="45.01464" lon="0.58074">
        <ele>213.4</ele>
      </trkpt>
      <trkpt lat="45.0137" lon="0.57879">
        <ele>213.3</ele>
      </trkpt>
      <trkpt lat="45.01277" lon="0.57788">
        <ele>210.4</ele>
      </trkpt>
      <trkpt lat="45.01222" lon="0.57614">
        <ele>204.6</ele>
      </trkpt>
      <trkpt lat="45.0102" lon="0.57244">
        <ele>209.2</ele>
      </trkpt>
      <trkpt lat="45.01035" lon="0.5714">
        <ele>206.1</ele>
      </trkpt>
      <trkpt lat="45.00996" lon="0.56896">
        <ele>193.1</ele>
      </trkpt>
      <trkpt lat="45.00882" lon="0.56638">
        <ele>182.8</ele>
      </trkpt>
      <trkpt lat="45.00651" lon="0.56463">
        <ele>169.1</ele>
      </trkpt>
      <trkpt lat="45.0071" lon="0.56066">
        <ele>191.3</ele>
      </trkpt>
      <trkpt lat="45.00808" lon="0.55864">
        <ele>195.2</ele>
      </trkpt>
      <trkpt lat="45.00779" lon="0.55683">
        <ele>196.1</ele>
      </trkpt>
      <trkpt lat="45.00863" lon="0.55285">
        <ele>198.9</ele>
      </trkpt>
    </trkseg>
  </trk>
  <trk>
    <name><![CDATA[randogps24-354]]></name>
    <extensions>
      <line xmlns="http://www.topografix.com/GPX/gpx_style/0/2">
        <color>0000FF</color>
        <width>4</width>
      </line>
    </extensions>
    <trkseg>
      <trkpt lat="45.02285" lon="0.54057">
        <ele>59.26</ele>
        <time>2017-04-16T12:04:37Z</time>
      </trkpt>
      <trkpt lat="45.02285" lon="0.54057">
        <ele>59.26</ele>
        <time>2017-04-16T12:04:37Z</time>
      </trkpt>
      <trkpt lat="45.02257" lon="0.54159">
        <ele>123.67</ele>
        <time>2017-04-16T12:06:54Z</time>
      </trkpt>
      <trkpt lat="45.02204" lon="0.54281">
        <ele>119.82</ele>
        <time>2017-04-16T12:08:35Z</time>
      </trkpt>
      <trkpt lat="45.02166" lon="0.54432">
        <ele>113.09</ele>
        <time>2017-04-16T12:09:59Z</time>
      </trkpt>
      <trkpt lat="45.02111" lon="0.54567">
        <ele>117.42</ele>
        <time>2017-04-16T12:11:22Z</time>
      </trkpt>
      <trkpt lat="45.02072" lon="0.54706">
        <ele>121.26</ele>
        <time>2017-04-16T12:12:40Z</time>
      </trkpt>
      <trkpt lat="45.02059" lon="0.54845">
        <ele>121.26</ele>
        <time>2017-04-16T12:14:01Z</time>
      </trkpt>
      <trkpt lat="45.02037" lon="0.5496">
        <ele>125.11</ele>
        <time>2017-04-16T12:19:33Z</time>
      </trkpt>
      <trkpt lat="45.01945" lon="0.54998">
        <ele>115.5</ele>
        <time>2017-04-16T12:20:58Z</time>
      </trkpt>
      <trkpt lat="45.01856" lon="0.55051">
        <ele>120.78</ele>
        <time>2017-04-16T12:25:52Z</time>
      </trkpt>
      <trkpt lat="45.01762" lon="0.55055">
        <ele>128.95</ele>
        <time>2017-04-16T12:27:53Z</time>
      </trkpt>
      <trkpt lat="45.01645" lon="0.55029">
        <ele>141.45</ele>
        <time>2017-04-16T12:29:53Z</time>
      </trkpt>
      <trkpt lat="45.01531" lon="0.55003">
        <ele>150.58</ele>
        <time>2017-04-16T12:31:53Z</time>
      </trkpt>
      <trkpt lat="45.01487" lon="0.55116">
        <ele>156.83</ele>
        <time>2017-04-16T12:33:56Z</time>
      </trkpt>
      <trkpt lat="45.0138" lon="0.55116">
        <ele>157.79</ele>
        <time>2017-04-16T12:36:21Z</time>
      </trkpt>
      <trkpt lat="45.01261" lon="0.55049">
        <ele>164.52</ele>
        <time>2017-04-16T12:38:18Z</time>
      </trkpt>
      <trkpt lat="45.01149" lon="0.55113">
        <ele>167.41</ele>
        <time>2017-04-16T12:39:51Z</time>
      </trkpt>
      <trkpt lat="45.01032" lon="0.5512">
        <ele>175.58</ele>
        <time>2017-04-16T12:42:39Z</time>
      </trkpt>
      <trkpt lat="45.00933" lon="0.55206">
        <ele>186.15</ele>
        <time>2017-04-16T12:45:05Z</time>
      </trkpt>
      <trkpt lat="45.0084" lon="0.55231">
        <ele>188.56</ele>
        <time>2017-04-16T12:50:11Z</time>
      </trkpt>
      <trkpt lat="45.00743" lon="0.55137">
        <ele>184.23</ele>
        <time>2017-04-16T12:52:01Z</time>
      </trkpt>
      <trkpt lat="45.00645" lon="0.54957">
        <ele>177.5</ele>
        <time>2017-04-16T12:54:02Z</time>
      </trkpt>
      <trkpt lat="45.00537" lon="0.54744">
        <ele>176.06</ele>
        <time>2017-04-16T12:56:46Z</time>
      </trkpt>
      <trkpt lat="45.00468" lon="0.54546">
        <ele>174.62</ele>
        <time>2017-04-16T12:59:17Z</time>
      </trkpt>
      <trkpt lat="45.00406" lon="0.54373">
        <ele>175.1</ele>
        <time>2017-04-16T13:00:52Z</time>
      </trkpt>
      <trkpt lat="45.00305" lon="0.5422">
        <ele>172.21</ele>
        <time>2017-04-16T13:03:14Z</time>
      </trkpt>
      <trkpt lat="45.00203" lon="0.54052">
        <ele>173.17</ele>
        <time>2017-04-16T13:11:20Z</time>
      </trkpt>
      <trkpt lat="45.00172" lon="0.53877">
        <ele>167.89</ele>
        <time>2017-04-16T13:15:39Z</time>
      </trkpt>
      <trkpt lat="45.00106" lon="0.5367">
        <ele>165.96</ele>
        <time>2017-04-16T13:19:25Z</time>
      </trkpt>
      <trkpt lat="44.9998" lon="0.53532">
        <ele>164.04</ele>
        <time>2017-04-16T13:23:54Z</time>
      </trkpt>
      <trkpt lat="44.99954" lon="0.53337">
        <ele>152.03</ele>
        <time>2017-04-16T13:25:40Z</time>
      </trkpt>
      <trkpt lat="44.99911" lon="0.53233">
        <ele>143.37</ele>
        <time>2017-04-16T13:27:18Z</time>
      </trkpt>
      <trkpt lat="44.99851" lon="0.53153">
        <ele>135.68</ele>
        <time>2017-04-16T13:28:29Z</time>
      </trkpt>
      <trkpt lat="44.99753" lon="0.53126">
        <ele>133.28</ele>
        <time>2017-04-16T13:30:04Z</time>
      </trkpt>
      <trkpt lat="44.99657" lon="0.53131">
        <ele>126.55</ele>
        <time>2017-04-16T13:31:24Z</time>
      </trkpt>
      <trkpt lat="44.99609" lon="0.53107">
        <ele>117.9</ele>
        <time>2017-04-16T13:33:34Z</time>
      </trkpt>
      <trkpt lat="44.99616" lon="0.52965">
        <ele>109.25</ele>
        <time>2017-04-16T13:34:56Z</time>
      </trkpt>
      <trkpt lat="44.99602" lon="0.52827">
        <ele>101.08</ele>
        <time>2017-04-16T13:36:16Z</time>
      </trkpt>
      <trkpt lat="44.99659" lon="0.52741">
        <ele>104.44</ele>
        <time>2017-04-16T13:40:29Z</time>
      </trkpt>
      <trkpt lat="44.99745" lon="0.52697">
        <ele>113.57</ele>
        <time>2017-04-16T13:41:48Z</time>
      </trkpt>
      <trkpt lat="44.99836" lon="0.5269">
        <ele>112.13</ele>
        <time>2017-04-16T13:43:04Z</time>
      </trkpt>
      <trkpt lat="44.99939" lon="0.52743">
        <ele>104.92</ele>
        <time>2017-04-16T13:44:30Z</time>
      </trkpt>
      <trkpt lat="45.00052" lon="0.52719">
        <ele>111.65</ele>
        <time>2017-04-16T13:46:51Z</time>
      </trkpt>
      <trkpt lat="45.00212" lon="0.52668">
        <ele>118.86</ele>
        <time>2017-04-16T13:49:07Z</time>
      </trkpt>
      <trkpt lat="45.004" lon="0.52678">
        <ele>127.51</ele>
        <time>2017-04-16T13:51:33Z</time>
      </trkpt>
      <trkpt lat="45.00484" lon="0.52787">
        <ele>127.51</ele>
        <time>2017-04-16T13:55:37Z</time>
      </trkpt>
      <trkpt lat="45.00564" lon="0.52898">
        <ele>130.88</ele>
        <time>2017-04-16T13:57:03Z</time>
      </trkpt>
      <trkpt lat="45.00658" lon="0.52935">
        <ele>130.4</ele>
        <time>2017-04-16T13:58:54Z</time>
      </trkpt>
      <trkpt lat="45.00789" lon="0.53057">
        <ele>121.74</ele>
        <time>2017-04-16T14:01:11Z</time>
      </trkpt>
      <trkpt lat="45.00939" lon="0.5317">
        <ele>112.61</ele>
        <time>2017-04-16T14:03:08Z</time>
      </trkpt>
      <trkpt lat="45.01022" lon="0.53235">
        <ele>111.17</ele>
        <time>2017-04-16T14:04:20Z</time>
      </trkpt>
      <trkpt lat="45.0111" lon="0.53298">
        <ele>108.77</ele>
        <time>2017-04-16T14:06:53Z</time>
      </trkpt>
      <trkpt lat="45.01191" lon="0.53391">
        <ele>111.17</ele>
        <time>2017-04-16T14:18:49Z</time>
      </trkpt>
      <trkpt lat="45.01269" lon="0.53486">
        <ele>109.73</ele>
        <time>2017-04-16T14:20:09Z</time>
      </trkpt>
      <trkpt lat="45.01395" lon="0.53557">
        <ele>110.69</ele>
        <time>2017-04-16T14:21:52Z</time>
      </trkpt>
      <trkpt lat="45.01505" lon="0.53601">
        <ele>112.61</ele>
        <time>2017-04-16T14:23:18Z</time>
      </trkpt>
      <trkpt lat="45.01596" lon="0.53643">
        <ele>113.57</ele>
        <time>2017-04-16T15:02:11Z</time>
      </trkpt>
      <trkpt lat="45.01696" lon="0.53723">
        <ele>115.98</ele>
        <time>2017-04-16T15:03:42Z</time>
      </trkpt>
      <trkpt lat="45.01777" lon="0.53815">
        <ele>114.53</ele>
        <time>2017-04-16T15:05:05Z</time>
      </trkpt>
      <trkpt lat="45.01876" lon="0.53851">
        <ele>111.65</ele>
        <time>2017-04-16T15:06:30Z</time>
      </trkpt>
      <trkpt lat="45.01977" lon="0.53811">
        <ele>113.57</ele>
        <time>2017-04-16T15:07:49Z</time>
      </trkpt>
      <trkpt lat="45.0203" lon="0.5394">
        <ele>116.46</ele>
        <time>2017-04-16T15:09:32Z</time>
      </trkpt>
      <trkpt lat="45.02115" lon="0.53994">
        <ele>122.22</ele>
        <time>2017-04-16T15:11:13Z</time>
      </trkpt>
      <trkpt lat="45.02195" lon="0.54079">
        <ele>125.11</ele>
        <time>2017-04-16T15:12:54Z</time>
      </trkpt>
      <trkpt lat="45.0229" lon="0.54053">
        <ele>131.36</ele>
        <time>2017-04-16T15:15:07Z</time>
      </trkpt>
      <trkpt lat="45.0229" lon="0.54053">
        <ele>131.36</ele>
        <time>2017-04-16T15:15:15Z</time>
      </trkpt>
    </trkseg>
  </trk>
  <trk>
    <name><![CDATA[toutes les traces autour de st mayme de pereyrol_3]]></name>
    <trkseg>
      <trkpt lat="44.98924" lon="0.54385">
        <ele>109.1</ele>
      </trkpt>
      <trkpt lat="44.99108" lon="0.54413">
        <ele>107.5</ele>
      </trkpt>
      <trkpt lat="44.99221" lon="0.54475">
        <ele>119.4</ele>
      </trkpt>
      <trkpt lat="44.99469" lon="0.54583">
        <ele>149.4</ele>
      </trkpt>
      <trkpt lat="44.99473" lon="0.54707">
        <ele>150.8</ele>
      </trkpt>
      <trkpt lat="44.99533" lon="0.5473">
        <ele>160.7</ele>
      </trkpt>
      <trkpt lat="44.99589" lon="0.54577">
        <ele>164.4</ele>
      </trkpt>
      <trkpt lat="44.99797" lon="0.54611">
        <ele>169.3</ele>
      </trkpt>
      <trkpt lat="44.99965" lon="0.54651">
        <ele>171.9</ele>
      </trkpt>
      <trkpt lat="45.00138" lon="0.54798">
        <ele>173.8</ele>
      </trkpt>
      <trkpt lat="45.00258" lon="0.54724">
        <ele>179.2</ele>
      </trkpt>
      <trkpt lat="45.00394" lon="0.54696">
        <ele>182.7</ele>
      </trkpt>
      <trkpt lat="45.00414" lon="0.54617">
        <ele>180.9</ele>
      </trkpt>
      <trkpt lat="45.00454" lon="0.54611">
        <ele>183.8</ele>
      </trkpt>
    </trkseg>
  </trk>
  <trk>
    <name><![CDATA[toutes les traces autour de st mayme de pereyrol_4]]></name>
    <trkseg>
      <trkpt lat="44.98346" lon="0.53946">
        <ele>157.79</ele>
        <time>2019-09-15T07:40:51Z</time>
      </trkpt>
      <trkpt lat="44.98344" lon="0.5394">
        <ele>157.79</ele>
        <time>2019-09-15T07:41:12Z</time>
      </trkpt>
      <trkpt lat="44.98344" lon="0.53939">
        <ele>157.79</ele>
        <time>2019-09-15T07:41:22Z</time>
      </trkpt>
      <trkpt lat="44.98337" lon="0.5393">
        <ele>157.79</ele>
        <time>2019-09-15T07:41:29Z</time>
      </trkpt>
      <trkpt lat="44.98322" lon="0.53903">
        <ele>159.24</ele>
        <time>2019-09-15T07:41:50Z</time>
      </trkpt>
      <trkpt lat="44.98298" lon="0.53869">
        <ele>159.24</ele>
        <time>2019-09-15T07:42:14Z</time>
      </trkpt>
      <trkpt lat="44.98264" lon="0.53852">
        <ele>159.24</ele>
        <time>2019-09-15T07:42:38Z</time>
      </trkpt>
      <trkpt lat="44.98231" lon="0.53837">
        <ele>159.72</ele>
        <time>2019-09-15T07:43:01Z</time>
      </trkpt>
      <trkpt lat="44.982" lon="0.53827">
        <ele>159.72</ele>
        <time>2019-09-15T07:43:23Z</time>
      </trkpt>
      <trkpt lat="44.98168" lon="0.53817">
        <ele>160.68</ele>
        <time>2019-09-15T07:43:45Z</time>
      </trkpt>
      <trkpt lat="44.9814" lon="0.53813">
        <ele>161.16</ele>
        <time>2019-09-15T07:44:03Z</time>
      </trkpt>
      <trkpt lat="44.98113" lon="0.53787">
        <ele>162.6</ele>
        <time>2019-09-15T07:44:25Z</time>
      </trkpt>
      <trkpt lat="44.98084" lon="0.53763">
        <ele>164.52</ele>
        <time>2019-09-15T07:44:46Z</time>
      </trkpt>
      <trkpt lat="44.98059" lon="0.53745">
        <ele>165</ele>
        <time>2019-09-15T07:45:05Z</time>
      </trkpt>
      <trkpt lat="44.98027" lon="0.53727">
        <ele>165.96</ele>
        <time>2019-09-15T07:45:27Z</time>
      </trkpt>
      <trkpt lat="44.97993" lon="0.53718">
        <ele>167.41</ele>
        <time>2019-09-15T07:45:49Z</time>
      </trkpt>
      <trkpt lat="44.97966" lon="0.53703">
        <ele>170.29</ele>
        <time>2019-09-15T07:46:10Z</time>
      </trkpt>
      <trkpt lat="44.97973" lon="0.53685">
        <ele>171.73</ele>
        <time>2019-09-15T07:46:22Z</time>
      </trkpt>
      <trkpt lat="44.97989" lon="0.53655">
        <ele>173.66</ele>
        <time>2019-09-15T07:46:42Z</time>
      </trkpt>
      <trkpt lat="44.9799" lon="0.53651">
        <ele>173.66</ele>
        <time>2019-09-15T07:46:45Z</time>
      </trkpt>
      <trkpt lat="44.98003" lon="0.53612">
        <ele>173.66</ele>
        <time>2019-09-15T07:47:07Z</time>
      </trkpt>
      <trkpt lat="44.98006" lon="0.5358">
        <ele>171.25</ele>
        <time>2019-09-15T07:47:25Z</time>
      </trkpt>
      <trkpt lat="44.98006" lon="0.53574">
        <ele>170.77</ele>
        <time>2019-09-15T07:47:28Z</time>
      </trkpt>
      <trkpt lat="44.98004" lon="0.53534">
        <ele>167.89</ele>
        <time>2019-09-15T07:47:48Z</time>
      </trkpt>
      <trkpt lat="44.98004" lon="0.53506">
        <ele>164.52</ele>
        <time>2019-09-15T07:48:02Z</time>
      </trkpt>
      <trkpt lat="44.98012" lon="0.53465">
        <ele>161.16</ele>
        <time>2019-09-15T07:48:22Z</time>
      </trkpt>
      <trkpt lat="44.98013" lon="0.53458">
        <ele>161.16</ele>
        <time>2019-09-15T07:48:25Z</time>
      </trkpt>
      <trkpt lat="44.98029" lon="0.53423">
        <ele>158.27</ele>
        <time>2019-09-15T07:48:45Z</time>
      </trkpt>
      <trkpt lat="44.9803" lon="0.53413">
        <ele>157.31</ele>
        <time>2019-09-15T07:48:53Z</time>
      </trkpt>
      <trkpt lat="44.98032" lon="0.53388">
        <ele>153.47</ele>
        <time>2019-09-15T07:49:09Z</time>
      </trkpt>
      <trkpt lat="44.98032" lon="0.53364">
        <ele>150.1</ele>
        <time>2019-09-15T07:49:22Z</time>
      </trkpt>
      <trkpt lat="44.98032" lon="0.53363">
        <ele>150.1</ele>
        <time>2019-09-15T07:49:23Z</time>
      </trkpt>
      <trkpt lat="44.98025" lon="0.53323">
        <ele>147.7</ele>
        <time>2019-09-15T07:49:45Z</time>
      </trkpt>
      <trkpt lat="44.98025" lon="0.53309">
        <ele>148.66</ele>
        <time>2019-09-15T07:49:51Z</time>
      </trkpt>
      <trkpt lat="44.98039" lon="0.53274">
        <ele>149.14</ele>
        <time>2019-09-15T07:50:09Z</time>
      </trkpt>
      <trkpt lat="44.98049" lon="0.53255">
        <ele>147.7</ele>
        <time>2019-09-15T07:50:20Z</time>
      </trkpt>
      <trkpt lat="44.98057" lon="0.53208">
        <ele>146.26</ele>
        <time>2019-09-15T07:50:43Z</time>
      </trkpt>
      <trkpt lat="44.98037" lon="0.53171">
        <ele>143.85</ele>
        <time>2019-09-15T07:51:06Z</time>
      </trkpt>
      <trkpt lat="44.98025" lon="0.53131">
        <ele>143.37</ele>
        <time>2019-09-15T07:51:25Z</time>
      </trkpt>
      <trkpt lat="44.98015" lon="0.53083">
        <ele>143.37</ele>
        <time>2019-09-15T07:51:46Z</time>
      </trkpt>
      <trkpt lat="44.98007" lon="0.53051">
        <ele>144.34</ele>
        <time>2019-09-15T07:52:00Z</time>
      </trkpt>
      <trkpt lat="44.98" lon="0.53001">
        <ele>143.37</ele>
        <time>2019-09-15T07:52:23Z</time>
      </trkpt>
      <trkpt lat="44.97995" lon="0.52957">
        <ele>142.41</ele>
        <time>2019-09-15T07:52:43Z</time>
      </trkpt>
      <trkpt lat="44.9798" lon="0.52905">
        <ele>141.93</ele>
        <time>2019-09-15T07:53:09Z</time>
      </trkpt>
      <trkpt lat="44.97976" lon="0.52899">
        <ele>144.34</ele>
        <time>2019-09-15T07:53:13Z</time>
      </trkpt>
      <trkpt lat="44.9795" lon="0.52888">
        <ele>147.7</ele>
        <time>2019-09-15T07:53:34Z</time>
      </trkpt>
      <trkpt lat="44.9794" lon="0.52868">
        <ele>150.58</ele>
        <time>2019-09-15T07:53:48Z</time>
      </trkpt>
      <trkpt lat="44.97945" lon="0.52844">
        <ele>152.51</ele>
        <time>2019-09-15T07:54:01Z</time>
      </trkpt>
      <trkpt lat="44.97968" lon="0.52808">
        <ele>155.39</ele>
        <time>2019-09-15T07:54:25Z</time>
      </trkpt>
      <trkpt lat="44.97979" lon="0.52784">
        <ele>157.79</ele>
        <time>2019-09-15T07:54:40Z</time>
      </trkpt>
      <trkpt lat="44.97984" lon="0.52743">
        <ele>156.83</ele>
        <time>2019-09-15T07:55:00Z</time>
      </trkpt>
      <trkpt lat="44.97985" lon="0.52717">
        <ele>155.39</ele>
        <time>2019-09-15T07:55:15Z</time>
      </trkpt>
      <trkpt lat="44.97976" lon="0.52691">
        <ele>152.99</ele>
        <time>2019-09-15T07:55:33Z</time>
      </trkpt>
      <trkpt lat="44.97965" lon="0.52663">
        <ele>150.1</ele>
        <time>2019-09-15T07:55:49Z</time>
      </trkpt>
      <trkpt lat="44.97954" lon="0.52628">
        <ele>147.22</ele>
        <time>2019-09-15T07:56:07Z</time>
      </trkpt>
      <trkpt lat="44.97958" lon="0.52613">
        <ele>146.26</ele>
        <time>2019-09-15T07:56:14Z</time>
      </trkpt>
      <trkpt lat="44.9798" lon="0.52599">
        <ele>142.89</ele>
        <time>2019-09-15T07:56:30Z</time>
      </trkpt>
      <trkpt lat="44.98003" lon="0.52594">
        <ele>140.97</ele>
        <time>2019-09-15T07:56:50Z</time>
      </trkpt>
      <trkpt lat="44.98021" lon="0.52587">
        <ele>139.05</ele>
        <time>2019-09-15T07:57:05Z</time>
      </trkpt>
      <trkpt lat="44.98046" lon="0.52563">
        <ele>136.64</ele>
        <time>2019-09-15T07:57:23Z</time>
      </trkpt>
      <trkpt lat="44.98062" lon="0.5254">
        <ele>133.28</ele>
        <time>2019-09-15T07:57:37Z</time>
      </trkpt>
      <trkpt lat="44.98062" lon="0.52535">
        <ele>133.28</ele>
        <time>2019-09-15T07:57:39Z</time>
      </trkpt>
      <trkpt lat="44.98057" lon="0.52525">
        <ele>131.84</ele>
        <time>2019-09-15T07:57:44Z</time>
      </trkpt>
      <trkpt lat="44.98033" lon="0.52498">
        <ele>127.99</ele>
        <time>2019-09-15T07:58:03Z</time>
      </trkpt>
      <trkpt lat="44.98004" lon="0.52462">
        <ele>124.63</ele>
        <time>2019-09-15T07:58:29Z</time>
      </trkpt>
      <trkpt lat="44.97978" lon="0.52418">
        <ele>123.19</ele>
        <time>2019-09-15T07:58:54Z</time>
      </trkpt>
      <trkpt lat="44.97971" lon="0.52364">
        <ele>122.71</ele>
        <time>2019-09-15T07:59:17Z</time>
      </trkpt>
      <trkpt lat="44.97964" lon="0.52323">
        <ele>122.71</ele>
        <time>2019-09-15T07:59:40Z</time>
      </trkpt>
      <trkpt lat="44.97961" lon="0.52331">
        <ele>124.15</ele>
        <time>2019-09-15T07:59:44Z</time>
      </trkpt>
      <trkpt lat="44.97949" lon="0.52348">
        <ele>125.11</ele>
        <time>2019-09-15T07:59:56Z</time>
      </trkpt>
      <trkpt lat="44.97915" lon="0.52359">
        <ele>126.07</ele>
        <time>2019-09-15T08:00:20Z</time>
      </trkpt>
      <trkpt lat="44.97886" lon="0.52368">
        <ele>127.03</ele>
        <time>2019-09-15T08:00:40Z</time>
      </trkpt>
      <trkpt lat="44.97856" lon="0.5238">
        <ele>128.47</ele>
        <time>2019-09-15T08:01:01Z</time>
      </trkpt>
      <trkpt lat="44.97826" lon="0.52383">
        <ele>130.88</ele>
        <time>2019-09-15T08:01:23Z</time>
      </trkpt>
      <trkpt lat="44.97795" lon="0.52384">
        <ele>128.95</ele>
        <time>2019-09-15T08:01:42Z</time>
      </trkpt>
      <trkpt lat="44.97775" lon="0.52371">
        <ele>129.43</ele>
        <time>2019-09-15T08:01:56Z</time>
      </trkpt>
      <trkpt lat="44.9777" lon="0.52367">
        <ele>128.47</ele>
        <time>2019-09-15T08:02:00Z</time>
      </trkpt>
      <trkpt lat="44.97739" lon="0.52356">
        <ele>127.51</ele>
        <time>2019-09-15T08:02:20Z</time>
      </trkpt>
      <trkpt lat="44.9771" lon="0.52361">
        <ele>127.51</ele>
        <time>2019-09-15T08:02:40Z</time>
      </trkpt>
      <trkpt lat="44.97707" lon="0.52362">
        <ele>127.51</ele>
        <time>2019-09-15T08:02:42Z</time>
      </trkpt>
      <trkpt lat="44.97705" lon="0.52363">
        <ele>128.95</ele>
        <time>2019-09-15T08:02:44Z</time>
      </trkpt>
      <trkpt lat="44.977" lon="0.52363">
        <ele>128.95</ele>
        <time>2019-09-15T08:02:47Z</time>
      </trkpt>
      <trkpt lat="44.97675" lon="0.5235">
        <ele>131.36</ele>
        <time>2019-09-15T08:03:08Z</time>
      </trkpt>
      <trkpt lat="44.97669" lon="0.52352">
        <ele>131.84</ele>
        <time>2019-09-15T08:03:12Z</time>
      </trkpt>
      <trkpt lat="44.97636" lon="0.52365">
        <ele>131.84</ele>
        <time>2019-09-15T08:03:36Z</time>
      </trkpt>
      <trkpt lat="44.97601" lon="0.52375">
        <ele>132.8</ele>
        <time>2019-09-15T08:03:59Z</time>
      </trkpt>
      <trkpt lat="44.97567" lon="0.52374">
        <ele>133.28</ele>
        <time>2019-09-15T08:04:21Z</time>
      </trkpt>
      <trkpt lat="44.97534" lon="0.52383">
        <ele>131.84</ele>
        <time>2019-09-15T08:04:43Z</time>
      </trkpt>
      <trkpt lat="44.97527" lon="0.52383">
        <ele>133.28</ele>
        <time>2019-09-15T08:04:48Z</time>
      </trkpt>
      <trkpt lat="44.97503" lon="0.52395">
        <ele>134.24</ele>
        <time>2019-09-15T08:05:07Z</time>
      </trkpt>
      <trkpt lat="44.97479" lon="0.52437">
        <ele>134.24</ele>
        <time>2019-09-15T08:05:32Z</time>
      </trkpt>
      <trkpt lat="44.97455" lon="0.52466">
        <ele>135.2</ele>
        <time>2019-09-15T08:05:54Z</time>
      </trkpt>
      <trkpt lat="44.97429" lon="0.525">
        <ele>135.2</ele>
        <time>2019-09-15T08:06:17Z</time>
      </trkpt>
      <trkpt lat="44.97395" lon="0.52532">
        <ele>136.16</ele>
        <time>2019-09-15T08:06:44Z</time>
      </trkpt>
      <trkpt lat="44.97363" lon="0.52555">
        <ele>138.09</ele>
        <time>2019-09-15T08:07:08Z</time>
      </trkpt>
      <trkpt lat="44.97336" lon="0.52572">
        <ele>140.49</ele>
        <time>2019-09-15T08:07:29Z</time>
      </trkpt>
      <trkpt lat="44.97311" lon="0.52589">
        <ele>142.89</ele>
        <time>2019-09-15T08:07:48Z</time>
      </trkpt>
      <trkpt lat="44.97288" lon="0.52598">
        <ele>144.82</ele>
        <time>2019-09-15T08:08:07Z</time>
      </trkpt>
      <trkpt lat="44.97262" lon="0.52594">
        <ele>147.22</ele>
        <time>2019-09-15T08:08:28Z</time>
      </trkpt>
      <trkpt lat="44.97234" lon="0.52585">
        <ele>149.62</ele>
        <time>2019-09-15T08:08:51Z</time>
      </trkpt>
      <trkpt lat="44.97202" lon="0.52566">
        <ele>151.06</ele>
        <time>2019-09-15T08:09:15Z</time>
      </trkpt>
      <trkpt lat="44.97197" lon="0.52561">
        <ele>152.51</ele>
        <time>2019-09-15T08:09:19Z</time>
      </trkpt>
      <trkpt lat="44.97176" lon="0.52548">
        <ele>153.95</ele>
        <time>2019-09-15T08:09:36Z</time>
      </trkpt>
      <trkpt lat="44.97145" lon="0.52531">
        <ele>155.39</ele>
        <time>2019-09-15T08:09:58Z</time>
      </trkpt>
      <trkpt lat="44.97117" lon="0.52513">
        <ele>155.87</ele>
        <time>2019-09-15T08:10:20Z</time>
      </trkpt>
      <trkpt lat="44.97092" lon="0.52484">
        <ele>155.87</ele>
        <time>2019-09-15T08:10:42Z</time>
      </trkpt>
      <trkpt lat="44.9709" lon="0.52482">
        <ele>157.31</ele>
        <time>2019-09-15T08:10:44Z</time>
      </trkpt>
      <trkpt lat="44.97067" lon="0.52459">
        <ele>158.75</ele>
        <time>2019-09-15T08:11:06Z</time>
      </trkpt>
      <trkpt lat="44.97062" lon="0.52452">
        <ele>159.72</ele>
        <time>2019-09-15T08:11:24Z</time>
      </trkpt>
      <trkpt lat="44.97061" lon="0.52454">
        <ele>159.72</ele>
        <time>2019-09-15T08:11:53Z</time>
      </trkpt>
      <trkpt lat="44.9706" lon="0.52454">
        <ele>159.72</ele>
        <time>2019-09-15T08:12:26Z</time>
      </trkpt>
      <trkpt lat="44.9706" lon="0.52453">
        <ele>160.2</ele>
        <time>2019-09-15T08:12:51Z</time>
      </trkpt>
      <trkpt lat="44.97059" lon="0.52452">
        <ele>159.24</ele>
        <time>2019-09-15T08:13:21Z</time>
      </trkpt>
      <trkpt lat="44.97059" lon="0.52451">
        <ele>159.24</ele>
        <time>2019-09-15T08:13:46Z</time>
      </trkpt>
      <trkpt lat="44.97059" lon="0.52453">
        <ele>159.24</ele>
        <time>2019-09-15T08:14:16Z</time>
      </trkpt>
      <trkpt lat="44.97055" lon="0.52454">
        <ele>160.68</ele>
        <time>2019-09-15T08:14:34Z</time>
      </trkpt>
      <trkpt lat="44.97054" lon="0.52455">
        <ele>160.68</ele>
        <time>2019-09-15T08:14:35Z</time>
      </trkpt>
      <trkpt lat="44.97054" lon="0.52456">
        <ele>160.68</ele>
        <time>2019-09-15T08:14:36Z</time>
      </trkpt>
      <trkpt lat="44.97052" lon="0.52462">
        <ele>161.16</ele>
        <time>2019-09-15T08:14:40Z</time>
      </trkpt>
      <trkpt lat="44.97037" lon="0.52503">
        <ele>163.08</ele>
        <time>2019-09-15T08:15:03Z</time>
      </trkpt>
      <trkpt lat="44.97028" lon="0.52517">
        <ele>163.08</ele>
        <time>2019-09-15T08:15:13Z</time>
      </trkpt>
      <trkpt lat="44.9702" lon="0.52518">
        <ele>163.56</ele>
        <time>2019-09-15T08:15:18Z</time>
      </trkpt>
      <trkpt lat="44.96986" lon="0.52499">
        <ele>164.52</ele>
        <time>2019-09-15T08:15:42Z</time>
      </trkpt>
      <trkpt lat="44.96963" lon="0.52469">
        <ele>166.45</ele>
        <time>2019-09-15T08:16:03Z</time>
      </trkpt>
      <trkpt lat="44.96939" lon="0.52439">
        <ele>167.41</ele>
        <time>2019-09-15T08:16:25Z</time>
      </trkpt>
      <trkpt lat="44.96923" lon="0.52421">
        <ele>168.37</ele>
        <time>2019-09-15T08:16:43Z</time>
      </trkpt>
      <trkpt lat="44.96895" lon="0.52399">
        <ele>169.81</ele>
        <time>2019-09-15T08:17:04Z</time>
      </trkpt>
      <trkpt lat="44.96866" lon="0.52372">
        <ele>169.81</ele>
        <time>2019-09-15T08:17:28Z</time>
      </trkpt>
      <trkpt lat="44.96842" lon="0.52344">
        <ele>170.77</ele>
        <time>2019-09-15T08:17:48Z</time>
      </trkpt>
      <trkpt lat="44.96834" lon="0.52306">
        <ele>171.73</ele>
        <time>2019-09-15T08:18:07Z</time>
      </trkpt>
      <trkpt lat="44.96839" lon="0.52294">
        <ele>171.73</ele>
        <time>2019-09-15T08:18:15Z</time>
      </trkpt>
      <trkpt lat="44.96842" lon="0.52287">
        <ele>171.73</ele>
        <time>2019-09-15T08:18:19Z</time>
      </trkpt>
      <trkpt lat="44.96841" lon="0.52273">
        <ele>171.73</ele>
        <time>2019-09-15T08:18:28Z</time>
      </trkpt>
      <trkpt lat="44.96814" lon="0.5225">
        <ele>174.14</ele>
        <time>2019-09-15T08:18:53Z</time>
      </trkpt>
      <trkpt lat="44.96787" lon="0.52232">
        <ele>175.58</ele>
        <time>2019-09-15T08:19:13Z</time>
      </trkpt>
      <trkpt lat="44.96756" lon="0.52216">
        <ele>177.02</ele>
        <time>2019-09-15T08:19:35Z</time>
      </trkpt>
      <trkpt lat="44.96729" lon="0.52204">
        <ele>177.98</ele>
        <time>2019-09-15T08:19:54Z</time>
      </trkpt>
      <trkpt lat="44.96709" lon="0.52194">
        <ele>178.46</ele>
        <time>2019-09-15T08:20:11Z</time>
      </trkpt>
      <trkpt lat="44.96683" lon="0.52185">
        <ele>177.02</ele>
        <time>2019-09-15T08:20:28Z</time>
      </trkpt>
      <trkpt lat="44.9668" lon="0.52198">
        <ele>178.46</ele>
        <time>2019-09-15T08:20:35Z</time>
      </trkpt>
      <trkpt lat="44.96683" lon="0.52215">
        <ele>177.02</ele>
        <time>2019-09-15T08:20:43Z</time>
      </trkpt>
      <trkpt lat="44.9668" lon="0.52262">
        <ele>173.66</ele>
        <time>2019-09-15T08:21:04Z</time>
      </trkpt>
      <trkpt lat="44.96677" lon="0.52318">
        <ele>171.73</ele>
        <time>2019-09-15T08:21:28Z</time>
      </trkpt>
      <trkpt lat="44.96676" lon="0.52365">
        <ele>171.25</ele>
        <time>2019-09-15T08:21:49Z</time>
      </trkpt>
      <trkpt lat="44.96676" lon="0.52422">
        <ele>170.29</ele>
        <time>2019-09-15T08:22:15Z</time>
      </trkpt>
      <trkpt lat="44.96674" lon="0.52463">
        <ele>169.33</ele>
        <time>2019-09-15T08:22:33Z</time>
      </trkpt>
      <trkpt lat="44.96673" lon="0.52514">
        <ele>168.37</ele>
        <time>2019-09-15T08:22:56Z</time>
      </trkpt>
      <trkpt lat="44.9667" lon="0.52561">
        <ele>168.37</ele>
        <time>2019-09-15T08:23:18Z</time>
      </trkpt>
      <trkpt lat="44.96672" lon="0.52612">
        <ele>168.37</ele>
        <time>2019-09-15T08:23:40Z</time>
      </trkpt>
      <trkpt lat="44.96673" lon="0.52655">
        <ele>169.33</ele>
        <time>2019-09-15T08:24:00Z</time>
      </trkpt>
      <trkpt lat="44.96672" lon="0.52657">
        <ele>169.33</ele>
        <time>2019-09-15T08:24:01Z</time>
      </trkpt>
      <trkpt lat="44.9667" lon="0.52695">
        <ele>170.29</ele>
        <time>2019-09-15T08:24:19Z</time>
      </trkpt>
      <trkpt lat="44.96666" lon="0.52732">
        <ele>172.21</ele>
        <time>2019-09-15T08:24:37Z</time>
      </trkpt>
      <trkpt lat="44.96655" lon="0.52772">
        <ele>174.14</ele>
        <time>2019-09-15T08:24:58Z</time>
      </trkpt>
      <trkpt lat="44.96647" lon="0.52807">
        <ele>172.69</ele>
        <time>2019-09-15T08:25:14Z</time>
      </trkpt>
      <trkpt lat="44.96635" lon="0.52862">
        <ele>170.77</ele>
        <time>2019-09-15T08:25:39Z</time>
      </trkpt>
      <trkpt lat="44.96619" lon="0.52911">
        <ele>169.81</ele>
        <time>2019-09-15T08:26:01Z</time>
      </trkpt>
      <trkpt lat="44.96608" lon="0.52959">
        <ele>169.33</ele>
        <time>2019-09-15T08:26:23Z</time>
      </trkpt>
      <trkpt lat="44.96597" lon="0.53007">
        <ele>169.33</ele>
        <time>2019-09-15T08:26:45Z</time>
      </trkpt>
      <trkpt lat="44.96595" lon="0.53021">
        <ele>170.29</ele>
        <time>2019-09-15T08:26:51Z</time>
      </trkpt>
      <trkpt lat="44.96594" lon="0.53028">
        <ele>171.25</ele>
        <time>2019-09-15T08:26:55Z</time>
      </trkpt>
      <trkpt lat="44.96599" lon="0.53064">
        <ele>172.69</ele>
        <time>2019-09-15T08:27:16Z</time>
      </trkpt>
      <trkpt lat="44.96602" lon="0.53068">
        <ele>172.69</ele>
        <time>2019-09-15T08:27:40Z</time>
      </trkpt>
      <trkpt lat="44.96602" lon="0.53066">
        <ele>173.17</ele>
        <time>2019-09-15T08:27:59Z</time>
      </trkpt>
      <trkpt lat="44.966" lon="0.53062">
        <ele>173.17</ele>
        <time>2019-09-15T08:28:21Z</time>
      </trkpt>
      <trkpt lat="44.96603" lon="0.53064">
        <ele>173.17</ele>
        <time>2019-09-15T08:28:39Z</time>
      </trkpt>
      <trkpt lat="44.96599" lon="0.53066">
        <ele>173.17</ele>
        <time>2019-09-15T08:29:07Z</time>
      </trkpt>
      <trkpt lat="44.966" lon="0.53066">
        <ele>172.21</ele>
        <time>2019-09-15T08:29:34Z</time>
      </trkpt>
      <trkpt lat="44.96602" lon="0.53065">
        <ele>172.21</ele>
        <time>2019-09-15T08:30:00Z</time>
      </trkpt>
      <trkpt lat="44.96603" lon="0.53065">
        <ele>172.21</ele>
        <time>2019-09-15T08:30:01Z</time>
      </trkpt>
      <trkpt lat="44.96629" lon="0.53081">
        <ele>173.17</ele>
        <time>2019-09-15T08:30:21Z</time>
      </trkpt>
      <trkpt lat="44.96656" lon="0.53096">
        <ele>173.66</ele>
        <time>2019-09-15T08:30:41Z</time>
      </trkpt>
      <trkpt lat="44.96685" lon="0.53113">
        <ele>174.14</ele>
        <time>2019-09-15T08:31:02Z</time>
      </trkpt>
      <trkpt lat="44.96714" lon="0.53135">
        <ele>174.62</ele>
        <time>2019-09-15T08:31:24Z</time>
      </trkpt>
      <trkpt lat="44.96742" lon="0.53164">
        <ele>174.62</ele>
        <time>2019-09-15T08:31:47Z</time>
      </trkpt>
      <trkpt lat="44.96756" lon="0.53176">
        <ele>173.17</ele>
        <time>2019-09-15T08:31:56Z</time>
      </trkpt>
      <trkpt lat="44.96785" lon="0.53201">
        <ele>173.17</ele>
        <time>2019-09-15T08:32:17Z</time>
      </trkpt>
      <trkpt lat="44.96819" lon="0.53206">
        <ele>173.17</ele>
        <time>2019-09-15T08:32:37Z</time>
      </trkpt>
      <trkpt lat="44.96827" lon="0.53208">
        <ele>174.14</ele>
        <time>2019-09-15T08:32:42Z</time>
      </trkpt>
      <trkpt lat="44.96863" lon="0.53219">
        <ele>175.58</ele>
        <time>2019-09-15T08:33:07Z</time>
      </trkpt>
      <trkpt lat="44.96895" lon="0.53243">
        <ele>176.06</ele>
        <time>2019-09-15T08:33:30Z</time>
      </trkpt>
      <trkpt lat="44.96902" lon="0.53246">
        <ele>176.06</ele>
        <time>2019-09-15T08:33:35Z</time>
      </trkpt>
      <trkpt lat="44.96935" lon="0.5326">
        <ele>175.1</ele>
        <time>2019-09-15T08:33:58Z</time>
      </trkpt>
      <trkpt lat="44.96964" lon="0.53288">
        <ele>175.1</ele>
        <time>2019-09-15T08:34:21Z</time>
      </trkpt>
      <trkpt lat="44.96996" lon="0.53306">
        <ele>173.17</ele>
        <time>2019-09-15T08:34:43Z</time>
      </trkpt>
      <trkpt lat="44.97033" lon="0.53318">
        <ele>171.25</ele>
        <time>2019-09-15T08:35:08Z</time>
      </trkpt>
      <trkpt lat="44.97066" lon="0.53324">
        <ele>171.25</ele>
        <time>2019-09-15T08:35:28Z</time>
      </trkpt>
      <trkpt lat="44.97071" lon="0.53325">
        <ele>171.25</ele>
        <time>2019-09-15T08:35:32Z</time>
      </trkpt>
      <trkpt lat="44.97105" lon="0.5333">
        <ele>173.17</ele>
        <time>2019-09-15T08:35:54Z</time>
      </trkpt>
      <trkpt lat="44.97121" lon="0.53335">
        <ele>173.17</ele>
        <time>2019-09-15T08:36:04Z</time>
      </trkpt>
      <trkpt lat="44.97144" lon="0.53363">
        <ele>173.66</ele>
        <time>2019-09-15T08:36:24Z</time>
      </trkpt>
      <trkpt lat="44.97169" lon="0.53387">
        <ele>175.1</ele>
        <time>2019-09-15T08:36:45Z</time>
      </trkpt>
      <trkpt lat="44.97199" lon="0.534">
        <ele>175.58</ele>
        <time>2019-09-15T08:37:07Z</time>
      </trkpt>
      <trkpt lat="44.97227" lon="0.53415">
        <ele>177.02</ele>
        <time>2019-09-15T08:37:29Z</time>
      </trkpt>
      <trkpt lat="44.97253" lon="0.53433">
        <ele>179.42</ele>
        <time>2019-09-15T08:37:50Z</time>
      </trkpt>
      <trkpt lat="44.97274" lon="0.53456">
        <ele>181.35</ele>
        <time>2019-09-15T08:38:09Z</time>
      </trkpt>
      <trkpt lat="44.97298" lon="0.53487">
        <ele>183.27</ele>
        <time>2019-09-15T08:38:31Z</time>
      </trkpt>
      <trkpt lat="44.97328" lon="0.53512">
        <ele>181.83</ele>
        <time>2019-09-15T08:38:53Z</time>
      </trkpt>
      <trkpt lat="44.97329" lon="0.53513">
        <ele>181.35</ele>
        <time>2019-09-15T08:38:54Z</time>
      </trkpt>
      <trkpt lat="44.97327" lon="0.5352">
        <ele>181.83</ele>
        <time>2019-09-15T08:38:58Z</time>
      </trkpt>
      <trkpt lat="44.97306" lon="0.53534">
        <ele>181.35</ele>
        <time>2019-09-15T08:39:14Z</time>
      </trkpt>
      <trkpt lat="44.97303" lon="0.53536">
        <ele>181.35</ele>
        <time>2019-09-15T08:39:17Z</time>
      </trkpt>
      <trkpt lat="44.97276" lon="0.53553">
        <ele>179.9</ele>
        <time>2019-09-15T08:39:39Z</time>
      </trkpt>
      <trkpt lat="44.97246" lon="0.53571">
        <ele>179.42</ele>
        <time>2019-09-15T08:40:01Z</time>
      </trkpt>
      <trkpt lat="44.97209" lon="0.53586">
        <ele>178.94</ele>
        <time>2019-09-15T08:40:25Z</time>
      </trkpt>
      <trkpt lat="44.97185" lon="0.53613">
        <ele>177.02</ele>
        <time>2019-09-15T08:40:48Z</time>
      </trkpt>
      <trkpt lat="44.97157" lon="0.53632">
        <ele>176.06</ele>
        <time>2019-09-15T08:41:08Z</time>
      </trkpt>
      <trkpt lat="44.97145" lon="0.53649">
        <ele>173.66</ele>
        <time>2019-09-15T08:41:24Z</time>
      </trkpt>
      <trkpt lat="44.97168" lon="0.5366">
        <ele>176.06</ele>
        <time>2019-09-15T08:41:43Z</time>
      </trkpt>
      <trkpt lat="44.97171" lon="0.53663">
        <ele>176.06</ele>
        <time>2019-09-15T08:41:46Z</time>
      </trkpt>
      <trkpt lat="44.97189" lon="0.5368">
        <ele>175.1</ele>
        <time>2019-09-15T08:42:03Z</time>
      </trkpt>
      <trkpt lat="44.9719" lon="0.5369">
        <ele>175.58</ele>
        <time>2019-09-15T08:42:08Z</time>
      </trkpt>
      <trkpt lat="44.97191" lon="0.53693">
        <ele>174.14</ele>
        <time>2019-09-15T08:42:10Z</time>
      </trkpt>
      <trkpt lat="44.97216" lon="0.53705">
        <ele>174.62</ele>
        <time>2019-09-15T08:42:31Z</time>
      </trkpt>
      <trkpt lat="44.97241" lon="0.53721">
        <ele>174.14</ele>
        <time>2019-09-15T08:42:50Z</time>
      </trkpt>
      <trkpt lat="44.97262" lon="0.53754">
        <ele>173.66</ele>
        <time>2019-09-15T08:43:10Z</time>
      </trkpt>
      <trkpt lat="44.97281" lon="0.53785">
        <ele>173.17</ele>
        <time>2019-09-15T08:43:29Z</time>
      </trkpt>
      <trkpt lat="44.97299" lon="0.53817">
        <ele>171.73</ele>
        <time>2019-09-15T08:43:48Z</time>
      </trkpt>
      <trkpt lat="44.97299" lon="0.53819">
        <ele>171.73</ele>
        <time>2019-09-15T08:43:49Z</time>
      </trkpt>
      <trkpt lat="44.97288" lon="0.5386">
        <ele>170.77</ele>
        <time>2019-09-15T08:44:11Z</time>
      </trkpt>
      <trkpt lat="44.97282" lon="0.53902">
        <ele>168.85</ele>
        <time>2019-09-15T08:44:32Z</time>
      </trkpt>
      <trkpt lat="44.97291" lon="0.53925">
        <ele>166.93</ele>
        <time>2019-09-15T08:44:43Z</time>
      </trkpt>
      <trkpt lat="44.9729" lon="0.5394">
        <ele>166.93</ele>
        <time>2019-09-15T08:44:49Z</time>
      </trkpt>
      <trkpt lat="44.97278" lon="0.53978">
        <ele>163.56</ele>
        <time>2019-09-15T08:45:07Z</time>
      </trkpt>
      <trkpt lat="44.97265" lon="0.5402">
        <ele>160.68</ele>
        <time>2019-09-15T08:45:28Z</time>
      </trkpt>
      <trkpt lat="44.9726" lon="0.54049">
        <ele>157.79</ele>
        <time>2019-09-15T08:45:41Z</time>
      </trkpt>
      <trkpt lat="44.97257" lon="0.5408">
        <ele>154.43</ele>
        <time>2019-09-15T08:45:58Z</time>
      </trkpt>
      <trkpt lat="44.97237" lon="0.54099">
        <ele>151.06</ele>
        <time>2019-09-15T08:46:11Z</time>
      </trkpt>
      <trkpt lat="44.97233" lon="0.54105">
        <ele>150.1</ele>
        <time>2019-09-15T08:46:15Z</time>
      </trkpt>
      <trkpt lat="44.97221" lon="0.54135">
        <ele>145.78</ele>
        <time>2019-09-15T08:46:29Z</time>
      </trkpt>
      <trkpt lat="44.97212" lon="0.54167">
        <ele>143.37</ele>
        <time>2019-09-15T08:46:45Z</time>
      </trkpt>
      <trkpt lat="44.97223" lon="0.54176">
        <ele>143.37</ele>
        <time>2019-09-15T08:46:52Z</time>
      </trkpt>
      <trkpt lat="44.97249" lon="0.54224">
        <ele>142.41</ele>
        <time>2019-09-15T08:47:19Z</time>
      </trkpt>
      <trkpt lat="44.97261" lon="0.54241">
        <ele>143.85</ele>
        <time>2019-09-15T08:47:30Z</time>
      </trkpt>
      <trkpt lat="44.97286" lon="0.54275">
        <ele>143.85</ele>
        <time>2019-09-15T08:47:53Z</time>
      </trkpt>
      <trkpt lat="44.97295" lon="0.54286">
        <ele>143.85</ele>
        <time>2019-09-15T08:48:01Z</time>
      </trkpt>
      <trkpt lat="44.97297" lon="0.54288">
        <ele>143.85</ele>
        <time>2019-09-15T08:48:03Z</time>
      </trkpt>
      <trkpt lat="44.97321" lon="0.54308">
        <ele>142.41</ele>
        <time>2019-09-15T08:48:21Z</time>
      </trkpt>
      <trkpt lat="44.97361" lon="0.54334">
        <ele>141.93</ele>
        <time>2019-09-15T08:48:47Z</time>
      </trkpt>
      <trkpt lat="44.97388" lon="0.5436">
        <ele>140.97</ele>
        <time>2019-09-15T08:49:10Z</time>
      </trkpt>
      <trkpt lat="44.97417" lon="0.54386">
        <ele>140.01</ele>
        <time>2019-09-15T08:49:32Z</time>
      </trkpt>
      <trkpt lat="44.97446" lon="0.54415">
        <ele>138.09</ele>
        <time>2019-09-15T08:49:55Z</time>
      </trkpt>
      <trkpt lat="44.9748" lon="0.54446">
        <ele>136.16</ele>
        <time>2019-09-15T08:50:21Z</time>
      </trkpt>
      <trkpt lat="44.97517" lon="0.54468">
        <ele>134.24</ele>
        <time>2019-09-15T08:50:45Z</time>
      </trkpt>
      <trkpt lat="44.97558" lon="0.54491">
        <ele>131.84</ele>
        <time>2019-09-15T08:51:11Z</time>
      </trkpt>
      <trkpt lat="44.97595" lon="0.5451">
        <ele>128.95</ele>
        <time>2019-09-15T08:51:35Z</time>
      </trkpt>
      <trkpt lat="44.97623" lon="0.54538">
        <ele>128.47</ele>
        <time>2019-09-15T08:51:56Z</time>
      </trkpt>
      <trkpt lat="44.97635" lon="0.54578">
        <ele>127.51</ele>
        <time>2019-09-15T08:52:15Z</time>
      </trkpt>
      <trkpt lat="44.9765" lon="0.54616">
        <ele>127.03</ele>
        <time>2019-09-15T08:52:35Z</time>
      </trkpt>
      <trkpt lat="44.97676" lon="0.54662">
        <ele>125.59</ele>
        <time>2019-09-15T08:53:00Z</time>
      </trkpt>
      <trkpt lat="44.97704" lon="0.54675">
        <ele>125.11</ele>
        <time>2019-09-15T08:53:21Z</time>
      </trkpt>
      <trkpt lat="44.97705" lon="0.54667">
        <ele>124.63</ele>
        <time>2019-09-15T08:53:43Z</time>
      </trkpt>
      <trkpt lat="44.97705" lon="0.54667">
        <ele>124.63</ele>
        <time>2019-09-15T08:54:08Z</time>
      </trkpt>
      <trkpt lat="44.97706" lon="0.54666">
        <ele>124.15</ele>
        <time>2019-09-15T08:54:32Z</time>
      </trkpt>
      <trkpt lat="44.97708" lon="0.54672">
        <ele>124.15</ele>
        <time>2019-09-15T08:54:56Z</time>
      </trkpt>
      <trkpt lat="44.97707" lon="0.54667">
        <ele>125.11</ele>
        <time>2019-09-15T08:55:23Z</time>
      </trkpt>
      <trkpt lat="44.97708" lon="0.54666">
        <ele>125.11</ele>
        <time>2019-09-15T08:55:52Z</time>
      </trkpt>
      <trkpt lat="44.9772" lon="0.54662">
        <ele>124.15</ele>
        <time>2019-09-15T08:56:16Z</time>
      </trkpt>
      <trkpt lat="44.97749" lon="0.54645">
        <ele>123.67</ele>
        <time>2019-09-15T08:56:38Z</time>
      </trkpt>
      <trkpt lat="44.97781" lon="0.54628">
        <ele>123.67</ele>
        <time>2019-09-15T08:57:01Z</time>
      </trkpt>
      <trkpt lat="44.97811" lon="0.54627">
        <ele>123.67</ele>
        <time>2019-09-15T08:57:22Z</time>
      </trkpt>
      <trkpt lat="44.97854" lon="0.54637">
        <ele>123.67</ele>
        <time>2019-09-15T08:57:48Z</time>
      </trkpt>
      <trkpt lat="44.9786" lon="0.54639">
        <ele>125.11</ele>
        <time>2019-09-15T08:57:52Z</time>
      </trkpt>
      <trkpt lat="44.97895" lon="0.54641">
        <ele>126.07</ele>
        <time>2019-09-15T08:58:16Z</time>
      </trkpt>
      <trkpt lat="44.97929" lon="0.5465">
        <ele>127.03</ele>
        <time>2019-09-15T08:58:39Z</time>
      </trkpt>
      <trkpt lat="44.97964" lon="0.54678">
        <ele>126.07</ele>
        <time>2019-09-15T08:59:04Z</time>
      </trkpt>
      <trkpt lat="44.97967" lon="0.54698">
        <ele>123.19</ele>
        <time>2019-09-15T08:59:14Z</time>
      </trkpt>
      <trkpt lat="44.9797" lon="0.5473">
        <ele>120.3</ele>
        <time>2019-09-15T08:59:32Z</time>
      </trkpt>
      <trkpt lat="44.98006" lon="0.54736">
        <ele>119.82</ele>
        <time>2019-09-15T08:59:54Z</time>
      </trkpt>
      <trkpt lat="44.98032" lon="0.54742">
        <ele>120.78</ele>
        <time>2019-09-15T09:00:12Z</time>
      </trkpt>
      <trkpt lat="44.98037" lon="0.54744">
        <ele>120.78</ele>
        <time>2019-09-15T09:00:15Z</time>
      </trkpt>
      <trkpt lat="44.98042" lon="0.54769">
        <ele>119.82</ele>
        <time>2019-09-15T09:00:28Z</time>
      </trkpt>
      <trkpt lat="44.98032" lon="0.54817">
        <ele>118.86</ele>
        <time>2019-09-15T09:00:50Z</time>
      </trkpt>
      <trkpt lat="44.98023" lon="0.5485">
        <ele>120.3</ele>
        <time>2019-09-15T09:01:06Z</time>
      </trkpt>
      <trkpt lat="44.98042" lon="0.54874">
        <ele>121.74</ele>
        <time>2019-09-15T09:01:23Z</time>
      </trkpt>
      <trkpt lat="44.98054" lon="0.54884">
        <ele>121.26</ele>
        <time>2019-09-15T09:01:33Z</time>
      </trkpt>
      <trkpt lat="44.98067" lon="0.54891">
        <ele>120.78</ele>
        <time>2019-09-15T09:01:52Z</time>
      </trkpt>
      <trkpt lat="44.98099" lon="0.549">
        <ele>119.82</ele>
        <time>2019-09-15T09:02:16Z</time>
      </trkpt>
      <trkpt lat="44.9813" lon="0.54898">
        <ele>120.3</ele>
        <time>2019-09-15T09:02:36Z</time>
      </trkpt>
      <trkpt lat="44.98132" lon="0.54898">
        <ele>120.3</ele>
        <time>2019-09-15T09:02:37Z</time>
      </trkpt>
      <trkpt lat="44.9815" lon="0.54896">
        <ele>119.34</ele>
        <time>2019-09-15T09:02:55Z</time>
      </trkpt>
      <trkpt lat="44.98172" lon="0.54894">
        <ele>120.78</ele>
        <time>2019-09-15T09:03:12Z</time>
      </trkpt>
      <trkpt lat="44.98191" lon="0.5489">
        <ele>121.26</ele>
        <time>2019-09-15T09:03:33Z</time>
      </trkpt>
      <trkpt lat="44.98204" lon="0.54883">
        <ele>119.82</ele>
        <time>2019-09-15T09:03:48Z</time>
      </trkpt>
      <trkpt lat="44.98242" lon="0.54882">
        <ele>118.86</ele>
        <time>2019-09-15T09:04:13Z</time>
      </trkpt>
      <trkpt lat="44.98283" lon="0.54879">
        <ele>118.38</ele>
        <time>2019-09-15T09:04:37Z</time>
      </trkpt>
      <trkpt lat="44.98322" lon="0.54869">
        <ele>117.9</ele>
        <time>2019-09-15T09:05:02Z</time>
      </trkpt>
      <trkpt lat="44.98356" lon="0.54854">
        <ele>116.46</ele>
        <time>2019-09-15T09:05:26Z</time>
      </trkpt>
      <trkpt lat="44.98372" lon="0.5485">
        <ele>115.98</ele>
        <time>2019-09-15T09:05:44Z</time>
      </trkpt>
      <trkpt lat="44.98375" lon="0.54847">
        <ele>115.98</ele>
        <time>2019-09-15T09:06:09Z</time>
      </trkpt>
      <trkpt lat="44.98383" lon="0.54846">
        <ele>115.5</ele>
        <time>2019-09-15T09:06:16Z</time>
      </trkpt>
      <trkpt lat="44.98416" lon="0.54849">
        <ele>114.05</ele>
        <time>2019-09-15T09:06:38Z</time>
      </trkpt>
      <trkpt lat="44.98451" lon="0.54867">
        <ele>113.09</ele>
        <time>2019-09-15T09:07:00Z</time>
      </trkpt>
      <trkpt lat="44.9848" lon="0.5489">
        <ele>113.09</ele>
        <time>2019-09-15T09:07:20Z</time>
      </trkpt>
      <trkpt lat="44.98515" lon="0.54913">
        <ele>113.09</ele>
        <time>2019-09-15T09:07:45Z</time>
      </trkpt>
      <trkpt lat="44.98537" lon="0.54923">
        <ele>114.53</ele>
        <time>2019-09-15T09:08:01Z</time>
      </trkpt>
      <trkpt lat="44.98577" lon="0.5494">
        <ele>114.53</ele>
        <time>2019-09-15T09:08:28Z</time>
      </trkpt>
      <trkpt lat="44.98609" lon="0.54945">
        <ele>113.09</ele>
        <time>2019-09-15T09:08:50Z</time>
      </trkpt>
      <trkpt lat="44.98645" lon="0.54936">
        <ele>112.61</ele>
        <time>2019-09-15T09:09:16Z</time>
      </trkpt>
      <trkpt lat="44.98682" lon="0.54921">
        <ele>110.69</ele>
        <time>2019-09-15T09:09:40Z</time>
      </trkpt>
      <trkpt lat="44.98718" lon="0.54912">
        <ele>109.73</ele>
        <time>2019-09-15T09:10:04Z</time>
      </trkpt>
      <trkpt lat="44.98729" lon="0.54904">
        <ele>108.29</ele>
        <time>2019-09-15T09:10:23Z</time>
      </trkpt>
      <trkpt lat="44.98731" lon="0.54901">
        <ele>108.29</ele>
        <time>2019-09-15T09:10:54Z</time>
      </trkpt>
      <trkpt lat="44.98738" lon="0.5489">
        <ele>108.29</ele>
        <time>2019-09-15T09:11:09Z</time>
      </trkpt>
      <trkpt lat="44.98736" lon="0.54868">
        <ele>107.81</ele>
        <time>2019-09-15T09:11:28Z</time>
      </trkpt>
      <trkpt lat="44.98759" lon="0.54854">
        <ele>106.84</ele>
        <time>2019-09-15T09:11:45Z</time>
      </trkpt>
      <trkpt lat="44.98782" lon="0.54831">
        <ele>106.36</ele>
        <time>2019-09-15T09:12:06Z</time>
      </trkpt>
      <trkpt lat="44.98807" lon="0.54821">
        <ele>105.88</ele>
        <time>2019-09-15T09:12:28Z</time>
      </trkpt>
      <trkpt lat="44.98833" lon="0.54814">
        <ele>105.88</ele>
        <time>2019-09-15T09:12:51Z</time>
      </trkpt>
      <trkpt lat="44.98858" lon="0.54819">
        <ele>104.92</ele>
        <time>2019-09-15T09:13:10Z</time>
      </trkpt>
      <trkpt lat="44.98862" lon="0.54815">
        <ele>106.36</ele>
        <time>2019-09-15T09:13:14Z</time>
      </trkpt>
      <trkpt lat="44.98879" lon="0.54817">
        <ele>104.92</ele>
        <time>2019-09-15T09:13:32Z</time>
      </trkpt>
      <trkpt lat="44.98898" lon="0.54794">
        <ele>106.36</ele>
        <time>2019-09-15T09:13:55Z</time>
      </trkpt>
      <trkpt lat="44.98892" lon="0.54782">
        <ele>106.36</ele>
        <time>2019-09-15T09:14:03Z</time>
      </trkpt>
      <trkpt lat="44.98883" lon="0.54736">
        <ele>105.88</ele>
        <time>2019-09-15T09:14:28Z</time>
      </trkpt>
      <trkpt lat="44.98875" lon="0.5469">
        <ele>105.88</ele>
        <time>2019-09-15T09:14:51Z</time>
      </trkpt>
      <trkpt lat="44.98868" lon="0.54642">
        <ele>105.88</ele>
        <time>2019-09-15T09:15:15Z</time>
      </trkpt>
      <trkpt lat="44.98863" lon="0.54607">
        <ele>104.92</ele>
        <time>2019-09-15T09:15:32Z</time>
      </trkpt>
      <trkpt lat="44.98866" lon="0.54567">
        <ele>104.44</ele>
        <time>2019-09-15T09:15:55Z</time>
      </trkpt>
      <trkpt lat="44.98877" lon="0.54522">
        <ele>104.44</ele>
        <time>2019-09-15T09:16:18Z</time>
      </trkpt>
      <trkpt lat="44.98883" lon="0.54505">
        <ele>104.44</ele>
        <time>2019-09-15T09:16:27Z</time>
      </trkpt>
      <trkpt lat="44.98889" lon="0.54475">
        <ele>105.88</ele>
        <time>2019-09-15T09:16:42Z</time>
      </trkpt>
      <trkpt lat="44.98899" lon="0.5444">
        <ele>105.88</ele>
        <time>2019-09-15T09:17:01Z</time>
      </trkpt>
      <trkpt lat="44.98905" lon="0.54402">
        <ele>105.88</ele>
        <time>2019-09-15T09:17:23Z</time>
      </trkpt>
      <trkpt lat="44.98902" lon="0.54394">
        <ele>106.36</ele>
        <time>2019-09-15T09:17:30Z</time>
      </trkpt>
      <trkpt lat="44.98907" lon="0.5435">
        <ele>106.36</ele>
        <time>2019-09-15T09:17:53Z</time>
      </trkpt>
      <trkpt lat="44.98911" lon="0.54342">
        <ele>105.4</ele>
        <time>2019-09-15T09:17:57Z</time>
      </trkpt>
      <trkpt lat="44.9892" lon="0.54306">
        <ele>105.4</ele>
        <time>2019-09-15T09:18:15Z</time>
      </trkpt>
      <trkpt lat="44.98923" lon="0.54268">
        <ele>106.36</ele>
        <time>2019-09-15T09:18:35Z</time>
      </trkpt>
      <trkpt lat="44.9893" lon="0.54243">
        <ele>106.36</ele>
        <time>2019-09-15T09:18:46Z</time>
      </trkpt>
      <trkpt lat="44.98942" lon="0.54196">
        <ele>105.88</ele>
        <time>2019-09-15T09:19:10Z</time>
      </trkpt>
      <trkpt lat="44.98953" lon="0.54167">
        <ele>103.96</ele>
        <time>2019-09-15T09:19:29Z</time>
      </trkpt>
      <trkpt lat="44.98954" lon="0.54166">
        <ele>103.96</ele>
        <time>2019-09-15T09:19:30Z</time>
      </trkpt>
      <trkpt lat="44.98954" lon="0.5412">
        <ele>103.96</ele>
        <time>2019-09-15T09:19:50Z</time>
      </trkpt>
      <trkpt lat="44.98943" lon="0.54111">
        <ele>105.4</ele>
        <time>2019-09-15T09:19:59Z</time>
      </trkpt>
      <trkpt lat="44.98922" lon="0.54094">
        <ele>106.84</ele>
        <time>2019-09-15T09:20:16Z</time>
      </trkpt>
      <trkpt lat="44.98893" lon="0.54075">
        <ele>108.77</ele>
        <time>2019-09-15T09:20:42Z</time>
      </trkpt>
      <trkpt lat="44.98868" lon="0.54063">
        <ele>110.21</ele>
        <time>2019-09-15T09:21:01Z</time>
      </trkpt>
      <trkpt lat="44.98843" lon="0.54055">
        <ele>112.13</ele>
        <time>2019-09-15T09:21:20Z</time>
      </trkpt>
      <trkpt lat="44.98814" lon="0.54035">
        <ele>113.09</ele>
        <time>2019-09-15T09:21:41Z</time>
      </trkpt>
      <trkpt lat="44.98794" lon="0.54037">
        <ele>114.05</ele>
        <time>2019-09-15T09:21:56Z</time>
      </trkpt>
      <trkpt lat="44.98772" lon="0.5406">
        <ele>116.46</ele>
        <time>2019-09-15T09:22:16Z</time>
      </trkpt>
      <trkpt lat="44.98756" lon="0.54083">
        <ele>119.34</ele>
        <time>2019-09-15T09:22:35Z</time>
      </trkpt>
      <trkpt lat="44.98737" lon="0.54109">
        <ele>122.22</ele>
        <time>2019-09-15T09:22:57Z</time>
      </trkpt>
      <trkpt lat="44.98717" lon="0.5413">
        <ele>125.59</ele>
        <time>2019-09-15T09:23:17Z</time>
      </trkpt>
      <trkpt lat="44.98703" lon="0.54148">
        <ele>127.03</ele>
        <time>2019-09-15T09:23:38Z</time>
      </trkpt>
      <trkpt lat="44.987" lon="0.54156">
        <ele>127.51</ele>
        <time>2019-09-15T09:23:58Z</time>
      </trkpt>
      <trkpt lat="44.98703" lon="0.54155">
        <ele>127.51</ele>
        <time>2019-09-15T09:24:29Z</time>
      </trkpt>
      <trkpt lat="44.98684" lon="0.5417">
        <ele>130.4</ele>
        <time>2019-09-15T09:24:49Z</time>
      </trkpt>
      <trkpt lat="44.98666" lon="0.54197">
        <ele>134.24</ele>
        <time>2019-09-15T09:25:10Z</time>
      </trkpt>
      <trkpt lat="44.98648" lon="0.54224">
        <ele>136.64</ele>
        <time>2019-09-15T09:25:34Z</time>
      </trkpt>
      <trkpt lat="44.98638" lon="0.54252">
        <ele>140.01</ele>
        <time>2019-09-15T09:25:54Z</time>
      </trkpt>
      <trkpt lat="44.98634" lon="0.54275">
        <ele>142.41</ele>
        <time>2019-09-15T09:26:14Z</time>
      </trkpt>
      <trkpt lat="44.98629" lon="0.54297">
        <ele>144.82</ele>
        <time>2019-09-15T09:26:31Z</time>
      </trkpt>
      <trkpt lat="44.98618" lon="0.54309">
        <ele>145.78</ele>
        <time>2019-09-15T09:26:50Z</time>
      </trkpt>
      <trkpt lat="44.98621" lon="0.5431">
        <ele>145.78</ele>
        <time>2019-09-15T09:27:18Z</time>
      </trkpt>
      <trkpt lat="44.98623" lon="0.54305">
        <ele>145.78</ele>
        <time>2019-09-15T09:27:49Z</time>
      </trkpt>
      <trkpt lat="44.98623" lon="0.54306">
        <ele>145.78</ele>
        <time>2019-09-15T09:28:22Z</time>
      </trkpt>
      <trkpt lat="44.98616" lon="0.54305">
        <ele>145.78</ele>
        <time>2019-09-15T09:28:51Z</time>
      </trkpt>
      <trkpt lat="44.98621" lon="0.54315">
        <ele>145.78</ele>
        <time>2019-09-15T09:29:21Z</time>
      </trkpt>
      <trkpt lat="44.9862" lon="0.54307">
        <ele>146.26</ele>
        <time>2019-09-15T09:29:48Z</time>
      </trkpt>
      <trkpt lat="44.98618" lon="0.54309">
        <ele>146.26</ele>
        <time>2019-09-15T09:30:18Z</time>
      </trkpt>
      <trkpt lat="44.98595" lon="0.54332">
        <ele>146.26</ele>
        <time>2019-09-15T09:30:35Z</time>
      </trkpt>
      <trkpt lat="44.98575" lon="0.54357">
        <ele>145.3</ele>
        <time>2019-09-15T09:30:56Z</time>
      </trkpt>
      <trkpt lat="44.98556" lon="0.5432">
        <ele>143.37</ele>
        <time>2019-09-15T09:31:17Z</time>
      </trkpt>
      <trkpt lat="44.98535" lon="0.54279">
        <ele>142.89</ele>
        <time>2019-09-15T09:31:41Z</time>
      </trkpt>
      <trkpt lat="44.9851" lon="0.54238">
        <ele>143.37</ele>
        <time>2019-09-15T09:32:06Z</time>
      </trkpt>
      <trkpt lat="44.985" lon="0.54223">
        <ele>144.34</ele>
        <time>2019-09-15T09:32:17Z</time>
      </trkpt>
      <trkpt lat="44.9847" lon="0.54197">
        <ele>145.3</ele>
        <time>2019-09-15T09:32:41Z</time>
      </trkpt>
      <trkpt lat="44.98436" lon="0.54173">
        <ele>146.26</ele>
        <time>2019-09-15T09:33:06Z</time>
      </trkpt>
      <trkpt lat="44.98408" lon="0.54143">
        <ele>147.22</ele>
        <time>2019-09-15T09:33:29Z</time>
      </trkpt>
      <trkpt lat="44.98388" lon="0.54095">
        <ele>148.66</ele>
        <time>2019-09-15T09:33:58Z</time>
      </trkpt>
      <trkpt lat="44.98374" lon="0.54052">
        <ele>151.54</ele>
        <time>2019-09-15T09:34:22Z</time>
      </trkpt>
      <trkpt lat="44.98361" lon="0.54011">
        <ele>152.99</ele>
        <time>2019-09-15T09:34:45Z</time>
      </trkpt>
      <trkpt lat="44.98351" lon="0.53958">
        <ele>155.3</ele>
      </trkpt>
      <trkpt lat="44.98348" lon="0.53945">
        <ele>155.6</ele>
      </trkpt>
    </trkseg>
  </trk>
  <trk>
    <name><![CDATA[toutes les traces autour de st mayme de pereyrol_5]]></name>
    <trkseg>
      <trkpt lat="44.97971" lon="0.52272">
        <ele>124.9</ele>
      </trkpt>
      <trkpt lat="44.98031" lon="0.52136">
        <ele>129</ele>
      </trkpt>
      <trkpt lat="44.98167" lon="0.52023">
        <ele>144.3</ele>
      </trkpt>
      <trkpt lat="44.98195" lon="0.51836">
        <ele>156.1</ele>
      </trkpt>
      <trkpt lat="44.98187" lon="0.51633">
        <ele>165.8</ele>
      </trkpt>
      <trkpt lat="44.98243" lon="0.51536">
        <ele>164.6</ele>
      </trkpt>
      <trkpt lat="44.98243" lon="0.51468">
        <ele>163.5</ele>
      </trkpt>
      <trkpt lat="44.98315" lon="0.51468">
        <ele>161.1</ele>
      </trkpt>
      <trkpt lat="44.98351" lon="0.51536">
        <ele>156.1</ele>
      </trkpt>
      <trkpt lat="44.98464" lon="0.51519">
        <ele>149.4</ele>
      </trkpt>
      <trkpt lat="44.986" lon="0.51519">
        <ele>140.8</ele>
      </trkpt>
      <trkpt lat="44.9862" lon="0.51429">
        <ele>143.4</ele>
      </trkpt>
      <trkpt lat="44.98688" lon="0.51417">
        <ele>146.3</ele>
      </trkpt>
      <trkpt lat="44.98704" lon="0.51151">
        <ele>170.5</ele>
      </trkpt>
      <trkpt lat="44.9876" lon="0.50879">
        <ele>181.5</ele>
      </trkpt>
      <trkpt lat="44.98832" lon="0.50738">
        <ele>183.6</ele>
      </trkpt>
    </trkseg>
  </trk>
  <trk>
    <name><![CDATA[toutes les traces autour de st mayme de pereyrol_6]]></name>
    <trkseg>
      <trkpt lat="45.01649" lon="0.64864">
        <ele>181.2</ele>
      </trkpt>
      <trkpt lat="45.0152" lon="0.64767">
        <ele>190.3</ele>
      </trkpt>
      <trkpt lat="45.01446" lon="0.64722">
        <ele>196.8</ele>
      </trkpt>
      <trkpt lat="45.01446" lon="0.64674">
        <ele>197.5</ele>
      </trkpt>
      <trkpt lat="45.01287" lon="0.64584">
        <ele>192.8</ele>
      </trkpt>
      <trkpt lat="45.01182" lon="0.64603">
        <ele>192.9</ele>
      </trkpt>
      <trkpt lat="45.01102" lon="0.64543">
        <ele>198</ele>
      </trkpt>
      <trkpt lat="45.00973" lon="0.64543">
        <ele>208.8</ele>
      </trkpt>
      <trkpt lat="45.00931" lon="0.64554">
        <ele>210.5</ele>
      </trkpt>
      <trkpt lat="45.00841" lon="0.64457">
        <ele>222.3</ele>
      </trkpt>
      <trkpt lat="45.00759" lon="0.64457">
        <ele>225.7</ele>
      </trkpt>
      <trkpt lat="45.0078" lon="0.64356">
        <ele>227.4</ele>
      </trkpt>
      <trkpt lat="45.00743" lon="0.64263">
        <ele>226.6</ele>
      </trkpt>
      <trkpt lat="45.00709" lon="0.64248">
        <ele>223.6</ele>
      </trkpt>
      <trkpt lat="45.0057" lon="0.64134">
        <ele>218.1</ele>
      </trkpt>
      <trkpt lat="45.0048" lon="0.63975">
        <ele>215.9</ele>
      </trkpt>
      <trkpt lat="45.00327" lon="0.63812">
        <ele>210</ele>
      </trkpt>
      <trkpt lat="45.00006" lon="0.63331">
        <ele>192.2</ele>
      </trkpt>
      <trkpt lat="44.9998" lon="0.63304">
        <ele>192.9</ele>
      </trkpt>
      <trkpt lat="44.99913" lon="0.6341">
        <ele>197.1</ele>
      </trkpt>
      <trkpt lat="44.99789" lon="0.63437">
        <ele>200.4</ele>
      </trkpt>
      <trkpt lat="44.99636" lon="0.62961">
        <ele>185</ele>
      </trkpt>
    </trkseg>
  </trk>
  <trk>
    <name><![CDATA[toutes les traces autour de st mayme de pereyrol_7]]></name>
    <trkseg>
      <trkpt lat="44.98507" lon="0.67593">
        <ele>178.9</ele>
      </trkpt>
      <trkpt lat="44.98429" lon="0.67216">
        <ele>194.6</ele>
      </trkpt>
      <trkpt lat="44.98424" lon="0.67047">
        <ele>189.8</ele>
      </trkpt>
      <trkpt lat="44.98475" lon="0.66891">
        <ele>187.8</ele>
      </trkpt>
      <trkpt lat="44.9865" lon="0.66761">
        <ele>194.3</ele>
      </trkpt>
      <trkpt lat="44.98627" lon="0.66591">
        <ele>196.6</ele>
      </trkpt>
      <trkpt lat="44.98521" lon="0.66474">
        <ele>196.3</ele>
      </trkpt>
      <trkpt lat="44.98452" lon="0.66357">
        <ele>196.5</ele>
      </trkpt>
      <trkpt lat="44.98217" lon="0.66182">
        <ele>200.1</ele>
      </trkpt>
      <trkpt lat="44.98397" lon="0.6596">
        <ele>198.2</ele>
      </trkpt>
      <trkpt lat="44.9848" lon="0.65713">
        <ele>186.9</ele>
      </trkpt>
      <trkpt lat="44.98567" lon="0.65447">
        <ele>178</ele>
      </trkpt>
      <trkpt lat="44.98562" lon="0.65199">
        <ele>174.3</ele>
      </trkpt>
    </trkseg>
  </trk>
  <trk>
    <name><![CDATA[toutes les traces autour de st mayme de pereyrol_8]]></name>
    <trkseg>
      <trkpt lat="44.99782" lon="0.69042">
        <ele>203.4</ele>
      </trkpt>
      <trkpt lat="44.9964" lon="0.68995">
        <ele>202.4</ele>
      </trkpt>
      <trkpt lat="44.99543" lon="0.689">
        <ele>200.3</ele>
      </trkpt>
      <trkpt lat="44.99419" lon="0.68773">
        <ele>202.4</ele>
      </trkpt>
      <trkpt lat="44.99337" lon="0.68609">
        <ele>200.7</ele>
      </trkpt>
      <trkpt lat="44.99203" lon="0.68266">
        <ele>204.4</ele>
      </trkpt>
      <trkpt lat="44.99195" lon="0.68054">
        <ele>206.2</ele>
      </trkpt>
      <trkpt lat="44.99098" lon="0.68134">
        <ele>206.4</ele>
      </trkpt>
      <trkpt lat="44.9887" lon="0.68171">
        <ele>192.4</ele>
      </trkpt>
      <trkpt lat="44.98792" lon="0.68139">
        <ele>185.4</ele>
      </trkpt>
      <trkpt lat="44.98743" lon="0.68054">
        <ele>182.3</ele>
      </trkpt>
      <trkpt lat="44.98612" lon="0.67986">
        <ele>181.6</ele>
      </trkpt>
      <trkpt lat="44.98485" lon="0.68028">
        <ele>188.6</ele>
      </trkpt>
    </trkseg>
  </trk>
  <trk>
    <name><![CDATA[toutes les traces autour de st mayme de pereyrol_9]]></name>
    <trkseg>
      <trkpt lat="44.98661" lon="0.73533">
        <ele>161</ele>
      </trkpt>
      <trkpt lat="44.98667" lon="0.73625">
        <ele>165.7</ele>
      </trkpt>
      <trkpt lat="44.98612" lon="0.73735">
        <ele>176.3</ele>
      </trkpt>
      <trkpt lat="44.98651" lon="0.73924">
        <ele>184.7</ele>
      </trkpt>
      <trkpt lat="44.98674" lon="0.7403">
        <ele>189</ele>
      </trkpt>
      <trkpt lat="44.98719" lon="0.74287">
        <ele>204.2</ele>
      </trkpt>
      <trkpt lat="44.98622" lon="0.74246">
        <ele>204.6</ele>
      </trkpt>
      <trkpt lat="44.98475" lon="0.74697">
        <ele>203.1</ele>
      </trkpt>
      <trkpt lat="44.98075" lon="0.74867">
        <ele>187.5</ele>
      </trkpt>
      <trkpt lat="44.9775" lon="0.74987">
        <ele>159</ele>
      </trkpt>
      <trkpt lat="44.97613" lon="0.74904">
        <ele>146.2</ele>
      </trkpt>
      <trkpt lat="44.97571" lon="0.74775">
        <ele>141.8</ele>
      </trkpt>
      <trkpt lat="44.97483" lon="0.74821">
        <ele>143.8</ele>
      </trkpt>
    </trkseg>
  </trk>
  <trk>
    <name><![CDATA[toutes les traces autour de st mayme de pereyrol_10]]></name>
    <trkseg>
      <trkpt lat="44.98326" lon="0.71776">
        <ele>188.9</ele>
      </trkpt>
      <trkpt lat="44.98256" lon="0.71883">
        <ele>186.7</ele>
      </trkpt>
      <trkpt lat="44.98165" lon="0.71982">
        <ele>183.7</ele>
      </trkpt>
      <trkpt lat="44.98098" lon="0.72119">
        <ele>179.6</ele>
      </trkpt>
      <trkpt lat="44.97971" lon="0.72265">
        <ele>172.1</ele>
      </trkpt>
      <trkpt lat="44.97837" lon="0.72377">
        <ele>166.3</ele>
      </trkpt>
      <trkpt lat="44.97737" lon="0.72445">
        <ele>145.7</ele>
      </trkpt>
      <trkpt lat="44.97643" lon="0.72368">
        <ele>136.3</ele>
      </trkpt>
      <trkpt lat="44.97564" lon="0.7245">
        <ele>136.9</ele>
      </trkpt>
      <trkpt lat="44.97482" lon="0.72355">
        <ele>135.9</ele>
      </trkpt>
      <trkpt lat="44.97333" lon="0.72394">
        <ele>145.7</ele>
      </trkpt>
      <trkpt lat="44.97388" lon="0.72475">
        <ele>153.3</ele>
      </trkpt>
      <trkpt lat="44.9736" lon="0.72591">
        <ele>158.6</ele>
      </trkpt>
      <trkpt lat="44.974" lon="0.72913">
        <ele>161.2</ele>
      </trkpt>
      <trkpt lat="44.97318" lon="0.73038">
        <ele>146</ele>
      </trkpt>
      <trkpt lat="44.9733" lon="0.73106">
        <ele>144.1</ele>
      </trkpt>
      <trkpt lat="44.97251" lon="0.73218">
        <ele>145.4</ele>
      </trkpt>
      <trkpt lat="44.97218" lon="0.73252">
        <ele>141.7</ele>
      </trkpt>
      <trkpt lat="44.97169" lon="0.73402">
        <ele>140.8</ele>
      </trkpt>
      <trkpt lat="44.97169" lon="0.73488">
        <ele>139.8</ele>
      </trkpt>
      <trkpt lat="44.97145" lon="0.73634">
        <ele>133.1</ele>
      </trkpt>
      <trkpt lat="44.97105" lon="0.7369">
        <ele>134.7</ele>
      </trkpt>
      <trkpt lat="44.97148" lon="0.73814">
        <ele>138.3</ele>
      </trkpt>
      <trkpt lat="44.9726" lon="0.73952">
        <ele>138</ele>
      </trkpt>
      <trkpt lat="44.9733" lon="0.74123">
        <ele>142</ele>
      </trkpt>
    </trkseg>
  </trk>
  <trk>
    <name><![CDATA[toutes les traces autour de st mayme de pereyrol_11]]></name>
    <trkseg>
      <trkpt lat="45.0021" lon="0.7122">
        <ele>150.6</ele>
      </trkpt>
      <trkpt lat="45.00282" lon="0.71356">
        <ele>160.3</ele>
      </trkpt>
      <trkpt lat="45.0031" lon="0.71446">
        <ele>166.8</ele>
      </trkpt>
      <trkpt lat="45.00326" lon="0.71543">
        <ele>173.7</ele>
      </trkpt>
      <trkpt lat="45.00342" lon="0.71645">
        <ele>174.2</ele>
      </trkpt>
      <trkpt lat="45.00318" lon="0.71645">
        <ele>175.7</ele>
      </trkpt>
    </trkseg>
  </trk>
  <trk>
    <name><![CDATA[toutes les traces autour de st mayme de pereyrol_12]]></name>
    <trkseg>
      <trkpt lat="45.00439" lon="0.70189">
        <ele>166.1</ele>
      </trkpt>
      <trkpt lat="45.00577" lon="0.70254">
        <ele>164.6</ele>
      </trkpt>
      <trkpt lat="45.00733" lon="0.7039">
        <ele>156.5</ele>
      </trkpt>
      <trkpt lat="45.00812" lon="0.7052">
        <ele>154.8</ele>
      </trkpt>
      <trkpt lat="45.00835" lon="0.70585">
        <ele>153.8</ele>
      </trkpt>
      <trkpt lat="45.01042" lon="0.70767">
        <ele>143.4</ele>
      </trkpt>
      <trkpt lat="45.01244" lon="0.70898">
        <ele>159.9</ele>
      </trkpt>
      <trkpt lat="45.01432" lon="0.70969">
        <ele>189.2</ele>
      </trkpt>
      <trkpt lat="45.01773" lon="0.71021">
        <ele>163.8</ele>
      </trkpt>
      <trkpt lat="45.01947" lon="0.71034">
        <ele>154.8</ele>
      </trkpt>
      <trkpt lat="45.02228" lon="0.71151">
        <ele>129.7</ele>
      </trkpt>
      <trkpt lat="45.02205" lon="0.71073">
        <ele>130.7</ele>
      </trkpt>
      <trkpt lat="45.02384" lon="0.71034">
        <ele>126.3</ele>
      </trkpt>
      <trkpt lat="45.02476" lon="0.71021">
        <ele>131.7</ele>
      </trkpt>
      <trkpt lat="45.02559" lon="0.71099">
        <ele>139.3</ele>
      </trkpt>
      <trkpt lat="45.02527" lon="0.71229">
        <ele>135.3</ele>
      </trkpt>
      <trkpt lat="45.02541" lon="0.7134">
        <ele>132.9</ele>
      </trkpt>
      <trkpt lat="45.0255" lon="0.71424">
        <ele>132.1</ele>
      </trkpt>
      <trkpt lat="45.02573" lon="0.7145">
        <ele>132.2</ele>
      </trkpt>
    </trkseg>
  </trk>
  <trk>
    <name><![CDATA[toutes les traces autour de st mayme de pereyrol_13]]></name>
    <trkseg>
      <trkpt lat="45.01357" lon="0.65613">
        <ele>154.8</ele>
      </trkpt>
      <trkpt lat="45.01321" lon="0.65613">
        <ele>152.2</ele>
      </trkpt>
      <trkpt lat="45.013" lon="0.65669">
        <ele>151.2</ele>
      </trkpt>
      <trkpt lat="45.01297" lon="0.65738">
        <ele>150.8</ele>
      </trkpt>
      <trkpt lat="45.01139" lon="0.65703">
        <ele>162.7</ele>
      </trkpt>
      <trkpt lat="45.01048" lon="0.65648">
        <ele>169.7</ele>
      </trkpt>
      <trkpt lat="45.00857" lon="0.65618">
        <ele>188.3</ele>
      </trkpt>
      <trkpt lat="45.00814" lon="0.65682">
        <ele>185.4</ele>
      </trkpt>
      <trkpt lat="45.00969" lon="0.65884">
        <ele>173.7</ele>
      </trkpt>
      <trkpt lat="45.01072" lon="0.65918">
        <ele>177</ele>
      </trkpt>
      <trkpt lat="45.01121" lon="0.65957">
        <ele>174.9</ele>
      </trkpt>
      <trkpt lat="45.01102" lon="0.66034">
        <ele>169.2</ele>
      </trkpt>
      <trkpt lat="45.01042" lon="0.66073">
        <ele>164.4</ele>
      </trkpt>
      <trkpt lat="45.00984" lon="0.66073">
        <ele>160.1</ele>
      </trkpt>
      <trkpt lat="45.00957" lon="0.66115">
        <ele>153.4</ele>
      </trkpt>
      <trkpt lat="45.00981" lon="0.66167">
        <ele>149.7</ele>
      </trkpt>
      <trkpt lat="45.00984" lon="0.6624">
        <ele>151.2</ele>
      </trkpt>
      <trkpt lat="45.00796" lon="0.66253">
        <ele>159.4</ele>
      </trkpt>
      <trkpt lat="45.00705" lon="0.66223">
        <ele>159.7</ele>
      </trkpt>
      <trkpt lat="45.00659" lon="0.66244">
        <ele>162.1</ele>
      </trkpt>
      <trkpt lat="45.00575" lon="0.66227">
        <ele>165.4</ele>
      </trkpt>
      <trkpt lat="45.00453" lon="0.66274">
        <ele>174</ele>
      </trkpt>
      <trkpt lat="45.00383" lon="0.66343">
        <ele>180</ele>
      </trkpt>
      <trkpt lat="45.00253" lon="0.66386">
        <ele>180.4</ele>
      </trkpt>
      <trkpt lat="45.00113" lon="0.66527">
        <ele>191</ele>
      </trkpt>
      <trkpt lat="45.0018" lon="0.66609">
        <ele>197</ele>
      </trkpt>
      <trkpt lat="45.00107" lon="0.66733">
        <ele>201.2</ele>
      </trkpt>
      <trkpt lat="45.00037" lon="0.66905">
        <ele>210.2</ele>
      </trkpt>
      <trkpt lat="44.99986" lon="0.66991">
        <ele>210.8</ele>
      </trkpt>
      <trkpt lat="45.00031" lon="0.67051">
        <ele>206</ele>
      </trkpt>
      <trkpt lat="45.00107" lon="0.6736">
        <ele>203.2</ele>
      </trkpt>
      <trkpt lat="45.00162" lon="0.67403">
        <ele>203.8</ele>
      </trkpt>
      <trkpt lat="45.0032" lon="0.67364">
        <ele>206.3</ele>
      </trkpt>
      <trkpt lat="45.00374" lon="0.67386">
        <ele>206</ele>
      </trkpt>
      <trkpt lat="45.00423" lon="0.67321">
        <ele>204.4</ele>
      </trkpt>
      <trkpt lat="45.00471" lon="0.67313">
        <ele>200.6</ele>
      </trkpt>
      <trkpt lat="45.00656" lon="0.67489">
        <ele>202.9</ele>
      </trkpt>
      <trkpt lat="45.00735" lon="0.6763">
        <ele>191.5</ele>
      </trkpt>
      <trkpt lat="45.0086" lon="0.67703">
        <ele>182.7</ele>
      </trkpt>
      <trkpt lat="45.00972" lon="0.67815">
        <ele>184.4</ele>
      </trkpt>
      <trkpt lat="45.01042" lon="0.67974">
        <ele>181.5</ele>
      </trkpt>
      <trkpt lat="45.01163" lon="0.6812">
        <ele>176.8</ele>
      </trkpt>
      <trkpt lat="45.01069" lon="0.6824">
        <ele>174.9</ele>
      </trkpt>
      <trkpt lat="45.01081" lon="0.68386">
        <ele>165.5</ele>
      </trkpt>
      <trkpt lat="45.0109" lon="0.68519">
        <ele>154.6</ele>
      </trkpt>
      <trkpt lat="45.01109" lon="0.68562">
        <ele>152.8</ele>
      </trkpt>
      <trkpt lat="45.01033" lon="0.68686">
        <ele>148.8</ele>
      </trkpt>
      <trkpt lat="45.00875" lon="0.68901">
        <ele>150</ele>
      </trkpt>
      <trkpt lat="45.01084" lon="0.69038">
        <ele>149.4</ele>
      </trkpt>
      <trkpt lat="45.01145" lon="0.69141">
        <ele>147</ele>
      </trkpt>
      <trkpt lat="45.0119" lon="0.6921">
        <ele>142.1</ele>
      </trkpt>
      <trkpt lat="45.01354" lon="0.69325">
        <ele>133.7</ele>
      </trkpt>
      <trkpt lat="45.01391" lon="0.6939">
        <ele>133.4</ele>
      </trkpt>
      <trkpt lat="45.01297" lon="0.69592">
        <ele>140.7</ele>
      </trkpt>
      <trkpt lat="45.0119" lon="0.69686">
        <ele>148.6</ele>
      </trkpt>
      <trkpt lat="45.00996" lon="0.6978">
        <ele>152.6</ele>
      </trkpt>
      <trkpt lat="45.00963" lon="0.69952">
        <ele>156.4</ele>
      </trkpt>
      <trkpt lat="45.00835" lon="0.70068">
        <ele>157.6</ele>
      </trkpt>
      <trkpt lat="45.00659" lon="0.69918">
        <ele>157.4</ele>
      </trkpt>
      <trkpt lat="45.00556" lon="0.69772">
        <ele>160.3</ele>
      </trkpt>
      <trkpt lat="45.00447" lon="0.69682">
        <ele>171.5</ele>
      </trkpt>
      <trkpt lat="45.00353" lon="0.69643">
        <ele>177.6</ele>
      </trkpt>
      <trkpt lat="45.00262" lon="0.69514">
        <ele>185.8</ele>
      </trkpt>
      <trkpt lat="45.00138" lon="0.6945">
        <ele>187.7</ele>
      </trkpt>
      <trkpt lat="45.00007" lon="0.69317">
        <ele>192.5</ele>
      </trkpt>
      <trkpt lat="44.9998" lon="0.69265">
        <ele>196.4</ele>
      </trkpt>
    </trkseg>
  </trk>
  <trk>
    <name><![CDATA[toutes les traces autour de st mayme de pereyrol_14]]></name>
    <trkseg>
      <trkpt lat="44.98829" lon="0.6974">
        <ele>200.6</ele>
      </trkpt>
      <trkpt lat="44.98881" lon="0.69602">
        <ele>202.8</ele>
      </trkpt>
      <trkpt lat="44.98952" lon="0.69597">
        <ele>206.7</ele>
      </trkpt>
      <trkpt lat="44.99038" lon="0.69544">
        <ele>203.9</ele>
      </trkpt>
      <trkpt lat="44.99027" lon="0.69285">
        <ele>199.4</ele>
      </trkpt>
      <trkpt lat="44.99072" lon="0.69021">
        <ele>191.3</ele>
      </trkpt>
      <trkpt lat="44.99262" lon="0.69074">
        <ele>194</ele>
      </trkpt>
      <trkpt lat="44.99363" lon="0.69074">
        <ele>195.8</ele>
      </trkpt>
      <trkpt lat="44.99475" lon="0.69185">
        <ele>192.3</ele>
      </trkpt>
      <trkpt lat="44.9961" lon="0.69143">
        <ele>192.7</ele>
      </trkpt>
      <trkpt lat="44.99677" lon="0.69106">
        <ele>196.9</ele>
      </trkpt>
      <trkpt lat="44.99752" lon="0.6909">
        <ele>202</ele>
      </trkpt>
      <trkpt lat="44.99875" lon="0.69048">
        <ele>200.3</ele>
      </trkpt>
      <trkpt lat="44.99931" lon="0.691">
        <ele>199.4</ele>
      </trkpt>
      <trkpt lat="44.99965" lon="0.69248">
        <ele>198.4</ele>
      </trkpt>
      <trkpt lat="44.99961" lon="0.69581">
        <ele>184.4</ele>
      </trkpt>
      <trkpt lat="45.00032" lon="0.69703">
        <ele>178.7</ele>
      </trkpt>
      <trkpt lat="45.00058" lon="0.69766">
        <ele>175.8</ele>
      </trkpt>
      <trkpt lat="45.00275" lon="0.70004">
        <ele>170.7</ele>
      </trkpt>
      <trkpt lat="45.00409" lon="0.70162">
        <ele>168.1</ele>
      </trkpt>
      <trkpt lat="45.00372" lon="0.70305">
        <ele>156.7</ele>
      </trkpt>
      <trkpt lat="45.00271" lon="0.70189">
        <ele>157.5</ele>
      </trkpt>
      <trkpt lat="45.00219" lon="0.70184">
        <ele>154.9</ele>
      </trkpt>
      <trkpt lat="45.00178" lon="0.70252">
        <ele>154.5</ele>
      </trkpt>
      <trkpt lat="45.00036" lon="0.70342">
        <ele>177</ele>
      </trkpt>
      <trkpt lat="44.99961" lon="0.70516">
        <ele>181</ele>
      </trkpt>
      <trkpt lat="44.99909" lon="0.70685">
        <ele>175.4</ele>
      </trkpt>
      <trkpt lat="44.99939" lon="0.70796">
        <ele>170.5</ele>
      </trkpt>
      <trkpt lat="44.9998" lon="0.70897">
        <ele>166.2</ele>
      </trkpt>
      <trkpt lat="45.00088" lon="0.70981">
        <ele>160.8</ele>
      </trkpt>
      <trkpt lat="45.00122" lon="0.71071">
        <ele>154.1</ele>
      </trkpt>
      <trkpt lat="45.00163" lon="0.71108">
        <ele>150.4</ele>
      </trkpt>
      <trkpt lat="45.00197" lon="0.71193">
        <ele>149.7</ele>
      </trkpt>
      <trkpt lat="45.00084" lon="0.71198">
        <ele>150.2</ele>
      </trkpt>
      <trkpt lat="45.00017" lon="0.71235">
        <ele>151.4</ele>
      </trkpt>
      <trkpt lat="44.99935" lon="0.71246">
        <ele>156.4</ele>
      </trkpt>
      <trkpt lat="44.99789" lon="0.71346">
        <ele>167.4</ele>
      </trkpt>
      <trkpt lat="44.99722" lon="0.71145">
        <ele>173.4</ele>
      </trkpt>
      <trkpt lat="44.99741" lon="0.71008">
        <ele>162.6</ele>
      </trkpt>
      <trkpt lat="44.99662" lon="0.70918">
        <ele>158.9</ele>
      </trkpt>
      <trkpt lat="44.99591" lon="0.70923">
        <ele>161</ele>
      </trkpt>
      <trkpt lat="44.99569" lon="0.7086">
        <ele>159.5</ele>
      </trkpt>
      <trkpt lat="44.9936" lon="0.70802">
        <ele>169.8</ele>
      </trkpt>
      <trkpt lat="44.99319" lon="0.70754">
        <ele>173.6</ele>
      </trkpt>
      <trkpt lat="44.99262" lon="0.70759">
        <ele>178.3</ele>
      </trkpt>
      <trkpt lat="44.99192" lon="0.70643">
        <ele>177.2</ele>
      </trkpt>
      <trkpt lat="44.99169" lon="0.70654">
        <ele>180</ele>
      </trkpt>
      <trkpt lat="44.99098" lon="0.70675">
        <ele>183</ele>
      </trkpt>
      <trkpt lat="44.9905" lon="0.70717">
        <ele>185.4</ele>
      </trkpt>
      <trkpt lat="44.98993" lon="0.70538">
        <ele>193.3</ele>
      </trkpt>
      <trkpt lat="44.98893" lon="0.70522">
        <ele>198.1</ele>
      </trkpt>
      <trkpt lat="44.98814" lon="0.70469">
        <ele>196</ele>
      </trkpt>
      <trkpt lat="44.98758" lon="0.70337">
        <ele>195.4</ele>
      </trkpt>
      <trkpt lat="44.98743" lon="0.70157">
        <ele>196.9</ele>
      </trkpt>
      <trkpt lat="44.98549" lon="0.70236">
        <ele>196.4</ele>
      </trkpt>
      <trkpt lat="44.98504" lon="0.70247">
        <ele>196.8</ele>
      </trkpt>
      <trkpt lat="44.9847" lon="0.70342">
        <ele>195.2</ele>
      </trkpt>
      <trkpt lat="44.98433" lon="0.70559">
        <ele>185.9</ele>
      </trkpt>
      <trkpt lat="44.98388" lon="0.70659">
        <ele>181.2</ele>
      </trkpt>
      <trkpt lat="44.98366" lon="0.70849">
        <ele>169.1</ele>
      </trkpt>
      <trkpt lat="44.98306" lon="0.71024">
        <ele>158.8</ele>
      </trkpt>
      <trkpt lat="44.98224" lon="0.70997">
        <ele>165.4</ele>
      </trkpt>
      <trkpt lat="44.98164" lon="0.70923">
        <ele>174.1</ele>
      </trkpt>
      <trkpt lat="44.98078" lon="0.70812">
        <ele>183.8</ele>
      </trkpt>
      <trkpt lat="44.98022" lon="0.70712">
        <ele>185</ele>
      </trkpt>
      <trkpt lat="44.97902" lon="0.70897">
        <ele>183.6</ele>
      </trkpt>
      <trkpt lat="44.97768" lon="0.7095">
        <ele>176.4</ele>
      </trkpt>
      <trkpt lat="44.97734" lon="0.71108">
        <ele>166.7</ele>
      </trkpt>
      <trkpt lat="44.97689" lon="0.71187">
        <ele>157.4</ele>
      </trkpt>
      <trkpt lat="44.97629" lon="0.71356">
        <ele>139.1</ele>
      </trkpt>
      <trkpt lat="44.9751" lon="0.71425">
        <ele>136.1</ele>
      </trkpt>
      <trkpt lat="44.97398" lon="0.71547">
        <ele>138.4</ele>
      </trkpt>
      <trkpt lat="44.97252" lon="0.717">
        <ele>137.8</ele>
      </trkpt>
      <trkpt lat="44.97114" lon="0.71769">
        <ele>136.5</ele>
      </trkpt>
      <trkpt lat="44.97001" lon="0.71758">
        <ele>132.4</ele>
      </trkpt>
      <trkpt lat="44.96934" lon="0.71663">
        <ele>130.5</ele>
      </trkpt>
      <trkpt lat="44.96856" lon="0.71552">
        <ele>127.6</ele>
      </trkpt>
      <trkpt lat="44.96744" lon="0.71473">
        <ele>121.2</ele>
      </trkpt>
      <trkpt lat="44.96755" lon="0.71378">
        <ele>128.4</ele>
      </trkpt>
      <trkpt lat="44.96714" lon="0.71267">
        <ele>126</ele>
      </trkpt>
      <trkpt lat="44.96654" lon="0.71156">
        <ele>132.3</ele>
      </trkpt>
      <trkpt lat="44.96474" lon="0.71002">
        <ele>122.6</ele>
      </trkpt>
      <trkpt lat="44.96209" lon="0.7077">
        <ele>122.8</ele>
      </trkpt>
      <trkpt lat="44.96116" lon="0.7067">
        <ele>118</ele>
      </trkpt>
      <trkpt lat="44.96097" lon="0.70559">
        <ele>120.7</ele>
      </trkpt>
      <trkpt lat="44.96295" lon="0.70353">
        <ele>141.1</ele>
      </trkpt>
      <trkpt lat="44.96314" lon="0.70162">
        <ele>154.3</ele>
      </trkpt>
      <trkpt lat="44.96381" lon="0.70099">
        <ele>160.4</ele>
      </trkpt>
      <trkpt lat="44.96482" lon="0.70067">
        <ele>170.8</ele>
      </trkpt>
      <trkpt lat="44.96587" lon="0.70088">
        <ele>178.6</ele>
      </trkpt>
      <trkpt lat="44.96669" lon="0.7011">
        <ele>182.4</ele>
      </trkpt>
      <trkpt lat="44.96684" lon="0.70046">
        <ele>179.9</ele>
      </trkpt>
      <trkpt lat="44.96822" lon="0.70125">
        <ele>182</ele>
      </trkpt>
      <trkpt lat="44.96957" lon="0.70131">
        <ele>179.2</ele>
      </trkpt>
      <trkpt lat="44.97129" lon="0.7011">
        <ele>188.7</ele>
      </trkpt>
      <trkpt lat="44.97244" lon="0.70131">
        <ele>186</ele>
      </trkpt>
      <trkpt lat="44.97323" lon="0.69882">
        <ele>166.4</ele>
      </trkpt>
      <trkpt lat="44.97372" lon="0.69713">
        <ele>147.3</ele>
      </trkpt>
      <trkpt lat="44.97443" lon="0.69629">
        <ele>144.8</ele>
      </trkpt>
      <trkpt lat="44.97588" lon="0.69576">
        <ele>150.4</ele>
      </trkpt>
      <trkpt lat="44.97727" lon="0.6965">
        <ele>154.8</ele>
      </trkpt>
      <trkpt lat="44.97839" lon="0.69729">
        <ele>159.8</ele>
      </trkpt>
      <trkpt lat="44.98014" lon="0.69914">
        <ele>163.4</ele>
      </trkpt>
      <trkpt lat="44.98164" lon="0.69999">
        <ele>165.9</ele>
      </trkpt>
      <trkpt lat="44.98418" lon="0.6993">
        <ele>171.1</ele>
      </trkpt>
      <trkpt lat="44.9847" lon="0.69872">
        <ele>172.7</ele>
      </trkpt>
      <trkpt lat="44.98631" lon="0.69724">
        <ele>189.2</ele>
      </trkpt>
      <trkpt lat="44.98646" lon="0.69676">
        <ele>189.9</ele>
      </trkpt>
      <trkpt lat="44.98721" lon="0.69692">
        <ele>196.1</ele>
      </trkpt>
      <trkpt lat="44.98762" lon="0.69703">
        <ele>199.3</ele>
      </trkpt>
      <trkpt lat="44.98829" lon="0.6974">
        <ele>200.6</ele>
      </trkpt>
    </trkseg>
  </trk>
  <trk>
    <name><![CDATA[toutes les traces autour de st mayme de pereyrol_15]]></name>
    <trkseg>
      <trkpt lat="45.0369" lon="0.72426">
        <ele>199.7</ele>
      </trkpt>
      <trkpt lat="45.03516" lon="0.72598">
        <ele>196.6</ele>
      </trkpt>
      <trkpt lat="45.03405" lon="0.72919">
        <ele>166.4</ele>
      </trkpt>
      <trkpt lat="45.03305" lon="0.73083">
        <ele>151.5</ele>
      </trkpt>
      <trkpt lat="45.03347" lon="0.73322">
        <ele>151.7</ele>
      </trkpt>
      <trkpt lat="45.03358" lon="0.73434">
        <ele>150.1</ele>
      </trkpt>
      <trkpt lat="45.03595" lon="0.73547">
        <ele>178.1</ele>
      </trkpt>
      <trkpt lat="45.03627" lon="0.73651">
        <ele>183.5</ele>
      </trkpt>
      <trkpt lat="45.03727" lon="0.73845">
        <ele>204.5</ele>
      </trkpt>
      <trkpt lat="45.03843" lon="0.73995">
        <ele>210.6</ele>
      </trkpt>
      <trkpt lat="45.03965" lon="0.74316">
        <ele>207.7</ele>
      </trkpt>
      <trkpt lat="45.03975" lon="0.74563">
        <ele>197.9</ele>
      </trkpt>
      <trkpt lat="45.04139" lon="0.746">
        <ele>204</ele>
      </trkpt>
      <trkpt lat="45.04303" lon="0.74735">
        <ele>201.2</ele>
      </trkpt>
      <trkpt lat="45.04408" lon="0.74891">
        <ele>200.4</ele>
      </trkpt>
      <trkpt lat="45.04414" lon="0.75071">
        <ele>195.7</ele>
      </trkpt>
    </trkseg>
  </trk>
  <trk>
    <name><![CDATA[toutes les traces autour de st mayme de pereyrol_16]]></name>
    <trkseg>
      <trkpt lat="45.03743" lon="0.67472">
        <ele>184.5</ele>
      </trkpt>
      <trkpt lat="45.03701" lon="0.67553">
        <ele>196.7</ele>
      </trkpt>
      <trkpt lat="45.03668" lon="0.67637">
        <ele>204</ele>
      </trkpt>
      <trkpt lat="45.03646" lon="0.6773">
        <ele>205.6</ele>
      </trkpt>
      <trkpt lat="45.03688" lon="0.67957">
        <ele>219.2</ele>
      </trkpt>
      <trkpt lat="45.0355" lon="0.68219">
        <ele>223.2</ele>
      </trkpt>
      <trkpt lat="45.03519" lon="0.68286">
        <ele>222.2</ele>
      </trkpt>
      <trkpt lat="45.03461" lon="0.68391">
        <ele>217.6</ele>
      </trkpt>
      <trkpt lat="45.03516" lon="0.68436">
        <ele>217.8</ele>
      </trkpt>
      <trkpt lat="45.03648" lon="0.68357">
        <ele>215.8</ele>
      </trkpt>
      <trkpt lat="45.03714" lon="0.68391">
        <ele>210.2</ele>
      </trkpt>
      <trkpt lat="45.03759" lon="0.68443">
        <ele>204.9</ele>
      </trkpt>
      <trkpt lat="45.03777" lon="0.68495">
        <ele>203.6</ele>
      </trkpt>
      <trkpt lat="45.03814" lon="0.68537">
        <ele>200.8</ele>
      </trkpt>
      <trkpt lat="45.03841" lon="0.68604">
        <ele>198.3</ele>
      </trkpt>
      <trkpt lat="45.03907" lon="0.6866">
        <ele>196.5</ele>
      </trkpt>
      <trkpt lat="45.03915" lon="0.68712">
        <ele>190.3</ele>
      </trkpt>
      <trkpt lat="45.03875" lon="0.68731">
        <ele>188.9</ele>
      </trkpt>
      <trkpt lat="45.03703" lon="0.68858">
        <ele>190.8</ele>
      </trkpt>
      <trkpt lat="45.03614" lon="0.69022">
        <ele>202.7</ele>
      </trkpt>
      <trkpt lat="45.03527" lon="0.69075">
        <ele>202.9</ele>
      </trkpt>
      <trkpt lat="45.03474" lon="0.69104">
        <ele>207.8</ele>
      </trkpt>
      <trkpt lat="45.03571" lon="0.69149">
        <ele>212.2</ele>
      </trkpt>
      <trkpt lat="45.03643" lon="0.69265">
        <ele>226.9</ele>
      </trkpt>
      <trkpt lat="45.03738" lon="0.69287">
        <ele>230.8</ele>
      </trkpt>
      <trkpt lat="45.0383" lon="0.69366">
        <ele>227.9</ele>
      </trkpt>
      <trkpt lat="45.03822" lon="0.69407">
        <ele>226.5</ele>
      </trkpt>
      <trkpt lat="45.03743" lon="0.69534">
        <ele>229.2</ele>
      </trkpt>
      <trkpt lat="45.04097" lon="0.69762">
        <ele>208.1</ele>
      </trkpt>
      <trkpt lat="45.04155" lon="0.69818">
        <ele>203.4</ele>
      </trkpt>
      <trkpt lat="45.04197" lon="0.69814">
        <ele>198.8</ele>
      </trkpt>
      <trkpt lat="45.04392" lon="0.69967">
        <ele>179.9</ele>
      </trkpt>
      <trkpt lat="45.04503" lon="0.70057">
        <ele>165.4</ele>
      </trkpt>
      <trkpt lat="45.0458" lon="0.7015">
        <ele>163.3</ele>
      </trkpt>
      <trkpt lat="45.04783" lon="0.7018">
        <ele>165.2</ele>
      </trkpt>
      <trkpt lat="45.04971" lon="0.70274">
        <ele>172.4</ele>
      </trkpt>
      <trkpt lat="45.05097" lon="0.70274">
        <ele>173</ele>
      </trkpt>
      <trkpt lat="45.05179" lon="0.70319">
        <ele>170.3</ele>
      </trkpt>
      <trkpt lat="45.05248" lon="0.70296">
        <ele>172</ele>
      </trkpt>
      <trkpt lat="45.05234" lon="0.70386">
        <ele>171.5</ele>
      </trkpt>
      <trkpt lat="45.05319" lon="0.70453">
        <ele>175.3</ele>
      </trkpt>
      <trkpt lat="45.05401" lon="0.70655">
        <ele>177.6</ele>
      </trkpt>
      <trkpt lat="45.05398" lon="0.70707">
        <ele>178.5</ele>
      </trkpt>
      <trkpt lat="45.05242" lon="0.70909">
        <ele>182.1</ele>
      </trkpt>
      <trkpt lat="45.05034" lon="0.71234">
        <ele>194.7</ele>
      </trkpt>
      <trkpt lat="45.05171" lon="0.7135">
        <ele>203.2</ele>
      </trkpt>
      <trkpt lat="45.05213" lon="0.71439">
        <ele>207.7</ele>
      </trkpt>
      <trkpt lat="45.0529" lon="0.71484">
        <ele>208.9</ele>
      </trkpt>
      <trkpt lat="45.05382" lon="0.71566">
        <ele>211.7</ele>
      </trkpt>
      <trkpt lat="45.05425" lon="0.71652">
        <ele>213.4</ele>
      </trkpt>
      <trkpt lat="45.05409" lon="0.71727">
        <ele>212.9</ele>
      </trkpt>
      <trkpt lat="45.05277" lon="0.7172">
        <ele>206.9</ele>
      </trkpt>
      <trkpt lat="45.05195" lon="0.71832">
        <ele>201.4</ele>
      </trkpt>
      <trkpt lat="45.05124" lon="0.71929">
        <ele>195.2</ele>
      </trkpt>
      <trkpt lat="45.05137" lon="0.72093">
        <ele>185.8</ele>
      </trkpt>
      <trkpt lat="45.05163" lon="0.7222">
        <ele>178.6</ele>
      </trkpt>
      <trkpt lat="45.05158" lon="0.72314">
        <ele>174.2</ele>
      </trkpt>
      <trkpt lat="45.05089" lon="0.72388">
        <ele>169.4</ele>
      </trkpt>
      <trkpt lat="45.04973" lon="0.72538">
        <ele>196.5</ele>
      </trkpt>
      <trkpt lat="45.04965" lon="0.72594">
        <ele>203.5</ele>
      </trkpt>
      <trkpt lat="45.04949" lon="0.72669">
        <ele>208.3</ele>
      </trkpt>
      <trkpt lat="45.04912" lon="0.72721">
        <ele>208.7</ele>
      </trkpt>
      <trkpt lat="45.04844" lon="0.72728">
        <ele>208</ele>
      </trkpt>
      <trkpt lat="45.04759" lon="0.72624">
        <ele>207.4</ele>
      </trkpt>
      <trkpt lat="45.04575" lon="0.72489">
        <ele>201.5</ele>
      </trkpt>
      <trkpt lat="45.04229" lon="0.72407">
        <ele>204.7</ele>
      </trkpt>
      <trkpt lat="45.04155" lon="0.724">
        <ele>203.4</ele>
      </trkpt>
      <trkpt lat="45.04076" lon="0.72355">
        <ele>202.6</ele>
      </trkpt>
      <trkpt lat="45.03938" lon="0.72377">
        <ele>201.2</ele>
      </trkpt>
      <trkpt lat="45.03756" lon="0.72403">
        <ele>199.8</ele>
      </trkpt>
      <trkpt lat="45.03632" lon="0.72381">
        <ele>196.8</ele>
      </trkpt>
      <trkpt lat="45.03373" lon="0.72209">
        <ele>188</ele>
      </trkpt>
      <trkpt lat="45.03344" lon="0.72168">
        <ele>189.2</ele>
      </trkpt>
      <trkpt lat="45.03255" lon="0.72131">
        <ele>191.2</ele>
      </trkpt>
      <trkpt lat="45.03223" lon="0.72138">
        <ele>188.5</ele>
      </trkpt>
      <trkpt lat="45.03181" lon="0.72101">
        <ele>186.5</ele>
      </trkpt>
      <trkpt lat="45.03131" lon="0.72146">
        <ele>176.2</ele>
      </trkpt>
      <trkpt lat="45.03088" lon="0.72097">
        <ele>172.9</ele>
      </trkpt>
      <trkpt lat="45.03038" lon="0.72075">
        <ele>157.6</ele>
      </trkpt>
      <trkpt lat="45.02922" lon="0.71948">
        <ele>135.9</ele>
      </trkpt>
      <trkpt lat="45.02893" lon="0.71985">
        <ele>131.7</ele>
      </trkpt>
      <trkpt lat="45.02587" lon="0.71454">
        <ele>140.4</ele>
      </trkpt>
      <trkpt lat="45.02618" lon="0.71436">
        <ele>144.3</ele>
      </trkpt>
      <trkpt lat="45.02589" lon="0.71234">
        <ele>152.3</ele>
      </trkpt>
      <trkpt lat="45.02616" lon="0.71182">
        <ele>157.1</ele>
      </trkpt>
      <trkpt lat="45.0269" lon="0.71144">
        <ele>175.9</ele>
      </trkpt>
      <trkpt lat="45.02756" lon="0.7098">
        <ele>186.9</ele>
      </trkpt>
      <trkpt lat="45.02933" lon="0.70898">
        <ele>191.3</ele>
      </trkpt>
      <trkpt lat="45.02967" lon="0.70625">
        <ele>213.3</ele>
      </trkpt>
      <trkpt lat="45.03014" lon="0.70457">
        <ele>220.9</ele>
      </trkpt>
      <trkpt lat="45.0307" lon="0.7039">
        <ele>225.3</ele>
      </trkpt>
      <trkpt lat="45.03099" lon="0.70322">
        <ele>228.2</ele>
      </trkpt>
      <trkpt lat="45.03175" lon="0.70244">
        <ele>229.4</ele>
      </trkpt>
      <trkpt lat="45.03239" lon="0.70195">
        <ele>228.4</ele>
      </trkpt>
      <trkpt lat="45.03379" lon="0.7015">
        <ele>229.6</ele>
      </trkpt>
      <trkpt lat="45.0336" lon="0.70042">
        <ele>231.7</ele>
      </trkpt>
      <trkpt lat="45.03215" lon="0.69904">
        <ele>233.2</ele>
      </trkpt>
      <trkpt lat="45.03173" lon="0.69852">
        <ele>233.6</ele>
      </trkpt>
      <trkpt lat="45.03181" lon="0.69482">
        <ele>232.1</ele>
      </trkpt>
      <trkpt lat="45.03051" lon="0.69444">
        <ele>228.9</ele>
      </trkpt>
      <trkpt lat="45.02845" lon="0.69254">
        <ele>209.2</ele>
      </trkpt>
      <trkpt lat="45.02716" lon="0.69235">
        <ele>211.6</ele>
      </trkpt>
      <trkpt lat="45.02808" lon="0.68903">
        <ele>216.7</ele>
      </trkpt>
      <trkpt lat="45.02845" lon="0.68772">
        <ele>213</ele>
      </trkpt>
      <trkpt lat="45.02835" lon="0.68649">
        <ele>211.4</ele>
      </trkpt>
      <trkpt lat="45.02872" lon="0.68559">
        <ele>208.2</ele>
      </trkpt>
      <trkpt lat="45.02869" lon="0.68406">
        <ele>202.3</ele>
      </trkpt>
      <trkpt lat="45.02914" lon="0.68238">
        <ele>197.7</ele>
      </trkpt>
      <trkpt lat="45.02969" lon="0.68103">
        <ele>189.6</ele>
      </trkpt>
      <trkpt lat="45.03086" lon="0.67961">
        <ele>174</ele>
      </trkpt>
      <trkpt lat="45.03109" lon="0.67823">
        <ele>160.8</ele>
      </trkpt>
      <trkpt lat="45.03144" lon="0.67745">
        <ele>155.3</ele>
      </trkpt>
      <trkpt lat="45.03204" lon="0.67644">
        <ele>142.1</ele>
      </trkpt>
      <trkpt lat="45.03241" lon="0.6755">
        <ele>131</ele>
      </trkpt>
      <trkpt lat="45.0326" lon="0.67408">
        <ele>119.2</ele>
      </trkpt>
    </trkseg>
  </trk>
  <trk>
    <name><![CDATA[liaison grun bordas]]></name>
    <trkseg>
      <trkpt lat="45.03003" lon="0.6601">
        <ele>203.4</ele>
      </trkpt>
      <trkpt lat="45.02996" lon="0.6597">
        <ele>201.6</ele>
      </trkpt>
      <trkpt lat="45.0302" lon="0.65916">
        <ele>199.1</ele>
      </trkpt>
      <trkpt lat="45.03107" lon="0.65837">
        <ele>195.7</ele>
      </trkpt>
      <trkpt lat="45.03107" lon="0.65763">
        <ele>191.7</ele>
      </trkpt>
      <trkpt lat="45.03125" lon="0.65551">
        <ele>188.9</ele>
      </trkpt>
      <trkpt lat="45.03118" lon="0.65438">
        <ele>181.5</ele>
      </trkpt>
      <trkpt lat="45.03142" lon="0.65305">
        <ele>171</ele>
      </trkpt>
      <trkpt lat="45.03156" lon="0.65241">
        <ele>165.3</ele>
      </trkpt>
      <trkpt lat="45.0317" lon="0.65142">
        <ele>151.3</ele>
      </trkpt>
      <trkpt lat="45.03167" lon="0.65004">
        <ele>147.2</ele>
      </trkpt>
      <trkpt lat="45.03215" lon="0.64945">
        <ele>147.8</ele>
      </trkpt>
      <trkpt lat="45.03261" lon="0.64891">
        <ele>155.7</ele>
      </trkpt>
      <trkpt lat="45.03282" lon="0.64827">
        <ele>166.7</ele>
      </trkpt>
      <trkpt lat="45.0331" lon="0.64797">
        <ele>167.7</ele>
      </trkpt>
    </trkseg>
  </trk>
  <trk>
    <name><![CDATA[randogps24-305]]></name>
    <extensions>
      <line xmlns="http://www.topografix.com/GPX/gpx_style/0/2">
        <color>0000FF</color>
        <width>4</width>
      </line>
    </extensions>
    <trkseg>
      <trkpt lat="45.04786" lon="0.65343">
        <ele>118.86</ele>
        <time>2016-09-02T07:05:20Z</time>
      </trkpt>
      <trkpt lat="45.04786" lon="0.65343">
        <ele>118.86</ele>
        <time>2016-09-02T07:05:20Z</time>
      </trkpt>
      <trkpt lat="45.04786" lon="0.65344">
        <ele>119.34</ele>
        <time>2016-09-02T07:05:55Z</time>
      </trkpt>
      <trkpt lat="45.04789" lon="0.65346">
        <ele>119.34</ele>
        <time>2016-09-02T07:06:12Z</time>
      </trkpt>
      <trkpt lat="45.04788" lon="0.65345">
        <ele>119.34</ele>
        <time>2016-09-02T07:06:35Z</time>
      </trkpt>
      <trkpt lat="45.04786" lon="0.65345">
        <ele>119.34</ele>
        <time>2016-09-02T07:06:58Z</time>
      </trkpt>
      <trkpt lat="45.04786" lon="0.65346">
        <ele>119.34</ele>
        <time>2016-09-02T07:07:23Z</time>
      </trkpt>
      <trkpt lat="45.04786" lon="0.65347">
        <ele>119.34</ele>
        <time>2016-09-02T07:07:47Z</time>
      </trkpt>
      <trkpt lat="45.04786" lon="0.65349">
        <ele>119.34</ele>
        <time>2016-09-02T07:08:00Z</time>
      </trkpt>
      <trkpt lat="45.04787" lon="0.65357">
        <ele>119.34</ele>
        <time>2016-09-02T07:08:13Z</time>
      </trkpt>
      <trkpt lat="45.0479" lon="0.65355">
        <ele>117.9</ele>
        <time>2016-09-02T07:08:17Z</time>
      </trkpt>
      <trkpt lat="45.04804" lon="0.65342">
        <ele>116.46</ele>
        <time>2016-09-02T07:08:32Z</time>
      </trkpt>
      <trkpt lat="45.04822" lon="0.65332">
        <ele>115.01</ele>
        <time>2016-09-02T07:08:47Z</time>
      </trkpt>
      <trkpt lat="45.04827" lon="0.65324">
        <ele>114.05</ele>
        <time>2016-09-02T07:08:56Z</time>
      </trkpt>
      <trkpt lat="45.04828" lon="0.65298">
        <ele>114.05</ele>
        <time>2016-09-02T07:09:14Z</time>
      </trkpt>
      <trkpt lat="45.04828" lon="0.65288">
        <ele>114.05</ele>
        <time>2016-09-02T07:09:21Z</time>
      </trkpt>
      <trkpt lat="45.04825" lon="0.65279">
        <ele>114.05</ele>
        <time>2016-09-02T07:09:31Z</time>
      </trkpt>
      <trkpt lat="45.04811" lon="0.65256">
        <ele>115.01</ele>
        <time>2016-09-02T07:09:50Z</time>
      </trkpt>
      <trkpt lat="45.04804" lon="0.65234">
        <ele>115.5</ele>
        <time>2016-09-02T07:10:06Z</time>
      </trkpt>
      <trkpt lat="45.04797" lon="0.65216">
        <ele>115.5</ele>
        <time>2016-09-02T07:10:18Z</time>
      </trkpt>
      <trkpt lat="45.04794" lon="0.6521">
        <ele>115.98</ele>
        <time>2016-09-02T07:10:25Z</time>
      </trkpt>
      <trkpt lat="45.04779" lon="0.65198">
        <ele>116.46</ele>
        <time>2016-09-02T07:10:42Z</time>
      </trkpt>
      <trkpt lat="45.04759" lon="0.65195">
        <ele>116.94</ele>
        <time>2016-09-02T07:11:00Z</time>
      </trkpt>
      <trkpt lat="45.04739" lon="0.65192">
        <ele>117.9</ele>
        <time>2016-09-02T07:11:18Z</time>
      </trkpt>
      <trkpt lat="45.0472" lon="0.65187">
        <ele>118.86</ele>
        <time>2016-09-02T07:11:35Z</time>
      </trkpt>
      <trkpt lat="45.04709" lon="0.65185">
        <ele>119.82</ele>
        <time>2016-09-02T07:11:53Z</time>
      </trkpt>
      <trkpt lat="45.04708" lon="0.65185">
        <ele>119.82</ele>
        <time>2016-09-02T07:11:55Z</time>
      </trkpt>
      <trkpt lat="45.04705" lon="0.6518">
        <ele>119.82</ele>
        <time>2016-09-02T07:12:08Z</time>
      </trkpt>
      <trkpt lat="45.04703" lon="0.65178">
        <ele>119.82</ele>
        <time>2016-09-02T07:12:28Z</time>
      </trkpt>
      <trkpt lat="45.04702" lon="0.6518">
        <ele>119.82</ele>
        <time>2016-09-02T07:12:57Z</time>
      </trkpt>
      <trkpt lat="45.04687" lon="0.65183">
        <ele>121.26</ele>
        <time>2016-09-02T07:13:14Z</time>
      </trkpt>
      <trkpt lat="45.0467" lon="0.65187">
        <ele>121.74</ele>
        <time>2016-09-02T07:13:32Z</time>
      </trkpt>
      <trkpt lat="45.04652" lon="0.65197">
        <ele>122.71</ele>
        <time>2016-09-02T07:13:49Z</time>
      </trkpt>
      <trkpt lat="45.0463" lon="0.65202">
        <ele>123.19</ele>
        <time>2016-09-02T07:14:08Z</time>
      </trkpt>
      <trkpt lat="45.04623" lon="0.65202">
        <ele>123.67</ele>
        <time>2016-09-02T07:14:14Z</time>
      </trkpt>
      <trkpt lat="45.04618" lon="0.652">
        <ele>123.67</ele>
        <time>2016-09-02T07:14:18Z</time>
      </trkpt>
      <trkpt lat="45.04601" lon="0.65186">
        <ele>124.15</ele>
        <time>2016-09-02T07:14:33Z</time>
      </trkpt>
      <trkpt lat="45.04597" lon="0.65181">
        <ele>124.15</ele>
        <time>2016-09-02T07:14:37Z</time>
      </trkpt>
      <trkpt lat="45.04583" lon="0.65174">
        <ele>125.11</ele>
        <time>2016-09-02T07:14:52Z</time>
      </trkpt>
      <trkpt lat="45.04564" lon="0.65174">
        <ele>126.07</ele>
        <time>2016-09-02T07:15:07Z</time>
      </trkpt>
      <trkpt lat="45.04548" lon="0.65174">
        <ele>126.55</ele>
        <time>2016-09-02T07:15:21Z</time>
      </trkpt>
      <trkpt lat="45.04523" lon="0.65174">
        <ele>127.99</ele>
        <time>2016-09-02T07:15:41Z</time>
      </trkpt>
      <trkpt lat="45.04507" lon="0.65171">
        <ele>128.95</ele>
        <time>2016-09-02T07:15:57Z</time>
      </trkpt>
      <trkpt lat="45.04491" lon="0.65167">
        <ele>129.92</ele>
        <time>2016-09-02T07:16:15Z</time>
      </trkpt>
      <trkpt lat="45.04466" lon="0.65164">
        <ele>131.36</ele>
        <time>2016-09-02T07:16:32Z</time>
      </trkpt>
      <trkpt lat="45.04446" lon="0.65164">
        <ele>132.32</ele>
        <time>2016-09-02T07:16:51Z</time>
      </trkpt>
      <trkpt lat="45.04427" lon="0.65164">
        <ele>133.28</ele>
        <time>2016-09-02T07:17:06Z</time>
      </trkpt>
      <trkpt lat="45.04409" lon="0.65164">
        <ele>134.24</ele>
        <time>2016-09-02T07:17:21Z</time>
      </trkpt>
      <trkpt lat="45.0439" lon="0.65159">
        <ele>134.72</ele>
        <time>2016-09-02T07:17:39Z</time>
      </trkpt>
      <trkpt lat="45.04372" lon="0.65153">
        <ele>136.16</ele>
        <time>2016-09-02T07:17:55Z</time>
      </trkpt>
      <trkpt lat="45.04353" lon="0.65147">
        <ele>137.61</ele>
        <time>2016-09-02T07:18:12Z</time>
      </trkpt>
      <trkpt lat="45.04339" lon="0.65143">
        <ele>137.61</ele>
        <time>2016-09-02T07:18:26Z</time>
      </trkpt>
      <trkpt lat="45.04329" lon="0.65141">
        <ele>138.57</ele>
        <time>2016-09-02T07:18:35Z</time>
      </trkpt>
      <trkpt lat="45.04315" lon="0.65134">
        <ele>140.01</ele>
        <time>2016-09-02T07:18:51Z</time>
      </trkpt>
      <trkpt lat="45.04308" lon="0.65133">
        <ele>140.01</ele>
        <time>2016-09-02T07:18:57Z</time>
      </trkpt>
      <trkpt lat="45.04291" lon="0.65129">
        <ele>140.49</ele>
        <time>2016-09-02T07:19:11Z</time>
      </trkpt>
      <trkpt lat="45.04286" lon="0.65128">
        <ele>141.45</ele>
        <time>2016-09-02T07:19:15Z</time>
      </trkpt>
      <trkpt lat="45.04269" lon="0.65121">
        <ele>142.41</ele>
        <time>2016-09-02T07:19:30Z</time>
      </trkpt>
      <trkpt lat="45.04255" lon="0.65115">
        <ele>143.37</ele>
        <time>2016-09-02T07:19:41Z</time>
      </trkpt>
      <trkpt lat="45.04242" lon="0.65106">
        <ele>145.3</ele>
        <time>2016-09-02T07:19:58Z</time>
      </trkpt>
      <trkpt lat="45.0422" lon="0.65096">
        <ele>147.7</ele>
        <time>2016-09-02T07:20:18Z</time>
      </trkpt>
      <trkpt lat="45.04202" lon="0.65086">
        <ele>149.62</ele>
        <time>2016-09-02T07:20:37Z</time>
      </trkpt>
      <trkpt lat="45.04195" lon="0.65086">
        <ele>151.06</ele>
        <time>2016-09-02T07:20:44Z</time>
      </trkpt>
      <trkpt lat="45.0418" lon="0.65088">
        <ele>152.51</ele>
        <time>2016-09-02T07:20:58Z</time>
      </trkpt>
      <trkpt lat="45.04163" lon="0.65092">
        <ele>155.39</ele>
        <time>2016-09-02T07:21:17Z</time>
      </trkpt>
      <trkpt lat="45.04145" lon="0.6509">
        <ele>158.27</ele>
        <time>2016-09-02T07:21:35Z</time>
      </trkpt>
      <trkpt lat="45.04129" lon="0.65094">
        <ele>160.68</ele>
        <time>2016-09-02T07:21:53Z</time>
      </trkpt>
      <trkpt lat="45.04113" lon="0.6509">
        <ele>162.12</ele>
        <time>2016-09-02T07:22:10Z</time>
      </trkpt>
      <trkpt lat="45.04103" lon="0.65079">
        <ele>163.08</ele>
        <time>2016-09-02T07:22:26Z</time>
      </trkpt>
      <trkpt lat="45.04097" lon="0.65074">
        <ele>163.08</ele>
        <time>2016-09-02T07:22:40Z</time>
      </trkpt>
      <trkpt lat="45.04094" lon="0.65069">
        <ele>163.56</ele>
        <time>2016-09-02T07:22:53Z</time>
      </trkpt>
      <trkpt lat="45.04084" lon="0.65078">
        <ele>164.52</ele>
        <time>2016-09-02T07:23:10Z</time>
      </trkpt>
      <trkpt lat="45.04078" lon="0.65091">
        <ele>165.48</ele>
        <time>2016-09-02T07:23:25Z</time>
      </trkpt>
      <trkpt lat="45.04079" lon="0.65104">
        <ele>166.93</ele>
        <time>2016-09-02T07:23:40Z</time>
      </trkpt>
      <trkpt lat="45.0408" lon="0.6511">
        <ele>167.41</ele>
        <time>2016-09-02T07:23:46Z</time>
      </trkpt>
      <trkpt lat="45.04081" lon="0.65117">
        <ele>168.37</ele>
        <time>2016-09-02T07:23:52Z</time>
      </trkpt>
      <trkpt lat="45.04084" lon="0.65136">
        <ele>169.33</ele>
        <time>2016-09-02T07:24:07Z</time>
      </trkpt>
      <trkpt lat="45.04086" lon="0.65159">
        <ele>170.77</ele>
        <time>2016-09-02T07:24:25Z</time>
      </trkpt>
      <trkpt lat="45.04095" lon="0.65177">
        <ele>172.21</ele>
        <time>2016-09-02T07:24:41Z</time>
      </trkpt>
      <trkpt lat="45.04105" lon="0.65197">
        <ele>173.66</ele>
        <time>2016-09-02T07:24:57Z</time>
      </trkpt>
      <trkpt lat="45.04113" lon="0.65209">
        <ele>175.1</ele>
        <time>2016-09-02T07:25:11Z</time>
      </trkpt>
      <trkpt lat="45.04115" lon="0.65211">
        <ele>175.1</ele>
        <time>2016-09-02T07:25:13Z</time>
      </trkpt>
      <trkpt lat="45.04119" lon="0.65229">
        <ele>176.54</ele>
        <time>2016-09-02T07:25:28Z</time>
      </trkpt>
      <trkpt lat="45.04111" lon="0.65234">
        <ele>177.98</ele>
        <time>2016-09-02T07:25:40Z</time>
      </trkpt>
      <trkpt lat="45.04108" lon="0.65235">
        <ele>178.46</ele>
        <time>2016-09-02T07:25:43Z</time>
      </trkpt>
      <trkpt lat="45.04104" lon="0.65235">
        <ele>178.46</ele>
        <time>2016-09-02T07:25:46Z</time>
      </trkpt>
      <trkpt lat="45.04088" lon="0.65234">
        <ele>179.9</ele>
        <time>2016-09-02T07:26:01Z</time>
      </trkpt>
      <trkpt lat="45.04073" lon="0.65232">
        <ele>180.87</ele>
        <time>2016-09-02T07:26:16Z</time>
      </trkpt>
      <trkpt lat="45.04059" lon="0.6523">
        <ele>181.83</ele>
        <time>2016-09-02T07:26:30Z</time>
      </trkpt>
      <trkpt lat="45.04047" lon="0.6522">
        <ele>183.27</ele>
        <time>2016-09-02T07:26:44Z</time>
      </trkpt>
      <trkpt lat="45.04037" lon="0.65212">
        <ele>185.19</ele>
        <time>2016-09-02T07:26:58Z</time>
      </trkpt>
      <trkpt lat="45.04024" lon="0.652">
        <ele>187.11</ele>
        <time>2016-09-02T07:27:14Z</time>
      </trkpt>
      <trkpt lat="45.04011" lon="0.6519">
        <ele>189.52</ele>
        <time>2016-09-02T07:27:30Z</time>
      </trkpt>
      <trkpt lat="45.04001" lon="0.65181">
        <ele>190</ele>
        <time>2016-09-02T07:27:44Z</time>
      </trkpt>
      <trkpt lat="45.03989" lon="0.65172">
        <ele>191.44</ele>
        <time>2016-09-02T07:27:59Z</time>
      </trkpt>
      <trkpt lat="45.03975" lon="0.65164">
        <ele>192.88</ele>
        <time>2016-09-02T07:28:16Z</time>
      </trkpt>
      <trkpt lat="45.03961" lon="0.65156">
        <ele>195.28</ele>
        <time>2016-09-02T07:28:34Z</time>
      </trkpt>
      <trkpt lat="45.03946" lon="0.65149">
        <ele>196.25</ele>
        <time>2016-09-02T07:28:51Z</time>
      </trkpt>
      <trkpt lat="45.03932" lon="0.65147">
        <ele>197.21</ele>
        <time>2016-09-02T07:29:08Z</time>
      </trkpt>
      <trkpt lat="45.03923" lon="0.65151">
        <ele>198.17</ele>
        <time>2016-09-02T07:29:21Z</time>
      </trkpt>
      <trkpt lat="45.03916" lon="0.65166">
        <ele>200.09</ele>
        <time>2016-09-02T07:29:37Z</time>
      </trkpt>
      <trkpt lat="45.03916" lon="0.6517">
        <ele>200.09</ele>
        <time>2016-09-02T07:29:40Z</time>
      </trkpt>
      <trkpt lat="45.03921" lon="0.65189">
        <ele>201.05</ele>
        <time>2016-09-02T07:29:55Z</time>
      </trkpt>
      <trkpt lat="45.03925" lon="0.65206">
        <ele>202.49</ele>
        <time>2016-09-02T07:30:12Z</time>
      </trkpt>
      <trkpt lat="45.03928" lon="0.6522">
        <ele>202.98</ele>
        <time>2016-09-02T07:30:30Z</time>
      </trkpt>
      <trkpt lat="45.03931" lon="0.6524">
        <ele>204.42</ele>
        <time>2016-09-02T07:30:47Z</time>
      </trkpt>
      <trkpt lat="45.03933" lon="0.65261">
        <ele>205.38</ele>
        <time>2016-09-02T07:31:03Z</time>
      </trkpt>
      <trkpt lat="45.03931" lon="0.65286">
        <ele>206.82</ele>
        <time>2016-09-02T07:31:21Z</time>
      </trkpt>
      <trkpt lat="45.0392" lon="0.65289">
        <ele>206.82</ele>
        <time>2016-09-02T07:31:37Z</time>
      </trkpt>
      <trkpt lat="45.03917" lon="0.65287">
        <ele>206.82</ele>
        <time>2016-09-02T07:31:40Z</time>
      </trkpt>
      <trkpt lat="45.03908" lon="0.65279">
        <ele>206.82</ele>
        <time>2016-09-02T07:31:50Z</time>
      </trkpt>
      <trkpt lat="45.03904" lon="0.65269">
        <ele>206.82</ele>
        <time>2016-09-02T07:31:57Z</time>
      </trkpt>
      <trkpt lat="45.03893" lon="0.65248">
        <ele>204.9</ele>
        <time>2016-09-02T07:32:15Z</time>
      </trkpt>
      <trkpt lat="45.03886" lon="0.65229">
        <ele>204.42</ele>
        <time>2016-09-02T07:32:29Z</time>
      </trkpt>
      <trkpt lat="45.03879" lon="0.65215">
        <ele>203.94</ele>
        <time>2016-09-02T07:32:43Z</time>
      </trkpt>
      <trkpt lat="45.03878" lon="0.65213">
        <ele>203.94</ele>
        <time>2016-09-02T07:32:45Z</time>
      </trkpt>
      <trkpt lat="45.03874" lon="0.65208">
        <ele>203.46</ele>
        <time>2016-09-02T07:32:49Z</time>
      </trkpt>
      <trkpt lat="45.03863" lon="0.65188">
        <ele>202.49</ele>
        <time>2016-09-02T07:33:06Z</time>
      </trkpt>
      <trkpt lat="45.03857" lon="0.65177">
        <ele>202.49</ele>
        <time>2016-09-02T07:33:16Z</time>
      </trkpt>
      <trkpt lat="45.0385" lon="0.65152">
        <ele>202.01</ele>
        <time>2016-09-02T07:33:32Z</time>
      </trkpt>
      <trkpt lat="45.0385" lon="0.65149">
        <ele>202.01</ele>
        <time>2016-09-02T07:33:34Z</time>
      </trkpt>
      <trkpt lat="45.03848" lon="0.65127">
        <ele>202.01</ele>
        <time>2016-09-02T07:33:51Z</time>
      </trkpt>
      <trkpt lat="45.03849" lon="0.6511">
        <ele>202.49</ele>
        <time>2016-09-02T07:34:01Z</time>
      </trkpt>
      <trkpt lat="45.03853" lon="0.65083">
        <ele>202.49</ele>
        <time>2016-09-02T07:34:17Z</time>
      </trkpt>
      <trkpt lat="45.03852" lon="0.6506">
        <ele>202.49</ele>
        <time>2016-09-02T07:34:31Z</time>
      </trkpt>
      <trkpt lat="45.03853" lon="0.65041">
        <ele>203.46</ele>
        <time>2016-09-02T07:34:45Z</time>
      </trkpt>
      <trkpt lat="45.03848" lon="0.65016">
        <ele>204.42</ele>
        <time>2016-09-02T07:35:03Z</time>
      </trkpt>
      <trkpt lat="45.03845" lon="0.64996">
        <ele>204.9</ele>
        <time>2016-09-02T07:35:19Z</time>
      </trkpt>
      <trkpt lat="45.03844" lon="0.64994">
        <ele>204.9</ele>
        <time>2016-09-02T07:35:20Z</time>
      </trkpt>
      <trkpt lat="45.03843" lon="0.6497">
        <ele>205.38</ele>
        <time>2016-09-02T07:35:35Z</time>
      </trkpt>
      <trkpt lat="45.03839" lon="0.64948">
        <ele>205.86</ele>
        <time>2016-09-02T07:35:50Z</time>
      </trkpt>
      <trkpt lat="45.03836" lon="0.64939">
        <ele>206.82</ele>
        <time>2016-09-02T07:35:58Z</time>
      </trkpt>
      <trkpt lat="45.03826" lon="0.64932">
        <ele>207.3</ele>
        <time>2016-09-02T07:36:14Z</time>
      </trkpt>
      <trkpt lat="45.0381" lon="0.64919">
        <ele>206.82</ele>
        <time>2016-09-02T07:36:31Z</time>
      </trkpt>
      <trkpt lat="45.03807" lon="0.64918">
        <ele>206.82</ele>
        <time>2016-09-02T07:36:37Z</time>
      </trkpt>
      <trkpt lat="45.03799" lon="0.64906">
        <ele>205.86</ele>
        <time>2016-09-02T07:36:50Z</time>
      </trkpt>
      <trkpt lat="45.03798" lon="0.64905">
        <ele>205.86</ele>
        <time>2016-09-02T07:36:52Z</time>
      </trkpt>
      <trkpt lat="45.03783" lon="0.64889">
        <ele>204.9</ele>
        <time>2016-09-02T07:37:09Z</time>
      </trkpt>
      <trkpt lat="45.03776" lon="0.64883">
        <ele>204.42</ele>
        <time>2016-09-02T07:37:16Z</time>
      </trkpt>
      <trkpt lat="45.03771" lon="0.64881">
        <ele>203.94</ele>
        <time>2016-09-02T07:37:19Z</time>
      </trkpt>
      <trkpt lat="45.03759" lon="0.64871">
        <ele>202.98</ele>
        <time>2016-09-02T07:37:31Z</time>
      </trkpt>
      <trkpt lat="45.03745" lon="0.64855">
        <ele>201.53</ele>
        <time>2016-09-02T07:37:50Z</time>
      </trkpt>
      <trkpt lat="45.03725" lon="0.64845">
        <ele>200.09</ele>
        <time>2016-09-02T07:38:08Z</time>
      </trkpt>
      <trkpt lat="45.03716" lon="0.6484">
        <ele>199.13</ele>
        <time>2016-09-02T07:38:18Z</time>
      </trkpt>
      <trkpt lat="45.03714" lon="0.64839">
        <ele>199.13</ele>
        <time>2016-09-02T07:38:20Z</time>
      </trkpt>
      <trkpt lat="45.03698" lon="0.64832">
        <ele>197.69</ele>
        <time>2016-09-02T07:38:35Z</time>
      </trkpt>
      <trkpt lat="45.03686" lon="0.64827">
        <ele>196.73</ele>
        <time>2016-09-02T07:38:46Z</time>
      </trkpt>
      <trkpt lat="45.03668" lon="0.64819">
        <ele>195.28</ele>
        <time>2016-09-02T07:39:02Z</time>
      </trkpt>
      <trkpt lat="45.03665" lon="0.64818">
        <ele>194.8</ele>
        <time>2016-09-02T07:39:05Z</time>
      </trkpt>
      <trkpt lat="45.03649" lon="0.64809">
        <ele>192.88</ele>
        <time>2016-09-02T07:39:20Z</time>
      </trkpt>
      <trkpt lat="45.03632" lon="0.64801">
        <ele>190</ele>
        <time>2016-09-02T07:39:38Z</time>
      </trkpt>
      <trkpt lat="45.03615" lon="0.64793">
        <ele>188.08</ele>
        <time>2016-09-02T07:39:54Z</time>
      </trkpt>
      <trkpt lat="45.036" lon="0.64787">
        <ele>184.71</ele>
        <time>2016-09-02T07:40:08Z</time>
      </trkpt>
      <trkpt lat="45.03584" lon="0.64778">
        <ele>181.83</ele>
        <time>2016-09-02T07:40:25Z</time>
      </trkpt>
      <trkpt lat="45.03573" lon="0.6477">
        <ele>179.9</ele>
        <time>2016-09-02T07:40:39Z</time>
      </trkpt>
      <trkpt lat="45.03557" lon="0.64759">
        <ele>178.46</ele>
        <time>2016-09-02T07:40:56Z</time>
      </trkpt>
      <trkpt lat="45.03555" lon="0.64756">
        <ele>178.46</ele>
        <time>2016-09-02T07:41:01Z</time>
      </trkpt>
      <trkpt lat="45.03553" lon="0.64756">
        <ele>178.46</ele>
        <time>2016-09-02T07:41:03Z</time>
      </trkpt>
      <trkpt lat="45.03531" lon="0.64754">
        <ele>176.06</ele>
        <time>2016-09-02T07:41:20Z</time>
      </trkpt>
      <trkpt lat="45.03513" lon="0.64754">
        <ele>174.62</ele>
        <time>2016-09-02T07:41:35Z</time>
      </trkpt>
      <trkpt lat="45.03496" lon="0.64759">
        <ele>171.73</ele>
        <time>2016-09-02T07:41:50Z</time>
      </trkpt>
      <trkpt lat="45.03487" lon="0.64764">
        <ele>168.37</ele>
        <time>2016-09-02T07:42:04Z</time>
      </trkpt>
      <trkpt lat="45.03471" lon="0.6477">
        <ele>165</ele>
        <time>2016-09-02T07:42:19Z</time>
      </trkpt>
      <trkpt lat="45.03454" lon="0.6477">
        <ele>162.6</ele>
        <time>2016-09-02T07:42:33Z</time>
      </trkpt>
      <trkpt lat="45.03435" lon="0.64776">
        <ele>160.68</ele>
        <time>2016-09-02T07:42:49Z</time>
      </trkpt>
      <trkpt lat="45.03415" lon="0.64776">
        <ele>160.68</ele>
        <time>2016-09-02T07:43:04Z</time>
      </trkpt>
      <trkpt lat="45.034" lon="0.6478">
        <ele>160.68</ele>
        <time>2016-09-02T07:43:18Z</time>
      </trkpt>
      <trkpt lat="45.03388" lon="0.64788">
        <ele>160.68</ele>
        <time>2016-09-02T07:43:31Z</time>
      </trkpt>
      <trkpt lat="45.03383" lon="0.64789">
        <ele>160.68</ele>
        <time>2016-09-02T07:43:37Z</time>
      </trkpt>
      <trkpt lat="45.03369" lon="0.64792">
        <ele>160.68</ele>
        <time>2016-09-02T07:43:49Z</time>
      </trkpt>
      <trkpt lat="45.03354" lon="0.6479">
        <ele>160.68</ele>
        <time>2016-09-02T07:44:03Z</time>
      </trkpt>
      <trkpt lat="45.03346" lon="0.64791">
        <ele>162.12</ele>
        <time>2016-09-02T07:44:13Z</time>
      </trkpt>
      <trkpt lat="45.0333" lon="0.64787">
        <ele>163.08</ele>
        <time>2016-09-02T07:44:32Z</time>
      </trkpt>
      <trkpt lat="45.03317" lon="0.64787">
        <ele>164.04</ele>
        <time>2016-09-02T07:44:48Z</time>
      </trkpt>
      <trkpt lat="45.03305" lon="0.64772">
        <ele>165.96</ele>
        <time>2016-09-02T07:45:05Z</time>
      </trkpt>
      <trkpt lat="45.03304" lon="0.64769">
        <ele>165.96</ele>
        <time>2016-09-02T07:45:07Z</time>
      </trkpt>
      <trkpt lat="45.03294" lon="0.64748">
        <ele>167.41</ele>
        <time>2016-09-02T07:45:24Z</time>
      </trkpt>
      <trkpt lat="45.03287" lon="0.64733">
        <ele>168.85</ele>
        <time>2016-09-02T07:45:37Z</time>
      </trkpt>
      <trkpt lat="45.03285" lon="0.64718">
        <ele>169.81</ele>
        <time>2016-09-02T07:45:48Z</time>
      </trkpt>
      <trkpt lat="45.03279" lon="0.64697">
        <ele>171.25</ele>
        <time>2016-09-02T07:46:03Z</time>
      </trkpt>
      <trkpt lat="45.03273" lon="0.64677">
        <ele>172.69</ele>
        <time>2016-09-02T07:46:17Z</time>
      </trkpt>
      <trkpt lat="45.0327" lon="0.64668">
        <ele>173.66</ele>
        <time>2016-09-02T07:46:24Z</time>
      </trkpt>
      <trkpt lat="45.03262" lon="0.64653">
        <ele>175.58</ele>
        <time>2016-09-02T07:46:40Z</time>
      </trkpt>
      <trkpt lat="45.03256" lon="0.64633">
        <ele>177.98</ele>
        <time>2016-09-02T07:46:58Z</time>
      </trkpt>
      <trkpt lat="45.0325" lon="0.64615">
        <ele>179.9</ele>
        <time>2016-09-02T07:47:16Z</time>
      </trkpt>
      <trkpt lat="45.03246" lon="0.64598">
        <ele>181.83</ele>
        <time>2016-09-02T07:47:30Z</time>
      </trkpt>
      <trkpt lat="45.03247" lon="0.64591">
        <ele>182.31</ele>
        <time>2016-09-02T07:47:41Z</time>
      </trkpt>
      <trkpt lat="45.03244" lon="0.64584">
        <ele>183.27</ele>
        <time>2016-09-02T07:47:58Z</time>
      </trkpt>
      <trkpt lat="45.03242" lon="0.64572">
        <ele>184.71</ele>
        <time>2016-09-02T07:48:08Z</time>
      </trkpt>
      <trkpt lat="45.03241" lon="0.64554">
        <ele>187.11</ele>
        <time>2016-09-02T07:48:23Z</time>
      </trkpt>
      <trkpt lat="45.03241" lon="0.64529">
        <ele>188.56</ele>
        <time>2016-09-02T07:48:39Z</time>
      </trkpt>
      <trkpt lat="45.03247" lon="0.64503">
        <ele>189.52</ele>
        <time>2016-09-02T07:48:57Z</time>
      </trkpt>
      <trkpt lat="45.03251" lon="0.64489">
        <ele>190</ele>
        <time>2016-09-02T07:49:10Z</time>
      </trkpt>
      <trkpt lat="45.03258" lon="0.64471">
        <ele>191.44</ele>
        <time>2016-09-02T07:49:25Z</time>
      </trkpt>
      <trkpt lat="45.03265" lon="0.64448">
        <ele>191.92</ele>
        <time>2016-09-02T07:49:43Z</time>
      </trkpt>
      <trkpt lat="45.0327" lon="0.64433">
        <ele>193.36</ele>
        <time>2016-09-02T07:49:58Z</time>
      </trkpt>
      <trkpt lat="45.0327" lon="0.64431">
        <ele>193.36</ele>
        <time>2016-09-02T07:50:00Z</time>
      </trkpt>
      <trkpt lat="45.0327" lon="0.64425">
        <ele>193.36</ele>
        <time>2016-09-02T07:50:05Z</time>
      </trkpt>
      <trkpt lat="45.03263" lon="0.64412">
        <ele>193.36</ele>
        <time>2016-09-02T07:50:17Z</time>
      </trkpt>
      <trkpt lat="45.03245" lon="0.64402">
        <ele>193.36</ele>
        <time>2016-09-02T07:50:37Z</time>
      </trkpt>
      <trkpt lat="45.03225" lon="0.64397">
        <ele>193.84</ele>
        <time>2016-09-02T07:50:57Z</time>
      </trkpt>
      <trkpt lat="45.03209" lon="0.64396">
        <ele>195.77</ele>
        <time>2016-09-02T07:51:13Z</time>
      </trkpt>
      <trkpt lat="45.03192" lon="0.64396">
        <ele>196.73</ele>
        <time>2016-09-02T07:51:28Z</time>
      </trkpt>
      <trkpt lat="45.03172" lon="0.64395">
        <ele>198.65</ele>
        <time>2016-09-02T07:51:47Z</time>
      </trkpt>
      <trkpt lat="45.03163" lon="0.64392">
        <ele>199.13</ele>
        <time>2016-09-02T07:51:56Z</time>
      </trkpt>
      <trkpt lat="45.03161" lon="0.6439">
        <ele>199.13</ele>
        <time>2016-09-02T07:51:59Z</time>
      </trkpt>
      <trkpt lat="45.03163" lon="0.64375">
        <ele>199.61</ele>
        <time>2016-09-02T07:52:12Z</time>
      </trkpt>
      <trkpt lat="45.03172" lon="0.64353">
        <ele>200.09</ele>
        <time>2016-09-02T07:52:30Z</time>
      </trkpt>
      <trkpt lat="45.03181" lon="0.6433">
        <ele>200.09</ele>
        <time>2016-09-02T07:52:48Z</time>
      </trkpt>
      <trkpt lat="45.03194" lon="0.64309">
        <ele>200.57</ele>
        <time>2016-09-02T07:53:07Z</time>
      </trkpt>
      <trkpt lat="45.03211" lon="0.64289">
        <ele>200.57</ele>
        <time>2016-09-02T07:53:27Z</time>
      </trkpt>
      <trkpt lat="45.03228" lon="0.64274">
        <ele>200.57</ele>
        <time>2016-09-02T07:53:46Z</time>
      </trkpt>
      <trkpt lat="45.03249" lon="0.64261">
        <ele>200.57</ele>
        <time>2016-09-02T07:54:06Z</time>
      </trkpt>
      <trkpt lat="45.03264" lon="0.64247">
        <ele>200.57</ele>
        <time>2016-09-02T07:54:24Z</time>
      </trkpt>
      <trkpt lat="45.03265" lon="0.64246">
        <ele>200.57</ele>
        <time>2016-09-02T07:54:25Z</time>
      </trkpt>
      <trkpt lat="45.03279" lon="0.64222">
        <ele>200.57</ele>
        <time>2016-09-02T07:54:44Z</time>
      </trkpt>
      <trkpt lat="45.0329" lon="0.64195">
        <ele>201.53</ele>
        <time>2016-09-02T07:55:04Z</time>
      </trkpt>
      <trkpt lat="45.03293" lon="0.64189">
        <ele>202.01</ele>
        <time>2016-09-02T07:55:18Z</time>
      </trkpt>
      <trkpt lat="45.03294" lon="0.64188">
        <ele>202.01</ele>
        <time>2016-09-02T07:55:31Z</time>
      </trkpt>
      <trkpt lat="45.03298" lon="0.64188">
        <ele>202.01</ele>
        <time>2016-09-02T07:55:57Z</time>
      </trkpt>
      <trkpt lat="45.033" lon="0.6419">
        <ele>202.01</ele>
        <time>2016-09-02T07:56:20Z</time>
      </trkpt>
      <trkpt lat="45.03302" lon="0.64191">
        <ele>202.01</ele>
        <time>2016-09-02T07:56:33Z</time>
      </trkpt>
      <trkpt lat="45.03314" lon="0.642">
        <ele>202.98</ele>
        <time>2016-09-02T07:56:49Z</time>
      </trkpt>
      <trkpt lat="45.03328" lon="0.64207">
        <ele>202.98</ele>
        <time>2016-09-02T07:57:05Z</time>
      </trkpt>
      <trkpt lat="45.03338" lon="0.64214">
        <ele>203.46</ele>
        <time>2016-09-02T07:57:18Z</time>
      </trkpt>
      <trkpt lat="45.03353" lon="0.64223">
        <ele>203.94</ele>
        <time>2016-09-02T07:57:34Z</time>
      </trkpt>
      <trkpt lat="45.03366" lon="0.64234">
        <ele>204.9</ele>
        <time>2016-09-02T07:57:50Z</time>
      </trkpt>
      <trkpt lat="45.03375" lon="0.64242">
        <ele>205.86</ele>
        <time>2016-09-02T07:58:04Z</time>
      </trkpt>
      <trkpt lat="45.03384" lon="0.64248">
        <ele>206.82</ele>
        <time>2016-09-02T07:58:17Z</time>
      </trkpt>
      <trkpt lat="45.03392" lon="0.64254">
        <ele>207.3</ele>
        <time>2016-09-02T07:58:32Z</time>
      </trkpt>
      <trkpt lat="45.034" lon="0.64261">
        <ele>208.26</ele>
        <time>2016-09-02T07:58:46Z</time>
      </trkpt>
      <trkpt lat="45.0341" lon="0.64268">
        <ele>209.22</ele>
        <time>2016-09-02T07:59:00Z</time>
      </trkpt>
      <trkpt lat="45.03421" lon="0.64277">
        <ele>210.19</ele>
        <time>2016-09-02T07:59:14Z</time>
      </trkpt>
      <trkpt lat="45.03431" lon="0.64287">
        <ele>211.63</ele>
        <time>2016-09-02T07:59:28Z</time>
      </trkpt>
      <trkpt lat="45.03441" lon="0.64297">
        <ele>212.11</ele>
        <time>2016-09-02T07:59:41Z</time>
      </trkpt>
      <trkpt lat="45.03451" lon="0.64308">
        <ele>213.07</ele>
        <time>2016-09-02T07:59:55Z</time>
      </trkpt>
      <trkpt lat="45.03462" lon="0.6432">
        <ele>214.03</ele>
        <time>2016-09-02T08:00:09Z</time>
      </trkpt>
      <trkpt lat="45.03475" lon="0.64333">
        <ele>214.51</ele>
        <time>2016-09-02T08:00:24Z</time>
      </trkpt>
      <trkpt lat="45.03486" lon="0.64344">
        <ele>214.99</ele>
        <time>2016-09-02T08:00:38Z</time>
      </trkpt>
      <trkpt lat="45.03493" lon="0.64344">
        <ele>214.99</ele>
        <time>2016-09-02T08:00:54Z</time>
      </trkpt>
      <trkpt lat="45.03493" lon="0.64343">
        <ele>214.99</ele>
        <time>2016-09-02T08:00:55Z</time>
      </trkpt>
      <trkpt lat="45.03504" lon="0.64323">
        <ele>215.47</ele>
        <time>2016-09-02T08:01:15Z</time>
      </trkpt>
      <trkpt lat="45.03514" lon="0.64306">
        <ele>215.47</ele>
        <time>2016-09-02T08:01:31Z</time>
      </trkpt>
      <trkpt lat="45.03526" lon="0.64293">
        <ele>215.95</ele>
        <time>2016-09-02T08:01:47Z</time>
      </trkpt>
      <trkpt lat="45.03542" lon="0.64281">
        <ele>215.95</ele>
        <time>2016-09-02T08:02:04Z</time>
      </trkpt>
      <trkpt lat="45.03553" lon="0.64273">
        <ele>215.95</ele>
        <time>2016-09-02T08:02:16Z</time>
      </trkpt>
      <trkpt lat="45.03571" lon="0.64264">
        <ele>215.95</ele>
        <time>2016-09-02T08:02:32Z</time>
      </trkpt>
      <trkpt lat="45.03574" lon="0.64259">
        <ele>215.95</ele>
        <time>2016-09-02T08:02:37Z</time>
      </trkpt>
      <trkpt lat="45.03586" lon="0.64238">
        <ele>214.51</ele>
        <time>2016-09-02T08:02:54Z</time>
      </trkpt>
      <trkpt lat="45.03599" lon="0.64219">
        <ele>214.03</ele>
        <time>2016-09-02T08:03:11Z</time>
      </trkpt>
      <trkpt lat="45.0361" lon="0.64201">
        <ele>212.59</ele>
        <time>2016-09-02T08:03:26Z</time>
      </trkpt>
      <trkpt lat="45.0362" lon="0.64183">
        <ele>211.15</ele>
        <time>2016-09-02T08:03:42Z</time>
      </trkpt>
      <trkpt lat="45.03634" lon="0.64172">
        <ele>211.15</ele>
        <time>2016-09-02T08:03:58Z</time>
      </trkpt>
      <trkpt lat="45.03644" lon="0.64163">
        <ele>211.15</ele>
        <time>2016-09-02T08:04:08Z</time>
      </trkpt>
      <trkpt lat="45.03657" lon="0.64144">
        <ele>210.67</ele>
        <time>2016-09-02T08:04:24Z</time>
      </trkpt>
      <trkpt lat="45.03666" lon="0.64127">
        <ele>210.67</ele>
        <time>2016-09-02T08:04:38Z</time>
      </trkpt>
      <trkpt lat="45.03674" lon="0.64109">
        <ele>210.67</ele>
        <time>2016-09-02T08:04:52Z</time>
      </trkpt>
      <trkpt lat="45.03678" lon="0.641">
        <ele>210.19</ele>
        <time>2016-09-02T08:04:59Z</time>
      </trkpt>
      <trkpt lat="45.0369" lon="0.64082">
        <ele>210.19</ele>
        <time>2016-09-02T08:05:16Z</time>
      </trkpt>
      <trkpt lat="45.03702" lon="0.64064">
        <ele>212.11</ele>
        <time>2016-09-02T08:05:32Z</time>
      </trkpt>
      <trkpt lat="45.03704" lon="0.64059">
        <ele>212.59</ele>
        <time>2016-09-02T08:05:39Z</time>
      </trkpt>
      <trkpt lat="45.03715" lon="0.64036">
        <ele>212.59</ele>
        <time>2016-09-02T08:05:55Z</time>
      </trkpt>
      <trkpt lat="45.03719" lon="0.64021">
        <ele>213.55</ele>
        <time>2016-09-02T08:06:09Z</time>
      </trkpt>
      <trkpt lat="45.03722" lon="0.64007">
        <ele>213.55</ele>
        <time>2016-09-02T08:06:20Z</time>
      </trkpt>
      <trkpt lat="45.03727" lon="0.63988">
        <ele>214.03</ele>
        <time>2016-09-02T08:06:35Z</time>
      </trkpt>
      <trkpt lat="45.03733" lon="0.63968">
        <ele>214.51</ele>
        <time>2016-09-02T08:06:50Z</time>
      </trkpt>
      <trkpt lat="45.03735" lon="0.63961">
        <ele>214.51</ele>
        <time>2016-09-02T08:06:55Z</time>
      </trkpt>
      <trkpt lat="45.03741" lon="0.63933">
        <ele>214.51</ele>
        <time>2016-09-02T08:07:14Z</time>
      </trkpt>
      <trkpt lat="45.03743" lon="0.63924">
        <ele>214.51</ele>
        <time>2016-09-02T08:07:28Z</time>
      </trkpt>
      <trkpt lat="45.03744" lon="0.63921">
        <ele>214.51</ele>
        <time>2016-09-02T08:07:50Z</time>
      </trkpt>
      <trkpt lat="45.03743" lon="0.63917">
        <ele>214.51</ele>
        <time>2016-09-02T08:08:07Z</time>
      </trkpt>
      <trkpt lat="45.03745" lon="0.63915">
        <ele>214.51</ele>
        <time>2016-09-02T08:08:22Z</time>
      </trkpt>
      <trkpt lat="45.03741" lon="0.63906">
        <ele>214.51</ele>
        <time>2016-09-02T08:08:32Z</time>
      </trkpt>
      <trkpt lat="45.03733" lon="0.63902">
        <ele>213.07</ele>
        <time>2016-09-02T08:08:44Z</time>
      </trkpt>
      <trkpt lat="45.03721" lon="0.63904">
        <ele>213.07</ele>
        <time>2016-09-02T08:08:57Z</time>
      </trkpt>
      <trkpt lat="45.03708" lon="0.63891">
        <ele>213.07</ele>
        <time>2016-09-02T08:09:13Z</time>
      </trkpt>
      <trkpt lat="45.03699" lon="0.63869">
        <ele>212.59</ele>
        <time>2016-09-02T08:09:29Z</time>
      </trkpt>
      <trkpt lat="45.03693" lon="0.63851">
        <ele>212.11</ele>
        <time>2016-09-02T08:09:44Z</time>
      </trkpt>
      <trkpt lat="45.03688" lon="0.63836">
        <ele>211.15</ele>
        <time>2016-09-02T08:09:55Z</time>
      </trkpt>
      <trkpt lat="45.03681" lon="0.63816">
        <ele>209.7</ele>
        <time>2016-09-02T08:10:09Z</time>
      </trkpt>
      <trkpt lat="45.03677" lon="0.63797">
        <ele>207.78</ele>
        <time>2016-09-02T08:10:23Z</time>
      </trkpt>
      <trkpt lat="45.03677" lon="0.63776">
        <ele>206.82</ele>
        <time>2016-09-02T08:10:38Z</time>
      </trkpt>
      <trkpt lat="45.03677" lon="0.63754">
        <ele>204.9</ele>
        <time>2016-09-02T08:10:53Z</time>
      </trkpt>
      <trkpt lat="45.03679" lon="0.63727">
        <ele>203.94</ele>
        <time>2016-09-02T08:11:10Z</time>
      </trkpt>
      <trkpt lat="45.0368" lon="0.63716">
        <ele>203.46</ele>
        <time>2016-09-02T08:11:18Z</time>
      </trkpt>
      <trkpt lat="45.03678" lon="0.63701">
        <ele>202.98</ele>
        <time>2016-09-02T08:11:30Z</time>
      </trkpt>
      <trkpt lat="45.03673" lon="0.63687">
        <ele>202.49</ele>
        <time>2016-09-02T08:11:44Z</time>
      </trkpt>
      <trkpt lat="45.03666" lon="0.63669">
        <ele>202.01</ele>
        <time>2016-09-02T08:11:59Z</time>
      </trkpt>
      <trkpt lat="45.0366" lon="0.63649">
        <ele>201.53</ele>
        <time>2016-09-02T08:12:15Z</time>
      </trkpt>
      <trkpt lat="45.03654" lon="0.6363">
        <ele>200.09</ele>
        <time>2016-09-02T08:12:30Z</time>
      </trkpt>
      <trkpt lat="45.03648" lon="0.63612">
        <ele>197.69</ele>
        <time>2016-09-02T08:12:45Z</time>
      </trkpt>
      <trkpt lat="45.03641" lon="0.63597">
        <ele>195.77</ele>
        <time>2016-09-02T08:12:59Z</time>
      </trkpt>
      <trkpt lat="45.03639" lon="0.63591">
        <ele>195.28</ele>
        <time>2016-09-02T08:13:04Z</time>
      </trkpt>
      <trkpt lat="45.03638" lon="0.63587">
        <ele>194.8</ele>
        <time>2016-09-02T08:13:08Z</time>
      </trkpt>
      <trkpt lat="45.03635" lon="0.63578">
        <ele>193.84</ele>
        <time>2016-09-02T08:13:15Z</time>
      </trkpt>
      <trkpt lat="45.0363" lon="0.63558">
        <ele>191.44</ele>
        <time>2016-09-02T08:13:31Z</time>
      </trkpt>
      <trkpt lat="45.03629" lon="0.63557">
        <ele>191.44</ele>
        <time>2016-09-02T08:13:32Z</time>
      </trkpt>
      <trkpt lat="45.03626" lon="0.6355">
        <ele>190.48</ele>
        <time>2016-09-02T08:13:37Z</time>
      </trkpt>
      <trkpt lat="45.03619" lon="0.63525">
        <ele>188.56</ele>
        <time>2016-09-02T08:13:55Z</time>
      </trkpt>
      <trkpt lat="45.03619" lon="0.63506">
        <ele>187.59</ele>
        <time>2016-09-02T08:14:09Z</time>
      </trkpt>
      <trkpt lat="45.0362" lon="0.63502">
        <ele>187.59</ele>
        <time>2016-09-02T08:14:12Z</time>
      </trkpt>
      <trkpt lat="45.03626" lon="0.63495">
        <ele>187.11</ele>
        <time>2016-09-02T08:14:25Z</time>
      </trkpt>
      <trkpt lat="45.03632" lon="0.63488">
        <ele>186.63</ele>
        <time>2016-09-02T08:14:34Z</time>
      </trkpt>
      <trkpt lat="45.03647" lon="0.63474">
        <ele>186.15</ele>
        <time>2016-09-02T08:14:50Z</time>
      </trkpt>
      <trkpt lat="45.03654" lon="0.63468">
        <ele>185.67</ele>
        <time>2016-09-02T08:14:57Z</time>
      </trkpt>
      <trkpt lat="45.03663" lon="0.63457">
        <ele>185.19</ele>
        <time>2016-09-02T08:15:11Z</time>
      </trkpt>
      <trkpt lat="45.03672" lon="0.63444">
        <ele>184.71</ele>
        <time>2016-09-02T08:15:27Z</time>
      </trkpt>
      <trkpt lat="45.03675" lon="0.63442">
        <ele>184.71</ele>
        <time>2016-09-02T08:15:30Z</time>
      </trkpt>
      <trkpt lat="45.03688" lon="0.63425">
        <ele>184.23</ele>
        <time>2016-09-02T08:15:47Z</time>
      </trkpt>
      <trkpt lat="45.037" lon="0.63417">
        <ele>184.23</ele>
        <time>2016-09-02T08:16:01Z</time>
      </trkpt>
      <trkpt lat="45.0371" lon="0.63408">
        <ele>184.23</ele>
        <time>2016-09-02T08:16:18Z</time>
      </trkpt>
      <trkpt lat="45.03727" lon="0.63401">
        <ele>184.23</ele>
        <time>2016-09-02T08:16:33Z</time>
      </trkpt>
      <trkpt lat="45.03742" lon="0.63394">
        <ele>182.79</ele>
        <time>2016-09-02T08:16:47Z</time>
      </trkpt>
      <trkpt lat="45.03746" lon="0.63393">
        <ele>182.79</ele>
        <time>2016-09-02T08:16:50Z</time>
      </trkpt>
      <trkpt lat="45.03751" lon="0.63391">
        <ele>182.31</ele>
        <time>2016-09-02T08:16:55Z</time>
      </trkpt>
      <trkpt lat="45.03765" lon="0.6339">
        <ele>181.83</ele>
        <time>2016-09-02T08:17:05Z</time>
      </trkpt>
      <trkpt lat="45.03783" lon="0.63388">
        <ele>181.35</ele>
        <time>2016-09-02T08:17:22Z</time>
      </trkpt>
      <trkpt lat="45.03801" lon="0.63393">
        <ele>180.87</ele>
        <time>2016-09-02T08:17:38Z</time>
      </trkpt>
      <trkpt lat="45.03821" lon="0.63391">
        <ele>180.38</ele>
        <time>2016-09-02T08:17:55Z</time>
      </trkpt>
      <trkpt lat="45.03838" lon="0.63384">
        <ele>179.9</ele>
        <time>2016-09-02T08:18:11Z</time>
      </trkpt>
      <trkpt lat="45.03858" lon="0.63378">
        <ele>179.9</ele>
        <time>2016-09-02T08:18:29Z</time>
      </trkpt>
      <trkpt lat="45.0388" lon="0.63371">
        <ele>179.42</ele>
        <time>2016-09-02T08:18:46Z</time>
      </trkpt>
      <trkpt lat="45.03896" lon="0.63366">
        <ele>178.46</ele>
        <time>2016-09-02T08:19:02Z</time>
      </trkpt>
      <trkpt lat="45.03897" lon="0.63366">
        <ele>178.46</ele>
        <time>2016-09-02T08:19:03Z</time>
      </trkpt>
      <trkpt lat="45.03915" lon="0.63367">
        <ele>178.46</ele>
        <time>2016-09-02T08:19:21Z</time>
      </trkpt>
      <trkpt lat="45.0394" lon="0.63362">
        <ele>177.98</ele>
        <time>2016-09-02T08:19:39Z</time>
      </trkpt>
      <trkpt lat="45.03957" lon="0.63363">
        <ele>177.5</ele>
        <time>2016-09-02T08:19:57Z</time>
      </trkpt>
      <trkpt lat="45.03978" lon="0.63364">
        <ele>177.5</ele>
        <time>2016-09-02T08:20:13Z</time>
      </trkpt>
      <trkpt lat="45.03984" lon="0.63367">
        <ele>177.02</ele>
        <time>2016-09-02T08:20:36Z</time>
      </trkpt>
      <trkpt lat="45.03999" lon="0.63368">
        <ele>177.02</ele>
        <time>2016-09-02T08:20:52Z</time>
      </trkpt>
      <trkpt lat="45.04018" lon="0.63368">
        <ele>176.54</ele>
        <time>2016-09-02T08:21:10Z</time>
      </trkpt>
      <trkpt lat="45.04039" lon="0.63362">
        <ele>175.58</ele>
        <time>2016-09-02T08:21:26Z</time>
      </trkpt>
      <trkpt lat="45.04048" lon="0.63353">
        <ele>175.58</ele>
        <time>2016-09-02T08:21:37Z</time>
      </trkpt>
      <trkpt lat="45.04056" lon="0.63344">
        <ele>175.1</ele>
        <time>2016-09-02T08:21:47Z</time>
      </trkpt>
      <trkpt lat="45.04066" lon="0.63324">
        <ele>175.1</ele>
        <time>2016-09-02T08:22:03Z</time>
      </trkpt>
      <trkpt lat="45.04077" lon="0.63307">
        <ele>174.62</ele>
        <time>2016-09-02T08:22:17Z</time>
      </trkpt>
      <trkpt lat="45.04089" lon="0.63292">
        <ele>174.62</ele>
        <time>2016-09-02T08:22:28Z</time>
      </trkpt>
      <trkpt lat="45.04094" lon="0.63286">
        <ele>174.14</ele>
        <time>2016-09-02T08:22:32Z</time>
      </trkpt>
      <trkpt lat="45.04111" lon="0.63279">
        <ele>174.14</ele>
        <time>2016-09-02T08:22:48Z</time>
      </trkpt>
      <trkpt lat="45.04123" lon="0.63272">
        <ele>173.66</ele>
        <time>2016-09-02T08:22:59Z</time>
      </trkpt>
      <trkpt lat="45.0414" lon="0.63261">
        <ele>173.17</ele>
        <time>2016-09-02T08:23:14Z</time>
      </trkpt>
      <trkpt lat="45.04147" lon="0.63257">
        <ele>173.17</ele>
        <time>2016-09-02T08:23:23Z</time>
      </trkpt>
      <trkpt lat="45.04163" lon="0.63246">
        <ele>172.69</ele>
        <time>2016-09-02T08:23:40Z</time>
      </trkpt>
      <trkpt lat="45.04178" lon="0.63231">
        <ele>172.21</ele>
        <time>2016-09-02T08:23:57Z</time>
      </trkpt>
      <trkpt lat="45.04181" lon="0.63227">
        <ele>171.73</ele>
        <time>2016-09-02T08:24:01Z</time>
      </trkpt>
      <trkpt lat="45.04199" lon="0.63204">
        <ele>171.25</ele>
        <time>2016-09-02T08:24:16Z</time>
      </trkpt>
      <trkpt lat="45.04214" lon="0.63181">
        <ele>170.77</ele>
        <time>2016-09-02T08:24:34Z</time>
      </trkpt>
      <trkpt lat="45.04223" lon="0.63173">
        <ele>170.29</ele>
        <time>2016-09-02T08:24:44Z</time>
      </trkpt>
      <trkpt lat="45.04242" lon="0.63163">
        <ele>169.81</ele>
        <time>2016-09-02T08:25:02Z</time>
      </trkpt>
      <trkpt lat="45.04257" lon="0.63152">
        <ele>169.33</ele>
        <time>2016-09-02T08:25:14Z</time>
      </trkpt>
      <trkpt lat="45.04266" lon="0.63142">
        <ele>169.33</ele>
        <time>2016-09-02T08:25:22Z</time>
      </trkpt>
      <trkpt lat="45.04272" lon="0.63136">
        <ele>168.85</ele>
        <time>2016-09-02T08:25:28Z</time>
      </trkpt>
      <trkpt lat="45.04288" lon="0.63125">
        <ele>167.89</ele>
        <time>2016-09-02T08:25:42Z</time>
      </trkpt>
      <trkpt lat="45.04293" lon="0.6312">
        <ele>167.89</ele>
        <time>2016-09-02T08:25:47Z</time>
      </trkpt>
      <trkpt lat="45.04296" lon="0.63118">
        <ele>167.41</ele>
        <time>2016-09-02T08:25:49Z</time>
      </trkpt>
      <trkpt lat="45.04307" lon="0.63109">
        <ele>167.41</ele>
        <time>2016-09-02T08:25:59Z</time>
      </trkpt>
      <trkpt lat="45.04321" lon="0.63089">
        <ele>166.45</ele>
        <time>2016-09-02T08:26:15Z</time>
      </trkpt>
      <trkpt lat="45.04328" lon="0.63078">
        <ele>166.45</ele>
        <time>2016-09-02T08:26:27Z</time>
      </trkpt>
      <trkpt lat="45.0433" lon="0.6307">
        <ele>165.96</ele>
        <time>2016-09-02T08:26:50Z</time>
      </trkpt>
      <trkpt lat="45.04348" lon="0.63055">
        <ele>165.96</ele>
        <time>2016-09-02T08:27:07Z</time>
      </trkpt>
      <trkpt lat="45.04361" lon="0.63032">
        <ele>165.96</ele>
        <time>2016-09-02T08:27:25Z</time>
      </trkpt>
      <trkpt lat="45.04376" lon="0.63012">
        <ele>165.48</ele>
        <time>2016-09-02T08:27:40Z</time>
      </trkpt>
      <trkpt lat="45.0438" lon="0.63007">
        <ele>165</ele>
        <time>2016-09-02T08:27:45Z</time>
      </trkpt>
      <trkpt lat="45.04389" lon="0.62997">
        <ele>164.52</ele>
        <time>2016-09-02T08:27:59Z</time>
      </trkpt>
      <trkpt lat="45.04392" lon="0.62991">
        <ele>164.04</ele>
        <time>2016-09-02T08:28:03Z</time>
      </trkpt>
      <trkpt lat="45.04401" lon="0.6297">
        <ele>164.04</ele>
        <time>2016-09-02T08:28:18Z</time>
      </trkpt>
      <trkpt lat="45.04412" lon="0.62952">
        <ele>163.56</ele>
        <time>2016-09-02T08:28:32Z</time>
      </trkpt>
      <trkpt lat="45.04419" lon="0.62936">
        <ele>163.56</ele>
        <time>2016-09-02T08:28:45Z</time>
      </trkpt>
      <trkpt lat="45.04427" lon="0.6292">
        <ele>163.56</ele>
        <time>2016-09-02T08:28:59Z</time>
      </trkpt>
      <trkpt lat="45.04428" lon="0.62919">
        <ele>163.56</ele>
        <time>2016-09-02T08:29:00Z</time>
      </trkpt>
      <trkpt lat="45.04434" lon="0.62909">
        <ele>163.56</ele>
        <time>2016-09-02T08:29:13Z</time>
      </trkpt>
      <trkpt lat="45.04438" lon="0.62908">
        <ele>163.56</ele>
        <time>2016-09-02T08:29:29Z</time>
      </trkpt>
      <trkpt lat="45.04448" lon="0.62915">
        <ele>164.52</ele>
        <time>2016-09-02T08:29:46Z</time>
      </trkpt>
      <trkpt lat="45.04449" lon="0.62917">
        <ele>164.52</ele>
        <time>2016-09-02T08:30:04Z</time>
      </trkpt>
      <trkpt lat="45.04452" lon="0.62917">
        <ele>164.52</ele>
        <time>2016-09-02T08:30:18Z</time>
      </trkpt>
      <trkpt lat="45.04468" lon="0.62927">
        <ele>165.48</ele>
        <time>2016-09-02T08:30:38Z</time>
      </trkpt>
      <trkpt lat="45.04485" lon="0.62929">
        <ele>166.93</ele>
        <time>2016-09-02T08:30:57Z</time>
      </trkpt>
      <trkpt lat="45.04503" lon="0.62937">
        <ele>169.33</ele>
        <time>2016-09-02T08:31:16Z</time>
      </trkpt>
      <trkpt lat="45.04516" lon="0.62943">
        <ele>170.77</ele>
        <time>2016-09-02T08:31:31Z</time>
      </trkpt>
      <trkpt lat="45.04529" lon="0.62949">
        <ele>172.21</ele>
        <time>2016-09-02T08:31:45Z</time>
      </trkpt>
      <trkpt lat="45.04544" lon="0.62956">
        <ele>173.66</ele>
        <time>2016-09-02T08:32:00Z</time>
      </trkpt>
      <trkpt lat="45.04559" lon="0.62963">
        <ele>174.62</ele>
        <time>2016-09-02T08:32:16Z</time>
      </trkpt>
      <trkpt lat="45.04572" lon="0.6297">
        <ele>176.06</ele>
        <time>2016-09-02T08:32:29Z</time>
      </trkpt>
      <trkpt lat="45.04587" lon="0.62977">
        <ele>177.5</ele>
        <time>2016-09-02T08:32:46Z</time>
      </trkpt>
      <trkpt lat="45.04602" lon="0.62982">
        <ele>178.94</ele>
        <time>2016-09-02T08:33:02Z</time>
      </trkpt>
      <trkpt lat="45.04617" lon="0.6299">
        <ele>179.9</ele>
        <time>2016-09-02T08:33:18Z</time>
      </trkpt>
      <trkpt lat="45.0463" lon="0.62997">
        <ele>181.35</ele>
        <time>2016-09-02T08:33:33Z</time>
      </trkpt>
      <trkpt lat="45.04643" lon="0.63002">
        <ele>182.79</ele>
        <time>2016-09-02T08:33:48Z</time>
      </trkpt>
      <trkpt lat="45.04659" lon="0.63005">
        <ele>184.23</ele>
        <time>2016-09-02T08:34:05Z</time>
      </trkpt>
      <trkpt lat="45.04674" lon="0.63005">
        <ele>185.67</ele>
        <time>2016-09-02T08:34:20Z</time>
      </trkpt>
      <trkpt lat="45.04691" lon="0.63008">
        <ele>186.63</ele>
        <time>2016-09-02T08:34:36Z</time>
      </trkpt>
      <trkpt lat="45.04704" lon="0.63009">
        <ele>188.08</ele>
        <time>2016-09-02T08:34:52Z</time>
      </trkpt>
      <trkpt lat="45.04721" lon="0.63011">
        <ele>189.04</ele>
        <time>2016-09-02T08:35:08Z</time>
      </trkpt>
      <trkpt lat="45.0474" lon="0.63015">
        <ele>190.48</ele>
        <time>2016-09-02T08:35:26Z</time>
      </trkpt>
      <trkpt lat="45.04759" lon="0.63015">
        <ele>191.44</ele>
        <time>2016-09-02T08:35:42Z</time>
      </trkpt>
      <trkpt lat="45.04777" lon="0.63029">
        <ele>192.4</ele>
        <time>2016-09-02T08:35:58Z</time>
      </trkpt>
      <trkpt lat="45.04789" lon="0.63045">
        <ele>192.88</ele>
        <time>2016-09-02T08:36:12Z</time>
      </trkpt>
      <trkpt lat="45.04803" lon="0.63062">
        <ele>193.84</ele>
        <time>2016-09-02T08:36:28Z</time>
      </trkpt>
      <trkpt lat="45.04813" lon="0.63068">
        <ele>194.32</ele>
        <time>2016-09-02T08:36:41Z</time>
      </trkpt>
      <trkpt lat="45.04829" lon="0.63074">
        <ele>195.28</ele>
        <time>2016-09-02T08:36:59Z</time>
      </trkpt>
      <trkpt lat="45.04837" lon="0.63075">
        <ele>195.77</ele>
        <time>2016-09-02T08:37:06Z</time>
      </trkpt>
      <trkpt lat="45.04857" lon="0.63074">
        <ele>196.73</ele>
        <time>2016-09-02T08:37:24Z</time>
      </trkpt>
      <trkpt lat="45.0486" lon="0.63074">
        <ele>197.21</ele>
        <time>2016-09-02T08:37:27Z</time>
      </trkpt>
      <trkpt lat="45.04877" lon="0.63074">
        <ele>197.69</ele>
        <time>2016-09-02T08:37:43Z</time>
      </trkpt>
      <trkpt lat="45.04894" lon="0.63074">
        <ele>198.65</ele>
        <time>2016-09-02T08:37:58Z</time>
      </trkpt>
      <trkpt lat="45.04913" lon="0.63071">
        <ele>199.61</ele>
        <time>2016-09-02T08:38:14Z</time>
      </trkpt>
      <trkpt lat="45.0493" lon="0.63068">
        <ele>200.09</ele>
        <time>2016-09-02T08:38:29Z</time>
      </trkpt>
      <trkpt lat="45.0495" lon="0.63067">
        <ele>201.05</ele>
        <time>2016-09-02T08:38:45Z</time>
      </trkpt>
      <trkpt lat="45.04967" lon="0.63071">
        <ele>202.01</ele>
        <time>2016-09-02T08:39:00Z</time>
      </trkpt>
      <trkpt lat="45.05015" lon="0.63116">
        <ele>203.1</ele>
      </trkpt>
      <trkpt lat="45.05027" lon="0.63138">
        <ele>202.6</ele>
      </trkpt>
      <trkpt lat="45.05044" lon="0.63151">
        <ele>202.3</ele>
      </trkpt>
      <trkpt lat="45.05084" lon="0.63154">
        <ele>197.69</ele>
        <time>2016-09-02T08:55:05Z</time>
      </trkpt>
      <trkpt lat="45.05105" lon="0.63155">
        <ele>195.28</ele>
        <time>2016-09-02T08:55:24Z</time>
      </trkpt>
      <trkpt lat="45.05124" lon="0.63149">
        <ele>193.36</ele>
        <time>2016-09-02T08:55:40Z</time>
      </trkpt>
      <trkpt lat="45.05141" lon="0.63149">
        <ele>192.4</ele>
        <time>2016-09-02T08:55:56Z</time>
      </trkpt>
      <trkpt lat="45.05158" lon="0.6315">
        <ele>190</ele>
        <time>2016-09-02T08:56:15Z</time>
      </trkpt>
      <trkpt lat="45.05162" lon="0.63139">
        <ele>190</ele>
        <time>2016-09-02T08:56:27Z</time>
      </trkpt>
      <trkpt lat="45.05176" lon="0.6313">
        <ele>189.52</ele>
        <time>2016-09-02T08:56:43Z</time>
      </trkpt>
      <trkpt lat="45.05183" lon="0.63126">
        <ele>189.04</ele>
        <time>2016-09-02T08:57:04Z</time>
      </trkpt>
      <trkpt lat="45.05197" lon="0.63121">
        <ele>188.08</ele>
        <time>2016-09-02T08:57:20Z</time>
      </trkpt>
      <trkpt lat="45.05214" lon="0.63114">
        <ele>187.11</ele>
        <time>2016-09-02T08:57:38Z</time>
      </trkpt>
      <trkpt lat="45.05226" lon="0.63103">
        <ele>186.15</ele>
        <time>2016-09-02T08:57:52Z</time>
      </trkpt>
      <trkpt lat="45.05227" lon="0.63103">
        <ele>186.15</ele>
        <time>2016-09-02T08:57:53Z</time>
      </trkpt>
      <trkpt lat="45.0523" lon="0.631">
        <ele>186.15</ele>
        <time>2016-09-02T08:57:58Z</time>
      </trkpt>
      <trkpt lat="45.05244" lon="0.63092">
        <ele>184.23</ele>
        <time>2016-09-02T08:58:14Z</time>
      </trkpt>
      <trkpt lat="45.05255" lon="0.63094">
        <ele>184.71</ele>
        <time>2016-09-02T08:58:25Z</time>
      </trkpt>
      <trkpt lat="45.05274" lon="0.63098">
        <ele>184.23</ele>
        <time>2016-09-02T08:58:39Z</time>
      </trkpt>
      <trkpt lat="45.05279" lon="0.63102">
        <ele>183.75</ele>
        <time>2016-09-02T08:58:44Z</time>
      </trkpt>
      <trkpt lat="45.05288" lon="0.63106">
        <ele>183.75</ele>
        <time>2016-09-02T08:58:51Z</time>
      </trkpt>
      <trkpt lat="45.05303" lon="0.6311">
        <ele>182.79</ele>
        <time>2016-09-02T08:59:03Z</time>
      </trkpt>
      <trkpt lat="45.05321" lon="0.6311">
        <ele>182.31</ele>
        <time>2016-09-02T08:59:20Z</time>
      </trkpt>
      <trkpt lat="45.05342" lon="0.63112">
        <ele>181.83</ele>
        <time>2016-09-02T08:59:39Z</time>
      </trkpt>
      <trkpt lat="45.05358" lon="0.6311">
        <ele>180.38</ele>
        <time>2016-09-02T08:59:55Z</time>
      </trkpt>
      <trkpt lat="45.0537" lon="0.63116">
        <ele>177.98</ele>
        <time>2016-09-02T09:00:08Z</time>
      </trkpt>
      <trkpt lat="45.05379" lon="0.63125">
        <ele>175.58</ele>
        <time>2016-09-02T09:00:17Z</time>
      </trkpt>
      <trkpt lat="45.05393" lon="0.63135">
        <ele>174.14</ele>
        <time>2016-09-02T09:00:27Z</time>
      </trkpt>
      <trkpt lat="45.05401" lon="0.63143">
        <ele>173.17</ele>
        <time>2016-09-02T09:00:35Z</time>
      </trkpt>
      <trkpt lat="45.05419" lon="0.63156">
        <ele>172.69</ele>
        <time>2016-09-02T09:00:53Z</time>
      </trkpt>
      <trkpt lat="45.0542" lon="0.63157">
        <ele>172.69</ele>
        <time>2016-09-02T09:00:54Z</time>
      </trkpt>
      <trkpt lat="45.05437" lon="0.63169">
        <ele>172.21</ele>
        <time>2016-09-02T09:01:10Z</time>
      </trkpt>
      <trkpt lat="45.05437" lon="0.63169">
        <ele>172.21</ele>
        <time>2016-09-02T09:01:11Z</time>
      </trkpt>
      <trkpt lat="45.05455" lon="0.63191">
        <ele>172.69</ele>
        <time>2016-09-02T09:01:27Z</time>
      </trkpt>
      <trkpt lat="45.0546" lon="0.63198">
        <ele>174.14</ele>
        <time>2016-09-02T09:01:33Z</time>
      </trkpt>
      <trkpt lat="45.05462" lon="0.632">
        <ele>174.62</ele>
        <time>2016-09-02T09:01:35Z</time>
      </trkpt>
      <trkpt lat="45.05479" lon="0.63211">
        <ele>176.54</ele>
        <time>2016-09-02T09:01:53Z</time>
      </trkpt>
      <trkpt lat="45.05489" lon="0.63222">
        <ele>175.1</ele>
        <time>2016-09-02T09:02:04Z</time>
      </trkpt>
      <trkpt lat="45.05489" lon="0.63224">
        <ele>175.1</ele>
        <time>2016-09-02T09:02:05Z</time>
      </trkpt>
      <trkpt lat="45.05504" lon="0.6325">
        <ele>172.21</ele>
        <time>2016-09-02T09:02:22Z</time>
      </trkpt>
      <trkpt lat="45.05515" lon="0.63267">
        <ele>171.25</ele>
        <time>2016-09-02T09:02:36Z</time>
      </trkpt>
      <trkpt lat="45.05525" lon="0.63271">
        <ele>170.29</ele>
        <time>2016-09-02T09:02:44Z</time>
      </trkpt>
      <trkpt lat="45.05539" lon="0.63282">
        <ele>167.41</ele>
        <time>2016-09-02T09:03:03Z</time>
      </trkpt>
      <trkpt lat="45.05544" lon="0.63284">
        <ele>166.93</ele>
        <time>2016-09-02T09:03:21Z</time>
      </trkpt>
      <trkpt lat="45.05553" lon="0.63288">
        <ele>165.96</ele>
        <time>2016-09-02T09:03:39Z</time>
      </trkpt>
      <trkpt lat="45.05567" lon="0.63295">
        <ele>163.08</ele>
        <time>2016-09-02T09:03:56Z</time>
      </trkpt>
      <trkpt lat="45.05578" lon="0.63303">
        <ele>161.16</ele>
        <time>2016-09-02T09:04:11Z</time>
      </trkpt>
      <trkpt lat="45.05583" lon="0.63309">
        <ele>159.72</ele>
        <time>2016-09-02T09:04:17Z</time>
      </trkpt>
      <trkpt lat="45.05596" lon="0.63319">
        <ele>158.27</ele>
        <time>2016-09-02T09:04:29Z</time>
      </trkpt>
      <trkpt lat="45.05601" lon="0.63323">
        <ele>156.83</ele>
        <time>2016-09-02T09:04:37Z</time>
      </trkpt>
      <trkpt lat="45.05604" lon="0.63323">
        <ele>156.35</ele>
        <time>2016-09-02T09:04:41Z</time>
      </trkpt>
      <trkpt lat="45.05619" lon="0.63322">
        <ele>154.43</ele>
        <time>2016-09-02T09:04:55Z</time>
      </trkpt>
      <trkpt lat="45.05626" lon="0.63308">
        <ele>155.87</ele>
        <time>2016-09-02T09:05:07Z</time>
      </trkpt>
      <trkpt lat="45.05628" lon="0.63303">
        <ele>156.35</ele>
        <time>2016-09-02T09:05:11Z</time>
      </trkpt>
      <trkpt lat="45.05629" lon="0.63299">
        <ele>156.35</ele>
        <time>2016-09-02T09:05:14Z</time>
      </trkpt>
      <trkpt lat="45.05634" lon="0.63286">
        <ele>157.79</ele>
        <time>2016-09-02T09:05:27Z</time>
      </trkpt>
      <trkpt lat="45.05641" lon="0.63265">
        <ele>159.24</ele>
        <time>2016-09-02T09:05:45Z</time>
      </trkpt>
      <trkpt lat="45.05647" lon="0.6325">
        <ele>161.16</ele>
        <time>2016-09-02T09:06:00Z</time>
      </trkpt>
      <trkpt lat="45.05654" lon="0.6323">
        <ele>162.6</ele>
        <time>2016-09-02T09:06:14Z</time>
      </trkpt>
      <trkpt lat="45.05664" lon="0.63209">
        <ele>164.04</ele>
        <time>2016-09-02T09:06:31Z</time>
      </trkpt>
      <trkpt lat="45.05667" lon="0.63189">
        <ele>165.96</ele>
        <time>2016-09-02T09:06:47Z</time>
      </trkpt>
      <trkpt lat="45.05668" lon="0.63171">
        <ele>167.41</ele>
        <time>2016-09-02T09:07:01Z</time>
      </trkpt>
      <trkpt lat="45.05669" lon="0.6316">
        <ele>168.37</ele>
        <time>2016-09-02T09:07:10Z</time>
      </trkpt>
      <trkpt lat="45.05669" lon="0.63136">
        <ele>170.77</ele>
        <time>2016-09-02T09:07:26Z</time>
      </trkpt>
      <trkpt lat="45.05666" lon="0.6312">
        <ele>172.21</ele>
        <time>2016-09-02T09:07:41Z</time>
      </trkpt>
      <trkpt lat="45.05661" lon="0.63099">
        <ele>174.14</ele>
        <time>2016-09-02T09:07:58Z</time>
      </trkpt>
      <trkpt lat="45.05657" lon="0.63085">
        <ele>175.1</ele>
        <time>2016-09-02T09:08:08Z</time>
      </trkpt>
      <trkpt lat="45.05659" lon="0.63062">
        <ele>177.02</ele>
        <time>2016-09-02T09:08:23Z</time>
      </trkpt>
      <trkpt lat="45.05663" lon="0.63053">
        <ele>177.98</ele>
        <time>2016-09-02T09:08:31Z</time>
      </trkpt>
      <trkpt lat="45.05672" lon="0.63032">
        <ele>179.9</ele>
        <time>2016-09-02T09:08:48Z</time>
      </trkpt>
      <trkpt lat="45.05674" lon="0.63028">
        <ele>180.38</ele>
        <time>2016-09-02T09:08:52Z</time>
      </trkpt>
      <trkpt lat="45.05685" lon="0.6301">
        <ele>182.31</ele>
        <time>2016-09-02T09:09:09Z</time>
      </trkpt>
      <trkpt lat="45.0569" lon="0.62997">
        <ele>184.23</ele>
        <time>2016-09-02T09:09:25Z</time>
      </trkpt>
      <trkpt lat="45.05695" lon="0.62977">
        <ele>186.15</ele>
        <time>2016-09-02T09:09:41Z</time>
      </trkpt>
      <trkpt lat="45.05691" lon="0.62965">
        <ele>187.59</ele>
        <time>2016-09-02T09:09:54Z</time>
      </trkpt>
      <trkpt lat="45.0569" lon="0.62962">
        <ele>188.08</ele>
        <time>2016-09-02T09:09:57Z</time>
      </trkpt>
      <trkpt lat="45.05684" lon="0.62955">
        <ele>189.04</ele>
        <time>2016-09-02T09:10:05Z</time>
      </trkpt>
      <trkpt lat="45.05674" lon="0.62938">
        <ele>190.96</ele>
        <time>2016-09-02T09:10:21Z</time>
      </trkpt>
      <trkpt lat="45.0567" lon="0.62917">
        <ele>191.92</ele>
        <time>2016-09-02T09:10:36Z</time>
      </trkpt>
      <trkpt lat="45.05669" lon="0.6289">
        <ele>193.84</ele>
        <time>2016-09-02T09:10:54Z</time>
      </trkpt>
      <trkpt lat="45.05671" lon="0.62886">
        <ele>193.84</ele>
        <time>2016-09-02T09:10:58Z</time>
      </trkpt>
      <trkpt lat="45.05678" lon="0.62876">
        <ele>195.28</ele>
        <time>2016-09-02T09:11:14Z</time>
      </trkpt>
      <trkpt lat="45.05681" lon="0.62878">
        <ele>195.28</ele>
        <time>2016-09-02T09:11:26Z</time>
      </trkpt>
      <trkpt lat="45.05687" lon="0.62876">
        <ele>195.28</ele>
        <time>2016-09-02T09:11:31Z</time>
      </trkpt>
      <trkpt lat="45.05711" lon="0.62863">
        <ele>196.25</ele>
        <time>2016-09-02T09:11:53Z</time>
      </trkpt>
      <trkpt lat="45.05727" lon="0.62851">
        <ele>197.69</ele>
        <time>2016-09-02T09:12:07Z</time>
      </trkpt>
      <trkpt lat="45.05745" lon="0.62832">
        <ele>198.65</ele>
        <time>2016-09-02T09:12:26Z</time>
      </trkpt>
      <trkpt lat="45.05759" lon="0.62814">
        <ele>198.65</ele>
        <time>2016-09-02T09:12:41Z</time>
      </trkpt>
      <trkpt lat="45.05775" lon="0.62793">
        <ele>199.13</ele>
        <time>2016-09-02T09:12:59Z</time>
      </trkpt>
      <trkpt lat="45.05798" lon="0.6278">
        <ele>200.09</ele>
        <time>2016-09-02T09:13:17Z</time>
      </trkpt>
      <trkpt lat="45.0582" lon="0.62768">
        <ele>200.57</ele>
        <time>2016-09-02T09:13:35Z</time>
      </trkpt>
      <trkpt lat="45.05838" lon="0.62759">
        <ele>200.57</ele>
        <time>2016-09-02T09:13:51Z</time>
      </trkpt>
      <trkpt lat="45.0586" lon="0.62742">
        <ele>201.05</ele>
        <time>2016-09-02T09:14:11Z</time>
      </trkpt>
      <trkpt lat="45.05881" lon="0.62724">
        <ele>201.53</ele>
        <time>2016-09-02T09:14:30Z</time>
      </trkpt>
      <trkpt lat="45.05889" lon="0.62717">
        <ele>202.01</ele>
        <time>2016-09-02T09:14:37Z</time>
      </trkpt>
      <trkpt lat="45.05897" lon="0.62727">
        <ele>200.57</ele>
        <time>2016-09-02T09:14:48Z</time>
      </trkpt>
      <trkpt lat="45.05901" lon="0.62758">
        <ele>198.65</ele>
        <time>2016-09-02T09:15:07Z</time>
      </trkpt>
      <trkpt lat="45.05901" lon="0.62773">
        <ele>197.69</ele>
        <time>2016-09-02T09:15:20Z</time>
      </trkpt>
      <trkpt lat="45.05896" lon="0.62791">
        <ele>196.25</ele>
        <time>2016-09-02T09:15:35Z</time>
      </trkpt>
      <trkpt lat="45.05889" lon="0.62817">
        <ele>194.32</ele>
        <time>2016-09-02T09:15:52Z</time>
      </trkpt>
      <trkpt lat="45.05879" lon="0.62837">
        <ele>193.36</ele>
        <time>2016-09-02T09:16:07Z</time>
      </trkpt>
      <trkpt lat="45.05869" lon="0.62863">
        <ele>191.44</ele>
        <time>2016-09-02T09:16:22Z</time>
      </trkpt>
      <trkpt lat="45.05863" lon="0.62886">
        <ele>190</ele>
        <time>2016-09-02T09:16:38Z</time>
      </trkpt>
      <trkpt lat="45.05855" lon="0.62907">
        <ele>188.08</ele>
        <time>2016-09-02T09:16:52Z</time>
      </trkpt>
      <trkpt lat="45.05851" lon="0.62919">
        <ele>186.15</ele>
        <time>2016-09-02T09:17:01Z</time>
      </trkpt>
      <trkpt lat="45.0585" lon="0.62925">
        <ele>185.67</ele>
        <time>2016-09-02T09:17:05Z</time>
      </trkpt>
      <trkpt lat="45.05841" lon="0.62948">
        <ele>183.27</ele>
        <time>2016-09-02T09:17:22Z</time>
      </trkpt>
      <trkpt lat="45.05831" lon="0.62972">
        <ele>180.38</ele>
        <time>2016-09-02T09:17:40Z</time>
      </trkpt>
      <trkpt lat="45.05816" lon="0.62987">
        <ele>178.94</ele>
        <time>2016-09-02T09:17:55Z</time>
      </trkpt>
      <trkpt lat="45.05813" lon="0.62989">
        <ele>178.94</ele>
        <time>2016-09-02T09:17:58Z</time>
      </trkpt>
      <trkpt lat="45.05807" lon="0.62993">
        <ele>178.46</ele>
        <time>2016-09-02T09:18:03Z</time>
      </trkpt>
      <trkpt lat="45.05794" lon="0.63001">
        <ele>177.98</ele>
        <time>2016-09-02T09:18:15Z</time>
      </trkpt>
      <trkpt lat="45.05784" lon="0.63007">
        <ele>177.02</ele>
        <time>2016-09-02T09:18:24Z</time>
      </trkpt>
      <trkpt lat="45.05765" lon="0.63022">
        <ele>176.54</ele>
        <time>2016-09-02T09:18:41Z</time>
      </trkpt>
      <trkpt lat="45.0575" lon="0.63029">
        <ele>175.58</ele>
        <time>2016-09-02T09:18:53Z</time>
      </trkpt>
      <trkpt lat="45.05737" lon="0.63043">
        <ele>172.21</ele>
        <time>2016-09-02T09:19:10Z</time>
      </trkpt>
      <trkpt lat="45.05734" lon="0.63046">
        <ele>171.73</ele>
        <time>2016-09-02T09:19:13Z</time>
      </trkpt>
      <trkpt lat="45.05721" lon="0.63057">
        <ele>168.85</ele>
        <time>2016-09-02T09:19:28Z</time>
      </trkpt>
      <trkpt lat="45.05712" lon="0.63083">
        <ele>165.96</ele>
        <time>2016-09-02T09:19:47Z</time>
      </trkpt>
      <trkpt lat="45.05712" lon="0.6309">
        <ele>165.48</ele>
        <time>2016-09-02T09:19:51Z</time>
      </trkpt>
      <trkpt lat="45.05713" lon="0.63111">
        <ele>162.6</ele>
        <time>2016-09-02T09:20:06Z</time>
      </trkpt>
      <trkpt lat="45.0571" lon="0.63133">
        <ele>160.68</ele>
        <time>2016-09-02T09:20:20Z</time>
      </trkpt>
      <trkpt lat="45.05707" lon="0.6316">
        <ele>159.24</ele>
        <time>2016-09-02T09:20:35Z</time>
      </trkpt>
      <trkpt lat="45.05706" lon="0.63176">
        <ele>157.31</ele>
        <time>2016-09-02T09:20:49Z</time>
      </trkpt>
      <trkpt lat="45.05704" lon="0.63187">
        <ele>156.35</ele>
        <time>2016-09-02T09:20:56Z</time>
      </trkpt>
      <trkpt lat="45.05704" lon="0.63212">
        <ele>154.43</ele>
        <time>2016-09-02T09:21:12Z</time>
      </trkpt>
      <trkpt lat="45.0571" lon="0.63211">
        <ele>152.03</ele>
        <time>2016-09-02T09:21:25Z</time>
      </trkpt>
      <trkpt lat="45.05712" lon="0.63209">
        <ele>152.03</ele>
        <time>2016-09-02T09:21:27Z</time>
      </trkpt>
      <trkpt lat="45.0572" lon="0.63211">
        <ele>151.06</ele>
        <time>2016-09-02T09:21:32Z</time>
      </trkpt>
      <trkpt lat="45.05726" lon="0.63234">
        <ele>148.66</ele>
        <time>2016-09-02T09:21:48Z</time>
      </trkpt>
      <trkpt lat="45.05727" lon="0.63238">
        <ele>148.18</ele>
        <time>2016-09-02T09:21:51Z</time>
      </trkpt>
      <trkpt lat="45.05728" lon="0.63264">
        <ele>145.3</ele>
        <time>2016-09-02T09:22:06Z</time>
      </trkpt>
      <trkpt lat="45.05727" lon="0.63289">
        <ele>143.37</ele>
        <time>2016-09-02T09:22:22Z</time>
      </trkpt>
      <trkpt lat="45.05726" lon="0.6331">
        <ele>142.41</ele>
        <time>2016-09-02T09:22:36Z</time>
      </trkpt>
      <trkpt lat="45.05726" lon="0.63321">
        <ele>141.45</ele>
        <time>2016-09-02T09:22:44Z</time>
      </trkpt>
      <trkpt lat="45.05724" lon="0.63332">
        <ele>140.49</ele>
        <time>2016-09-02T09:22:56Z</time>
      </trkpt>
      <trkpt lat="45.05723" lon="0.63352">
        <ele>139.05</ele>
        <time>2016-09-02T09:23:08Z</time>
      </trkpt>
      <trkpt lat="45.05724" lon="0.63385">
        <ele>137.13</ele>
        <time>2016-09-02T09:23:26Z</time>
      </trkpt>
      <trkpt lat="45.05726" lon="0.634">
        <ele>136.16</ele>
        <time>2016-09-02T09:23:34Z</time>
      </trkpt>
      <trkpt lat="45.05724" lon="0.63414">
        <ele>135.68</ele>
        <time>2016-09-02T09:23:43Z</time>
      </trkpt>
      <trkpt lat="45.05718" lon="0.63432">
        <ele>134.24</ele>
        <time>2016-09-02T09:23:59Z</time>
      </trkpt>
      <trkpt lat="45.05717" lon="0.63434">
        <ele>134.24</ele>
        <time>2016-09-02T09:24:01Z</time>
      </trkpt>
      <trkpt lat="45.05702" lon="0.63458">
        <ele>132.32</ele>
        <time>2016-09-02T09:24:19Z</time>
      </trkpt>
      <trkpt lat="45.05697" lon="0.63477">
        <ele>131.36</ele>
        <time>2016-09-02T09:24:33Z</time>
      </trkpt>
      <trkpt lat="45.05696" lon="0.63483">
        <ele>131.36</ele>
        <time>2016-09-02T09:24:37Z</time>
      </trkpt>
      <trkpt lat="45.05694" lon="0.63492">
        <ele>130.88</ele>
        <time>2016-09-02T09:24:42Z</time>
      </trkpt>
      <trkpt lat="45.05687" lon="0.6352">
        <ele>129.92</ele>
        <time>2016-09-02T09:25:00Z</time>
      </trkpt>
      <trkpt lat="45.05679" lon="0.63537">
        <ele>128.47</ele>
        <time>2016-09-02T09:25:15Z</time>
      </trkpt>
      <trkpt lat="45.05665" lon="0.63561">
        <ele>127.99</ele>
        <time>2016-09-02T09:25:33Z</time>
      </trkpt>
      <trkpt lat="45.05646" lon="0.63574">
        <ele>126.55</ele>
        <time>2016-09-02T09:25:50Z</time>
      </trkpt>
      <trkpt lat="45.05635" lon="0.63579">
        <ele>126.07</ele>
        <time>2016-09-02T09:26:00Z</time>
      </trkpt>
      <trkpt lat="45.05616" lon="0.63583">
        <ele>125.11</ele>
        <time>2016-09-02T09:26:14Z</time>
      </trkpt>
      <trkpt lat="45.05608" lon="0.63594">
        <ele>124.15</ele>
        <time>2016-09-02T09:26:26Z</time>
      </trkpt>
      <trkpt lat="45.05608" lon="0.63596">
        <ele>124.15</ele>
        <time>2016-09-02T09:26:27Z</time>
      </trkpt>
      <trkpt lat="45.0561" lon="0.63604">
        <ele>124.15</ele>
        <time>2016-09-02T09:26:32Z</time>
      </trkpt>
      <trkpt lat="45.05614" lon="0.63638">
        <ele>122.71</ele>
        <time>2016-09-02T09:26:53Z</time>
      </trkpt>
      <trkpt lat="45.05617" lon="0.63653">
        <ele>122.22</ele>
        <time>2016-09-02T09:27:02Z</time>
      </trkpt>
      <trkpt lat="45.05618" lon="0.63673">
        <ele>121.74</ele>
        <time>2016-09-02T09:27:15Z</time>
      </trkpt>
      <trkpt lat="45.05618" lon="0.63684">
        <ele>121.74</ele>
        <time>2016-09-02T09:27:22Z</time>
      </trkpt>
      <trkpt lat="45.05625" lon="0.63721">
        <ele>120.3</ele>
        <time>2016-09-02T09:27:43Z</time>
      </trkpt>
      <trkpt lat="45.05625" lon="0.63723">
        <ele>120.3</ele>
        <time>2016-09-02T09:27:44Z</time>
      </trkpt>
      <trkpt lat="45.0563" lon="0.63741">
        <ele>119.34</ele>
        <time>2016-09-02T09:27:56Z</time>
      </trkpt>
      <trkpt lat="45.05643" lon="0.63773">
        <ele>118.38</ele>
        <time>2016-09-02T09:28:17Z</time>
      </trkpt>
      <trkpt lat="45.05658" lon="0.63806">
        <ele>117.9</ele>
        <time>2016-09-02T09:28:39Z</time>
      </trkpt>
      <trkpt lat="45.05673" lon="0.63833">
        <ele>116.46</ele>
        <time>2016-09-02T09:28:58Z</time>
      </trkpt>
      <trkpt lat="45.05687" lon="0.63858">
        <ele>115.98</ele>
        <time>2016-09-02T09:29:16Z</time>
      </trkpt>
      <trkpt lat="45.05687" lon="0.6386">
        <ele>115.98</ele>
        <time>2016-09-02T09:29:17Z</time>
      </trkpt>
      <trkpt lat="45.05695" lon="0.63884">
        <ele>114.53</ele>
        <time>2016-09-02T09:29:34Z</time>
      </trkpt>
      <trkpt lat="45.05702" lon="0.63912">
        <ele>113.57</ele>
        <time>2016-09-02T09:29:52Z</time>
      </trkpt>
      <trkpt lat="45.05702" lon="0.63935">
        <ele>112.13</ele>
        <time>2016-09-02T09:30:06Z</time>
      </trkpt>
      <trkpt lat="45.05703" lon="0.63966">
        <ele>111.17</ele>
        <time>2016-09-02T09:30:24Z</time>
      </trkpt>
      <trkpt lat="45.05703" lon="0.63996">
        <ele>109.25</ele>
        <time>2016-09-02T09:30:42Z</time>
      </trkpt>
      <trkpt lat="45.05696" lon="0.64025">
        <ele>107.81</ele>
        <time>2016-09-02T09:31:00Z</time>
      </trkpt>
      <trkpt lat="45.05682" lon="0.64058">
        <ele>106.84</ele>
        <time>2016-09-02T09:31:21Z</time>
      </trkpt>
      <trkpt lat="45.05666" lon="0.6409">
        <ele>106.36</ele>
        <time>2016-09-02T09:31:42Z</time>
      </trkpt>
      <trkpt lat="45.05658" lon="0.64118">
        <ele>105.88</ele>
        <time>2016-09-02T09:32:01Z</time>
      </trkpt>
      <trkpt lat="45.0565" lon="0.64147">
        <ele>105.88</ele>
        <time>2016-09-02T09:32:21Z</time>
      </trkpt>
      <trkpt lat="45.05644" lon="0.64176">
        <ele>105.88</ele>
        <time>2016-09-02T09:32:40Z</time>
      </trkpt>
      <trkpt lat="45.05638" lon="0.64209">
        <ele>105.88</ele>
        <time>2016-09-02T09:32:59Z</time>
      </trkpt>
      <trkpt lat="45.0563" lon="0.64242">
        <ele>105.4</ele>
        <time>2016-09-02T09:33:20Z</time>
      </trkpt>
      <trkpt lat="45.05619" lon="0.64281">
        <ele>105.4</ele>
        <time>2016-09-02T09:33:43Z</time>
      </trkpt>
      <trkpt lat="45.05606" lon="0.6431">
        <ele>105.4</ele>
        <time>2016-09-02T09:34:01Z</time>
      </trkpt>
      <trkpt lat="45.05591" lon="0.64334">
        <ele>105.4</ele>
        <time>2016-09-02T09:34:20Z</time>
      </trkpt>
      <trkpt lat="45.05577" lon="0.64362">
        <ele>105.4</ele>
        <time>2016-09-02T09:34:41Z</time>
      </trkpt>
      <trkpt lat="45.05557" lon="0.64388">
        <ele>104.92</ele>
        <time>2016-09-02T09:35:02Z</time>
      </trkpt>
      <trkpt lat="45.05538" lon="0.64413">
        <ele>104.92</ele>
        <time>2016-09-02T09:35:20Z</time>
      </trkpt>
      <trkpt lat="45.05517" lon="0.64441">
        <ele>104.92</ele>
        <time>2016-09-02T09:35:41Z</time>
      </trkpt>
      <trkpt lat="45.05498" lon="0.64467">
        <ele>104.92</ele>
        <time>2016-09-02T09:36:03Z</time>
      </trkpt>
      <trkpt lat="45.05484" lon="0.6449">
        <ele>104.92</ele>
        <time>2016-09-02T09:36:22Z</time>
      </trkpt>
      <trkpt lat="45.05464" lon="0.64516">
        <ele>104.92</ele>
        <time>2016-09-02T09:36:43Z</time>
      </trkpt>
      <trkpt lat="45.05457" lon="0.64526">
        <ele>104.92</ele>
        <time>2016-09-02T09:36:52Z</time>
      </trkpt>
      <trkpt lat="45.05439" lon="0.64548">
        <ele>104.92</ele>
        <time>2016-09-02T09:37:10Z</time>
      </trkpt>
      <trkpt lat="45.05421" lon="0.6457">
        <ele>104.44</ele>
        <time>2016-09-02T09:37:28Z</time>
      </trkpt>
      <trkpt lat="45.054" lon="0.64599">
        <ele>104.44</ele>
        <time>2016-09-02T09:37:51Z</time>
      </trkpt>
      <trkpt lat="45.05393" lon="0.64614">
        <ele>104.44</ele>
        <time>2016-09-02T09:38:01Z</time>
      </trkpt>
      <trkpt lat="45.05373" lon="0.64646">
        <ele>104.44</ele>
        <time>2016-09-02T09:38:23Z</time>
      </trkpt>
      <trkpt lat="45.05359" lon="0.64668">
        <ele>105.4</ele>
        <time>2016-09-02T09:38:41Z</time>
      </trkpt>
      <trkpt lat="45.05346" lon="0.64687">
        <ele>105.4</ele>
        <time>2016-09-02T09:39:01Z</time>
      </trkpt>
      <trkpt lat="45.0533" lon="0.64703">
        <ele>105.4</ele>
        <time>2016-09-02T09:39:17Z</time>
      </trkpt>
      <trkpt lat="45.05309" lon="0.64721">
        <ele>105.4</ele>
        <time>2016-09-02T09:39:34Z</time>
      </trkpt>
      <trkpt lat="45.05294" lon="0.64734">
        <ele>105.4</ele>
        <time>2016-09-02T09:39:50Z</time>
      </trkpt>
      <trkpt lat="45.0528" lon="0.64749">
        <ele>105.4</ele>
        <time>2016-09-02T09:40:05Z</time>
      </trkpt>
      <trkpt lat="45.0527" lon="0.64763">
        <ele>105.4</ele>
        <time>2016-09-02T09:40:17Z</time>
      </trkpt>
      <trkpt lat="45.05251" lon="0.64787">
        <ele>105.4</ele>
        <time>2016-09-02T09:40:34Z</time>
      </trkpt>
      <trkpt lat="45.05245" lon="0.64796">
        <ele>105.4</ele>
        <time>2016-09-02T09:40:41Z</time>
      </trkpt>
      <trkpt lat="45.05227" lon="0.64818">
        <ele>105.4</ele>
        <time>2016-09-02T09:41:01Z</time>
      </trkpt>
      <trkpt lat="45.05212" lon="0.64836">
        <ele>105.88</ele>
        <time>2016-09-02T09:41:18Z</time>
      </trkpt>
      <trkpt lat="45.05197" lon="0.64854">
        <ele>105.88</ele>
        <time>2016-09-02T09:41:34Z</time>
      </trkpt>
      <trkpt lat="45.05174" lon="0.6488">
        <ele>105.88</ele>
        <time>2016-09-02T09:41:54Z</time>
      </trkpt>
      <trkpt lat="45.05162" lon="0.64895">
        <ele>105.88</ele>
        <time>2016-09-02T09:42:07Z</time>
      </trkpt>
      <trkpt lat="45.05149" lon="0.64919">
        <ele>105.88</ele>
        <time>2016-09-02T09:42:24Z</time>
      </trkpt>
      <trkpt lat="45.05134" lon="0.6495">
        <ele>105.88</ele>
        <time>2016-09-02T09:42:41Z</time>
      </trkpt>
      <trkpt lat="45.05124" lon="0.64978">
        <ele>105.4</ele>
        <time>2016-09-02T09:42:58Z</time>
      </trkpt>
      <trkpt lat="45.05123" lon="0.64983">
        <ele>105.4</ele>
        <time>2016-09-02T09:43:01Z</time>
      </trkpt>
      <trkpt lat="45.05119" lon="0.64993">
        <ele>105.88</ele>
        <time>2016-09-02T09:43:07Z</time>
      </trkpt>
      <trkpt lat="45.05107" lon="0.65019">
        <ele>106.36</ele>
        <time>2016-09-02T09:43:24Z</time>
      </trkpt>
      <trkpt lat="45.05097" lon="0.65046">
        <ele>106.84</ele>
        <time>2016-09-02T09:43:42Z</time>
      </trkpt>
      <trkpt lat="45.05086" lon="0.65077">
        <ele>107.32</ele>
        <time>2016-09-02T09:43:59Z</time>
      </trkpt>
      <trkpt lat="45.05078" lon="0.65102">
        <ele>108.29</ele>
        <time>2016-09-02T09:44:13Z</time>
      </trkpt>
      <trkpt lat="45.05063" lon="0.65132">
        <ele>109.25</ele>
        <time>2016-09-02T09:44:30Z</time>
      </trkpt>
      <trkpt lat="45.05045" lon="0.65166">
        <ele>110.69</ele>
        <time>2016-09-02T09:44:51Z</time>
      </trkpt>
      <trkpt lat="45.05025" lon="0.65195">
        <ele>110.69</ele>
        <time>2016-09-02T09:45:12Z</time>
      </trkpt>
      <trkpt lat="45.05009" lon="0.65216">
        <ele>111.65</ele>
        <time>2016-09-02T09:45:30Z</time>
      </trkpt>
      <trkpt lat="45.04992" lon="0.65246">
        <ele>111.65</ele>
        <time>2016-09-02T09:45:51Z</time>
      </trkpt>
      <trkpt lat="45.04978" lon="0.65272">
        <ele>111.65</ele>
        <time>2016-09-02T09:46:10Z</time>
      </trkpt>
      <trkpt lat="45.04962" lon="0.65279">
        <ele>110.69</ele>
        <time>2016-09-02T09:46:25Z</time>
      </trkpt>
      <trkpt lat="45.0494" lon="0.65286">
        <ele>111.65</ele>
        <time>2016-09-02T09:46:42Z</time>
      </trkpt>
      <trkpt lat="45.04922" lon="0.65291">
        <ele>113.57</ele>
        <time>2016-09-02T09:46:57Z</time>
      </trkpt>
      <trkpt lat="45.04903" lon="0.6529">
        <ele>114.05</ele>
        <time>2016-09-02T09:47:12Z</time>
      </trkpt>
      <trkpt lat="45.0488" lon="0.65276">
        <ele>115.5</ele>
        <time>2016-09-02T09:47:32Z</time>
      </trkpt>
      <trkpt lat="45.04862" lon="0.65261">
        <ele>115.98</ele>
        <time>2016-09-02T09:47:49Z</time>
      </trkpt>
      <trkpt lat="45.04849" lon="0.65249">
        <ele>115.01</ele>
        <time>2016-09-02T09:48:03Z</time>
      </trkpt>
      <trkpt lat="45.04833" lon="0.65236">
        <ele>114.53</ele>
        <time>2016-09-02T09:48:17Z</time>
      </trkpt>
      <trkpt lat="45.04817" lon="0.65227">
        <ele>114.05</ele>
        <time>2016-09-02T09:48:31Z</time>
      </trkpt>
      <trkpt lat="45.0481" lon="0.65227">
        <ele>113.09</ele>
        <time>2016-09-02T09:48:37Z</time>
      </trkpt>
      <trkpt lat="45.04805" lon="0.65248">
        <ele>111.65</ele>
        <time>2016-09-02T09:48:52Z</time>
      </trkpt>
      <trkpt lat="45.04806" lon="0.65255">
        <ele>111.65</ele>
        <time>2016-09-02T09:48:57Z</time>
      </trkpt>
      <trkpt lat="45.0482" lon="0.65276">
        <ele>111.17</ele>
        <time>2016-09-02T09:49:14Z</time>
      </trkpt>
      <trkpt lat="45.04822" lon="0.65281">
        <ele>111.17</ele>
        <time>2016-09-02T09:49:18Z</time>
      </trkpt>
      <trkpt lat="45.04827" lon="0.65306">
        <ele>110.21</ele>
        <time>2016-09-02T09:49:32Z</time>
      </trkpt>
      <trkpt lat="45.04829" lon="0.65338">
        <ele>109.73</ele>
        <time>2016-09-02T09:49:50Z</time>
      </trkpt>
      <trkpt lat="45.04827" lon="0.65339">
        <ele>109.73</ele>
        <time>2016-09-02T09:49:52Z</time>
      </trkpt>
      <trkpt lat="45.04815" lon="0.65349">
        <ele>111.17</ele>
        <time>2016-09-02T09:50:01Z</time>
      </trkpt>
      <trkpt lat="45.04813" lon="0.65349">
        <ele>111.17</ele>
        <time>2016-09-02T09:50:03Z</time>
      </trkpt>
      <trkpt lat="45.04795" lon="0.65354">
        <ele>112.61</ele>
        <time>2016-09-02T09:50:20Z</time>
      </trkpt>
      <trkpt lat="45.04781" lon="0.65365">
        <ele>114.05</ele>
        <time>2016-09-02T09:50:37Z</time>
      </trkpt>
      <trkpt lat="45.0478" lon="0.65362">
        <ele>114.05</ele>
        <time>2016-09-02T09:51:02Z</time>
      </trkpt>
    </trkseg>
  </trk>
  <trk>
    <name><![CDATA[toutes les traces autour de st mayme de pereyrol_19]]></name>
    <trkseg>
      <trkpt lat="45.05664" lon="0.62858">
        <ele>194.9</ele>
      </trkpt>
      <trkpt lat="45.05652" lon="0.62802">
        <ele>192.2</ele>
      </trkpt>
      <trkpt lat="45.05606" lon="0.62755">
        <ele>190.6</ele>
      </trkpt>
      <trkpt lat="45.05612" lon="0.62704">
        <ele>188.2</ele>
      </trkpt>
      <trkpt lat="45.05715" lon="0.62498">
        <ele>171.8</ele>
      </trkpt>
      <trkpt lat="45.05734" lon="0.62403">
        <ele>164.2</ele>
      </trkpt>
      <trkpt lat="45.05746" lon="0.62317">
        <ele>157</ele>
      </trkpt>
      <trkpt lat="45.05776" lon="0.62249">
        <ele>162.1</ele>
      </trkpt>
      <trkpt lat="45.05755" lon="0.62163">
        <ele>151.9</ele>
      </trkpt>
      <trkpt lat="45.05737" lon="0.62103">
        <ele>143.7</ele>
      </trkpt>
      <trkpt lat="45.0573" lon="0.62038">
        <ele>140.2</ele>
      </trkpt>
      <trkpt lat="45.05697" lon="0.61966">
        <ele>137.5</ele>
      </trkpt>
      <trkpt lat="45.05667" lon="0.61893">
        <ele>138</ele>
      </trkpt>
      <trkpt lat="45.05552" lon="0.6176">
        <ele>154.3</ele>
      </trkpt>
      <trkpt lat="45.05345" lon="0.61661">
        <ele>182.2</ele>
      </trkpt>
      <trkpt lat="45.05333" lon="0.61584">
        <ele>187</ele>
      </trkpt>
      <trkpt lat="45.05285" lon="0.61541">
        <ele>186.7</ele>
      </trkpt>
    </trkseg>
  </trk>
  <trk>
    <name><![CDATA[toutes les traces autour de st mayme de pereyrol_20]]></name>
    <trkseg>
      <trkpt lat="45.06433" lon="0.60054">
        <ele>112.8</ele>
      </trkpt>
      <trkpt lat="45.06429" lon="0.59944">
        <ele>113.4</ele>
      </trkpt>
      <trkpt lat="45.06438" lon="0.59898">
        <ele>113</ele>
      </trkpt>
      <trkpt lat="45.06489" lon="0.59911">
        <ele>111</ele>
      </trkpt>
      <trkpt lat="45.06525" lon="0.59937">
        <ele>112.8</ele>
      </trkpt>
      <trkpt lat="45.06686" lon="0.59918">
        <ele>148.7</ele>
      </trkpt>
      <trkpt lat="45.06741" lon="0.59872">
        <ele>159.1</ele>
      </trkpt>
      <trkpt lat="45.06741" lon="0.59839">
        <ele>163.6</ele>
      </trkpt>
      <trkpt lat="45.06787" lon="0.59839">
        <ele>175.3</ele>
      </trkpt>
      <trkpt lat="45.06828" lon="0.59989">
        <ele>185.7</ele>
      </trkpt>
      <trkpt lat="45.06856" lon="0.5997">
        <ele>193.7</ele>
      </trkpt>
      <trkpt lat="45.06884" lon="0.60009">
        <ele>198.5</ele>
      </trkpt>
      <trkpt lat="45.06943" lon="0.60048">
        <ele>203.4</ele>
      </trkpt>
      <trkpt lat="45.07003" lon="0.59983">
        <ele>204.5</ele>
      </trkpt>
      <trkpt lat="45.07008" lon="0.59898">
        <ele>204</ele>
      </trkpt>
      <trkpt lat="45.06975" lon="0.59807">
        <ele>205</ele>
      </trkpt>
      <trkpt lat="45.06975" lon="0.59696">
        <ele>204.9</ele>
      </trkpt>
      <trkpt lat="45.07058" lon="0.59547">
        <ele>199.9</ele>
      </trkpt>
      <trkpt lat="45.07067" lon="0.59456">
        <ele>198.9</ele>
      </trkpt>
      <trkpt lat="45.07141" lon="0.59384">
        <ele>189.9</ele>
      </trkpt>
      <trkpt lat="45.07237" lon="0.59326">
        <ele>174.8</ele>
      </trkpt>
      <trkpt lat="45.07292" lon="0.59293">
        <ele>162.6</ele>
      </trkpt>
      <trkpt lat="45.07375" lon="0.5928">
        <ele>151.3</ele>
      </trkpt>
      <trkpt lat="45.07458" lon="0.59248">
        <ele>138.8</ele>
      </trkpt>
      <trkpt lat="45.07481" lon="0.5915">
        <ele>131.9</ele>
      </trkpt>
      <trkpt lat="45.07389" lon="0.59085">
        <ele>125.5</ele>
      </trkpt>
      <trkpt lat="45.07311" lon="0.5889">
        <ele>98.6</ele>
      </trkpt>
      <trkpt lat="45.07279" lon="0.58669">
        <ele>102.7</ele>
      </trkpt>
      <trkpt lat="45.07247" lon="0.58662">
        <ele>105.9</ele>
      </trkpt>
      <trkpt lat="45.07251" lon="0.58532">
        <ele>121.5</ele>
      </trkpt>
      <trkpt lat="45.0732" lon="0.5846">
        <ele>131.7</ele>
      </trkpt>
      <trkpt lat="45.07329" lon="0.58415">
        <ele>135.9</ele>
      </trkpt>
      <trkpt lat="45.07297" lon="0.58376">
        <ele>140.5</ele>
      </trkpt>
      <trkpt lat="45.07348" lon="0.58298">
        <ele>144.4</ele>
      </trkpt>
      <trkpt lat="45.07536" lon="0.58259">
        <ele>127.1</ele>
      </trkpt>
      <trkpt lat="45.07614" lon="0.58252">
        <ele>118.6</ele>
      </trkpt>
      <trkpt lat="45.07577" lon="0.58077">
        <ele>135.4</ele>
      </trkpt>
      <trkpt lat="45.07444" lon="0.57986">
        <ele>156.5</ele>
      </trkpt>
      <trkpt lat="45.07311" lon="0.5779">
        <ele>173</ele>
      </trkpt>
      <trkpt lat="45.07311" lon="0.57699">
        <ele>178.6</ele>
      </trkpt>
      <trkpt lat="45.07403" lon="0.57595">
        <ele>185.4</ele>
      </trkpt>
      <trkpt lat="45.07458" lon="0.57439">
        <ele>187.1</ele>
      </trkpt>
      <trkpt lat="45.07476" lon="0.57316">
        <ele>190</ele>
      </trkpt>
      <trkpt lat="45.07518" lon="0.57218">
        <ele>188.6</ele>
      </trkpt>
      <trkpt lat="45.07522" lon="0.57107">
        <ele>188.1</ele>
      </trkpt>
      <trkpt lat="45.07527" lon="0.5699">
        <ele>184.2</ele>
      </trkpt>
      <trkpt lat="45.07467" lon="0.56932">
        <ele>182.2</ele>
      </trkpt>
      <trkpt lat="45.07527" lon="0.56769">
        <ele>174.1</ele>
      </trkpt>
      <trkpt lat="45.07476" lon="0.56743">
        <ele>171.3</ele>
      </trkpt>
      <trkpt lat="45.07407" lon="0.56724">
        <ele>172.4</ele>
      </trkpt>
      <trkpt lat="45.07325" lon="0.56724">
        <ele>176.9</ele>
      </trkpt>
      <trkpt lat="45.07173" lon="0.56821">
        <ele>174.2</ele>
      </trkpt>
      <trkpt lat="45.07113" lon="0.56873">
        <ele>174.2</ele>
      </trkpt>
      <trkpt lat="45.07058" lon="0.56925">
        <ele>174.2</ele>
      </trkpt>
      <trkpt lat="45.06962" lon="0.56971">
        <ele>173.3</ele>
      </trkpt>
      <trkpt lat="45.06902" lon="0.57081">
        <ele>167.1</ele>
      </trkpt>
      <trkpt lat="45.06828" lon="0.57192">
        <ele>155.1</ele>
      </trkpt>
      <trkpt lat="45.0681" lon="0.57296">
        <ele>149.4</ele>
      </trkpt>
      <trkpt lat="45.06842" lon="0.5742">
        <ele>142.6</ele>
      </trkpt>
      <trkpt lat="45.06943" lon="0.57537">
        <ele>138.2</ele>
      </trkpt>
      <trkpt lat="45.06897" lon="0.57615">
        <ele>132.4</ele>
      </trkpt>
      <trkpt lat="45.0687" lon="0.57615">
        <ele>133.3</ele>
      </trkpt>
      <trkpt lat="45.06879" lon="0.57719">
        <ele>129</ele>
      </trkpt>
      <trkpt lat="45.06847" lon="0.57804">
        <ele>127.1</ele>
      </trkpt>
      <trkpt lat="45.06833" lon="0.58051">
        <ele>130.4</ele>
      </trkpt>
      <trkpt lat="45.06856" lon="0.58168">
        <ele>121.4</ele>
      </trkpt>
      <trkpt lat="45.06897" lon="0.58408">
        <ele>110.7</ele>
      </trkpt>
      <trkpt lat="45.06792" lon="0.58649">
        <ele>112.8</ele>
      </trkpt>
      <trkpt lat="45.06603" lon="0.5887">
        <ele>110.3</ele>
      </trkpt>
      <trkpt lat="45.06516" lon="0.58974">
        <ele>110.4</ele>
      </trkpt>
      <trkpt lat="45.06461" lon="0.59209">
        <ele>113.2</ele>
      </trkpt>
      <trkpt lat="45.06443" lon="0.59391">
        <ele>112.1</ele>
      </trkpt>
      <trkpt lat="45.06397" lon="0.59482">
        <ele>117.9</ele>
      </trkpt>
      <trkpt lat="45.06429" lon="0.59879">
        <ele>112.8</ele>
      </trkpt>
    </trkseg>
  </trk>
  <trk>
    <name><![CDATA[randogps24-559]]></name>
    <trkseg>
      <trkpt lat="45.09017" lon="0.63627">
        <ele>160.8</ele>
      </trkpt>
      <trkpt lat="45.09054" lon="0.63679">
        <ele>160.1</ele>
      </trkpt>
      <trkpt lat="45.09157" lon="0.6375">
        <ele>180.7</ele>
      </trkpt>
      <trkpt lat="45.09197" lon="0.63798">
        <ele>180.7</ele>
      </trkpt>
      <trkpt lat="45.09242" lon="0.63845">
        <ele>181.6</ele>
      </trkpt>
      <trkpt lat="45.09296" lon="0.63875">
        <ele>190.5</ele>
      </trkpt>
      <trkpt lat="45.0935" lon="0.63908">
        <ele>196.1</ele>
      </trkpt>
      <trkpt lat="45.09407" lon="0.63999">
        <ele>200.6</ele>
      </trkpt>
      <trkpt lat="45.09441" lon="0.64099">
        <ele>202.4</ele>
      </trkpt>
      <trkpt lat="45.09457" lon="0.64178">
        <ele>204</ele>
      </trkpt>
      <trkpt lat="45.09459" lon="0.64282">
        <ele>205.5</ele>
      </trkpt>
      <trkpt lat="45.09455" lon="0.6436">
        <ele>207.1</ele>
      </trkpt>
      <trkpt lat="45.09453" lon="0.6443">
        <ele>210.3</ele>
      </trkpt>
      <trkpt lat="45.09411" lon="0.64545">
        <ele>212.3</ele>
      </trkpt>
      <trkpt lat="45.0945" lon="0.64553">
        <ele>212.4</ele>
      </trkpt>
      <trkpt lat="45.09495" lon="0.64541">
        <ele>212.5</ele>
      </trkpt>
      <trkpt lat="45.09534" lon="0.64513">
        <ele>211.7</ele>
      </trkpt>
      <trkpt lat="45.09572" lon="0.64487">
        <ele>211.8</ele>
      </trkpt>
      <trkpt lat="45.09639" lon="0.64448">
        <ele>208.4</ele>
      </trkpt>
      <trkpt lat="45.09653" lon="0.6447">
        <ele>208.4</ele>
      </trkpt>
      <trkpt lat="45.09653" lon="0.64518">
        <ele>207.9</ele>
      </trkpt>
      <trkpt lat="45.09663" lon="0.64535">
        <ele>207.5</ele>
      </trkpt>
      <trkpt lat="45.09706" lon="0.64523">
        <ele>201.3</ele>
      </trkpt>
      <trkpt lat="45.09721" lon="0.64552">
        <ele>199.7</ele>
      </trkpt>
      <trkpt lat="45.09722" lon="0.646">
        <ele>196.8</ele>
      </trkpt>
      <trkpt lat="45.09734" lon="0.64607">
        <ele>196.1</ele>
      </trkpt>
      <trkpt lat="45.09755" lon="0.64603">
        <ele>190.1</ele>
      </trkpt>
      <trkpt lat="45.09867" lon="0.64687">
        <ele>170</ele>
      </trkpt>
      <trkpt lat="45.09888" lon="0.64697">
        <ele>167.2</ele>
      </trkpt>
      <trkpt lat="45.09952" lon="0.64697">
        <ele>156.4</ele>
      </trkpt>
      <trkpt lat="45.09981" lon="0.64695">
        <ele>155.3</ele>
      </trkpt>
      <trkpt lat="45.10038" lon="0.64674">
        <ele>150.1</ele>
      </trkpt>
      <trkpt lat="45.10009" lon="0.64631">
        <ele>151.2</ele>
      </trkpt>
      <trkpt lat="45.1006" lon="0.64606">
        <ele>148.3</ele>
      </trkpt>
      <trkpt lat="45.10106" lon="0.64632">
        <ele>141</ele>
      </trkpt>
      <trkpt lat="45.10224" lon="0.64781">
        <ele>134.3</ele>
      </trkpt>
      <trkpt lat="45.10274" lon="0.64777">
        <ele>140.5</ele>
      </trkpt>
      <trkpt lat="45.10305" lon="0.64733">
        <ele>143.5</ele>
      </trkpt>
      <trkpt lat="45.10317" lon="0.6463">
        <ele>140.9</ele>
      </trkpt>
      <trkpt lat="45.10346" lon="0.64543">
        <ele>139.3</ele>
      </trkpt>
      <trkpt lat="45.10505" lon="0.6457">
        <ele>142</ele>
      </trkpt>
      <trkpt lat="45.10611" lon="0.64514">
        <ele>141.4</ele>
      </trkpt>
      <trkpt lat="45.10649" lon="0.64507">
        <ele>144</ele>
      </trkpt>
      <trkpt lat="45.1072" lon="0.64549">
        <ele>147.5</ele>
      </trkpt>
      <trkpt lat="45.10739" lon="0.6449">
        <ele>154.6</ele>
      </trkpt>
      <trkpt lat="45.1049" lon="0.64298">
        <ele>154.8</ele>
      </trkpt>
      <trkpt lat="45.10394" lon="0.64183">
        <ele>155.8</ele>
      </trkpt>
      <trkpt lat="45.10324" lon="0.64209">
        <ele>143.3</ele>
      </trkpt>
      <trkpt lat="45.10271" lon="0.64187">
        <ele>139.9</ele>
      </trkpt>
      <trkpt lat="45.10268" lon="0.64152">
        <ele>139</ele>
      </trkpt>
      <trkpt lat="45.10266" lon="0.64116">
        <ele>139.1</ele>
      </trkpt>
      <trkpt lat="45.10226" lon="0.64016">
        <ele>135.4</ele>
      </trkpt>
      <trkpt lat="45.10215" lon="0.63851">
        <ele>138.9</ele>
      </trkpt>
      <trkpt lat="45.10155" lon="0.63786">
        <ele>126.9</ele>
      </trkpt>
      <trkpt lat="45.10114" lon="0.63802">
        <ele>125.6</ele>
      </trkpt>
      <trkpt lat="45.1005" lon="0.63557">
        <ele>126.2</ele>
      </trkpt>
      <trkpt lat="45.0998" lon="0.63339">
        <ele>124</ele>
      </trkpt>
      <trkpt lat="45.09953" lon="0.63182">
        <ele>124.1</ele>
      </trkpt>
      <trkpt lat="45.09915" lon="0.63029">
        <ele>138.3</ele>
      </trkpt>
      <trkpt lat="45.09925" lon="0.63004">
        <ele>145</ele>
      </trkpt>
      <trkpt lat="45.09996" lon="0.62928">
        <ele>157</ele>
      </trkpt>
      <trkpt lat="45.09967" lon="0.62835">
        <ele>164.4</ele>
      </trkpt>
      <trkpt lat="45.09957" lon="0.62796">
        <ele>168.4</ele>
      </trkpt>
      <trkpt lat="45.09913" lon="0.62716">
        <ele>170.5</ele>
      </trkpt>
      <trkpt lat="45.09987" lon="0.62548">
        <ele>184.8</ele>
      </trkpt>
      <trkpt lat="45.1002" lon="0.625">
        <ele>187.5</ele>
      </trkpt>
      <trkpt lat="45.10128" lon="0.62362">
        <ele>194.3</ele>
      </trkpt>
      <trkpt lat="45.10144" lon="0.6228">
        <ele>197.7</ele>
      </trkpt>
      <trkpt lat="45.10141" lon="0.62188">
        <ele>200.7</ele>
      </trkpt>
      <trkpt lat="45.10026" lon="0.62115">
        <ele>199.2</ele>
      </trkpt>
      <trkpt lat="45.10003" lon="0.62052">
        <ele>202</ele>
      </trkpt>
      <trkpt lat="45.09923" lon="0.61858">
        <ele>200.7</ele>
      </trkpt>
      <trkpt lat="45.09749" lon="0.61447">
        <ele>198.2</ele>
      </trkpt>
      <trkpt lat="45.0974" lon="0.61331">
        <ele>194.7</ele>
      </trkpt>
      <trkpt lat="45.09785" lon="0.61091">
        <ele>201.9</ele>
      </trkpt>
      <trkpt lat="45.09709" lon="0.6088">
        <ele>203.3</ele>
      </trkpt>
      <trkpt lat="45.09664" lon="0.60928">
        <ele>205</ele>
      </trkpt>
      <trkpt lat="45.09446" lon="0.60992">
        <ele>189.5</ele>
      </trkpt>
      <trkpt lat="45.0944" lon="0.60936">
        <ele>187.9</ele>
      </trkpt>
      <trkpt lat="45.09476" lon="0.60726">
        <ele>170.7</ele>
      </trkpt>
      <trkpt lat="45.0947" lon="0.60597">
        <ele>167.8</ele>
      </trkpt>
      <trkpt lat="45.09449" lon="0.60554">
        <ele>168.8</ele>
      </trkpt>
      <trkpt lat="45.0941" lon="0.60563">
        <ele>158.8</ele>
      </trkpt>
      <trkpt lat="45.09328" lon="0.60451">
        <ele>153.9</ele>
      </trkpt>
      <trkpt lat="45.09288" lon="0.60451">
        <ele>154.5</ele>
      </trkpt>
      <trkpt lat="45.09061" lon="0.60842">
        <ele>124.8</ele>
      </trkpt>
      <trkpt lat="45.09034" lon="0.60911">
        <ele>120.7</ele>
      </trkpt>
      <trkpt lat="45.09001" lon="0.60885">
        <ele>121.3</ele>
      </trkpt>
      <trkpt lat="45.08804" lon="0.61069">
        <ele>104.1</ele>
      </trkpt>
      <trkpt lat="45.08758" lon="0.61262">
        <ele>105.6</ele>
      </trkpt>
      <trkpt lat="45.08867" lon="0.6146">
        <ele>120</ele>
      </trkpt>
      <trkpt lat="45.08864" lon="0.61752">
        <ele>131.1</ele>
      </trkpt>
      <trkpt lat="45.08928" lon="0.62082">
        <ele>133.2</ele>
      </trkpt>
      <trkpt lat="45.08955" lon="0.6261">
        <ele>162.7</ele>
      </trkpt>
      <trkpt lat="45.09213" lon="0.62571">
        <ele>130.6</ele>
      </trkpt>
      <trkpt lat="45.09255" lon="0.62593">
        <ele>123.5</ele>
      </trkpt>
      <trkpt lat="45.0927" lon="0.62515">
        <ele>117.8</ele>
      </trkpt>
      <trkpt lat="45.09352" lon="0.62477">
        <ele>121.7</ele>
      </trkpt>
      <trkpt lat="45.09646" lon="0.62867">
        <ele>123.4</ele>
      </trkpt>
      <trkpt lat="45.09494" lon="0.63099">
        <ele>145.1</ele>
      </trkpt>
      <trkpt lat="45.09479" lon="0.63164">
        <ele>150.2</ele>
      </trkpt>
      <trkpt lat="45.09385" lon="0.63022">
        <ele>161.9</ele>
      </trkpt>
      <trkpt lat="45.09371" lon="0.63066">
        <ele>165.7</ele>
      </trkpt>
      <trkpt lat="45.09385" lon="0.63168">
        <ele>177.1</ele>
      </trkpt>
      <trkpt lat="45.09388" lon="0.63236">
        <ele>178.9</ele>
      </trkpt>
      <trkpt lat="45.09325" lon="0.63314">
        <ele>189.9</ele>
      </trkpt>
      <trkpt lat="45.09053" lon="0.62947">
        <ele>177.3</ele>
      </trkpt>
      <trkpt lat="45.09034" lon="0.63031">
        <ele>176</ele>
      </trkpt>
      <trkpt lat="45.09063" lon="0.63118">
        <ele>179.2</ele>
      </trkpt>
      <trkpt lat="45.09073" lon="0.63205">
        <ele>181.3</ele>
      </trkpt>
      <trkpt lat="45.09031" lon="0.63393">
        <ele>173.6</ele>
      </trkpt>
      <trkpt lat="45.09019" lon="0.63627">
        <ele>161.1</ele>
      </trkpt>
    </trkseg>
  </trk>
  <trk>
    <name><![CDATA[toutes les traces autour de st mayme de pereyrol_22]]></name>
    <trkseg>
      <trkpt lat="45.07609" lon="0.58109">
        <ele>127.3</ele>
      </trkpt>
      <trkpt lat="45.07609" lon="0.58109">
        <ele>127.3</ele>
      </trkpt>
      <trkpt lat="45.07756" lon="0.58239">
        <ele>106.2</ele>
      </trkpt>
      <trkpt lat="45.07995" lon="0.58402">
        <ele>89.7</ele>
      </trkpt>
      <trkpt lat="45.08248" lon="0.58278">
        <ele>88.5</ele>
      </trkpt>
      <trkpt lat="45.08363" lon="0.5848">
        <ele>92.5</ele>
      </trkpt>
      <trkpt lat="45.08459" lon="0.58545">
        <ele>96.5</ele>
      </trkpt>
      <trkpt lat="45.08487" lon="0.58656">
        <ele>97</ele>
      </trkpt>
      <trkpt lat="45.08827" lon="0.58695">
        <ele>104.1</ele>
      </trkpt>
    </trkseg>
  </trk>
  <trk>
    <name><![CDATA[toutes les traces autour de st mayme de pereyrol_23]]></name>
    <trkseg>
      <trkpt lat="45.0873" lon="0.63326">
        <ele>119.9</ele>
      </trkpt>
      <trkpt lat="45.08719" lon="0.634">
        <ele>121.7</ele>
      </trkpt>
      <trkpt lat="45.08648" lon="0.63468">
        <ele>135</ele>
      </trkpt>
      <trkpt lat="45.08615" lon="0.63558">
        <ele>139.9</ele>
      </trkpt>
      <trkpt lat="45.08566" lon="0.63595">
        <ele>155.2</ele>
      </trkpt>
      <trkpt lat="45.08525" lon="0.63695">
        <ele>164.4</ele>
      </trkpt>
      <trkpt lat="45.08484" lon="0.6387">
        <ele>179.8</ele>
      </trkpt>
      <trkpt lat="45.08395" lon="0.64023">
        <ele>181.7</ele>
      </trkpt>
      <trkpt lat="45.08249" lon="0.64097">
        <ele>192.8</ele>
      </trkpt>
      <trkpt lat="45.08219" lon="0.64123">
        <ele>193.9</ele>
      </trkpt>
      <trkpt lat="45.08167" lon="0.64277">
        <ele>199.9</ele>
      </trkpt>
      <trkpt lat="45.08096" lon="0.64049">
        <ele>201.3</ele>
      </trkpt>
      <trkpt lat="45.08048" lon="0.63859">
        <ele>204.7</ele>
      </trkpt>
      <trkpt lat="45.07954" lon="0.63849">
        <ele>202.6</ele>
      </trkpt>
      <trkpt lat="45.07887" lon="0.63812">
        <ele>195.9</ele>
      </trkpt>
      <trkpt lat="45.07775" lon="0.63764">
        <ele>192</ele>
      </trkpt>
      <trkpt lat="45.0766" lon="0.63754">
        <ele>193.7</ele>
      </trkpt>
      <trkpt lat="45.07529" lon="0.63722">
        <ele>184</ele>
      </trkpt>
      <trkpt lat="45.07436" lon="0.63769">
        <ele>173.1</ele>
      </trkpt>
      <trkpt lat="45.07283" lon="0.63812">
        <ele>164.9</ele>
      </trkpt>
      <trkpt lat="45.07316" lon="0.63621">
        <ele>151.7</ele>
      </trkpt>
      <trkpt lat="45.07328" lon="0.6359">
        <ele>151.5</ele>
      </trkpt>
      <trkpt lat="45.0729" lon="0.63532">
        <ele>142.3</ele>
      </trkpt>
      <trkpt lat="45.0713" lon="0.63326">
        <ele>114.8</ele>
      </trkpt>
      <trkpt lat="45.07048" lon="0.63225">
        <ele>107.7</ele>
      </trkpt>
      <trkpt lat="45.06794" lon="0.62781">
        <ele>99.6</ele>
      </trkpt>
      <trkpt lat="45.0666" lon="0.62586">
        <ele>122.2</ele>
      </trkpt>
      <trkpt lat="45.06678" lon="0.62412">
        <ele>133.8</ele>
      </trkpt>
      <trkpt lat="45.06645" lon="0.62338">
        <ele>146.1</ele>
      </trkpt>
      <trkpt lat="45.06686" lon="0.6219">
        <ele>157.1</ele>
      </trkpt>
      <trkpt lat="45.06899" lon="0.62094">
        <ele>131.8</ele>
      </trkpt>
      <trkpt lat="45.06887" lon="0.62195">
        <ele>125.4</ele>
      </trkpt>
      <trkpt lat="45.06958" lon="0.62221">
        <ele>113.1</ele>
      </trkpt>
      <trkpt lat="45.07462" lon="0.62559">
        <ele>100.1</ele>
      </trkpt>
      <trkpt lat="45.0735" lon="0.62845">
        <ele>108.7</ele>
      </trkpt>
      <trkpt lat="45.07544" lon="0.63024">
        <ele>127.4</ele>
      </trkpt>
      <trkpt lat="45.07533" lon="0.63104">
        <ele>132.7</ele>
      </trkpt>
      <trkpt lat="45.07622" lon="0.63225">
        <ele>142.9</ele>
      </trkpt>
      <trkpt lat="45.07671" lon="0.63225">
        <ele>145</ele>
      </trkpt>
      <trkpt lat="45.07805" lon="0.63326">
        <ele>164.8</ele>
      </trkpt>
      <trkpt lat="45.07988" lon="0.63283">
        <ele>195.1</ele>
      </trkpt>
      <trkpt lat="45.08074" lon="0.63236">
        <ele>197.7</ele>
      </trkpt>
      <trkpt lat="45.08092" lon="0.62945">
        <ele>204.4</ele>
      </trkpt>
      <trkpt lat="45.08346" lon="0.63019">
        <ele>193.7</ele>
      </trkpt>
      <trkpt lat="45.08484" lon="0.63104">
        <ele>178.5</ele>
      </trkpt>
      <trkpt lat="45.08577" lon="0.63167">
        <ele>149.6</ele>
      </trkpt>
      <trkpt lat="45.08663" lon="0.63241">
        <ele>131.7</ele>
      </trkpt>
      <trkpt lat="45.08674" lon="0.6331">
        <ele>123.5</ele>
      </trkpt>
      <trkpt lat="45.0873" lon="0.63326">
        <ele>119.9</ele>
      </trkpt>
    </trkseg>
  </trk>
  <trk>
    <name><![CDATA[toutes les traces autour de st mayme de pereyrol_24]]></name>
    <trkseg>
      <trkpt lat="45.06305" lon="0.60319">
        <ele>116.3</ele>
      </trkpt>
      <trkpt lat="45.06342" lon="0.60398">
        <ele>117.4</ele>
      </trkpt>
      <trkpt lat="45.06342" lon="0.60499">
        <ele>123.8</ele>
      </trkpt>
      <trkpt lat="45.06365" lon="0.60636">
        <ele>137.4</ele>
      </trkpt>
      <trkpt lat="45.06331" lon="0.60842">
        <ele>153.8</ele>
      </trkpt>
      <trkpt lat="45.06331" lon="0.60927">
        <ele>154.4</ele>
      </trkpt>
      <trkpt lat="45.06331" lon="0.61112">
        <ele>160.8</ele>
      </trkpt>
      <trkpt lat="45.0641" lon="0.61254">
        <ele>186.9</ele>
      </trkpt>
      <trkpt lat="45.06443" lon="0.61355">
        <ele>203.4</ele>
      </trkpt>
      <trkpt lat="45.06518" lon="0.61497">
        <ele>215.2</ele>
      </trkpt>
      <trkpt lat="45.06537" lon="0.61661">
        <ele>214.3</ele>
      </trkpt>
      <trkpt lat="45.06533" lon="0.61719">
        <ele>210.7</ele>
      </trkpt>
      <trkpt lat="45.066" lon="0.61862">
        <ele>193.1</ele>
      </trkpt>
      <trkpt lat="45.06675" lon="0.61962">
        <ele>179.1</ele>
      </trkpt>
      <trkpt lat="45.06723" lon="0.62015">
        <ele>176.4</ele>
      </trkpt>
      <trkpt lat="45.06749" lon="0.621">
        <ele>169.9</ele>
      </trkpt>
      <trkpt lat="45.06727" lon="0.62142">
        <ele>166</ele>
      </trkpt>
    </trkseg>
  </trk>
  <trk>
    <name><![CDATA[toutes les traces autour de st mayme de pereyrol_25]]></name>
    <trkseg>
      <trkpt lat="45.08762" lon="0.63352">
        <ele>116.7</ele>
      </trkpt>
      <trkpt lat="45.08868" lon="0.63372">
        <ele>121.9</ele>
      </trkpt>
      <trkpt lat="45.08854" lon="0.63651">
        <ele>123.9</ele>
      </trkpt>
      <trkpt lat="45.08909" lon="0.63645">
        <ele>128.9</ele>
      </trkpt>
      <trkpt lat="45.08987" lon="0.63599">
        <ele>146.9</ele>
      </trkpt>
    </trkseg>
  </trk>
  <trk>
    <name><![CDATA[toutes les traces autour de st mayme de pereyrol_26]]></name>
    <trkseg>
      <trkpt lat="45.0941" lon="0.64572">
        <ele>212.1</ele>
      </trkpt>
      <trkpt lat="45.0941" lon="0.64572">
        <ele>212.1</ele>
      </trkpt>
      <trkpt lat="45.0941" lon="0.64612">
        <ele>211.1</ele>
      </trkpt>
      <trkpt lat="45.09425" lon="0.64648">
        <ele>209.9</ele>
      </trkpt>
      <trkpt lat="45.09396" lon="0.647">
        <ele>210.2</ele>
      </trkpt>
      <trkpt lat="45.09393" lon="0.64744">
        <ele>210.4</ele>
      </trkpt>
      <trkpt lat="45.09382" lon="0.64828">
        <ele>212.5</ele>
      </trkpt>
      <trkpt lat="45.09382" lon="0.64888">
        <ele>212.3</ele>
      </trkpt>
      <trkpt lat="45.09393" lon="0.64948">
        <ele>212.1</ele>
      </trkpt>
      <trkpt lat="45.09413" lon="0.64992">
        <ele>210.8</ele>
      </trkpt>
      <trkpt lat="45.09436" lon="0.65036">
        <ele>208.5</ele>
      </trkpt>
      <trkpt lat="45.09459" lon="0.65068">
        <ele>208.1</ele>
      </trkpt>
      <trkpt lat="45.09487" lon="0.65141">
        <ele>210.1</ele>
      </trkpt>
    </trkseg>
  </trk>
  <trk>
    <name><![CDATA[toutes les traces autour de st mayme de pereyrol_27]]></name>
    <trkseg>
      <trkpt lat="45.08495" lon="0.66769">
        <ele>171.7</ele>
        <time>2019-04-18T13:58:29Z</time>
      </trkpt>
      <trkpt lat="45.08495" lon="0.66769">
        <ele>171.7</ele>
        <time>2019-04-18T13:58:29Z</time>
      </trkpt>
      <trkpt lat="45.08506" lon="0.66758">
        <ele>173.17</ele>
        <time>2019-04-18T13:58:48Z</time>
      </trkpt>
      <trkpt lat="45.08517" lon="0.66741">
        <ele>172.69</ele>
        <time>2019-04-18T13:59:06Z</time>
      </trkpt>
      <trkpt lat="45.08528" lon="0.66727">
        <ele>172.21</ele>
        <time>2019-04-18T13:59:24Z</time>
      </trkpt>
      <trkpt lat="45.08539" lon="0.66716">
        <ele>172.21</ele>
        <time>2019-04-18T13:59:36Z</time>
      </trkpt>
      <trkpt lat="45.0855" lon="0.66694">
        <ele>171.25</ele>
        <time>2019-04-18T13:59:51Z</time>
      </trkpt>
      <trkpt lat="45.0856" lon="0.6668">
        <ele>170.77</ele>
        <time>2019-04-18T14:00:06Z</time>
      </trkpt>
      <trkpt lat="45.0857" lon="0.66667">
        <ele>170.29</ele>
        <time>2019-04-18T14:00:20Z</time>
      </trkpt>
      <trkpt lat="45.08588" lon="0.66655">
        <ele>167.89</ele>
        <time>2019-04-18T14:00:42Z</time>
      </trkpt>
      <trkpt lat="45.08597" lon="0.6665">
        <ele>165.96</ele>
        <time>2019-04-18T14:01:02Z</time>
      </trkpt>
      <trkpt lat="45.08612" lon="0.66636">
        <ele>164.52</ele>
        <time>2019-04-18T14:01:18Z</time>
      </trkpt>
      <trkpt lat="45.08613" lon="0.66632">
        <ele>163.56</ele>
        <time>2019-04-18T14:01:39Z</time>
      </trkpt>
      <trkpt lat="45.0862" lon="0.66623">
        <ele>163.56</ele>
        <time>2019-04-18T14:02:01Z</time>
      </trkpt>
      <trkpt lat="45.08624" lon="0.66618">
        <ele>163.08</ele>
        <time>2019-04-18T14:02:07Z</time>
      </trkpt>
      <trkpt lat="45.08631" lon="0.66608">
        <ele>162.6</ele>
        <time>2019-04-18T14:02:18Z</time>
      </trkpt>
      <trkpt lat="45.08639" lon="0.66601">
        <ele>162.12</ele>
        <time>2019-04-18T14:02:27Z</time>
      </trkpt>
      <trkpt lat="45.08648" lon="0.66594">
        <ele>162.12</ele>
        <time>2019-04-18T14:02:37Z</time>
      </trkpt>
      <trkpt lat="45.08662" lon="0.66582">
        <ele>161.64</ele>
        <time>2019-04-18T14:02:52Z</time>
      </trkpt>
      <trkpt lat="45.08673" lon="0.66565">
        <ele>161.64</ele>
        <time>2019-04-18T14:03:08Z</time>
      </trkpt>
      <trkpt lat="45.08674" lon="0.66564">
        <ele>161.16</ele>
        <time>2019-04-18T14:03:09Z</time>
      </trkpt>
      <trkpt lat="45.08677" lon="0.66558">
        <ele>161.16</ele>
        <time>2019-04-18T14:03:14Z</time>
      </trkpt>
      <trkpt lat="45.08686" lon="0.66538">
        <ele>160.2</ele>
        <time>2019-04-18T14:03:29Z</time>
      </trkpt>
      <trkpt lat="45.08686" lon="0.66537">
        <ele>159.72</ele>
        <time>2019-04-18T14:03:30Z</time>
      </trkpt>
      <trkpt lat="45.08699" lon="0.66512">
        <ele>158.75</ele>
        <time>2019-04-18T14:03:48Z</time>
      </trkpt>
      <trkpt lat="45.0871" lon="0.66495">
        <ele>156.83</ele>
        <time>2019-04-18T14:04:04Z</time>
      </trkpt>
      <trkpt lat="45.08716" lon="0.66489">
        <ele>156.35</ele>
        <time>2019-04-18T14:04:10Z</time>
      </trkpt>
      <trkpt lat="45.08717" lon="0.66488">
        <ele>156.35</ele>
        <time>2019-04-18T14:04:11Z</time>
      </trkpt>
      <trkpt lat="45.08718" lon="0.66486">
        <ele>155.87</ele>
        <time>2019-04-18T14:04:13Z</time>
      </trkpt>
      <trkpt lat="45.08733" lon="0.66473">
        <ele>154.43</ele>
        <time>2019-04-18T14:04:29Z</time>
      </trkpt>
      <trkpt lat="45.08735" lon="0.66472">
        <ele>154.43</ele>
        <time>2019-04-18T14:04:31Z</time>
      </trkpt>
      <trkpt lat="45.08736" lon="0.66472">
        <ele>154.43</ele>
        <time>2019-04-18T14:04:32Z</time>
      </trkpt>
      <trkpt lat="45.08738" lon="0.66471">
        <ele>154.43</ele>
        <time>2019-04-18T14:04:33Z</time>
      </trkpt>
      <trkpt lat="45.08739" lon="0.66471">
        <ele>154.43</ele>
        <time>2019-04-18T14:04:34Z</time>
      </trkpt>
      <trkpt lat="45.08741" lon="0.6647">
        <ele>154.43</ele>
        <time>2019-04-18T14:04:35Z</time>
      </trkpt>
      <trkpt lat="45.08742" lon="0.6647">
        <ele>154.43</ele>
        <time>2019-04-18T14:04:36Z</time>
      </trkpt>
      <trkpt lat="45.08758" lon="0.66468">
        <ele>154.43</ele>
        <time>2019-04-18T14:04:49Z</time>
      </trkpt>
      <trkpt lat="45.08772" lon="0.66466">
        <ele>154.43</ele>
        <time>2019-04-18T14:05:06Z</time>
      </trkpt>
      <trkpt lat="45.08787" lon="0.66464">
        <ele>154.43</ele>
        <time>2019-04-18T14:05:23Z</time>
      </trkpt>
      <trkpt lat="45.08798" lon="0.66466">
        <ele>154.43</ele>
        <time>2019-04-18T14:05:32Z</time>
      </trkpt>
      <trkpt lat="45.088" lon="0.66467">
        <ele>154.43</ele>
        <time>2019-04-18T14:05:33Z</time>
      </trkpt>
      <trkpt lat="45.08815" lon="0.66472">
        <ele>154.91</ele>
        <time>2019-04-18T14:05:47Z</time>
      </trkpt>
      <trkpt lat="45.08826" lon="0.66478">
        <ele>154.91</ele>
        <time>2019-04-18T14:05:58Z</time>
      </trkpt>
      <trkpt lat="45.0883" lon="0.66479">
        <ele>155.39</ele>
        <time>2019-04-18T14:06:01Z</time>
      </trkpt>
      <trkpt lat="45.08831" lon="0.6648">
        <ele>155.39</ele>
        <time>2019-04-18T14:06:02Z</time>
      </trkpt>
      <trkpt lat="45.08849" lon="0.66493">
        <ele>155.87</ele>
        <time>2019-04-18T14:06:19Z</time>
      </trkpt>
      <trkpt lat="45.08867" lon="0.66511">
        <ele>157.31</ele>
        <time>2019-04-18T14:06:41Z</time>
      </trkpt>
      <trkpt lat="45.08871" lon="0.66516">
        <ele>157.79</ele>
        <time>2019-04-18T14:06:58Z</time>
      </trkpt>
      <trkpt lat="45.08878" lon="0.66535">
        <ele>159.72</ele>
        <time>2019-04-18T14:07:16Z</time>
      </trkpt>
      <trkpt lat="45.08885" lon="0.66542">
        <ele>160.68</ele>
        <time>2019-04-18T14:07:25Z</time>
      </trkpt>
      <trkpt lat="45.08885" lon="0.66544">
        <ele>161.16</ele>
        <time>2019-04-18T14:07:46Z</time>
      </trkpt>
      <trkpt lat="45.08882" lon="0.66544">
        <ele>161.16</ele>
        <time>2019-04-18T14:08:15Z</time>
      </trkpt>
      <trkpt lat="45.08885" lon="0.66544">
        <ele>161.16</ele>
        <time>2019-04-18T14:08:28Z</time>
      </trkpt>
      <trkpt lat="45.08886" lon="0.66546">
        <ele>161.16</ele>
        <time>2019-04-18T14:08:29Z</time>
      </trkpt>
      <trkpt lat="45.08894" lon="0.66559">
        <ele>162.12</ele>
        <time>2019-04-18T14:08:39Z</time>
      </trkpt>
      <trkpt lat="45.08903" lon="0.66581">
        <ele>162.6</ele>
        <time>2019-04-18T14:08:55Z</time>
      </trkpt>
      <trkpt lat="45.08913" lon="0.666">
        <ele>163.56</ele>
        <time>2019-04-18T14:09:13Z</time>
      </trkpt>
      <trkpt lat="45.08922" lon="0.66619">
        <ele>165</ele>
        <time>2019-04-18T14:09:30Z</time>
      </trkpt>
      <trkpt lat="45.08928" lon="0.66639">
        <ele>165.48</ele>
        <time>2019-04-18T14:09:43Z</time>
      </trkpt>
      <trkpt lat="45.08935" lon="0.66656">
        <ele>165.96</ele>
        <time>2019-04-18T14:09:59Z</time>
      </trkpt>
      <trkpt lat="45.08945" lon="0.66677">
        <ele>166.45</ele>
        <time>2019-04-18T14:10:17Z</time>
      </trkpt>
      <trkpt lat="45.08954" lon="0.66698">
        <ele>167.41</ele>
        <time>2019-04-18T14:10:31Z</time>
      </trkpt>
      <trkpt lat="45.08961" lon="0.66723">
        <ele>168.37</ele>
        <time>2019-04-18T14:10:51Z</time>
      </trkpt>
      <trkpt lat="45.08972" lon="0.66747">
        <ele>169.33</ele>
        <time>2019-04-18T14:11:09Z</time>
      </trkpt>
      <trkpt lat="45.08978" lon="0.66766">
        <ele>170.29</ele>
        <time>2019-04-18T14:11:26Z</time>
      </trkpt>
      <trkpt lat="45.08981" lon="0.66778">
        <ele>170.29</ele>
        <time>2019-04-18T14:11:34Z</time>
      </trkpt>
      <trkpt lat="45.08987" lon="0.668">
        <ele>170.29</ele>
        <time>2019-04-18T14:11:48Z</time>
      </trkpt>
      <trkpt lat="45.0899" lon="0.6682">
        <ele>169.81</ele>
        <time>2019-04-18T14:12:04Z</time>
      </trkpt>
      <trkpt lat="45.08994" lon="0.66843">
        <ele>169.81</ele>
        <time>2019-04-18T14:12:21Z</time>
      </trkpt>
      <trkpt lat="45.08995" lon="0.66865">
        <ele>169.81</ele>
        <time>2019-04-18T14:12:35Z</time>
      </trkpt>
      <trkpt lat="45.08995" lon="0.66885">
        <ele>169.81</ele>
        <time>2019-04-18T14:12:51Z</time>
      </trkpt>
      <trkpt lat="45.08993" lon="0.66898">
        <ele>170.29</ele>
        <time>2019-04-18T14:13:03Z</time>
      </trkpt>
      <trkpt lat="45.08993" lon="0.66918">
        <ele>170.29</ele>
        <time>2019-04-18T14:13:19Z</time>
      </trkpt>
      <trkpt lat="45.08994" lon="0.66927">
        <ele>170.29</ele>
        <time>2019-04-18T14:13:34Z</time>
      </trkpt>
      <trkpt lat="45.08993" lon="0.66936">
        <ele>170.29</ele>
        <time>2019-04-18T14:13:39Z</time>
      </trkpt>
      <trkpt lat="45.08991" lon="0.66961">
        <ele>171.25</ele>
        <time>2019-04-18T14:13:58Z</time>
      </trkpt>
      <trkpt lat="45.08991" lon="0.66979">
        <ele>171.73</ele>
        <time>2019-04-18T14:14:15Z</time>
      </trkpt>
      <trkpt lat="45.08989" lon="0.66996">
        <ele>172.21</ele>
        <time>2019-04-18T14:14:29Z</time>
      </trkpt>
      <trkpt lat="45.08988" lon="0.67022">
        <ele>173.17</ele>
        <time>2019-04-18T14:14:47Z</time>
      </trkpt>
      <trkpt lat="45.08989" lon="0.67043">
        <ele>173.17</ele>
        <time>2019-04-18T14:15:02Z</time>
      </trkpt>
      <trkpt lat="45.08989" lon="0.67059">
        <ele>173.66</ele>
        <time>2019-04-18T14:15:16Z</time>
      </trkpt>
      <trkpt lat="45.08988" lon="0.6707">
        <ele>174.62</ele>
        <time>2019-04-18T14:15:32Z</time>
      </trkpt>
      <trkpt lat="45.08988" lon="0.67075">
        <ele>174.62</ele>
        <time>2019-04-18T14:15:54Z</time>
      </trkpt>
      <trkpt lat="45.08989" lon="0.67081">
        <ele>175.1</ele>
        <time>2019-04-18T14:16:28Z</time>
      </trkpt>
      <trkpt lat="45.08985" lon="0.6708">
        <ele>175.1</ele>
        <time>2019-04-18T14:16:49Z</time>
      </trkpt>
      <trkpt lat="45.08983" lon="0.67081">
        <ele>175.1</ele>
        <time>2019-04-18T14:17:19Z</time>
      </trkpt>
      <trkpt lat="45.08981" lon="0.6708">
        <ele>175.1</ele>
        <time>2019-04-18T14:17:50Z</time>
      </trkpt>
      <trkpt lat="45.08981" lon="0.6708">
        <ele>175.1</ele>
        <time>2019-04-18T14:18:16Z</time>
      </trkpt>
      <trkpt lat="45.0898" lon="0.67078">
        <ele>175.1</ele>
        <time>2019-04-18T14:18:45Z</time>
      </trkpt>
      <trkpt lat="45.08982" lon="0.67077">
        <ele>175.1</ele>
        <time>2019-04-18T14:19:15Z</time>
      </trkpt>
      <trkpt lat="45.08983" lon="0.67083">
        <ele>175.1</ele>
        <time>2019-04-18T14:19:40Z</time>
      </trkpt>
      <trkpt lat="45.08984" lon="0.67102">
        <ele>175.1</ele>
        <time>2019-04-18T14:19:57Z</time>
      </trkpt>
      <trkpt lat="45.08988" lon="0.67124">
        <ele>175.1</ele>
        <time>2019-04-18T14:20:15Z</time>
      </trkpt>
      <trkpt lat="45.08996" lon="0.6715">
        <ele>175.1</ele>
        <time>2019-04-18T14:20:33Z</time>
      </trkpt>
      <trkpt lat="45.08998" lon="0.67158">
        <ele>175.1</ele>
        <time>2019-04-18T14:20:39Z</time>
      </trkpt>
      <trkpt lat="45.09" lon="0.67165">
        <ele>175.58</ele>
        <time>2019-04-18T14:20:43Z</time>
      </trkpt>
      <trkpt lat="45.09001" lon="0.67171">
        <ele>177.98</ele>
        <time>2019-04-18T14:20:47Z</time>
      </trkpt>
      <trkpt lat="45.09014" lon="0.67201">
        <ele>177.98</ele>
        <time>2019-04-18T14:21:08Z</time>
      </trkpt>
      <trkpt lat="45.09027" lon="0.67221">
        <ele>177.98</ele>
        <time>2019-04-18T14:21:26Z</time>
      </trkpt>
      <trkpt lat="45.09038" lon="0.67249">
        <ele>178.46</ele>
        <time>2019-04-18T14:21:50Z</time>
      </trkpt>
      <trkpt lat="45.09048" lon="0.67271">
        <ele>178.94</ele>
        <time>2019-04-18T14:22:08Z</time>
      </trkpt>
      <trkpt lat="45.09055" lon="0.67292">
        <ele>179.42</ele>
        <time>2019-04-18T14:22:23Z</time>
      </trkpt>
      <trkpt lat="45.0906" lon="0.67311">
        <ele>179.9</ele>
        <time>2019-04-18T14:22:38Z</time>
      </trkpt>
      <trkpt lat="45.09063" lon="0.67331">
        <ele>180.38</ele>
        <time>2019-04-18T14:22:53Z</time>
      </trkpt>
      <trkpt lat="45.09067" lon="0.67356">
        <ele>180.38</ele>
        <time>2019-04-18T14:23:10Z</time>
      </trkpt>
      <trkpt lat="45.0907" lon="0.67371">
        <ele>180.87</ele>
        <time>2019-04-18T14:23:22Z</time>
      </trkpt>
      <trkpt lat="45.09077" lon="0.67387">
        <ele>181.35</ele>
        <time>2019-04-18T14:23:36Z</time>
      </trkpt>
      <trkpt lat="45.09085" lon="0.67394">
        <ele>181.83</ele>
        <time>2019-04-18T14:23:49Z</time>
      </trkpt>
      <trkpt lat="45.09095" lon="0.67391">
        <ele>182.31</ele>
        <time>2019-04-18T14:24:04Z</time>
      </trkpt>
      <trkpt lat="45.09106" lon="0.67386">
        <ele>183.75</ele>
        <time>2019-04-18T14:24:20Z</time>
      </trkpt>
      <trkpt lat="45.09121" lon="0.67383">
        <ele>185.67</ele>
        <time>2019-04-18T14:24:37Z</time>
      </trkpt>
      <trkpt lat="45.0913" lon="0.67383">
        <ele>187.59</ele>
        <time>2019-04-18T14:24:52Z</time>
      </trkpt>
      <trkpt lat="45.09142" lon="0.67391">
        <ele>190</ele>
        <time>2019-04-18T14:25:07Z</time>
      </trkpt>
      <trkpt lat="45.09152" lon="0.67403">
        <ele>192.4</ele>
        <time>2019-04-18T14:25:23Z</time>
      </trkpt>
      <trkpt lat="45.09159" lon="0.67416">
        <ele>194.8</ele>
        <time>2019-04-18T14:25:38Z</time>
      </trkpt>
      <trkpt lat="45.09164" lon="0.67426">
        <ele>197.21</ele>
        <time>2019-04-18T14:25:51Z</time>
      </trkpt>
      <trkpt lat="45.09169" lon="0.67441">
        <ele>199.61</ele>
        <time>2019-04-18T14:26:08Z</time>
      </trkpt>
      <trkpt lat="45.09171" lon="0.67452">
        <ele>201.53</ele>
        <time>2019-04-18T14:26:21Z</time>
      </trkpt>
      <trkpt lat="45.09175" lon="0.67466">
        <ele>204.42</ele>
        <time>2019-04-18T14:26:37Z</time>
      </trkpt>
      <trkpt lat="45.09179" lon="0.67481">
        <ele>206.82</ele>
        <time>2019-04-18T14:26:54Z</time>
      </trkpt>
      <trkpt lat="45.09179" lon="0.67496">
        <ele>209.22</ele>
        <time>2019-04-18T14:27:09Z</time>
      </trkpt>
      <trkpt lat="45.09176" lon="0.67513">
        <ele>212.59</ele>
        <time>2019-04-18T14:27:27Z</time>
      </trkpt>
      <trkpt lat="45.09172" lon="0.67529">
        <ele>214.99</ele>
        <time>2019-04-18T14:27:44Z</time>
      </trkpt>
      <trkpt lat="45.09164" lon="0.67545">
        <ele>217.4</ele>
        <time>2019-04-18T14:28:02Z</time>
      </trkpt>
      <trkpt lat="45.09161" lon="0.67562">
        <ele>219.8</ele>
        <time>2019-04-18T14:28:18Z</time>
      </trkpt>
      <trkpt lat="45.09157" lon="0.67587">
        <ele>222.2</ele>
        <time>2019-04-18T14:28:35Z</time>
      </trkpt>
      <trkpt lat="45.09154" lon="0.67606">
        <ele>224.61</ele>
        <time>2019-04-18T14:28:52Z</time>
      </trkpt>
      <trkpt lat="45.09153" lon="0.67606">
        <ele>225.09</ele>
        <time>2019-04-18T14:29:18Z</time>
      </trkpt>
      <trkpt lat="45.09154" lon="0.67606">
        <ele>225.09</ele>
        <time>2019-04-18T14:29:47Z</time>
      </trkpt>
      <trkpt lat="45.09153" lon="0.67605">
        <ele>225.09</ele>
        <time>2019-04-18T14:30:10Z</time>
      </trkpt>
      <trkpt lat="45.09152" lon="0.6761">
        <ele>225.09</ele>
        <time>2019-04-18T14:30:40Z</time>
      </trkpt>
      <trkpt lat="45.09151" lon="0.6763">
        <ele>226.53</ele>
        <time>2019-04-18T14:30:56Z</time>
      </trkpt>
      <trkpt lat="45.0915" lon="0.67633">
        <ele>227.01</ele>
        <time>2019-04-18T14:30:58Z</time>
      </trkpt>
      <trkpt lat="45.09151" lon="0.67655">
        <ele>228.45</ele>
        <time>2019-04-18T14:31:17Z</time>
      </trkpt>
      <trkpt lat="45.09151" lon="0.6768">
        <ele>228.93</ele>
        <time>2019-04-18T14:31:36Z</time>
      </trkpt>
      <trkpt lat="45.09154" lon="0.67687">
        <ele>229.41</ele>
        <time>2019-04-18T14:31:51Z</time>
      </trkpt>
      <trkpt lat="45.09158" lon="0.67686">
        <ele>229.41</ele>
        <time>2019-04-18T14:32:05Z</time>
      </trkpt>
      <trkpt lat="45.0916" lon="0.67686">
        <ele>229.41</ele>
        <time>2019-04-18T14:32:07Z</time>
      </trkpt>
      <trkpt lat="45.0917" lon="0.67689">
        <ele>230.37</ele>
        <time>2019-04-18T14:32:25Z</time>
      </trkpt>
      <trkpt lat="45.09174" lon="0.67696">
        <ele>230.85</ele>
        <time>2019-04-18T14:32:33Z</time>
      </trkpt>
      <trkpt lat="45.09189" lon="0.67717">
        <ele>231.33</ele>
        <time>2019-04-18T14:32:54Z</time>
      </trkpt>
      <trkpt lat="45.09203" lon="0.67719">
        <ele>232.3</ele>
        <time>2019-04-18T14:33:11Z</time>
      </trkpt>
      <trkpt lat="45.09203" lon="0.6772">
        <ele>232.3</ele>
        <time>2019-04-18T14:33:12Z</time>
      </trkpt>
      <trkpt lat="45.09204" lon="0.67721">
        <ele>232.3</ele>
        <time>2019-04-18T14:33:13Z</time>
      </trkpt>
      <trkpt lat="45.09205" lon="0.67722">
        <ele>232.3</ele>
        <time>2019-04-18T14:33:14Z</time>
      </trkpt>
      <trkpt lat="45.09206" lon="0.67723">
        <ele>232.3</ele>
        <time>2019-04-18T14:33:15Z</time>
      </trkpt>
      <trkpt lat="45.09206" lon="0.67725">
        <ele>232.3</ele>
        <time>2019-04-18T14:33:16Z</time>
      </trkpt>
      <trkpt lat="45.09215" lon="0.67738">
        <ele>232.3</ele>
        <time>2019-04-18T14:33:36Z</time>
      </trkpt>
      <trkpt lat="45.09215" lon="0.67737">
        <ele>231.81</ele>
        <time>2019-04-18T14:33:57Z</time>
      </trkpt>
      <trkpt lat="45.09218" lon="0.67739">
        <ele>231.81</ele>
        <time>2019-04-18T14:34:14Z</time>
      </trkpt>
      <trkpt lat="45.09218" lon="0.67743">
        <ele>231.81</ele>
        <time>2019-04-18T14:34:27Z</time>
      </trkpt>
      <trkpt lat="45.09219" lon="0.67747">
        <ele>231.81</ele>
        <time>2019-04-18T14:34:33Z</time>
      </trkpt>
      <trkpt lat="45.09204" lon="0.67688">
        <ele>227.97</ele>
        <time>2019-04-18T11:40:58Z</time>
      </trkpt>
      <trkpt lat="45.09204" lon="0.67688">
        <ele>227.97</ele>
        <time>2019-04-18T11:40:58Z</time>
      </trkpt>
      <trkpt lat="45.09227" lon="0.67681">
        <ele>227.97</ele>
        <time>2019-04-18T11:41:09Z</time>
      </trkpt>
      <trkpt lat="45.09233" lon="0.6768">
        <ele>227.49</ele>
        <time>2019-04-18T11:41:11Z</time>
      </trkpt>
      <trkpt lat="45.09235" lon="0.6768">
        <ele>227.49</ele>
        <time>2019-04-18T11:41:12Z</time>
      </trkpt>
      <trkpt lat="45.09239" lon="0.67679">
        <ele>227.49</ele>
        <time>2019-04-18T11:41:14Z</time>
      </trkpt>
      <trkpt lat="45.09241" lon="0.67679">
        <ele>227.49</ele>
        <time>2019-04-18T11:41:15Z</time>
      </trkpt>
      <trkpt lat="45.09242" lon="0.67679">
        <ele>227.49</ele>
        <time>2019-04-18T11:41:16Z</time>
      </trkpt>
      <trkpt lat="45.09244" lon="0.67679">
        <ele>227.49</ele>
        <time>2019-04-18T11:41:17Z</time>
      </trkpt>
      <trkpt lat="45.09245" lon="0.67679">
        <ele>227.01</ele>
        <time>2019-04-18T11:41:18Z</time>
      </trkpt>
      <trkpt lat="45.09268" lon="0.67674">
        <ele>226.05</ele>
        <time>2019-04-18T11:41:38Z</time>
      </trkpt>
      <trkpt lat="45.09299" lon="0.67664">
        <ele>225.09</ele>
        <time>2019-04-18T11:42:02Z</time>
      </trkpt>
      <trkpt lat="45.09298" lon="0.67654">
        <ele>224.61</ele>
        <time>2019-04-18T11:42:23Z</time>
      </trkpt>
      <trkpt lat="45.09317" lon="0.67649">
        <ele>225.09</ele>
        <time>2019-04-18T11:42:41Z</time>
      </trkpt>
      <trkpt lat="45.09335" lon="0.67643">
        <ele>226.05</ele>
        <time>2019-04-18T11:43:00Z</time>
      </trkpt>
      <trkpt lat="45.09358" lon="0.67637">
        <ele>228.45</ele>
        <time>2019-04-18T11:43:22Z</time>
      </trkpt>
      <trkpt lat="45.0938" lon="0.67632">
        <ele>230.37</ele>
        <time>2019-04-18T11:43:44Z</time>
      </trkpt>
      <trkpt lat="45.094" lon="0.67628">
        <ele>232.3</ele>
        <time>2019-04-18T11:44:04Z</time>
      </trkpt>
      <trkpt lat="45.09418" lon="0.67626">
        <ele>234.22</ele>
        <time>2019-04-18T11:44:23Z</time>
      </trkpt>
      <trkpt lat="45.09426" lon="0.67624">
        <ele>235.18</ele>
        <time>2019-04-18T11:44:37Z</time>
      </trkpt>
      <trkpt lat="45.09426" lon="0.67624">
        <ele>235.18</ele>
        <time>2019-04-18T11:44:59Z</time>
      </trkpt>
      <trkpt lat="45.0943" lon="0.67621">
        <ele>235.18</ele>
        <time>2019-04-18T11:45:15Z</time>
      </trkpt>
      <trkpt lat="45.09444" lon="0.6762">
        <ele>235.66</ele>
        <time>2019-04-18T11:45:32Z</time>
      </trkpt>
      <trkpt lat="45.09461" lon="0.67619">
        <ele>236.62</ele>
        <time>2019-04-18T11:45:50Z</time>
      </trkpt>
      <trkpt lat="45.09469" lon="0.67616">
        <ele>237.1</ele>
        <time>2019-04-18T11:45:59Z</time>
      </trkpt>
      <trkpt lat="45.09487" lon="0.67604">
        <ele>237.58</ele>
        <time>2019-04-18T11:46:19Z</time>
      </trkpt>
      <trkpt lat="45.09505" lon="0.67591">
        <ele>237.58</ele>
        <time>2019-04-18T11:46:39Z</time>
      </trkpt>
      <trkpt lat="45.0952" lon="0.67581">
        <ele>237.58</ele>
        <time>2019-04-18T11:46:57Z</time>
      </trkpt>
      <trkpt lat="45.09533" lon="0.67569">
        <ele>237.58</ele>
        <time>2019-04-18T11:47:11Z</time>
      </trkpt>
      <trkpt lat="45.09535" lon="0.67569">
        <ele>237.58</ele>
        <time>2019-04-18T11:47:12Z</time>
      </trkpt>
      <trkpt lat="45.09551" lon="0.67557">
        <ele>236.62</ele>
        <time>2019-04-18T11:47:30Z</time>
      </trkpt>
      <trkpt lat="45.0957" lon="0.67542">
        <ele>236.14</ele>
        <time>2019-04-18T11:47:50Z</time>
      </trkpt>
      <trkpt lat="45.09593" lon="0.67525">
        <ele>235.18</ele>
        <time>2019-04-18T11:48:13Z</time>
      </trkpt>
      <trkpt lat="45.09616" lon="0.67506">
        <ele>234.7</ele>
        <time>2019-04-18T11:48:38Z</time>
      </trkpt>
      <trkpt lat="45.09638" lon="0.6749">
        <ele>235.18</ele>
        <time>2019-04-18T11:49:01Z</time>
      </trkpt>
      <trkpt lat="45.09657" lon="0.67471">
        <ele>236.14</ele>
        <time>2019-04-18T11:49:25Z</time>
      </trkpt>
      <trkpt lat="45.09656" lon="0.67465">
        <ele>236.62</ele>
        <time>2019-04-18T11:49:31Z</time>
      </trkpt>
      <trkpt lat="45.09649" lon="0.67455">
        <ele>237.1</ele>
        <time>2019-04-18T11:49:41Z</time>
      </trkpt>
      <trkpt lat="45.0964" lon="0.67438">
        <ele>237.58</ele>
        <time>2019-04-18T11:49:56Z</time>
      </trkpt>
      <trkpt lat="45.0963" lon="0.67418">
        <ele>238.06</ele>
        <time>2019-04-18T11:50:12Z</time>
      </trkpt>
      <trkpt lat="45.0962" lon="0.67395">
        <ele>238.06</ele>
        <time>2019-04-18T11:50:29Z</time>
      </trkpt>
      <trkpt lat="45.0961" lon="0.67378">
        <ele>238.54</ele>
        <time>2019-04-18T11:50:46Z</time>
      </trkpt>
      <trkpt lat="45.09597" lon="0.6736">
        <ele>238.54</ele>
        <time>2019-04-18T11:51:05Z</time>
      </trkpt>
      <trkpt lat="45.09595" lon="0.67346">
        <ele>237.58</ele>
        <time>2019-04-18T11:51:21Z</time>
      </trkpt>
      <trkpt lat="45.09587" lon="0.6733">
        <ele>236.62</ele>
        <time>2019-04-18T11:51:37Z</time>
      </trkpt>
      <trkpt lat="45.09586" lon="0.67328">
        <ele>236.62</ele>
        <time>2019-04-18T11:51:39Z</time>
      </trkpt>
      <trkpt lat="45.09577" lon="0.67313">
        <ele>235.66</ele>
        <time>2019-04-18T11:51:53Z</time>
      </trkpt>
      <trkpt lat="45.09566" lon="0.67289">
        <ele>234.22</ele>
        <time>2019-04-18T11:52:12Z</time>
      </trkpt>
      <trkpt lat="45.09559" lon="0.67268">
        <ele>232.78</ele>
        <time>2019-04-18T11:52:29Z</time>
      </trkpt>
      <trkpt lat="45.09551" lon="0.67248">
        <ele>230.85</ele>
        <time>2019-04-18T11:52:46Z</time>
      </trkpt>
      <trkpt lat="45.09541" lon="0.67227">
        <ele>228.93</ele>
        <time>2019-04-18T11:53:04Z</time>
      </trkpt>
      <trkpt lat="45.0953" lon="0.67205">
        <ele>227.97</ele>
        <time>2019-04-18T11:53:21Z</time>
      </trkpt>
      <trkpt lat="45.0952" lon="0.67182">
        <ele>227.49</ele>
        <time>2019-04-18T11:53:40Z</time>
      </trkpt>
      <trkpt lat="45.09512" lon="0.67155">
        <ele>227.49</ele>
        <time>2019-04-18T11:54:01Z</time>
      </trkpt>
      <trkpt lat="45.09505" lon="0.67137">
        <ele>227.49</ele>
        <time>2019-04-18T11:54:17Z</time>
      </trkpt>
      <trkpt lat="45.09495" lon="0.67112">
        <ele>228.45</ele>
        <time>2019-04-18T11:54:35Z</time>
      </trkpt>
      <trkpt lat="45.09487" lon="0.6709">
        <ele>228.93</ele>
        <time>2019-04-18T11:54:53Z</time>
      </trkpt>
      <trkpt lat="45.0949" lon="0.6707">
        <ele>228.45</ele>
        <time>2019-04-18T11:55:10Z</time>
      </trkpt>
      <trkpt lat="45.09491" lon="0.67059">
        <ele>227.97</ele>
        <time>2019-04-18T11:55:18Z</time>
      </trkpt>
      <trkpt lat="45.09496" lon="0.67035">
        <ele>227.49</ele>
        <time>2019-04-18T11:55:34Z</time>
      </trkpt>
      <trkpt lat="45.09499" lon="0.67015">
        <ele>227.01</ele>
        <time>2019-04-18T11:55:48Z</time>
      </trkpt>
      <trkpt lat="45.095" lon="0.66992">
        <ele>227.01</ele>
        <time>2019-04-18T11:56:04Z</time>
      </trkpt>
      <trkpt lat="45.09501" lon="0.66987">
        <ele>227.01</ele>
        <time>2019-04-18T11:56:07Z</time>
      </trkpt>
      <trkpt lat="45.09502" lon="0.66965">
        <ele>226.53</ele>
        <time>2019-04-18T11:56:23Z</time>
      </trkpt>
      <trkpt lat="45.09504" lon="0.66954">
        <ele>226.53</ele>
        <time>2019-04-18T11:56:30Z</time>
      </trkpt>
      <trkpt lat="45.09508" lon="0.66928">
        <ele>227.01</ele>
        <time>2019-04-18T11:56:47Z</time>
      </trkpt>
      <trkpt lat="45.09509" lon="0.66926">
        <ele>227.01</ele>
        <time>2019-04-18T11:56:48Z</time>
      </trkpt>
      <trkpt lat="45.0951" lon="0.66903">
        <ele>226.53</ele>
        <time>2019-04-18T11:57:05Z</time>
      </trkpt>
      <trkpt lat="45.09512" lon="0.66881">
        <ele>226.05</ele>
        <time>2019-04-18T11:57:19Z</time>
      </trkpt>
      <trkpt lat="45.09517" lon="0.66861">
        <ele>225.09</ele>
        <time>2019-04-18T11:57:34Z</time>
      </trkpt>
      <trkpt lat="45.09525" lon="0.66843">
        <ele>224.12</ele>
        <time>2019-04-18T11:57:48Z</time>
      </trkpt>
      <trkpt lat="45.09529" lon="0.66828">
        <ele>223.64</ele>
        <time>2019-04-18T11:57:59Z</time>
      </trkpt>
      <trkpt lat="45.09531" lon="0.66809">
        <ele>222.68</ele>
        <time>2019-04-18T11:58:15Z</time>
      </trkpt>
      <trkpt lat="45.09532" lon="0.66806">
        <ele>222.68</ele>
        <time>2019-04-18T11:58:17Z</time>
      </trkpt>
      <trkpt lat="45.09539" lon="0.66781">
        <ele>222.2</ele>
        <time>2019-04-18T11:58:34Z</time>
      </trkpt>
      <trkpt lat="45.09547" lon="0.66762">
        <ele>223.16</ele>
        <time>2019-04-18T11:58:49Z</time>
      </trkpt>
      <trkpt lat="45.09557" lon="0.66741">
        <ele>223.64</ele>
        <time>2019-04-18T11:59:06Z</time>
      </trkpt>
      <trkpt lat="45.09568" lon="0.66723">
        <ele>224.61</ele>
        <time>2019-04-18T11:59:22Z</time>
      </trkpt>
      <trkpt lat="45.0958" lon="0.66709">
        <ele>224.61</ele>
        <time>2019-04-18T11:59:37Z</time>
      </trkpt>
      <trkpt lat="45.09584" lon="0.66705">
        <ele>224.61</ele>
        <time>2019-04-18T11:59:53Z</time>
      </trkpt>
      <trkpt lat="45.09585" lon="0.667">
        <ele>224.61</ele>
        <time>2019-04-18T12:00:15Z</time>
      </trkpt>
      <trkpt lat="45.09586" lon="0.66698">
        <ele>224.61</ele>
        <time>2019-04-18T12:00:39Z</time>
      </trkpt>
      <trkpt lat="45.09591" lon="0.66696">
        <ele>224.61</ele>
        <time>2019-04-18T12:00:49Z</time>
      </trkpt>
      <trkpt lat="45.09595" lon="0.66689">
        <ele>224.12</ele>
        <time>2019-04-18T12:00:56Z</time>
      </trkpt>
      <trkpt lat="45.096" lon="0.66682">
        <ele>224.12</ele>
        <time>2019-04-18T12:01:03Z</time>
      </trkpt>
      <trkpt lat="45.09601" lon="0.66681">
        <ele>224.12</ele>
        <time>2019-04-18T12:01:04Z</time>
      </trkpt>
      <trkpt lat="45.09613" lon="0.66661">
        <ele>222.68</ele>
        <time>2019-04-18T12:01:22Z</time>
      </trkpt>
      <trkpt lat="45.0962" lon="0.66651">
        <ele>222.2</ele>
        <time>2019-04-18T12:01:32Z</time>
      </trkpt>
      <trkpt lat="45.09621" lon="0.6665">
        <ele>222.2</ele>
        <time>2019-04-18T12:01:33Z</time>
      </trkpt>
      <trkpt lat="45.09621" lon="0.66649">
        <ele>222.2</ele>
        <time>2019-04-18T12:01:34Z</time>
      </trkpt>
      <trkpt lat="45.09622" lon="0.66648">
        <ele>222.2</ele>
        <time>2019-04-18T12:01:35Z</time>
      </trkpt>
      <trkpt lat="45.09635" lon="0.66627">
        <ele>220.76</ele>
        <time>2019-04-18T12:01:54Z</time>
      </trkpt>
      <trkpt lat="45.0965" lon="0.66604">
        <ele>220.76</ele>
        <time>2019-04-18T12:02:16Z</time>
      </trkpt>
      <trkpt lat="45.09655" lon="0.66599">
        <ele>220.28</ele>
        <time>2019-04-18T12:02:29Z</time>
      </trkpt>
      <trkpt lat="45.09665" lon="0.66586">
        <ele>220.28</ele>
        <time>2019-04-18T12:02:43Z</time>
      </trkpt>
      <trkpt lat="45.0967" lon="0.66576">
        <ele>220.28</ele>
        <time>2019-04-18T12:02:52Z</time>
      </trkpt>
      <trkpt lat="45.0968" lon="0.66564">
        <ele>219.8</ele>
        <time>2019-04-18T12:03:04Z</time>
      </trkpt>
      <trkpt lat="45.0968" lon="0.66562">
        <ele>219.8</ele>
        <time>2019-04-18T12:03:05Z</time>
      </trkpt>
      <trkpt lat="45.09683" lon="0.66558">
        <ele>220.28</ele>
        <time>2019-04-18T12:03:09Z</time>
      </trkpt>
      <trkpt lat="45.09684" lon="0.66557">
        <ele>220.28</ele>
        <time>2019-04-18T12:03:10Z</time>
      </trkpt>
      <trkpt lat="45.09694" lon="0.66541">
        <ele>220.28</ele>
        <time>2019-04-18T12:03:24Z</time>
      </trkpt>
      <trkpt lat="45.09701" lon="0.66527">
        <ele>220.76</ele>
        <time>2019-04-18T12:03:35Z</time>
      </trkpt>
      <trkpt lat="45.09704" lon="0.66523">
        <ele>220.76</ele>
        <time>2019-04-18T12:03:38Z</time>
      </trkpt>
      <trkpt lat="45.09707" lon="0.66519">
        <ele>220.76</ele>
        <time>2019-04-18T12:03:42Z</time>
      </trkpt>
      <trkpt lat="45.0971" lon="0.66514">
        <ele>220.76</ele>
        <time>2019-04-18T12:03:46Z</time>
      </trkpt>
      <trkpt lat="45.09717" lon="0.66495">
        <ele>220.76</ele>
        <time>2019-04-18T12:04:01Z</time>
      </trkpt>
      <trkpt lat="45.09722" lon="0.66478">
        <ele>222.2</ele>
        <time>2019-04-18T12:04:15Z</time>
      </trkpt>
      <trkpt lat="45.09722" lon="0.66454">
        <ele>222.68</ele>
        <time>2019-04-18T12:04:31Z</time>
      </trkpt>
      <trkpt lat="45.09727" lon="0.66431">
        <ele>222.2</ele>
        <time>2019-04-18T12:04:47Z</time>
      </trkpt>
      <trkpt lat="45.09731" lon="0.66406">
        <ele>220.76</ele>
        <time>2019-04-18T12:05:03Z</time>
      </trkpt>
      <trkpt lat="45.09737" lon="0.66382">
        <ele>219.8</ele>
        <time>2019-04-18T12:05:19Z</time>
      </trkpt>
      <trkpt lat="45.09744" lon="0.66367">
        <ele>219.32</ele>
        <time>2019-04-18T12:05:32Z</time>
      </trkpt>
      <trkpt lat="45.09751" lon="0.66357">
        <ele>219.8</ele>
        <time>2019-04-18T12:05:40Z</time>
      </trkpt>
      <trkpt lat="45.09759" lon="0.66338">
        <ele>221.24</ele>
        <time>2019-04-18T12:05:55Z</time>
      </trkpt>
      <trkpt lat="45.09762" lon="0.66332">
        <ele>221.24</ele>
        <time>2019-04-18T12:06:00Z</time>
      </trkpt>
      <trkpt lat="45.09766" lon="0.66312">
        <ele>221.72</ele>
        <time>2019-04-18T12:06:15Z</time>
      </trkpt>
      <trkpt lat="45.09777" lon="0.66283">
        <ele>221.72</ele>
        <time>2019-04-18T12:06:37Z</time>
      </trkpt>
      <trkpt lat="45.09787" lon="0.66258">
        <ele>220.76</ele>
        <time>2019-04-18T12:06:58Z</time>
      </trkpt>
      <trkpt lat="45.09798" lon="0.66229">
        <ele>218.36</ele>
        <time>2019-04-18T12:07:20Z</time>
      </trkpt>
      <trkpt lat="45.09804" lon="0.66214">
        <ele>217.4</ele>
        <time>2019-04-18T12:07:35Z</time>
      </trkpt>
      <trkpt lat="45.09814" lon="0.66195">
        <ele>215.95</ele>
        <time>2019-04-18T12:07:52Z</time>
      </trkpt>
      <trkpt lat="45.09823" lon="0.6618">
        <ele>215.95</ele>
        <time>2019-04-18T12:08:05Z</time>
      </trkpt>
      <trkpt lat="45.09834" lon="0.66162">
        <ele>215.95</ele>
        <time>2019-04-18T12:08:21Z</time>
      </trkpt>
      <trkpt lat="45.09844" lon="0.66149">
        <ele>216.43</ele>
        <time>2019-04-18T12:08:37Z</time>
      </trkpt>
      <trkpt lat="45.09859" lon="0.66134">
        <ele>217.4</ele>
        <time>2019-04-18T12:08:55Z</time>
      </trkpt>
      <trkpt lat="45.09862" lon="0.6613">
        <ele>217.4</ele>
        <time>2019-04-18T12:08:59Z</time>
      </trkpt>
      <trkpt lat="45.09876" lon="0.66123">
        <ele>218.36</ele>
        <time>2019-04-18T12:09:14Z</time>
      </trkpt>
      <trkpt lat="45.09892" lon="0.66119">
        <ele>219.32</ele>
        <time>2019-04-18T12:09:29Z</time>
      </trkpt>
      <trkpt lat="45.09899" lon="0.66117">
        <ele>219.8</ele>
        <time>2019-04-18T12:09:38Z</time>
      </trkpt>
      <trkpt lat="45.099" lon="0.66117">
        <ele>219.8</ele>
        <time>2019-04-18T12:09:39Z</time>
      </trkpt>
      <trkpt lat="45.09919" lon="0.66111">
        <ele>219.8</ele>
        <time>2019-04-18T12:09:56Z</time>
      </trkpt>
      <trkpt lat="45.09933" lon="0.66108">
        <ele>219.8</ele>
        <time>2019-04-18T12:10:12Z</time>
      </trkpt>
      <trkpt lat="45.09949" lon="0.66103">
        <ele>219.32</ele>
        <time>2019-04-18T12:10:28Z</time>
      </trkpt>
      <trkpt lat="45.09965" lon="0.66102">
        <ele>218.84</ele>
        <time>2019-04-18T12:10:42Z</time>
      </trkpt>
      <trkpt lat="45.09978" lon="0.66098">
        <ele>218.84</ele>
        <time>2019-04-18T12:10:55Z</time>
      </trkpt>
      <trkpt lat="45.0998" lon="0.66097">
        <ele>218.84</ele>
        <time>2019-04-18T12:10:56Z</time>
      </trkpt>
      <trkpt lat="45.09996" lon="0.66088">
        <ele>217.88</ele>
        <time>2019-04-18T12:11:11Z</time>
      </trkpt>
      <trkpt lat="45.10001" lon="0.66086">
        <ele>217.4</ele>
        <time>2019-04-18T12:11:17Z</time>
      </trkpt>
      <trkpt lat="45.10005" lon="0.66085">
        <ele>217.4</ele>
        <time>2019-04-18T12:11:21Z</time>
      </trkpt>
      <trkpt lat="45.10035" lon="0.66076">
        <ele>215.95</ele>
        <time>2019-04-18T12:11:48Z</time>
      </trkpt>
      <trkpt lat="45.10043" lon="0.66079">
        <ele>214.99</ele>
        <time>2019-04-18T12:12:05Z</time>
      </trkpt>
      <trkpt lat="45.10045" lon="0.6608">
        <ele>214.99</ele>
        <time>2019-04-18T12:12:16Z</time>
      </trkpt>
      <trkpt lat="45.10046" lon="0.66081">
        <ele>214.99</ele>
        <time>2019-04-18T12:12:17Z</time>
      </trkpt>
      <trkpt lat="45.10049" lon="0.66082">
        <ele>214.99</ele>
        <time>2019-04-18T12:12:20Z</time>
      </trkpt>
      <trkpt lat="45.1005" lon="0.66082">
        <ele>214.51</ele>
        <time>2019-04-18T12:12:21Z</time>
      </trkpt>
      <trkpt lat="45.10051" lon="0.66082">
        <ele>214.51</ele>
        <time>2019-04-18T12:12:22Z</time>
      </trkpt>
      <trkpt lat="45.10069" lon="0.66087">
        <ele>213.55</ele>
        <time>2019-04-18T12:12:41Z</time>
      </trkpt>
      <trkpt lat="45.10086" lon="0.66091">
        <ele>211.63</ele>
        <time>2019-04-18T12:13:00Z</time>
      </trkpt>
      <trkpt lat="45.10095" lon="0.66085">
        <ele>211.15</ele>
        <time>2019-04-18T12:13:14Z</time>
      </trkpt>
      <trkpt lat="45.10093" lon="0.66057">
        <ele>212.59</ele>
        <time>2019-04-18T12:13:36Z</time>
      </trkpt>
      <trkpt lat="45.1009" lon="0.66034">
        <ele>213.55</ele>
        <time>2019-04-18T12:13:53Z</time>
      </trkpt>
      <trkpt lat="45.10088" lon="0.66009">
        <ele>213.55</ele>
        <time>2019-04-18T12:14:11Z</time>
      </trkpt>
      <trkpt lat="45.10087" lon="0.66006">
        <ele>213.55</ele>
        <time>2019-04-18T12:14:13Z</time>
      </trkpt>
      <trkpt lat="45.10082" lon="0.65987">
        <ele>214.03</ele>
        <time>2019-04-18T12:14:29Z</time>
      </trkpt>
      <trkpt lat="45.10068" lon="0.65986">
        <ele>214.99</ele>
        <time>2019-04-18T12:14:45Z</time>
      </trkpt>
      <trkpt lat="45.10062" lon="0.65986">
        <ele>214.99</ele>
        <time>2019-04-18T12:14:51Z</time>
      </trkpt>
      <trkpt lat="45.10042" lon="0.65984">
        <ele>216.43</ele>
        <time>2019-04-18T12:15:11Z</time>
      </trkpt>
      <trkpt lat="45.10025" lon="0.65984">
        <ele>218.36</ele>
        <time>2019-04-18T12:15:32Z</time>
      </trkpt>
      <trkpt lat="45.10004" lon="0.65985">
        <ele>218.84</ele>
        <time>2019-04-18T12:15:54Z</time>
      </trkpt>
      <trkpt lat="45.09981" lon="0.65984">
        <ele>220.28</ele>
        <time>2019-04-18T12:16:17Z</time>
      </trkpt>
      <trkpt lat="45.09977" lon="0.65981">
        <ele>220.76</ele>
        <time>2019-04-18T12:16:35Z</time>
      </trkpt>
      <trkpt lat="45.09977" lon="0.65977">
        <ele>220.28</ele>
        <time>2019-04-18T12:16:55Z</time>
      </trkpt>
      <trkpt lat="45.09976" lon="0.65976">
        <ele>219.8</ele>
        <time>2019-04-18T12:17:08Z</time>
      </trkpt>
      <trkpt lat="45.09977" lon="0.65974">
        <ele>220.28</ele>
        <time>2019-04-18T12:17:32Z</time>
      </trkpt>
      <trkpt lat="45.09977" lon="0.65973">
        <ele>219.8</ele>
        <time>2019-04-18T12:17:54Z</time>
      </trkpt>
      <trkpt lat="45.09979" lon="0.65969">
        <ele>219.8</ele>
        <time>2019-04-18T12:18:28Z</time>
      </trkpt>
      <trkpt lat="45.09982" lon="0.65966">
        <ele>219.32</ele>
        <time>2019-04-18T12:18:34Z</time>
      </trkpt>
      <trkpt lat="45.09983" lon="0.65965">
        <ele>219.32</ele>
        <time>2019-04-18T12:18:35Z</time>
      </trkpt>
      <trkpt lat="45.1" lon="0.65943">
        <ele>217.4</ele>
        <time>2019-04-18T12:18:57Z</time>
      </trkpt>
      <trkpt lat="45.10011" lon="0.65914">
        <ele>214.99</ele>
        <time>2019-04-18T12:19:20Z</time>
      </trkpt>
      <trkpt lat="45.10015" lon="0.65889">
        <ele>212.11</ele>
        <time>2019-04-18T12:19:36Z</time>
      </trkpt>
      <trkpt lat="45.10019" lon="0.65861">
        <ele>209.22</ele>
        <time>2019-04-18T12:19:53Z</time>
      </trkpt>
      <trkpt lat="45.10024" lon="0.65837">
        <ele>206.82</ele>
        <time>2019-04-18T12:20:08Z</time>
      </trkpt>
      <trkpt lat="45.10024" lon="0.65831">
        <ele>206.34</ele>
        <time>2019-04-18T12:20:12Z</time>
      </trkpt>
      <trkpt lat="45.10024" lon="0.6582">
        <ele>205.38</ele>
        <time>2019-04-18T12:20:19Z</time>
      </trkpt>
      <trkpt lat="45.10024" lon="0.65818">
        <ele>205.38</ele>
        <time>2019-04-18T12:20:20Z</time>
      </trkpt>
      <trkpt lat="45.10024" lon="0.65817">
        <ele>205.38</ele>
        <time>2019-04-18T12:20:21Z</time>
      </trkpt>
      <trkpt lat="45.10032" lon="0.65789">
        <ele>202.98</ele>
        <time>2019-04-18T12:20:37Z</time>
      </trkpt>
      <trkpt lat="45.10049" lon="0.6577">
        <ele>201.53</ele>
        <time>2019-04-18T12:20:55Z</time>
      </trkpt>
      <trkpt lat="45.10061" lon="0.65754">
        <ele>200.57</ele>
        <time>2019-04-18T12:21:11Z</time>
      </trkpt>
      <trkpt lat="45.10067" lon="0.65748">
        <ele>200.09</ele>
        <time>2019-04-18T12:21:17Z</time>
      </trkpt>
      <trkpt lat="45.10068" lon="0.65748">
        <ele>200.09</ele>
        <time>2019-04-18T12:21:18Z</time>
      </trkpt>
      <trkpt lat="45.10069" lon="0.65747">
        <ele>200.09</ele>
        <time>2019-04-18T12:21:19Z</time>
      </trkpt>
      <trkpt lat="45.10091" lon="0.65725">
        <ele>199.61</ele>
        <time>2019-04-18T12:21:41Z</time>
      </trkpt>
      <trkpt lat="45.10112" lon="0.65714">
        <ele>197.69</ele>
        <time>2019-04-18T12:22:00Z</time>
      </trkpt>
      <trkpt lat="45.10133" lon="0.65703">
        <ele>196.25</ele>
        <time>2019-04-18T12:22:20Z</time>
      </trkpt>
      <trkpt lat="45.10147" lon="0.65696">
        <ele>194.32</ele>
        <time>2019-04-18T12:22:35Z</time>
      </trkpt>
      <trkpt lat="45.10151" lon="0.65693">
        <ele>193.84</ele>
        <time>2019-04-18T12:22:39Z</time>
      </trkpt>
      <trkpt lat="45.10161" lon="0.65685">
        <ele>192.4</ele>
        <time>2019-04-18T12:22:50Z</time>
      </trkpt>
      <trkpt lat="45.10167" lon="0.6568">
        <ele>191.92</ele>
        <time>2019-04-18T12:22:56Z</time>
      </trkpt>
      <trkpt lat="45.1018" lon="0.65669">
        <ele>190</ele>
        <time>2019-04-18T12:23:09Z</time>
      </trkpt>
      <trkpt lat="45.10181" lon="0.65669">
        <ele>190</ele>
        <time>2019-04-18T12:23:10Z</time>
      </trkpt>
      <trkpt lat="45.10187" lon="0.65666">
        <ele>189.52</ele>
        <time>2019-04-18T12:23:16Z</time>
      </trkpt>
      <trkpt lat="45.10196" lon="0.65662">
        <ele>188.56</ele>
        <time>2019-04-18T12:23:23Z</time>
      </trkpt>
      <trkpt lat="45.102" lon="0.6566">
        <ele>187.59</ele>
        <time>2019-04-18T12:23:27Z</time>
      </trkpt>
      <trkpt lat="45.10201" lon="0.6566">
        <ele>187.59</ele>
        <time>2019-04-18T12:23:28Z</time>
      </trkpt>
      <trkpt lat="45.10216" lon="0.65654">
        <ele>184.23</ele>
        <time>2019-04-18T12:23:42Z</time>
      </trkpt>
      <trkpt lat="45.10233" lon="0.6565">
        <ele>181.35</ele>
        <time>2019-04-18T12:23:58Z</time>
      </trkpt>
      <trkpt lat="45.10248" lon="0.65647">
        <ele>177.98</ele>
        <time>2019-04-18T12:24:11Z</time>
      </trkpt>
      <trkpt lat="45.10256" lon="0.65639">
        <ele>175.58</ele>
        <time>2019-04-18T12:24:21Z</time>
      </trkpt>
      <trkpt lat="45.10257" lon="0.65638">
        <ele>175.58</ele>
        <time>2019-04-18T12:24:22Z</time>
      </trkpt>
      <trkpt lat="45.10259" lon="0.65621">
        <ele>173.17</ele>
        <time>2019-04-18T12:24:33Z</time>
      </trkpt>
      <trkpt lat="45.1026" lon="0.65619">
        <ele>173.17</ele>
        <time>2019-04-18T12:24:34Z</time>
      </trkpt>
      <trkpt lat="45.1026" lon="0.65618">
        <ele>173.17</ele>
        <time>2019-04-18T12:24:35Z</time>
      </trkpt>
      <trkpt lat="45.10261" lon="0.65616">
        <ele>172.69</ele>
        <time>2019-04-18T12:24:36Z</time>
      </trkpt>
      <trkpt lat="45.10263" lon="0.65603">
        <ele>170.77</ele>
        <time>2019-04-18T12:24:45Z</time>
      </trkpt>
      <trkpt lat="45.10263" lon="0.65598">
        <ele>170.29</ele>
        <time>2019-04-18T12:24:48Z</time>
      </trkpt>
      <trkpt lat="45.10262" lon="0.65596">
        <ele>170.29</ele>
        <time>2019-04-18T12:24:49Z</time>
      </trkpt>
      <trkpt lat="45.10266" lon="0.65566">
        <ele>167.41</ele>
        <time>2019-04-18T12:25:07Z</time>
      </trkpt>
      <trkpt lat="45.10267" lon="0.65561">
        <ele>166.93</ele>
        <time>2019-04-18T12:25:10Z</time>
      </trkpt>
      <trkpt lat="45.10267" lon="0.65559">
        <ele>166.45</ele>
        <time>2019-04-18T12:25:11Z</time>
      </trkpt>
      <trkpt lat="45.10268" lon="0.65557">
        <ele>166.45</ele>
        <time>2019-04-18T12:25:12Z</time>
      </trkpt>
      <trkpt lat="45.10268" lon="0.65554">
        <ele>165.96</ele>
        <time>2019-04-18T12:25:14Z</time>
      </trkpt>
      <trkpt lat="45.10268" lon="0.65552">
        <ele>165.96</ele>
        <time>2019-04-18T12:25:15Z</time>
      </trkpt>
      <trkpt lat="45.10269" lon="0.6555">
        <ele>165.96</ele>
        <time>2019-04-18T12:25:16Z</time>
      </trkpt>
      <trkpt lat="45.10268" lon="0.65532">
        <ele>164.04</ele>
        <time>2019-04-18T12:25:27Z</time>
      </trkpt>
      <trkpt lat="45.10267" lon="0.65531">
        <ele>164.04</ele>
        <time>2019-04-18T12:25:28Z</time>
      </trkpt>
      <trkpt lat="45.10267" lon="0.65529">
        <ele>163.56</ele>
        <time>2019-04-18T12:25:29Z</time>
      </trkpt>
      <trkpt lat="45.10267" lon="0.65528">
        <ele>163.56</ele>
        <time>2019-04-18T12:25:30Z</time>
      </trkpt>
      <trkpt lat="45.10266" lon="0.65526">
        <ele>163.56</ele>
        <time>2019-04-18T12:25:31Z</time>
      </trkpt>
      <trkpt lat="45.10261" lon="0.65502">
        <ele>161.64</ele>
        <time>2019-04-18T12:25:49Z</time>
      </trkpt>
      <trkpt lat="45.10252" lon="0.65473">
        <ele>158.75</ele>
        <time>2019-04-18T12:26:07Z</time>
      </trkpt>
      <trkpt lat="45.10247" lon="0.65455">
        <ele>156.83</ele>
        <time>2019-04-18T12:26:24Z</time>
      </trkpt>
      <trkpt lat="45.10247" lon="0.65453">
        <ele>156.83</ele>
        <time>2019-04-18T12:26:44Z</time>
      </trkpt>
      <trkpt lat="45.10244" lon="0.65438">
        <ele>156.83</ele>
        <time>2019-04-18T12:27:00Z</time>
      </trkpt>
      <trkpt lat="45.10239" lon="0.65414">
        <ele>156.83</ele>
        <time>2019-04-18T12:27:19Z</time>
      </trkpt>
      <trkpt lat="45.10235" lon="0.65391">
        <ele>158.27</ele>
        <time>2019-04-18T12:27:36Z</time>
      </trkpt>
      <trkpt lat="45.10227" lon="0.65369">
        <ele>159.24</ele>
        <time>2019-04-18T12:27:54Z</time>
      </trkpt>
      <trkpt lat="45.10222" lon="0.65357">
        <ele>159.24</ele>
        <time>2019-04-18T12:28:03Z</time>
      </trkpt>
      <trkpt lat="45.10212" lon="0.65327">
        <ele>159.24</ele>
        <time>2019-04-18T12:28:25Z</time>
      </trkpt>
      <trkpt lat="45.10202" lon="0.65301">
        <ele>158.75</ele>
        <time>2019-04-18T12:28:45Z</time>
      </trkpt>
      <trkpt lat="45.10186" lon="0.65272">
        <ele>161.16</ele>
        <time>2019-04-18T12:29:09Z</time>
      </trkpt>
      <trkpt lat="45.10171" lon="0.65247">
        <ele>161.64</ele>
        <time>2019-04-18T12:29:32Z</time>
      </trkpt>
      <trkpt lat="45.10167" lon="0.65239">
        <ele>162.6</ele>
        <time>2019-04-18T12:29:48Z</time>
      </trkpt>
      <trkpt lat="45.10167" lon="0.65237">
        <ele>162.6</ele>
        <time>2019-04-18T12:30:03Z</time>
      </trkpt>
      <trkpt lat="45.10167" lon="0.65236">
        <ele>162.6</ele>
        <time>2019-04-18T12:30:23Z</time>
      </trkpt>
      <trkpt lat="45.10167" lon="0.65235">
        <ele>162.6</ele>
        <time>2019-04-18T12:30:42Z</time>
      </trkpt>
      <trkpt lat="45.10166" lon="0.65234">
        <ele>163.08</ele>
        <time>2019-04-18T12:30:56Z</time>
      </trkpt>
      <trkpt lat="45.10161" lon="0.65226">
        <ele>163.08</ele>
        <time>2019-04-18T12:31:09Z</time>
      </trkpt>
      <trkpt lat="45.10152" lon="0.65215">
        <ele>165</ele>
        <time>2019-04-18T12:31:26Z</time>
      </trkpt>
      <trkpt lat="45.10141" lon="0.65198">
        <ele>167.89</ele>
        <time>2019-04-18T12:31:44Z</time>
      </trkpt>
      <trkpt lat="45.10128" lon="0.65187">
        <ele>170.29</ele>
        <time>2019-04-18T12:32:01Z</time>
      </trkpt>
      <trkpt lat="45.10116" lon="0.65175">
        <ele>172.69</ele>
        <time>2019-04-18T12:32:17Z</time>
      </trkpt>
      <trkpt lat="45.1011" lon="0.65167">
        <ele>174.14</ele>
        <time>2019-04-18T12:32:32Z</time>
      </trkpt>
      <trkpt lat="45.10106" lon="0.65164">
        <ele>174.62</ele>
        <time>2019-04-18T12:32:47Z</time>
      </trkpt>
      <trkpt lat="45.10098" lon="0.65157">
        <ele>175.58</ele>
        <time>2019-04-18T12:32:59Z</time>
      </trkpt>
      <trkpt lat="45.10086" lon="0.65149">
        <ele>177.98</ele>
        <time>2019-04-18T12:33:14Z</time>
      </trkpt>
      <trkpt lat="45.10078" lon="0.65144">
        <ele>179.9</ele>
        <time>2019-04-18T12:33:25Z</time>
      </trkpt>
      <trkpt lat="45.10071" lon="0.6514">
        <ele>181.83</ele>
        <time>2019-04-18T12:33:34Z</time>
      </trkpt>
      <trkpt lat="45.10061" lon="0.65135">
        <ele>184.23</ele>
        <time>2019-04-18T12:33:46Z</time>
      </trkpt>
      <trkpt lat="45.1006" lon="0.65134">
        <ele>184.23</ele>
        <time>2019-04-18T12:33:47Z</time>
      </trkpt>
      <trkpt lat="45.10045" lon="0.65128">
        <ele>186.15</ele>
        <time>2019-04-18T12:34:01Z</time>
      </trkpt>
      <trkpt lat="45.10035" lon="0.65123">
        <ele>187.59</ele>
        <time>2019-04-18T12:34:15Z</time>
      </trkpt>
      <trkpt lat="45.10035" lon="0.65112">
        <ele>187.59</ele>
        <time>2019-04-18T12:34:35Z</time>
      </trkpt>
      <trkpt lat="45.10035" lon="0.65106">
        <ele>188.08</ele>
        <time>2019-04-18T12:34:50Z</time>
      </trkpt>
      <trkpt lat="45.10035" lon="0.65105">
        <ele>189.04</ele>
        <time>2019-04-18T12:35:07Z</time>
      </trkpt>
      <trkpt lat="45.10039" lon="0.65111">
        <ele>188.08</ele>
        <time>2019-04-18T12:35:20Z</time>
      </trkpt>
      <trkpt lat="45.10031" lon="0.65119">
        <ele>188.08</ele>
        <time>2019-04-18T12:35:32Z</time>
      </trkpt>
      <trkpt lat="45.10015" lon="0.65124">
        <ele>188.08</ele>
        <time>2019-04-18T12:35:48Z</time>
      </trkpt>
      <trkpt lat="45.10013" lon="0.65123">
        <ele>188.08</ele>
        <time>2019-04-18T12:35:50Z</time>
      </trkpt>
      <trkpt lat="45.10006" lon="0.65123">
        <ele>191.44</ele>
        <time>2019-04-18T12:35:58Z</time>
      </trkpt>
      <trkpt lat="45.09991" lon="0.65123">
        <ele>193.36</ele>
        <time>2019-04-18T12:36:15Z</time>
      </trkpt>
      <trkpt lat="45.09976" lon="0.65121">
        <ele>195.28</ele>
        <time>2019-04-18T12:36:33Z</time>
      </trkpt>
      <trkpt lat="45.09965" lon="0.65117">
        <ele>196.73</ele>
        <time>2019-04-18T12:36:49Z</time>
      </trkpt>
      <trkpt lat="45.09955" lon="0.65114">
        <ele>197.69</ele>
        <time>2019-04-18T12:37:03Z</time>
      </trkpt>
      <trkpt lat="45.09936" lon="0.65114">
        <ele>198.65</ele>
        <time>2019-04-18T12:37:23Z</time>
      </trkpt>
      <trkpt lat="45.09925" lon="0.65113">
        <ele>200.57</ele>
        <time>2019-04-18T12:37:38Z</time>
      </trkpt>
      <trkpt lat="45.09917" lon="0.65113">
        <ele>201.53</ele>
        <time>2019-04-18T12:37:54Z</time>
      </trkpt>
      <trkpt lat="45.09906" lon="0.65115">
        <ele>202.98</ele>
        <time>2019-04-18T12:38:10Z</time>
      </trkpt>
      <trkpt lat="45.0989" lon="0.65115">
        <ele>204.42</ele>
        <time>2019-04-18T12:38:26Z</time>
      </trkpt>
      <trkpt lat="45.09874" lon="0.65117">
        <ele>205.86</ele>
        <time>2019-04-18T12:38:41Z</time>
      </trkpt>
      <trkpt lat="45.09861" lon="0.65116">
        <ele>206.82</ele>
        <time>2019-04-18T12:38:55Z</time>
      </trkpt>
      <trkpt lat="45.09857" lon="0.65117">
        <ele>207.3</ele>
        <time>2019-04-18T12:38:59Z</time>
      </trkpt>
      <trkpt lat="45.09842" lon="0.6512">
        <ele>208.74</ele>
        <time>2019-04-18T12:39:13Z</time>
      </trkpt>
      <trkpt lat="45.09828" lon="0.65126">
        <ele>210.19</ele>
        <time>2019-04-18T12:39:29Z</time>
      </trkpt>
      <trkpt lat="45.09828" lon="0.65126">
        <ele>210.67</ele>
        <time>2019-04-18T12:39:48Z</time>
      </trkpt>
      <trkpt lat="45.09828" lon="0.65126">
        <ele>209.22</ele>
        <time>2019-04-18T12:40:14Z</time>
      </trkpt>
      <trkpt lat="45.09816" lon="0.65132">
        <ele>209.7</ele>
        <time>2019-04-18T12:40:30Z</time>
      </trkpt>
      <trkpt lat="45.09804" lon="0.65137">
        <ele>211.15</ele>
        <time>2019-04-18T12:40:45Z</time>
      </trkpt>
      <trkpt lat="45.09796" lon="0.65141">
        <ele>211.63</ele>
        <time>2019-04-18T12:40:56Z</time>
      </trkpt>
      <trkpt lat="45.09787" lon="0.65145">
        <ele>212.11</ele>
        <time>2019-04-18T12:41:08Z</time>
      </trkpt>
      <trkpt lat="45.09777" lon="0.6515">
        <ele>212.11</ele>
        <time>2019-04-18T12:41:23Z</time>
      </trkpt>
      <trkpt lat="45.09765" lon="0.65153">
        <ele>213.07</ele>
        <time>2019-04-18T12:41:41Z</time>
      </trkpt>
      <trkpt lat="45.09767" lon="0.65165">
        <ele>213.55</ele>
        <time>2019-04-18T12:41:58Z</time>
      </trkpt>
      <trkpt lat="45.09767" lon="0.65179">
        <ele>213.55</ele>
        <time>2019-04-18T12:42:14Z</time>
      </trkpt>
      <trkpt lat="45.09766" lon="0.65166">
        <ele>214.03</ele>
        <time>2019-04-18T12:42:34Z</time>
      </trkpt>
      <trkpt lat="45.09764" lon="0.65162">
        <ele>214.03</ele>
        <time>2019-04-18T12:42:52Z</time>
      </trkpt>
      <trkpt lat="45.09753" lon="0.65157">
        <ele>214.03</ele>
        <time>2019-04-18T12:43:11Z</time>
      </trkpt>
      <trkpt lat="45.09744" lon="0.65156">
        <ele>214.03</ele>
        <time>2019-04-18T12:43:21Z</time>
      </trkpt>
      <trkpt lat="45.09741" lon="0.65155">
        <ele>214.03</ele>
        <time>2019-04-18T12:43:24Z</time>
      </trkpt>
      <trkpt lat="45.09739" lon="0.65155">
        <ele>214.03</ele>
        <time>2019-04-18T12:43:26Z</time>
      </trkpt>
      <trkpt lat="45.09724" lon="0.65155">
        <ele>215.47</ele>
        <time>2019-04-18T12:43:43Z</time>
      </trkpt>
      <trkpt lat="45.09708" lon="0.65155">
        <ele>215.95</ele>
        <time>2019-04-18T12:43:59Z</time>
      </trkpt>
      <trkpt lat="45.09684" lon="0.65156">
        <ele>216.43</ele>
        <time>2019-04-18T12:44:18Z</time>
      </trkpt>
      <trkpt lat="45.09671" lon="0.65157">
        <ele>216.43</ele>
        <time>2019-04-18T12:44:31Z</time>
      </trkpt>
      <trkpt lat="45.09659" lon="0.65157">
        <ele>216.91</ele>
        <time>2019-04-18T12:44:46Z</time>
      </trkpt>
      <trkpt lat="45.09658" lon="0.65157">
        <ele>216.91</ele>
        <time>2019-04-18T12:44:47Z</time>
      </trkpt>
      <trkpt lat="45.09643" lon="0.65158">
        <ele>217.4</ele>
        <time>2019-04-18T12:45:02Z</time>
      </trkpt>
      <trkpt lat="45.09641" lon="0.65158">
        <ele>217.4</ele>
        <time>2019-04-18T12:45:03Z</time>
      </trkpt>
      <trkpt lat="45.09635" lon="0.65158">
        <ele>217.4</ele>
        <time>2019-04-18T12:45:08Z</time>
      </trkpt>
      <trkpt lat="45.09634" lon="0.65158">
        <ele>217.4</ele>
        <time>2019-04-18T12:45:09Z</time>
      </trkpt>
      <trkpt lat="45.09632" lon="0.65158">
        <ele>217.4</ele>
        <time>2019-04-18T12:45:10Z</time>
      </trkpt>
      <trkpt lat="45.09611" lon="0.65159">
        <ele>217.4</ele>
        <time>2019-04-18T12:45:29Z</time>
      </trkpt>
      <trkpt lat="45.09589" lon="0.65158">
        <ele>217.4</ele>
        <time>2019-04-18T12:45:48Z</time>
      </trkpt>
      <trkpt lat="45.09585" lon="0.65158">
        <ele>217.4</ele>
        <time>2019-04-18T12:45:52Z</time>
      </trkpt>
      <trkpt lat="45.09571" lon="0.65155">
        <ele>216.91</ele>
        <time>2019-04-18T12:46:07Z</time>
      </trkpt>
      <trkpt lat="45.09555" lon="0.65155">
        <ele>217.4</ele>
        <time>2019-04-18T12:46:23Z</time>
      </trkpt>
      <trkpt lat="45.09535" lon="0.65153">
        <ele>217.4</ele>
        <time>2019-04-18T12:46:39Z</time>
      </trkpt>
      <trkpt lat="45.09533" lon="0.65153">
        <ele>217.4</ele>
        <time>2019-04-18T12:46:40Z</time>
      </trkpt>
      <trkpt lat="45.09518" lon="0.65152">
        <ele>217.4</ele>
        <time>2019-04-18T12:46:54Z</time>
      </trkpt>
      <trkpt lat="45.09502" lon="0.65154">
        <ele>217.88</ele>
        <time>2019-04-18T12:47:09Z</time>
      </trkpt>
      <trkpt lat="45.09486" lon="0.65164">
        <ele>219.8</ele>
        <time>2019-04-18T12:47:24Z</time>
      </trkpt>
      <trkpt lat="45.09471" lon="0.65176">
        <ele>220.76</ele>
        <time>2019-04-18T12:47:40Z</time>
      </trkpt>
      <trkpt lat="45.09468" lon="0.6518">
        <ele>220.76</ele>
        <time>2019-04-18T12:47:44Z</time>
      </trkpt>
      <trkpt lat="45.09457" lon="0.65192">
        <ele>221.24</ele>
        <time>2019-04-18T12:47:57Z</time>
      </trkpt>
      <trkpt lat="45.09444" lon="0.65209">
        <ele>221.72</ele>
        <time>2019-04-18T12:48:14Z</time>
      </trkpt>
      <trkpt lat="45.09436" lon="0.65219">
        <ele>223.64</ele>
        <time>2019-04-18T12:48:32Z</time>
      </trkpt>
      <trkpt lat="45.09436" lon="0.65221">
        <ele>223.16</ele>
        <time>2019-04-18T12:48:47Z</time>
      </trkpt>
      <trkpt lat="45.09425" lon="0.65234">
        <ele>223.16</ele>
        <time>2019-04-18T12:49:04Z</time>
      </trkpt>
      <trkpt lat="45.09415" lon="0.65241">
        <ele>222.68</ele>
        <time>2019-04-18T12:49:15Z</time>
      </trkpt>
      <trkpt lat="45.094" lon="0.65251">
        <ele>222.68</ele>
        <time>2019-04-18T12:49:31Z</time>
      </trkpt>
      <trkpt lat="45.09399" lon="0.65253">
        <ele>222.68</ele>
        <time>2019-04-18T12:49:32Z</time>
      </trkpt>
      <trkpt lat="45.09383" lon="0.65265">
        <ele>222.2</ele>
        <time>2019-04-18T12:49:49Z</time>
      </trkpt>
      <trkpt lat="45.09362" lon="0.65276">
        <ele>221.72</ele>
        <time>2019-04-18T12:50:09Z</time>
      </trkpt>
      <trkpt lat="45.09354" lon="0.65281">
        <ele>221.24</ele>
        <time>2019-04-18T12:50:24Z</time>
      </trkpt>
      <trkpt lat="45.09341" lon="0.65293">
        <ele>222.2</ele>
        <time>2019-04-18T12:50:38Z</time>
      </trkpt>
      <trkpt lat="45.0934" lon="0.65294">
        <ele>222.2</ele>
        <time>2019-04-18T12:50:39Z</time>
      </trkpt>
      <trkpt lat="45.09335" lon="0.65301">
        <ele>222.2</ele>
        <time>2019-04-18T12:50:45Z</time>
      </trkpt>
      <trkpt lat="45.0933" lon="0.65312">
        <ele>222.2</ele>
        <time>2019-04-18T12:50:53Z</time>
      </trkpt>
      <trkpt lat="45.09325" lon="0.6534">
        <ele>223.64</ele>
        <time>2019-04-18T12:51:13Z</time>
      </trkpt>
      <trkpt lat="45.09319" lon="0.65357">
        <ele>224.12</ele>
        <time>2019-04-18T12:51:28Z</time>
      </trkpt>
      <trkpt lat="45.09314" lon="0.65375">
        <ele>225.09</ele>
        <time>2019-04-18T12:51:41Z</time>
      </trkpt>
      <trkpt lat="45.09307" lon="0.6539">
        <ele>226.53</ele>
        <time>2019-04-18T12:51:56Z</time>
      </trkpt>
      <trkpt lat="45.09306" lon="0.65398">
        <ele>227.01</ele>
        <time>2019-04-18T12:52:11Z</time>
      </trkpt>
      <trkpt lat="45.09307" lon="0.65399">
        <ele>227.01</ele>
        <time>2019-04-18T12:52:27Z</time>
      </trkpt>
      <trkpt lat="45.09312" lon="0.65413">
        <ele>226.53</ele>
        <time>2019-04-18T12:52:42Z</time>
      </trkpt>
      <trkpt lat="45.09318" lon="0.65429">
        <ele>226.53</ele>
        <time>2019-04-18T12:52:56Z</time>
      </trkpt>
      <trkpt lat="45.09325" lon="0.65445">
        <ele>226.53</ele>
        <time>2019-04-18T12:53:11Z</time>
      </trkpt>
      <trkpt lat="45.09332" lon="0.65461">
        <ele>226.53</ele>
        <time>2019-04-18T12:53:25Z</time>
      </trkpt>
      <trkpt lat="45.09338" lon="0.65475">
        <ele>227.01</ele>
        <time>2019-04-18T12:53:44Z</time>
      </trkpt>
      <trkpt lat="45.09343" lon="0.65485">
        <ele>227.01</ele>
        <time>2019-04-18T12:54:10Z</time>
      </trkpt>
      <trkpt lat="45.09349" lon="0.65501">
        <ele>226.53</ele>
        <time>2019-04-18T12:54:26Z</time>
      </trkpt>
      <trkpt lat="45.09361" lon="0.65516">
        <ele>226.05</ele>
        <time>2019-04-18T12:54:40Z</time>
      </trkpt>
      <trkpt lat="45.09371" lon="0.65531">
        <ele>226.05</ele>
        <time>2019-04-18T12:54:56Z</time>
      </trkpt>
      <trkpt lat="45.0938" lon="0.65552">
        <ele>226.05</ele>
        <time>2019-04-18T12:55:15Z</time>
      </trkpt>
      <trkpt lat="45.09391" lon="0.65571">
        <ele>225.57</ele>
        <time>2019-04-18T12:55:31Z</time>
      </trkpt>
      <trkpt lat="45.09401" lon="0.65598">
        <ele>225.57</ele>
        <time>2019-04-18T12:55:49Z</time>
      </trkpt>
      <trkpt lat="45.09408" lon="0.65621">
        <ele>225.57</ele>
        <time>2019-04-18T12:56:06Z</time>
      </trkpt>
      <trkpt lat="45.09413" lon="0.65647">
        <ele>224.61</ele>
        <time>2019-04-18T12:56:23Z</time>
      </trkpt>
      <trkpt lat="45.09422" lon="0.65671">
        <ele>224.61</ele>
        <time>2019-04-18T12:56:40Z</time>
      </trkpt>
      <trkpt lat="45.09429" lon="0.65692">
        <ele>224.12</ele>
        <time>2019-04-18T12:56:56Z</time>
      </trkpt>
      <trkpt lat="45.09439" lon="0.65717">
        <ele>221.72</ele>
        <time>2019-04-18T12:57:16Z</time>
      </trkpt>
      <trkpt lat="45.09446" lon="0.65749">
        <ele>220.28</ele>
        <time>2019-04-18T12:57:36Z</time>
      </trkpt>
      <trkpt lat="45.09447" lon="0.65754">
        <ele>220.28</ele>
        <time>2019-04-18T12:57:39Z</time>
      </trkpt>
      <trkpt lat="45.09452" lon="0.65774">
        <ele>219.8</ele>
        <time>2019-04-18T12:57:52Z</time>
      </trkpt>
      <trkpt lat="45.09458" lon="0.65796">
        <ele>219.8</ele>
        <time>2019-04-18T12:58:07Z</time>
      </trkpt>
      <trkpt lat="45.09466" lon="0.65817">
        <ele>219.8</ele>
        <time>2019-04-18T12:58:22Z</time>
      </trkpt>
      <trkpt lat="45.09471" lon="0.65838">
        <ele>219.8</ele>
        <time>2019-04-18T12:58:37Z</time>
      </trkpt>
      <trkpt lat="45.09472" lon="0.6584">
        <ele>219.8</ele>
        <time>2019-04-18T12:58:39Z</time>
      </trkpt>
      <trkpt lat="45.09478" lon="0.65859">
        <ele>219.32</ele>
        <time>2019-04-18T12:58:51Z</time>
      </trkpt>
      <trkpt lat="45.09483" lon="0.6588">
        <ele>218.84</ele>
        <time>2019-04-18T12:59:07Z</time>
      </trkpt>
      <trkpt lat="45.09491" lon="0.65902">
        <ele>218.36</ele>
        <time>2019-04-18T12:59:24Z</time>
      </trkpt>
      <trkpt lat="45.09498" lon="0.65927">
        <ele>216.91</ele>
        <time>2019-04-18T12:59:42Z</time>
      </trkpt>
      <trkpt lat="45.09499" lon="0.65947">
        <ele>216.91</ele>
        <time>2019-04-18T12:59:55Z</time>
      </trkpt>
      <trkpt lat="45.09498" lon="0.65973">
        <ele>217.4</ele>
        <time>2019-04-18T13:00:15Z</time>
      </trkpt>
      <trkpt lat="45.09494" lon="0.66006">
        <ele>219.32</ele>
        <time>2019-04-18T13:00:37Z</time>
      </trkpt>
      <trkpt lat="45.09489" lon="0.66027">
        <ele>220.76</ele>
        <time>2019-04-18T13:00:55Z</time>
      </trkpt>
      <trkpt lat="45.09481" lon="0.66044">
        <ele>222.2</ele>
        <time>2019-04-18T13:01:15Z</time>
      </trkpt>
      <trkpt lat="45.09476" lon="0.66055">
        <ele>222.68</ele>
        <time>2019-04-18T13:01:29Z</time>
      </trkpt>
      <trkpt lat="45.09474" lon="0.66057">
        <ele>222.2</ele>
        <time>2019-04-18T13:01:51Z</time>
      </trkpt>
      <trkpt lat="45.09473" lon="0.66055">
        <ele>222.2</ele>
        <time>2019-04-18T13:02:15Z</time>
      </trkpt>
      <trkpt lat="45.09469" lon="0.6606">
        <ele>222.68</ele>
        <time>2019-04-18T13:02:41Z</time>
      </trkpt>
      <trkpt lat="45.0947" lon="0.66062">
        <ele>223.16</ele>
        <time>2019-04-18T13:02:58Z</time>
      </trkpt>
      <trkpt lat="45.09471" lon="0.66061">
        <ele>223.16</ele>
        <time>2019-04-18T13:03:19Z</time>
      </trkpt>
      <trkpt lat="45.09469" lon="0.66063">
        <ele>223.16</ele>
        <time>2019-04-18T13:03:33Z</time>
      </trkpt>
      <trkpt lat="45.0946" lon="0.6606">
        <ele>223.64</ele>
        <time>2019-04-18T13:03:42Z</time>
      </trkpt>
      <trkpt lat="45.09457" lon="0.6606">
        <ele>223.64</ele>
        <time>2019-04-18T13:03:45Z</time>
      </trkpt>
      <trkpt lat="45.09455" lon="0.6606">
        <ele>223.64</ele>
        <time>2019-04-18T13:03:47Z</time>
      </trkpt>
      <trkpt lat="45.09454" lon="0.66059">
        <ele>223.64</ele>
        <time>2019-04-18T13:03:48Z</time>
      </trkpt>
      <trkpt lat="45.09431" lon="0.66048">
        <ele>223.64</ele>
        <time>2019-04-18T13:04:10Z</time>
      </trkpt>
      <trkpt lat="45.09413" lon="0.66042">
        <ele>223.64</ele>
        <time>2019-04-18T13:04:27Z</time>
      </trkpt>
      <trkpt lat="45.09389" lon="0.66043">
        <ele>223.64</ele>
        <time>2019-04-18T13:04:48Z</time>
      </trkpt>
      <trkpt lat="45.09368" lon="0.66044">
        <ele>223.16</ele>
        <time>2019-04-18T13:05:07Z</time>
      </trkpt>
      <trkpt lat="45.09345" lon="0.6605">
        <ele>222.68</ele>
        <time>2019-04-18T13:05:28Z</time>
      </trkpt>
      <trkpt lat="45.09326" lon="0.66057">
        <ele>221.72</ele>
        <time>2019-04-18T13:05:46Z</time>
      </trkpt>
      <trkpt lat="45.09311" lon="0.66062">
        <ele>220.76</ele>
        <time>2019-04-18T13:06:01Z</time>
      </trkpt>
      <trkpt lat="45.09296" lon="0.66069">
        <ele>219.32</ele>
        <time>2019-04-18T13:06:16Z</time>
      </trkpt>
      <trkpt lat="45.09279" lon="0.66078">
        <ele>218.36</ele>
        <time>2019-04-18T13:06:35Z</time>
      </trkpt>
      <trkpt lat="45.09265" lon="0.66091">
        <ele>216.43</ele>
        <time>2019-04-18T13:06:53Z</time>
      </trkpt>
      <trkpt lat="45.09255" lon="0.661">
        <ele>214.03</ele>
        <time>2019-04-18T13:07:07Z</time>
      </trkpt>
      <trkpt lat="45.0924" lon="0.66109">
        <ele>211.63</ele>
        <time>2019-04-18T13:07:25Z</time>
      </trkpt>
      <trkpt lat="45.09227" lon="0.66113">
        <ele>209.22</ele>
        <time>2019-04-18T13:07:38Z</time>
      </trkpt>
      <trkpt lat="45.09226" lon="0.66113">
        <ele>209.22</ele>
        <time>2019-04-18T13:07:39Z</time>
      </trkpt>
      <trkpt lat="45.09224" lon="0.66114">
        <ele>209.22</ele>
        <time>2019-04-18T13:07:40Z</time>
      </trkpt>
      <trkpt lat="45.0921" lon="0.66119">
        <ele>206.34</ele>
        <time>2019-04-18T13:07:56Z</time>
      </trkpt>
      <trkpt lat="45.09195" lon="0.66128">
        <ele>203.46</ele>
        <time>2019-04-18T13:08:12Z</time>
      </trkpt>
      <trkpt lat="45.09178" lon="0.66137">
        <ele>200.57</ele>
        <time>2019-04-18T13:08:29Z</time>
      </trkpt>
      <trkpt lat="45.09175" lon="0.66138">
        <ele>200.09</ele>
        <time>2019-04-18T13:08:32Z</time>
      </trkpt>
      <trkpt lat="45.09161" lon="0.66141">
        <ele>198.17</ele>
        <time>2019-04-18T13:08:44Z</time>
      </trkpt>
      <trkpt lat="45.09149" lon="0.66144">
        <ele>196.73</ele>
        <time>2019-04-18T13:08:58Z</time>
      </trkpt>
      <trkpt lat="45.09134" lon="0.66154">
        <ele>194.8</ele>
        <time>2019-04-18T13:09:14Z</time>
      </trkpt>
      <trkpt lat="45.09117" lon="0.66165">
        <ele>192.4</ele>
        <time>2019-04-18T13:09:32Z</time>
      </trkpt>
      <trkpt lat="45.09105" lon="0.66175">
        <ele>190.48</ele>
        <time>2019-04-18T13:09:46Z</time>
      </trkpt>
      <trkpt lat="45.09088" lon="0.66188">
        <ele>188.56</ele>
        <time>2019-04-18T13:10:04Z</time>
      </trkpt>
      <trkpt lat="45.09081" lon="0.66194">
        <ele>187.59</ele>
        <time>2019-04-18T13:10:10Z</time>
      </trkpt>
      <trkpt lat="45.09065" lon="0.6621">
        <ele>185.67</ele>
        <time>2019-04-18T13:10:27Z</time>
      </trkpt>
      <trkpt lat="45.0905" lon="0.66226">
        <ele>183.27</ele>
        <time>2019-04-18T13:10:46Z</time>
      </trkpt>
      <trkpt lat="45.09037" lon="0.66241">
        <ele>181.35</ele>
        <time>2019-04-18T13:11:03Z</time>
      </trkpt>
      <trkpt lat="45.09026" lon="0.66255">
        <ele>179.42</ele>
        <time>2019-04-18T13:11:19Z</time>
      </trkpt>
      <trkpt lat="45.09015" lon="0.66264">
        <ele>176.06</ele>
        <time>2019-04-18T13:11:34Z</time>
      </trkpt>
      <trkpt lat="45.09003" lon="0.66272">
        <ele>173.17</ele>
        <time>2019-04-18T13:11:50Z</time>
      </trkpt>
      <trkpt lat="45.08999" lon="0.66276">
        <ele>172.69</ele>
        <time>2019-04-18T13:11:54Z</time>
      </trkpt>
      <trkpt lat="45.08985" lon="0.66283">
        <ele>169.81</ele>
        <time>2019-04-18T13:12:10Z</time>
      </trkpt>
      <trkpt lat="45.08977" lon="0.66287">
        <ele>167.41</ele>
        <time>2019-04-18T13:12:20Z</time>
      </trkpt>
      <trkpt lat="45.08969" lon="0.66293">
        <ele>165.48</ele>
        <time>2019-04-18T13:12:36Z</time>
      </trkpt>
      <trkpt lat="45.08967" lon="0.66294">
        <ele>165.48</ele>
        <time>2019-04-18T13:12:59Z</time>
      </trkpt>
      <trkpt lat="45.08967" lon="0.66296">
        <ele>165</ele>
        <time>2019-04-18T13:13:21Z</time>
      </trkpt>
      <trkpt lat="45.08966" lon="0.66296">
        <ele>164.52</ele>
        <time>2019-04-18T13:13:38Z</time>
      </trkpt>
      <trkpt lat="45.08966" lon="0.66295">
        <ele>164.04</ele>
        <time>2019-04-18T13:14:05Z</time>
      </trkpt>
      <trkpt lat="45.08966" lon="0.66296">
        <ele>164.04</ele>
        <time>2019-04-18T13:14:31Z</time>
      </trkpt>
      <trkpt lat="45.08966" lon="0.66297">
        <ele>164.04</ele>
        <time>2019-04-18T13:14:54Z</time>
      </trkpt>
      <trkpt lat="45.08965" lon="0.66297">
        <ele>164.04</ele>
        <time>2019-04-18T13:15:23Z</time>
      </trkpt>
      <trkpt lat="45.08965" lon="0.66297">
        <ele>164.04</ele>
        <time>2019-04-18T13:15:49Z</time>
      </trkpt>
      <trkpt lat="45.08956" lon="0.66297">
        <ele>164.04</ele>
        <time>2019-04-18T13:16:11Z</time>
      </trkpt>
      <trkpt lat="45.08953" lon="0.66297">
        <ele>164.04</ele>
        <time>2019-04-18T13:16:15Z</time>
      </trkpt>
      <trkpt lat="45.0895" lon="0.66297">
        <ele>164.04</ele>
        <time>2019-04-18T13:16:17Z</time>
      </trkpt>
      <trkpt lat="45.08937" lon="0.66293">
        <ele>161.16</ele>
        <time>2019-04-18T13:16:31Z</time>
      </trkpt>
      <trkpt lat="45.08923" lon="0.66289">
        <ele>159.72</ele>
        <time>2019-04-18T13:16:46Z</time>
      </trkpt>
      <trkpt lat="45.08911" lon="0.66285">
        <ele>157.31</ele>
        <time>2019-04-18T13:17:03Z</time>
      </trkpt>
      <trkpt lat="45.08889" lon="0.66272">
        <ele>154.91</ele>
        <time>2019-04-18T13:17:22Z</time>
      </trkpt>
      <trkpt lat="45.08884" lon="0.66268">
        <ele>154.43</ele>
        <time>2019-04-18T13:17:27Z</time>
      </trkpt>
      <trkpt lat="45.08873" lon="0.66261">
        <ele>153.47</ele>
        <time>2019-04-18T13:17:40Z</time>
      </trkpt>
      <trkpt lat="45.08871" lon="0.66259">
        <ele>152.99</ele>
        <time>2019-04-18T13:17:42Z</time>
      </trkpt>
      <trkpt lat="45.08864" lon="0.66257">
        <ele>152.99</ele>
        <time>2019-04-18T13:17:47Z</time>
      </trkpt>
      <trkpt lat="45.08846" lon="0.66254">
        <ele>152.03</ele>
        <time>2019-04-18T13:18:02Z</time>
      </trkpt>
      <trkpt lat="45.08837" lon="0.66253">
        <ele>151.54</ele>
        <time>2019-04-18T13:18:09Z</time>
      </trkpt>
      <trkpt lat="45.0882" lon="0.6625">
        <ele>151.06</ele>
        <time>2019-04-18T13:18:24Z</time>
      </trkpt>
      <trkpt lat="45.08814" lon="0.6625">
        <ele>151.06</ele>
        <time>2019-04-18T13:18:28Z</time>
      </trkpt>
      <trkpt lat="45.08798" lon="0.66248">
        <ele>150.58</ele>
        <time>2019-04-18T13:18:45Z</time>
      </trkpt>
      <trkpt lat="45.08795" lon="0.66245">
        <ele>150.58</ele>
        <time>2019-04-18T13:19:19Z</time>
      </trkpt>
      <trkpt lat="45.08788" lon="0.66246">
        <ele>150.58</ele>
        <time>2019-04-18T13:19:36Z</time>
      </trkpt>
      <trkpt lat="45.08785" lon="0.66246">
        <ele>151.06</ele>
        <time>2019-04-18T13:19:38Z</time>
      </trkpt>
      <trkpt lat="45.08782" lon="0.66247">
        <ele>151.06</ele>
        <time>2019-04-18T13:19:41Z</time>
      </trkpt>
      <trkpt lat="45.08768" lon="0.66244">
        <ele>151.54</ele>
        <time>2019-04-18T13:19:54Z</time>
      </trkpt>
      <trkpt lat="45.08751" lon="0.66244">
        <ele>152.51</ele>
        <time>2019-04-18T13:20:10Z</time>
      </trkpt>
      <trkpt lat="45.08737" lon="0.66242">
        <ele>152.99</ele>
        <time>2019-04-18T13:20:22Z</time>
      </trkpt>
      <trkpt lat="45.0873" lon="0.66237">
        <ele>153.95</ele>
        <time>2019-04-18T13:20:31Z</time>
      </trkpt>
      <trkpt lat="45.08721" lon="0.66214">
        <ele>155.87</ele>
        <time>2019-04-18T13:20:50Z</time>
      </trkpt>
      <trkpt lat="45.08715" lon="0.66194">
        <ele>157.31</ele>
        <time>2019-04-18T13:21:05Z</time>
      </trkpt>
      <trkpt lat="45.0871" lon="0.6618">
        <ele>158.27</ele>
        <time>2019-04-18T13:21:15Z</time>
      </trkpt>
      <trkpt lat="45.08706" lon="0.66164">
        <ele>159.24</ele>
        <time>2019-04-18T13:21:26Z</time>
      </trkpt>
      <trkpt lat="45.08706" lon="0.66159">
        <ele>159.24</ele>
        <time>2019-04-18T13:21:29Z</time>
      </trkpt>
      <trkpt lat="45.08701" lon="0.66142">
        <ele>160.2</ele>
        <time>2019-04-18T13:21:42Z</time>
      </trkpt>
      <trkpt lat="45.08701" lon="0.6614">
        <ele>160.2</ele>
        <time>2019-04-18T13:21:44Z</time>
      </trkpt>
      <trkpt lat="45.08694" lon="0.66119">
        <ele>161.64</ele>
        <time>2019-04-18T13:21:59Z</time>
      </trkpt>
      <trkpt lat="45.08694" lon="0.66116">
        <ele>161.64</ele>
        <time>2019-04-18T13:22:01Z</time>
      </trkpt>
      <trkpt lat="45.08691" lon="0.66101">
        <ele>162.6</ele>
        <time>2019-04-18T13:22:11Z</time>
      </trkpt>
      <trkpt lat="45.0869" lon="0.66091">
        <ele>163.08</ele>
        <time>2019-04-18T13:22:19Z</time>
      </trkpt>
      <trkpt lat="45.08689" lon="0.66069">
        <ele>164.52</ele>
        <time>2019-04-18T13:22:34Z</time>
      </trkpt>
      <trkpt lat="45.08686" lon="0.66051">
        <ele>165.48</ele>
        <time>2019-04-18T13:22:46Z</time>
      </trkpt>
      <trkpt lat="45.08685" lon="0.66036">
        <ele>166.93</ele>
        <time>2019-04-18T13:23:00Z</time>
      </trkpt>
      <trkpt lat="45.0868" lon="0.66034">
        <ele>166.45</ele>
        <time>2019-04-18T13:23:25Z</time>
      </trkpt>
      <trkpt lat="45.08679" lon="0.66017">
        <ele>167.41</ele>
        <time>2019-04-18T13:23:42Z</time>
      </trkpt>
      <trkpt lat="45.0868" lon="0.65989">
        <ele>168.85</ele>
        <time>2019-04-18T13:24:02Z</time>
      </trkpt>
      <trkpt lat="45.08678" lon="0.65974">
        <ele>170.29</ele>
        <time>2019-04-18T13:24:14Z</time>
      </trkpt>
      <trkpt lat="45.08675" lon="0.65959">
        <ele>171.25</ele>
        <time>2019-04-18T13:24:27Z</time>
      </trkpt>
      <trkpt lat="45.08673" lon="0.6594">
        <ele>172.69</ele>
        <time>2019-04-18T13:24:42Z</time>
      </trkpt>
      <trkpt lat="45.08665" lon="0.6592">
        <ele>174.62</ele>
        <time>2019-04-18T13:24:59Z</time>
      </trkpt>
      <trkpt lat="45.08658" lon="0.65904">
        <ele>176.06</ele>
        <time>2019-04-18T13:25:15Z</time>
      </trkpt>
      <trkpt lat="45.08647" lon="0.65888">
        <ele>177.98</ele>
        <time>2019-04-18T13:25:34Z</time>
      </trkpt>
      <trkpt lat="45.08636" lon="0.65875">
        <ele>179.9</ele>
        <time>2019-04-18T13:25:52Z</time>
      </trkpt>
      <trkpt lat="45.08625" lon="0.65858">
        <ele>181.35</ele>
        <time>2019-04-18T13:26:10Z</time>
      </trkpt>
      <trkpt lat="45.08619" lon="0.65846">
        <ele>181.83</ele>
        <time>2019-04-18T13:26:26Z</time>
      </trkpt>
      <trkpt lat="45.08616" lon="0.65847">
        <ele>182.31</ele>
        <time>2019-04-18T13:26:54Z</time>
      </trkpt>
      <trkpt lat="45.08615" lon="0.65845">
        <ele>182.31</ele>
        <time>2019-04-18T13:27:22Z</time>
      </trkpt>
      <trkpt lat="45.08614" lon="0.65843">
        <ele>182.31</ele>
        <time>2019-04-18T13:27:44Z</time>
      </trkpt>
      <trkpt lat="45.08613" lon="0.6584">
        <ele>182.31</ele>
        <time>2019-04-18T13:28:03Z</time>
      </trkpt>
      <trkpt lat="45.0861" lon="0.65835">
        <ele>182.31</ele>
        <time>2019-04-18T13:28:18Z</time>
      </trkpt>
      <trkpt lat="45.08609" lon="0.6583">
        <ele>182.31</ele>
        <time>2019-04-18T13:28:53Z</time>
      </trkpt>
      <trkpt lat="45.08602" lon="0.65818">
        <ele>182.79</ele>
        <time>2019-04-18T13:29:08Z</time>
      </trkpt>
      <trkpt lat="45.08595" lon="0.65798">
        <ele>183.27</ele>
        <time>2019-04-18T13:29:26Z</time>
      </trkpt>
      <trkpt lat="45.08588" lon="0.65774">
        <ele>185.19</ele>
        <time>2019-04-18T13:29:44Z</time>
      </trkpt>
      <trkpt lat="45.0858" lon="0.65754">
        <ele>186.63</ele>
        <time>2019-04-18T13:30:01Z</time>
      </trkpt>
      <trkpt lat="45.08572" lon="0.65731">
        <ele>187.59</ele>
        <time>2019-04-18T13:30:19Z</time>
      </trkpt>
      <trkpt lat="45.08561" lon="0.65717">
        <ele>189.52</ele>
        <time>2019-04-18T13:30:36Z</time>
      </trkpt>
      <trkpt lat="45.08553" lon="0.65714">
        <ele>190</ele>
        <time>2019-04-18T13:30:47Z</time>
      </trkpt>
      <trkpt lat="45.08552" lon="0.65714">
        <ele>190</ele>
        <time>2019-04-18T13:30:48Z</time>
      </trkpt>
      <trkpt lat="45.08542" lon="0.65714">
        <ele>190.96</ele>
        <time>2019-04-18T13:30:59Z</time>
      </trkpt>
      <trkpt lat="45.08537" lon="0.65714">
        <ele>191.44</ele>
        <time>2019-04-18T13:31:04Z</time>
      </trkpt>
      <trkpt lat="45.08523" lon="0.6571">
        <ele>191.92</ele>
        <time>2019-04-18T13:31:18Z</time>
      </trkpt>
      <trkpt lat="45.08515" lon="0.65717">
        <ele>192.4</ele>
        <time>2019-04-18T13:31:34Z</time>
      </trkpt>
      <trkpt lat="45.08513" lon="0.65736">
        <ele>194.32</ele>
        <time>2019-04-18T13:31:54Z</time>
      </trkpt>
      <trkpt lat="45.0851" lon="0.65758">
        <ele>196.73</ele>
        <time>2019-04-18T13:32:10Z</time>
      </trkpt>
      <trkpt lat="45.0851" lon="0.65762">
        <ele>197.21</ele>
        <time>2019-04-18T13:32:12Z</time>
      </trkpt>
      <trkpt lat="45.0851" lon="0.65769">
        <ele>197.21</ele>
        <time>2019-04-18T13:32:17Z</time>
      </trkpt>
      <trkpt lat="45.08512" lon="0.65776">
        <ele>198.17</ele>
        <time>2019-04-18T13:32:23Z</time>
      </trkpt>
      <trkpt lat="45.08511" lon="0.65778">
        <ele>198.17</ele>
        <time>2019-04-18T13:32:24Z</time>
      </trkpt>
      <trkpt lat="45.08511" lon="0.65787">
        <ele>199.13</ele>
        <time>2019-04-18T13:32:34Z</time>
      </trkpt>
      <trkpt lat="45.08511" lon="0.65791">
        <ele>199.13</ele>
        <time>2019-04-18T13:32:37Z</time>
      </trkpt>
      <trkpt lat="45.08506" lon="0.6581">
        <ele>200.57</ele>
        <time>2019-04-18T13:32:53Z</time>
      </trkpt>
      <trkpt lat="45.085" lon="0.65825">
        <ele>202.01</ele>
        <time>2019-04-18T13:33:08Z</time>
      </trkpt>
      <trkpt lat="45.08499" lon="0.65832">
        <ele>202.49</ele>
        <time>2019-04-18T13:33:15Z</time>
      </trkpt>
      <trkpt lat="45.08496" lon="0.65841">
        <ele>202.98</ele>
        <time>2019-04-18T13:33:23Z</time>
      </trkpt>
      <trkpt lat="45.08495" lon="0.65842">
        <ele>202.98</ele>
        <time>2019-04-18T13:33:24Z</time>
      </trkpt>
      <trkpt lat="45.08494" lon="0.65846">
        <ele>203.46</ele>
        <time>2019-04-18T13:33:27Z</time>
      </trkpt>
      <trkpt lat="45.08488" lon="0.65853">
        <ele>204.42</ele>
        <time>2019-04-18T13:33:39Z</time>
      </trkpt>
      <trkpt lat="45.08486" lon="0.65852">
        <ele>204.9</ele>
        <time>2019-04-18T13:33:50Z</time>
      </trkpt>
      <trkpt lat="45.08482" lon="0.65861">
        <ele>205.38</ele>
        <time>2019-04-18T13:34:04Z</time>
      </trkpt>
      <trkpt lat="45.08481" lon="0.65863">
        <ele>205.38</ele>
        <time>2019-04-18T13:34:05Z</time>
      </trkpt>
      <trkpt lat="45.08469" lon="0.65877">
        <ele>207.78</ele>
        <time>2019-04-18T13:34:24Z</time>
      </trkpt>
      <trkpt lat="45.08459" lon="0.65883">
        <ele>209.22</ele>
        <time>2019-04-18T13:34:38Z</time>
      </trkpt>
      <trkpt lat="45.08448" lon="0.65893">
        <ele>211.15</ele>
        <time>2019-04-18T13:34:52Z</time>
      </trkpt>
      <trkpt lat="45.08437" lon="0.65904">
        <ele>213.07</ele>
        <time>2019-04-18T13:35:06Z</time>
      </trkpt>
      <trkpt lat="45.08426" lon="0.65914">
        <ele>214.51</ele>
        <time>2019-04-18T13:35:19Z</time>
      </trkpt>
      <trkpt lat="45.08411" lon="0.65927">
        <ele>216.43</ele>
        <time>2019-04-18T13:35:36Z</time>
      </trkpt>
      <trkpt lat="45.08402" lon="0.65934">
        <ele>218.36</ele>
        <time>2019-04-18T13:35:50Z</time>
      </trkpt>
      <trkpt lat="45.08391" lon="0.65946">
        <ele>218.84</ele>
        <time>2019-04-18T13:36:04Z</time>
      </trkpt>
      <trkpt lat="45.0839" lon="0.65948">
        <ele>218.84</ele>
        <time>2019-04-18T13:36:05Z</time>
      </trkpt>
      <trkpt lat="45.08379" lon="0.65966">
        <ele>219.8</ele>
        <time>2019-04-18T13:36:20Z</time>
      </trkpt>
      <trkpt lat="45.08373" lon="0.65977">
        <ele>220.76</ele>
        <time>2019-04-18T13:36:28Z</time>
      </trkpt>
      <trkpt lat="45.08373" lon="0.65979">
        <ele>220.76</ele>
        <time>2019-04-18T13:36:29Z</time>
      </trkpt>
      <trkpt lat="45.08372" lon="0.6598">
        <ele>220.76</ele>
        <time>2019-04-18T13:36:30Z</time>
      </trkpt>
      <trkpt lat="45.0836" lon="0.66001">
        <ele>221.24</ele>
        <time>2019-04-18T13:36:51Z</time>
      </trkpt>
      <trkpt lat="45.08359" lon="0.66003">
        <ele>221.24</ele>
        <time>2019-04-18T13:36:53Z</time>
      </trkpt>
      <trkpt lat="45.08346" lon="0.66038">
        <ele>221.72</ele>
        <time>2019-04-18T13:37:18Z</time>
      </trkpt>
      <trkpt lat="45.0834" lon="0.66062">
        <ele>221.72</ele>
        <time>2019-04-18T13:37:36Z</time>
      </trkpt>
      <trkpt lat="45.08326" lon="0.6609">
        <ele>221.24</ele>
        <time>2019-04-18T13:37:58Z</time>
      </trkpt>
      <trkpt lat="45.08315" lon="0.66115">
        <ele>220.76</ele>
        <time>2019-04-18T13:38:18Z</time>
      </trkpt>
      <trkpt lat="45.08298" lon="0.66131">
        <ele>219.8</ele>
        <time>2019-04-18T13:38:36Z</time>
      </trkpt>
      <trkpt lat="45.08282" lon="0.66135">
        <ele>220.28</ele>
        <time>2019-04-18T13:38:53Z</time>
      </trkpt>
      <trkpt lat="45.08264" lon="0.66134">
        <ele>220.76</ele>
        <time>2019-04-18T13:39:10Z</time>
      </trkpt>
      <trkpt lat="45.08247" lon="0.66129">
        <ele>223.16</ele>
        <time>2019-04-18T13:39:29Z</time>
      </trkpt>
      <trkpt lat="45.08234" lon="0.66128">
        <ele>222.2</ele>
        <time>2019-04-18T13:39:46Z</time>
      </trkpt>
      <trkpt lat="45.08142" lon="0.66117">
        <ele>204.6</ele>
      </trkpt>
      <trkpt lat="45.08035" lon="0.66155">
        <ele>205.3</ele>
      </trkpt>
      <trkpt lat="45.07827" lon="0.66123">
        <ele>207.6</ele>
      </trkpt>
      <trkpt lat="45.07947" lon="0.65948">
        <ele>202.4</ele>
      </trkpt>
      <trkpt lat="45.07967" lon="0.65783">
        <ele>201.8</ele>
      </trkpt>
      <trkpt lat="45.08074" lon="0.65553">
        <ele>183.1</ele>
      </trkpt>
      <trkpt lat="45.08077" lon="0.65419">
        <ele>179.8</ele>
      </trkpt>
      <trkpt lat="45.08022" lon="0.65493">
        <ele>188.3</ele>
      </trkpt>
      <trkpt lat="45.07915" lon="0.65534">
        <ele>201.1</ele>
      </trkpt>
      <trkpt lat="45.07801" lon="0.65571">
        <ele>207.3</ele>
      </trkpt>
      <trkpt lat="45.07736" lon="0.65732">
        <ele>216.9</ele>
      </trkpt>
      <trkpt lat="45.07681" lon="0.65672">
        <ele>217.5</ele>
      </trkpt>
      <trkpt lat="45.07622" lon="0.65792">
        <ele>220.8</ele>
      </trkpt>
      <trkpt lat="45.07694" lon="0.6599">
        <ele>214.7</ele>
      </trkpt>
      <trkpt lat="45.07697" lon="0.66045">
        <ele>213.3</ele>
      </trkpt>
      <trkpt lat="45.07652" lon="0.66151">
        <ele>213.7</ele>
      </trkpt>
      <trkpt lat="45.076" lon="0.66358">
        <ele>217.8</ele>
      </trkpt>
      <trkpt lat="45.0759" lon="0.66468">
        <ele>221.6</ele>
      </trkpt>
      <trkpt lat="45.07681" lon="0.66588">
        <ele>223.8</ele>
      </trkpt>
      <trkpt lat="45.07557" lon="0.6685">
        <ele>229.7</ele>
      </trkpt>
      <trkpt lat="45.07424" lon="0.66997">
        <ele>230.3</ele>
      </trkpt>
      <trkpt lat="45.07343" lon="0.67103">
        <ele>228.7</ele>
      </trkpt>
      <trkpt lat="45.0748" lon="0.67209">
        <ele>221</ele>
      </trkpt>
      <trkpt lat="45.0758" lon="0.67153">
        <ele>222.2</ele>
      </trkpt>
      <trkpt lat="45.07629" lon="0.67163">
        <ele>222.4</ele>
      </trkpt>
      <trkpt lat="45.07681" lon="0.67144">
        <ele>222</ele>
      </trkpt>
      <trkpt lat="45.07749" lon="0.67176">
        <ele>219.9</ele>
      </trkpt>
      <trkpt lat="45.07817" lon="0.67172">
        <ele>218.3</ele>
      </trkpt>
      <trkpt lat="45.07902" lon="0.67209">
        <ele>214.6</ele>
      </trkpt>
      <trkpt lat="45.07999" lon="0.67158">
        <ele>204.1</ele>
      </trkpt>
      <trkpt lat="45.08201" lon="0.6714">
        <ele>187.1</ele>
      </trkpt>
      <trkpt lat="45.0821" lon="0.67084">
        <ele>186.6</ele>
      </trkpt>
      <trkpt lat="45.08139" lon="0.67006">
        <ele>189</ele>
      </trkpt>
      <trkpt lat="45.08334" lon="0.66947">
        <ele>172.7</ele>
      </trkpt>
      <trkpt lat="45.08382" lon="0.66965">
        <ele>169.9</ele>
      </trkpt>
      <trkpt lat="45.08454" lon="0.66868">
        <ele>165.7</ele>
      </trkpt>
      <trkpt lat="45.08495" lon="0.66769">
        <ele>171.7</ele>
        <time>2019-04-18T13:58:29Z</time>
      </trkpt>
    </trkseg>
  </trk>
  <trk>
    <name><![CDATA[toutes les traces autour de st mayme de pereyrol_28]]></name>
    <trkseg>
      <trkpt lat="45.07475" lon="0.6724">
        <ele>219.7</ele>
      </trkpt>
      <trkpt lat="45.07396" lon="0.67367">
        <ele>219.1</ele>
      </trkpt>
      <trkpt lat="45.07306" lon="0.67412">
        <ele>219.2</ele>
      </trkpt>
      <trkpt lat="45.07206" lon="0.67464">
        <ele>219.2</ele>
      </trkpt>
      <trkpt lat="45.07032" lon="0.67352">
        <ele>225.7</ele>
      </trkpt>
      <trkpt lat="45.06789" lon="0.67352">
        <ele>224.5</ele>
      </trkpt>
      <trkpt lat="45.06625" lon="0.67203">
        <ele>216</ele>
      </trkpt>
      <trkpt lat="45.06435" lon="0.67195">
        <ele>208.3</ele>
      </trkpt>
      <trkpt lat="45.0615" lon="0.67255">
        <ele>199.8</ele>
      </trkpt>
      <trkpt lat="45.06092" lon="0.6715">
        <ele>195.6</ele>
      </trkpt>
      <trkpt lat="45.05966" lon="0.67165">
        <ele>181.9</ele>
      </trkpt>
      <trkpt lat="45.05855" lon="0.67218">
        <ele>182</ele>
      </trkpt>
      <trkpt lat="45.05728" lon="0.67128">
        <ele>156.3</ele>
      </trkpt>
      <trkpt lat="45.05612" lon="0.67255">
        <ele>143.8</ele>
      </trkpt>
      <trkpt lat="45.05501" lon="0.67278">
        <ele>140.2</ele>
      </trkpt>
      <trkpt lat="45.05211" lon="0.67457">
        <ele>153.9</ele>
      </trkpt>
      <trkpt lat="45.05005" lon="0.67733">
        <ele>161</ele>
      </trkpt>
      <trkpt lat="45.04883" lon="0.67786">
        <ele>156.3</ele>
      </trkpt>
      <trkpt lat="45.04815" lon="0.6789">
        <ele>157.7</ele>
      </trkpt>
      <trkpt lat="45.04741" lon="0.68002">
        <ele>155.1</ele>
      </trkpt>
      <trkpt lat="45.04725" lon="0.68092">
        <ele>159.9</ele>
      </trkpt>
      <trkpt lat="45.04688" lon="0.68197">
        <ele>167.5</ele>
      </trkpt>
      <trkpt lat="45.04672" lon="0.68391">
        <ele>186.7</ele>
      </trkpt>
      <trkpt lat="45.04767" lon="0.68697">
        <ele>208.1</ele>
      </trkpt>
      <trkpt lat="45.04646" lon="0.68794">
        <ele>205.8</ele>
      </trkpt>
      <trkpt lat="45.04535" lon="0.68794">
        <ele>206.1</ele>
      </trkpt>
      <trkpt lat="45.04456" lon="0.68779">
        <ele>205.4</ele>
      </trkpt>
      <trkpt lat="45.04451" lon="0.68854">
        <ele>204.4</ele>
      </trkpt>
      <trkpt lat="45.04324" lon="0.68854">
        <ele>197.9</ele>
      </trkpt>
      <trkpt lat="45.04229" lon="0.68824">
        <ele>190.3</ele>
      </trkpt>
      <trkpt lat="45.04155" lon="0.6872">
        <ele>175.7</ele>
      </trkpt>
      <trkpt lat="45.04102" lon="0.68585">
        <ele>179.4</ele>
      </trkpt>
      <trkpt lat="45.04049" lon="0.68488">
        <ele>194.8</ele>
      </trkpt>
      <trkpt lat="45.04007" lon="0.68391">
        <ele>201.1</ele>
      </trkpt>
      <trkpt lat="45.04028" lon="0.68294">
        <ele>202</ele>
      </trkpt>
      <trkpt lat="45.03954" lon="0.68159">
        <ele>217.8</ele>
      </trkpt>
      <trkpt lat="45.0387" lon="0.67987">
        <ele>223.4</ele>
      </trkpt>
      <trkpt lat="45.03822" lon="0.67838">
        <ele>213.9</ele>
      </trkpt>
      <trkpt lat="45.03722" lon="0.67726">
        <ele>202.1</ele>
      </trkpt>
      <trkpt lat="45.03764" lon="0.67494">
        <ele>184.9</ele>
      </trkpt>
      <trkpt lat="45.03733" lon="0.67412">
        <ele>171.4</ele>
      </trkpt>
      <trkpt lat="45.03632" lon="0.67449">
        <ele>173.1</ele>
      </trkpt>
      <trkpt lat="45.03463" lon="0.67487">
        <ele>145.5</ele>
      </trkpt>
      <trkpt lat="45.03373" lon="0.67494">
        <ele>133.7</ele>
      </trkpt>
      <trkpt lat="45.03326" lon="0.67427">
        <ele>125</ele>
      </trkpt>
      <trkpt lat="45.03252" lon="0.67375">
        <ele>118.6</ele>
      </trkpt>
      <trkpt lat="45.03099" lon="0.67128">
        <ele>114.5</ele>
      </trkpt>
      <trkpt lat="45.0303" lon="0.6718">
        <ele>116.8</ele>
      </trkpt>
      <trkpt lat="45.02977" lon="0.66994">
        <ele>120.6</ele>
      </trkpt>
    </trkseg>
  </trk>
  <trk>
    <name><![CDATA[boucle de st mayme 6km]]></name>
    <trkseg>
      <trkpt lat="45.01683" lon="0.64898">
        <ele>179.1</ele>
      </trkpt>
      <trkpt lat="45.01829" lon="0.65051">
        <ele>176</ele>
      </trkpt>
      <trkpt lat="45.01908" lon="0.65081">
        <ele>176.7</ele>
      </trkpt>
      <trkpt lat="45.01963" lon="0.65111">
        <ele>170.4</ele>
      </trkpt>
      <trkpt lat="45.02095" lon="0.65103">
        <ele>165.7</ele>
      </trkpt>
      <trkpt lat="45.0218" lon="0.6507">
        <ele>168.8</ele>
      </trkpt>
      <trkpt lat="45.0223" lon="0.65099">
        <ele>168.6</ele>
      </trkpt>
      <trkpt lat="45.02317" lon="0.65122">
        <ele>170.7</ele>
      </trkpt>
      <trkpt lat="45.02423" lon="0.65238">
        <ele>165.2</ele>
      </trkpt>
      <trkpt lat="45.02497" lon="0.65312">
        <ele>161.8</ele>
      </trkpt>
      <trkpt lat="45.026" lon="0.65566">
        <ele>160.6</ele>
      </trkpt>
      <trkpt lat="45.02647" lon="0.65675">
        <ele>159.3</ele>
      </trkpt>
      <trkpt lat="45.0269" lon="0.6572">
        <ele>170.5</ele>
      </trkpt>
      <trkpt lat="45.02771" lon="0.65869">
        <ele>187</ele>
      </trkpt>
      <trkpt lat="45.02822" lon="0.65974">
        <ele>187.8</ele>
      </trkpt>
      <trkpt lat="45.03006" lon="0.6603">
        <ele>203.8</ele>
      </trkpt>
      <trkpt lat="45.02959" lon="0.66134">
        <ele>195</ele>
      </trkpt>
      <trkpt lat="45.02956" lon="0.66381">
        <ele>180</ele>
      </trkpt>
      <trkpt lat="45.02991" lon="0.66441">
        <ele>170.4</ele>
      </trkpt>
      <trkpt lat="45.02948" lon="0.66598">
        <ele>152.7</ele>
      </trkpt>
      <trkpt lat="45.02956" lon="0.66683">
        <ele>141.9</ele>
      </trkpt>
      <trkpt lat="45.02888" lon="0.66811">
        <ele>131.4</ele>
      </trkpt>
      <trkpt lat="45.0298" lon="0.66952">
        <ele>121.2</ele>
      </trkpt>
      <trkpt lat="45.02962" lon="0.66982">
        <ele>121.3</ele>
      </trkpt>
      <trkpt lat="45.02896" lon="0.66896">
        <ele>127</ele>
      </trkpt>
      <trkpt lat="45.02851" lon="0.66811">
        <ele>129.7</ele>
      </trkpt>
      <trkpt lat="45.0279" lon="0.66773">
        <ele>128</ele>
      </trkpt>
      <trkpt lat="45.02708" lon="0.66725">
        <ele>132.8</ele>
      </trkpt>
      <trkpt lat="45.02684" lon="0.66631">
        <ele>129.7</ele>
      </trkpt>
      <trkpt lat="45.02661" lon="0.66549">
        <ele>128.3</ele>
      </trkpt>
      <trkpt lat="45.02581" lon="0.66441">
        <ele>133.7</ele>
      </trkpt>
      <trkpt lat="45.02534" lon="0.6637">
        <ele>138.3</ele>
      </trkpt>
      <trkpt lat="45.02481" lon="0.66347">
        <ele>142.4</ele>
      </trkpt>
      <trkpt lat="45.02323" lon="0.66396">
        <ele>138</ele>
      </trkpt>
      <trkpt lat="45.02225" lon="0.66392">
        <ele>138.8</ele>
      </trkpt>
      <trkpt lat="45.02066" lon="0.66377">
        <ele>140.5</ele>
      </trkpt>
      <trkpt lat="45.01879" lon="0.66306">
        <ele>139.9</ele>
      </trkpt>
      <trkpt lat="45.01858" lon="0.66504">
        <ele>154.5</ele>
      </trkpt>
      <trkpt lat="45.01731" lon="0.66669">
        <ele>155.9</ele>
      </trkpt>
      <trkpt lat="45.01723" lon="0.66586">
        <ele>158.8</ele>
      </trkpt>
      <trkpt lat="45.01665" lon="0.66366">
        <ele>158.1</ele>
      </trkpt>
      <trkpt lat="45.01562" lon="0.66213">
        <ele>142.7</ele>
      </trkpt>
      <trkpt lat="45.01507" lon="0.66011">
        <ele>139.9</ele>
      </trkpt>
      <trkpt lat="45.01464" lon="0.65832">
        <ele>154</ele>
      </trkpt>
      <trkpt lat="45.01374" lon="0.65772">
        <ele>150.8</ele>
      </trkpt>
      <trkpt lat="45.01369" lon="0.65619">
        <ele>155.3</ele>
      </trkpt>
      <trkpt lat="45.01512" lon="0.65339">
        <ele>173.1</ele>
      </trkpt>
      <trkpt lat="45.01544" lon="0.65215">
        <ele>179.2</ele>
      </trkpt>
      <trkpt lat="45.01544" lon="0.65114">
        <ele>183.1</ele>
      </trkpt>
      <trkpt lat="45.01615" lon="0.65073">
        <ele>185.3</ele>
      </trkpt>
      <trkpt lat="45.01683" lon="0.64898">
        <ele>179.1</ele>
      </trkpt>
    </trkseg>
  </trk>
  <trk>
    <name><![CDATA[randogps24-376]]></name>
    <extensions>
      <line xmlns="http://www.topografix.com/GPX/gpx_style/0/2">
        <color>0000FF</color>
        <width>4</width>
      </line>
    </extensions>
    <trkseg>
      <trkpt lat="44.95932" lon="0.73682">
        <ele>125.11</ele>
        <time>2017-08-11T12:49:46Z</time>
      </trkpt>
      <trkpt lat="44.95932" lon="0.73682">
        <ele>126.55</ele>
        <time>2017-08-11T12:49:47Z</time>
      </trkpt>
      <trkpt lat="44.95932" lon="0.73682">
        <ele>125.59</ele>
        <time>2017-08-11T12:49:48Z</time>
      </trkpt>
      <trkpt lat="44.95932" lon="0.73683">
        <ele>125.59</ele>
        <time>2017-08-11T12:50:20Z</time>
      </trkpt>
      <trkpt lat="44.95932" lon="0.73683">
        <ele>125.59</ele>
        <time>2017-08-11T12:50:45Z</time>
      </trkpt>
      <trkpt lat="44.95933" lon="0.73684">
        <ele>126.07</ele>
        <time>2017-08-11T12:51:06Z</time>
      </trkpt>
      <trkpt lat="44.95933" lon="0.73684">
        <ele>127.03</ele>
        <time>2017-08-11T12:51:31Z</time>
      </trkpt>
      <trkpt lat="44.95933" lon="0.73683">
        <ele>127.99</ele>
        <time>2017-08-11T12:51:46Z</time>
      </trkpt>
      <trkpt lat="44.95932" lon="0.73683">
        <ele>126.55</ele>
        <time>2017-08-11T12:51:59Z</time>
      </trkpt>
      <trkpt lat="44.95932" lon="0.73683">
        <ele>126.55</ele>
        <time>2017-08-11T12:52:18Z</time>
      </trkpt>
      <trkpt lat="44.95926" lon="0.73686">
        <ele>127.03</ele>
        <time>2017-08-11T12:52:26Z</time>
      </trkpt>
      <trkpt lat="44.95923" lon="0.73699">
        <ele>127.99</ele>
        <time>2017-08-11T12:52:37Z</time>
      </trkpt>
      <trkpt lat="44.95922" lon="0.73703">
        <ele>127.51</ele>
        <time>2017-08-11T12:52:42Z</time>
      </trkpt>
      <trkpt lat="44.95921" lon="0.73706">
        <ele>128.47</ele>
        <time>2017-08-11T12:52:45Z</time>
      </trkpt>
      <trkpt lat="44.95916" lon="0.7372">
        <ele>128.95</ele>
        <time>2017-08-11T12:52:59Z</time>
      </trkpt>
      <trkpt lat="44.95909" lon="0.73738">
        <ele>129.43</ele>
        <time>2017-08-11T12:53:09Z</time>
      </trkpt>
      <trkpt lat="44.95905" lon="0.73755">
        <ele>130.4</ele>
        <time>2017-08-11T12:53:22Z</time>
      </trkpt>
      <trkpt lat="44.95905" lon="0.7376">
        <ele>130.4</ele>
        <time>2017-08-11T12:53:25Z</time>
      </trkpt>
      <trkpt lat="44.95903" lon="0.73766">
        <ele>130.4</ele>
        <time>2017-08-11T12:53:28Z</time>
      </trkpt>
      <trkpt lat="44.95904" lon="0.73785">
        <ele>130.4</ele>
        <time>2017-08-11T12:53:41Z</time>
      </trkpt>
      <trkpt lat="44.95906" lon="0.73791">
        <ele>130.4</ele>
        <time>2017-08-11T12:53:55Z</time>
      </trkpt>
      <trkpt lat="44.95908" lon="0.73787">
        <ele>130.4</ele>
        <time>2017-08-11T12:54:12Z</time>
      </trkpt>
      <trkpt lat="44.95909" lon="0.73786">
        <ele>130.4</ele>
        <time>2017-08-11T12:54:33Z</time>
      </trkpt>
      <trkpt lat="44.95911" lon="0.73787">
        <ele>128.95</ele>
        <time>2017-08-11T12:54:44Z</time>
      </trkpt>
      <trkpt lat="44.95914" lon="0.73786">
        <ele>128.47</ele>
        <time>2017-08-11T12:55:05Z</time>
      </trkpt>
      <trkpt lat="44.95914" lon="0.73789">
        <ele>127.51</ele>
        <time>2017-08-11T12:55:14Z</time>
      </trkpt>
      <trkpt lat="44.95922" lon="0.73791">
        <ele>126.07</ele>
        <time>2017-08-11T12:55:26Z</time>
      </trkpt>
      <trkpt lat="44.95927" lon="0.7379">
        <ele>126.07</ele>
        <time>2017-08-11T12:55:37Z</time>
      </trkpt>
      <trkpt lat="44.9594" lon="0.73792">
        <ele>125.59</ele>
        <time>2017-08-11T12:55:45Z</time>
      </trkpt>
      <trkpt lat="44.9596" lon="0.73791">
        <ele>124.63</ele>
        <time>2017-08-11T12:55:57Z</time>
      </trkpt>
      <trkpt lat="44.95973" lon="0.73793">
        <ele>124.63</ele>
        <time>2017-08-11T12:56:09Z</time>
      </trkpt>
      <trkpt lat="44.95979" lon="0.73794">
        <ele>124.15</ele>
        <time>2017-08-11T12:56:14Z</time>
      </trkpt>
      <trkpt lat="44.95986" lon="0.7379">
        <ele>124.63</ele>
        <time>2017-08-11T12:56:22Z</time>
      </trkpt>
      <trkpt lat="44.96003" lon="0.73775">
        <ele>124.15</ele>
        <time>2017-08-11T12:56:37Z</time>
      </trkpt>
      <trkpt lat="44.96005" lon="0.73772">
        <ele>124.15</ele>
        <time>2017-08-11T12:56:40Z</time>
      </trkpt>
      <trkpt lat="44.96015" lon="0.73759">
        <ele>124.63</ele>
        <time>2017-08-11T12:56:54Z</time>
      </trkpt>
      <trkpt lat="44.96015" lon="0.73758">
        <ele>125.11</ele>
        <time>2017-08-11T12:57:02Z</time>
      </trkpt>
      <trkpt lat="44.96017" lon="0.73761">
        <ele>125.11</ele>
        <time>2017-08-11T12:57:06Z</time>
      </trkpt>
      <trkpt lat="44.96021" lon="0.73767">
        <ele>125.11</ele>
        <time>2017-08-11T12:57:12Z</time>
      </trkpt>
      <trkpt lat="44.96032" lon="0.73776">
        <ele>125.59</ele>
        <time>2017-08-11T12:57:25Z</time>
      </trkpt>
      <trkpt lat="44.96038" lon="0.73782">
        <ele>126.07</ele>
        <time>2017-08-11T12:57:34Z</time>
      </trkpt>
      <trkpt lat="44.9604" lon="0.73783">
        <ele>126.55</ele>
        <time>2017-08-11T12:57:36Z</time>
      </trkpt>
      <trkpt lat="44.96051" lon="0.73788">
        <ele>127.03</ele>
        <time>2017-08-11T12:57:48Z</time>
      </trkpt>
      <trkpt lat="44.96054" lon="0.7379">
        <ele>127.99</ele>
        <time>2017-08-11T12:57:51Z</time>
      </trkpt>
      <trkpt lat="44.96055" lon="0.73791">
        <ele>127.03</ele>
        <time>2017-08-11T12:57:53Z</time>
      </trkpt>
      <trkpt lat="44.96068" lon="0.73799">
        <ele>127.99</ele>
        <time>2017-08-11T12:58:08Z</time>
      </trkpt>
      <trkpt lat="44.9608" lon="0.73808">
        <ele>128.95</ele>
        <time>2017-08-11T12:58:21Z</time>
      </trkpt>
      <trkpt lat="44.96091" lon="0.73813">
        <ele>129.43</ele>
        <time>2017-08-11T12:58:32Z</time>
      </trkpt>
      <trkpt lat="44.96097" lon="0.73818">
        <ele>129.43</ele>
        <time>2017-08-11T12:58:39Z</time>
      </trkpt>
      <trkpt lat="44.96098" lon="0.73819">
        <ele>129.43</ele>
        <time>2017-08-11T12:58:41Z</time>
      </trkpt>
      <trkpt lat="44.96102" lon="0.73821">
        <ele>129.92</ele>
        <time>2017-08-11T12:58:44Z</time>
      </trkpt>
      <trkpt lat="44.96105" lon="0.73823">
        <ele>129.92</ele>
        <time>2017-08-11T12:58:47Z</time>
      </trkpt>
      <trkpt lat="44.96117" lon="0.73829">
        <ele>130.88</ele>
        <time>2017-08-11T12:59:01Z</time>
      </trkpt>
      <trkpt lat="44.96119" lon="0.73831">
        <ele>130.88</ele>
        <time>2017-08-11T12:59:03Z</time>
      </trkpt>
      <trkpt lat="44.96131" lon="0.73836">
        <ele>131.36</ele>
        <time>2017-08-11T12:59:15Z</time>
      </trkpt>
      <trkpt lat="44.96139" lon="0.73843">
        <ele>132.32</ele>
        <time>2017-08-11T12:59:28Z</time>
      </trkpt>
      <trkpt lat="44.96148" lon="0.7385">
        <ele>132.8</ele>
        <time>2017-08-11T12:59:37Z</time>
      </trkpt>
      <trkpt lat="44.96152" lon="0.73852">
        <ele>132.8</ele>
        <time>2017-08-11T12:59:40Z</time>
      </trkpt>
      <trkpt lat="44.96165" lon="0.73864">
        <ele>133.28</ele>
        <time>2017-08-11T12:59:53Z</time>
      </trkpt>
      <trkpt lat="44.96175" lon="0.73872">
        <ele>133.28</ele>
        <time>2017-08-11T13:00:07Z</time>
      </trkpt>
      <trkpt lat="44.96185" lon="0.7388">
        <ele>134.24</ele>
        <time>2017-08-11T13:00:16Z</time>
      </trkpt>
      <trkpt lat="44.96198" lon="0.73883">
        <ele>135.2</ele>
        <time>2017-08-11T13:00:30Z</time>
      </trkpt>
      <trkpt lat="44.96208" lon="0.73876">
        <ele>136.64</ele>
        <time>2017-08-11T13:00:42Z</time>
      </trkpt>
      <trkpt lat="44.96211" lon="0.73874">
        <ele>137.61</ele>
        <time>2017-08-11T13:00:48Z</time>
      </trkpt>
      <trkpt lat="44.96223" lon="0.73872">
        <ele>139.05</ele>
        <time>2017-08-11T13:01:02Z</time>
      </trkpt>
      <trkpt lat="44.96227" lon="0.73874">
        <ele>140.49</ele>
        <time>2017-08-11T13:01:15Z</time>
      </trkpt>
      <trkpt lat="44.96235" lon="0.73874">
        <ele>141.93</ele>
        <time>2017-08-11T13:01:27Z</time>
      </trkpt>
      <trkpt lat="44.96246" lon="0.7388">
        <ele>143.37</ele>
        <time>2017-08-11T13:01:41Z</time>
      </trkpt>
      <trkpt lat="44.96258" lon="0.73884">
        <ele>145.78</ele>
        <time>2017-08-11T13:01:57Z</time>
      </trkpt>
      <trkpt lat="44.96266" lon="0.73888">
        <ele>146.74</ele>
        <time>2017-08-11T13:02:09Z</time>
      </trkpt>
      <trkpt lat="44.96271" lon="0.7389">
        <ele>148.66</ele>
        <time>2017-08-11T13:02:22Z</time>
      </trkpt>
      <trkpt lat="44.96279" lon="0.73894">
        <ele>150.58</ele>
        <time>2017-08-11T13:02:37Z</time>
      </trkpt>
      <trkpt lat="44.96282" lon="0.73896">
        <ele>152.99</ele>
        <time>2017-08-11T13:02:55Z</time>
      </trkpt>
      <trkpt lat="44.96287" lon="0.73899">
        <ele>154.43</ele>
        <time>2017-08-11T13:03:08Z</time>
      </trkpt>
      <trkpt lat="44.96293" lon="0.73904">
        <ele>155.87</ele>
        <time>2017-08-11T13:03:19Z</time>
      </trkpt>
      <trkpt lat="44.96308" lon="0.73915">
        <ele>157.31</ele>
        <time>2017-08-11T13:03:33Z</time>
      </trkpt>
      <trkpt lat="44.96315" lon="0.7392">
        <ele>158.75</ele>
        <time>2017-08-11T13:03:50Z</time>
      </trkpt>
      <trkpt lat="44.96318" lon="0.73923">
        <ele>160.2</ele>
        <time>2017-08-11T13:04:02Z</time>
      </trkpt>
      <trkpt lat="44.96324" lon="0.73927">
        <ele>162.6</ele>
        <time>2017-08-11T13:04:18Z</time>
      </trkpt>
      <trkpt lat="44.9633" lon="0.7393">
        <ele>164.04</ele>
        <time>2017-08-11T13:04:31Z</time>
      </trkpt>
      <trkpt lat="44.96346" lon="0.73937">
        <ele>165.48</ele>
        <time>2017-08-11T13:04:42Z</time>
      </trkpt>
      <trkpt lat="44.96362" lon="0.73941">
        <ele>166.45</ele>
        <time>2017-08-11T13:04:52Z</time>
      </trkpt>
      <trkpt lat="44.9637" lon="0.73947">
        <ele>167.41</ele>
        <time>2017-08-11T13:04:59Z</time>
      </trkpt>
      <trkpt lat="44.9638" lon="0.73953">
        <ele>168.37</ele>
        <time>2017-08-11T13:05:07Z</time>
      </trkpt>
      <trkpt lat="44.96389" lon="0.73959">
        <ele>169.81</ele>
        <time>2017-08-11T13:05:21Z</time>
      </trkpt>
      <trkpt lat="44.96391" lon="0.73961">
        <ele>169.81</ele>
        <time>2017-08-11T13:05:49Z</time>
      </trkpt>
      <trkpt lat="44.96394" lon="0.73963">
        <ele>170.77</ele>
        <time>2017-08-11T13:05:56Z</time>
      </trkpt>
      <trkpt lat="44.96395" lon="0.73968">
        <ele>170.77</ele>
        <time>2017-08-11T13:05:59Z</time>
      </trkpt>
      <trkpt lat="44.96404" lon="0.73978">
        <ele>172.21</ele>
        <time>2017-08-11T13:06:12Z</time>
      </trkpt>
      <trkpt lat="44.96407" lon="0.73979">
        <ele>172.21</ele>
        <time>2017-08-11T13:06:15Z</time>
      </trkpt>
      <trkpt lat="44.96415" lon="0.73984">
        <ele>172.21</ele>
        <time>2017-08-11T13:06:23Z</time>
      </trkpt>
      <trkpt lat="44.96421" lon="0.73987">
        <ele>172.69</ele>
        <time>2017-08-11T13:06:30Z</time>
      </trkpt>
      <trkpt lat="44.96427" lon="0.73989">
        <ele>173.17</ele>
        <time>2017-08-11T13:06:43Z</time>
      </trkpt>
      <trkpt lat="44.96426" lon="0.73989">
        <ele>173.17</ele>
        <time>2017-08-11T13:07:03Z</time>
      </trkpt>
      <trkpt lat="44.96426" lon="0.73989">
        <ele>173.17</ele>
        <time>2017-08-11T13:07:35Z</time>
      </trkpt>
      <trkpt lat="44.96426" lon="0.73989">
        <ele>173.17</ele>
        <time>2017-08-11T13:07:55Z</time>
      </trkpt>
      <trkpt lat="44.96426" lon="0.73989">
        <ele>173.66</ele>
        <time>2017-08-11T13:08:25Z</time>
      </trkpt>
      <trkpt lat="44.96426" lon="0.73989">
        <ele>173.66</ele>
        <time>2017-08-11T13:08:56Z</time>
      </trkpt>
      <trkpt lat="44.96427" lon="0.73988">
        <ele>173.66</ele>
        <time>2017-08-11T13:09:24Z</time>
      </trkpt>
      <trkpt lat="44.96427" lon="0.73988">
        <ele>174.14</ele>
        <time>2017-08-11T13:09:50Z</time>
      </trkpt>
      <trkpt lat="44.96427" lon="0.73988">
        <ele>174.14</ele>
        <time>2017-08-11T13:10:16Z</time>
      </trkpt>
      <trkpt lat="44.96428" lon="0.73987">
        <ele>174.14</ele>
        <time>2017-08-11T13:10:41Z</time>
      </trkpt>
      <trkpt lat="44.96427" lon="0.73986">
        <ele>174.14</ele>
        <time>2017-08-11T13:11:00Z</time>
      </trkpt>
      <trkpt lat="44.96427" lon="0.73987">
        <ele>174.62</ele>
        <time>2017-08-11T13:11:26Z</time>
      </trkpt>
      <trkpt lat="44.96427" lon="0.73989">
        <ele>175.1</ele>
        <time>2017-08-11T13:11:43Z</time>
      </trkpt>
      <trkpt lat="44.96426" lon="0.73988">
        <ele>175.1</ele>
        <time>2017-08-11T13:12:06Z</time>
      </trkpt>
      <trkpt lat="44.96426" lon="0.73988">
        <ele>175.58</ele>
        <time>2017-08-11T13:12:43Z</time>
      </trkpt>
      <trkpt lat="44.96427" lon="0.73988">
        <ele>174.14</ele>
        <time>2017-08-11T13:12:58Z</time>
      </trkpt>
      <trkpt lat="44.96427" lon="0.73988">
        <ele>177.98</ele>
        <time>2017-08-11T13:12:59Z</time>
      </trkpt>
      <trkpt lat="44.96427" lon="0.73989">
        <ele>172.69</ele>
        <time>2017-08-11T13:13:25Z</time>
      </trkpt>
      <trkpt lat="44.96427" lon="0.73989">
        <ele>178.94</ele>
        <time>2017-08-11T13:13:27Z</time>
      </trkpt>
      <trkpt lat="44.96427" lon="0.73989">
        <ele>175.1</ele>
        <time>2017-08-11T13:13:28Z</time>
      </trkpt>
      <trkpt lat="44.96427" lon="0.73989">
        <ele>175.58</ele>
        <time>2017-08-11T13:13:49Z</time>
      </trkpt>
      <trkpt lat="44.9643" lon="0.73996">
        <ele>176.06</ele>
        <time>2017-08-11T13:14:06Z</time>
      </trkpt>
      <trkpt lat="44.96434" lon="0.74009">
        <ele>176.54</ele>
        <time>2017-08-11T13:14:18Z</time>
      </trkpt>
      <trkpt lat="44.96434" lon="0.74019">
        <ele>176.54</ele>
        <time>2017-08-11T13:14:27Z</time>
      </trkpt>
      <trkpt lat="44.96435" lon="0.7404">
        <ele>177.5</ele>
        <time>2017-08-11T13:14:40Z</time>
      </trkpt>
      <trkpt lat="44.96435" lon="0.74051">
        <ele>177.98</ele>
        <time>2017-08-11T13:14:47Z</time>
      </trkpt>
      <trkpt lat="44.96435" lon="0.74055">
        <ele>177.98</ele>
        <time>2017-08-11T13:14:50Z</time>
      </trkpt>
      <trkpt lat="44.96435" lon="0.74073">
        <ele>178.94</ele>
        <time>2017-08-11T13:15:04Z</time>
      </trkpt>
      <trkpt lat="44.96435" lon="0.74074">
        <ele>178.94</ele>
        <time>2017-08-11T13:15:05Z</time>
      </trkpt>
      <trkpt lat="44.96435" lon="0.74077">
        <ele>178.94</ele>
        <time>2017-08-11T13:15:07Z</time>
      </trkpt>
      <trkpt lat="44.96433" lon="0.74096">
        <ele>180.38</ele>
        <time>2017-08-11T13:15:20Z</time>
      </trkpt>
      <trkpt lat="44.96432" lon="0.74102">
        <ele>180.38</ele>
        <time>2017-08-11T13:15:25Z</time>
      </trkpt>
      <trkpt lat="44.96431" lon="0.74122">
        <ele>181.83</ele>
        <time>2017-08-11T13:15:39Z</time>
      </trkpt>
      <trkpt lat="44.96429" lon="0.7413">
        <ele>181.83</ele>
        <time>2017-08-11T13:15:45Z</time>
      </trkpt>
      <trkpt lat="44.96428" lon="0.74133">
        <ele>181.83</ele>
        <time>2017-08-11T13:15:47Z</time>
      </trkpt>
      <trkpt lat="44.96427" lon="0.74138">
        <ele>182.31</ele>
        <time>2017-08-11T13:15:51Z</time>
      </trkpt>
      <trkpt lat="44.96424" lon="0.74151">
        <ele>182.31</ele>
        <time>2017-08-11T13:16:00Z</time>
      </trkpt>
      <trkpt lat="44.9642" lon="0.74165">
        <ele>182.31</ele>
        <time>2017-08-11T13:16:10Z</time>
      </trkpt>
      <trkpt lat="44.96419" lon="0.74171">
        <ele>182.79</ele>
        <time>2017-08-11T13:16:25Z</time>
      </trkpt>
      <trkpt lat="44.96418" lon="0.74172">
        <ele>182.79</ele>
        <time>2017-08-11T13:16:55Z</time>
      </trkpt>
      <trkpt lat="44.9642" lon="0.74161">
        <ele>182.79</ele>
        <time>2017-08-11T13:17:11Z</time>
      </trkpt>
      <trkpt lat="44.96423" lon="0.74153">
        <ele>182.79</ele>
        <time>2017-08-11T13:17:16Z</time>
      </trkpt>
      <trkpt lat="44.96425" lon="0.74147">
        <ele>182.79</ele>
        <time>2017-08-11T13:17:20Z</time>
      </trkpt>
      <trkpt lat="44.9643" lon="0.74128">
        <ele>182.31</ele>
        <time>2017-08-11T13:17:33Z</time>
      </trkpt>
      <trkpt lat="44.96434" lon="0.74117">
        <ele>181.83</ele>
        <time>2017-08-11T13:17:51Z</time>
      </trkpt>
      <trkpt lat="44.96436" lon="0.74092">
        <ele>180.87</ele>
        <time>2017-08-11T13:18:06Z</time>
      </trkpt>
      <trkpt lat="44.96438" lon="0.74084">
        <ele>180.87</ele>
        <time>2017-08-11T13:18:22Z</time>
      </trkpt>
      <trkpt lat="44.96439" lon="0.74083">
        <ele>180.87</ele>
        <time>2017-08-11T13:18:37Z</time>
      </trkpt>
      <trkpt lat="44.9644" lon="0.74063">
        <ele>179.9</ele>
        <time>2017-08-11T13:18:50Z</time>
      </trkpt>
      <trkpt lat="44.96438" lon="0.7404">
        <ele>178.94</ele>
        <time>2017-08-11T13:19:04Z</time>
      </trkpt>
      <trkpt lat="44.9644" lon="0.74024">
        <ele>178.46</ele>
        <time>2017-08-11T13:19:16Z</time>
      </trkpt>
      <trkpt lat="44.96445" lon="0.74027">
        <ele>177.98</ele>
        <time>2017-08-11T13:19:31Z</time>
      </trkpt>
      <trkpt lat="44.96445" lon="0.74028">
        <ele>178.46</ele>
        <time>2017-08-11T13:20:04Z</time>
      </trkpt>
      <trkpt lat="44.96453" lon="0.74039">
        <ele>177.5</ele>
        <time>2017-08-11T13:20:26Z</time>
      </trkpt>
      <trkpt lat="44.96461" lon="0.74046">
        <ele>177.5</ele>
        <time>2017-08-11T13:20:45Z</time>
      </trkpt>
      <trkpt lat="44.9647" lon="0.74051">
        <ele>177.02</ele>
        <time>2017-08-11T13:21:05Z</time>
      </trkpt>
      <trkpt lat="44.96488" lon="0.7406">
        <ele>175.1</ele>
        <time>2017-08-11T13:21:21Z</time>
      </trkpt>
      <trkpt lat="44.96494" lon="0.74064">
        <ele>174.62</ele>
        <time>2017-08-11T13:21:33Z</time>
      </trkpt>
      <trkpt lat="44.9651" lon="0.74062">
        <ele>174.14</ele>
        <time>2017-08-11T13:21:47Z</time>
      </trkpt>
      <trkpt lat="44.96526" lon="0.74063">
        <ele>173.17</ele>
        <time>2017-08-11T13:21:59Z</time>
      </trkpt>
      <trkpt lat="44.96528" lon="0.74063">
        <ele>173.17</ele>
        <time>2017-08-11T13:22:01Z</time>
      </trkpt>
      <trkpt lat="44.96549" lon="0.74066">
        <ele>172.69</ele>
        <time>2017-08-11T13:22:16Z</time>
      </trkpt>
      <trkpt lat="44.96564" lon="0.74066">
        <ele>171.73</ele>
        <time>2017-08-11T13:22:29Z</time>
      </trkpt>
      <trkpt lat="44.96578" lon="0.74069">
        <ele>170.77</ele>
        <time>2017-08-11T13:22:43Z</time>
      </trkpt>
      <trkpt lat="44.96587" lon="0.7407">
        <ele>170.29</ele>
        <time>2017-08-11T13:22:55Z</time>
      </trkpt>
      <trkpt lat="44.96605" lon="0.74067">
        <ele>169.33</ele>
        <time>2017-08-11T13:23:10Z</time>
      </trkpt>
      <trkpt lat="44.96617" lon="0.74067">
        <ele>169.33</ele>
        <time>2017-08-11T13:23:21Z</time>
      </trkpt>
      <trkpt lat="44.96622" lon="0.7407">
        <ele>169.33</ele>
        <time>2017-08-11T13:23:41Z</time>
      </trkpt>
      <trkpt lat="44.96623" lon="0.74072">
        <ele>169.33</ele>
        <time>2017-08-11T13:23:44Z</time>
      </trkpt>
      <trkpt lat="44.96631" lon="0.74086">
        <ele>169.33</ele>
        <time>2017-08-11T13:23:55Z</time>
      </trkpt>
      <trkpt lat="44.96632" lon="0.74107">
        <ele>169.33</ele>
        <time>2017-08-11T13:24:09Z</time>
      </trkpt>
      <trkpt lat="44.96634" lon="0.74131">
        <ele>168.85</ele>
        <time>2017-08-11T13:24:23Z</time>
      </trkpt>
      <trkpt lat="44.9664" lon="0.74142">
        <ele>168.37</ele>
        <time>2017-08-11T13:24:35Z</time>
      </trkpt>
      <trkpt lat="44.96643" lon="0.74152">
        <ele>167.89</ele>
        <time>2017-08-11T13:24:45Z</time>
      </trkpt>
      <trkpt lat="44.96644" lon="0.74155">
        <ele>167.89</ele>
        <time>2017-08-11T13:24:47Z</time>
      </trkpt>
      <trkpt lat="44.96656" lon="0.74174">
        <ele>167.41</ele>
        <time>2017-08-11T13:25:02Z</time>
      </trkpt>
      <trkpt lat="44.96662" lon="0.74189">
        <ele>166.93</ele>
        <time>2017-08-11T13:25:14Z</time>
      </trkpt>
      <trkpt lat="44.9667" lon="0.74211">
        <ele>166.45</ele>
        <time>2017-08-11T13:25:26Z</time>
      </trkpt>
      <trkpt lat="44.9668" lon="0.74232">
        <ele>165.96</ele>
        <time>2017-08-11T13:25:40Z</time>
      </trkpt>
      <trkpt lat="44.96686" lon="0.74244">
        <ele>165.48</ele>
        <time>2017-08-11T13:25:51Z</time>
      </trkpt>
      <trkpt lat="44.9669" lon="0.7425">
        <ele>165.48</ele>
        <time>2017-08-11T13:26:01Z</time>
      </trkpt>
      <trkpt lat="44.96692" lon="0.74254">
        <ele>165</ele>
        <time>2017-08-11T13:26:04Z</time>
      </trkpt>
      <trkpt lat="44.96703" lon="0.74275">
        <ele>164.04</ele>
        <time>2017-08-11T13:26:18Z</time>
      </trkpt>
      <trkpt lat="44.9671" lon="0.74287">
        <ele>164.04</ele>
        <time>2017-08-11T13:26:32Z</time>
      </trkpt>
      <trkpt lat="44.9673" lon="0.74303">
        <ele>164.04</ele>
        <time>2017-08-11T13:26:45Z</time>
      </trkpt>
      <trkpt lat="44.96738" lon="0.74303">
        <ele>164.04</ele>
        <time>2017-08-11T13:26:56Z</time>
      </trkpt>
      <trkpt lat="44.96743" lon="0.743">
        <ele>164.52</ele>
        <time>2017-08-11T13:27:08Z</time>
      </trkpt>
      <trkpt lat="44.9676" lon="0.74286">
        <ele>163.56</ele>
        <time>2017-08-11T13:27:22Z</time>
      </trkpt>
      <trkpt lat="44.96777" lon="0.7427">
        <ele>162.6</ele>
        <time>2017-08-11T13:27:36Z</time>
      </trkpt>
      <trkpt lat="44.9679" lon="0.74252">
        <ele>163.08</ele>
        <time>2017-08-11T13:27:50Z</time>
      </trkpt>
      <trkpt lat="44.96791" lon="0.74251">
        <ele>163.08</ele>
        <time>2017-08-11T13:27:51Z</time>
      </trkpt>
      <trkpt lat="44.96801" lon="0.74243">
        <ele>163.56</ele>
        <time>2017-08-11T13:27:58Z</time>
      </trkpt>
      <trkpt lat="44.96803" lon="0.7424">
        <ele>163.56</ele>
        <time>2017-08-11T13:28:00Z</time>
      </trkpt>
      <trkpt lat="44.96809" lon="0.74228">
        <ele>163.56</ele>
        <time>2017-08-11T13:28:11Z</time>
      </trkpt>
      <trkpt lat="44.96817" lon="0.74219">
        <ele>163.56</ele>
        <time>2017-08-11T13:28:22Z</time>
      </trkpt>
      <trkpt lat="44.96818" lon="0.74218">
        <ele>163.08</ele>
        <time>2017-08-11T13:28:23Z</time>
      </trkpt>
      <trkpt lat="44.96826" lon="0.7421">
        <ele>162.6</ele>
        <time>2017-08-11T13:28:31Z</time>
      </trkpt>
      <trkpt lat="44.9684" lon="0.74196">
        <ele>162.12</ele>
        <time>2017-08-11T13:28:44Z</time>
      </trkpt>
      <trkpt lat="44.96852" lon="0.74183">
        <ele>161.16</ele>
        <time>2017-08-11T13:28:58Z</time>
      </trkpt>
      <trkpt lat="44.96857" lon="0.74178">
        <ele>160.2</ele>
        <time>2017-08-11T13:29:10Z</time>
      </trkpt>
      <trkpt lat="44.96862" lon="0.74171">
        <ele>159.24</ele>
        <time>2017-08-11T13:29:20Z</time>
      </trkpt>
      <trkpt lat="44.96882" lon="0.74166">
        <ele>157.31</ele>
        <time>2017-08-11T13:29:34Z</time>
      </trkpt>
      <trkpt lat="44.96898" lon="0.7417">
        <ele>156.35</ele>
        <time>2017-08-11T13:29:47Z</time>
      </trkpt>
      <trkpt lat="44.96902" lon="0.74173">
        <ele>155.87</ele>
        <time>2017-08-11T13:29:52Z</time>
      </trkpt>
      <trkpt lat="44.96914" lon="0.74177">
        <ele>154.91</ele>
        <time>2017-08-11T13:30:05Z</time>
      </trkpt>
      <trkpt lat="44.9692" lon="0.74183">
        <ele>154.43</ele>
        <time>2017-08-11T13:30:11Z</time>
      </trkpt>
      <trkpt lat="44.96934" lon="0.74191">
        <ele>154.43</ele>
        <time>2017-08-11T13:30:22Z</time>
      </trkpt>
      <trkpt lat="44.96939" lon="0.74192">
        <ele>154.91</ele>
        <time>2017-08-11T13:30:26Z</time>
      </trkpt>
      <trkpt lat="44.96947" lon="0.74198">
        <ele>154.91</ele>
        <time>2017-08-11T13:30:38Z</time>
      </trkpt>
      <trkpt lat="44.96961" lon="0.74207">
        <ele>154.43</ele>
        <time>2017-08-11T13:30:50Z</time>
      </trkpt>
      <trkpt lat="44.96978" lon="0.74215">
        <ele>153.95</ele>
        <time>2017-08-11T13:31:02Z</time>
      </trkpt>
      <trkpt lat="44.96981" lon="0.74219">
        <ele>153.47</ele>
        <time>2017-08-11T13:31:10Z</time>
      </trkpt>
      <trkpt lat="44.96982" lon="0.7422">
        <ele>153.47</ele>
        <time>2017-08-11T13:31:12Z</time>
      </trkpt>
      <trkpt lat="44.96991" lon="0.74234">
        <ele>152.03</ele>
        <time>2017-08-11T13:31:25Z</time>
      </trkpt>
      <trkpt lat="44.96998" lon="0.74245">
        <ele>151.06</ele>
        <time>2017-08-11T13:31:38Z</time>
      </trkpt>
      <trkpt lat="44.97008" lon="0.74251">
        <ele>149.62</ele>
        <time>2017-08-11T13:31:49Z</time>
      </trkpt>
      <trkpt lat="44.97018" lon="0.74259">
        <ele>148.66</ele>
        <time>2017-08-11T13:32:00Z</time>
      </trkpt>
      <trkpt lat="44.97035" lon="0.74267">
        <ele>147.22</ele>
        <time>2017-08-11T13:32:12Z</time>
      </trkpt>
      <trkpt lat="44.97047" lon="0.74268">
        <ele>145.78</ele>
        <time>2017-08-11T13:32:23Z</time>
      </trkpt>
      <trkpt lat="44.97056" lon="0.74265">
        <ele>145.3</ele>
        <time>2017-08-11T13:32:28Z</time>
      </trkpt>
      <trkpt lat="44.97068" lon="0.74265">
        <ele>144.34</ele>
        <time>2017-08-11T13:32:37Z</time>
      </trkpt>
      <trkpt lat="44.97081" lon="0.74262">
        <ele>143.37</ele>
        <time>2017-08-11T13:32:51Z</time>
      </trkpt>
      <trkpt lat="44.97085" lon="0.74261">
        <ele>142.89</ele>
        <time>2017-08-11T13:32:54Z</time>
      </trkpt>
      <trkpt lat="44.971" lon="0.74257">
        <ele>141.93</ele>
        <time>2017-08-11T13:33:07Z</time>
      </trkpt>
      <trkpt lat="44.97106" lon="0.74253">
        <ele>141.45</ele>
        <time>2017-08-11T13:33:15Z</time>
      </trkpt>
      <trkpt lat="44.97118" lon="0.74248">
        <ele>140.49</ele>
        <time>2017-08-11T13:33:27Z</time>
      </trkpt>
      <trkpt lat="44.97133" lon="0.74241">
        <ele>139.53</ele>
        <time>2017-08-11T13:33:42Z</time>
      </trkpt>
      <trkpt lat="44.97144" lon="0.74237">
        <ele>139.53</ele>
        <time>2017-08-11T13:33:49Z</time>
      </trkpt>
      <trkpt lat="44.97153" lon="0.74234">
        <ele>139.05</ele>
        <time>2017-08-11T13:33:57Z</time>
      </trkpt>
      <trkpt lat="44.97156" lon="0.74232">
        <ele>138.57</ele>
        <time>2017-08-11T13:34:00Z</time>
      </trkpt>
      <trkpt lat="44.97161" lon="0.74232">
        <ele>138.57</ele>
        <time>2017-08-11T13:34:05Z</time>
      </trkpt>
      <trkpt lat="44.97164" lon="0.74231">
        <ele>138.57</ele>
        <time>2017-08-11T13:34:09Z</time>
      </trkpt>
      <trkpt lat="44.97169" lon="0.74233">
        <ele>138.57</ele>
        <time>2017-08-11T13:34:12Z</time>
      </trkpt>
      <trkpt lat="44.97175" lon="0.74229">
        <ele>138.57</ele>
        <time>2017-08-11T13:34:17Z</time>
      </trkpt>
      <trkpt lat="44.97179" lon="0.7423">
        <ele>138.57</ele>
        <time>2017-08-11T13:34:20Z</time>
      </trkpt>
      <trkpt lat="44.97194" lon="0.74223">
        <ele>138.57</ele>
        <time>2017-08-11T13:34:34Z</time>
      </trkpt>
      <trkpt lat="44.97205" lon="0.74219">
        <ele>137.13</ele>
        <time>2017-08-11T13:34:47Z</time>
      </trkpt>
      <trkpt lat="44.97211" lon="0.74215">
        <ele>137.13</ele>
        <time>2017-08-11T13:34:59Z</time>
      </trkpt>
      <trkpt lat="44.97214" lon="0.74212">
        <ele>137.13</ele>
        <time>2017-08-11T13:35:32Z</time>
      </trkpt>
      <trkpt lat="44.97222" lon="0.7421">
        <ele>136.16</ele>
        <time>2017-08-11T13:35:48Z</time>
      </trkpt>
      <trkpt lat="44.97223" lon="0.74209">
        <ele>136.16</ele>
        <time>2017-08-11T13:35:49Z</time>
      </trkpt>
      <trkpt lat="44.97236" lon="0.74202">
        <ele>136.16</ele>
        <time>2017-08-11T13:35:59Z</time>
      </trkpt>
      <trkpt lat="44.97247" lon="0.74196">
        <ele>136.16</ele>
        <time>2017-08-11T13:36:08Z</time>
      </trkpt>
      <trkpt lat="44.97255" lon="0.74191">
        <ele>136.16</ele>
        <time>2017-08-11T13:36:14Z</time>
      </trkpt>
      <trkpt lat="44.9727" lon="0.74181">
        <ele>135.68</ele>
        <time>2017-08-11T13:36:27Z</time>
      </trkpt>
      <trkpt lat="44.97285" lon="0.74169">
        <ele>135.68</ele>
        <time>2017-08-11T13:36:40Z</time>
      </trkpt>
      <trkpt lat="44.97301" lon="0.74161">
        <ele>136.16</ele>
        <time>2017-08-11T13:36:52Z</time>
      </trkpt>
      <trkpt lat="44.97304" lon="0.74159">
        <ele>136.16</ele>
        <time>2017-08-11T13:36:56Z</time>
      </trkpt>
      <trkpt lat="44.97309" lon="0.74158">
        <ele>136.16</ele>
        <time>2017-08-11T13:37:11Z</time>
      </trkpt>
      <trkpt lat="44.9731" lon="0.74158">
        <ele>136.16</ele>
        <time>2017-08-11T13:37:43Z</time>
      </trkpt>
      <trkpt lat="44.97312" lon="0.74156">
        <ele>135.68</ele>
        <time>2017-08-11T13:38:00Z</time>
      </trkpt>
      <trkpt lat="44.97317" lon="0.74154">
        <ele>135.2</ele>
        <time>2017-08-11T13:38:22Z</time>
      </trkpt>
      <trkpt lat="44.97326" lon="0.74152">
        <ele>134.72</ele>
        <time>2017-08-11T13:38:35Z</time>
      </trkpt>
      <trkpt lat="44.9733" lon="0.74156">
        <ele>133.76</ele>
        <time>2017-08-11T13:38:49Z</time>
      </trkpt>
      <trkpt lat="44.97339" lon="0.74168">
        <ele>134.24</ele>
        <time>2017-08-11T13:39:02Z</time>
      </trkpt>
      <trkpt lat="44.97341" lon="0.74176">
        <ele>134.72</ele>
        <time>2017-08-11T13:39:15Z</time>
      </trkpt>
      <trkpt lat="44.97347" lon="0.74185">
        <ele>134.72</ele>
        <time>2017-08-11T13:39:25Z</time>
      </trkpt>
      <trkpt lat="44.97353" lon="0.74216">
        <ele>134.24</ele>
        <time>2017-08-11T13:39:41Z</time>
      </trkpt>
      <trkpt lat="44.97358" lon="0.74235">
        <ele>135.2</ele>
        <time>2017-08-11T13:39:52Z</time>
      </trkpt>
      <trkpt lat="44.97358" lon="0.74244">
        <ele>135.68</ele>
        <time>2017-08-11T13:39:58Z</time>
      </trkpt>
      <trkpt lat="44.97362" lon="0.74249">
        <ele>136.64</ele>
        <time>2017-08-11T13:40:08Z</time>
      </trkpt>
      <trkpt lat="44.97365" lon="0.74254">
        <ele>137.13</ele>
        <time>2017-08-11T13:40:15Z</time>
      </trkpt>
      <trkpt lat="44.97366" lon="0.74264">
        <ele>137.61</ele>
        <time>2017-08-11T13:40:24Z</time>
      </trkpt>
      <trkpt lat="44.9737" lon="0.74272">
        <ele>138.09</ele>
        <time>2017-08-11T13:40:37Z</time>
      </trkpt>
      <trkpt lat="44.97375" lon="0.7428">
        <ele>138.09</ele>
        <time>2017-08-11T13:40:45Z</time>
      </trkpt>
      <trkpt lat="44.97376" lon="0.74288">
        <ele>138.09</ele>
        <time>2017-08-11T13:40:51Z</time>
      </trkpt>
      <trkpt lat="44.97381" lon="0.74307">
        <ele>138.09</ele>
        <time>2017-08-11T13:41:03Z</time>
      </trkpt>
      <trkpt lat="44.97388" lon="0.74316">
        <ele>138.09</ele>
        <time>2017-08-11T13:41:11Z</time>
      </trkpt>
      <trkpt lat="44.97393" lon="0.74338">
        <ele>137.61</ele>
        <time>2017-08-11T13:41:22Z</time>
      </trkpt>
      <trkpt lat="44.97394" lon="0.7435">
        <ele>137.61</ele>
        <time>2017-08-11T13:41:33Z</time>
      </trkpt>
      <trkpt lat="44.97394" lon="0.74352">
        <ele>137.61</ele>
        <time>2017-08-11T13:41:35Z</time>
      </trkpt>
      <trkpt lat="44.97398" lon="0.74374">
        <ele>137.61</ele>
        <time>2017-08-11T13:41:46Z</time>
      </trkpt>
      <trkpt lat="44.97398" lon="0.74378">
        <ele>137.13</ele>
        <time>2017-08-11T13:41:49Z</time>
      </trkpt>
      <trkpt lat="44.974" lon="0.74388">
        <ele>137.61</ele>
        <time>2017-08-11T13:41:59Z</time>
      </trkpt>
      <trkpt lat="44.97402" lon="0.74391">
        <ele>137.61</ele>
        <time>2017-08-11T13:42:01Z</time>
      </trkpt>
      <trkpt lat="44.97407" lon="0.74402">
        <ele>137.61</ele>
        <time>2017-08-11T13:42:11Z</time>
      </trkpt>
      <trkpt lat="44.97409" lon="0.74408">
        <ele>137.61</ele>
        <time>2017-08-11T13:42:18Z</time>
      </trkpt>
      <trkpt lat="44.97415" lon="0.74432">
        <ele>137.61</ele>
        <time>2017-08-11T13:42:27Z</time>
      </trkpt>
      <trkpt lat="44.97415" lon="0.74434">
        <ele>137.61</ele>
        <time>2017-08-11T13:42:29Z</time>
      </trkpt>
      <trkpt lat="44.97419" lon="0.74447">
        <ele>137.13</ele>
        <time>2017-08-11T13:42:39Z</time>
      </trkpt>
      <trkpt lat="44.97424" lon="0.74456">
        <ele>137.13</ele>
        <time>2017-08-11T13:42:49Z</time>
      </trkpt>
      <trkpt lat="44.97428" lon="0.74466">
        <ele>137.13</ele>
        <time>2017-08-11T13:42:58Z</time>
      </trkpt>
      <trkpt lat="44.9743" lon="0.74478">
        <ele>137.13</ele>
        <time>2017-08-11T13:43:09Z</time>
      </trkpt>
      <trkpt lat="44.97432" lon="0.7449">
        <ele>137.13</ele>
        <time>2017-08-11T13:43:22Z</time>
      </trkpt>
      <trkpt lat="44.97438" lon="0.74503">
        <ele>137.13</ele>
        <time>2017-08-11T13:43:31Z</time>
      </trkpt>
      <trkpt lat="44.97438" lon="0.74508">
        <ele>137.13</ele>
        <time>2017-08-11T13:43:33Z</time>
      </trkpt>
      <trkpt lat="44.97441" lon="0.74528">
        <ele>137.61</ele>
        <time>2017-08-11T13:43:43Z</time>
      </trkpt>
      <trkpt lat="44.97441" lon="0.74531">
        <ele>137.61</ele>
        <time>2017-08-11T13:43:45Z</time>
      </trkpt>
      <trkpt lat="44.97445" lon="0.74547">
        <ele>137.13</ele>
        <time>2017-08-11T13:43:55Z</time>
      </trkpt>
      <trkpt lat="44.97444" lon="0.7456">
        <ele>137.13</ele>
        <time>2017-08-11T13:44:03Z</time>
      </trkpt>
      <trkpt lat="44.97447" lon="0.74575">
        <ele>137.13</ele>
        <time>2017-08-11T13:44:11Z</time>
      </trkpt>
      <trkpt lat="44.97448" lon="0.74587">
        <ele>137.13</ele>
        <time>2017-08-11T13:44:21Z</time>
      </trkpt>
      <trkpt lat="44.97449" lon="0.74592">
        <ele>137.13</ele>
        <time>2017-08-11T13:44:25Z</time>
      </trkpt>
      <trkpt lat="44.97453" lon="0.74603">
        <ele>137.61</ele>
        <time>2017-08-11T13:44:36Z</time>
      </trkpt>
      <trkpt lat="44.97455" lon="0.74617">
        <ele>137.61</ele>
        <time>2017-08-11T13:44:46Z</time>
      </trkpt>
      <trkpt lat="44.97457" lon="0.74636">
        <ele>138.09</ele>
        <time>2017-08-11T13:44:58Z</time>
      </trkpt>
      <trkpt lat="44.97461" lon="0.74657">
        <ele>138.57</ele>
        <time>2017-08-11T13:45:08Z</time>
      </trkpt>
      <trkpt lat="44.97463" lon="0.7467">
        <ele>139.05</ele>
        <time>2017-08-11T13:45:20Z</time>
      </trkpt>
      <trkpt lat="44.97464" lon="0.74672">
        <ele>139.05</ele>
        <time>2017-08-11T13:45:21Z</time>
      </trkpt>
      <trkpt lat="44.97468" lon="0.74686">
        <ele>139.05</ele>
        <time>2017-08-11T13:45:32Z</time>
      </trkpt>
      <trkpt lat="44.97469" lon="0.74698">
        <ele>138.57</ele>
        <time>2017-08-11T13:45:45Z</time>
      </trkpt>
      <trkpt lat="44.9747" lon="0.74708">
        <ele>137.61</ele>
        <time>2017-08-11T13:45:58Z</time>
      </trkpt>
      <trkpt lat="44.97472" lon="0.74715">
        <ele>137.13</ele>
        <time>2017-08-11T13:46:11Z</time>
      </trkpt>
      <trkpt lat="44.97473" lon="0.74723">
        <ele>136.16</ele>
        <time>2017-08-11T13:46:24Z</time>
      </trkpt>
      <trkpt lat="44.97474" lon="0.74729">
        <ele>134.72</ele>
        <time>2017-08-11T13:46:35Z</time>
      </trkpt>
      <trkpt lat="44.97474" lon="0.74739">
        <ele>133.28</ele>
        <time>2017-08-11T13:46:49Z</time>
      </trkpt>
      <trkpt lat="44.97482" lon="0.74764">
        <ele>132.8</ele>
        <time>2017-08-11T13:47:06Z</time>
      </trkpt>
      <trkpt lat="44.97485" lon="0.74769">
        <ele>132.8</ele>
        <time>2017-08-11T13:47:29Z</time>
      </trkpt>
      <trkpt lat="44.97485" lon="0.74771">
        <ele>133.28</ele>
        <time>2017-08-11T13:47:57Z</time>
      </trkpt>
      <trkpt lat="44.97485" lon="0.74771">
        <ele>133.28</ele>
        <time>2017-08-11T13:48:00Z</time>
      </trkpt>
      <trkpt lat="44.97482" lon="0.7479">
        <ele>133.28</ele>
        <time>2017-08-11T13:48:07Z</time>
      </trkpt>
      <trkpt lat="44.97477" lon="0.74806">
        <ele>132.8</ele>
        <time>2017-08-11T13:48:12Z</time>
      </trkpt>
      <trkpt lat="44.97463" lon="0.74841">
        <ele>133.76</ele>
        <time>2017-08-11T13:48:26Z</time>
      </trkpt>
      <trkpt lat="44.9746" lon="0.74853">
        <ele>134.24</ele>
        <time>2017-08-11T13:48:37Z</time>
      </trkpt>
      <trkpt lat="44.97456" lon="0.74863">
        <ele>135.2</ele>
        <time>2017-08-11T13:48:48Z</time>
      </trkpt>
      <trkpt lat="44.97452" lon="0.74871">
        <ele>135.2</ele>
        <time>2017-08-11T13:48:57Z</time>
      </trkpt>
      <trkpt lat="44.97448" lon="0.74881">
        <ele>135.2</ele>
        <time>2017-08-11T13:49:08Z</time>
      </trkpt>
      <trkpt lat="44.97447" lon="0.74891">
        <ele>135.2</ele>
        <time>2017-08-11T13:49:19Z</time>
      </trkpt>
      <trkpt lat="44.97446" lon="0.74895">
        <ele>134.72</ele>
        <time>2017-08-11T13:49:27Z</time>
      </trkpt>
      <trkpt lat="44.97441" lon="0.74909">
        <ele>135.2</ele>
        <time>2017-08-11T13:49:38Z</time>
      </trkpt>
      <trkpt lat="44.97435" lon="0.74918">
        <ele>135.68</ele>
        <time>2017-08-11T13:49:47Z</time>
      </trkpt>
      <trkpt lat="44.9743" lon="0.74929">
        <ele>136.64</ele>
        <time>2017-08-11T13:49:56Z</time>
      </trkpt>
      <trkpt lat="44.97428" lon="0.74937">
        <ele>137.13</ele>
        <time>2017-08-11T13:50:00Z</time>
      </trkpt>
      <trkpt lat="44.97422" lon="0.74958">
        <ele>137.61</ele>
        <time>2017-08-11T13:50:12Z</time>
      </trkpt>
      <trkpt lat="44.97417" lon="0.74973">
        <ele>138.09</ele>
        <time>2017-08-11T13:50:21Z</time>
      </trkpt>
      <trkpt lat="44.97415" lon="0.74992">
        <ele>138.57</ele>
        <time>2017-08-11T13:50:32Z</time>
      </trkpt>
      <trkpt lat="44.97414" lon="0.75008">
        <ele>138.09</ele>
        <time>2017-08-11T13:50:45Z</time>
      </trkpt>
      <trkpt lat="44.97415" lon="0.75025">
        <ele>137.61</ele>
        <time>2017-08-11T13:50:57Z</time>
      </trkpt>
      <trkpt lat="44.97413" lon="0.75041">
        <ele>137.61</ele>
        <time>2017-08-11T13:51:08Z</time>
      </trkpt>
      <trkpt lat="44.97412" lon="0.75052">
        <ele>137.61</ele>
        <time>2017-08-11T13:51:19Z</time>
      </trkpt>
      <trkpt lat="44.9741" lon="0.75068">
        <ele>137.61</ele>
        <time>2017-08-11T13:51:27Z</time>
      </trkpt>
      <trkpt lat="44.97409" lon="0.7508">
        <ele>137.61</ele>
        <time>2017-08-11T13:51:33Z</time>
      </trkpt>
      <trkpt lat="44.97404" lon="0.75098">
        <ele>137.13</ele>
        <time>2017-08-11T13:51:45Z</time>
      </trkpt>
      <trkpt lat="44.97402" lon="0.75106">
        <ele>137.61</ele>
        <time>2017-08-11T13:51:51Z</time>
      </trkpt>
      <trkpt lat="44.97397" lon="0.75128">
        <ele>137.61</ele>
        <time>2017-08-11T13:52:05Z</time>
      </trkpt>
      <trkpt lat="44.97397" lon="0.75129">
        <ele>137.61</ele>
        <time>2017-08-11T13:52:06Z</time>
      </trkpt>
      <trkpt lat="44.97392" lon="0.75155">
        <ele>137.61</ele>
        <time>2017-08-11T13:52:21Z</time>
      </trkpt>
      <trkpt lat="44.9739" lon="0.75171">
        <ele>137.61</ele>
        <time>2017-08-11T13:52:31Z</time>
      </trkpt>
      <trkpt lat="44.97387" lon="0.75194">
        <ele>138.09</ele>
        <time>2017-08-11T13:52:45Z</time>
      </trkpt>
      <trkpt lat="44.97384" lon="0.75215">
        <ele>138.57</ele>
        <time>2017-08-11T13:52:59Z</time>
      </trkpt>
      <trkpt lat="44.97381" lon="0.75225">
        <ele>139.05</ele>
        <time>2017-08-11T13:53:05Z</time>
      </trkpt>
      <trkpt lat="44.97377" lon="0.75244">
        <ele>139.05</ele>
        <time>2017-08-11T13:53:17Z</time>
      </trkpt>
      <trkpt lat="44.97373" lon="0.75264">
        <ele>139.53</ele>
        <time>2017-08-11T13:53:31Z</time>
      </trkpt>
      <trkpt lat="44.97374" lon="0.75281">
        <ele>140.01</ele>
        <time>2017-08-11T13:53:44Z</time>
      </trkpt>
      <trkpt lat="44.97374" lon="0.75298">
        <ele>140.01</ele>
        <time>2017-08-11T13:53:56Z</time>
      </trkpt>
      <trkpt lat="44.97375" lon="0.75304">
        <ele>140.01</ele>
        <time>2017-08-11T13:54:00Z</time>
      </trkpt>
      <trkpt lat="44.97376" lon="0.7532">
        <ele>140.01</ele>
        <time>2017-08-11T13:54:13Z</time>
      </trkpt>
      <trkpt lat="44.97373" lon="0.75338">
        <ele>140.49</ele>
        <time>2017-08-11T13:54:26Z</time>
      </trkpt>
      <trkpt lat="44.9737" lon="0.75348">
        <ele>141.45</ele>
        <time>2017-08-11T13:54:38Z</time>
      </trkpt>
      <trkpt lat="44.97367" lon="0.75354">
        <ele>141.93</ele>
        <time>2017-08-11T13:54:44Z</time>
      </trkpt>
      <trkpt lat="44.97359" lon="0.7537">
        <ele>143.37</ele>
        <time>2017-08-11T13:54:58Z</time>
      </trkpt>
      <trkpt lat="44.97354" lon="0.75381">
        <ele>144.82</ele>
        <time>2017-08-11T13:55:09Z</time>
      </trkpt>
      <trkpt lat="44.97351" lon="0.75388">
        <ele>145.78</ele>
        <time>2017-08-11T13:55:20Z</time>
      </trkpt>
      <trkpt lat="44.97349" lon="0.75393">
        <ele>146.26</ele>
        <time>2017-08-11T13:55:38Z</time>
      </trkpt>
      <trkpt lat="44.97348" lon="0.75396">
        <ele>146.26</ele>
        <time>2017-08-11T13:55:57Z</time>
      </trkpt>
      <trkpt lat="44.97348" lon="0.75396">
        <ele>145.78</ele>
        <time>2017-08-11T13:56:26Z</time>
      </trkpt>
      <trkpt lat="44.97348" lon="0.75396">
        <ele>146.74</ele>
        <time>2017-08-11T13:56:59Z</time>
      </trkpt>
      <trkpt lat="44.97348" lon="0.75397">
        <ele>147.22</ele>
        <time>2017-08-11T13:57:16Z</time>
      </trkpt>
      <trkpt lat="44.97347" lon="0.75402">
        <ele>146.26</ele>
        <time>2017-08-11T13:57:32Z</time>
      </trkpt>
      <trkpt lat="44.97346" lon="0.75404">
        <ele>147.7</ele>
        <time>2017-08-11T13:57:41Z</time>
      </trkpt>
      <trkpt lat="44.97343" lon="0.75407">
        <ele>148.66</ele>
        <time>2017-08-11T13:57:51Z</time>
      </trkpt>
      <trkpt lat="44.97342" lon="0.75407">
        <ele>148.66</ele>
        <time>2017-08-11T13:57:52Z</time>
      </trkpt>
      <trkpt lat="44.9734" lon="0.75407">
        <ele>149.14</ele>
        <time>2017-08-11T13:57:54Z</time>
      </trkpt>
      <trkpt lat="44.97336" lon="0.75411">
        <ele>150.58</ele>
        <time>2017-08-11T13:58:05Z</time>
      </trkpt>
      <trkpt lat="44.9733" lon="0.75419">
        <ele>151.54</ele>
        <time>2017-08-11T13:58:16Z</time>
      </trkpt>
      <trkpt lat="44.97321" lon="0.75429">
        <ele>152.51</ele>
        <time>2017-08-11T13:58:25Z</time>
      </trkpt>
      <trkpt lat="44.97315" lon="0.75434">
        <ele>153.47</ele>
        <time>2017-08-11T13:58:37Z</time>
      </trkpt>
      <trkpt lat="44.97313" lon="0.75441">
        <ele>152.99</ele>
        <time>2017-08-11T13:59:02Z</time>
      </trkpt>
      <trkpt lat="44.97313" lon="0.75445">
        <ele>152.99</ele>
        <time>2017-08-11T13:59:27Z</time>
      </trkpt>
      <trkpt lat="44.9731" lon="0.75455">
        <ele>153.47</ele>
        <time>2017-08-11T13:59:56Z</time>
      </trkpt>
      <trkpt lat="44.9731" lon="0.75455">
        <ele>152.99</ele>
        <time>2017-08-11T14:00:14Z</time>
      </trkpt>
      <trkpt lat="44.97307" lon="0.75454">
        <ele>153.95</ele>
        <time>2017-08-11T14:00:28Z</time>
      </trkpt>
      <trkpt lat="44.97298" lon="0.75449">
        <ele>155.39</ele>
        <time>2017-08-11T14:00:41Z</time>
      </trkpt>
      <trkpt lat="44.97285" lon="0.75442">
        <ele>156.83</ele>
        <time>2017-08-11T14:00:54Z</time>
      </trkpt>
      <trkpt lat="44.97284" lon="0.75441">
        <ele>156.83</ele>
        <time>2017-08-11T14:00:55Z</time>
      </trkpt>
      <trkpt lat="44.97272" lon="0.75437">
        <ele>157.79</ele>
        <time>2017-08-11T14:01:05Z</time>
      </trkpt>
      <trkpt lat="44.9727" lon="0.75435">
        <ele>158.27</ele>
        <time>2017-08-11T14:01:07Z</time>
      </trkpt>
      <trkpt lat="44.97257" lon="0.75426">
        <ele>158.75</ele>
        <time>2017-08-11T14:01:19Z</time>
      </trkpt>
      <trkpt lat="44.97251" lon="0.75423">
        <ele>159.72</ele>
        <time>2017-08-11T14:01:25Z</time>
      </trkpt>
      <trkpt lat="44.9724" lon="0.75416">
        <ele>160.68</ele>
        <time>2017-08-11T14:01:39Z</time>
      </trkpt>
      <trkpt lat="44.9723" lon="0.7541">
        <ele>162.12</ele>
        <time>2017-08-11T14:01:52Z</time>
      </trkpt>
      <trkpt lat="44.97222" lon="0.75408">
        <ele>163.08</ele>
        <time>2017-08-11T14:02:07Z</time>
      </trkpt>
      <trkpt lat="44.97211" lon="0.75404">
        <ele>164.04</ele>
        <time>2017-08-11T14:02:20Z</time>
      </trkpt>
      <trkpt lat="44.97204" lon="0.75401">
        <ele>165</ele>
        <time>2017-08-11T14:02:37Z</time>
      </trkpt>
      <trkpt lat="44.97197" lon="0.75399">
        <ele>165.96</ele>
        <time>2017-08-11T14:02:52Z</time>
      </trkpt>
      <trkpt lat="44.9719" lon="0.75395">
        <ele>166.93</ele>
        <time>2017-08-11T14:03:04Z</time>
      </trkpt>
      <trkpt lat="44.97175" lon="0.75388">
        <ele>168.37</ele>
        <time>2017-08-11T14:03:18Z</time>
      </trkpt>
      <trkpt lat="44.97158" lon="0.75379">
        <ele>169.81</ele>
        <time>2017-08-11T14:03:34Z</time>
      </trkpt>
      <trkpt lat="44.97151" lon="0.75374">
        <ele>170.77</ele>
        <time>2017-08-11T14:03:46Z</time>
      </trkpt>
      <trkpt lat="44.97139" lon="0.75367">
        <ele>171.73</ele>
        <time>2017-08-11T14:03:58Z</time>
      </trkpt>
      <trkpt lat="44.97134" lon="0.75365">
        <ele>172.21</ele>
        <time>2017-08-11T14:04:05Z</time>
      </trkpt>
      <trkpt lat="44.97114" lon="0.75358">
        <ele>172.69</ele>
        <time>2017-08-11T14:04:19Z</time>
      </trkpt>
      <trkpt lat="44.97102" lon="0.75352">
        <ele>173.17</ele>
        <time>2017-08-11T14:04:29Z</time>
      </trkpt>
      <trkpt lat="44.97087" lon="0.75345">
        <ele>173.66</ele>
        <time>2017-08-11T14:04:42Z</time>
      </trkpt>
      <trkpt lat="44.97078" lon="0.75339">
        <ele>174.62</ele>
        <time>2017-08-11T14:04:56Z</time>
      </trkpt>
      <trkpt lat="44.97073" lon="0.75337">
        <ele>175.1</ele>
        <time>2017-08-11T14:05:07Z</time>
      </trkpt>
      <trkpt lat="44.97059" lon="0.75331">
        <ele>175.58</ele>
        <time>2017-08-11T14:05:18Z</time>
      </trkpt>
      <trkpt lat="44.97053" lon="0.75329">
        <ele>175.58</ele>
        <time>2017-08-11T14:05:21Z</time>
      </trkpt>
      <trkpt lat="44.97031" lon="0.75323">
        <ele>176.06</ele>
        <time>2017-08-11T14:05:36Z</time>
      </trkpt>
      <trkpt lat="44.97025" lon="0.75322">
        <ele>176.06</ele>
        <time>2017-08-11T14:05:40Z</time>
      </trkpt>
      <trkpt lat="44.9701" lon="0.75319">
        <ele>176.54</ele>
        <time>2017-08-11T14:05:53Z</time>
      </trkpt>
      <trkpt lat="44.97" lon="0.75321">
        <ele>176.54</ele>
        <time>2017-08-11T14:06:05Z</time>
      </trkpt>
      <trkpt lat="44.9699" lon="0.75322">
        <ele>177.02</ele>
        <time>2017-08-11T14:06:19Z</time>
      </trkpt>
      <trkpt lat="44.96977" lon="0.75325">
        <ele>177.5</ele>
        <time>2017-08-11T14:06:32Z</time>
      </trkpt>
      <trkpt lat="44.96967" lon="0.75331">
        <ele>178.46</ele>
        <time>2017-08-11T14:06:42Z</time>
      </trkpt>
      <trkpt lat="44.96955" lon="0.75337">
        <ele>178.94</ele>
        <time>2017-08-11T14:06:54Z</time>
      </trkpt>
      <trkpt lat="44.96953" lon="0.75339">
        <ele>178.94</ele>
        <time>2017-08-11T14:06:57Z</time>
      </trkpt>
      <trkpt lat="44.96941" lon="0.75349">
        <ele>179.42</ele>
        <time>2017-08-11T14:07:08Z</time>
      </trkpt>
      <trkpt lat="44.96938" lon="0.75353">
        <ele>179.9</ele>
        <time>2017-08-11T14:07:14Z</time>
      </trkpt>
      <trkpt lat="44.96924" lon="0.75364">
        <ele>180.38</ele>
        <time>2017-08-11T14:07:26Z</time>
      </trkpt>
      <trkpt lat="44.96916" lon="0.75373">
        <ele>181.35</ele>
        <time>2017-08-11T14:07:37Z</time>
      </trkpt>
      <trkpt lat="44.96911" lon="0.75378">
        <ele>182.79</ele>
        <time>2017-08-11T14:07:52Z</time>
      </trkpt>
      <trkpt lat="44.96908" lon="0.75383">
        <ele>181.83</ele>
        <time>2017-08-11T14:08:10Z</time>
      </trkpt>
      <trkpt lat="44.96906" lon="0.7539">
        <ele>182.31</ele>
        <time>2017-08-11T14:08:43Z</time>
      </trkpt>
      <trkpt lat="44.96905" lon="0.7539">
        <ele>182.31</ele>
        <time>2017-08-11T14:09:06Z</time>
      </trkpt>
      <trkpt lat="44.96904" lon="0.75391">
        <ele>182.79</ele>
        <time>2017-08-11T14:09:21Z</time>
      </trkpt>
      <trkpt lat="44.96904" lon="0.75391">
        <ele>179.42</ele>
        <time>2017-08-11T14:09:23Z</time>
      </trkpt>
      <trkpt lat="44.96904" lon="0.75391">
        <ele>182.31</ele>
        <time>2017-08-11T14:09:25Z</time>
      </trkpt>
      <trkpt lat="44.96903" lon="0.75392">
        <ele>183.27</ele>
        <time>2017-08-11T14:09:39Z</time>
      </trkpt>
      <trkpt lat="44.96896" lon="0.75406">
        <ele>183.75</ele>
        <time>2017-08-11T14:09:54Z</time>
      </trkpt>
      <trkpt lat="44.96889" lon="0.75413">
        <ele>184.71</ele>
        <time>2017-08-11T14:10:02Z</time>
      </trkpt>
      <trkpt lat="44.96874" lon="0.7544">
        <ele>185.67</ele>
        <time>2017-08-11T14:10:19Z</time>
      </trkpt>
      <trkpt lat="44.96861" lon="0.75459">
        <ele>186.63</ele>
        <time>2017-08-11T14:10:34Z</time>
      </trkpt>
      <trkpt lat="44.96852" lon="0.75475">
        <ele>187.59</ele>
        <time>2017-08-11T14:10:47Z</time>
      </trkpt>
      <trkpt lat="44.96852" lon="0.75477">
        <ele>188.08</ele>
        <time>2017-08-11T14:10:49Z</time>
      </trkpt>
      <trkpt lat="44.96849" lon="0.75484">
        <ele>188.56</ele>
        <time>2017-08-11T14:10:55Z</time>
      </trkpt>
      <trkpt lat="44.96844" lon="0.75494">
        <ele>189.04</ele>
        <time>2017-08-11T14:11:03Z</time>
      </trkpt>
      <trkpt lat="44.96838" lon="0.75509">
        <ele>190</ele>
        <time>2017-08-11T14:11:16Z</time>
      </trkpt>
      <trkpt lat="44.96833" lon="0.75515">
        <ele>190.96</ele>
        <time>2017-08-11T14:11:23Z</time>
      </trkpt>
      <trkpt lat="44.96824" lon="0.75524">
        <ele>191.92</ele>
        <time>2017-08-11T14:11:37Z</time>
      </trkpt>
      <trkpt lat="44.96815" lon="0.75534">
        <ele>192.88</ele>
        <time>2017-08-11T14:11:49Z</time>
      </trkpt>
      <trkpt lat="44.96806" lon="0.75545">
        <ele>193.36</ele>
        <time>2017-08-11T14:12:01Z</time>
      </trkpt>
      <trkpt lat="44.96805" lon="0.75546">
        <ele>193.84</ele>
        <time>2017-08-11T14:12:02Z</time>
      </trkpt>
      <trkpt lat="44.96796" lon="0.75564">
        <ele>194.32</ele>
        <time>2017-08-11T14:12:15Z</time>
      </trkpt>
      <trkpt lat="44.96786" lon="0.75577">
        <ele>195.28</ele>
        <time>2017-08-11T14:12:27Z</time>
      </trkpt>
      <trkpt lat="44.96784" lon="0.75578">
        <ele>195.28</ele>
        <time>2017-08-11T14:12:30Z</time>
      </trkpt>
      <trkpt lat="44.96782" lon="0.75583">
        <ele>195.28</ele>
        <time>2017-08-11T14:12:33Z</time>
      </trkpt>
      <trkpt lat="44.96776" lon="0.75601">
        <ele>195.77</ele>
        <time>2017-08-11T14:12:46Z</time>
      </trkpt>
      <trkpt lat="44.96774" lon="0.75608">
        <ele>195.77</ele>
        <time>2017-08-11T14:12:50Z</time>
      </trkpt>
      <trkpt lat="44.96771" lon="0.75614">
        <ele>195.77</ele>
        <time>2017-08-11T14:12:54Z</time>
      </trkpt>
      <trkpt lat="44.96768" lon="0.75628">
        <ele>196.25</ele>
        <time>2017-08-11T14:13:05Z</time>
      </trkpt>
      <trkpt lat="44.96761" lon="0.75646">
        <ele>197.69</ele>
        <time>2017-08-11T14:13:18Z</time>
      </trkpt>
      <trkpt lat="44.96755" lon="0.75658">
        <ele>197.69</ele>
        <time>2017-08-11T14:13:32Z</time>
      </trkpt>
      <trkpt lat="44.96755" lon="0.75659">
        <ele>197.69</ele>
        <time>2017-08-11T14:13:34Z</time>
      </trkpt>
      <trkpt lat="44.96746" lon="0.75674">
        <ele>198.17</ele>
        <time>2017-08-11T14:13:49Z</time>
      </trkpt>
      <trkpt lat="44.96742" lon="0.75684">
        <ele>198.65</ele>
        <time>2017-08-11T14:14:02Z</time>
      </trkpt>
      <trkpt lat="44.96735" lon="0.75701">
        <ele>199.61</ele>
        <time>2017-08-11T14:14:14Z</time>
      </trkpt>
      <trkpt lat="44.96732" lon="0.7572">
        <ele>200.09</ele>
        <time>2017-08-11T14:14:27Z</time>
      </trkpt>
      <trkpt lat="44.96728" lon="0.7573">
        <ele>200.57</ele>
        <time>2017-08-11T14:14:42Z</time>
      </trkpt>
      <trkpt lat="44.9673" lon="0.75731">
        <ele>200.57</ele>
        <time>2017-08-11T14:14:55Z</time>
      </trkpt>
      <trkpt lat="44.96731" lon="0.75733">
        <ele>201.05</ele>
        <time>2017-08-11T14:15:17Z</time>
      </trkpt>
      <trkpt lat="44.96731" lon="0.75734">
        <ele>201.05</ele>
        <time>2017-08-11T14:15:42Z</time>
      </trkpt>
      <trkpt lat="44.9673" lon="0.75734">
        <ele>201.53</ele>
        <time>2017-08-11T14:15:52Z</time>
      </trkpt>
      <trkpt lat="44.96729" lon="0.75735">
        <ele>201.05</ele>
        <time>2017-08-11T14:16:09Z</time>
      </trkpt>
      <trkpt lat="44.96729" lon="0.75735">
        <ele>201.53</ele>
        <time>2017-08-11T14:16:29Z</time>
      </trkpt>
      <trkpt lat="44.96729" lon="0.75735">
        <ele>201.53</ele>
        <time>2017-08-11T14:16:56Z</time>
      </trkpt>
      <trkpt lat="44.96729" lon="0.75735">
        <ele>201.53</ele>
        <time>2017-08-11T14:17:20Z</time>
      </trkpt>
      <trkpt lat="44.96729" lon="0.75736">
        <ele>202.01</ele>
        <time>2017-08-11T14:17:42Z</time>
      </trkpt>
      <trkpt lat="44.96729" lon="0.75737">
        <ele>202.01</ele>
        <time>2017-08-11T14:18:05Z</time>
      </trkpt>
      <trkpt lat="44.96729" lon="0.75737">
        <ele>202.01</ele>
        <time>2017-08-11T14:18:27Z</time>
      </trkpt>
      <trkpt lat="44.96728" lon="0.7574">
        <ele>202.01</ele>
        <time>2017-08-11T14:18:40Z</time>
      </trkpt>
      <trkpt lat="44.96729" lon="0.75742">
        <ele>202.49</ele>
        <time>2017-08-11T14:18:53Z</time>
      </trkpt>
      <trkpt lat="44.96734" lon="0.75754">
        <ele>203.46</ele>
        <time>2017-08-11T14:19:07Z</time>
      </trkpt>
      <trkpt lat="44.96742" lon="0.75769">
        <ele>203.94</ele>
        <time>2017-08-11T14:19:21Z</time>
      </trkpt>
      <trkpt lat="44.96749" lon="0.75784">
        <ele>203.94</ele>
        <time>2017-08-11T14:19:33Z</time>
      </trkpt>
      <trkpt lat="44.96755" lon="0.75792">
        <ele>203.94</ele>
        <time>2017-08-11T14:19:49Z</time>
      </trkpt>
      <trkpt lat="44.96756" lon="0.75803">
        <ele>203.94</ele>
        <time>2017-08-11T14:20:15Z</time>
      </trkpt>
      <trkpt lat="44.96759" lon="0.75814">
        <ele>203.94</ele>
        <time>2017-08-11T14:20:26Z</time>
      </trkpt>
      <trkpt lat="44.96761" lon="0.75822">
        <ele>202.98</ele>
        <time>2017-08-11T14:20:38Z</time>
      </trkpt>
      <trkpt lat="44.96763" lon="0.7583">
        <ele>202.98</ele>
        <time>2017-08-11T14:20:46Z</time>
      </trkpt>
      <trkpt lat="44.96766" lon="0.75838">
        <ele>202.98</ele>
        <time>2017-08-11T14:21:04Z</time>
      </trkpt>
      <trkpt lat="44.96768" lon="0.75847">
        <ele>202.49</ele>
        <time>2017-08-11T14:21:23Z</time>
      </trkpt>
      <trkpt lat="44.96772" lon="0.75852">
        <ele>202.01</ele>
        <time>2017-08-11T14:21:37Z</time>
      </trkpt>
      <trkpt lat="44.96778" lon="0.7586">
        <ele>201.05</ele>
        <time>2017-08-11T14:21:49Z</time>
      </trkpt>
      <trkpt lat="44.96787" lon="0.75872">
        <ele>199.61</ele>
        <time>2017-08-11T14:22:02Z</time>
      </trkpt>
      <trkpt lat="44.96788" lon="0.75874">
        <ele>199.61</ele>
        <time>2017-08-11T14:22:03Z</time>
      </trkpt>
      <trkpt lat="44.96797" lon="0.75893">
        <ele>198.17</ele>
        <time>2017-08-11T14:22:18Z</time>
      </trkpt>
      <trkpt lat="44.96801" lon="0.75909">
        <ele>196.73</ele>
        <time>2017-08-11T14:22:32Z</time>
      </trkpt>
      <trkpt lat="44.96804" lon="0.75922">
        <ele>195.77</ele>
        <time>2017-08-11T14:22:47Z</time>
      </trkpt>
      <trkpt lat="44.96809" lon="0.75937">
        <ele>194.8</ele>
        <time>2017-08-11T14:22:58Z</time>
      </trkpt>
      <trkpt lat="44.96814" lon="0.75951">
        <ele>194.32</ele>
        <time>2017-08-11T14:23:10Z</time>
      </trkpt>
      <trkpt lat="44.96815" lon="0.75963">
        <ele>193.84</ele>
        <time>2017-08-11T14:23:30Z</time>
      </trkpt>
      <trkpt lat="44.96819" lon="0.7598">
        <ele>192.88</ele>
        <time>2017-08-11T14:23:51Z</time>
      </trkpt>
      <trkpt lat="44.96824" lon="0.75997">
        <ele>192.4</ele>
        <time>2017-08-11T14:24:01Z</time>
      </trkpt>
      <trkpt lat="44.96829" lon="0.76016">
        <ele>191.92</ele>
        <time>2017-08-11T14:24:13Z</time>
      </trkpt>
      <trkpt lat="44.96834" lon="0.76037">
        <ele>191.44</ele>
        <time>2017-08-11T14:24:26Z</time>
      </trkpt>
      <trkpt lat="44.96838" lon="0.76055">
        <ele>190.48</ele>
        <time>2017-08-11T14:24:35Z</time>
      </trkpt>
      <trkpt lat="44.9684" lon="0.76062">
        <ele>190.48</ele>
        <time>2017-08-11T14:24:38Z</time>
      </trkpt>
      <trkpt lat="44.96849" lon="0.76091">
        <ele>190</ele>
        <time>2017-08-11T14:24:52Z</time>
      </trkpt>
      <trkpt lat="44.96854" lon="0.76119">
        <ele>189.52</ele>
        <time>2017-08-11T14:25:05Z</time>
      </trkpt>
      <trkpt lat="44.96855" lon="0.76121">
        <ele>189.52</ele>
        <time>2017-08-11T14:25:06Z</time>
      </trkpt>
      <trkpt lat="44.96857" lon="0.76133">
        <ele>189.04</ele>
        <time>2017-08-11T14:25:11Z</time>
      </trkpt>
      <trkpt lat="44.9686" lon="0.76143">
        <ele>189.04</ele>
        <time>2017-08-11T14:25:15Z</time>
      </trkpt>
      <trkpt lat="44.96864" lon="0.76157">
        <ele>188.56</ele>
        <time>2017-08-11T14:25:24Z</time>
      </trkpt>
      <trkpt lat="44.96866" lon="0.76163">
        <ele>188.08</ele>
        <time>2017-08-11T14:25:28Z</time>
      </trkpt>
      <trkpt lat="44.96868" lon="0.7617">
        <ele>188.08</ele>
        <time>2017-08-11T14:25:34Z</time>
      </trkpt>
      <trkpt lat="44.96869" lon="0.76175">
        <ele>188.08</ele>
        <time>2017-08-11T14:25:37Z</time>
      </trkpt>
      <trkpt lat="44.96874" lon="0.76186">
        <ele>187.11</ele>
        <time>2017-08-11T14:25:45Z</time>
      </trkpt>
      <trkpt lat="44.9688" lon="0.76205">
        <ele>186.63</ele>
        <time>2017-08-11T14:25:58Z</time>
      </trkpt>
      <trkpt lat="44.96881" lon="0.76211">
        <ele>186.63</ele>
        <time>2017-08-11T14:26:01Z</time>
      </trkpt>
      <trkpt lat="44.96884" lon="0.7622">
        <ele>186.15</ele>
        <time>2017-08-11T14:26:06Z</time>
      </trkpt>
      <trkpt lat="44.9689" lon="0.7624">
        <ele>186.15</ele>
        <time>2017-08-11T14:26:18Z</time>
      </trkpt>
      <trkpt lat="44.96896" lon="0.76264">
        <ele>185.19</ele>
        <time>2017-08-11T14:26:32Z</time>
      </trkpt>
      <trkpt lat="44.96898" lon="0.76272">
        <ele>184.71</ele>
        <time>2017-08-11T14:26:38Z</time>
      </trkpt>
      <trkpt lat="44.96906" lon="0.76295">
        <ele>184.23</ele>
        <time>2017-08-11T14:26:54Z</time>
      </trkpt>
      <trkpt lat="44.96908" lon="0.76307">
        <ele>183.75</ele>
        <time>2017-08-11T14:27:00Z</time>
      </trkpt>
      <trkpt lat="44.96914" lon="0.76326">
        <ele>182.79</ele>
        <time>2017-08-11T14:27:13Z</time>
      </trkpt>
      <trkpt lat="44.96919" lon="0.76345">
        <ele>182.31</ele>
        <time>2017-08-11T14:27:25Z</time>
      </trkpt>
      <trkpt lat="44.96924" lon="0.76365">
        <ele>181.35</ele>
        <time>2017-08-11T14:27:38Z</time>
      </trkpt>
      <trkpt lat="44.9693" lon="0.7638">
        <ele>180.87</ele>
        <time>2017-08-11T14:27:50Z</time>
      </trkpt>
      <trkpt lat="44.96935" lon="0.76403">
        <ele>179.9</ele>
        <time>2017-08-11T14:28:04Z</time>
      </trkpt>
      <trkpt lat="44.96939" lon="0.7641">
        <ele>178.94</ele>
        <time>2017-08-11T14:28:16Z</time>
      </trkpt>
      <trkpt lat="44.96939" lon="0.76414">
        <ele>178.94</ele>
        <time>2017-08-11T14:28:18Z</time>
      </trkpt>
      <trkpt lat="44.96945" lon="0.76426">
        <ele>177.98</ele>
        <time>2017-08-11T14:28:30Z</time>
      </trkpt>
      <trkpt lat="44.96946" lon="0.76428">
        <ele>177.98</ele>
        <time>2017-08-11T14:28:31Z</time>
      </trkpt>
      <trkpt lat="44.9695" lon="0.76441">
        <ele>177.02</ele>
        <time>2017-08-11T14:28:43Z</time>
      </trkpt>
      <trkpt lat="44.96958" lon="0.76452">
        <ele>176.06</ele>
        <time>2017-08-11T14:28:55Z</time>
      </trkpt>
      <trkpt lat="44.96969" lon="0.76469">
        <ele>175.1</ele>
        <time>2017-08-11T14:29:09Z</time>
      </trkpt>
      <trkpt lat="44.96979" lon="0.76495">
        <ele>173.17</ele>
        <time>2017-08-11T14:29:26Z</time>
      </trkpt>
      <trkpt lat="44.96988" lon="0.76514">
        <ele>171.73</ele>
        <time>2017-08-11T14:29:40Z</time>
      </trkpt>
      <trkpt lat="44.96997" lon="0.76527">
        <ele>170.29</ele>
        <time>2017-08-11T14:29:53Z</time>
      </trkpt>
      <trkpt lat="44.97007" lon="0.76545">
        <ele>168.37</ele>
        <time>2017-08-11T14:30:09Z</time>
      </trkpt>
      <trkpt lat="44.97019" lon="0.76558">
        <ele>166.45</ele>
        <time>2017-08-11T14:30:25Z</time>
      </trkpt>
      <trkpt lat="44.9703" lon="0.76568">
        <ele>164.04</ele>
        <time>2017-08-11T14:30:40Z</time>
      </trkpt>
      <trkpt lat="44.97034" lon="0.76578">
        <ele>162.6</ele>
        <time>2017-08-11T14:30:55Z</time>
      </trkpt>
      <trkpt lat="44.9704" lon="0.76589">
        <ele>161.16</ele>
        <time>2017-08-11T14:31:08Z</time>
      </trkpt>
      <trkpt lat="44.97044" lon="0.76593">
        <ele>160.68</ele>
        <time>2017-08-11T14:31:12Z</time>
      </trkpt>
      <trkpt lat="44.97059" lon="0.76615">
        <ele>159.24</ele>
        <time>2017-08-11T14:31:28Z</time>
      </trkpt>
      <trkpt lat="44.97061" lon="0.76619">
        <ele>158.27</ele>
        <time>2017-08-11T14:31:31Z</time>
      </trkpt>
      <trkpt lat="44.97069" lon="0.76632">
        <ele>157.31</ele>
        <time>2017-08-11T14:31:43Z</time>
      </trkpt>
      <trkpt lat="44.9708" lon="0.76648">
        <ele>155.87</ele>
        <time>2017-08-11T14:31:56Z</time>
      </trkpt>
      <trkpt lat="44.97083" lon="0.76653">
        <ele>155.87</ele>
        <time>2017-08-11T14:32:00Z</time>
      </trkpt>
      <trkpt lat="44.97092" lon="0.76674">
        <ele>154.91</ele>
        <time>2017-08-11T14:32:13Z</time>
      </trkpt>
      <trkpt lat="44.97092" lon="0.76675">
        <ele>154.43</ele>
        <time>2017-08-11T14:32:19Z</time>
      </trkpt>
      <trkpt lat="44.97096" lon="0.76684">
        <ele>153.95</ele>
        <time>2017-08-11T14:32:25Z</time>
      </trkpt>
      <trkpt lat="44.97099" lon="0.76692">
        <ele>153.95</ele>
        <time>2017-08-11T14:32:29Z</time>
      </trkpt>
      <trkpt lat="44.97105" lon="0.76707">
        <ele>153.47</ele>
        <time>2017-08-11T14:32:44Z</time>
      </trkpt>
      <trkpt lat="44.97111" lon="0.76719">
        <ele>152.51</ele>
        <time>2017-08-11T14:32:58Z</time>
      </trkpt>
      <trkpt lat="44.97121" lon="0.76733">
        <ele>152.03</ele>
        <time>2017-08-11T14:33:13Z</time>
      </trkpt>
      <trkpt lat="44.97125" lon="0.76743">
        <ele>151.06</ele>
        <time>2017-08-11T14:33:26Z</time>
      </trkpt>
      <trkpt lat="44.97138" lon="0.76757">
        <ele>150.58</ele>
        <time>2017-08-11T14:33:43Z</time>
      </trkpt>
      <trkpt lat="44.97147" lon="0.76766">
        <ele>150.58</ele>
        <time>2017-08-11T14:33:56Z</time>
      </trkpt>
      <trkpt lat="44.97158" lon="0.76776">
        <ele>150.1</ele>
        <time>2017-08-11T14:34:13Z</time>
      </trkpt>
      <trkpt lat="44.97173" lon="0.76788">
        <ele>149.62</ele>
        <time>2017-08-11T14:34:29Z</time>
      </trkpt>
      <trkpt lat="44.97181" lon="0.76802">
        <ele>148.66</ele>
        <time>2017-08-11T14:34:42Z</time>
      </trkpt>
      <trkpt lat="44.97188" lon="0.76816">
        <ele>148.66</ele>
        <time>2017-08-11T14:34:55Z</time>
      </trkpt>
      <trkpt lat="44.97191" lon="0.7682">
        <ele>148.66</ele>
        <time>2017-08-11T14:35:17Z</time>
      </trkpt>
      <trkpt lat="44.97191" lon="0.76819">
        <ele>148.18</ele>
        <time>2017-08-11T14:35:36Z</time>
      </trkpt>
      <trkpt lat="44.97192" lon="0.76818">
        <ele>148.66</ele>
        <time>2017-08-11T14:36:03Z</time>
      </trkpt>
      <trkpt lat="44.97192" lon="0.76817">
        <ele>148.18</ele>
        <time>2017-08-11T14:36:29Z</time>
      </trkpt>
      <trkpt lat="44.97192" lon="0.76816">
        <ele>149.14</ele>
        <time>2017-08-11T14:36:57Z</time>
      </trkpt>
      <trkpt lat="44.97192" lon="0.76816">
        <ele>149.14</ele>
        <time>2017-08-11T14:37:13Z</time>
      </trkpt>
      <trkpt lat="44.97192" lon="0.76816">
        <ele>148.66</ele>
        <time>2017-08-11T14:37:28Z</time>
      </trkpt>
      <trkpt lat="44.97191" lon="0.76819">
        <ele>149.14</ele>
        <time>2017-08-11T14:37:59Z</time>
      </trkpt>
      <trkpt lat="44.9719" lon="0.7682">
        <ele>149.14</ele>
        <time>2017-08-11T14:38:31Z</time>
      </trkpt>
      <trkpt lat="44.97188" lon="0.76819">
        <ele>149.62</ele>
        <time>2017-08-11T14:38:50Z</time>
      </trkpt>
      <trkpt lat="44.97187" lon="0.76815">
        <ele>149.62</ele>
        <time>2017-08-11T14:39:08Z</time>
      </trkpt>
      <trkpt lat="44.97186" lon="0.76806">
        <ele>152.03</ele>
        <time>2017-08-11T14:39:21Z</time>
      </trkpt>
      <trkpt lat="44.97186" lon="0.768">
        <ele>151.06</ele>
        <time>2017-08-11T14:39:33Z</time>
      </trkpt>
      <trkpt lat="44.97182" lon="0.76798">
        <ele>151.06</ele>
        <time>2017-08-11T14:39:46Z</time>
      </trkpt>
      <trkpt lat="44.97171" lon="0.76787">
        <ele>151.06</ele>
        <time>2017-08-11T14:39:58Z</time>
      </trkpt>
      <trkpt lat="44.97157" lon="0.76774">
        <ele>150.1</ele>
        <time>2017-08-11T14:40:11Z</time>
      </trkpt>
      <trkpt lat="44.97154" lon="0.76771">
        <ele>151.06</ele>
        <time>2017-08-11T14:40:14Z</time>
      </trkpt>
      <trkpt lat="44.97146" lon="0.7677">
        <ele>151.06</ele>
        <time>2017-08-11T14:40:26Z</time>
      </trkpt>
      <trkpt lat="44.97142" lon="0.76772">
        <ele>151.06</ele>
        <time>2017-08-11T14:40:51Z</time>
      </trkpt>
      <trkpt lat="44.9714" lon="0.76768">
        <ele>151.54</ele>
        <time>2017-08-11T14:41:03Z</time>
      </trkpt>
      <trkpt lat="44.97139" lon="0.76765">
        <ele>151.54</ele>
        <time>2017-08-11T14:41:23Z</time>
      </trkpt>
      <trkpt lat="44.97139" lon="0.76764">
        <ele>151.54</ele>
        <time>2017-08-11T14:41:43Z</time>
      </trkpt>
      <trkpt lat="44.97137" lon="0.7676">
        <ele>151.54</ele>
        <time>2017-08-11T14:42:08Z</time>
      </trkpt>
      <trkpt lat="44.9713" lon="0.76751">
        <ele>152.03</ele>
        <time>2017-08-11T14:42:20Z</time>
      </trkpt>
      <trkpt lat="44.97125" lon="0.76743">
        <ele>152.51</ele>
        <time>2017-08-11T14:42:34Z</time>
      </trkpt>
      <trkpt lat="44.97125" lon="0.76741">
        <ele>152.99</ele>
        <time>2017-08-11T14:42:49Z</time>
      </trkpt>
      <trkpt lat="44.97125" lon="0.76738">
        <ele>152.99</ele>
        <time>2017-08-11T14:43:03Z</time>
      </trkpt>
      <trkpt lat="44.97124" lon="0.76737">
        <ele>153.47</ele>
        <time>2017-08-11T14:43:18Z</time>
      </trkpt>
      <trkpt lat="44.97122" lon="0.76734">
        <ele>153.47</ele>
        <time>2017-08-11T14:43:23Z</time>
      </trkpt>
      <trkpt lat="44.97117" lon="0.76727">
        <ele>153.95</ele>
        <time>2017-08-11T14:43:29Z</time>
      </trkpt>
      <trkpt lat="44.97108" lon="0.76711">
        <ele>154.43</ele>
        <time>2017-08-11T14:43:42Z</time>
      </trkpt>
      <trkpt lat="44.97106" lon="0.76708">
        <ele>154.91</ele>
        <time>2017-08-11T14:43:46Z</time>
      </trkpt>
      <trkpt lat="44.97102" lon="0.76701">
        <ele>154.91</ele>
        <time>2017-08-11T14:43:52Z</time>
      </trkpt>
      <trkpt lat="44.97098" lon="0.76693">
        <ele>155.39</ele>
        <time>2017-08-11T14:44:08Z</time>
      </trkpt>
      <trkpt lat="44.97096" lon="0.76692">
        <ele>155.39</ele>
        <time>2017-08-11T14:44:31Z</time>
      </trkpt>
      <trkpt lat="44.97095" lon="0.76693">
        <ele>155.39</ele>
        <time>2017-08-11T14:45:00Z</time>
      </trkpt>
      <trkpt lat="44.97095" lon="0.76693">
        <ele>155.39</ele>
        <time>2017-08-11T14:45:30Z</time>
      </trkpt>
      <trkpt lat="44.97097" lon="0.767">
        <ele>154.91</ele>
        <time>2017-08-11T14:45:54Z</time>
      </trkpt>
      <trkpt lat="44.97095" lon="0.76704">
        <ele>155.39</ele>
        <time>2017-08-11T14:45:57Z</time>
      </trkpt>
      <trkpt lat="44.97089" lon="0.76711">
        <ele>154.91</ele>
        <time>2017-08-11T14:46:05Z</time>
      </trkpt>
      <trkpt lat="44.97086" lon="0.76713">
        <ele>154.91</ele>
        <time>2017-08-11T14:46:08Z</time>
      </trkpt>
      <trkpt lat="44.97078" lon="0.76715">
        <ele>154.91</ele>
        <time>2017-08-11T14:46:15Z</time>
      </trkpt>
      <trkpt lat="44.97073" lon="0.76715">
        <ele>154.91</ele>
        <time>2017-08-11T14:46:19Z</time>
      </trkpt>
      <trkpt lat="44.97069" lon="0.76715">
        <ele>154.91</ele>
        <time>2017-08-11T14:46:23Z</time>
      </trkpt>
      <trkpt lat="44.97055" lon="0.76712">
        <ele>154.43</ele>
        <time>2017-08-11T14:46:35Z</time>
      </trkpt>
      <trkpt lat="44.97047" lon="0.76709">
        <ele>153.95</ele>
        <time>2017-08-11T14:46:43Z</time>
      </trkpt>
      <trkpt lat="44.97031" lon="0.76705">
        <ele>154.43</ele>
        <time>2017-08-11T14:46:58Z</time>
      </trkpt>
      <trkpt lat="44.97017" lon="0.76704">
        <ele>154.91</ele>
        <time>2017-08-11T14:47:11Z</time>
      </trkpt>
      <trkpt lat="44.97009" lon="0.76703">
        <ele>154.91</ele>
        <time>2017-08-11T14:47:18Z</time>
      </trkpt>
      <trkpt lat="44.97002" lon="0.76702">
        <ele>154.91</ele>
        <time>2017-08-11T14:47:27Z</time>
      </trkpt>
      <trkpt lat="44.96994" lon="0.76703">
        <ele>154.91</ele>
        <time>2017-08-11T14:47:34Z</time>
      </trkpt>
      <trkpt lat="44.96985" lon="0.76703">
        <ele>155.39</ele>
        <time>2017-08-11T14:47:42Z</time>
      </trkpt>
      <trkpt lat="44.96978" lon="0.76702">
        <ele>154.91</ele>
        <time>2017-08-11T14:47:49Z</time>
      </trkpt>
      <trkpt lat="44.96969" lon="0.76702">
        <ele>155.39</ele>
        <time>2017-08-11T14:47:58Z</time>
      </trkpt>
      <trkpt lat="44.9696" lon="0.76701">
        <ele>155.39</ele>
        <time>2017-08-11T14:48:06Z</time>
      </trkpt>
      <trkpt lat="44.96944" lon="0.76699">
        <ele>156.83</ele>
        <time>2017-08-11T14:48:21Z</time>
      </trkpt>
      <trkpt lat="44.96931" lon="0.76693">
        <ele>157.79</ele>
        <time>2017-08-11T14:48:34Z</time>
      </trkpt>
      <trkpt lat="44.9693" lon="0.76692">
        <ele>158.27</ele>
        <time>2017-08-11T14:48:36Z</time>
      </trkpt>
      <trkpt lat="44.9692" lon="0.76686">
        <ele>157.79</ele>
        <time>2017-08-11T14:48:48Z</time>
      </trkpt>
      <trkpt lat="44.96908" lon="0.76679">
        <ele>157.79</ele>
        <time>2017-08-11T14:49:02Z</time>
      </trkpt>
      <trkpt lat="44.96908" lon="0.76678">
        <ele>157.79</ele>
        <time>2017-08-11T14:49:03Z</time>
      </trkpt>
      <trkpt lat="44.96901" lon="0.76676">
        <ele>157.79</ele>
        <time>2017-08-11T14:49:17Z</time>
      </trkpt>
      <trkpt lat="44.969" lon="0.76675">
        <ele>157.79</ele>
        <time>2017-08-11T14:49:46Z</time>
      </trkpt>
      <trkpt lat="44.969" lon="0.76674">
        <ele>157.79</ele>
        <time>2017-08-11T14:50:12Z</time>
      </trkpt>
      <trkpt lat="44.969" lon="0.76674">
        <ele>157.31</ele>
        <time>2017-08-11T14:50:39Z</time>
      </trkpt>
      <trkpt lat="44.96899" lon="0.76675">
        <ele>161.16</ele>
        <time>2017-08-11T14:51:04Z</time>
      </trkpt>
      <trkpt lat="44.96899" lon="0.76675">
        <ele>158.27</ele>
        <time>2017-08-11T14:51:05Z</time>
      </trkpt>
      <trkpt lat="44.96899" lon="0.76675">
        <ele>157.31</ele>
        <time>2017-08-11T14:51:07Z</time>
      </trkpt>
      <trkpt lat="44.96899" lon="0.76675">
        <ele>157.31</ele>
        <time>2017-08-11T14:51:09Z</time>
      </trkpt>
      <trkpt lat="44.96888" lon="0.7667">
        <ele>157.79</ele>
        <time>2017-08-11T14:51:22Z</time>
      </trkpt>
      <trkpt lat="44.96872" lon="0.76665">
        <ele>158.27</ele>
        <time>2017-08-11T14:51:35Z</time>
      </trkpt>
      <trkpt lat="44.96871" lon="0.76664">
        <ele>158.27</ele>
        <time>2017-08-11T14:51:37Z</time>
      </trkpt>
      <trkpt lat="44.96866" lon="0.76663">
        <ele>157.79</ele>
        <time>2017-08-11T14:51:42Z</time>
      </trkpt>
      <trkpt lat="44.96864" lon="0.76662">
        <ele>158.27</ele>
        <time>2017-08-11T14:51:44Z</time>
      </trkpt>
      <trkpt lat="44.96851" lon="0.76658">
        <ele>158.75</ele>
        <time>2017-08-11T14:51:57Z</time>
      </trkpt>
      <trkpt lat="44.96837" lon="0.76655">
        <ele>159.24</ele>
        <time>2017-08-11T14:52:09Z</time>
      </trkpt>
      <trkpt lat="44.96829" lon="0.76652">
        <ele>159.24</ele>
        <time>2017-08-11T14:52:17Z</time>
      </trkpt>
      <trkpt lat="44.96824" lon="0.76651">
        <ele>159.24</ele>
        <time>2017-08-11T14:52:22Z</time>
      </trkpt>
      <trkpt lat="44.96807" lon="0.76645">
        <ele>159.72</ele>
        <time>2017-08-11T14:52:37Z</time>
      </trkpt>
      <trkpt lat="44.96806" lon="0.76644">
        <ele>159.72</ele>
        <time>2017-08-11T14:52:38Z</time>
      </trkpt>
      <trkpt lat="44.96802" lon="0.76643">
        <ele>159.72</ele>
        <time>2017-08-11T14:52:42Z</time>
      </trkpt>
      <trkpt lat="44.96788" lon="0.76639">
        <ele>159.72</ele>
        <time>2017-08-11T14:52:56Z</time>
      </trkpt>
      <trkpt lat="44.96773" lon="0.7664">
        <ele>159.72</ele>
        <time>2017-08-11T14:53:10Z</time>
      </trkpt>
      <trkpt lat="44.96762" lon="0.7664">
        <ele>160.2</ele>
        <time>2017-08-11T14:53:21Z</time>
      </trkpt>
      <trkpt lat="44.96749" lon="0.76645">
        <ele>160.2</ele>
        <time>2017-08-11T14:53:33Z</time>
      </trkpt>
      <trkpt lat="44.96744" lon="0.76645">
        <ele>160.2</ele>
        <time>2017-08-11T14:53:37Z</time>
      </trkpt>
      <trkpt lat="44.96741" lon="0.76646">
        <ele>160.2</ele>
        <time>2017-08-11T14:53:40Z</time>
      </trkpt>
      <trkpt lat="44.96738" lon="0.76647">
        <ele>160.2</ele>
        <time>2017-08-11T14:53:42Z</time>
      </trkpt>
      <trkpt lat="44.96732" lon="0.76649">
        <ele>160.2</ele>
        <time>2017-08-11T14:53:48Z</time>
      </trkpt>
      <trkpt lat="44.96721" lon="0.76654">
        <ele>160.68</ele>
        <time>2017-08-11T14:53:59Z</time>
      </trkpt>
      <trkpt lat="44.96707" lon="0.76659">
        <ele>161.16</ele>
        <time>2017-08-11T14:54:11Z</time>
      </trkpt>
      <trkpt lat="44.96702" lon="0.76662">
        <ele>160.68</ele>
        <time>2017-08-11T14:54:16Z</time>
      </trkpt>
      <trkpt lat="44.96689" lon="0.76666">
        <ele>161.16</ele>
        <time>2017-08-11T14:54:30Z</time>
      </trkpt>
      <trkpt lat="44.96678" lon="0.7667">
        <ele>161.64</ele>
        <time>2017-08-11T14:54:40Z</time>
      </trkpt>
      <trkpt lat="44.96676" lon="0.76671">
        <ele>161.64</ele>
        <time>2017-08-11T14:54:42Z</time>
      </trkpt>
      <trkpt lat="44.96664" lon="0.76677">
        <ele>162.12</ele>
        <time>2017-08-11T14:54:54Z</time>
      </trkpt>
      <trkpt lat="44.96661" lon="0.76678">
        <ele>162.6</ele>
        <time>2017-08-11T14:54:58Z</time>
      </trkpt>
      <trkpt lat="44.96652" lon="0.76681">
        <ele>162.6</ele>
        <time>2017-08-11T14:55:06Z</time>
      </trkpt>
      <trkpt lat="44.96639" lon="0.76686">
        <ele>162.6</ele>
        <time>2017-08-11T14:55:19Z</time>
      </trkpt>
      <trkpt lat="44.96637" lon="0.76687">
        <ele>163.56</ele>
        <time>2017-08-11T14:55:23Z</time>
      </trkpt>
      <trkpt lat="44.96634" lon="0.76689">
        <ele>162.6</ele>
        <time>2017-08-11T14:55:26Z</time>
      </trkpt>
      <trkpt lat="44.9663" lon="0.7669">
        <ele>162.6</ele>
        <time>2017-08-11T14:55:29Z</time>
      </trkpt>
      <trkpt lat="44.96617" lon="0.76696">
        <ele>162.6</ele>
        <time>2017-08-11T14:55:42Z</time>
      </trkpt>
      <trkpt lat="44.96611" lon="0.76699">
        <ele>162.6</ele>
        <time>2017-08-11T14:55:50Z</time>
      </trkpt>
      <trkpt lat="44.96606" lon="0.767">
        <ele>162.6</ele>
        <time>2017-08-11T14:55:53Z</time>
      </trkpt>
      <trkpt lat="44.96603" lon="0.76701">
        <ele>163.08</ele>
        <time>2017-08-11T14:55:56Z</time>
      </trkpt>
      <trkpt lat="44.96598" lon="0.76702">
        <ele>163.08</ele>
        <time>2017-08-11T14:56:02Z</time>
      </trkpt>
      <trkpt lat="44.96594" lon="0.76704">
        <ele>163.08</ele>
        <time>2017-08-11T14:56:07Z</time>
      </trkpt>
      <trkpt lat="44.96593" lon="0.76707">
        <ele>163.08</ele>
        <time>2017-08-11T14:56:10Z</time>
      </trkpt>
      <trkpt lat="44.96585" lon="0.76713">
        <ele>162.6</ele>
        <time>2017-08-11T14:56:18Z</time>
      </trkpt>
      <trkpt lat="44.96579" lon="0.76725">
        <ele>163.56</ele>
        <time>2017-08-11T14:56:31Z</time>
      </trkpt>
      <trkpt lat="44.96578" lon="0.76726">
        <ele>163.08</ele>
        <time>2017-08-11T14:56:56Z</time>
      </trkpt>
      <trkpt lat="44.96577" lon="0.76725">
        <ele>163.56</ele>
        <time>2017-08-11T14:56:58Z</time>
      </trkpt>
      <trkpt lat="44.96573" lon="0.76728">
        <ele>163.56</ele>
        <time>2017-08-11T14:57:03Z</time>
      </trkpt>
      <trkpt lat="44.96562" lon="0.76733">
        <ele>165.48</ele>
        <time>2017-08-11T14:57:17Z</time>
      </trkpt>
      <trkpt lat="44.96553" lon="0.76723">
        <ele>166.93</ele>
        <time>2017-08-11T14:57:32Z</time>
      </trkpt>
      <trkpt lat="44.96543" lon="0.76712">
        <ele>167.89</ele>
        <time>2017-08-11T14:57:47Z</time>
      </trkpt>
      <trkpt lat="44.96533" lon="0.76702">
        <ele>168.85</ele>
        <time>2017-08-11T14:58:00Z</time>
      </trkpt>
      <trkpt lat="44.96522" lon="0.76696">
        <ele>170.77</ele>
        <time>2017-08-11T14:58:14Z</time>
      </trkpt>
      <trkpt lat="44.96509" lon="0.76693">
        <ele>171.73</ele>
        <time>2017-08-11T14:58:28Z</time>
      </trkpt>
      <trkpt lat="44.96503" lon="0.76689">
        <ele>172.69</ele>
        <time>2017-08-11T14:58:35Z</time>
      </trkpt>
      <trkpt lat="44.96502" lon="0.76689">
        <ele>173.17</ele>
        <time>2017-08-11T14:58:37Z</time>
      </trkpt>
      <trkpt lat="44.96492" lon="0.76684">
        <ele>174.62</ele>
        <time>2017-08-11T14:58:49Z</time>
      </trkpt>
      <trkpt lat="44.96479" lon="0.7668">
        <ele>176.06</ele>
        <time>2017-08-11T14:59:04Z</time>
      </trkpt>
      <trkpt lat="44.96473" lon="0.76681">
        <ele>177.02</ele>
        <time>2017-08-11T14:59:12Z</time>
      </trkpt>
      <trkpt lat="44.96462" lon="0.76679">
        <ele>177.98</ele>
        <time>2017-08-11T14:59:24Z</time>
      </trkpt>
      <trkpt lat="44.9645" lon="0.76679">
        <ele>178.94</ele>
        <time>2017-08-11T14:59:38Z</time>
      </trkpt>
      <trkpt lat="44.9644" lon="0.7668">
        <ele>180.38</ele>
        <time>2017-08-11T14:59:50Z</time>
      </trkpt>
      <trkpt lat="44.9643" lon="0.76682">
        <ele>181.83</ele>
        <time>2017-08-11T15:00:04Z</time>
      </trkpt>
      <trkpt lat="44.96417" lon="0.76684">
        <ele>183.75</ele>
        <time>2017-08-11T15:00:18Z</time>
      </trkpt>
      <trkpt lat="44.96408" lon="0.76684">
        <ele>185.19</ele>
        <time>2017-08-11T15:00:29Z</time>
      </trkpt>
      <trkpt lat="44.96399" lon="0.76681">
        <ele>186.63</ele>
        <time>2017-08-11T15:00:41Z</time>
      </trkpt>
      <trkpt lat="44.96386" lon="0.76679">
        <ele>188.08</ele>
        <time>2017-08-11T15:00:55Z</time>
      </trkpt>
      <trkpt lat="44.96382" lon="0.76677">
        <ele>189.04</ele>
        <time>2017-08-11T15:01:01Z</time>
      </trkpt>
      <trkpt lat="44.96371" lon="0.76675">
        <ele>190</ele>
        <time>2017-08-11T15:01:11Z</time>
      </trkpt>
      <trkpt lat="44.96368" lon="0.76674">
        <ele>190.48</ele>
        <time>2017-08-11T15:01:14Z</time>
      </trkpt>
      <trkpt lat="44.96366" lon="0.76674">
        <ele>190.48</ele>
        <time>2017-08-11T15:01:16Z</time>
      </trkpt>
      <trkpt lat="44.96364" lon="0.76673">
        <ele>190.48</ele>
        <time>2017-08-11T15:01:18Z</time>
      </trkpt>
      <trkpt lat="44.96358" lon="0.76671">
        <ele>191.44</ele>
        <time>2017-08-11T15:01:26Z</time>
      </trkpt>
      <trkpt lat="44.96351" lon="0.7667">
        <ele>192.4</ele>
        <time>2017-08-11T15:01:35Z</time>
      </trkpt>
      <trkpt lat="44.9634" lon="0.76667">
        <ele>192.88</ele>
        <time>2017-08-11T15:01:46Z</time>
      </trkpt>
      <trkpt lat="44.96324" lon="0.76666">
        <ele>194.32</ele>
        <time>2017-08-11T15:02:01Z</time>
      </trkpt>
      <trkpt lat="44.96321" lon="0.76665">
        <ele>194.8</ele>
        <time>2017-08-11T15:02:05Z</time>
      </trkpt>
      <trkpt lat="44.96319" lon="0.76665">
        <ele>194.8</ele>
        <time>2017-08-11T15:02:07Z</time>
      </trkpt>
      <trkpt lat="44.96313" lon="0.76665">
        <ele>194.8</ele>
        <time>2017-08-11T15:02:12Z</time>
      </trkpt>
      <trkpt lat="44.96305" lon="0.76664">
        <ele>195.28</ele>
        <time>2017-08-11T15:02:20Z</time>
      </trkpt>
      <trkpt lat="44.96302" lon="0.76663">
        <ele>195.28</ele>
        <time>2017-08-11T15:02:23Z</time>
      </trkpt>
      <trkpt lat="44.96297" lon="0.76662">
        <ele>195.77</ele>
        <time>2017-08-11T15:02:28Z</time>
      </trkpt>
      <trkpt lat="44.96288" lon="0.76661">
        <ele>196.25</ele>
        <time>2017-08-11T15:02:37Z</time>
      </trkpt>
      <trkpt lat="44.96285" lon="0.7666">
        <ele>196.25</ele>
        <time>2017-08-11T15:02:40Z</time>
      </trkpt>
      <trkpt lat="44.96272" lon="0.76657">
        <ele>196.73</ele>
        <time>2017-08-11T15:02:55Z</time>
      </trkpt>
      <trkpt lat="44.96258" lon="0.76654">
        <ele>197.21</ele>
        <time>2017-08-11T15:03:08Z</time>
      </trkpt>
      <trkpt lat="44.96254" lon="0.76653">
        <ele>197.21</ele>
        <time>2017-08-11T15:03:12Z</time>
      </trkpt>
      <trkpt lat="44.96243" lon="0.76649">
        <ele>197.21</ele>
        <time>2017-08-11T15:03:22Z</time>
      </trkpt>
      <trkpt lat="44.96235" lon="0.76647">
        <ele>197.69</ele>
        <time>2017-08-11T15:03:30Z</time>
      </trkpt>
      <trkpt lat="44.96231" lon="0.76647">
        <ele>197.21</ele>
        <time>2017-08-11T15:03:34Z</time>
      </trkpt>
      <trkpt lat="44.96218" lon="0.76644">
        <ele>197.21</ele>
        <time>2017-08-11T15:03:47Z</time>
      </trkpt>
      <trkpt lat="44.96212" lon="0.76642">
        <ele>197.21</ele>
        <time>2017-08-11T15:03:53Z</time>
      </trkpt>
      <trkpt lat="44.96205" lon="0.76639">
        <ele>197.69</ele>
        <time>2017-08-11T15:04:02Z</time>
      </trkpt>
      <trkpt lat="44.96189" lon="0.76633">
        <ele>198.17</ele>
        <time>2017-08-11T15:04:17Z</time>
      </trkpt>
      <trkpt lat="44.96185" lon="0.76633">
        <ele>197.69</ele>
        <time>2017-08-11T15:04:21Z</time>
      </trkpt>
      <trkpt lat="44.96176" lon="0.76631">
        <ele>198.17</ele>
        <time>2017-08-11T15:04:32Z</time>
      </trkpt>
      <trkpt lat="44.96168" lon="0.76628">
        <ele>198.17</ele>
        <time>2017-08-11T15:04:40Z</time>
      </trkpt>
      <trkpt lat="44.96165" lon="0.76627">
        <ele>197.69</ele>
        <time>2017-08-11T15:04:43Z</time>
      </trkpt>
      <trkpt lat="44.96158" lon="0.76626">
        <ele>198.17</ele>
        <time>2017-08-11T15:04:50Z</time>
      </trkpt>
      <trkpt lat="44.96155" lon="0.76626">
        <ele>198.17</ele>
        <time>2017-08-11T15:04:53Z</time>
      </trkpt>
      <trkpt lat="44.96143" lon="0.76627">
        <ele>198.17</ele>
        <time>2017-08-11T15:05:05Z</time>
      </trkpt>
      <trkpt lat="44.96134" lon="0.76621">
        <ele>198.65</ele>
        <time>2017-08-11T15:05:17Z</time>
      </trkpt>
      <trkpt lat="44.96129" lon="0.76615">
        <ele>199.13</ele>
        <time>2017-08-11T15:05:33Z</time>
      </trkpt>
      <trkpt lat="44.96124" lon="0.76619">
        <ele>198.65</ele>
        <time>2017-08-11T15:05:45Z</time>
      </trkpt>
      <trkpt lat="44.96126" lon="0.76613">
        <ele>199.13</ele>
        <time>2017-08-11T15:06:01Z</time>
      </trkpt>
      <trkpt lat="44.96126" lon="0.76611">
        <ele>199.61</ele>
        <time>2017-08-11T15:06:19Z</time>
      </trkpt>
      <trkpt lat="44.96128" lon="0.7661">
        <ele>199.61</ele>
        <time>2017-08-11T15:06:40Z</time>
      </trkpt>
      <trkpt lat="44.96128" lon="0.7661">
        <ele>199.61</ele>
        <time>2017-08-11T15:07:04Z</time>
      </trkpt>
      <trkpt lat="44.96128" lon="0.7661">
        <ele>199.13</ele>
        <time>2017-08-11T15:07:29Z</time>
      </trkpt>
      <trkpt lat="44.96129" lon="0.7661">
        <ele>200.09</ele>
        <time>2017-08-11T15:07:51Z</time>
      </trkpt>
      <trkpt lat="44.96129" lon="0.7661">
        <ele>199.61</ele>
        <time>2017-08-11T15:08:13Z</time>
      </trkpt>
      <trkpt lat="44.96129" lon="0.7661">
        <ele>199.61</ele>
        <time>2017-08-11T15:08:39Z</time>
      </trkpt>
      <trkpt lat="44.96129" lon="0.7661">
        <ele>199.61</ele>
        <time>2017-08-11T15:08:52Z</time>
      </trkpt>
      <trkpt lat="44.9613" lon="0.76597">
        <ele>200.57</ele>
        <time>2017-08-11T15:09:03Z</time>
      </trkpt>
      <trkpt lat="44.96127" lon="0.76584">
        <ele>201.05</ele>
        <time>2017-08-11T15:09:14Z</time>
      </trkpt>
      <trkpt lat="44.96122" lon="0.76578">
        <ele>201.53</ele>
        <time>2017-08-11T15:09:19Z</time>
      </trkpt>
      <trkpt lat="44.9612" lon="0.76575">
        <ele>201.53</ele>
        <time>2017-08-11T15:09:22Z</time>
      </trkpt>
      <trkpt lat="44.96118" lon="0.76573">
        <ele>202.49</ele>
        <time>2017-08-11T15:09:25Z</time>
      </trkpt>
      <trkpt lat="44.96108" lon="0.76562">
        <ele>202.01</ele>
        <time>2017-08-11T15:09:38Z</time>
      </trkpt>
      <trkpt lat="44.96102" lon="0.76551">
        <ele>202.01</ele>
        <time>2017-08-11T15:09:51Z</time>
      </trkpt>
      <trkpt lat="44.96103" lon="0.76549">
        <ele>202.01</ele>
        <time>2017-08-11T15:10:16Z</time>
      </trkpt>
      <trkpt lat="44.96103" lon="0.76549">
        <ele>201.53</ele>
        <time>2017-08-11T15:10:18Z</time>
      </trkpt>
      <trkpt lat="44.96108" lon="0.76536">
        <ele>202.01</ele>
        <time>2017-08-11T15:10:31Z</time>
      </trkpt>
      <trkpt lat="44.96107" lon="0.76536">
        <ele>202.01</ele>
        <time>2017-08-11T15:10:49Z</time>
      </trkpt>
      <trkpt lat="44.9611" lon="0.76532">
        <ele>202.01</ele>
        <time>2017-08-11T15:11:02Z</time>
      </trkpt>
      <trkpt lat="44.96119" lon="0.7652">
        <ele>202.98</ele>
        <time>2017-08-11T15:11:16Z</time>
      </trkpt>
      <trkpt lat="44.96131" lon="0.76507">
        <ele>203.46</ele>
        <time>2017-08-11T15:11:32Z</time>
      </trkpt>
      <trkpt lat="44.96134" lon="0.765">
        <ele>203.94</ele>
        <time>2017-08-11T15:11:37Z</time>
      </trkpt>
      <trkpt lat="44.96136" lon="0.76495">
        <ele>203.94</ele>
        <time>2017-08-11T15:11:41Z</time>
      </trkpt>
      <trkpt lat="44.96138" lon="0.7649">
        <ele>203.94</ele>
        <time>2017-08-11T15:11:46Z</time>
      </trkpt>
      <trkpt lat="44.96139" lon="0.76485">
        <ele>203.94</ele>
        <time>2017-08-11T15:11:49Z</time>
      </trkpt>
      <trkpt lat="44.96142" lon="0.76479">
        <ele>204.42</ele>
        <time>2017-08-11T15:11:53Z</time>
      </trkpt>
      <trkpt lat="44.96147" lon="0.76465">
        <ele>204.42</ele>
        <time>2017-08-11T15:12:05Z</time>
      </trkpt>
      <trkpt lat="44.9615" lon="0.76451">
        <ele>205.38</ele>
        <time>2017-08-11T15:12:15Z</time>
      </trkpt>
      <trkpt lat="44.9615" lon="0.76449">
        <ele>204.9</ele>
        <time>2017-08-11T15:12:17Z</time>
      </trkpt>
      <trkpt lat="44.96155" lon="0.76429">
        <ele>205.86</ele>
        <time>2017-08-11T15:12:32Z</time>
      </trkpt>
      <trkpt lat="44.96156" lon="0.76425">
        <ele>205.86</ele>
        <time>2017-08-11T15:12:35Z</time>
      </trkpt>
      <trkpt lat="44.96161" lon="0.76412">
        <ele>206.34</ele>
        <time>2017-08-11T15:12:46Z</time>
      </trkpt>
      <trkpt lat="44.96162" lon="0.76405">
        <ele>206.82</ele>
        <time>2017-08-11T15:12:51Z</time>
      </trkpt>
      <trkpt lat="44.96166" lon="0.76392">
        <ele>207.3</ele>
        <time>2017-08-11T15:13:02Z</time>
      </trkpt>
      <trkpt lat="44.96167" lon="0.76391">
        <ele>207.3</ele>
        <time>2017-08-11T15:13:04Z</time>
      </trkpt>
      <trkpt lat="44.96172" lon="0.76373">
        <ele>206.82</ele>
        <time>2017-08-11T15:13:16Z</time>
      </trkpt>
      <trkpt lat="44.96174" lon="0.76356">
        <ele>207.78</ele>
        <time>2017-08-11T15:13:30Z</time>
      </trkpt>
      <trkpt lat="44.96173" lon="0.76348">
        <ele>208.26</ele>
        <time>2017-08-11T15:13:37Z</time>
      </trkpt>
      <trkpt lat="44.96171" lon="0.76337">
        <ele>208.74</ele>
        <time>2017-08-11T15:13:44Z</time>
      </trkpt>
      <trkpt lat="44.96169" lon="0.7632">
        <ele>209.22</ele>
        <time>2017-08-11T15:13:58Z</time>
      </trkpt>
      <trkpt lat="44.96168" lon="0.76314">
        <ele>209.22</ele>
        <time>2017-08-11T15:14:01Z</time>
      </trkpt>
      <trkpt lat="44.96164" lon="0.76293">
        <ele>209.7</ele>
        <time>2017-08-11T15:14:14Z</time>
      </trkpt>
      <trkpt lat="44.9616" lon="0.76285">
        <ele>210.67</ele>
        <time>2017-08-11T15:14:29Z</time>
      </trkpt>
      <trkpt lat="44.9616" lon="0.76283">
        <ele>211.15</ele>
        <time>2017-08-11T15:15:01Z</time>
      </trkpt>
      <trkpt lat="44.9616" lon="0.76283">
        <ele>211.15</ele>
        <time>2017-08-11T15:15:27Z</time>
      </trkpt>
      <trkpt lat="44.9616" lon="0.76283">
        <ele>210.67</ele>
        <time>2017-08-11T15:15:51Z</time>
      </trkpt>
      <trkpt lat="44.96162" lon="0.76278">
        <ele>210.67</ele>
        <time>2017-08-11T15:16:13Z</time>
      </trkpt>
      <trkpt lat="44.96163" lon="0.76264">
        <ele>211.63</ele>
        <time>2017-08-11T15:16:28Z</time>
      </trkpt>
      <trkpt lat="44.96162" lon="0.76251">
        <ele>211.63</ele>
        <time>2017-08-11T15:16:42Z</time>
      </trkpt>
      <trkpt lat="44.9616" lon="0.76242">
        <ele>211.15</ele>
        <time>2017-08-11T15:16:54Z</time>
      </trkpt>
      <trkpt lat="44.96159" lon="0.76232">
        <ele>210.19</ele>
        <time>2017-08-11T15:17:11Z</time>
      </trkpt>
      <trkpt lat="44.96153" lon="0.76219">
        <ele>210.19</ele>
        <time>2017-08-11T15:17:22Z</time>
      </trkpt>
      <trkpt lat="44.96144" lon="0.76204">
        <ele>210.19</ele>
        <time>2017-08-11T15:17:37Z</time>
      </trkpt>
      <trkpt lat="44.96133" lon="0.7619">
        <ele>209.7</ele>
        <time>2017-08-11T15:17:51Z</time>
      </trkpt>
      <trkpt lat="44.96131" lon="0.76175">
        <ele>208.74</ele>
        <time>2017-08-11T15:18:04Z</time>
      </trkpt>
      <trkpt lat="44.96129" lon="0.7616">
        <ele>207.78</ele>
        <time>2017-08-11T15:18:17Z</time>
      </trkpt>
      <trkpt lat="44.96127" lon="0.76146">
        <ele>206.82</ele>
        <time>2017-08-11T15:18:29Z</time>
      </trkpt>
      <trkpt lat="44.96127" lon="0.76135">
        <ele>205.86</ele>
        <time>2017-08-11T15:18:41Z</time>
      </trkpt>
      <trkpt lat="44.96126" lon="0.76124">
        <ele>204.42</ele>
        <time>2017-08-11T15:18:56Z</time>
      </trkpt>
      <trkpt lat="44.96124" lon="0.76117">
        <ele>204.9</ele>
        <time>2017-08-11T15:19:15Z</time>
      </trkpt>
      <trkpt lat="44.96124" lon="0.76117">
        <ele>209.22</ele>
        <time>2017-08-11T15:19:19Z</time>
      </trkpt>
      <trkpt lat="44.96124" lon="0.76117">
        <ele>205.38</ele>
        <time>2017-08-11T15:19:20Z</time>
      </trkpt>
      <trkpt lat="44.96124" lon="0.76114">
        <ele>204.9</ele>
        <time>2017-08-11T15:19:35Z</time>
      </trkpt>
      <trkpt lat="44.96122" lon="0.76108">
        <ele>204.9</ele>
        <time>2017-08-11T15:20:00Z</time>
      </trkpt>
      <trkpt lat="44.96121" lon="0.76109">
        <ele>202.01</ele>
        <time>2017-08-11T15:20:16Z</time>
      </trkpt>
      <trkpt lat="44.96121" lon="0.76109">
        <ele>205.86</ele>
        <time>2017-08-11T15:20:18Z</time>
      </trkpt>
      <trkpt lat="44.96121" lon="0.76109">
        <ele>204.9</ele>
        <time>2017-08-11T15:20:22Z</time>
      </trkpt>
      <trkpt lat="44.96116" lon="0.76111">
        <ele>204.9</ele>
        <time>2017-08-11T15:20:34Z</time>
      </trkpt>
      <trkpt lat="44.96102" lon="0.76112">
        <ele>205.86</ele>
        <time>2017-08-11T15:20:45Z</time>
      </trkpt>
      <trkpt lat="44.96093" lon="0.76114">
        <ele>205.86</ele>
        <time>2017-08-11T15:20:53Z</time>
      </trkpt>
      <trkpt lat="44.96083" lon="0.76118">
        <ele>205.86</ele>
        <time>2017-08-11T15:21:06Z</time>
      </trkpt>
      <trkpt lat="44.96067" lon="0.76126">
        <ele>205.38</ele>
        <time>2017-08-11T15:21:19Z</time>
      </trkpt>
      <trkpt lat="44.96054" lon="0.76135">
        <ele>204.9</ele>
        <time>2017-08-11T15:21:33Z</time>
      </trkpt>
      <trkpt lat="44.9604" lon="0.7614">
        <ele>204.42</ele>
        <time>2017-08-11T15:21:45Z</time>
      </trkpt>
      <trkpt lat="44.96022" lon="0.76146">
        <ele>203.94</ele>
        <time>2017-08-11T15:21:58Z</time>
      </trkpt>
      <trkpt lat="44.96011" lon="0.7615">
        <ele>202.98</ele>
        <time>2017-08-11T15:22:10Z</time>
      </trkpt>
      <trkpt lat="44.96002" lon="0.76153">
        <ele>203.46</ele>
        <time>2017-08-11T15:22:23Z</time>
      </trkpt>
      <trkpt lat="44.96002" lon="0.76153">
        <ele>202.01</ele>
        <time>2017-08-11T15:22:38Z</time>
      </trkpt>
      <trkpt lat="44.96001" lon="0.76153">
        <ele>205.38</ele>
        <time>2017-08-11T15:22:40Z</time>
      </trkpt>
      <trkpt lat="44.96001" lon="0.76153">
        <ele>202.98</ele>
        <time>2017-08-11T15:22:42Z</time>
      </trkpt>
      <trkpt lat="44.95998" lon="0.76153">
        <ele>202.01</ele>
        <time>2017-08-11T15:22:55Z</time>
      </trkpt>
      <trkpt lat="44.95982" lon="0.76153">
        <ele>201.05</ele>
        <time>2017-08-11T15:23:06Z</time>
      </trkpt>
      <trkpt lat="44.95961" lon="0.76155">
        <ele>200.57</ele>
        <time>2017-08-11T15:23:20Z</time>
      </trkpt>
      <trkpt lat="44.95946" lon="0.76153">
        <ele>200.57</ele>
        <time>2017-08-11T15:23:33Z</time>
      </trkpt>
      <trkpt lat="44.95933" lon="0.76153">
        <ele>200.57</ele>
        <time>2017-08-11T15:23:45Z</time>
      </trkpt>
      <trkpt lat="44.95921" lon="0.76153">
        <ele>201.05</ele>
        <time>2017-08-11T15:23:58Z</time>
      </trkpt>
      <trkpt lat="44.9591" lon="0.76151">
        <ele>202.01</ele>
        <time>2017-08-11T15:24:09Z</time>
      </trkpt>
      <trkpt lat="44.95897" lon="0.76151">
        <ele>203.46</ele>
        <time>2017-08-11T15:24:23Z</time>
      </trkpt>
      <trkpt lat="44.9589" lon="0.76151">
        <ele>204.42</ele>
        <time>2017-08-11T15:24:37Z</time>
      </trkpt>
      <trkpt lat="44.95882" lon="0.76149">
        <ele>205.38</ele>
        <time>2017-08-11T15:24:51Z</time>
      </trkpt>
      <trkpt lat="44.9588" lon="0.76148">
        <ele>205.38</ele>
        <time>2017-08-11T15:24:54Z</time>
      </trkpt>
      <trkpt lat="44.9587" lon="0.76147">
        <ele>205.38</ele>
        <time>2017-08-11T15:25:03Z</time>
      </trkpt>
      <trkpt lat="44.95843" lon="0.76151">
        <ele>205.38</ele>
        <time>2017-08-11T15:25:15Z</time>
      </trkpt>
      <trkpt lat="44.95831" lon="0.76153">
        <ele>204.42</ele>
        <time>2017-08-11T15:25:27Z</time>
      </trkpt>
      <trkpt lat="44.95819" lon="0.76159">
        <ele>203.94</ele>
        <time>2017-08-11T15:25:38Z</time>
      </trkpt>
      <trkpt lat="44.95809" lon="0.76164">
        <ele>202.98</ele>
        <time>2017-08-11T15:25:50Z</time>
      </trkpt>
      <trkpt lat="44.95802" lon="0.76164">
        <ele>202.49</ele>
        <time>2017-08-11T15:25:56Z</time>
      </trkpt>
      <trkpt lat="44.95796" lon="0.76165">
        <ele>202.49</ele>
        <time>2017-08-11T15:26:01Z</time>
      </trkpt>
      <trkpt lat="44.95782" lon="0.76172">
        <ele>202.49</ele>
        <time>2017-08-11T15:26:14Z</time>
      </trkpt>
      <trkpt lat="44.95768" lon="0.76174">
        <ele>203.46</ele>
        <time>2017-08-11T15:26:27Z</time>
      </trkpt>
      <trkpt lat="44.95757" lon="0.76178">
        <ele>203.94</ele>
        <time>2017-08-11T15:26:38Z</time>
      </trkpt>
      <trkpt lat="44.95748" lon="0.76178">
        <ele>204.42</ele>
        <time>2017-08-11T15:26:46Z</time>
      </trkpt>
      <trkpt lat="44.95732" lon="0.76178">
        <ele>205.38</ele>
        <time>2017-08-11T15:27:00Z</time>
      </trkpt>
      <trkpt lat="44.95725" lon="0.76179">
        <ele>206.34</ele>
        <time>2017-08-11T15:27:09Z</time>
      </trkpt>
      <trkpt lat="44.95711" lon="0.76186">
        <ele>206.34</ele>
        <time>2017-08-11T15:27:22Z</time>
      </trkpt>
      <trkpt lat="44.95708" lon="0.76187">
        <ele>206.34</ele>
        <time>2017-08-11T15:27:36Z</time>
      </trkpt>
      <trkpt lat="44.95707" lon="0.76187">
        <ele>206.34</ele>
        <time>2017-08-11T15:27:39Z</time>
      </trkpt>
      <trkpt lat="44.957" lon="0.76189">
        <ele>206.34</ele>
        <time>2017-08-11T15:27:51Z</time>
      </trkpt>
      <trkpt lat="44.95688" lon="0.76191">
        <ele>206.34</ele>
        <time>2017-08-11T15:28:04Z</time>
      </trkpt>
      <trkpt lat="44.95683" lon="0.76191">
        <ele>206.34</ele>
        <time>2017-08-11T15:28:26Z</time>
      </trkpt>
      <trkpt lat="44.95683" lon="0.7619">
        <ele>205.86</ele>
        <time>2017-08-11T15:28:43Z</time>
      </trkpt>
      <trkpt lat="44.95681" lon="0.76187">
        <ele>205.86</ele>
        <time>2017-08-11T15:28:57Z</time>
      </trkpt>
      <trkpt lat="44.9568" lon="0.76185">
        <ele>205.86</ele>
        <time>2017-08-11T15:29:24Z</time>
      </trkpt>
      <trkpt lat="44.9568" lon="0.76184">
        <ele>205.38</ele>
        <time>2017-08-11T15:29:50Z</time>
      </trkpt>
      <trkpt lat="44.9568" lon="0.76184">
        <ele>205.38</ele>
        <time>2017-08-11T15:30:04Z</time>
      </trkpt>
      <trkpt lat="44.95682" lon="0.76172">
        <ele>204.42</ele>
        <time>2017-08-11T15:30:12Z</time>
      </trkpt>
      <trkpt lat="44.95683" lon="0.76148">
        <ele>204.42</ele>
        <time>2017-08-11T15:30:26Z</time>
      </trkpt>
      <trkpt lat="44.95684" lon="0.76125">
        <ele>203.94</ele>
        <time>2017-08-11T15:30:41Z</time>
      </trkpt>
      <trkpt lat="44.95683" lon="0.7612">
        <ele>202.49</ele>
        <time>2017-08-11T15:30:45Z</time>
      </trkpt>
      <trkpt lat="44.95682" lon="0.76113">
        <ele>203.46</ele>
        <time>2017-08-11T15:30:49Z</time>
      </trkpt>
      <trkpt lat="44.95681" lon="0.76101">
        <ele>203.46</ele>
        <time>2017-08-11T15:30:55Z</time>
      </trkpt>
      <trkpt lat="44.9568" lon="0.76097">
        <ele>203.94</ele>
        <time>2017-08-11T15:30:59Z</time>
      </trkpt>
      <trkpt lat="44.95677" lon="0.76084">
        <ele>203.46</ele>
        <time>2017-08-11T15:31:08Z</time>
      </trkpt>
      <trkpt lat="44.95676" lon="0.76077">
        <ele>203.46</ele>
        <time>2017-08-11T15:31:12Z</time>
      </trkpt>
      <trkpt lat="44.95676" lon="0.76051">
        <ele>203.46</ele>
        <time>2017-08-11T15:31:28Z</time>
      </trkpt>
      <trkpt lat="44.95675" lon="0.7604">
        <ele>203.46</ele>
        <time>2017-08-11T15:31:35Z</time>
      </trkpt>
      <trkpt lat="44.95674" lon="0.76028">
        <ele>203.46</ele>
        <time>2017-08-11T15:31:43Z</time>
      </trkpt>
      <trkpt lat="44.95673" lon="0.76025">
        <ele>203.46</ele>
        <time>2017-08-11T15:31:45Z</time>
      </trkpt>
      <trkpt lat="44.95672" lon="0.76016">
        <ele>202.98</ele>
        <time>2017-08-11T15:31:50Z</time>
      </trkpt>
      <trkpt lat="44.9567" lon="0.75992">
        <ele>202.98</ele>
        <time>2017-08-11T15:32:06Z</time>
      </trkpt>
      <trkpt lat="44.95669" lon="0.75978">
        <ele>203.46</ele>
        <time>2017-08-11T15:32:16Z</time>
      </trkpt>
      <trkpt lat="44.95667" lon="0.75954">
        <ele>202.98</ele>
        <time>2017-08-11T15:32:31Z</time>
      </trkpt>
      <trkpt lat="44.95667" lon="0.75947">
        <ele>202.49</ele>
        <time>2017-08-11T15:32:37Z</time>
      </trkpt>
      <trkpt lat="44.95665" lon="0.75928">
        <ele>202.98</ele>
        <time>2017-08-11T15:32:50Z</time>
      </trkpt>
      <trkpt lat="44.95665" lon="0.75924">
        <ele>203.46</ele>
        <time>2017-08-11T15:32:53Z</time>
      </trkpt>
      <trkpt lat="44.95664" lon="0.75914">
        <ele>202.98</ele>
        <time>2017-08-11T15:32:59Z</time>
      </trkpt>
      <trkpt lat="44.95664" lon="0.75909">
        <ele>203.46</ele>
        <time>2017-08-11T15:33:02Z</time>
      </trkpt>
      <trkpt lat="44.95662" lon="0.75889">
        <ele>203.46</ele>
        <time>2017-08-11T15:33:13Z</time>
      </trkpt>
      <trkpt lat="44.95662" lon="0.75869">
        <ele>203.46</ele>
        <time>2017-08-11T15:33:25Z</time>
      </trkpt>
      <trkpt lat="44.95661" lon="0.75865">
        <ele>202.98</ele>
        <time>2017-08-11T15:33:28Z</time>
      </trkpt>
      <trkpt lat="44.95662" lon="0.75847">
        <ele>203.46</ele>
        <time>2017-08-11T15:33:40Z</time>
      </trkpt>
      <trkpt lat="44.95663" lon="0.75843">
        <ele>203.46</ele>
        <time>2017-08-11T15:33:43Z</time>
      </trkpt>
      <trkpt lat="44.95662" lon="0.75824">
        <ele>203.46</ele>
        <time>2017-08-11T15:33:56Z</time>
      </trkpt>
      <trkpt lat="44.95662" lon="0.75806">
        <ele>203.46</ele>
        <time>2017-08-11T15:34:08Z</time>
      </trkpt>
      <trkpt lat="44.95662" lon="0.75797">
        <ele>203.94</ele>
        <time>2017-08-11T15:34:14Z</time>
      </trkpt>
      <trkpt lat="44.95662" lon="0.75794">
        <ele>203.94</ele>
        <time>2017-08-11T15:34:16Z</time>
      </trkpt>
      <trkpt lat="44.95662" lon="0.75791">
        <ele>203.94</ele>
        <time>2017-08-11T15:34:18Z</time>
      </trkpt>
      <trkpt lat="44.95662" lon="0.75783">
        <ele>203.46</ele>
        <time>2017-08-11T15:34:24Z</time>
      </trkpt>
      <trkpt lat="44.95668" lon="0.75762">
        <ele>203.94</ele>
        <time>2017-08-11T15:34:39Z</time>
      </trkpt>
      <trkpt lat="44.95673" lon="0.75744">
        <ele>203.94</ele>
        <time>2017-08-11T15:34:52Z</time>
      </trkpt>
      <trkpt lat="44.95677" lon="0.75726">
        <ele>203.94</ele>
        <time>2017-08-11T15:35:07Z</time>
      </trkpt>
      <trkpt lat="44.95679" lon="0.75707">
        <ele>203.94</ele>
        <time>2017-08-11T15:35:20Z</time>
      </trkpt>
      <trkpt lat="44.95682" lon="0.75692">
        <ele>203.46</ele>
        <time>2017-08-11T15:35:31Z</time>
      </trkpt>
      <trkpt lat="44.95686" lon="0.75676">
        <ele>202.98</ele>
        <time>2017-08-11T15:35:43Z</time>
      </trkpt>
      <trkpt lat="44.95687" lon="0.75664">
        <ele>202.49</ele>
        <time>2017-08-11T15:35:57Z</time>
      </trkpt>
      <trkpt lat="44.9569" lon="0.75653">
        <ele>202.01</ele>
        <time>2017-08-11T15:36:10Z</time>
      </trkpt>
      <trkpt lat="44.95689" lon="0.75645">
        <ele>201.53</ele>
        <time>2017-08-11T15:36:28Z</time>
      </trkpt>
      <trkpt lat="44.95689" lon="0.75642">
        <ele>201.53</ele>
        <time>2017-08-11T15:36:31Z</time>
      </trkpt>
      <trkpt lat="44.95692" lon="0.75623">
        <ele>200.57</ele>
        <time>2017-08-11T15:36:45Z</time>
      </trkpt>
      <trkpt lat="44.95695" lon="0.75603">
        <ele>199.61</ele>
        <time>2017-08-11T15:36:58Z</time>
      </trkpt>
      <trkpt lat="44.95695" lon="0.756">
        <ele>200.09</ele>
        <time>2017-08-11T15:37:00Z</time>
      </trkpt>
      <trkpt lat="44.95697" lon="0.75584">
        <ele>199.13</ele>
        <time>2017-08-11T15:37:12Z</time>
      </trkpt>
      <trkpt lat="44.95698" lon="0.75563">
        <ele>198.17</ele>
        <time>2017-08-11T15:37:24Z</time>
      </trkpt>
      <trkpt lat="44.95703" lon="0.75549">
        <ele>197.21</ele>
        <time>2017-08-11T15:37:38Z</time>
      </trkpt>
      <trkpt lat="44.95703" lon="0.75533">
        <ele>196.73</ele>
        <time>2017-08-11T15:37:51Z</time>
      </trkpt>
      <trkpt lat="44.95704" lon="0.75527">
        <ele>196.25</ele>
        <time>2017-08-11T15:38:09Z</time>
      </trkpt>
      <trkpt lat="44.95708" lon="0.75508">
        <ele>195.77</ele>
        <time>2017-08-11T15:38:23Z</time>
      </trkpt>
      <trkpt lat="44.95713" lon="0.75489">
        <ele>195.77</ele>
        <time>2017-08-11T15:38:33Z</time>
      </trkpt>
      <trkpt lat="44.95721" lon="0.75465">
        <ele>195.28</ele>
        <time>2017-08-11T15:38:47Z</time>
      </trkpt>
      <trkpt lat="44.95727" lon="0.75449">
        <ele>195.28</ele>
        <time>2017-08-11T15:39:02Z</time>
      </trkpt>
      <trkpt lat="44.95734" lon="0.75434">
        <ele>194.8</ele>
        <time>2017-08-11T15:39:14Z</time>
      </trkpt>
      <trkpt lat="44.95743" lon="0.75417">
        <ele>194.8</ele>
        <time>2017-08-11T15:39:28Z</time>
      </trkpt>
      <trkpt lat="44.95752" lon="0.754">
        <ele>194.32</ele>
        <time>2017-08-11T15:39:42Z</time>
      </trkpt>
      <trkpt lat="44.95757" lon="0.75385">
        <ele>193.84</ele>
        <time>2017-08-11T15:39:55Z</time>
      </trkpt>
      <trkpt lat="44.95759" lon="0.7536">
        <ele>193.84</ele>
        <time>2017-08-11T15:40:09Z</time>
      </trkpt>
      <trkpt lat="44.95758" lon="0.7534">
        <ele>192.4</ele>
        <time>2017-08-11T15:40:21Z</time>
      </trkpt>
      <trkpt lat="44.95756" lon="0.75322">
        <ele>191.44</ele>
        <time>2017-08-11T15:40:34Z</time>
      </trkpt>
      <trkpt lat="44.95753" lon="0.75298">
        <ele>190</ele>
        <time>2017-08-11T15:40:49Z</time>
      </trkpt>
      <trkpt lat="44.95751" lon="0.75279">
        <ele>189.04</ele>
        <time>2017-08-11T15:41:02Z</time>
      </trkpt>
      <trkpt lat="44.95749" lon="0.75261">
        <ele>187.59</ele>
        <time>2017-08-11T15:41:14Z</time>
      </trkpt>
      <trkpt lat="44.95748" lon="0.75239">
        <ele>187.11</ele>
        <time>2017-08-11T15:41:25Z</time>
      </trkpt>
      <trkpt lat="44.95744" lon="0.75215">
        <ele>186.63</ele>
        <time>2017-08-11T15:41:40Z</time>
      </trkpt>
      <trkpt lat="44.95744" lon="0.75213">
        <ele>186.63</ele>
        <time>2017-08-11T15:41:41Z</time>
      </trkpt>
      <trkpt lat="44.95743" lon="0.75199">
        <ele>186.15</ele>
        <time>2017-08-11T15:41:54Z</time>
      </trkpt>
      <trkpt lat="44.95743" lon="0.75197">
        <ele>186.63</ele>
        <time>2017-08-11T15:42:22Z</time>
      </trkpt>
      <trkpt lat="44.95743" lon="0.75197">
        <ele>181.83</ele>
        <time>2017-08-11T15:42:26Z</time>
      </trkpt>
      <trkpt lat="44.95743" lon="0.75197">
        <ele>190.48</ele>
        <time>2017-08-11T15:42:27Z</time>
      </trkpt>
      <trkpt lat="44.95743" lon="0.75197">
        <ele>186.63</ele>
        <time>2017-08-11T15:42:28Z</time>
      </trkpt>
      <trkpt lat="44.95743" lon="0.75194">
        <ele>186.15</ele>
        <time>2017-08-11T15:42:35Z</time>
      </trkpt>
      <trkpt lat="44.9574" lon="0.7517">
        <ele>185.67</ele>
        <time>2017-08-11T15:42:49Z</time>
      </trkpt>
      <trkpt lat="44.95741" lon="0.75168">
        <ele>185.67</ele>
        <time>2017-08-11T15:42:50Z</time>
      </trkpt>
      <trkpt lat="44.95742" lon="0.75147">
        <ele>184.71</ele>
        <time>2017-08-11T15:43:02Z</time>
      </trkpt>
      <trkpt lat="44.95745" lon="0.75131">
        <ele>183.75</ele>
        <time>2017-08-11T15:43:16Z</time>
      </trkpt>
      <trkpt lat="44.95748" lon="0.75116">
        <ele>183.27</ele>
        <time>2017-08-11T15:43:28Z</time>
      </trkpt>
      <trkpt lat="44.95751" lon="0.75108">
        <ele>182.31</ele>
        <time>2017-08-11T15:43:35Z</time>
      </trkpt>
      <trkpt lat="44.95754" lon="0.75093">
        <ele>181.35</ele>
        <time>2017-08-11T15:43:45Z</time>
      </trkpt>
      <trkpt lat="44.95757" lon="0.75078">
        <ele>180.38</ele>
        <time>2017-08-11T15:43:57Z</time>
      </trkpt>
      <trkpt lat="44.95762" lon="0.75061">
        <ele>178.94</ele>
        <time>2017-08-11T15:44:11Z</time>
      </trkpt>
      <trkpt lat="44.95766" lon="0.75047">
        <ele>177.98</ele>
        <time>2017-08-11T15:44:24Z</time>
      </trkpt>
      <trkpt lat="44.9577" lon="0.7503">
        <ele>177.5</ele>
        <time>2017-08-11T15:44:37Z</time>
      </trkpt>
      <trkpt lat="44.95774" lon="0.75019">
        <ele>176.54</ele>
        <time>2017-08-11T15:44:46Z</time>
      </trkpt>
      <trkpt lat="44.95787" lon="0.75004">
        <ele>176.06</ele>
        <time>2017-08-11T15:44:59Z</time>
      </trkpt>
      <trkpt lat="44.95796" lon="0.74992">
        <ele>175.58</ele>
        <time>2017-08-11T15:45:12Z</time>
      </trkpt>
      <trkpt lat="44.95804" lon="0.74977">
        <ele>175.58</ele>
        <time>2017-08-11T15:45:24Z</time>
      </trkpt>
      <trkpt lat="44.95812" lon="0.74958">
        <ele>175.58</ele>
        <time>2017-08-11T15:45:38Z</time>
      </trkpt>
      <trkpt lat="44.95819" lon="0.74944">
        <ele>176.54</ele>
        <time>2017-08-11T15:45:52Z</time>
      </trkpt>
      <trkpt lat="44.95827" lon="0.74929">
        <ele>177.5</ele>
        <time>2017-08-11T15:46:08Z</time>
      </trkpt>
      <trkpt lat="44.95833" lon="0.74914">
        <ele>177.98</ele>
        <time>2017-08-11T15:46:20Z</time>
      </trkpt>
      <trkpt lat="44.95838" lon="0.74907">
        <ele>178.46</ele>
        <time>2017-08-11T15:46:34Z</time>
      </trkpt>
      <trkpt lat="44.95838" lon="0.74905">
        <ele>178.46</ele>
        <time>2017-08-11T15:47:00Z</time>
      </trkpt>
      <trkpt lat="44.95839" lon="0.74903">
        <ele>178.46</ele>
        <time>2017-08-11T15:47:24Z</time>
      </trkpt>
      <trkpt lat="44.9584" lon="0.74901">
        <ele>178.46</ele>
        <time>2017-08-11T15:47:52Z</time>
      </trkpt>
      <trkpt lat="44.95847" lon="0.74881">
        <ele>179.42</ele>
        <time>2017-08-11T15:48:08Z</time>
      </trkpt>
      <trkpt lat="44.95856" lon="0.74861">
        <ele>179.9</ele>
        <time>2017-08-11T15:48:22Z</time>
      </trkpt>
      <trkpt lat="44.95862" lon="0.74842">
        <ele>179.9</ele>
        <time>2017-08-11T15:48:38Z</time>
      </trkpt>
      <trkpt lat="44.95866" lon="0.74825">
        <ele>179.9</ele>
        <time>2017-08-11T15:48:51Z</time>
      </trkpt>
      <trkpt lat="44.95869" lon="0.74809">
        <ele>179.9</ele>
        <time>2017-08-11T15:49:05Z</time>
      </trkpt>
      <trkpt lat="44.95874" lon="0.74791">
        <ele>179.42</ele>
        <time>2017-08-11T15:49:19Z</time>
      </trkpt>
      <trkpt lat="44.95877" lon="0.74779">
        <ele>178.94</ele>
        <time>2017-08-11T15:49:32Z</time>
      </trkpt>
      <trkpt lat="44.95879" lon="0.74765">
        <ele>177.5</ele>
        <time>2017-08-11T15:49:44Z</time>
      </trkpt>
      <trkpt lat="44.9588" lon="0.74749">
        <ele>177.02</ele>
        <time>2017-08-11T15:49:58Z</time>
      </trkpt>
      <trkpt lat="44.9588" lon="0.74736">
        <ele>175.58</ele>
        <time>2017-08-11T15:50:10Z</time>
      </trkpt>
      <trkpt lat="44.95883" lon="0.74719">
        <ele>174.62</ele>
        <time>2017-08-11T15:50:24Z</time>
      </trkpt>
      <trkpt lat="44.95883" lon="0.74706">
        <ele>174.14</ele>
        <time>2017-08-11T15:50:36Z</time>
      </trkpt>
      <trkpt lat="44.95884" lon="0.74704">
        <ele>173.66</ele>
        <time>2017-08-11T15:50:58Z</time>
      </trkpt>
      <trkpt lat="44.95883" lon="0.74691">
        <ele>172.69</ele>
        <time>2017-08-11T15:51:13Z</time>
      </trkpt>
      <trkpt lat="44.95884" lon="0.74678">
        <ele>172.21</ele>
        <time>2017-08-11T15:51:26Z</time>
      </trkpt>
      <trkpt lat="44.95885" lon="0.74658">
        <ele>172.21</ele>
        <time>2017-08-11T15:51:37Z</time>
      </trkpt>
      <trkpt lat="44.9589" lon="0.74639">
        <ele>172.21</ele>
        <time>2017-08-11T15:51:49Z</time>
      </trkpt>
      <trkpt lat="44.95891" lon="0.74622">
        <ele>172.21</ele>
        <time>2017-08-11T15:52:01Z</time>
      </trkpt>
      <trkpt lat="44.95894" lon="0.74606">
        <ele>172.21</ele>
        <time>2017-08-11T15:52:12Z</time>
      </trkpt>
      <trkpt lat="44.95895" lon="0.74585">
        <ele>171.73</ele>
        <time>2017-08-11T15:52:26Z</time>
      </trkpt>
      <trkpt lat="44.95894" lon="0.74569">
        <ele>171.25</ele>
        <time>2017-08-11T15:52:38Z</time>
      </trkpt>
      <trkpt lat="44.9589" lon="0.74551">
        <ele>171.73</ele>
        <time>2017-08-11T15:52:51Z</time>
      </trkpt>
      <trkpt lat="44.95888" lon="0.74537">
        <ele>171.73</ele>
        <time>2017-08-11T15:53:02Z</time>
      </trkpt>
      <trkpt lat="44.95884" lon="0.74526">
        <ele>171.25</ele>
        <time>2017-08-11T15:53:08Z</time>
      </trkpt>
      <trkpt lat="44.95883" lon="0.7452">
        <ele>171.25</ele>
        <time>2017-08-11T15:53:11Z</time>
      </trkpt>
      <trkpt lat="44.9588" lon="0.74507">
        <ele>171.25</ele>
        <time>2017-08-11T15:53:21Z</time>
      </trkpt>
      <trkpt lat="44.95876" lon="0.74494">
        <ele>171.25</ele>
        <time>2017-08-11T15:53:33Z</time>
      </trkpt>
      <trkpt lat="44.9587" lon="0.7448">
        <ele>170.77</ele>
        <time>2017-08-11T15:53:47Z</time>
      </trkpt>
      <trkpt lat="44.95863" lon="0.74467">
        <ele>169.81</ele>
        <time>2017-08-11T15:54:01Z</time>
      </trkpt>
      <trkpt lat="44.95853" lon="0.74452">
        <ele>169.33</ele>
        <time>2017-08-11T15:54:16Z</time>
      </trkpt>
      <trkpt lat="44.95847" lon="0.74441">
        <ele>167.89</ele>
        <time>2017-08-11T15:54:30Z</time>
      </trkpt>
      <trkpt lat="44.95843" lon="0.7443">
        <ele>166.45</ele>
        <time>2017-08-11T15:54:44Z</time>
      </trkpt>
      <trkpt lat="44.95839" lon="0.74422">
        <ele>165</ele>
        <time>2017-08-11T15:54:57Z</time>
      </trkpt>
      <trkpt lat="44.95837" lon="0.74413">
        <ele>163.56</ele>
        <time>2017-08-11T15:55:10Z</time>
      </trkpt>
      <trkpt lat="44.95836" lon="0.74403">
        <ele>162.12</ele>
        <time>2017-08-11T15:55:25Z</time>
      </trkpt>
      <trkpt lat="44.95836" lon="0.74397">
        <ele>160.68</ele>
        <time>2017-08-11T15:55:39Z</time>
      </trkpt>
      <trkpt lat="44.95835" lon="0.74388">
        <ele>159.72</ele>
        <time>2017-08-11T15:55:53Z</time>
      </trkpt>
      <trkpt lat="44.95834" lon="0.74379">
        <ele>158.27</ele>
        <time>2017-08-11T15:56:06Z</time>
      </trkpt>
      <trkpt lat="44.95834" lon="0.74373">
        <ele>156.83</ele>
        <time>2017-08-11T15:56:19Z</time>
      </trkpt>
      <trkpt lat="44.95832" lon="0.74361">
        <ele>155.39</ele>
        <time>2017-08-11T15:56:33Z</time>
      </trkpt>
      <trkpt lat="44.95831" lon="0.7435">
        <ele>153.95</ele>
        <time>2017-08-11T15:56:47Z</time>
      </trkpt>
      <trkpt lat="44.95831" lon="0.74344">
        <ele>152.51</ele>
        <time>2017-08-11T15:57:00Z</time>
      </trkpt>
      <trkpt lat="44.95834" lon="0.74337">
        <ele>151.06</ele>
        <time>2017-08-11T15:57:13Z</time>
      </trkpt>
      <trkpt lat="44.95838" lon="0.7433">
        <ele>149.14</ele>
        <time>2017-08-11T15:57:27Z</time>
      </trkpt>
      <trkpt lat="44.95843" lon="0.74321">
        <ele>147.7</ele>
        <time>2017-08-11T15:57:45Z</time>
      </trkpt>
      <trkpt lat="44.95849" lon="0.7431">
        <ele>146.74</ele>
        <time>2017-08-11T15:58:00Z</time>
      </trkpt>
      <trkpt lat="44.9585" lon="0.74302">
        <ele>144.82</ele>
        <time>2017-08-11T15:58:07Z</time>
      </trkpt>
      <trkpt lat="44.95847" lon="0.74282">
        <ele>143.37</ele>
        <time>2017-08-11T15:58:21Z</time>
      </trkpt>
      <trkpt lat="44.95845" lon="0.74276">
        <ele>143.37</ele>
        <time>2017-08-11T15:58:26Z</time>
      </trkpt>
      <trkpt lat="44.95842" lon="0.74265">
        <ele>142.89</ele>
        <time>2017-08-11T15:58:39Z</time>
      </trkpt>
      <trkpt lat="44.95838" lon="0.74251">
        <ele>142.89</ele>
        <time>2017-08-11T15:58:52Z</time>
      </trkpt>
      <trkpt lat="44.95836" lon="0.74246">
        <ele>142.89</ele>
        <time>2017-08-11T15:58:56Z</time>
      </trkpt>
      <trkpt lat="44.95833" lon="0.74237">
        <ele>143.37</ele>
        <time>2017-08-11T15:59:03Z</time>
      </trkpt>
      <trkpt lat="44.95833" lon="0.7423">
        <ele>142.89</ele>
        <time>2017-08-11T15:59:08Z</time>
      </trkpt>
      <trkpt lat="44.95831" lon="0.74214">
        <ele>143.85</ele>
        <time>2017-08-11T15:59:20Z</time>
      </trkpt>
      <trkpt lat="44.95831" lon="0.74213">
        <ele>143.85</ele>
        <time>2017-08-11T15:59:21Z</time>
      </trkpt>
      <trkpt lat="44.95835" lon="0.74205">
        <ele>143.85</ele>
        <time>2017-08-11T15:59:30Z</time>
      </trkpt>
      <trkpt lat="44.95847" lon="0.74199">
        <ele>143.37</ele>
        <time>2017-08-11T15:59:44Z</time>
      </trkpt>
      <trkpt lat="44.95853" lon="0.74196">
        <ele>143.37</ele>
        <time>2017-08-11T15:59:50Z</time>
      </trkpt>
      <trkpt lat="44.95858" lon="0.74194">
        <ele>143.37</ele>
        <time>2017-08-11T15:59:54Z</time>
      </trkpt>
      <trkpt lat="44.95873" lon="0.74186">
        <ele>143.37</ele>
        <time>2017-08-11T16:00:09Z</time>
      </trkpt>
      <trkpt lat="44.9588" lon="0.74179">
        <ele>142.89</ele>
        <time>2017-08-11T16:00:23Z</time>
      </trkpt>
      <trkpt lat="44.9588" lon="0.74179">
        <ele>142.89</ele>
        <time>2017-08-11T16:00:39Z</time>
      </trkpt>
      <trkpt lat="44.95881" lon="0.7418">
        <ele>142.89</ele>
        <time>2017-08-11T16:00:54Z</time>
      </trkpt>
      <trkpt lat="44.95882" lon="0.7418">
        <ele>142.89</ele>
        <time>2017-08-11T16:01:12Z</time>
      </trkpt>
      <trkpt lat="44.95882" lon="0.74181">
        <ele>142.89</ele>
        <time>2017-08-11T16:01:33Z</time>
      </trkpt>
      <trkpt lat="44.95882" lon="0.74182">
        <ele>143.85</ele>
        <time>2017-08-11T16:02:01Z</time>
      </trkpt>
      <trkpt lat="44.95882" lon="0.74182">
        <ele>142.89</ele>
        <time>2017-08-11T16:02:28Z</time>
      </trkpt>
      <trkpt lat="44.95882" lon="0.74183">
        <ele>142.89</ele>
        <time>2017-08-11T16:02:58Z</time>
      </trkpt>
      <trkpt lat="44.95882" lon="0.74183">
        <ele>143.37</ele>
        <time>2017-08-11T16:03:22Z</time>
      </trkpt>
      <trkpt lat="44.95882" lon="0.74184">
        <ele>143.37</ele>
        <time>2017-08-11T16:03:51Z</time>
      </trkpt>
      <trkpt lat="44.95882" lon="0.74185">
        <ele>143.37</ele>
        <time>2017-08-11T16:04:19Z</time>
      </trkpt>
      <trkpt lat="44.95882" lon="0.74186">
        <ele>143.37</ele>
        <time>2017-08-11T16:04:46Z</time>
      </trkpt>
      <trkpt lat="44.95881" lon="0.74185">
        <ele>142.89</ele>
        <time>2017-08-11T16:05:05Z</time>
      </trkpt>
      <trkpt lat="44.95881" lon="0.74186">
        <ele>143.37</ele>
        <time>2017-08-11T16:05:29Z</time>
      </trkpt>
      <trkpt lat="44.95881" lon="0.74187">
        <ele>143.37</ele>
        <time>2017-08-11T16:05:56Z</time>
      </trkpt>
      <trkpt lat="44.95881" lon="0.74188">
        <ele>142.89</ele>
        <time>2017-08-11T16:06:19Z</time>
      </trkpt>
      <trkpt lat="44.95881" lon="0.74186">
        <ele>143.37</ele>
        <time>2017-08-11T16:06:32Z</time>
      </trkpt>
      <trkpt lat="44.95882" lon="0.74184">
        <ele>142.89</ele>
        <time>2017-08-11T16:06:34Z</time>
      </trkpt>
      <trkpt lat="44.95882" lon="0.74177">
        <ele>143.37</ele>
        <time>2017-08-11T16:06:38Z</time>
      </trkpt>
      <trkpt lat="44.95883" lon="0.74159">
        <ele>144.34</ele>
        <time>2017-08-11T16:06:49Z</time>
      </trkpt>
      <trkpt lat="44.95884" lon="0.74147">
        <ele>144.34</ele>
        <time>2017-08-11T16:06:56Z</time>
      </trkpt>
      <trkpt lat="44.95883" lon="0.74132">
        <ele>144.82</ele>
        <time>2017-08-11T16:07:04Z</time>
      </trkpt>
      <trkpt lat="44.95883" lon="0.74115">
        <ele>144.82</ele>
        <time>2017-08-11T16:07:15Z</time>
      </trkpt>
      <trkpt lat="44.95883" lon="0.74093">
        <ele>144.82</ele>
        <time>2017-08-11T16:07:29Z</time>
      </trkpt>
      <trkpt lat="44.95883" lon="0.74073">
        <ele>145.3</ele>
        <time>2017-08-11T16:07:43Z</time>
      </trkpt>
      <trkpt lat="44.95883" lon="0.74051">
        <ele>145.3</ele>
        <time>2017-08-11T16:07:57Z</time>
      </trkpt>
      <trkpt lat="44.95884" lon="0.74038">
        <ele>145.78</ele>
        <time>2017-08-11T16:08:07Z</time>
      </trkpt>
      <trkpt lat="44.95884" lon="0.74019">
        <ele>145.78</ele>
        <time>2017-08-11T16:08:19Z</time>
      </trkpt>
      <trkpt lat="44.95884" lon="0.74004">
        <ele>146.26</ele>
        <time>2017-08-11T16:08:29Z</time>
      </trkpt>
      <trkpt lat="44.95887" lon="0.73994">
        <ele>146.26</ele>
        <time>2017-08-11T16:08:35Z</time>
      </trkpt>
      <trkpt lat="44.95891" lon="0.73985">
        <ele>145.3</ele>
        <time>2017-08-11T16:08:44Z</time>
      </trkpt>
      <trkpt lat="44.9589" lon="0.73971">
        <ele>143.37</ele>
        <time>2017-08-11T16:08:56Z</time>
      </trkpt>
      <trkpt lat="44.95889" lon="0.73959">
        <ele>142.89</ele>
        <time>2017-08-11T16:09:05Z</time>
      </trkpt>
      <trkpt lat="44.95891" lon="0.73941">
        <ele>140.97</ele>
        <time>2017-08-11T16:09:18Z</time>
      </trkpt>
      <trkpt lat="44.95891" lon="0.73939">
        <ele>141.45</ele>
        <time>2017-08-11T16:09:20Z</time>
      </trkpt>
      <trkpt lat="44.95892" lon="0.73932">
        <ele>140.97</ele>
        <time>2017-08-11T16:09:24Z</time>
      </trkpt>
      <trkpt lat="44.95899" lon="0.73912">
        <ele>140.49</ele>
        <time>2017-08-11T16:09:37Z</time>
      </trkpt>
      <trkpt lat="44.95903" lon="0.73892">
        <ele>140.01</ele>
        <time>2017-08-11T16:09:52Z</time>
      </trkpt>
      <trkpt lat="44.95906" lon="0.7388">
        <ele>140.97</ele>
        <time>2017-08-11T16:10:05Z</time>
      </trkpt>
      <trkpt lat="44.95909" lon="0.73865">
        <ele>141.93</ele>
        <time>2017-08-11T16:10:19Z</time>
      </trkpt>
      <trkpt lat="44.95914" lon="0.73861">
        <ele>142.41</ele>
        <time>2017-08-11T16:10:28Z</time>
      </trkpt>
      <trkpt lat="44.95916" lon="0.73836">
        <ele>142.41</ele>
        <time>2017-08-11T16:10:43Z</time>
      </trkpt>
      <trkpt lat="44.95913" lon="0.73823">
        <ele>142.89</ele>
        <time>2017-08-11T16:10:55Z</time>
      </trkpt>
      <trkpt lat="44.9591" lon="0.73825">
        <ele>143.37</ele>
        <time>2017-08-11T16:11:12Z</time>
      </trkpt>
      <trkpt lat="44.95909" lon="0.73818">
        <ele>142.89</ele>
        <time>2017-08-11T16:11:26Z</time>
      </trkpt>
      <trkpt lat="44.95907" lon="0.73807">
        <ele>143.37</ele>
        <time>2017-08-11T16:11:42Z</time>
      </trkpt>
      <trkpt lat="44.95907" lon="0.73805">
        <ele>143.85</ele>
        <time>2017-08-11T16:11:55Z</time>
      </trkpt>
      <trkpt lat="44.95906" lon="0.73795">
        <ele>143.85</ele>
        <time>2017-08-11T16:12:10Z</time>
      </trkpt>
      <trkpt lat="44.95903" lon="0.73787">
        <ele>143.85</ele>
        <time>2017-08-11T16:12:21Z</time>
      </trkpt>
      <trkpt lat="44.95903" lon="0.73776">
        <ele>144.82</ele>
        <time>2017-08-11T16:12:30Z</time>
      </trkpt>
      <trkpt lat="44.95906" lon="0.73766">
        <ele>144.34</ele>
        <time>2017-08-11T16:12:37Z</time>
      </trkpt>
      <trkpt lat="44.95907" lon="0.73753">
        <ele>144.34</ele>
        <time>2017-08-11T16:12:46Z</time>
      </trkpt>
      <trkpt lat="44.95909" lon="0.73737">
        <ele>143.85</ele>
        <time>2017-08-11T16:12:57Z</time>
      </trkpt>
      <trkpt lat="44.95909" lon="0.73736">
        <ele>143.37</ele>
        <time>2017-08-11T16:12:58Z</time>
      </trkpt>
      <trkpt lat="44.95912" lon="0.73732">
        <ele>142.89</ele>
        <time>2017-08-11T16:13:02Z</time>
      </trkpt>
      <trkpt lat="44.95918" lon="0.73713">
        <ele>142.89</ele>
        <time>2017-08-11T16:13:16Z</time>
      </trkpt>
      <trkpt lat="44.9592" lon="0.73705">
        <ele>142.41</ele>
        <time>2017-08-11T16:13:21Z</time>
      </trkpt>
      <trkpt lat="44.95923" lon="0.737">
        <ele>142.41</ele>
        <time>2017-08-11T16:13:26Z</time>
      </trkpt>
      <trkpt lat="44.95927" lon="0.73684">
        <ele>141.45</ele>
        <time>2017-08-11T16:13:40Z</time>
      </trkpt>
      <trkpt lat="44.95928" lon="0.73683">
        <ele>141.45</ele>
        <time>2017-08-11T16:13:55Z</time>
      </trkpt>
      <trkpt lat="44.95929" lon="0.73684">
        <ele>141.45</ele>
        <time>2017-08-11T16:14:17Z</time>
      </trkpt>
      <trkpt lat="44.9593" lon="0.73685">
        <ele>141.45</ele>
        <time>2017-08-11T16:14:44Z</time>
      </trkpt>
    </trkseg>
  </trk>
  <trk>
    <name><![CDATA[randogps24-462]]></name>
    <trkseg>
      <trkpt lat="45.05675" lon="0.7534">
        <ele>217</ele>
        <time>2015-08-04T12:18:57Z</time>
      </trkpt>
      <trkpt lat="45.05627" lon="0.75415">
        <ele>217</ele>
        <time>2015-08-04T12:21:03Z</time>
      </trkpt>
      <trkpt lat="45.05539" lon="0.75387">
        <ele>221</ele>
        <time>2015-08-04T12:22:54Z</time>
      </trkpt>
      <trkpt lat="45.05445" lon="0.75351">
        <ele>224</ele>
        <time>2015-08-04T12:24:14Z</time>
      </trkpt>
      <trkpt lat="45.05343" lon="0.75312">
        <ele>221</ele>
        <time>2015-08-04T12:25:43Z</time>
      </trkpt>
      <trkpt lat="45.05243" lon="0.75275">
        <ele>218</ele>
        <time>2015-08-04T12:26:59Z</time>
      </trkpt>
      <trkpt lat="45.05154" lon="0.75237">
        <ele>215</ele>
        <time>2015-08-04T12:28:10Z</time>
      </trkpt>
      <trkpt lat="45.05062" lon="0.75207">
        <ele>216</ele>
        <time>2015-08-04T12:29:17Z</time>
      </trkpt>
      <trkpt lat="45.04978" lon="0.75142">
        <ele>215</ele>
        <time>2015-08-04T12:30:34Z</time>
      </trkpt>
      <trkpt lat="45.04885" lon="0.75081">
        <ele>215</ele>
        <time>2015-08-04T12:31:56Z</time>
      </trkpt>
      <trkpt lat="45.04785" lon="0.75068">
        <ele>216</ele>
        <time>2015-08-04T12:33:18Z</time>
      </trkpt>
      <trkpt lat="45.04683" lon="0.75045">
        <ele>212</ele>
        <time>2015-08-04T12:34:37Z</time>
      </trkpt>
      <trkpt lat="45.04601" lon="0.74998">
        <ele>210</ele>
        <time>2015-08-04T12:36:07Z</time>
      </trkpt>
      <trkpt lat="45.04498" lon="0.7506">
        <ele>203</ele>
        <time>2015-08-04T12:37:40Z</time>
      </trkpt>
      <trkpt lat="45.04423" lon="0.75102">
        <ele>196</ele>
        <time>2015-08-04T12:39:15Z</time>
      </trkpt>
      <trkpt lat="45.04442" lon="0.75231">
        <ele>207</ele>
        <time>2015-08-04T12:40:34Z</time>
      </trkpt>
      <trkpt lat="45.04459" lon="0.75356">
        <ele>210</ele>
        <time>2015-08-04T12:41:49Z</time>
      </trkpt>
      <trkpt lat="45.04466" lon="0.75514">
        <ele>207</ele>
        <time>2015-08-04T12:43:12Z</time>
      </trkpt>
      <trkpt lat="45.04472" lon="0.75572">
        <ele>203</ele>
        <time>2015-08-04T12:43:12Z</time>
      </trkpt>
      <trkpt lat="45.04478" lon="0.75594">
        <ele>203</ele>
        <time>2015-08-04T12:43:12Z</time>
      </trkpt>
      <trkpt lat="45.04503" lon="0.7559">
        <ele>203</ele>
        <time>2015-08-04T12:43:12Z</time>
      </trkpt>
      <trkpt lat="45.04511" lon="0.75592">
        <ele>203</ele>
        <time>2015-08-04T12:43:12Z</time>
      </trkpt>
      <trkpt lat="45.04532" lon="0.7572">
        <ele>191</ele>
        <time>2015-08-04T12:45:56Z</time>
      </trkpt>
      <trkpt lat="45.04546" lon="0.75859">
        <ele>187</ele>
        <time>2015-08-04T12:47:27Z</time>
      </trkpt>
      <trkpt lat="45.04577" lon="0.75999">
        <ele>194</ele>
        <time>2015-08-04T12:49:02Z</time>
      </trkpt>
      <trkpt lat="45.04656" lon="0.76137">
        <ele>204</ele>
        <time>2015-08-04T12:51:22Z</time>
      </trkpt>
      <trkpt lat="45.04673" lon="0.76188">
        <ele>204</ele>
        <time>2015-08-04T12:51:22Z</time>
      </trkpt>
      <trkpt lat="45.04687" lon="0.76239">
        <ele>206</ele>
        <time>2015-08-04T12:51:22Z</time>
      </trkpt>
      <trkpt lat="45.04712" lon="0.76229">
        <ele>211</ele>
        <time>2015-08-04T12:53:02Z</time>
      </trkpt>
      <trkpt lat="45.04677" lon="0.76385">
        <ele>213</ele>
        <time>2015-08-04T12:55:54Z</time>
      </trkpt>
      <trkpt lat="45.04657" lon="0.76506">
        <ele>214</ele>
        <time>2015-08-04T12:57:16Z</time>
      </trkpt>
      <trkpt lat="45.04621" lon="0.76499">
        <ele>215</ele>
        <time>2015-08-04T12:57:16Z</time>
      </trkpt>
      <trkpt lat="45.04631" lon="0.76534">
        <ele>214</ele>
        <time>2015-08-04T12:57:16Z</time>
      </trkpt>
      <trkpt lat="45.04648" lon="0.76571">
        <ele>212</ele>
        <time>2015-08-04T12:59:40Z</time>
      </trkpt>
      <trkpt lat="45.04674" lon="0.76693">
        <ele>212</ele>
        <time>2015-08-04T13:00:58Z</time>
      </trkpt>
      <trkpt lat="45.04742" lon="0.76825">
        <ele>204</ele>
        <time>2015-08-04T13:02:59Z</time>
      </trkpt>
      <trkpt lat="45.04871" lon="0.76827">
        <ele>190</ele>
        <time>2015-08-04T13:05:10Z</time>
      </trkpt>
      <trkpt lat="45.04941" lon="0.76737">
        <ele>185</ele>
        <time>2015-08-04T13:06:53Z</time>
      </trkpt>
      <trkpt lat="45.05054" lon="0.76836">
        <ele>173</ele>
        <time>2015-08-04T13:08:48Z</time>
      </trkpt>
      <trkpt lat="45.05136" lon="0.76945">
        <ele>162</ele>
        <time>2015-08-04T13:10:20Z</time>
      </trkpt>
      <trkpt lat="45.05213" lon="0.76871">
        <ele>162</ele>
        <time>2015-08-04T13:11:37Z</time>
      </trkpt>
      <trkpt lat="45.05287" lon="0.76785">
        <ele>164</ele>
        <time>2015-08-04T13:12:48Z</time>
      </trkpt>
      <trkpt lat="45.05371" lon="0.76733">
        <ele>163</ele>
        <time>2015-08-04T13:13:59Z</time>
      </trkpt>
      <trkpt lat="45.05437" lon="0.7665">
        <ele>164</ele>
        <time>2015-08-04T13:15:31Z</time>
      </trkpt>
      <trkpt lat="45.0538" lon="0.76512">
        <ele>180</ele>
        <time>2015-08-04T13:17:22Z</time>
      </trkpt>
      <trkpt lat="45.05494" lon="0.76437">
        <ele>185</ele>
        <time>2015-08-04T13:19:01Z</time>
      </trkpt>
      <trkpt lat="45.05625" lon="0.76363">
        <ele>192</ele>
        <time>2015-08-04T13:21:34Z</time>
      </trkpt>
      <trkpt lat="45.05726" lon="0.76292">
        <ele>180</ele>
        <time>2015-08-04T13:23:16Z</time>
      </trkpt>
      <trkpt lat="45.05832" lon="0.76226">
        <ele>183</ele>
        <time>2015-08-04T13:24:53Z</time>
      </trkpt>
      <trkpt lat="45.05931" lon="0.76166">
        <ele>175</ele>
        <time>2015-08-04T13:26:30Z</time>
      </trkpt>
      <trkpt lat="45.05831" lon="0.76061">
        <ele>183</ele>
        <time>2015-08-04T13:28:32Z</time>
      </trkpt>
      <trkpt lat="45.05755" lon="0.75969">
        <ele>195</ele>
        <time>2015-08-04T13:29:56Z</time>
      </trkpt>
      <trkpt lat="45.05707" lon="0.7584">
        <ele>212</ele>
        <time>2015-08-04T13:31:22Z</time>
      </trkpt>
      <trkpt lat="45.05632" lon="0.75711">
        <ele>210</ele>
        <time>2015-08-04T13:32:56Z</time>
      </trkpt>
      <trkpt lat="45.05538" lon="0.75598">
        <ele>218</ele>
        <time>2015-08-04T13:34:29Z</time>
      </trkpt>
      <trkpt lat="45.05576" lon="0.75472">
        <ele>218</ele>
        <time>2015-08-04T13:35:39Z</time>
      </trkpt>
      <trkpt lat="45.0565" lon="0.754">
        <ele>217</ele>
        <time>2015-08-04T13:36:51Z</time>
      </trkpt>
      <trkpt lat="45.05677" lon="0.75337">
        <ele>217</ele>
        <time>2015-08-04T13:38:22Z</time>
      </trkpt>
    </trkseg>
  </trk>
  <trk>
    <name><![CDATA[randogps24-380]]></name>
    <extensions>
      <line xmlns="http://www.topografix.com/GPX/gpx_style/0/2">
        <color>0000FF</color>
        <width>4</width>
      </line>
    </extensions>
    <trkseg>
      <trkpt lat="44.98659" lon="0.72223">
        <ele>135.68</ele>
        <time>2017-08-23T12:51:39Z</time>
      </trkpt>
      <trkpt lat="44.9866" lon="0.72222">
        <ele>138.57</ele>
        <time>2017-08-23T12:51:42Z</time>
      </trkpt>
      <trkpt lat="44.98661" lon="0.72223">
        <ele>142.41</ele>
        <time>2017-08-23T12:51:45Z</time>
      </trkpt>
      <trkpt lat="44.98661" lon="0.72222">
        <ele>146.26</ele>
        <time>2017-08-23T12:51:47Z</time>
      </trkpt>
      <trkpt lat="44.98661" lon="0.72222">
        <ele>144.82</ele>
        <time>2017-08-23T12:51:48Z</time>
      </trkpt>
      <trkpt lat="44.98661" lon="0.72222">
        <ele>148.18</ele>
        <time>2017-08-23T12:51:53Z</time>
      </trkpt>
      <trkpt lat="44.9866" lon="0.72222">
        <ele>151.54</ele>
        <time>2017-08-23T12:51:58Z</time>
      </trkpt>
      <trkpt lat="44.98659" lon="0.72223">
        <ele>154.43</ele>
        <time>2017-08-23T12:52:04Z</time>
      </trkpt>
      <trkpt lat="44.9866" lon="0.72221">
        <ele>157.79</ele>
        <time>2017-08-23T12:52:13Z</time>
      </trkpt>
      <trkpt lat="44.98659" lon="0.72221">
        <ele>160.68</ele>
        <time>2017-08-23T12:52:24Z</time>
      </trkpt>
      <trkpt lat="44.98659" lon="0.72223">
        <ele>162.12</ele>
        <time>2017-08-23T12:52:30Z</time>
      </trkpt>
      <trkpt lat="44.98659" lon="0.72223">
        <ele>163.08</ele>
        <time>2017-08-23T12:52:45Z</time>
      </trkpt>
      <trkpt lat="44.98659" lon="0.72223">
        <ele>166.45</ele>
        <time>2017-08-23T12:53:03Z</time>
      </trkpt>
      <trkpt lat="44.98659" lon="0.72223">
        <ele>165</ele>
        <time>2017-08-23T12:53:20Z</time>
      </trkpt>
      <trkpt lat="44.98659" lon="0.72223">
        <ele>165.48</ele>
        <time>2017-08-23T12:53:47Z</time>
      </trkpt>
      <trkpt lat="44.98659" lon="0.72223">
        <ele>165</ele>
        <time>2017-08-23T12:54:09Z</time>
      </trkpt>
      <trkpt lat="44.98659" lon="0.72224">
        <ele>165</ele>
        <time>2017-08-23T12:54:28Z</time>
      </trkpt>
      <trkpt lat="44.98648" lon="0.72226">
        <ele>165.48</ele>
        <time>2017-08-23T12:54:41Z</time>
      </trkpt>
      <trkpt lat="44.9864" lon="0.72229">
        <ele>166.45</ele>
        <time>2017-08-23T12:54:54Z</time>
      </trkpt>
      <trkpt lat="44.98633" lon="0.72237">
        <ele>165.96</ele>
        <time>2017-08-23T12:55:06Z</time>
      </trkpt>
      <trkpt lat="44.9863" lon="0.72239">
        <ele>165.96</ele>
        <time>2017-08-23T12:55:09Z</time>
      </trkpt>
      <trkpt lat="44.98621" lon="0.72247">
        <ele>165.48</ele>
        <time>2017-08-23T12:55:21Z</time>
      </trkpt>
      <trkpt lat="44.98611" lon="0.72246">
        <ele>165.96</ele>
        <time>2017-08-23T12:55:33Z</time>
      </trkpt>
      <trkpt lat="44.98601" lon="0.7225">
        <ele>167.89</ele>
        <time>2017-08-23T12:55:47Z</time>
      </trkpt>
      <trkpt lat="44.98601" lon="0.72238">
        <ele>168.85</ele>
        <time>2017-08-23T12:56:04Z</time>
      </trkpt>
      <trkpt lat="44.98601" lon="0.72221">
        <ele>170.77</ele>
        <time>2017-08-23T12:56:20Z</time>
      </trkpt>
      <trkpt lat="44.98596" lon="0.72208">
        <ele>173.66</ele>
        <time>2017-08-23T12:56:37Z</time>
      </trkpt>
      <trkpt lat="44.98594" lon="0.72206">
        <ele>174.62</ele>
        <time>2017-08-23T12:56:54Z</time>
      </trkpt>
      <trkpt lat="44.98593" lon="0.72199">
        <ele>174.62</ele>
        <time>2017-08-23T12:57:03Z</time>
      </trkpt>
      <trkpt lat="44.98593" lon="0.72187">
        <ele>175.1</ele>
        <time>2017-08-23T12:57:14Z</time>
      </trkpt>
      <trkpt lat="44.98601" lon="0.72186">
        <ele>175.58</ele>
        <time>2017-08-23T12:57:26Z</time>
      </trkpt>
      <trkpt lat="44.98601" lon="0.72182">
        <ele>175.1</ele>
        <time>2017-08-23T12:57:39Z</time>
      </trkpt>
      <trkpt lat="44.98602" lon="0.72179">
        <ele>174.62</ele>
        <time>2017-08-23T12:57:41Z</time>
      </trkpt>
      <trkpt lat="44.986" lon="0.72152">
        <ele>175.58</ele>
        <time>2017-08-23T12:57:55Z</time>
      </trkpt>
      <trkpt lat="44.98599" lon="0.7215">
        <ele>175.58</ele>
        <time>2017-08-23T12:57:56Z</time>
      </trkpt>
      <trkpt lat="44.986" lon="0.72137">
        <ele>175.1</ele>
        <time>2017-08-23T12:58:05Z</time>
      </trkpt>
      <trkpt lat="44.98602" lon="0.72126">
        <ele>175.1</ele>
        <time>2017-08-23T12:58:19Z</time>
      </trkpt>
      <trkpt lat="44.98599" lon="0.7212">
        <ele>175.1</ele>
        <time>2017-08-23T12:58:24Z</time>
      </trkpt>
      <trkpt lat="44.98594" lon="0.72102">
        <ele>174.62</ele>
        <time>2017-08-23T12:58:38Z</time>
      </trkpt>
      <trkpt lat="44.98593" lon="0.72101">
        <ele>174.62</ele>
        <time>2017-08-23T12:58:39Z</time>
      </trkpt>
      <trkpt lat="44.98591" lon="0.72076">
        <ele>174.14</ele>
        <time>2017-08-23T12:58:56Z</time>
      </trkpt>
      <trkpt lat="44.9859" lon="0.72072">
        <ele>174.14</ele>
        <time>2017-08-23T12:58:59Z</time>
      </trkpt>
      <trkpt lat="44.98584" lon="0.72046">
        <ele>173.66</ele>
        <time>2017-08-23T12:59:14Z</time>
      </trkpt>
      <trkpt lat="44.98583" lon="0.72027">
        <ele>173.17</ele>
        <time>2017-08-23T12:59:28Z</time>
      </trkpt>
      <trkpt lat="44.98583" lon="0.72024">
        <ele>172.69</ele>
        <time>2017-08-23T12:59:30Z</time>
      </trkpt>
      <trkpt lat="44.98583" lon="0.72016">
        <ele>172.69</ele>
        <time>2017-08-23T12:59:36Z</time>
      </trkpt>
      <trkpt lat="44.98584" lon="0.72002">
        <ele>172.21</ele>
        <time>2017-08-23T12:59:47Z</time>
      </trkpt>
      <trkpt lat="44.98585" lon="0.71986">
        <ele>171.25</ele>
        <time>2017-08-23T13:00:01Z</time>
      </trkpt>
      <trkpt lat="44.98585" lon="0.7197">
        <ele>170.77</ele>
        <time>2017-08-23T13:00:13Z</time>
      </trkpt>
      <trkpt lat="44.98586" lon="0.71955">
        <ele>170.29</ele>
        <time>2017-08-23T13:00:26Z</time>
      </trkpt>
      <trkpt lat="44.98587" lon="0.71953">
        <ele>170.29</ele>
        <time>2017-08-23T13:00:28Z</time>
      </trkpt>
      <trkpt lat="44.98585" lon="0.71933">
        <ele>168.85</ele>
        <time>2017-08-23T13:00:42Z</time>
      </trkpt>
      <trkpt lat="44.98583" lon="0.71916">
        <ele>168.37</ele>
        <time>2017-08-23T13:00:54Z</time>
      </trkpt>
      <trkpt lat="44.98581" lon="0.71899">
        <ele>167.89</ele>
        <time>2017-08-23T13:01:06Z</time>
      </trkpt>
      <trkpt lat="44.98578" lon="0.71886">
        <ele>167.41</ele>
        <time>2017-08-23T13:01:14Z</time>
      </trkpt>
      <trkpt lat="44.98565" lon="0.71871">
        <ele>165</ele>
        <time>2017-08-23T13:01:30Z</time>
      </trkpt>
      <trkpt lat="44.98555" lon="0.71866">
        <ele>163.08</ele>
        <time>2017-08-23T13:01:45Z</time>
      </trkpt>
      <trkpt lat="44.98552" lon="0.71865">
        <ele>162.6</ele>
        <time>2017-08-23T13:01:49Z</time>
      </trkpt>
      <trkpt lat="44.98546" lon="0.71858">
        <ele>162.6</ele>
        <time>2017-08-23T13:01:53Z</time>
      </trkpt>
      <trkpt lat="44.98524" lon="0.71837">
        <ele>162.12</ele>
        <time>2017-08-23T13:02:05Z</time>
      </trkpt>
      <trkpt lat="44.98518" lon="0.71831">
        <ele>162.6</ele>
        <time>2017-08-23T13:02:09Z</time>
      </trkpt>
      <trkpt lat="44.98503" lon="0.71823">
        <ele>163.56</ele>
        <time>2017-08-23T13:02:24Z</time>
      </trkpt>
      <trkpt lat="44.98496" lon="0.71819">
        <ele>164.04</ele>
        <time>2017-08-23T13:02:38Z</time>
      </trkpt>
      <trkpt lat="44.98493" lon="0.71819">
        <ele>165.96</ele>
        <time>2017-08-23T13:02:52Z</time>
      </trkpt>
      <trkpt lat="44.98484" lon="0.71817">
        <ele>167.89</ele>
        <time>2017-08-23T13:03:09Z</time>
      </trkpt>
      <trkpt lat="44.98468" lon="0.71809">
        <ele>169.81</ele>
        <time>2017-08-23T13:03:26Z</time>
      </trkpt>
      <trkpt lat="44.98455" lon="0.71803">
        <ele>170.77</ele>
        <time>2017-08-23T13:03:40Z</time>
      </trkpt>
      <trkpt lat="44.98438" lon="0.71797">
        <ele>171.73</ele>
        <time>2017-08-23T13:03:54Z</time>
      </trkpt>
      <trkpt lat="44.98424" lon="0.7179">
        <ele>173.17</ele>
        <time>2017-08-23T13:04:10Z</time>
      </trkpt>
      <trkpt lat="44.98406" lon="0.71783">
        <ele>174.62</ele>
        <time>2017-08-23T13:04:25Z</time>
      </trkpt>
      <trkpt lat="44.98399" lon="0.71779">
        <ele>176.06</ele>
        <time>2017-08-23T13:04:42Z</time>
      </trkpt>
      <trkpt lat="44.98384" lon="0.71772">
        <ele>177.5</ele>
        <time>2017-08-23T13:04:56Z</time>
      </trkpt>
      <trkpt lat="44.98371" lon="0.71765">
        <ele>178.94</ele>
        <time>2017-08-23T13:05:11Z</time>
      </trkpt>
      <trkpt lat="44.98361" lon="0.71757">
        <ele>180.38</ele>
        <time>2017-08-23T13:05:25Z</time>
      </trkpt>
      <trkpt lat="44.98358" lon="0.71753">
        <ele>181.83</ele>
        <time>2017-08-23T13:05:38Z</time>
      </trkpt>
      <trkpt lat="44.98355" lon="0.71752">
        <ele>181.83</ele>
        <time>2017-08-23T13:05:41Z</time>
      </trkpt>
      <trkpt lat="44.98342" lon="0.71749">
        <ele>182.79</ele>
        <time>2017-08-23T13:05:54Z</time>
      </trkpt>
      <trkpt lat="44.98337" lon="0.71741">
        <ele>182.79</ele>
        <time>2017-08-23T13:06:23Z</time>
      </trkpt>
      <trkpt lat="44.98336" lon="0.71737">
        <ele>182.79</ele>
        <time>2017-08-23T13:06:45Z</time>
      </trkpt>
      <trkpt lat="44.98336" lon="0.71725">
        <ele>182.79</ele>
        <time>2017-08-23T13:06:54Z</time>
      </trkpt>
      <trkpt lat="44.98337" lon="0.71716">
        <ele>183.27</ele>
        <time>2017-08-23T13:07:07Z</time>
      </trkpt>
      <trkpt lat="44.98335" lon="0.71712">
        <ele>183.27</ele>
        <time>2017-08-23T13:07:26Z</time>
      </trkpt>
      <trkpt lat="44.98335" lon="0.71712">
        <ele>183.27</ele>
        <time>2017-08-23T13:07:48Z</time>
      </trkpt>
      <trkpt lat="44.98335" lon="0.71711">
        <ele>183.27</ele>
        <time>2017-08-23T13:08:12Z</time>
      </trkpt>
      <trkpt lat="44.98335" lon="0.71711">
        <ele>182.79</ele>
        <time>2017-08-23T13:08:39Z</time>
      </trkpt>
      <trkpt lat="44.98336" lon="0.71709">
        <ele>182.79</ele>
        <time>2017-08-23T13:09:01Z</time>
      </trkpt>
      <trkpt lat="44.98339" lon="0.71697">
        <ele>182.79</ele>
        <time>2017-08-23T13:09:09Z</time>
      </trkpt>
      <trkpt lat="44.98343" lon="0.71675">
        <ele>183.27</ele>
        <time>2017-08-23T13:09:22Z</time>
      </trkpt>
      <trkpt lat="44.98351" lon="0.71654">
        <ele>183.75</ele>
        <time>2017-08-23T13:09:37Z</time>
      </trkpt>
      <trkpt lat="44.98357" lon="0.71632">
        <ele>184.23</ele>
        <time>2017-08-23T13:09:50Z</time>
      </trkpt>
      <trkpt lat="44.9836" lon="0.71625">
        <ele>184.23</ele>
        <time>2017-08-23T13:09:55Z</time>
      </trkpt>
      <trkpt lat="44.98369" lon="0.71611">
        <ele>184.71</ele>
        <time>2017-08-23T13:10:08Z</time>
      </trkpt>
      <trkpt lat="44.9838" lon="0.71591">
        <ele>184.71</ele>
        <time>2017-08-23T13:10:22Z</time>
      </trkpt>
      <trkpt lat="44.98385" lon="0.71575">
        <ele>185.19</ele>
        <time>2017-08-23T13:10:38Z</time>
      </trkpt>
      <trkpt lat="44.98385" lon="0.7157">
        <ele>185.67</ele>
        <time>2017-08-23T13:10:54Z</time>
      </trkpt>
      <trkpt lat="44.98392" lon="0.71554">
        <ele>185.67</ele>
        <time>2017-08-23T13:11:10Z</time>
      </trkpt>
      <trkpt lat="44.9841" lon="0.71525">
        <ele>186.15</ele>
        <time>2017-08-23T13:11:25Z</time>
      </trkpt>
      <trkpt lat="44.9842" lon="0.7151">
        <ele>187.11</ele>
        <time>2017-08-23T13:11:40Z</time>
      </trkpt>
      <trkpt lat="44.98427" lon="0.71496">
        <ele>188.08</ele>
        <time>2017-08-23T13:11:56Z</time>
      </trkpt>
      <trkpt lat="44.98427" lon="0.71495">
        <ele>188.08</ele>
        <time>2017-08-23T13:11:58Z</time>
      </trkpt>
      <trkpt lat="44.9843" lon="0.71484">
        <ele>188.56</ele>
        <time>2017-08-23T13:12:07Z</time>
      </trkpt>
      <trkpt lat="44.98441" lon="0.71478">
        <ele>189.04</ele>
        <time>2017-08-23T13:12:24Z</time>
      </trkpt>
      <trkpt lat="44.98442" lon="0.71476">
        <ele>188.56</ele>
        <time>2017-08-23T13:12:50Z</time>
      </trkpt>
      <trkpt lat="44.98449" lon="0.71466">
        <ele>189.04</ele>
        <time>2017-08-23T13:13:02Z</time>
      </trkpt>
      <trkpt lat="44.9846" lon="0.71448">
        <ele>189.52</ele>
        <time>2017-08-23T13:13:15Z</time>
      </trkpt>
      <trkpt lat="44.98469" lon="0.71439">
        <ele>189.52</ele>
        <time>2017-08-23T13:13:21Z</time>
      </trkpt>
      <trkpt lat="44.98476" lon="0.71432">
        <ele>190</ele>
        <time>2017-08-23T13:13:26Z</time>
      </trkpt>
      <trkpt lat="44.98492" lon="0.7142">
        <ele>190</ele>
        <time>2017-08-23T13:13:40Z</time>
      </trkpt>
      <trkpt lat="44.98502" lon="0.71414">
        <ele>190.48</ele>
        <time>2017-08-23T13:13:50Z</time>
      </trkpt>
      <trkpt lat="44.98507" lon="0.71412">
        <ele>189.52</ele>
        <time>2017-08-23T13:13:55Z</time>
      </trkpt>
      <trkpt lat="44.9852" lon="0.71403">
        <ele>189.52</ele>
        <time>2017-08-23T13:14:11Z</time>
      </trkpt>
      <trkpt lat="44.98533" lon="0.71398">
        <ele>189.52</ele>
        <time>2017-08-23T13:14:25Z</time>
      </trkpt>
      <trkpt lat="44.98537" lon="0.71397">
        <ele>189.52</ele>
        <time>2017-08-23T13:14:29Z</time>
      </trkpt>
      <trkpt lat="44.98553" lon="0.71391">
        <ele>190</ele>
        <time>2017-08-23T13:14:46Z</time>
      </trkpt>
      <trkpt lat="44.98561" lon="0.7139">
        <ele>189.52</ele>
        <time>2017-08-23T13:14:58Z</time>
      </trkpt>
      <trkpt lat="44.98567" lon="0.71388">
        <ele>190</ele>
        <time>2017-08-23T13:15:08Z</time>
      </trkpt>
      <trkpt lat="44.98581" lon="0.71389">
        <ele>189.52</ele>
        <time>2017-08-23T13:15:22Z</time>
      </trkpt>
      <trkpt lat="44.98598" lon="0.71389">
        <ele>189.52</ele>
        <time>2017-08-23T13:15:38Z</time>
      </trkpt>
      <trkpt lat="44.98612" lon="0.71396">
        <ele>189.52</ele>
        <time>2017-08-23T13:15:53Z</time>
      </trkpt>
      <trkpt lat="44.98623" lon="0.71398">
        <ele>189.52</ele>
        <time>2017-08-23T13:16:06Z</time>
      </trkpt>
      <trkpt lat="44.98635" lon="0.71399">
        <ele>189.52</ele>
        <time>2017-08-23T13:16:21Z</time>
      </trkpt>
      <trkpt lat="44.98648" lon="0.71398">
        <ele>190</ele>
        <time>2017-08-23T13:16:34Z</time>
      </trkpt>
      <trkpt lat="44.98655" lon="0.71399">
        <ele>190</ele>
        <time>2017-08-23T13:16:38Z</time>
      </trkpt>
      <trkpt lat="44.98673" lon="0.714">
        <ele>190</ele>
        <time>2017-08-23T13:16:48Z</time>
      </trkpt>
      <trkpt lat="44.98675" lon="0.71401">
        <ele>190</ele>
        <time>2017-08-23T13:16:50Z</time>
      </trkpt>
      <trkpt lat="44.98688" lon="0.71406">
        <ele>190.48</ele>
        <time>2017-08-23T13:17:04Z</time>
      </trkpt>
      <trkpt lat="44.98703" lon="0.71408">
        <ele>190.48</ele>
        <time>2017-08-23T13:17:17Z</time>
      </trkpt>
      <trkpt lat="44.9872" lon="0.71413">
        <ele>190.96</ele>
        <time>2017-08-23T13:17:31Z</time>
      </trkpt>
      <trkpt lat="44.98731" lon="0.71415">
        <ele>191.92</ele>
        <time>2017-08-23T13:17:48Z</time>
      </trkpt>
      <trkpt lat="44.9875" lon="0.71419">
        <ele>192.4</ele>
        <time>2017-08-23T13:18:03Z</time>
      </trkpt>
      <trkpt lat="44.98763" lon="0.71425">
        <ele>192.88</ele>
        <time>2017-08-23T13:18:21Z</time>
      </trkpt>
      <trkpt lat="44.98768" lon="0.71433">
        <ele>192.88</ele>
        <time>2017-08-23T13:18:50Z</time>
      </trkpt>
      <trkpt lat="44.9877" lon="0.71433">
        <ele>193.36</ele>
        <time>2017-08-23T13:19:13Z</time>
      </trkpt>
      <trkpt lat="44.98781" lon="0.71433">
        <ele>193.36</ele>
        <time>2017-08-23T13:19:27Z</time>
      </trkpt>
      <trkpt lat="44.98799" lon="0.71436">
        <ele>193.84</ele>
        <time>2017-08-23T13:19:42Z</time>
      </trkpt>
      <trkpt lat="44.98817" lon="0.7144">
        <ele>193.84</ele>
        <time>2017-08-23T13:19:57Z</time>
      </trkpt>
      <trkpt lat="44.98837" lon="0.71452">
        <ele>194.32</ele>
        <time>2017-08-23T13:20:12Z</time>
      </trkpt>
      <trkpt lat="44.98855" lon="0.71458">
        <ele>194.32</ele>
        <time>2017-08-23T13:20:27Z</time>
      </trkpt>
      <trkpt lat="44.9887" lon="0.71465">
        <ele>194.32</ele>
        <time>2017-08-23T13:20:42Z</time>
      </trkpt>
      <trkpt lat="44.98885" lon="0.71469">
        <ele>194.8</ele>
        <time>2017-08-23T13:20:55Z</time>
      </trkpt>
      <trkpt lat="44.98896" lon="0.71473">
        <ele>194.8</ele>
        <time>2017-08-23T13:21:11Z</time>
      </trkpt>
      <trkpt lat="44.98896" lon="0.71474">
        <ele>194.8</ele>
        <time>2017-08-23T13:21:35Z</time>
      </trkpt>
      <trkpt lat="44.98908" lon="0.71478">
        <ele>195.28</ele>
        <time>2017-08-23T13:21:47Z</time>
      </trkpt>
      <trkpt lat="44.98919" lon="0.71486">
        <ele>195.77</ele>
        <time>2017-08-23T13:21:59Z</time>
      </trkpt>
      <trkpt lat="44.98925" lon="0.7149">
        <ele>195.77</ele>
        <time>2017-08-23T13:22:04Z</time>
      </trkpt>
      <trkpt lat="44.98943" lon="0.71502">
        <ele>196.25</ele>
        <time>2017-08-23T13:22:20Z</time>
      </trkpt>
      <trkpt lat="44.98956" lon="0.71512">
        <ele>197.21</ele>
        <time>2017-08-23T13:22:32Z</time>
      </trkpt>
      <trkpt lat="44.98958" lon="0.71513">
        <ele>197.21</ele>
        <time>2017-08-23T13:22:35Z</time>
      </trkpt>
      <trkpt lat="44.98972" lon="0.7153">
        <ele>198.17</ele>
        <time>2017-08-23T13:22:49Z</time>
      </trkpt>
      <trkpt lat="44.98983" lon="0.71544">
        <ele>198.65</ele>
        <time>2017-08-23T13:23:03Z</time>
      </trkpt>
      <trkpt lat="44.98992" lon="0.71554">
        <ele>199.13</ele>
        <time>2017-08-23T13:23:15Z</time>
      </trkpt>
      <trkpt lat="44.99002" lon="0.71562">
        <ele>199.61</ele>
        <time>2017-08-23T13:23:26Z</time>
      </trkpt>
      <trkpt lat="44.99011" lon="0.7157">
        <ele>200.09</ele>
        <time>2017-08-23T13:23:36Z</time>
      </trkpt>
      <trkpt lat="44.99027" lon="0.71578">
        <ele>200.57</ele>
        <time>2017-08-23T13:23:50Z</time>
      </trkpt>
      <trkpt lat="44.99029" lon="0.71579">
        <ele>201.05</ele>
        <time>2017-08-23T13:23:52Z</time>
      </trkpt>
      <trkpt lat="44.99036" lon="0.7159">
        <ele>200.57</ele>
        <time>2017-08-23T13:24:01Z</time>
      </trkpt>
      <trkpt lat="44.99043" lon="0.71609">
        <ele>199.61</ele>
        <time>2017-08-23T13:24:14Z</time>
      </trkpt>
      <trkpt lat="44.99043" lon="0.71611">
        <ele>199.61</ele>
        <time>2017-08-23T13:24:16Z</time>
      </trkpt>
      <trkpt lat="44.99049" lon="0.71627">
        <ele>199.13</ele>
        <time>2017-08-23T13:24:27Z</time>
      </trkpt>
      <trkpt lat="44.99053" lon="0.7163">
        <ele>198.65</ele>
        <time>2017-08-23T13:24:31Z</time>
      </trkpt>
      <trkpt lat="44.99061" lon="0.7165">
        <ele>198.17</ele>
        <time>2017-08-23T13:24:44Z</time>
      </trkpt>
      <trkpt lat="44.99072" lon="0.71669">
        <ele>197.21</ele>
        <time>2017-08-23T13:24:59Z</time>
      </trkpt>
      <trkpt lat="44.99081" lon="0.71683">
        <ele>195.77</ele>
        <time>2017-08-23T13:25:12Z</time>
      </trkpt>
      <trkpt lat="44.99084" lon="0.71687">
        <ele>195.77</ele>
        <time>2017-08-23T13:25:16Z</time>
      </trkpt>
      <trkpt lat="44.99086" lon="0.71689">
        <ele>196.25</ele>
        <time>2017-08-23T13:25:18Z</time>
      </trkpt>
      <trkpt lat="44.99093" lon="0.71684">
        <ele>195.28</ele>
        <time>2017-08-23T13:25:29Z</time>
      </trkpt>
      <trkpt lat="44.99104" lon="0.71674">
        <ele>194.8</ele>
        <time>2017-08-23T13:25:42Z</time>
      </trkpt>
      <trkpt lat="44.99107" lon="0.7167">
        <ele>194.8</ele>
        <time>2017-08-23T13:25:48Z</time>
      </trkpt>
      <trkpt lat="44.99119" lon="0.71662">
        <ele>193.84</ele>
        <time>2017-08-23T13:26:02Z</time>
      </trkpt>
      <trkpt lat="44.99137" lon="0.71659">
        <ele>192.88</ele>
        <time>2017-08-23T13:26:16Z</time>
      </trkpt>
      <trkpt lat="44.99141" lon="0.7166">
        <ele>192.4</ele>
        <time>2017-08-23T13:26:19Z</time>
      </trkpt>
      <trkpt lat="44.99148" lon="0.71662">
        <ele>191.92</ele>
        <time>2017-08-23T13:26:26Z</time>
      </trkpt>
      <trkpt lat="44.99164" lon="0.71663">
        <ele>190</ele>
        <time>2017-08-23T13:26:42Z</time>
      </trkpt>
      <trkpt lat="44.99169" lon="0.71662">
        <ele>190</ele>
        <time>2017-08-23T13:26:47Z</time>
      </trkpt>
      <trkpt lat="44.9918" lon="0.71662">
        <ele>189.04</ele>
        <time>2017-08-23T13:26:58Z</time>
      </trkpt>
      <trkpt lat="44.99193" lon="0.71656">
        <ele>188.08</ele>
        <time>2017-08-23T13:27:13Z</time>
      </trkpt>
      <trkpt lat="44.99203" lon="0.71649">
        <ele>187.11</ele>
        <time>2017-08-23T13:27:27Z</time>
      </trkpt>
      <trkpt lat="44.99213" lon="0.71646">
        <ele>187.11</ele>
        <time>2017-08-23T13:27:38Z</time>
      </trkpt>
      <trkpt lat="44.99219" lon="0.71646">
        <ele>187.59</ele>
        <time>2017-08-23T13:27:51Z</time>
      </trkpt>
      <trkpt lat="44.99231" lon="0.71661">
        <ele>186.63</ele>
        <time>2017-08-23T13:28:05Z</time>
      </trkpt>
      <trkpt lat="44.9924" lon="0.71677">
        <ele>186.63</ele>
        <time>2017-08-23T13:28:16Z</time>
      </trkpt>
      <trkpt lat="44.99245" lon="0.71684">
        <ele>186.63</ele>
        <time>2017-08-23T13:28:23Z</time>
      </trkpt>
      <trkpt lat="44.99252" lon="0.71694">
        <ele>186.63</ele>
        <time>2017-08-23T13:28:39Z</time>
      </trkpt>
      <trkpt lat="44.99252" lon="0.71694">
        <ele>186.63</ele>
        <time>2017-08-23T13:28:40Z</time>
      </trkpt>
      <trkpt lat="44.99255" lon="0.717">
        <ele>187.11</ele>
        <time>2017-08-23T13:28:47Z</time>
      </trkpt>
      <trkpt lat="44.99261" lon="0.71708">
        <ele>187.11</ele>
        <time>2017-08-23T13:28:55Z</time>
      </trkpt>
      <trkpt lat="44.99271" lon="0.71725">
        <ele>187.11</ele>
        <time>2017-08-23T13:29:10Z</time>
      </trkpt>
      <trkpt lat="44.99274" lon="0.71731">
        <ele>187.11</ele>
        <time>2017-08-23T13:29:16Z</time>
      </trkpt>
      <trkpt lat="44.99276" lon="0.71737">
        <ele>186.63</ele>
        <time>2017-08-23T13:29:20Z</time>
      </trkpt>
      <trkpt lat="44.99281" lon="0.71757">
        <ele>185.67</ele>
        <time>2017-08-23T13:29:34Z</time>
      </trkpt>
      <trkpt lat="44.99283" lon="0.71767">
        <ele>185.19</ele>
        <time>2017-08-23T13:29:42Z</time>
      </trkpt>
      <trkpt lat="44.99288" lon="0.71782">
        <ele>184.23</ele>
        <time>2017-08-23T13:29:54Z</time>
      </trkpt>
      <trkpt lat="44.99289" lon="0.71787">
        <ele>184.23</ele>
        <time>2017-08-23T13:29:57Z</time>
      </trkpt>
      <trkpt lat="44.99293" lon="0.71802">
        <ele>183.27</ele>
        <time>2017-08-23T13:30:09Z</time>
      </trkpt>
      <trkpt lat="44.99295" lon="0.71809">
        <ele>182.79</ele>
        <time>2017-08-23T13:30:21Z</time>
      </trkpt>
      <trkpt lat="44.99296" lon="0.71811">
        <ele>181.83</ele>
        <time>2017-08-23T13:30:34Z</time>
      </trkpt>
      <trkpt lat="44.99304" lon="0.7181">
        <ele>181.35</ele>
        <time>2017-08-23T13:30:46Z</time>
      </trkpt>
      <trkpt lat="44.99321" lon="0.71806">
        <ele>180.38</ele>
        <time>2017-08-23T13:31:01Z</time>
      </trkpt>
      <trkpt lat="44.99338" lon="0.71802">
        <ele>179.9</ele>
        <time>2017-08-23T13:31:14Z</time>
      </trkpt>
      <trkpt lat="44.99347" lon="0.71801">
        <ele>179.42</ele>
        <time>2017-08-23T13:31:22Z</time>
      </trkpt>
      <trkpt lat="44.99354" lon="0.718">
        <ele>179.42</ele>
        <time>2017-08-23T13:31:30Z</time>
      </trkpt>
      <trkpt lat="44.99371" lon="0.71795">
        <ele>178.94</ele>
        <time>2017-08-23T13:31:44Z</time>
      </trkpt>
      <trkpt lat="44.99387" lon="0.7179">
        <ele>178.46</ele>
        <time>2017-08-23T13:31:57Z</time>
      </trkpt>
      <trkpt lat="44.99401" lon="0.71783">
        <ele>177.98</ele>
        <time>2017-08-23T13:32:12Z</time>
      </trkpt>
      <trkpt lat="44.99412" lon="0.71776">
        <ele>177.02</ele>
        <time>2017-08-23T13:32:26Z</time>
      </trkpt>
      <trkpt lat="44.99423" lon="0.7177">
        <ele>176.54</ele>
        <time>2017-08-23T13:32:41Z</time>
      </trkpt>
      <trkpt lat="44.99435" lon="0.71762">
        <ele>176.54</ele>
        <time>2017-08-23T13:32:57Z</time>
      </trkpt>
      <trkpt lat="44.99454" lon="0.71749">
        <ele>176.06</ele>
        <time>2017-08-23T13:33:15Z</time>
      </trkpt>
      <trkpt lat="44.99466" lon="0.71741">
        <ele>176.06</ele>
        <time>2017-08-23T13:33:28Z</time>
      </trkpt>
      <trkpt lat="44.99483" lon="0.71732">
        <ele>175.1</ele>
        <time>2017-08-23T13:33:43Z</time>
      </trkpt>
      <trkpt lat="44.99489" lon="0.71727">
        <ele>175.1</ele>
        <time>2017-08-23T13:33:59Z</time>
      </trkpt>
      <trkpt lat="44.99502" lon="0.71722">
        <ele>174.62</ele>
        <time>2017-08-23T13:34:13Z</time>
      </trkpt>
      <trkpt lat="44.99518" lon="0.71716">
        <ele>174.14</ele>
        <time>2017-08-23T13:34:27Z</time>
      </trkpt>
      <trkpt lat="44.99532" lon="0.71712">
        <ele>174.14</ele>
        <time>2017-08-23T13:34:42Z</time>
      </trkpt>
      <trkpt lat="44.99554" lon="0.7171">
        <ele>174.14</ele>
        <time>2017-08-23T13:34:56Z</time>
      </trkpt>
      <trkpt lat="44.99567" lon="0.71707">
        <ele>174.14</ele>
        <time>2017-08-23T13:35:09Z</time>
      </trkpt>
      <trkpt lat="44.99578" lon="0.71709">
        <ele>174.14</ele>
        <time>2017-08-23T13:35:23Z</time>
      </trkpt>
      <trkpt lat="44.9959" lon="0.71709">
        <ele>174.62</ele>
        <time>2017-08-23T13:35:36Z</time>
      </trkpt>
      <trkpt lat="44.99604" lon="0.71711">
        <ele>176.54</ele>
        <time>2017-08-23T13:35:52Z</time>
      </trkpt>
      <trkpt lat="44.99614" lon="0.71711">
        <ele>176.06</ele>
        <time>2017-08-23T13:36:06Z</time>
      </trkpt>
      <trkpt lat="44.99631" lon="0.71717">
        <ele>176.54</ele>
        <time>2017-08-23T13:36:20Z</time>
      </trkpt>
      <trkpt lat="44.99645" lon="0.71721">
        <ele>177.02</ele>
        <time>2017-08-23T13:36:33Z</time>
      </trkpt>
      <trkpt lat="44.99661" lon="0.71726">
        <ele>177.02</ele>
        <time>2017-08-23T13:36:46Z</time>
      </trkpt>
      <trkpt lat="44.9967" lon="0.71728">
        <ele>177.02</ele>
        <time>2017-08-23T13:37:02Z</time>
      </trkpt>
      <trkpt lat="44.99679" lon="0.71731">
        <ele>176.54</ele>
        <time>2017-08-23T13:37:14Z</time>
      </trkpt>
      <trkpt lat="44.99689" lon="0.71733">
        <ele>176.06</ele>
        <time>2017-08-23T13:37:27Z</time>
      </trkpt>
      <trkpt lat="44.99717" lon="0.71748">
        <ele>175.58</ele>
        <time>2017-08-23T13:37:42Z</time>
      </trkpt>
      <trkpt lat="44.99738" lon="0.7176">
        <ele>175.1</ele>
        <time>2017-08-23T13:37:58Z</time>
      </trkpt>
      <trkpt lat="44.9975" lon="0.71772">
        <ele>174.14</ele>
        <time>2017-08-23T13:38:12Z</time>
      </trkpt>
      <trkpt lat="44.99764" lon="0.71783">
        <ele>174.14</ele>
        <time>2017-08-23T13:38:26Z</time>
      </trkpt>
      <trkpt lat="44.99774" lon="0.71788">
        <ele>173.66</ele>
        <time>2017-08-23T13:38:39Z</time>
      </trkpt>
      <trkpt lat="44.99789" lon="0.71793">
        <ele>173.66</ele>
        <time>2017-08-23T13:38:54Z</time>
      </trkpt>
      <trkpt lat="44.99792" lon="0.71794">
        <ele>174.14</ele>
        <time>2017-08-23T13:38:57Z</time>
      </trkpt>
      <trkpt lat="44.99804" lon="0.71796">
        <ele>174.14</ele>
        <time>2017-08-23T13:39:08Z</time>
      </trkpt>
      <trkpt lat="44.9982" lon="0.71799">
        <ele>174.14</ele>
        <time>2017-08-23T13:39:24Z</time>
      </trkpt>
      <trkpt lat="44.99831" lon="0.718">
        <ele>174.62</ele>
        <time>2017-08-23T13:39:39Z</time>
      </trkpt>
      <trkpt lat="44.99841" lon="0.718">
        <ele>174.62</ele>
        <time>2017-08-23T13:39:50Z</time>
      </trkpt>
      <trkpt lat="44.9986" lon="0.71801">
        <ele>174.62</ele>
        <time>2017-08-23T13:40:04Z</time>
      </trkpt>
      <trkpt lat="44.99874" lon="0.71801">
        <ele>175.1</ele>
        <time>2017-08-23T13:40:17Z</time>
      </trkpt>
      <trkpt lat="44.99881" lon="0.71801">
        <ele>174.62</ele>
        <time>2017-08-23T13:40:30Z</time>
      </trkpt>
      <trkpt lat="44.99887" lon="0.71801">
        <ele>174.14</ele>
        <time>2017-08-23T13:40:44Z</time>
      </trkpt>
      <trkpt lat="44.99894" lon="0.71801">
        <ele>173.66</ele>
        <time>2017-08-23T13:41:00Z</time>
      </trkpt>
      <trkpt lat="44.99901" lon="0.71802">
        <ele>172.69</ele>
        <time>2017-08-23T13:41:14Z</time>
      </trkpt>
      <trkpt lat="44.99923" lon="0.71807">
        <ele>172.21</ele>
        <time>2017-08-23T13:41:30Z</time>
      </trkpt>
      <trkpt lat="44.99936" lon="0.71806">
        <ele>171.25</ele>
        <time>2017-08-23T13:41:44Z</time>
      </trkpt>
      <trkpt lat="44.99946" lon="0.71805">
        <ele>171.25</ele>
        <time>2017-08-23T13:41:57Z</time>
      </trkpt>
      <trkpt lat="44.99955" lon="0.71802">
        <ele>171.25</ele>
        <time>2017-08-23T13:42:12Z</time>
      </trkpt>
      <trkpt lat="44.99966" lon="0.71797">
        <ele>171.73</ele>
        <time>2017-08-23T13:42:24Z</time>
      </trkpt>
      <trkpt lat="44.99985" lon="0.71784">
        <ele>172.21</ele>
        <time>2017-08-23T13:42:37Z</time>
      </trkpt>
      <trkpt lat="44.99997" lon="0.71777">
        <ele>172.21</ele>
        <time>2017-08-23T13:42:50Z</time>
      </trkpt>
      <trkpt lat="45.00007" lon="0.7177">
        <ele>172.69</ele>
        <time>2017-08-23T13:43:03Z</time>
      </trkpt>
      <trkpt lat="45.00018" lon="0.71764">
        <ele>173.17</ele>
        <time>2017-08-23T13:43:17Z</time>
      </trkpt>
      <trkpt lat="45.0003" lon="0.71758">
        <ele>173.17</ele>
        <time>2017-08-23T13:43:33Z</time>
      </trkpt>
      <trkpt lat="45.00039" lon="0.71752">
        <ele>173.66</ele>
        <time>2017-08-23T13:43:48Z</time>
      </trkpt>
      <trkpt lat="45.00065" lon="0.71734">
        <ele>174.14</ele>
        <time>2017-08-23T13:44:00Z</time>
      </trkpt>
      <trkpt lat="45.00086" lon="0.71725">
        <ele>173.66</ele>
        <time>2017-08-23T13:44:15Z</time>
      </trkpt>
      <trkpt lat="45.00107" lon="0.71714">
        <ele>172.69</ele>
        <time>2017-08-23T13:44:29Z</time>
      </trkpt>
      <trkpt lat="45.00132" lon="0.71704">
        <ele>172.21</ele>
        <time>2017-08-23T13:44:43Z</time>
      </trkpt>
      <trkpt lat="45.00138" lon="0.71701">
        <ele>172.21</ele>
        <time>2017-08-23T13:45:00Z</time>
      </trkpt>
      <trkpt lat="45.00149" lon="0.71696">
        <ele>171.73</ele>
        <time>2017-08-23T13:45:17Z</time>
      </trkpt>
      <trkpt lat="45.00166" lon="0.71689">
        <ele>170.77</ele>
        <time>2017-08-23T13:45:31Z</time>
      </trkpt>
      <trkpt lat="45.00177" lon="0.71684">
        <ele>170.77</ele>
        <time>2017-08-23T13:45:44Z</time>
      </trkpt>
      <trkpt lat="45.00187" lon="0.71678">
        <ele>169.81</ele>
        <time>2017-08-23T13:45:57Z</time>
      </trkpt>
      <trkpt lat="45.00207" lon="0.71674">
        <ele>169.81</ele>
        <time>2017-08-23T13:46:11Z</time>
      </trkpt>
      <trkpt lat="45.00224" lon="0.71669">
        <ele>169.81</ele>
        <time>2017-08-23T13:46:26Z</time>
      </trkpt>
      <trkpt lat="45.00236" lon="0.71666">
        <ele>169.81</ele>
        <time>2017-08-23T13:46:40Z</time>
      </trkpt>
      <trkpt lat="45.00246" lon="0.71662">
        <ele>169.81</ele>
        <time>2017-08-23T13:46:52Z</time>
      </trkpt>
      <trkpt lat="45.00259" lon="0.7166">
        <ele>169.81</ele>
        <time>2017-08-23T13:47:06Z</time>
      </trkpt>
      <trkpt lat="45.00276" lon="0.71661">
        <ele>169.33</ele>
        <time>2017-08-23T13:47:21Z</time>
      </trkpt>
      <trkpt lat="45.00287" lon="0.7166">
        <ele>169.33</ele>
        <time>2017-08-23T13:47:34Z</time>
      </trkpt>
      <trkpt lat="45.00299" lon="0.71662">
        <ele>169.81</ele>
        <time>2017-08-23T13:47:49Z</time>
      </trkpt>
      <trkpt lat="45.00297" lon="0.71662">
        <ele>169.81</ele>
        <time>2017-08-23T13:48:15Z</time>
      </trkpt>
      <trkpt lat="45.00297" lon="0.71663">
        <ele>169.81</ele>
        <time>2017-08-23T13:48:47Z</time>
      </trkpt>
      <trkpt lat="45.00296" lon="0.71663">
        <ele>169.81</ele>
        <time>2017-08-23T13:49:14Z</time>
      </trkpt>
      <trkpt lat="45.00292" lon="0.71666">
        <ele>169.81</ele>
        <time>2017-08-23T13:49:27Z</time>
      </trkpt>
      <trkpt lat="45.00284" lon="0.71676">
        <ele>169.33</ele>
        <time>2017-08-23T13:49:40Z</time>
      </trkpt>
      <trkpt lat="45.00277" lon="0.71684">
        <ele>169.33</ele>
        <time>2017-08-23T13:49:48Z</time>
      </trkpt>
      <trkpt lat="45.00265" lon="0.71699">
        <ele>168.85</ele>
        <time>2017-08-23T13:50:02Z</time>
      </trkpt>
      <trkpt lat="45.00263" lon="0.71701">
        <ele>168.37</ele>
        <time>2017-08-23T13:50:04Z</time>
      </trkpt>
      <trkpt lat="45.00258" lon="0.71705">
        <ele>168.37</ele>
        <time>2017-08-23T13:50:08Z</time>
      </trkpt>
      <trkpt lat="45.00248" lon="0.71716">
        <ele>167.89</ele>
        <time>2017-08-23T13:50:19Z</time>
      </trkpt>
      <trkpt lat="45.0024" lon="0.71735">
        <ele>166.45</ele>
        <time>2017-08-23T13:50:35Z</time>
      </trkpt>
      <trkpt lat="45.00233" lon="0.71736">
        <ele>166.93</ele>
        <time>2017-08-23T13:50:49Z</time>
      </trkpt>
      <trkpt lat="45.00232" lon="0.71736">
        <ele>166.93</ele>
        <time>2017-08-23T13:50:50Z</time>
      </trkpt>
      <trkpt lat="45.00229" lon="0.71736">
        <ele>166.93</ele>
        <time>2017-08-23T13:50:54Z</time>
      </trkpt>
      <trkpt lat="45.00226" lon="0.71738">
        <ele>166.93</ele>
        <time>2017-08-23T13:50:56Z</time>
      </trkpt>
      <trkpt lat="45.00221" lon="0.71739">
        <ele>167.41</ele>
        <time>2017-08-23T13:51:00Z</time>
      </trkpt>
      <trkpt lat="45.00208" lon="0.7174">
        <ele>167.41</ele>
        <time>2017-08-23T13:51:11Z</time>
      </trkpt>
      <trkpt lat="45.00205" lon="0.71741">
        <ele>168.37</ele>
        <time>2017-08-23T13:51:35Z</time>
      </trkpt>
      <trkpt lat="45.00198" lon="0.71743">
        <ele>167.89</ele>
        <time>2017-08-23T13:51:41Z</time>
      </trkpt>
      <trkpt lat="45.00181" lon="0.71748">
        <ele>167.89</ele>
        <time>2017-08-23T13:51:55Z</time>
      </trkpt>
      <trkpt lat="45.00175" lon="0.71751">
        <ele>168.37</ele>
        <time>2017-08-23T13:52:07Z</time>
      </trkpt>
      <trkpt lat="45.00175" lon="0.71751">
        <ele>168.37</ele>
        <time>2017-08-23T13:52:10Z</time>
      </trkpt>
      <trkpt lat="45.00173" lon="0.71761">
        <ele>167.89</ele>
        <time>2017-08-23T13:52:16Z</time>
      </trkpt>
      <trkpt lat="45.00168" lon="0.71765">
        <ele>168.37</ele>
        <time>2017-08-23T13:52:21Z</time>
      </trkpt>
      <trkpt lat="45.00151" lon="0.71777">
        <ele>168.85</ele>
        <time>2017-08-23T13:52:36Z</time>
      </trkpt>
      <trkpt lat="45.00147" lon="0.71782">
        <ele>168.85</ele>
        <time>2017-08-23T13:52:41Z</time>
      </trkpt>
      <trkpt lat="45.00135" lon="0.71796">
        <ele>169.33</ele>
        <time>2017-08-23T13:52:54Z</time>
      </trkpt>
      <trkpt lat="45.00129" lon="0.71807">
        <ele>169.81</ele>
        <time>2017-08-23T13:53:03Z</time>
      </trkpt>
      <trkpt lat="45.00119" lon="0.71823">
        <ele>169.81</ele>
        <time>2017-08-23T13:53:17Z</time>
      </trkpt>
      <trkpt lat="45.0011" lon="0.71839">
        <ele>170.77</ele>
        <time>2017-08-23T13:53:30Z</time>
      </trkpt>
      <trkpt lat="45.00106" lon="0.71847">
        <ele>171.25</ele>
        <time>2017-08-23T13:53:37Z</time>
      </trkpt>
      <trkpt lat="45.00095" lon="0.71858">
        <ele>171.25</ele>
        <time>2017-08-23T13:53:50Z</time>
      </trkpt>
      <trkpt lat="45.00087" lon="0.71865">
        <ele>171.25</ele>
        <time>2017-08-23T13:54:05Z</time>
      </trkpt>
      <trkpt lat="45.00085" lon="0.7187">
        <ele>171.73</ele>
        <time>2017-08-23T13:54:17Z</time>
      </trkpt>
      <trkpt lat="45.00089" lon="0.71878">
        <ele>170.77</ele>
        <time>2017-08-23T13:54:31Z</time>
      </trkpt>
      <trkpt lat="45.0009" lon="0.71882">
        <ele>169.81</ele>
        <time>2017-08-23T13:54:35Z</time>
      </trkpt>
      <trkpt lat="45.00101" lon="0.71897">
        <ele>168.85</ele>
        <time>2017-08-23T13:54:49Z</time>
      </trkpt>
      <trkpt lat="45.00108" lon="0.71907">
        <ele>167.89</ele>
        <time>2017-08-23T13:55:01Z</time>
      </trkpt>
      <trkpt lat="45.0011" lon="0.7191">
        <ele>167.89</ele>
        <time>2017-08-23T13:55:05Z</time>
      </trkpt>
      <trkpt lat="45.00118" lon="0.71923">
        <ele>166.93</ele>
        <time>2017-08-23T13:55:16Z</time>
      </trkpt>
      <trkpt lat="45.00121" lon="0.71928">
        <ele>165.96</ele>
        <time>2017-08-23T13:55:21Z</time>
      </trkpt>
      <trkpt lat="45.00129" lon="0.71939">
        <ele>165</ele>
        <time>2017-08-23T13:55:33Z</time>
      </trkpt>
      <trkpt lat="45.00138" lon="0.71949">
        <ele>164.04</ele>
        <time>2017-08-23T13:55:47Z</time>
      </trkpt>
      <trkpt lat="45.0014" lon="0.71951">
        <ele>163.56</ele>
        <time>2017-08-23T13:55:50Z</time>
      </trkpt>
      <trkpt lat="45.00145" lon="0.71959">
        <ele>163.08</ele>
        <time>2017-08-23T13:55:58Z</time>
      </trkpt>
      <trkpt lat="45.00155" lon="0.71973">
        <ele>161.64</ele>
        <time>2017-08-23T13:56:13Z</time>
      </trkpt>
      <trkpt lat="45.00157" lon="0.71976">
        <ele>161.16</ele>
        <time>2017-08-23T13:56:16Z</time>
      </trkpt>
      <trkpt lat="45.00165" lon="0.71986">
        <ele>160.2</ele>
        <time>2017-08-23T13:56:30Z</time>
      </trkpt>
      <trkpt lat="45.00165" lon="0.71989">
        <ele>161.16</ele>
        <time>2017-08-23T13:56:49Z</time>
      </trkpt>
      <trkpt lat="45.00166" lon="0.71989">
        <ele>161.16</ele>
        <time>2017-08-23T13:57:13Z</time>
      </trkpt>
      <trkpt lat="45.00166" lon="0.71989">
        <ele>161.16</ele>
        <time>2017-08-23T13:57:32Z</time>
      </trkpt>
      <trkpt lat="45.00165" lon="0.7199">
        <ele>160.2</ele>
        <time>2017-08-23T13:57:46Z</time>
      </trkpt>
      <trkpt lat="45.00165" lon="0.7199">
        <ele>159.72</ele>
        <time>2017-08-23T13:57:50Z</time>
      </trkpt>
      <trkpt lat="45.00174" lon="0.72001">
        <ele>158.75</ele>
        <time>2017-08-23T13:58:05Z</time>
      </trkpt>
      <trkpt lat="45.00174" lon="0.72002">
        <ele>159.24</ele>
        <time>2017-08-23T13:58:25Z</time>
      </trkpt>
      <trkpt lat="45.00176" lon="0.72007">
        <ele>158.75</ele>
        <time>2017-08-23T13:58:39Z</time>
      </trkpt>
      <trkpt lat="45.00177" lon="0.72008">
        <ele>158.75</ele>
        <time>2017-08-23T13:58:43Z</time>
      </trkpt>
      <trkpt lat="45.00182" lon="0.72017">
        <ele>158.27</ele>
        <time>2017-08-23T13:58:50Z</time>
      </trkpt>
      <trkpt lat="45.00187" lon="0.72023">
        <ele>157.31</ele>
        <time>2017-08-23T13:58:57Z</time>
      </trkpt>
      <trkpt lat="45.00197" lon="0.72041">
        <ele>155.87</ele>
        <time>2017-08-23T13:59:13Z</time>
      </trkpt>
      <trkpt lat="45.00204" lon="0.72057">
        <ele>153.95</ele>
        <time>2017-08-23T13:59:28Z</time>
      </trkpt>
      <trkpt lat="45.00206" lon="0.72063">
        <ele>153.47</ele>
        <time>2017-08-23T13:59:33Z</time>
      </trkpt>
      <trkpt lat="45.0021" lon="0.72077">
        <ele>151.54</ele>
        <time>2017-08-23T13:59:49Z</time>
      </trkpt>
      <trkpt lat="45.00215" lon="0.72089">
        <ele>149.62</ele>
        <time>2017-08-23T14:00:05Z</time>
      </trkpt>
      <trkpt lat="45.00221" lon="0.721">
        <ele>148.18</ele>
        <time>2017-08-23T14:00:17Z</time>
      </trkpt>
      <trkpt lat="45.00231" lon="0.72114">
        <ele>147.7</ele>
        <time>2017-08-23T14:00:31Z</time>
      </trkpt>
      <trkpt lat="45.00239" lon="0.72122">
        <ele>146.74</ele>
        <time>2017-08-23T14:00:45Z</time>
      </trkpt>
      <trkpt lat="45.00249" lon="0.7213">
        <ele>145.78</ele>
        <time>2017-08-23T14:01:00Z</time>
      </trkpt>
      <trkpt lat="45.0025" lon="0.72133">
        <ele>145.78</ele>
        <time>2017-08-23T14:01:11Z</time>
      </trkpt>
      <trkpt lat="45.0025" lon="0.72137">
        <ele>145.78</ele>
        <time>2017-08-23T14:01:15Z</time>
      </trkpt>
      <trkpt lat="45.0025" lon="0.72145">
        <ele>146.26</ele>
        <time>2017-08-23T14:01:20Z</time>
      </trkpt>
      <trkpt lat="45.00248" lon="0.72163">
        <ele>146.26</ele>
        <time>2017-08-23T14:01:33Z</time>
      </trkpt>
      <trkpt lat="45.00246" lon="0.72182">
        <ele>146.26</ele>
        <time>2017-08-23T14:01:47Z</time>
      </trkpt>
      <trkpt lat="45.00245" lon="0.72186">
        <ele>146.74</ele>
        <time>2017-08-23T14:01:50Z</time>
      </trkpt>
      <trkpt lat="45.00244" lon="0.72191">
        <ele>146.74</ele>
        <time>2017-08-23T14:01:53Z</time>
      </trkpt>
      <trkpt lat="45.00243" lon="0.72201">
        <ele>146.74</ele>
        <time>2017-08-23T14:02:00Z</time>
      </trkpt>
      <trkpt lat="45.00243" lon="0.72223">
        <ele>147.22</ele>
        <time>2017-08-23T14:02:14Z</time>
      </trkpt>
      <trkpt lat="45.00245" lon="0.72236">
        <ele>147.22</ele>
        <time>2017-08-23T14:02:24Z</time>
      </trkpt>
      <trkpt lat="45.00246" lon="0.7224">
        <ele>147.22</ele>
        <time>2017-08-23T14:02:26Z</time>
      </trkpt>
      <trkpt lat="45.00251" lon="0.72253">
        <ele>147.7</ele>
        <time>2017-08-23T14:02:36Z</time>
      </trkpt>
      <trkpt lat="45.00263" lon="0.72253">
        <ele>149.62</ele>
        <time>2017-08-23T14:02:50Z</time>
      </trkpt>
      <trkpt lat="45.00271" lon="0.7224">
        <ele>150.58</ele>
        <time>2017-08-23T14:03:05Z</time>
      </trkpt>
      <trkpt lat="45.00273" lon="0.72235">
        <ele>151.54</ele>
        <time>2017-08-23T14:03:18Z</time>
      </trkpt>
      <trkpt lat="45.00276" lon="0.72231">
        <ele>152.99</ele>
        <time>2017-08-23T14:03:32Z</time>
      </trkpt>
      <trkpt lat="45.0028" lon="0.72228">
        <ele>153.95</ele>
        <time>2017-08-23T14:03:46Z</time>
      </trkpt>
      <trkpt lat="45.00284" lon="0.72223">
        <ele>155.39</ele>
        <time>2017-08-23T14:04:01Z</time>
      </trkpt>
      <trkpt lat="45.00295" lon="0.72211">
        <ele>156.35</ele>
        <time>2017-08-23T14:04:16Z</time>
      </trkpt>
      <trkpt lat="45.00303" lon="0.72204">
        <ele>157.31</ele>
        <time>2017-08-23T14:04:30Z</time>
      </trkpt>
      <trkpt lat="45.0031" lon="0.72199">
        <ele>158.27</ele>
        <time>2017-08-23T14:04:43Z</time>
      </trkpt>
      <trkpt lat="45.00315" lon="0.72195">
        <ele>158.75</ele>
        <time>2017-08-23T14:04:55Z</time>
      </trkpt>
      <trkpt lat="45.00322" lon="0.7219">
        <ele>159.72</ele>
        <time>2017-08-23T14:05:10Z</time>
      </trkpt>
      <trkpt lat="45.00329" lon="0.72184">
        <ele>160.68</ele>
        <time>2017-08-23T14:05:23Z</time>
      </trkpt>
      <trkpt lat="45.00348" lon="0.72176">
        <ele>160.68</ele>
        <time>2017-08-23T14:05:36Z</time>
      </trkpt>
      <trkpt lat="45.00364" lon="0.72166">
        <ele>160.68</ele>
        <time>2017-08-23T14:05:49Z</time>
      </trkpt>
      <trkpt lat="45.00379" lon="0.72159">
        <ele>161.64</ele>
        <time>2017-08-23T14:06:02Z</time>
      </trkpt>
      <trkpt lat="45.00399" lon="0.72152">
        <ele>162.12</ele>
        <time>2017-08-23T14:06:14Z</time>
      </trkpt>
      <trkpt lat="45.00412" lon="0.72149">
        <ele>163.08</ele>
        <time>2017-08-23T14:06:25Z</time>
      </trkpt>
      <trkpt lat="45.00421" lon="0.72148">
        <ele>163.56</ele>
        <time>2017-08-23T14:06:32Z</time>
      </trkpt>
      <trkpt lat="45.00438" lon="0.72146">
        <ele>164.52</ele>
        <time>2017-08-23T14:06:46Z</time>
      </trkpt>
      <trkpt lat="45.0045" lon="0.72147">
        <ele>165.48</ele>
        <time>2017-08-23T14:06:59Z</time>
      </trkpt>
      <trkpt lat="45.00461" lon="0.72148">
        <ele>166.93</ele>
        <time>2017-08-23T14:07:12Z</time>
      </trkpt>
      <trkpt lat="45.00463" lon="0.72149">
        <ele>166.93</ele>
        <time>2017-08-23T14:07:14Z</time>
      </trkpt>
      <trkpt lat="45.00466" lon="0.7215">
        <ele>166.93</ele>
        <time>2017-08-23T14:07:17Z</time>
      </trkpt>
      <trkpt lat="45.00479" lon="0.72158">
        <ele>168.37</ele>
        <time>2017-08-23T14:07:31Z</time>
      </trkpt>
      <trkpt lat="45.00487" lon="0.72161">
        <ele>169.33</ele>
        <time>2017-08-23T14:07:40Z</time>
      </trkpt>
      <trkpt lat="45.0049" lon="0.72164">
        <ele>169.33</ele>
        <time>2017-08-23T14:07:54Z</time>
      </trkpt>
      <trkpt lat="45.00492" lon="0.72163">
        <ele>169.33</ele>
        <time>2017-08-23T14:08:12Z</time>
      </trkpt>
      <trkpt lat="45.00493" lon="0.7216">
        <ele>169.33</ele>
        <time>2017-08-23T14:08:44Z</time>
      </trkpt>
      <trkpt lat="45.00494" lon="0.72158">
        <ele>168.37</ele>
        <time>2017-08-23T14:08:58Z</time>
      </trkpt>
      <trkpt lat="45.00501" lon="0.72151">
        <ele>167.89</ele>
        <time>2017-08-23T14:09:09Z</time>
      </trkpt>
      <trkpt lat="45.00502" lon="0.72149">
        <ele>167.41</ele>
        <time>2017-08-23T14:09:12Z</time>
      </trkpt>
      <trkpt lat="45.00505" lon="0.72148">
        <ele>167.41</ele>
        <time>2017-08-23T14:09:14Z</time>
      </trkpt>
      <trkpt lat="45.00519" lon="0.72145">
        <ele>166.93</ele>
        <time>2017-08-23T14:09:26Z</time>
      </trkpt>
      <trkpt lat="45.00519" lon="0.72144">
        <ele>166.93</ele>
        <time>2017-08-23T14:09:27Z</time>
      </trkpt>
      <trkpt lat="45.00528" lon="0.72135">
        <ele>166.45</ele>
        <time>2017-08-23T14:09:41Z</time>
      </trkpt>
      <trkpt lat="45.00539" lon="0.72128">
        <ele>165.96</ele>
        <time>2017-08-23T14:09:55Z</time>
      </trkpt>
      <trkpt lat="45.00548" lon="0.72125">
        <ele>165.96</ele>
        <time>2017-08-23T14:10:10Z</time>
      </trkpt>
      <trkpt lat="45.00553" lon="0.7213">
        <ele>165.48</ele>
        <time>2017-08-23T14:10:23Z</time>
      </trkpt>
      <trkpt lat="45.0057" lon="0.72141">
        <ele>165.48</ele>
        <time>2017-08-23T14:10:38Z</time>
      </trkpt>
      <trkpt lat="45.00578" lon="0.72151">
        <ele>165</ele>
        <time>2017-08-23T14:10:47Z</time>
      </trkpt>
      <trkpt lat="45.00579" lon="0.72154">
        <ele>165</ele>
        <time>2017-08-23T14:10:49Z</time>
      </trkpt>
      <trkpt lat="45.00593" lon="0.72166">
        <ele>164.52</ele>
        <time>2017-08-23T14:11:03Z</time>
      </trkpt>
      <trkpt lat="45.00594" lon="0.72166">
        <ele>164.52</ele>
        <time>2017-08-23T14:11:04Z</time>
      </trkpt>
      <trkpt lat="45.00609" lon="0.72167">
        <ele>163.56</ele>
        <time>2017-08-23T14:11:20Z</time>
      </trkpt>
      <trkpt lat="45.00621" lon="0.72162">
        <ele>162.6</ele>
        <time>2017-08-23T14:11:35Z</time>
      </trkpt>
      <trkpt lat="45.00621" lon="0.72162">
        <ele>162.6</ele>
        <time>2017-08-23T14:11:45Z</time>
      </trkpt>
      <trkpt lat="45.00624" lon="0.72161">
        <ele>162.6</ele>
        <time>2017-08-23T14:11:48Z</time>
      </trkpt>
      <trkpt lat="45.00628" lon="0.72161">
        <ele>162.6</ele>
        <time>2017-08-23T14:11:51Z</time>
      </trkpt>
      <trkpt lat="45.00632" lon="0.72163">
        <ele>162.12</ele>
        <time>2017-08-23T14:11:55Z</time>
      </trkpt>
      <trkpt lat="45.00647" lon="0.72169">
        <ele>162.12</ele>
        <time>2017-08-23T14:12:10Z</time>
      </trkpt>
      <trkpt lat="45.00661" lon="0.7217">
        <ele>161.64</ele>
        <time>2017-08-23T14:12:23Z</time>
      </trkpt>
      <trkpt lat="45.00673" lon="0.7217">
        <ele>160.68</ele>
        <time>2017-08-23T14:12:37Z</time>
      </trkpt>
      <trkpt lat="45.00677" lon="0.72171">
        <ele>160.2</ele>
        <time>2017-08-23T14:12:42Z</time>
      </trkpt>
      <trkpt lat="45.00689" lon="0.72166">
        <ele>159.24</ele>
        <time>2017-08-23T14:12:57Z</time>
      </trkpt>
      <trkpt lat="45.007" lon="0.72161">
        <ele>157.79</ele>
        <time>2017-08-23T14:13:13Z</time>
      </trkpt>
      <trkpt lat="45.00716" lon="0.72152">
        <ele>156.35</ele>
        <time>2017-08-23T14:13:30Z</time>
      </trkpt>
      <trkpt lat="45.00726" lon="0.72145">
        <ele>155.39</ele>
        <time>2017-08-23T14:13:44Z</time>
      </trkpt>
      <trkpt lat="45.00731" lon="0.72142">
        <ele>154.43</ele>
        <time>2017-08-23T14:13:51Z</time>
      </trkpt>
      <trkpt lat="45.00737" lon="0.7215">
        <ele>153.95</ele>
        <time>2017-08-23T14:14:05Z</time>
      </trkpt>
      <trkpt lat="45.00729" lon="0.72161">
        <ele>154.43</ele>
        <time>2017-08-23T14:14:16Z</time>
      </trkpt>
      <trkpt lat="45.00726" lon="0.72167">
        <ele>154.91</ele>
        <time>2017-08-23T14:14:21Z</time>
      </trkpt>
      <trkpt lat="45.00724" lon="0.72171">
        <ele>154.91</ele>
        <time>2017-08-23T14:14:24Z</time>
      </trkpt>
      <trkpt lat="45.0072" lon="0.72181">
        <ele>155.39</ele>
        <time>2017-08-23T14:14:32Z</time>
      </trkpt>
      <trkpt lat="45.00716" lon="0.72196">
        <ele>156.35</ele>
        <time>2017-08-23T14:14:45Z</time>
      </trkpt>
      <trkpt lat="45.00711" lon="0.72212">
        <ele>157.31</ele>
        <time>2017-08-23T14:14:58Z</time>
      </trkpt>
      <trkpt lat="45.00708" lon="0.72219">
        <ele>157.79</ele>
        <time>2017-08-23T14:15:06Z</time>
      </trkpt>
      <trkpt lat="45.00703" lon="0.72234">
        <ele>159.24</ele>
        <time>2017-08-23T14:15:19Z</time>
      </trkpt>
      <trkpt lat="45.007" lon="0.72243">
        <ele>160.2</ele>
        <time>2017-08-23T14:15:32Z</time>
      </trkpt>
      <trkpt lat="45.007" lon="0.72244">
        <ele>161.16</ele>
        <time>2017-08-23T14:15:48Z</time>
      </trkpt>
      <trkpt lat="45.007" lon="0.72246">
        <ele>161.16</ele>
        <time>2017-08-23T14:15:56Z</time>
      </trkpt>
      <trkpt lat="45.00693" lon="0.72265">
        <ele>161.64</ele>
        <time>2017-08-23T14:16:09Z</time>
      </trkpt>
      <trkpt lat="45.0069" lon="0.72281">
        <ele>162.6</ele>
        <time>2017-08-23T14:16:21Z</time>
      </trkpt>
      <trkpt lat="45.00689" lon="0.72297">
        <ele>164.04</ele>
        <time>2017-08-23T14:16:34Z</time>
      </trkpt>
      <trkpt lat="45.00688" lon="0.72314">
        <ele>165</ele>
        <time>2017-08-23T14:16:48Z</time>
      </trkpt>
      <trkpt lat="45.00685" lon="0.72333">
        <ele>165.96</ele>
        <time>2017-08-23T14:17:01Z</time>
      </trkpt>
      <trkpt lat="45.00684" lon="0.72351">
        <ele>167.41</ele>
        <time>2017-08-23T14:17:14Z</time>
      </trkpt>
      <trkpt lat="45.00685" lon="0.72368">
        <ele>168.37</ele>
        <time>2017-08-23T14:17:26Z</time>
      </trkpt>
      <trkpt lat="45.00689" lon="0.7238">
        <ele>169.33</ele>
        <time>2017-08-23T14:17:36Z</time>
      </trkpt>
      <trkpt lat="45.0069" lon="0.72385">
        <ele>169.33</ele>
        <time>2017-08-23T14:17:39Z</time>
      </trkpt>
      <trkpt lat="45.00692" lon="0.7239">
        <ele>170.29</ele>
        <time>2017-08-23T14:17:42Z</time>
      </trkpt>
      <trkpt lat="45.00693" lon="0.72392">
        <ele>169.81</ele>
        <time>2017-08-23T14:17:44Z</time>
      </trkpt>
      <trkpt lat="45.00697" lon="0.72403">
        <ele>170.29</ele>
        <time>2017-08-23T14:17:52Z</time>
      </trkpt>
      <trkpt lat="45.00699" lon="0.72422">
        <ele>171.25</ele>
        <time>2017-08-23T14:18:06Z</time>
      </trkpt>
      <trkpt lat="45.007" lon="0.72435">
        <ele>171.73</ele>
        <time>2017-08-23T14:18:18Z</time>
      </trkpt>
      <trkpt lat="45.00699" lon="0.72449">
        <ele>172.21</ele>
        <time>2017-08-23T14:18:29Z</time>
      </trkpt>
      <trkpt lat="45.00699" lon="0.72453">
        <ele>172.21</ele>
        <time>2017-08-23T14:18:32Z</time>
      </trkpt>
      <trkpt lat="45.00699" lon="0.72461">
        <ele>172.69</ele>
        <time>2017-08-23T14:18:37Z</time>
      </trkpt>
      <trkpt lat="45.007" lon="0.72469">
        <ele>172.69</ele>
        <time>2017-08-23T14:18:42Z</time>
      </trkpt>
      <trkpt lat="45.00701" lon="0.72487">
        <ele>173.17</ele>
        <time>2017-08-23T14:18:53Z</time>
      </trkpt>
      <trkpt lat="45.00702" lon="0.72492">
        <ele>173.66</ele>
        <time>2017-08-23T14:18:57Z</time>
      </trkpt>
      <trkpt lat="45.00702" lon="0.72497">
        <ele>173.66</ele>
        <time>2017-08-23T14:19:00Z</time>
      </trkpt>
      <trkpt lat="45.00704" lon="0.7252">
        <ele>174.14</ele>
        <time>2017-08-23T14:19:13Z</time>
      </trkpt>
      <trkpt lat="45.00706" lon="0.72528">
        <ele>174.14</ele>
        <time>2017-08-23T14:19:21Z</time>
      </trkpt>
      <trkpt lat="45.00708" lon="0.72547">
        <ele>174.62</ele>
        <time>2017-08-23T14:19:34Z</time>
      </trkpt>
      <trkpt lat="45.00709" lon="0.7255">
        <ele>174.62</ele>
        <time>2017-08-23T14:19:37Z</time>
      </trkpt>
      <trkpt lat="45.0071" lon="0.72554">
        <ele>174.62</ele>
        <time>2017-08-23T14:19:40Z</time>
      </trkpt>
      <trkpt lat="45.00715" lon="0.72578">
        <ele>175.1</ele>
        <time>2017-08-23T14:19:55Z</time>
      </trkpt>
      <trkpt lat="45.00716" lon="0.72581">
        <ele>175.1</ele>
        <time>2017-08-23T14:19:57Z</time>
      </trkpt>
      <trkpt lat="45.00718" lon="0.7259">
        <ele>175.1</ele>
        <time>2017-08-23T14:20:04Z</time>
      </trkpt>
      <trkpt lat="45.00721" lon="0.72612">
        <ele>175.1</ele>
        <time>2017-08-23T14:20:19Z</time>
      </trkpt>
      <trkpt lat="45.00722" lon="0.72618">
        <ele>175.58</ele>
        <time>2017-08-23T14:20:23Z</time>
      </trkpt>
      <trkpt lat="45.00722" lon="0.72626">
        <ele>175.1</ele>
        <time>2017-08-23T14:20:28Z</time>
      </trkpt>
      <trkpt lat="45.00722" lon="0.72635">
        <ele>175.58</ele>
        <time>2017-08-23T14:20:34Z</time>
      </trkpt>
      <trkpt lat="45.00723" lon="0.72643">
        <ele>175.1</ele>
        <time>2017-08-23T14:20:39Z</time>
      </trkpt>
      <trkpt lat="45.00722" lon="0.72665">
        <ele>175.58</ele>
        <time>2017-08-23T14:20:52Z</time>
      </trkpt>
      <trkpt lat="45.00716" lon="0.72681">
        <ele>175.1</ele>
        <time>2017-08-23T14:21:05Z</time>
      </trkpt>
      <trkpt lat="45.00711" lon="0.72689">
        <ele>175.1</ele>
        <time>2017-08-23T14:21:12Z</time>
      </trkpt>
      <trkpt lat="45.00709" lon="0.72693">
        <ele>175.1</ele>
        <time>2017-08-23T14:21:15Z</time>
      </trkpt>
      <trkpt lat="45.00702" lon="0.72706">
        <ele>175.1</ele>
        <time>2017-08-23T14:21:26Z</time>
      </trkpt>
      <trkpt lat="45.00697" lon="0.72714">
        <ele>175.1</ele>
        <time>2017-08-23T14:21:33Z</time>
      </trkpt>
      <trkpt lat="45.0069" lon="0.72727">
        <ele>174.62</ele>
        <time>2017-08-23T14:21:45Z</time>
      </trkpt>
      <trkpt lat="45.00679" lon="0.72743">
        <ele>174.14</ele>
        <time>2017-08-23T14:21:59Z</time>
      </trkpt>
      <trkpt lat="45.00671" lon="0.72751">
        <ele>173.66</ele>
        <time>2017-08-23T14:22:09Z</time>
      </trkpt>
      <trkpt lat="45.00657" lon="0.72758">
        <ele>173.17</ele>
        <time>2017-08-23T14:22:23Z</time>
      </trkpt>
      <trkpt lat="45.00655" lon="0.72759">
        <ele>173.17</ele>
        <time>2017-08-23T14:22:25Z</time>
      </trkpt>
      <trkpt lat="45.00647" lon="0.72762">
        <ele>172.69</ele>
        <time>2017-08-23T14:22:33Z</time>
      </trkpt>
      <trkpt lat="45.0064" lon="0.72764">
        <ele>172.21</ele>
        <time>2017-08-23T14:22:40Z</time>
      </trkpt>
      <trkpt lat="45.00633" lon="0.72767">
        <ele>171.73</ele>
        <time>2017-08-23T14:22:48Z</time>
      </trkpt>
      <trkpt lat="45.00629" lon="0.72769">
        <ele>171.73</ele>
        <time>2017-08-23T14:22:51Z</time>
      </trkpt>
      <trkpt lat="45.00627" lon="0.72769">
        <ele>171.73</ele>
        <time>2017-08-23T14:22:53Z</time>
      </trkpt>
      <trkpt lat="45.00612" lon="0.72773">
        <ele>171.25</ele>
        <time>2017-08-23T14:23:07Z</time>
      </trkpt>
      <trkpt lat="45.00597" lon="0.72778">
        <ele>171.25</ele>
        <time>2017-08-23T14:23:19Z</time>
      </trkpt>
      <trkpt lat="45.00589" lon="0.72783">
        <ele>171.73</ele>
        <time>2017-08-23T14:23:28Z</time>
      </trkpt>
      <trkpt lat="45.00583" lon="0.72786">
        <ele>171.73</ele>
        <time>2017-08-23T14:23:34Z</time>
      </trkpt>
      <trkpt lat="45.00581" lon="0.72786">
        <ele>171.73</ele>
        <time>2017-08-23T14:23:36Z</time>
      </trkpt>
      <trkpt lat="45.00565" lon="0.72794">
        <ele>171.73</ele>
        <time>2017-08-23T14:23:51Z</time>
      </trkpt>
      <trkpt lat="45.0055" lon="0.72799">
        <ele>172.21</ele>
        <time>2017-08-23T14:24:04Z</time>
      </trkpt>
      <trkpt lat="45.00535" lon="0.72805">
        <ele>172.69</ele>
        <time>2017-08-23T14:24:18Z</time>
      </trkpt>
      <trkpt lat="45.00534" lon="0.72806">
        <ele>172.69</ele>
        <time>2017-08-23T14:24:21Z</time>
      </trkpt>
      <trkpt lat="45.0053" lon="0.72807">
        <ele>172.69</ele>
        <time>2017-08-23T14:24:29Z</time>
      </trkpt>
      <trkpt lat="45.00523" lon="0.7281">
        <ele>172.69</ele>
        <time>2017-08-23T14:24:36Z</time>
      </trkpt>
      <trkpt lat="45.00522" lon="0.72831">
        <ele>171.73</ele>
        <time>2017-08-23T14:24:52Z</time>
      </trkpt>
      <trkpt lat="45.00525" lon="0.72847">
        <ele>170.29</ele>
        <time>2017-08-23T14:25:06Z</time>
      </trkpt>
      <trkpt lat="45.00529" lon="0.72863">
        <ele>169.33</ele>
        <time>2017-08-23T14:25:19Z</time>
      </trkpt>
      <trkpt lat="45.00529" lon="0.72864">
        <ele>169.33</ele>
        <time>2017-08-23T14:25:20Z</time>
      </trkpt>
      <trkpt lat="45.00531" lon="0.72872">
        <ele>169.33</ele>
        <time>2017-08-23T14:25:27Z</time>
      </trkpt>
      <trkpt lat="45.00535" lon="0.72888">
        <ele>168.85</ele>
        <time>2017-08-23T14:25:39Z</time>
      </trkpt>
      <trkpt lat="45.00538" lon="0.72901">
        <ele>166.93</ele>
        <time>2017-08-23T14:25:52Z</time>
      </trkpt>
      <trkpt lat="45.00539" lon="0.72901">
        <ele>166.93</ele>
        <time>2017-08-23T14:26:15Z</time>
      </trkpt>
      <trkpt lat="45.00538" lon="0.72902">
        <ele>166.93</ele>
        <time>2017-08-23T14:26:37Z</time>
      </trkpt>
      <trkpt lat="45.00538" lon="0.72902">
        <ele>166.93</ele>
        <time>2017-08-23T14:26:58Z</time>
      </trkpt>
      <trkpt lat="45.00538" lon="0.72902">
        <ele>166.45</ele>
        <time>2017-08-23T14:27:16Z</time>
      </trkpt>
      <trkpt lat="45.00538" lon="0.72902">
        <ele>166.45</ele>
        <time>2017-08-23T14:27:47Z</time>
      </trkpt>
      <trkpt lat="45.00538" lon="0.72906">
        <ele>166.45</ele>
        <time>2017-08-23T14:28:10Z</time>
      </trkpt>
      <trkpt lat="45.00542" lon="0.72922">
        <ele>165.48</ele>
        <time>2017-08-23T14:28:24Z</time>
      </trkpt>
      <trkpt lat="45.00543" lon="0.72922">
        <ele>165.48</ele>
        <time>2017-08-23T14:28:42Z</time>
      </trkpt>
      <trkpt lat="45.00543" lon="0.72922">
        <ele>165.48</ele>
        <time>2017-08-23T14:28:59Z</time>
      </trkpt>
      <trkpt lat="45.00543" lon="0.72922">
        <ele>165.48</ele>
        <time>2017-08-23T14:29:17Z</time>
      </trkpt>
      <trkpt lat="45.00544" lon="0.72922">
        <ele>165.48</ele>
        <time>2017-08-23T14:29:42Z</time>
      </trkpt>
      <trkpt lat="45.00545" lon="0.72924">
        <ele>165.48</ele>
        <time>2017-08-23T14:29:44Z</time>
      </trkpt>
      <trkpt lat="45.00546" lon="0.7293">
        <ele>165</ele>
        <time>2017-08-23T14:29:59Z</time>
      </trkpt>
      <trkpt lat="45.00547" lon="0.72931">
        <ele>165.48</ele>
        <time>2017-08-23T14:30:12Z</time>
      </trkpt>
      <trkpt lat="45.00547" lon="0.72932">
        <ele>165</ele>
        <time>2017-08-23T14:30:13Z</time>
      </trkpt>
      <trkpt lat="45.0055" lon="0.72941">
        <ele>165</ele>
        <time>2017-08-23T14:30:21Z</time>
      </trkpt>
      <trkpt lat="45.00552" lon="0.72946">
        <ele>164.52</ele>
        <time>2017-08-23T14:30:24Z</time>
      </trkpt>
      <trkpt lat="45.00556" lon="0.72958">
        <ele>164.52</ele>
        <time>2017-08-23T14:30:32Z</time>
      </trkpt>
      <trkpt lat="45.00563" lon="0.72978">
        <ele>164.52</ele>
        <time>2017-08-23T14:30:48Z</time>
      </trkpt>
      <trkpt lat="45.00568" lon="0.72994">
        <ele>165</ele>
        <time>2017-08-23T14:30:59Z</time>
      </trkpt>
      <trkpt lat="45.00572" lon="0.73013">
        <ele>165</ele>
        <time>2017-08-23T14:31:12Z</time>
      </trkpt>
      <trkpt lat="45.00577" lon="0.73033">
        <ele>164.52</ele>
        <time>2017-08-23T14:31:27Z</time>
      </trkpt>
      <trkpt lat="45.00578" lon="0.73042">
        <ele>164.04</ele>
        <time>2017-08-23T14:31:32Z</time>
      </trkpt>
      <trkpt lat="45.0058" lon="0.73049">
        <ele>164.04</ele>
        <time>2017-08-23T14:31:36Z</time>
      </trkpt>
      <trkpt lat="45.00582" lon="0.73065">
        <ele>162.6</ele>
        <time>2017-08-23T14:31:50Z</time>
      </trkpt>
      <trkpt lat="45.00583" lon="0.73071">
        <ele>162.12</ele>
        <time>2017-08-23T14:31:54Z</time>
      </trkpt>
      <trkpt lat="45.00584" lon="0.7309">
        <ele>161.16</ele>
        <time>2017-08-23T14:32:08Z</time>
      </trkpt>
      <trkpt lat="45.00585" lon="0.73092">
        <ele>160.68</ele>
        <time>2017-08-23T14:32:09Z</time>
      </trkpt>
      <trkpt lat="45.00587" lon="0.73102">
        <ele>160.2</ele>
        <time>2017-08-23T14:32:17Z</time>
      </trkpt>
      <trkpt lat="45.00587" lon="0.73108">
        <ele>159.72</ele>
        <time>2017-08-23T14:32:22Z</time>
      </trkpt>
      <trkpt lat="45.00589" lon="0.73115">
        <ele>159.24</ele>
        <time>2017-08-23T14:32:28Z</time>
      </trkpt>
      <trkpt lat="45.00592" lon="0.73134">
        <ele>158.27</ele>
        <time>2017-08-23T14:32:43Z</time>
      </trkpt>
      <trkpt lat="45.00594" lon="0.73154">
        <ele>156.83</ele>
        <time>2017-08-23T14:32:57Z</time>
      </trkpt>
      <trkpt lat="45.00594" lon="0.73167">
        <ele>155.87</ele>
        <time>2017-08-23T14:33:09Z</time>
      </trkpt>
      <trkpt lat="45.00598" lon="0.73184">
        <ele>153.95</ele>
        <time>2017-08-23T14:33:28Z</time>
      </trkpt>
      <trkpt lat="45.00602" lon="0.73194">
        <ele>153.47</ele>
        <time>2017-08-23T14:33:39Z</time>
      </trkpt>
      <trkpt lat="45.00609" lon="0.73202">
        <ele>152.99</ele>
        <time>2017-08-23T14:33:47Z</time>
      </trkpt>
      <trkpt lat="45.0062" lon="0.73214">
        <ele>152.99</ele>
        <time>2017-08-23T14:34:00Z</time>
      </trkpt>
      <trkpt lat="45.00629" lon="0.73222">
        <ele>152.99</ele>
        <time>2017-08-23T14:34:10Z</time>
      </trkpt>
      <trkpt lat="45.00637" lon="0.73227">
        <ele>152.99</ele>
        <time>2017-08-23T14:34:19Z</time>
      </trkpt>
      <trkpt lat="45.00648" lon="0.73232">
        <ele>153.47</ele>
        <time>2017-08-23T14:34:31Z</time>
      </trkpt>
      <trkpt lat="45.00662" lon="0.73232">
        <ele>154.43</ele>
        <time>2017-08-23T14:34:45Z</time>
      </trkpt>
      <trkpt lat="45.00672" lon="0.73226">
        <ele>155.87</ele>
        <time>2017-08-23T14:35:00Z</time>
      </trkpt>
      <trkpt lat="45.00681" lon="0.73215">
        <ele>157.79</ele>
        <time>2017-08-23T14:35:19Z</time>
      </trkpt>
      <trkpt lat="45.00692" lon="0.73208">
        <ele>159.24</ele>
        <time>2017-08-23T14:35:34Z</time>
      </trkpt>
      <trkpt lat="45.00706" lon="0.73204">
        <ele>160.68</ele>
        <time>2017-08-23T14:35:48Z</time>
      </trkpt>
      <trkpt lat="45.00712" lon="0.73202">
        <ele>161.64</ele>
        <time>2017-08-23T14:36:04Z</time>
      </trkpt>
      <trkpt lat="45.00729" lon="0.73195">
        <ele>163.56</ele>
        <time>2017-08-23T14:36:20Z</time>
      </trkpt>
      <trkpt lat="45.00739" lon="0.73189">
        <ele>164.52</ele>
        <time>2017-08-23T14:36:34Z</time>
      </trkpt>
      <trkpt lat="45.00743" lon="0.73183">
        <ele>166.45</ele>
        <time>2017-08-23T14:36:50Z</time>
      </trkpt>
      <trkpt lat="45.00751" lon="0.73182">
        <ele>167.41</ele>
        <time>2017-08-23T14:37:06Z</time>
      </trkpt>
      <trkpt lat="45.00766" lon="0.73197">
        <ele>168.85</ele>
        <time>2017-08-23T14:37:19Z</time>
      </trkpt>
      <trkpt lat="45.00769" lon="0.73209">
        <ele>170.29</ele>
        <time>2017-08-23T14:37:33Z</time>
      </trkpt>
      <trkpt lat="45.00769" lon="0.7321">
        <ele>170.77</ele>
        <time>2017-08-23T14:37:35Z</time>
      </trkpt>
      <trkpt lat="45.00774" lon="0.73227">
        <ele>171.73</ele>
        <time>2017-08-23T14:37:51Z</time>
      </trkpt>
      <trkpt lat="45.00783" lon="0.73244">
        <ele>173.17</ele>
        <time>2017-08-23T14:38:07Z</time>
      </trkpt>
      <trkpt lat="45.00796" lon="0.73252">
        <ele>173.66</ele>
        <time>2017-08-23T14:38:21Z</time>
      </trkpt>
      <trkpt lat="45.00801" lon="0.73254">
        <ele>173.66</ele>
        <time>2017-08-23T14:38:36Z</time>
      </trkpt>
      <trkpt lat="45.00808" lon="0.73257">
        <ele>173.66</ele>
        <time>2017-08-23T14:38:54Z</time>
      </trkpt>
      <trkpt lat="45.00822" lon="0.73266">
        <ele>173.66</ele>
        <time>2017-08-23T14:39:10Z</time>
      </trkpt>
      <trkpt lat="45.0084" lon="0.73287">
        <ele>173.17</ele>
        <time>2017-08-23T14:39:28Z</time>
      </trkpt>
      <trkpt lat="45.00848" lon="0.73295">
        <ele>173.17</ele>
        <time>2017-08-23T14:39:42Z</time>
      </trkpt>
      <trkpt lat="45.00859" lon="0.73308">
        <ele>173.17</ele>
        <time>2017-08-23T14:39:57Z</time>
      </trkpt>
      <trkpt lat="45.00879" lon="0.73338">
        <ele>173.17</ele>
        <time>2017-08-23T14:40:12Z</time>
      </trkpt>
      <trkpt lat="45.00885" lon="0.73348">
        <ele>173.17</ele>
        <time>2017-08-23T14:40:28Z</time>
      </trkpt>
      <trkpt lat="45.00889" lon="0.73349">
        <ele>173.17</ele>
        <time>2017-08-23T14:40:57Z</time>
      </trkpt>
      <trkpt lat="45.00889" lon="0.73351">
        <ele>173.17</ele>
        <time>2017-08-23T14:41:22Z</time>
      </trkpt>
      <trkpt lat="45.009" lon="0.73364">
        <ele>173.17</ele>
        <time>2017-08-23T14:41:36Z</time>
      </trkpt>
      <trkpt lat="45.00903" lon="0.73369">
        <ele>173.17</ele>
        <time>2017-08-23T14:41:43Z</time>
      </trkpt>
      <trkpt lat="45.00917" lon="0.73391">
        <ele>173.17</ele>
        <time>2017-08-23T14:41:58Z</time>
      </trkpt>
      <trkpt lat="45.00922" lon="0.73398">
        <ele>173.17</ele>
        <time>2017-08-23T14:42:05Z</time>
      </trkpt>
      <trkpt lat="45.00932" lon="0.73413">
        <ele>173.17</ele>
        <time>2017-08-23T14:42:18Z</time>
      </trkpt>
      <trkpt lat="45.00933" lon="0.73416">
        <ele>173.17</ele>
        <time>2017-08-23T14:42:20Z</time>
      </trkpt>
      <trkpt lat="45.0094" lon="0.73429">
        <ele>173.17</ele>
        <time>2017-08-23T14:42:30Z</time>
      </trkpt>
      <trkpt lat="45.00942" lon="0.73434">
        <ele>173.66</ele>
        <time>2017-08-23T14:42:33Z</time>
      </trkpt>
      <trkpt lat="45.00949" lon="0.7345">
        <ele>174.62</ele>
        <time>2017-08-23T14:42:48Z</time>
      </trkpt>
      <trkpt lat="45.0095" lon="0.73451">
        <ele>174.62</ele>
        <time>2017-08-23T14:42:58Z</time>
      </trkpt>
      <trkpt lat="45.00951" lon="0.73453">
        <ele>175.1</ele>
        <time>2017-08-23T14:43:00Z</time>
      </trkpt>
      <trkpt lat="45.00963" lon="0.73462">
        <ele>176.06</ele>
        <time>2017-08-23T14:43:12Z</time>
      </trkpt>
      <trkpt lat="45.00967" lon="0.73462">
        <ele>176.54</ele>
        <time>2017-08-23T14:43:16Z</time>
      </trkpt>
      <trkpt lat="45.0098" lon="0.73462">
        <ele>177.5</ele>
        <time>2017-08-23T14:43:31Z</time>
      </trkpt>
      <trkpt lat="45.00991" lon="0.73459">
        <ele>179.42</ele>
        <time>2017-08-23T14:43:45Z</time>
      </trkpt>
      <trkpt lat="45.00999" lon="0.73459">
        <ele>179.9</ele>
        <time>2017-08-23T14:43:59Z</time>
      </trkpt>
      <trkpt lat="45.0101" lon="0.73453">
        <ele>180.38</ele>
        <time>2017-08-23T14:44:09Z</time>
      </trkpt>
      <trkpt lat="45.01021" lon="0.73449">
        <ele>180.87</ele>
        <time>2017-08-23T14:44:27Z</time>
      </trkpt>
      <trkpt lat="45.01024" lon="0.73445">
        <ele>181.35</ele>
        <time>2017-08-23T14:44:45Z</time>
      </trkpt>
      <trkpt lat="45.0103" lon="0.73438">
        <ele>181.35</ele>
        <time>2017-08-23T14:44:58Z</time>
      </trkpt>
      <trkpt lat="45.01032" lon="0.73433">
        <ele>182.31</ele>
        <time>2017-08-23T14:45:12Z</time>
      </trkpt>
      <trkpt lat="45.01042" lon="0.73428">
        <ele>182.31</ele>
        <time>2017-08-23T14:45:28Z</time>
      </trkpt>
      <trkpt lat="45.01044" lon="0.73436">
        <ele>182.31</ele>
        <time>2017-08-23T14:45:40Z</time>
      </trkpt>
      <trkpt lat="45.01045" lon="0.7344">
        <ele>181.83</ele>
        <time>2017-08-23T14:45:42Z</time>
      </trkpt>
      <trkpt lat="45.01041" lon="0.73454">
        <ele>181.83</ele>
        <time>2017-08-23T14:45:51Z</time>
      </trkpt>
      <trkpt lat="45.01039" lon="0.7346">
        <ele>181.83</ele>
        <time>2017-08-23T14:45:56Z</time>
      </trkpt>
      <trkpt lat="45.01034" lon="0.73472">
        <ele>181.83</ele>
        <time>2017-08-23T14:46:05Z</time>
      </trkpt>
      <trkpt lat="45.0103" lon="0.73488">
        <ele>181.35</ele>
        <time>2017-08-23T14:46:16Z</time>
      </trkpt>
      <trkpt lat="45.01028" lon="0.73493">
        <ele>181.83</ele>
        <time>2017-08-23T14:46:20Z</time>
      </trkpt>
      <trkpt lat="45.01025" lon="0.735">
        <ele>181.83</ele>
        <time>2017-08-23T14:46:25Z</time>
      </trkpt>
      <trkpt lat="45.01023" lon="0.73507">
        <ele>181.35</ele>
        <time>2017-08-23T14:46:30Z</time>
      </trkpt>
      <trkpt lat="45.01014" lon="0.7352">
        <ele>181.35</ele>
        <time>2017-08-23T14:46:43Z</time>
      </trkpt>
      <trkpt lat="45.01015" lon="0.73522">
        <ele>181.35</ele>
        <time>2017-08-23T14:47:04Z</time>
      </trkpt>
      <trkpt lat="45.01007" lon="0.73546">
        <ele>181.35</ele>
        <time>2017-08-23T14:47:19Z</time>
      </trkpt>
      <trkpt lat="45.01001" lon="0.73564">
        <ele>181.35</ele>
        <time>2017-08-23T14:47:32Z</time>
      </trkpt>
      <trkpt lat="45.01" lon="0.73573">
        <ele>181.35</ele>
        <time>2017-08-23T14:47:38Z</time>
      </trkpt>
      <trkpt lat="45.00996" lon="0.73585">
        <ele>181.35</ele>
        <time>2017-08-23T14:47:46Z</time>
      </trkpt>
      <trkpt lat="45.00988" lon="0.73609">
        <ele>181.83</ele>
        <time>2017-08-23T14:48:02Z</time>
      </trkpt>
      <trkpt lat="45.00982" lon="0.73625">
        <ele>182.31</ele>
        <time>2017-08-23T14:48:14Z</time>
      </trkpt>
      <trkpt lat="45.0098" lon="0.7363">
        <ele>182.31</ele>
        <time>2017-08-23T14:48:18Z</time>
      </trkpt>
      <trkpt lat="45.00973" lon="0.73649">
        <ele>182.79</ele>
        <time>2017-08-23T14:48:31Z</time>
      </trkpt>
      <trkpt lat="45.00971" lon="0.73654">
        <ele>182.79</ele>
        <time>2017-08-23T14:48:35Z</time>
      </trkpt>
      <trkpt lat="45.00964" lon="0.73674">
        <ele>183.27</ele>
        <time>2017-08-23T14:48:49Z</time>
      </trkpt>
      <trkpt lat="45.00963" lon="0.7368">
        <ele>183.27</ele>
        <time>2017-08-23T14:48:53Z</time>
      </trkpt>
      <trkpt lat="45.00961" lon="0.73684">
        <ele>183.27</ele>
        <time>2017-08-23T14:48:56Z</time>
      </trkpt>
      <trkpt lat="45.00957" lon="0.737">
        <ele>183.27</ele>
        <time>2017-08-23T14:49:07Z</time>
      </trkpt>
      <trkpt lat="45.00951" lon="0.73717">
        <ele>183.75</ele>
        <time>2017-08-23T14:49:20Z</time>
      </trkpt>
      <trkpt lat="45.0095" lon="0.73722">
        <ele>183.75</ele>
        <time>2017-08-23T14:49:23Z</time>
      </trkpt>
      <trkpt lat="45.00947" lon="0.73727">
        <ele>183.75</ele>
        <time>2017-08-23T14:49:27Z</time>
      </trkpt>
      <trkpt lat="45.00946" lon="0.73731">
        <ele>183.75</ele>
        <time>2017-08-23T14:49:30Z</time>
      </trkpt>
      <trkpt lat="45.00939" lon="0.73741">
        <ele>183.75</ele>
        <time>2017-08-23T14:49:37Z</time>
      </trkpt>
      <trkpt lat="45.00932" lon="0.73749">
        <ele>184.23</ele>
        <time>2017-08-23T14:49:45Z</time>
      </trkpt>
      <trkpt lat="45.0093" lon="0.73751">
        <ele>184.23</ele>
        <time>2017-08-23T14:49:47Z</time>
      </trkpt>
      <trkpt lat="45.00925" lon="0.73752">
        <ele>184.23</ele>
        <time>2017-08-23T14:49:51Z</time>
      </trkpt>
      <trkpt lat="45.00909" lon="0.7376">
        <ele>184.71</ele>
        <time>2017-08-23T14:50:06Z</time>
      </trkpt>
      <trkpt lat="45.00893" lon="0.73766">
        <ele>184.71</ele>
        <time>2017-08-23T14:50:20Z</time>
      </trkpt>
      <trkpt lat="45.00882" lon="0.73771">
        <ele>185.67</ele>
        <time>2017-08-23T14:50:32Z</time>
      </trkpt>
      <trkpt lat="45.0088" lon="0.73773">
        <ele>186.15</ele>
        <time>2017-08-23T14:50:35Z</time>
      </trkpt>
      <trkpt lat="45.00879" lon="0.73775">
        <ele>186.15</ele>
        <time>2017-08-23T14:50:37Z</time>
      </trkpt>
      <trkpt lat="45.00876" lon="0.73783">
        <ele>186.63</ele>
        <time>2017-08-23T14:50:45Z</time>
      </trkpt>
      <trkpt lat="45.00875" lon="0.73801">
        <ele>186.63</ele>
        <time>2017-08-23T14:50:58Z</time>
      </trkpt>
      <trkpt lat="45.00875" lon="0.7382">
        <ele>187.11</ele>
        <time>2017-08-23T14:51:13Z</time>
      </trkpt>
      <trkpt lat="45.0087" lon="0.7384">
        <ele>187.11</ele>
        <time>2017-08-23T14:51:26Z</time>
      </trkpt>
      <trkpt lat="45.00866" lon="0.73863">
        <ele>187.11</ele>
        <time>2017-08-23T14:51:40Z</time>
      </trkpt>
      <trkpt lat="45.00865" lon="0.73867">
        <ele>188.08</ele>
        <time>2017-08-23T14:51:42Z</time>
      </trkpt>
      <trkpt lat="45.00861" lon="0.73885">
        <ele>187.11</ele>
        <time>2017-08-23T14:51:53Z</time>
      </trkpt>
      <trkpt lat="45.0086" lon="0.73891">
        <ele>187.59</ele>
        <time>2017-08-23T14:51:57Z</time>
      </trkpt>
      <trkpt lat="45.00858" lon="0.73898">
        <ele>187.59</ele>
        <time>2017-08-23T14:52:01Z</time>
      </trkpt>
      <trkpt lat="45.00857" lon="0.73907">
        <ele>187.11</ele>
        <time>2017-08-23T14:52:07Z</time>
      </trkpt>
      <trkpt lat="45.00853" lon="0.73928">
        <ele>187.11</ele>
        <time>2017-08-23T14:52:22Z</time>
      </trkpt>
      <trkpt lat="45.00852" lon="0.73931">
        <ele>187.11</ele>
        <time>2017-08-23T14:52:25Z</time>
      </trkpt>
      <trkpt lat="45.00851" lon="0.73942">
        <ele>187.59</ele>
        <time>2017-08-23T14:52:33Z</time>
      </trkpt>
      <trkpt lat="45.00849" lon="0.73951">
        <ele>187.59</ele>
        <time>2017-08-23T14:52:39Z</time>
      </trkpt>
      <trkpt lat="45.00848" lon="0.7396">
        <ele>187.59</ele>
        <time>2017-08-23T14:52:46Z</time>
      </trkpt>
      <trkpt lat="45.00849" lon="0.73969">
        <ele>187.59</ele>
        <time>2017-08-23T14:52:51Z</time>
      </trkpt>
      <trkpt lat="45.00851" lon="0.73991">
        <ele>187.59</ele>
        <time>2017-08-23T14:53:04Z</time>
      </trkpt>
      <trkpt lat="45.00853" lon="0.74008">
        <ele>187.59</ele>
        <time>2017-08-23T14:53:15Z</time>
      </trkpt>
      <trkpt lat="45.00856" lon="0.74023">
        <ele>187.59</ele>
        <time>2017-08-23T14:53:28Z</time>
      </trkpt>
      <trkpt lat="45.00856" lon="0.74028">
        <ele>188.08</ele>
        <time>2017-08-23T14:53:38Z</time>
      </trkpt>
      <trkpt lat="45.00855" lon="0.74036">
        <ele>188.08</ele>
        <time>2017-08-23T14:53:55Z</time>
      </trkpt>
      <trkpt lat="45.00853" lon="0.74042">
        <ele>188.08</ele>
        <time>2017-08-23T14:54:28Z</time>
      </trkpt>
      <trkpt lat="45.00854" lon="0.74042">
        <ele>188.56</ele>
        <time>2017-08-23T14:54:49Z</time>
      </trkpt>
      <trkpt lat="45.00855" lon="0.74041">
        <ele>189.04</ele>
        <time>2017-08-23T14:55:10Z</time>
      </trkpt>
      <trkpt lat="45.00855" lon="0.74041">
        <ele>189.04</ele>
        <time>2017-08-23T14:55:11Z</time>
      </trkpt>
      <trkpt lat="45.00855" lon="0.74041">
        <ele>188.08</ele>
        <time>2017-08-23T14:55:40Z</time>
      </trkpt>
      <trkpt lat="45.00851" lon="0.74041">
        <ele>188.08</ele>
        <time>2017-08-23T14:55:56Z</time>
      </trkpt>
      <trkpt lat="45.0085" lon="0.74041">
        <ele>189.04</ele>
        <time>2017-08-23T14:56:18Z</time>
      </trkpt>
      <trkpt lat="45.0085" lon="0.74041">
        <ele>188.56</ele>
        <time>2017-08-23T14:56:20Z</time>
      </trkpt>
      <trkpt lat="45.0085" lon="0.74041">
        <ele>188.08</ele>
        <time>2017-08-23T14:56:39Z</time>
      </trkpt>
      <trkpt lat="45.00848" lon="0.74041">
        <ele>188.08</ele>
        <time>2017-08-23T14:56:42Z</time>
      </trkpt>
      <trkpt lat="45.00831" lon="0.74036">
        <ele>188.08</ele>
        <time>2017-08-23T14:56:56Z</time>
      </trkpt>
      <trkpt lat="45.00819" lon="0.74032">
        <ele>187.59</ele>
        <time>2017-08-23T14:57:07Z</time>
      </trkpt>
      <trkpt lat="45.00816" lon="0.74031">
        <ele>187.59</ele>
        <time>2017-08-23T14:57:10Z</time>
      </trkpt>
      <trkpt lat="45.00812" lon="0.74032">
        <ele>187.59</ele>
        <time>2017-08-23T14:57:13Z</time>
      </trkpt>
      <trkpt lat="45.00806" lon="0.7403">
        <ele>187.11</ele>
        <time>2017-08-23T14:57:20Z</time>
      </trkpt>
      <trkpt lat="45.00797" lon="0.74029">
        <ele>186.63</ele>
        <time>2017-08-23T14:57:29Z</time>
      </trkpt>
      <trkpt lat="45.00791" lon="0.74028">
        <ele>186.15</ele>
        <time>2017-08-23T14:57:34Z</time>
      </trkpt>
      <trkpt lat="45.00785" lon="0.74027">
        <ele>185.19</ele>
        <time>2017-08-23T14:57:44Z</time>
      </trkpt>
      <trkpt lat="45.00772" lon="0.74023">
        <ele>184.71</ele>
        <time>2017-08-23T14:57:55Z</time>
      </trkpt>
      <trkpt lat="45.00767" lon="0.74026">
        <ele>184.23</ele>
        <time>2017-08-23T14:58:08Z</time>
      </trkpt>
      <trkpt lat="45.00763" lon="0.74025">
        <ele>183.75</ele>
        <time>2017-08-23T14:58:19Z</time>
      </trkpt>
      <trkpt lat="45.00747" lon="0.7403">
        <ele>181.83</ele>
        <time>2017-08-23T14:58:34Z</time>
      </trkpt>
      <trkpt lat="45.00737" lon="0.74033">
        <ele>180.87</ele>
        <time>2017-08-23T14:58:44Z</time>
      </trkpt>
      <trkpt lat="45.00728" lon="0.74043">
        <ele>180.38</ele>
        <time>2017-08-23T14:58:55Z</time>
      </trkpt>
      <trkpt lat="45.00725" lon="0.74046">
        <ele>179.9</ele>
        <time>2017-08-23T14:58:58Z</time>
      </trkpt>
      <trkpt lat="45.00711" lon="0.74059">
        <ele>178.94</ele>
        <time>2017-08-23T14:59:14Z</time>
      </trkpt>
      <trkpt lat="45.00696" lon="0.74071">
        <ele>177.5</ele>
        <time>2017-08-23T14:59:30Z</time>
      </trkpt>
      <trkpt lat="45.00687" lon="0.74075">
        <ele>177.02</ele>
        <time>2017-08-23T14:59:39Z</time>
      </trkpt>
      <trkpt lat="45.00671" lon="0.74078">
        <ele>175.58</ele>
        <time>2017-08-23T14:59:56Z</time>
      </trkpt>
      <trkpt lat="45.00668" lon="0.74075">
        <ele>175.58</ele>
        <time>2017-08-23T15:00:00Z</time>
      </trkpt>
      <trkpt lat="45.00659" lon="0.74073">
        <ele>174.62</ele>
        <time>2017-08-23T15:00:08Z</time>
      </trkpt>
      <trkpt lat="45.00657" lon="0.74071">
        <ele>174.62</ele>
        <time>2017-08-23T15:00:10Z</time>
      </trkpt>
      <trkpt lat="45.00642" lon="0.74061">
        <ele>173.17</ele>
        <time>2017-08-23T15:00:27Z</time>
      </trkpt>
      <trkpt lat="45.00634" lon="0.74054">
        <ele>172.21</ele>
        <time>2017-08-23T15:00:38Z</time>
      </trkpt>
      <trkpt lat="45.00627" lon="0.74044">
        <ele>171.73</ele>
        <time>2017-08-23T15:00:50Z</time>
      </trkpt>
      <trkpt lat="45.00625" lon="0.74038">
        <ele>171.25</ele>
        <time>2017-08-23T15:00:56Z</time>
      </trkpt>
      <trkpt lat="45.00619" lon="0.74028">
        <ele>170.29</ele>
        <time>2017-08-23T15:01:09Z</time>
      </trkpt>
      <trkpt lat="45.00619" lon="0.74026">
        <ele>169.81</ele>
        <time>2017-08-23T15:01:10Z</time>
      </trkpt>
      <trkpt lat="45.00615" lon="0.7401">
        <ele>168.37</ele>
        <time>2017-08-23T15:01:22Z</time>
      </trkpt>
      <trkpt lat="45.00613" lon="0.73994">
        <ele>166.93</ele>
        <time>2017-08-23T15:01:34Z</time>
      </trkpt>
      <trkpt lat="45.00611" lon="0.73973">
        <ele>165.48</ele>
        <time>2017-08-23T15:01:48Z</time>
      </trkpt>
      <trkpt lat="45.0061" lon="0.73962">
        <ele>164.04</ele>
        <time>2017-08-23T15:01:57Z</time>
      </trkpt>
      <trkpt lat="45.00609" lon="0.73958">
        <ele>164.04</ele>
        <time>2017-08-23T15:02:00Z</time>
      </trkpt>
      <trkpt lat="45.00609" lon="0.73947">
        <ele>163.08</ele>
        <time>2017-08-23T15:02:08Z</time>
      </trkpt>
      <trkpt lat="45.00608" lon="0.73944">
        <ele>162.6</ele>
        <time>2017-08-23T15:02:10Z</time>
      </trkpt>
      <trkpt lat="45.00609" lon="0.7394">
        <ele>162.6</ele>
        <time>2017-08-23T15:02:14Z</time>
      </trkpt>
      <trkpt lat="45.00609" lon="0.73936">
        <ele>162.12</ele>
        <time>2017-08-23T15:02:17Z</time>
      </trkpt>
      <trkpt lat="45.00609" lon="0.73929">
        <ele>162.12</ele>
        <time>2017-08-23T15:02:21Z</time>
      </trkpt>
      <trkpt lat="45.00611" lon="0.7391">
        <ele>161.16</ele>
        <time>2017-08-23T15:02:34Z</time>
      </trkpt>
      <trkpt lat="45.00611" lon="0.73901">
        <ele>160.68</ele>
        <time>2017-08-23T15:02:39Z</time>
      </trkpt>
      <trkpt lat="45.00614" lon="0.73894">
        <ele>160.68</ele>
        <time>2017-08-23T15:02:44Z</time>
      </trkpt>
      <trkpt lat="45.00614" lon="0.73885">
        <ele>160.2</ele>
        <time>2017-08-23T15:02:50Z</time>
      </trkpt>
      <trkpt lat="45.00615" lon="0.73879">
        <ele>160.2</ele>
        <time>2017-08-23T15:02:54Z</time>
      </trkpt>
      <trkpt lat="45.00617" lon="0.73868">
        <ele>159.72</ele>
        <time>2017-08-23T15:03:01Z</time>
      </trkpt>
      <trkpt lat="45.00617" lon="0.73863">
        <ele>159.72</ele>
        <time>2017-08-23T15:03:05Z</time>
      </trkpt>
      <trkpt lat="45.0062" lon="0.73844">
        <ele>159.24</ele>
        <time>2017-08-23T15:03:19Z</time>
      </trkpt>
      <trkpt lat="45.00622" lon="0.73832">
        <ele>158.75</ele>
        <time>2017-08-23T15:03:33Z</time>
      </trkpt>
      <trkpt lat="45.00622" lon="0.73832">
        <ele>159.24</ele>
        <time>2017-08-23T15:04:05Z</time>
      </trkpt>
      <trkpt lat="45.00622" lon="0.73827">
        <ele>158.75</ele>
        <time>2017-08-23T15:04:25Z</time>
      </trkpt>
      <trkpt lat="45.00623" lon="0.73818">
        <ele>158.27</ele>
        <time>2017-08-23T15:04:34Z</time>
      </trkpt>
      <trkpt lat="45.00623" lon="0.73802">
        <ele>157.79</ele>
        <time>2017-08-23T15:04:46Z</time>
      </trkpt>
      <trkpt lat="45.00622" lon="0.73792">
        <ele>157.79</ele>
        <time>2017-08-23T15:04:51Z</time>
      </trkpt>
      <trkpt lat="45.00617" lon="0.7377">
        <ele>157.31</ele>
        <time>2017-08-23T15:05:05Z</time>
      </trkpt>
      <trkpt lat="45.00606" lon="0.73758">
        <ele>156.83</ele>
        <time>2017-08-23T15:05:18Z</time>
      </trkpt>
      <trkpt lat="45.006" lon="0.73751">
        <ele>156.83</ele>
        <time>2017-08-23T15:05:25Z</time>
      </trkpt>
      <trkpt lat="45.00596" lon="0.73746">
        <ele>156.83</ele>
        <time>2017-08-23T15:05:29Z</time>
      </trkpt>
      <trkpt lat="45.00588" lon="0.73737">
        <ele>157.31</ele>
        <time>2017-08-23T15:05:38Z</time>
      </trkpt>
      <trkpt lat="45.00577" lon="0.73727">
        <ele>157.79</ele>
        <time>2017-08-23T15:05:49Z</time>
      </trkpt>
      <trkpt lat="45.00575" lon="0.73724">
        <ele>157.79</ele>
        <time>2017-08-23T15:05:52Z</time>
      </trkpt>
      <trkpt lat="45.00564" lon="0.7371">
        <ele>159.72</ele>
        <time>2017-08-23T15:06:08Z</time>
      </trkpt>
      <trkpt lat="45.00563" lon="0.73708">
        <ele>160.2</ele>
        <time>2017-08-23T15:06:10Z</time>
      </trkpt>
      <trkpt lat="45.00561" lon="0.73706">
        <ele>160.2</ele>
        <time>2017-08-23T15:06:12Z</time>
      </trkpt>
      <trkpt lat="45.00552" lon="0.73698">
        <ele>161.64</ele>
        <time>2017-08-23T15:06:25Z</time>
      </trkpt>
      <trkpt lat="45.00549" lon="0.73697">
        <ele>161.64</ele>
        <time>2017-08-23T15:06:28Z</time>
      </trkpt>
      <trkpt lat="45.00543" lon="0.73694">
        <ele>162.6</ele>
        <time>2017-08-23T15:06:36Z</time>
      </trkpt>
      <trkpt lat="45.00538" lon="0.73691">
        <ele>163.08</ele>
        <time>2017-08-23T15:06:39Z</time>
      </trkpt>
      <trkpt lat="45.00537" lon="0.7369">
        <ele>163.08</ele>
        <time>2017-08-23T15:06:41Z</time>
      </trkpt>
      <trkpt lat="45.00533" lon="0.73688">
        <ele>163.56</ele>
        <time>2017-08-23T15:06:45Z</time>
      </trkpt>
      <trkpt lat="45.0053" lon="0.73687">
        <ele>163.56</ele>
        <time>2017-08-23T15:06:47Z</time>
      </trkpt>
      <trkpt lat="45.00525" lon="0.73684">
        <ele>164.04</ele>
        <time>2017-08-23T15:06:52Z</time>
      </trkpt>
      <trkpt lat="45.00523" lon="0.73682">
        <ele>164.04</ele>
        <time>2017-08-23T15:06:54Z</time>
      </trkpt>
      <trkpt lat="45.00515" lon="0.73684">
        <ele>164.52</ele>
        <time>2017-08-23T15:07:06Z</time>
      </trkpt>
      <trkpt lat="45.00508" lon="0.73679">
        <ele>164.52</ele>
        <time>2017-08-23T15:07:13Z</time>
      </trkpt>
      <trkpt lat="45.00501" lon="0.73675">
        <ele>164.52</ele>
        <time>2017-08-23T15:07:19Z</time>
      </trkpt>
      <trkpt lat="45.00494" lon="0.7367">
        <ele>165</ele>
        <time>2017-08-23T15:07:25Z</time>
      </trkpt>
      <trkpt lat="45.00491" lon="0.73669">
        <ele>165</ele>
        <time>2017-08-23T15:07:28Z</time>
      </trkpt>
      <trkpt lat="45.00488" lon="0.73668">
        <ele>165</ele>
        <time>2017-08-23T15:07:31Z</time>
      </trkpt>
      <trkpt lat="45.00475" lon="0.73659">
        <ele>166.93</ele>
        <time>2017-08-23T15:07:44Z</time>
      </trkpt>
      <trkpt lat="45.00467" lon="0.73651">
        <ele>166.93</ele>
        <time>2017-08-23T15:07:54Z</time>
      </trkpt>
      <trkpt lat="45.00462" lon="0.73647">
        <ele>167.89</ele>
        <time>2017-08-23T15:08:00Z</time>
      </trkpt>
      <trkpt lat="45.00454" lon="0.73644">
        <ele>168.37</ele>
        <time>2017-08-23T15:08:13Z</time>
      </trkpt>
      <trkpt lat="45.00455" lon="0.73645">
        <ele>168.85</ele>
        <time>2017-08-23T15:08:43Z</time>
      </trkpt>
      <trkpt lat="45.00453" lon="0.73644">
        <ele>168.85</ele>
        <time>2017-08-23T15:08:54Z</time>
      </trkpt>
      <trkpt lat="45.00448" lon="0.73641">
        <ele>169.81</ele>
        <time>2017-08-23T15:09:00Z</time>
      </trkpt>
      <trkpt lat="45.00435" lon="0.73634">
        <ele>170.29</ele>
        <time>2017-08-23T15:09:13Z</time>
      </trkpt>
      <trkpt lat="45.00433" lon="0.73633">
        <ele>170.77</ele>
        <time>2017-08-23T15:09:18Z</time>
      </trkpt>
      <trkpt lat="45.00418" lon="0.73622">
        <ele>171.73</ele>
        <time>2017-08-23T15:09:32Z</time>
      </trkpt>
      <trkpt lat="45.00409" lon="0.73614">
        <ele>171.73</ele>
        <time>2017-08-23T15:09:41Z</time>
      </trkpt>
      <trkpt lat="45.00402" lon="0.73609">
        <ele>171.73</ele>
        <time>2017-08-23T15:09:46Z</time>
      </trkpt>
      <trkpt lat="45.0039" lon="0.73599">
        <ele>172.21</ele>
        <time>2017-08-23T15:10:00Z</time>
      </trkpt>
      <trkpt lat="45.00387" lon="0.73596">
        <ele>172.21</ele>
        <time>2017-08-23T15:10:06Z</time>
      </trkpt>
      <trkpt lat="45.00377" lon="0.73589">
        <ele>171.73</ele>
        <time>2017-08-23T15:10:15Z</time>
      </trkpt>
      <trkpt lat="45.00374" lon="0.73588">
        <ele>171.73</ele>
        <time>2017-08-23T15:10:18Z</time>
      </trkpt>
      <trkpt lat="45.00369" lon="0.73584">
        <ele>171.73</ele>
        <time>2017-08-23T15:10:24Z</time>
      </trkpt>
      <trkpt lat="45.00354" lon="0.73574">
        <ele>172.21</ele>
        <time>2017-08-23T15:10:39Z</time>
      </trkpt>
      <trkpt lat="45.0035" lon="0.7357">
        <ele>172.21</ele>
        <time>2017-08-23T15:10:44Z</time>
      </trkpt>
      <trkpt lat="45.00347" lon="0.73567">
        <ele>172.21</ele>
        <time>2017-08-23T15:10:47Z</time>
      </trkpt>
      <trkpt lat="45.00343" lon="0.73563">
        <ele>172.69</ele>
        <time>2017-08-23T15:10:52Z</time>
      </trkpt>
      <trkpt lat="45.00339" lon="0.73559">
        <ele>172.69</ele>
        <time>2017-08-23T15:10:57Z</time>
      </trkpt>
      <trkpt lat="45.00329" lon="0.73549">
        <ele>173.66</ele>
        <time>2017-08-23T15:11:10Z</time>
      </trkpt>
      <trkpt lat="45.00321" lon="0.73542">
        <ele>174.62</ele>
        <time>2017-08-23T15:11:20Z</time>
      </trkpt>
      <trkpt lat="45.00319" lon="0.73541">
        <ele>174.62</ele>
        <time>2017-08-23T15:11:22Z</time>
      </trkpt>
      <trkpt lat="45.00311" lon="0.73536">
        <ele>175.58</ele>
        <time>2017-08-23T15:11:36Z</time>
      </trkpt>
      <trkpt lat="45.00305" lon="0.73532">
        <ele>176.06</ele>
        <time>2017-08-23T15:11:42Z</time>
      </trkpt>
      <trkpt lat="45.00288" lon="0.73518">
        <ele>176.54</ele>
        <time>2017-08-23T15:11:54Z</time>
      </trkpt>
      <trkpt lat="45.00279" lon="0.7351">
        <ele>177.5</ele>
        <time>2017-08-23T15:12:04Z</time>
      </trkpt>
      <trkpt lat="45.00273" lon="0.73504">
        <ele>177.5</ele>
        <time>2017-08-23T15:12:10Z</time>
      </trkpt>
      <trkpt lat="45.00265" lon="0.73499">
        <ele>177.5</ele>
        <time>2017-08-23T15:12:17Z</time>
      </trkpt>
      <trkpt lat="45.00256" lon="0.73494">
        <ele>177.98</ele>
        <time>2017-08-23T15:12:28Z</time>
      </trkpt>
      <trkpt lat="45.00246" lon="0.7349">
        <ele>177.98</ele>
        <time>2017-08-23T15:12:40Z</time>
      </trkpt>
      <trkpt lat="45.00233" lon="0.73483">
        <ele>178.46</ele>
        <time>2017-08-23T15:12:54Z</time>
      </trkpt>
      <trkpt lat="45.00227" lon="0.73485">
        <ele>178.46</ele>
        <time>2017-08-23T15:13:06Z</time>
      </trkpt>
      <trkpt lat="45.00223" lon="0.73483">
        <ele>178.46</ele>
        <time>2017-08-23T15:13:20Z</time>
      </trkpt>
      <trkpt lat="45.00221" lon="0.73486">
        <ele>178.46</ele>
        <time>2017-08-23T15:13:42Z</time>
      </trkpt>
      <trkpt lat="45.0022" lon="0.73486">
        <ele>178.46</ele>
        <time>2017-08-23T15:14:01Z</time>
      </trkpt>
      <trkpt lat="45.00216" lon="0.73483">
        <ele>178.46</ele>
        <time>2017-08-23T15:14:23Z</time>
      </trkpt>
      <trkpt lat="45.00216" lon="0.73482">
        <ele>178.46</ele>
        <time>2017-08-23T15:14:50Z</time>
      </trkpt>
      <trkpt lat="45.00215" lon="0.7348">
        <ele>178.46</ele>
        <time>2017-08-23T15:14:56Z</time>
      </trkpt>
      <trkpt lat="45.00214" lon="0.73477">
        <ele>177.98</ele>
        <time>2017-08-23T15:15:12Z</time>
      </trkpt>
      <trkpt lat="45.00216" lon="0.73479">
        <ele>177.98</ele>
        <time>2017-08-23T15:15:45Z</time>
      </trkpt>
      <trkpt lat="45.00216" lon="0.73479">
        <ele>177.98</ele>
        <time>2017-08-23T15:16:17Z</time>
      </trkpt>
      <trkpt lat="45.00215" lon="0.73479">
        <ele>177.98</ele>
        <time>2017-08-23T15:16:42Z</time>
      </trkpt>
      <trkpt lat="45.00215" lon="0.73479">
        <ele>178.46</ele>
        <time>2017-08-23T15:17:05Z</time>
      </trkpt>
      <trkpt lat="45.00219" lon="0.73475">
        <ele>178.46</ele>
        <time>2017-08-23T15:17:19Z</time>
      </trkpt>
      <trkpt lat="45.00224" lon="0.73469">
        <ele>178.46</ele>
        <time>2017-08-23T15:17:26Z</time>
      </trkpt>
      <trkpt lat="45.00229" lon="0.73451">
        <ele>177.98</ele>
        <time>2017-08-23T15:17:39Z</time>
      </trkpt>
      <trkpt lat="45.0023" lon="0.73449">
        <ele>177.98</ele>
        <time>2017-08-23T15:17:41Z</time>
      </trkpt>
      <trkpt lat="45.00235" lon="0.73441">
        <ele>177.5</ele>
        <time>2017-08-23T15:17:47Z</time>
      </trkpt>
      <trkpt lat="45.00244" lon="0.73416">
        <ele>177.02</ele>
        <time>2017-08-23T15:18:03Z</time>
      </trkpt>
      <trkpt lat="45.00249" lon="0.734">
        <ele>176.54</ele>
        <time>2017-08-23T15:18:14Z</time>
      </trkpt>
      <trkpt lat="45.00252" lon="0.73387">
        <ele>176.54</ele>
        <time>2017-08-23T15:18:23Z</time>
      </trkpt>
      <trkpt lat="45.00257" lon="0.73369">
        <ele>174.62</ele>
        <time>2017-08-23T15:18:36Z</time>
      </trkpt>
      <trkpt lat="45.0026" lon="0.73351">
        <ele>173.66</ele>
        <time>2017-08-23T15:18:49Z</time>
      </trkpt>
      <trkpt lat="45.00262" lon="0.7334">
        <ele>173.66</ele>
        <time>2017-08-23T15:18:56Z</time>
      </trkpt>
      <trkpt lat="45.00269" lon="0.7332">
        <ele>173.66</ele>
        <time>2017-08-23T15:19:10Z</time>
      </trkpt>
      <trkpt lat="45.00271" lon="0.73315">
        <ele>173.17</ele>
        <time>2017-08-23T15:19:16Z</time>
      </trkpt>
      <trkpt lat="45.00272" lon="0.73308">
        <ele>173.17</ele>
        <time>2017-08-23T15:19:28Z</time>
      </trkpt>
      <trkpt lat="45.00277" lon="0.73299">
        <ele>173.17</ele>
        <time>2017-08-23T15:19:39Z</time>
      </trkpt>
      <trkpt lat="45.00279" lon="0.73295">
        <ele>173.17</ele>
        <time>2017-08-23T15:19:42Z</time>
      </trkpt>
      <trkpt lat="45.00288" lon="0.73278">
        <ele>173.17</ele>
        <time>2017-08-23T15:19:56Z</time>
      </trkpt>
      <trkpt lat="45.00292" lon="0.73271">
        <ele>173.17</ele>
        <time>2017-08-23T15:20:01Z</time>
      </trkpt>
      <trkpt lat="45.00297" lon="0.7326">
        <ele>173.17</ele>
        <time>2017-08-23T15:20:07Z</time>
      </trkpt>
      <trkpt lat="45.00302" lon="0.7325">
        <ele>173.66</ele>
        <time>2017-08-23T15:20:16Z</time>
      </trkpt>
      <trkpt lat="45.0031" lon="0.73234">
        <ele>174.14</ele>
        <time>2017-08-23T15:20:28Z</time>
      </trkpt>
      <trkpt lat="45.00315" lon="0.73223">
        <ele>174.14</ele>
        <time>2017-08-23T15:20:36Z</time>
      </trkpt>
      <trkpt lat="45.00322" lon="0.73209">
        <ele>174.62</ele>
        <time>2017-08-23T15:20:45Z</time>
      </trkpt>
      <trkpt lat="45.00325" lon="0.73202">
        <ele>175.1</ele>
        <time>2017-08-23T15:20:50Z</time>
      </trkpt>
      <trkpt lat="45.00336" lon="0.73183">
        <ele>175.1</ele>
        <time>2017-08-23T15:21:04Z</time>
      </trkpt>
      <trkpt lat="45.00344" lon="0.73161">
        <ele>175.58</ele>
        <time>2017-08-23T15:21:18Z</time>
      </trkpt>
      <trkpt lat="45.00346" lon="0.7314">
        <ele>175.58</ele>
        <time>2017-08-23T15:21:31Z</time>
      </trkpt>
      <trkpt lat="45.00348" lon="0.73118">
        <ele>175.58</ele>
        <time>2017-08-23T15:21:45Z</time>
      </trkpt>
      <trkpt lat="45.00349" lon="0.73103">
        <ele>175.1</ele>
        <time>2017-08-23T15:21:55Z</time>
      </trkpt>
      <trkpt lat="45.00349" lon="0.73097">
        <ele>175.1</ele>
        <time>2017-08-23T15:21:58Z</time>
      </trkpt>
      <trkpt lat="45.00349" lon="0.73092">
        <ele>175.1</ele>
        <time>2017-08-23T15:22:01Z</time>
      </trkpt>
      <trkpt lat="45.0035" lon="0.73075">
        <ele>175.1</ele>
        <time>2017-08-23T15:22:14Z</time>
      </trkpt>
      <trkpt lat="45.00352" lon="0.73059">
        <ele>175.1</ele>
        <time>2017-08-23T15:22:26Z</time>
      </trkpt>
      <trkpt lat="45.00352" lon="0.73034">
        <ele>175.58</ele>
        <time>2017-08-23T15:22:39Z</time>
      </trkpt>
      <trkpt lat="45.00352" lon="0.7303">
        <ele>175.58</ele>
        <time>2017-08-23T15:22:41Z</time>
      </trkpt>
      <trkpt lat="45.00353" lon="0.73011">
        <ele>175.58</ele>
        <time>2017-08-23T15:22:51Z</time>
      </trkpt>
      <trkpt lat="45.00358" lon="0.72996">
        <ele>175.58</ele>
        <time>2017-08-23T15:23:00Z</time>
      </trkpt>
      <trkpt lat="45.00364" lon="0.72972">
        <ele>176.06</ele>
        <time>2017-08-23T15:23:16Z</time>
      </trkpt>
      <trkpt lat="45.00368" lon="0.72953">
        <ele>176.06</ele>
        <time>2017-08-23T15:23:30Z</time>
      </trkpt>
      <trkpt lat="45.00366" lon="0.72949">
        <ele>176.54</ele>
        <time>2017-08-23T15:23:35Z</time>
      </trkpt>
      <trkpt lat="45.00353" lon="0.72937">
        <ele>176.06</ele>
        <time>2017-08-23T15:23:49Z</time>
      </trkpt>
      <trkpt lat="45.00342" lon="0.72925">
        <ele>176.06</ele>
        <time>2017-08-23T15:24:00Z</time>
      </trkpt>
      <trkpt lat="45.00332" lon="0.72912">
        <ele>175.1</ele>
        <time>2017-08-23T15:24:13Z</time>
      </trkpt>
      <trkpt lat="45.00331" lon="0.72911">
        <ele>175.1</ele>
        <time>2017-08-23T15:24:15Z</time>
      </trkpt>
      <trkpt lat="45.00322" lon="0.72902">
        <ele>174.14</ele>
        <time>2017-08-23T15:24:28Z</time>
      </trkpt>
      <trkpt lat="45.00321" lon="0.729">
        <ele>174.14</ele>
        <time>2017-08-23T15:24:29Z</time>
      </trkpt>
      <trkpt lat="45.00319" lon="0.72897">
        <ele>173.66</ele>
        <time>2017-08-23T15:24:33Z</time>
      </trkpt>
      <trkpt lat="45.00317" lon="0.72894">
        <ele>173.17</ele>
        <time>2017-08-23T15:24:37Z</time>
      </trkpt>
      <trkpt lat="45.00309" lon="0.72878">
        <ele>171.73</ele>
        <time>2017-08-23T15:24:52Z</time>
      </trkpt>
      <trkpt lat="45.00304" lon="0.72863">
        <ele>170.29</ele>
        <time>2017-08-23T15:25:05Z</time>
      </trkpt>
      <trkpt lat="45.00299" lon="0.72854">
        <ele>169.33</ele>
        <time>2017-08-23T15:25:16Z</time>
      </trkpt>
      <trkpt lat="45.00294" lon="0.72854">
        <ele>167.89</ele>
        <time>2017-08-23T15:25:27Z</time>
      </trkpt>
      <trkpt lat="45.00291" lon="0.72852">
        <ele>167.89</ele>
        <time>2017-08-23T15:25:30Z</time>
      </trkpt>
      <trkpt lat="45.00279" lon="0.72849">
        <ele>166.93</ele>
        <time>2017-08-23T15:25:44Z</time>
      </trkpt>
      <trkpt lat="45.0027" lon="0.72844">
        <ele>165.96</ele>
        <time>2017-08-23T15:25:55Z</time>
      </trkpt>
      <trkpt lat="45.00263" lon="0.72839">
        <ele>165</ele>
        <time>2017-08-23T15:26:07Z</time>
      </trkpt>
      <trkpt lat="45.00256" lon="0.72835">
        <ele>164.52</ele>
        <time>2017-08-23T15:26:22Z</time>
      </trkpt>
      <trkpt lat="45.00251" lon="0.7283">
        <ele>164.52</ele>
        <time>2017-08-23T15:26:48Z</time>
      </trkpt>
      <trkpt lat="45.00245" lon="0.72827">
        <ele>163.56</ele>
        <time>2017-08-23T15:26:59Z</time>
      </trkpt>
      <trkpt lat="45.00241" lon="0.72823">
        <ele>162.12</ele>
        <time>2017-08-23T15:27:11Z</time>
      </trkpt>
      <trkpt lat="45.00228" lon="0.72815">
        <ele>160.68</ele>
        <time>2017-08-23T15:27:26Z</time>
      </trkpt>
      <trkpt lat="45.00211" lon="0.72805">
        <ele>159.72</ele>
        <time>2017-08-23T15:27:39Z</time>
      </trkpt>
      <trkpt lat="45.00198" lon="0.728">
        <ele>158.75</ele>
        <time>2017-08-23T15:27:52Z</time>
      </trkpt>
      <trkpt lat="45.00183" lon="0.72795">
        <ele>157.31</ele>
        <time>2017-08-23T15:28:04Z</time>
      </trkpt>
      <trkpt lat="45.00177" lon="0.72795">
        <ele>156.83</ele>
        <time>2017-08-23T15:28:10Z</time>
      </trkpt>
      <trkpt lat="45.0017" lon="0.72799">
        <ele>156.35</ele>
        <time>2017-08-23T15:28:17Z</time>
      </trkpt>
      <trkpt lat="45.00157" lon="0.72802">
        <ele>155.87</ele>
        <time>2017-08-23T15:28:31Z</time>
      </trkpt>
      <trkpt lat="45.00148" lon="0.72807">
        <ele>155.87</ele>
        <time>2017-08-23T15:28:48Z</time>
      </trkpt>
      <trkpt lat="45.00136" lon="0.72822">
        <ele>155.39</ele>
        <time>2017-08-23T15:29:01Z</time>
      </trkpt>
      <trkpt lat="45.00129" lon="0.72833">
        <ele>155.39</ele>
        <time>2017-08-23T15:29:10Z</time>
      </trkpt>
      <trkpt lat="45.00127" lon="0.72838">
        <ele>155.39</ele>
        <time>2017-08-23T15:29:13Z</time>
      </trkpt>
      <trkpt lat="45.00123" lon="0.72844">
        <ele>155.39</ele>
        <time>2017-08-23T15:29:19Z</time>
      </trkpt>
      <trkpt lat="45.00121" lon="0.72848">
        <ele>155.39</ele>
        <time>2017-08-23T15:29:22Z</time>
      </trkpt>
      <trkpt lat="45.00112" lon="0.72864">
        <ele>155.39</ele>
        <time>2017-08-23T15:29:34Z</time>
      </trkpt>
      <trkpt lat="45.00107" lon="0.72872">
        <ele>155.39</ele>
        <time>2017-08-23T15:29:41Z</time>
      </trkpt>
      <trkpt lat="45.00106" lon="0.72874">
        <ele>155.39</ele>
        <time>2017-08-23T15:29:43Z</time>
      </trkpt>
      <trkpt lat="45.00104" lon="0.72876">
        <ele>155.39</ele>
        <time>2017-08-23T15:29:46Z</time>
      </trkpt>
      <trkpt lat="45.00095" lon="0.7288">
        <ele>155.87</ele>
        <time>2017-08-23T15:30:01Z</time>
      </trkpt>
      <trkpt lat="45.00087" lon="0.72879">
        <ele>155.87</ele>
        <time>2017-08-23T15:30:09Z</time>
      </trkpt>
      <trkpt lat="45.00085" lon="0.72878">
        <ele>155.87</ele>
        <time>2017-08-23T15:30:12Z</time>
      </trkpt>
      <trkpt lat="45.00082" lon="0.72878">
        <ele>156.35</ele>
        <time>2017-08-23T15:30:15Z</time>
      </trkpt>
      <trkpt lat="45.00067" lon="0.72875">
        <ele>156.83</ele>
        <time>2017-08-23T15:30:31Z</time>
      </trkpt>
      <trkpt lat="45.00065" lon="0.72874">
        <ele>156.83</ele>
        <time>2017-08-23T15:30:33Z</time>
      </trkpt>
      <trkpt lat="45.00053" lon="0.72873">
        <ele>158.27</ele>
        <time>2017-08-23T15:30:46Z</time>
      </trkpt>
      <trkpt lat="45.00046" lon="0.72873">
        <ele>158.75</ele>
        <time>2017-08-23T15:30:54Z</time>
      </trkpt>
      <trkpt lat="45.00033" lon="0.72872">
        <ele>160.2</ele>
        <time>2017-08-23T15:31:07Z</time>
      </trkpt>
      <trkpt lat="45.00022" lon="0.72871">
        <ele>161.16</ele>
        <time>2017-08-23T15:31:21Z</time>
      </trkpt>
      <trkpt lat="45.00018" lon="0.7287">
        <ele>161.64</ele>
        <time>2017-08-23T15:31:35Z</time>
      </trkpt>
      <trkpt lat="45.00017" lon="0.7287">
        <ele>161.64</ele>
        <time>2017-08-23T15:31:48Z</time>
      </trkpt>
      <trkpt lat="45.00004" lon="0.72867">
        <ele>162.12</ele>
        <time>2017-08-23T15:32:01Z</time>
      </trkpt>
      <trkpt lat="45.00001" lon="0.72866">
        <ele>162.6</ele>
        <time>2017-08-23T15:32:04Z</time>
      </trkpt>
      <trkpt lat="44.99989" lon="0.72861">
        <ele>163.08</ele>
        <time>2017-08-23T15:32:14Z</time>
      </trkpt>
      <trkpt lat="44.99982" lon="0.72859">
        <ele>163.56</ele>
        <time>2017-08-23T15:32:20Z</time>
      </trkpt>
      <trkpt lat="44.99969" lon="0.72856">
        <ele>164.52</ele>
        <time>2017-08-23T15:32:33Z</time>
      </trkpt>
      <trkpt lat="44.99954" lon="0.72852">
        <ele>165.96</ele>
        <time>2017-08-23T15:32:48Z</time>
      </trkpt>
      <trkpt lat="44.99947" lon="0.72851">
        <ele>165.96</ele>
        <time>2017-08-23T15:32:55Z</time>
      </trkpt>
      <trkpt lat="44.99943" lon="0.7285">
        <ele>166.45</ele>
        <time>2017-08-23T15:32:58Z</time>
      </trkpt>
      <trkpt lat="44.99937" lon="0.72848">
        <ele>166.93</ele>
        <time>2017-08-23T15:33:06Z</time>
      </trkpt>
      <trkpt lat="44.99932" lon="0.72847">
        <ele>167.41</ele>
        <time>2017-08-23T15:33:11Z</time>
      </trkpt>
      <trkpt lat="44.99929" lon="0.72846">
        <ele>167.89</ele>
        <time>2017-08-23T15:33:14Z</time>
      </trkpt>
      <trkpt lat="44.99917" lon="0.72843">
        <ele>168.85</ele>
        <time>2017-08-23T15:33:27Z</time>
      </trkpt>
      <trkpt lat="44.99908" lon="0.72838">
        <ele>169.81</ele>
        <time>2017-08-23T15:33:36Z</time>
      </trkpt>
      <trkpt lat="44.999" lon="0.72835">
        <ele>170.29</ele>
        <time>2017-08-23T15:33:44Z</time>
      </trkpt>
      <trkpt lat="44.99895" lon="0.72834">
        <ele>170.77</ele>
        <time>2017-08-23T15:33:50Z</time>
      </trkpt>
      <trkpt lat="44.99887" lon="0.72832">
        <ele>170.77</ele>
        <time>2017-08-23T15:33:58Z</time>
      </trkpt>
      <trkpt lat="44.99883" lon="0.72832">
        <ele>171.25</ele>
        <time>2017-08-23T15:34:02Z</time>
      </trkpt>
      <trkpt lat="44.9988" lon="0.72832">
        <ele>171.73</ele>
        <time>2017-08-23T15:34:05Z</time>
      </trkpt>
      <trkpt lat="44.99866" lon="0.7283">
        <ele>172.21</ele>
        <time>2017-08-23T15:34:18Z</time>
      </trkpt>
      <trkpt lat="44.99851" lon="0.72828">
        <ele>173.17</ele>
        <time>2017-08-23T15:34:33Z</time>
      </trkpt>
      <trkpt lat="44.99847" lon="0.72827">
        <ele>173.66</ele>
        <time>2017-08-23T15:34:37Z</time>
      </trkpt>
      <trkpt lat="44.9983" lon="0.72821">
        <ele>174.62</ele>
        <time>2017-08-23T15:34:53Z</time>
      </trkpt>
      <trkpt lat="44.9982" lon="0.72816">
        <ele>175.58</ele>
        <time>2017-08-23T15:35:03Z</time>
      </trkpt>
      <trkpt lat="44.99807" lon="0.72807">
        <ele>177.02</ele>
        <time>2017-08-23T15:35:17Z</time>
      </trkpt>
      <trkpt lat="44.99797" lon="0.728">
        <ele>177.5</ele>
        <time>2017-08-23T15:35:27Z</time>
      </trkpt>
      <trkpt lat="44.99793" lon="0.72795">
        <ele>177.98</ele>
        <time>2017-08-23T15:35:32Z</time>
      </trkpt>
      <trkpt lat="44.9979" lon="0.72792">
        <ele>177.98</ele>
        <time>2017-08-23T15:35:36Z</time>
      </trkpt>
      <trkpt lat="44.99788" lon="0.72787">
        <ele>178.94</ele>
        <time>2017-08-23T15:35:52Z</time>
      </trkpt>
      <trkpt lat="44.99787" lon="0.72788">
        <ele>178.46</ele>
        <time>2017-08-23T15:36:22Z</time>
      </trkpt>
      <trkpt lat="44.99787" lon="0.72788">
        <ele>178.94</ele>
        <time>2017-08-23T15:36:40Z</time>
      </trkpt>
      <trkpt lat="44.99787" lon="0.72789">
        <ele>178.94</ele>
        <time>2017-08-23T15:37:01Z</time>
      </trkpt>
      <trkpt lat="44.99787" lon="0.72789">
        <ele>178.94</ele>
        <time>2017-08-23T15:37:21Z</time>
      </trkpt>
      <trkpt lat="44.99787" lon="0.7279">
        <ele>178.94</ele>
        <time>2017-08-23T15:37:48Z</time>
      </trkpt>
      <trkpt lat="44.99782" lon="0.7279">
        <ele>178.94</ele>
        <time>2017-08-23T15:38:01Z</time>
      </trkpt>
      <trkpt lat="44.99775" lon="0.72793">
        <ele>178.94</ele>
        <time>2017-08-23T15:38:07Z</time>
      </trkpt>
      <trkpt lat="44.9976" lon="0.72797">
        <ele>179.42</ele>
        <time>2017-08-23T15:38:21Z</time>
      </trkpt>
      <trkpt lat="44.99758" lon="0.72798">
        <ele>179.42</ele>
        <time>2017-08-23T15:38:23Z</time>
      </trkpt>
      <trkpt lat="44.99744" lon="0.72803">
        <ele>179.42</ele>
        <time>2017-08-23T15:38:36Z</time>
      </trkpt>
      <trkpt lat="44.99728" lon="0.72809">
        <ele>179.9</ele>
        <time>2017-08-23T15:38:50Z</time>
      </trkpt>
      <trkpt lat="44.99715" lon="0.72811">
        <ele>180.38</ele>
        <time>2017-08-23T15:39:03Z</time>
      </trkpt>
      <trkpt lat="44.99706" lon="0.72813">
        <ele>180.38</ele>
        <time>2017-08-23T15:39:10Z</time>
      </trkpt>
      <trkpt lat="44.99701" lon="0.72816">
        <ele>180.87</ele>
        <time>2017-08-23T15:39:17Z</time>
      </trkpt>
      <trkpt lat="44.99698" lon="0.72816">
        <ele>180.87</ele>
        <time>2017-08-23T15:39:19Z</time>
      </trkpt>
      <trkpt lat="44.99695" lon="0.72816">
        <ele>180.87</ele>
        <time>2017-08-23T15:39:22Z</time>
      </trkpt>
      <trkpt lat="44.99677" lon="0.72815">
        <ele>181.35</ele>
        <time>2017-08-23T15:39:37Z</time>
      </trkpt>
      <trkpt lat="44.99664" lon="0.72815">
        <ele>181.35</ele>
        <time>2017-08-23T15:39:49Z</time>
      </trkpt>
      <trkpt lat="44.99655" lon="0.72817">
        <ele>181.35</ele>
        <time>2017-08-23T15:39:57Z</time>
      </trkpt>
      <trkpt lat="44.99651" lon="0.72819">
        <ele>181.83</ele>
        <time>2017-08-23T15:40:01Z</time>
      </trkpt>
      <trkpt lat="44.99635" lon="0.72821">
        <ele>181.83</ele>
        <time>2017-08-23T15:40:15Z</time>
      </trkpt>
      <trkpt lat="44.99617" lon="0.72823">
        <ele>182.31</ele>
        <time>2017-08-23T15:40:31Z</time>
      </trkpt>
      <trkpt lat="44.99601" lon="0.72827">
        <ele>182.79</ele>
        <time>2017-08-23T15:40:46Z</time>
      </trkpt>
      <trkpt lat="44.996" lon="0.72827">
        <ele>182.79</ele>
        <time>2017-08-23T15:40:47Z</time>
      </trkpt>
      <trkpt lat="44.99597" lon="0.72828">
        <ele>182.79</ele>
        <time>2017-08-23T15:40:50Z</time>
      </trkpt>
      <trkpt lat="44.99588" lon="0.72829">
        <ele>182.79</ele>
        <time>2017-08-23T15:40:58Z</time>
      </trkpt>
      <trkpt lat="44.99584" lon="0.72831">
        <ele>183.27</ele>
        <time>2017-08-23T15:41:02Z</time>
      </trkpt>
      <trkpt lat="44.99579" lon="0.72832">
        <ele>183.27</ele>
        <time>2017-08-23T15:41:06Z</time>
      </trkpt>
      <trkpt lat="44.99563" lon="0.7284">
        <ele>183.75</ele>
        <time>2017-08-23T15:41:21Z</time>
      </trkpt>
      <trkpt lat="44.9955" lon="0.72843">
        <ele>184.71</ele>
        <time>2017-08-23T15:41:34Z</time>
      </trkpt>
      <trkpt lat="44.99533" lon="0.72843">
        <ele>185.67</ele>
        <time>2017-08-23T15:41:51Z</time>
      </trkpt>
      <trkpt lat="44.99525" lon="0.72844">
        <ele>186.15</ele>
        <time>2017-08-23T15:42:07Z</time>
      </trkpt>
      <trkpt lat="44.99512" lon="0.72851">
        <ele>186.63</ele>
        <time>2017-08-23T15:42:21Z</time>
      </trkpt>
      <trkpt lat="44.99499" lon="0.72853">
        <ele>187.59</ele>
        <time>2017-08-23T15:42:35Z</time>
      </trkpt>
      <trkpt lat="44.99485" lon="0.72858">
        <ele>188.56</ele>
        <time>2017-08-23T15:42:50Z</time>
      </trkpt>
      <trkpt lat="44.99486" lon="0.72858">
        <ele>188.56</ele>
        <time>2017-08-23T15:43:12Z</time>
      </trkpt>
      <trkpt lat="44.99485" lon="0.72858">
        <ele>188.56</ele>
        <time>2017-08-23T15:43:37Z</time>
      </trkpt>
      <trkpt lat="44.99481" lon="0.7286">
        <ele>188.56</ele>
        <time>2017-08-23T15:43:41Z</time>
      </trkpt>
      <trkpt lat="44.99468" lon="0.72866">
        <ele>189.04</ele>
        <time>2017-08-23T15:43:54Z</time>
      </trkpt>
      <trkpt lat="44.99454" lon="0.72871">
        <ele>189.52</ele>
        <time>2017-08-23T15:44:07Z</time>
      </trkpt>
      <trkpt lat="44.99442" lon="0.72878">
        <ele>190</ele>
        <time>2017-08-23T15:44:20Z</time>
      </trkpt>
      <trkpt lat="44.99432" lon="0.72884">
        <ele>190</ele>
        <time>2017-08-23T15:44:31Z</time>
      </trkpt>
      <trkpt lat="44.99429" lon="0.72888">
        <ele>190</ele>
        <time>2017-08-23T15:44:34Z</time>
      </trkpt>
      <trkpt lat="44.9942" lon="0.72891">
        <ele>190.48</ele>
        <time>2017-08-23T15:44:42Z</time>
      </trkpt>
      <trkpt lat="44.99406" lon="0.72902">
        <ele>190.48</ele>
        <time>2017-08-23T15:44:57Z</time>
      </trkpt>
      <trkpt lat="44.99399" lon="0.72907">
        <ele>190.48</ele>
        <time>2017-08-23T15:45:04Z</time>
      </trkpt>
      <trkpt lat="44.99384" lon="0.72922">
        <ele>190.48</ele>
        <time>2017-08-23T15:45:21Z</time>
      </trkpt>
      <trkpt lat="44.99371" lon="0.7293">
        <ele>190.48</ele>
        <time>2017-08-23T15:45:36Z</time>
      </trkpt>
      <trkpt lat="44.99359" lon="0.72936">
        <ele>190.48</ele>
        <time>2017-08-23T15:45:48Z</time>
      </trkpt>
      <trkpt lat="44.99355" lon="0.72937">
        <ele>190.48</ele>
        <time>2017-08-23T15:45:52Z</time>
      </trkpt>
      <trkpt lat="44.99343" lon="0.72946">
        <ele>190.48</ele>
        <time>2017-08-23T15:46:05Z</time>
      </trkpt>
      <trkpt lat="44.99342" lon="0.72947">
        <ele>190.48</ele>
        <time>2017-08-23T15:46:10Z</time>
      </trkpt>
      <trkpt lat="44.99332" lon="0.72957">
        <ele>190.96</ele>
        <time>2017-08-23T15:46:24Z</time>
      </trkpt>
      <trkpt lat="44.99319" lon="0.7297">
        <ele>191.44</ele>
        <time>2017-08-23T15:46:39Z</time>
      </trkpt>
      <trkpt lat="44.99312" lon="0.7298">
        <ele>191.44</ele>
        <time>2017-08-23T15:46:48Z</time>
      </trkpt>
      <trkpt lat="44.99298" lon="0.72994">
        <ele>191.92</ele>
        <time>2017-08-23T15:47:02Z</time>
      </trkpt>
      <trkpt lat="44.99291" lon="0.73005">
        <ele>192.88</ele>
        <time>2017-08-23T15:47:13Z</time>
      </trkpt>
      <trkpt lat="44.99281" lon="0.7302">
        <ele>193.36</ele>
        <time>2017-08-23T15:47:28Z</time>
      </trkpt>
      <trkpt lat="44.99279" lon="0.73024">
        <ele>193.84</ele>
        <time>2017-08-23T15:47:32Z</time>
      </trkpt>
      <trkpt lat="44.99271" lon="0.73037">
        <ele>194.32</ele>
        <time>2017-08-23T15:47:45Z</time>
      </trkpt>
      <trkpt lat="44.99258" lon="0.73059">
        <ele>195.28</ele>
        <time>2017-08-23T15:48:01Z</time>
      </trkpt>
      <trkpt lat="44.99257" lon="0.7306">
        <ele>195.28</ele>
        <time>2017-08-23T15:48:02Z</time>
      </trkpt>
      <trkpt lat="44.99254" lon="0.73065">
        <ele>195.28</ele>
        <time>2017-08-23T15:48:06Z</time>
      </trkpt>
      <trkpt lat="44.99242" lon="0.73084">
        <ele>195.77</ele>
        <time>2017-08-23T15:48:21Z</time>
      </trkpt>
      <trkpt lat="44.99241" lon="0.73087">
        <ele>196.25</ele>
        <time>2017-08-23T15:48:23Z</time>
      </trkpt>
      <trkpt lat="44.99231" lon="0.73108">
        <ele>197.21</ele>
        <time>2017-08-23T15:48:40Z</time>
      </trkpt>
      <trkpt lat="44.9923" lon="0.73109">
        <ele>197.21</ele>
        <time>2017-08-23T15:48:41Z</time>
      </trkpt>
      <trkpt lat="44.99215" lon="0.73109">
        <ele>197.69</ele>
        <time>2017-08-23T15:48:56Z</time>
      </trkpt>
      <trkpt lat="44.99205" lon="0.73111">
        <ele>196.73</ele>
        <time>2017-08-23T15:49:08Z</time>
      </trkpt>
      <trkpt lat="44.99202" lon="0.7311">
        <ele>196.73</ele>
        <time>2017-08-23T15:49:11Z</time>
      </trkpt>
      <trkpt lat="44.99191" lon="0.73109">
        <ele>196.25</ele>
        <time>2017-08-23T15:49:21Z</time>
      </trkpt>
      <trkpt lat="44.99185" lon="0.73109">
        <ele>195.77</ele>
        <time>2017-08-23T15:49:26Z</time>
      </trkpt>
      <trkpt lat="44.99182" lon="0.73109">
        <ele>195.77</ele>
        <time>2017-08-23T15:49:29Z</time>
      </trkpt>
      <trkpt lat="44.99171" lon="0.73108">
        <ele>195.28</ele>
        <time>2017-08-23T15:49:38Z</time>
      </trkpt>
      <trkpt lat="44.99162" lon="0.73108">
        <ele>194.8</ele>
        <time>2017-08-23T15:49:48Z</time>
      </trkpt>
      <trkpt lat="44.99155" lon="0.73107">
        <ele>194.8</ele>
        <time>2017-08-23T15:49:54Z</time>
      </trkpt>
      <trkpt lat="44.99153" lon="0.73107">
        <ele>194.8</ele>
        <time>2017-08-23T15:49:56Z</time>
      </trkpt>
      <trkpt lat="44.99145" lon="0.73106">
        <ele>194.32</ele>
        <time>2017-08-23T15:50:03Z</time>
      </trkpt>
      <trkpt lat="44.99143" lon="0.73108">
        <ele>194.32</ele>
        <time>2017-08-23T15:50:05Z</time>
      </trkpt>
      <trkpt lat="44.99141" lon="0.73108">
        <ele>194.32</ele>
        <time>2017-08-23T15:50:07Z</time>
      </trkpt>
      <trkpt lat="44.99136" lon="0.73106">
        <ele>193.84</ele>
        <time>2017-08-23T15:50:11Z</time>
      </trkpt>
      <trkpt lat="44.99121" lon="0.73108">
        <ele>193.36</ele>
        <time>2017-08-23T15:50:26Z</time>
      </trkpt>
      <trkpt lat="44.99109" lon="0.7311">
        <ele>192.88</ele>
        <time>2017-08-23T15:50:40Z</time>
      </trkpt>
      <trkpt lat="44.991" lon="0.73111">
        <ele>192.88</ele>
        <time>2017-08-23T15:50:53Z</time>
      </trkpt>
      <trkpt lat="44.99099" lon="0.7311">
        <ele>192.88</ele>
        <time>2017-08-23T15:51:11Z</time>
      </trkpt>
      <trkpt lat="44.99098" lon="0.73112">
        <ele>192.88</ele>
        <time>2017-08-23T15:51:34Z</time>
      </trkpt>
      <trkpt lat="44.99098" lon="0.73115">
        <ele>192.4</ele>
        <time>2017-08-23T15:51:47Z</time>
      </trkpt>
      <trkpt lat="44.9911" lon="0.73125">
        <ele>192.88</ele>
        <time>2017-08-23T15:52:01Z</time>
      </trkpt>
      <trkpt lat="44.99122" lon="0.73142">
        <ele>192.4</ele>
        <time>2017-08-23T15:52:15Z</time>
      </trkpt>
      <trkpt lat="44.99133" lon="0.73163">
        <ele>192.4</ele>
        <time>2017-08-23T15:52:30Z</time>
      </trkpt>
      <trkpt lat="44.99135" lon="0.7317">
        <ele>192.4</ele>
        <time>2017-08-23T15:52:34Z</time>
      </trkpt>
      <trkpt lat="44.99145" lon="0.73193">
        <ele>192.88</ele>
        <time>2017-08-23T15:52:50Z</time>
      </trkpt>
      <trkpt lat="44.9915" lon="0.73211">
        <ele>192.4</ele>
        <time>2017-08-23T15:53:02Z</time>
      </trkpt>
      <trkpt lat="44.99148" lon="0.73216">
        <ele>192.4</ele>
        <time>2017-08-23T15:53:07Z</time>
      </trkpt>
      <trkpt lat="44.99139" lon="0.73231">
        <ele>190.48</ele>
        <time>2017-08-23T15:53:24Z</time>
      </trkpt>
      <trkpt lat="44.99121" lon="0.73241">
        <ele>187.59</ele>
        <time>2017-08-23T15:53:43Z</time>
      </trkpt>
      <trkpt lat="44.99109" lon="0.73246">
        <ele>186.15</ele>
        <time>2017-08-23T15:53:57Z</time>
      </trkpt>
      <trkpt lat="44.99102" lon="0.73254">
        <ele>185.19</ele>
        <time>2017-08-23T15:54:08Z</time>
      </trkpt>
      <trkpt lat="44.99093" lon="0.73259">
        <ele>184.71</ele>
        <time>2017-08-23T15:54:16Z</time>
      </trkpt>
      <trkpt lat="44.99081" lon="0.73262">
        <ele>183.75</ele>
        <time>2017-08-23T15:54:26Z</time>
      </trkpt>
      <trkpt lat="44.99074" lon="0.73265">
        <ele>183.75</ele>
        <time>2017-08-23T15:54:32Z</time>
      </trkpt>
      <trkpt lat="44.99058" lon="0.73269">
        <ele>182.79</ele>
        <time>2017-08-23T15:54:45Z</time>
      </trkpt>
      <trkpt lat="44.99054" lon="0.73272">
        <ele>182.79</ele>
        <time>2017-08-23T15:54:49Z</time>
      </trkpt>
      <trkpt lat="44.99042" lon="0.73283">
        <ele>182.31</ele>
        <time>2017-08-23T15:55:03Z</time>
      </trkpt>
      <trkpt lat="44.9904" lon="0.73285">
        <ele>182.31</ele>
        <time>2017-08-23T15:55:05Z</time>
      </trkpt>
      <trkpt lat="44.99037" lon="0.73288">
        <ele>182.31</ele>
        <time>2017-08-23T15:55:09Z</time>
      </trkpt>
      <trkpt lat="44.99025" lon="0.73301">
        <ele>182.31</ele>
        <time>2017-08-23T15:55:22Z</time>
      </trkpt>
      <trkpt lat="44.99014" lon="0.73314">
        <ele>181.83</ele>
        <time>2017-08-23T15:55:35Z</time>
      </trkpt>
      <trkpt lat="44.99008" lon="0.73319">
        <ele>181.83</ele>
        <time>2017-08-23T15:55:42Z</time>
      </trkpt>
      <trkpt lat="44.98997" lon="0.73331">
        <ele>181.35</ele>
        <time>2017-08-23T15:55:55Z</time>
      </trkpt>
      <trkpt lat="44.98986" lon="0.73339">
        <ele>181.83</ele>
        <time>2017-08-23T15:56:07Z</time>
      </trkpt>
      <trkpt lat="44.98982" lon="0.73341">
        <ele>181.35</ele>
        <time>2017-08-23T15:56:12Z</time>
      </trkpt>
      <trkpt lat="44.98973" lon="0.73346">
        <ele>181.35</ele>
        <time>2017-08-23T15:56:22Z</time>
      </trkpt>
      <trkpt lat="44.98965" lon="0.7335">
        <ele>181.35</ele>
        <time>2017-08-23T15:56:30Z</time>
      </trkpt>
      <trkpt lat="44.98946" lon="0.73353">
        <ele>180.87</ele>
        <time>2017-08-23T15:56:46Z</time>
      </trkpt>
      <trkpt lat="44.98932" lon="0.73352">
        <ele>180.87</ele>
        <time>2017-08-23T15:57:03Z</time>
      </trkpt>
      <trkpt lat="44.98927" lon="0.73354">
        <ele>179.9</ele>
        <time>2017-08-23T15:57:17Z</time>
      </trkpt>
      <trkpt lat="44.98923" lon="0.73361">
        <ele>178.46</ele>
        <time>2017-08-23T15:57:32Z</time>
      </trkpt>
      <trkpt lat="44.98919" lon="0.73381">
        <ele>177.02</ele>
        <time>2017-08-23T15:57:48Z</time>
      </trkpt>
      <trkpt lat="44.98916" lon="0.7341">
        <ele>175.58</ele>
        <time>2017-08-23T15:58:04Z</time>
      </trkpt>
      <trkpt lat="44.9892" lon="0.73422">
        <ele>174.14</ele>
        <time>2017-08-23T15:58:19Z</time>
      </trkpt>
      <trkpt lat="44.98915" lon="0.73439">
        <ele>172.69</ele>
        <time>2017-08-23T15:58:35Z</time>
      </trkpt>
      <trkpt lat="44.98907" lon="0.7345">
        <ele>170.77</ele>
        <time>2017-08-23T15:58:50Z</time>
      </trkpt>
      <trkpt lat="44.98901" lon="0.73455">
        <ele>169.81</ele>
        <time>2017-08-23T15:59:06Z</time>
      </trkpt>
      <trkpt lat="44.98894" lon="0.73457">
        <ele>168.85</ele>
        <time>2017-08-23T15:59:20Z</time>
      </trkpt>
      <trkpt lat="44.98887" lon="0.73456">
        <ele>167.41</ele>
        <time>2017-08-23T15:59:33Z</time>
      </trkpt>
      <trkpt lat="44.98878" lon="0.73457">
        <ele>166.45</ele>
        <time>2017-08-23T15:59:47Z</time>
      </trkpt>
      <trkpt lat="44.98868" lon="0.7346">
        <ele>165</ele>
        <time>2017-08-23T15:59:59Z</time>
      </trkpt>
      <trkpt lat="44.98862" lon="0.73458">
        <ele>164.04</ele>
        <time>2017-08-23T16:00:13Z</time>
      </trkpt>
      <trkpt lat="44.98851" lon="0.73451">
        <ele>163.08</ele>
        <time>2017-08-23T16:00:27Z</time>
      </trkpt>
      <trkpt lat="44.98843" lon="0.7345">
        <ele>162.12</ele>
        <time>2017-08-23T16:00:40Z</time>
      </trkpt>
      <trkpt lat="44.9883" lon="0.73448">
        <ele>160.68</ele>
        <time>2017-08-23T16:00:56Z</time>
      </trkpt>
      <trkpt lat="44.98818" lon="0.73449">
        <ele>159.72</ele>
        <time>2017-08-23T16:01:08Z</time>
      </trkpt>
      <trkpt lat="44.98801" lon="0.7345">
        <ele>158.27</ele>
        <time>2017-08-23T16:01:24Z</time>
      </trkpt>
      <trkpt lat="44.9879" lon="0.73447">
        <ele>157.31</ele>
        <time>2017-08-23T16:01:37Z</time>
      </trkpt>
      <trkpt lat="44.98778" lon="0.7345">
        <ele>155.87</ele>
        <time>2017-08-23T16:01:51Z</time>
      </trkpt>
      <trkpt lat="44.98765" lon="0.73453">
        <ele>154.91</ele>
        <time>2017-08-23T16:02:05Z</time>
      </trkpt>
      <trkpt lat="44.98754" lon="0.7346">
        <ele>153.47</ele>
        <time>2017-08-23T16:02:20Z</time>
      </trkpt>
      <trkpt lat="44.98737" lon="0.73463">
        <ele>152.51</ele>
        <time>2017-08-23T16:02:33Z</time>
      </trkpt>
      <trkpt lat="44.98728" lon="0.73467">
        <ele>151.54</ele>
        <time>2017-08-23T16:02:45Z</time>
      </trkpt>
      <trkpt lat="44.98717" lon="0.73475">
        <ele>150.58</ele>
        <time>2017-08-23T16:02:58Z</time>
      </trkpt>
      <trkpt lat="44.98705" lon="0.73487">
        <ele>150.1</ele>
        <time>2017-08-23T16:03:14Z</time>
      </trkpt>
      <trkpt lat="44.98699" lon="0.73497">
        <ele>149.14</ele>
        <time>2017-08-23T16:03:28Z</time>
      </trkpt>
      <trkpt lat="44.9869" lon="0.735">
        <ele>148.18</ele>
        <time>2017-08-23T16:03:35Z</time>
      </trkpt>
      <trkpt lat="44.98682" lon="0.73495">
        <ele>148.18</ele>
        <time>2017-08-23T16:03:39Z</time>
      </trkpt>
      <trkpt lat="44.98673" lon="0.73491">
        <ele>148.18</ele>
        <time>2017-08-23T16:03:45Z</time>
      </trkpt>
      <trkpt lat="44.98663" lon="0.73476">
        <ele>147.7</ele>
        <time>2017-08-23T16:03:56Z</time>
      </trkpt>
      <trkpt lat="44.98659" lon="0.73461">
        <ele>148.18</ele>
        <time>2017-08-23T16:04:09Z</time>
      </trkpt>
      <trkpt lat="44.98652" lon="0.73443">
        <ele>148.66</ele>
        <time>2017-08-23T16:04:23Z</time>
      </trkpt>
      <trkpt lat="44.98645" lon="0.73436">
        <ele>149.14</ele>
        <time>2017-08-23T16:04:38Z</time>
      </trkpt>
      <trkpt lat="44.98633" lon="0.73426">
        <ele>148.66</ele>
        <time>2017-08-23T16:04:50Z</time>
      </trkpt>
      <trkpt lat="44.98626" lon="0.7342">
        <ele>148.18</ele>
        <time>2017-08-23T16:05:02Z</time>
      </trkpt>
      <trkpt lat="44.9862" lon="0.73417">
        <ele>147.7</ele>
        <time>2017-08-23T16:05:20Z</time>
      </trkpt>
      <trkpt lat="44.98617" lon="0.73411">
        <ele>147.7</ele>
        <time>2017-08-23T16:05:51Z</time>
      </trkpt>
      <trkpt lat="44.98612" lon="0.73409">
        <ele>147.22</ele>
        <time>2017-08-23T16:06:11Z</time>
      </trkpt>
      <trkpt lat="44.98602" lon="0.73404">
        <ele>146.74</ele>
        <time>2017-08-23T16:06:24Z</time>
      </trkpt>
      <trkpt lat="44.98588" lon="0.7339">
        <ele>146.26</ele>
        <time>2017-08-23T16:06:37Z</time>
      </trkpt>
      <trkpt lat="44.98578" lon="0.73377">
        <ele>145.78</ele>
        <time>2017-08-23T16:06:51Z</time>
      </trkpt>
      <trkpt lat="44.98576" lon="0.73375">
        <ele>145.78</ele>
        <time>2017-08-23T16:06:53Z</time>
      </trkpt>
      <trkpt lat="44.98566" lon="0.73366">
        <ele>145.3</ele>
        <time>2017-08-23T16:07:06Z</time>
      </trkpt>
      <trkpt lat="44.98556" lon="0.73355">
        <ele>144.82</ele>
        <time>2017-08-23T16:07:20Z</time>
      </trkpt>
      <trkpt lat="44.98546" lon="0.73343">
        <ele>144.34</ele>
        <time>2017-08-23T16:07:30Z</time>
      </trkpt>
      <trkpt lat="44.98532" lon="0.73326">
        <ele>143.37</ele>
        <time>2017-08-23T16:07:44Z</time>
      </trkpt>
      <trkpt lat="44.98519" lon="0.73307">
        <ele>142.89</ele>
        <time>2017-08-23T16:08:00Z</time>
      </trkpt>
      <trkpt lat="44.98513" lon="0.73292">
        <ele>142.89</ele>
        <time>2017-08-23T16:08:14Z</time>
      </trkpt>
      <trkpt lat="44.98508" lon="0.73286">
        <ele>142.41</ele>
        <time>2017-08-23T16:08:23Z</time>
      </trkpt>
      <trkpt lat="44.985" lon="0.73273">
        <ele>141.93</ele>
        <time>2017-08-23T16:08:36Z</time>
      </trkpt>
      <trkpt lat="44.98497" lon="0.73272">
        <ele>141.93</ele>
        <time>2017-08-23T16:08:39Z</time>
      </trkpt>
      <trkpt lat="44.98481" lon="0.73251">
        <ele>141.45</ele>
        <time>2017-08-23T16:08:53Z</time>
      </trkpt>
      <trkpt lat="44.98475" lon="0.73246">
        <ele>141.45</ele>
        <time>2017-08-23T16:09:00Z</time>
      </trkpt>
      <trkpt lat="44.98465" lon="0.73234">
        <ele>141.45</ele>
        <time>2017-08-23T16:09:13Z</time>
      </trkpt>
      <trkpt lat="44.98454" lon="0.7322">
        <ele>141.45</ele>
        <time>2017-08-23T16:09:26Z</time>
      </trkpt>
      <trkpt lat="44.98447" lon="0.73213">
        <ele>141.45</ele>
        <time>2017-08-23T16:09:34Z</time>
      </trkpt>
      <trkpt lat="44.98439" lon="0.73206">
        <ele>141.93</ele>
        <time>2017-08-23T16:09:43Z</time>
      </trkpt>
      <trkpt lat="44.98432" lon="0.73196">
        <ele>141.93</ele>
        <time>2017-08-23T16:09:58Z</time>
      </trkpt>
      <trkpt lat="44.98423" lon="0.73187">
        <ele>141.45</ele>
        <time>2017-08-23T16:10:10Z</time>
      </trkpt>
      <trkpt lat="44.98417" lon="0.73176">
        <ele>140.97</ele>
        <time>2017-08-23T16:10:22Z</time>
      </trkpt>
      <trkpt lat="44.9841" lon="0.73166">
        <ele>140.97</ele>
        <time>2017-08-23T16:10:34Z</time>
      </trkpt>
      <trkpt lat="44.98406" lon="0.73145">
        <ele>141.45</ele>
        <time>2017-08-23T16:10:49Z</time>
      </trkpt>
      <trkpt lat="44.98402" lon="0.73132">
        <ele>141.45</ele>
        <time>2017-08-23T16:10:54Z</time>
      </trkpt>
      <trkpt lat="44.98399" lon="0.73115">
        <ele>141.45</ele>
        <time>2017-08-23T16:11:01Z</time>
      </trkpt>
      <trkpt lat="44.98396" lon="0.73099">
        <ele>141.45</ele>
        <time>2017-08-23T16:11:13Z</time>
      </trkpt>
      <trkpt lat="44.98394" lon="0.73086">
        <ele>140.97</ele>
        <time>2017-08-23T16:11:27Z</time>
      </trkpt>
      <trkpt lat="44.9839" lon="0.73063">
        <ele>141.45</ele>
        <time>2017-08-23T16:11:40Z</time>
      </trkpt>
      <trkpt lat="44.98386" lon="0.73042">
        <ele>141.45</ele>
        <time>2017-08-23T16:11:53Z</time>
      </trkpt>
      <trkpt lat="44.98385" lon="0.73036">
        <ele>140.97</ele>
        <time>2017-08-23T16:11:56Z</time>
      </trkpt>
      <trkpt lat="44.98382" lon="0.73014">
        <ele>140.97</ele>
        <time>2017-08-23T16:12:10Z</time>
      </trkpt>
      <trkpt lat="44.98381" lon="0.73013">
        <ele>140.97</ele>
        <time>2017-08-23T16:12:11Z</time>
      </trkpt>
      <trkpt lat="44.98368" lon="0.73">
        <ele>140.97</ele>
        <time>2017-08-23T16:12:26Z</time>
      </trkpt>
      <trkpt lat="44.98366" lon="0.73">
        <ele>140.49</ele>
        <time>2017-08-23T16:12:28Z</time>
      </trkpt>
      <trkpt lat="44.98359" lon="0.72999">
        <ele>140.97</ele>
        <time>2017-08-23T16:12:35Z</time>
      </trkpt>
      <trkpt lat="44.98348" lon="0.72997">
        <ele>141.45</ele>
        <time>2017-08-23T16:12:48Z</time>
      </trkpt>
      <trkpt lat="44.98331" lon="0.72989">
        <ele>142.89</ele>
        <time>2017-08-23T16:13:04Z</time>
      </trkpt>
      <trkpt lat="44.9832" lon="0.72984">
        <ele>143.37</ele>
        <time>2017-08-23T16:13:17Z</time>
      </trkpt>
      <trkpt lat="44.98317" lon="0.72981">
        <ele>143.37</ele>
        <time>2017-08-23T16:13:22Z</time>
      </trkpt>
      <trkpt lat="44.98304" lon="0.72973">
        <ele>143.37</ele>
        <time>2017-08-23T16:13:38Z</time>
      </trkpt>
      <trkpt lat="44.98292" lon="0.72965">
        <ele>143.37</ele>
        <time>2017-08-23T16:13:51Z</time>
      </trkpt>
      <trkpt lat="44.98285" lon="0.72959">
        <ele>142.89</ele>
        <time>2017-08-23T16:14:04Z</time>
      </trkpt>
      <trkpt lat="44.9827" lon="0.72952">
        <ele>142.41</ele>
        <time>2017-08-23T16:14:17Z</time>
      </trkpt>
      <trkpt lat="44.98253" lon="0.7294">
        <ele>142.41</ele>
        <time>2017-08-23T16:14:31Z</time>
      </trkpt>
      <trkpt lat="44.98241" lon="0.72932">
        <ele>141.93</ele>
        <time>2017-08-23T16:14:44Z</time>
      </trkpt>
      <trkpt lat="44.98229" lon="0.72923">
        <ele>141.93</ele>
        <time>2017-08-23T16:14:58Z</time>
      </trkpt>
      <trkpt lat="44.98211" lon="0.72909">
        <ele>141.45</ele>
        <time>2017-08-23T16:15:11Z</time>
      </trkpt>
      <trkpt lat="44.98195" lon="0.72891">
        <ele>141.93</ele>
        <time>2017-08-23T16:15:28Z</time>
      </trkpt>
      <trkpt lat="44.98184" lon="0.72879">
        <ele>141.45</ele>
        <time>2017-08-23T16:15:42Z</time>
      </trkpt>
      <trkpt lat="44.98174" lon="0.72869">
        <ele>141.45</ele>
        <time>2017-08-23T16:15:55Z</time>
      </trkpt>
      <trkpt lat="44.98161" lon="0.72854">
        <ele>141.45</ele>
        <time>2017-08-23T16:16:09Z</time>
      </trkpt>
      <trkpt lat="44.98147" lon="0.72845">
        <ele>141.45</ele>
        <time>2017-08-23T16:16:25Z</time>
      </trkpt>
      <trkpt lat="44.98137" lon="0.72836">
        <ele>140.97</ele>
        <time>2017-08-23T16:16:37Z</time>
      </trkpt>
      <trkpt lat="44.9813" lon="0.7283">
        <ele>140.97</ele>
        <time>2017-08-23T16:16:51Z</time>
      </trkpt>
      <trkpt lat="44.98124" lon="0.72825">
        <ele>140.97</ele>
        <time>2017-08-23T16:17:01Z</time>
      </trkpt>
      <trkpt lat="44.98111" lon="0.72817">
        <ele>140.97</ele>
        <time>2017-08-23T16:17:14Z</time>
      </trkpt>
      <trkpt lat="44.98106" lon="0.72812">
        <ele>141.45</ele>
        <time>2017-08-23T16:17:20Z</time>
      </trkpt>
      <trkpt lat="44.98104" lon="0.72811">
        <ele>141.45</ele>
        <time>2017-08-23T16:17:22Z</time>
      </trkpt>
      <trkpt lat="44.98089" lon="0.72794">
        <ele>141.45</ele>
        <time>2017-08-23T16:17:38Z</time>
      </trkpt>
      <trkpt lat="44.98079" lon="0.72783">
        <ele>141.45</ele>
        <time>2017-08-23T16:17:49Z</time>
      </trkpt>
      <trkpt lat="44.98066" lon="0.72773">
        <ele>141.45</ele>
        <time>2017-08-23T16:18:05Z</time>
      </trkpt>
      <trkpt lat="44.98054" lon="0.72763">
        <ele>141.45</ele>
        <time>2017-08-23T16:18:19Z</time>
      </trkpt>
      <trkpt lat="44.98044" lon="0.72748">
        <ele>140.49</ele>
        <time>2017-08-23T16:18:35Z</time>
      </trkpt>
      <trkpt lat="44.98045" lon="0.72744">
        <ele>140.49</ele>
        <time>2017-08-23T16:18:48Z</time>
      </trkpt>
      <trkpt lat="44.98052" lon="0.7274">
        <ele>141.93</ele>
        <time>2017-08-23T16:19:03Z</time>
      </trkpt>
      <trkpt lat="44.98061" lon="0.72735">
        <ele>143.37</ele>
        <time>2017-08-23T16:19:17Z</time>
      </trkpt>
      <trkpt lat="44.98072" lon="0.72732">
        <ele>145.3</ele>
        <time>2017-08-23T16:19:32Z</time>
      </trkpt>
      <trkpt lat="44.98083" lon="0.72727">
        <ele>146.26</ele>
        <time>2017-08-23T16:19:47Z</time>
      </trkpt>
      <trkpt lat="44.98094" lon="0.72723">
        <ele>148.18</ele>
        <time>2017-08-23T16:20:03Z</time>
      </trkpt>
      <trkpt lat="44.98102" lon="0.72718">
        <ele>149.14</ele>
        <time>2017-08-23T16:20:17Z</time>
      </trkpt>
      <trkpt lat="44.98112" lon="0.72716">
        <ele>150.1</ele>
        <time>2017-08-23T16:20:32Z</time>
      </trkpt>
      <trkpt lat="44.98122" lon="0.72709">
        <ele>151.54</ele>
        <time>2017-08-23T16:20:46Z</time>
      </trkpt>
      <trkpt lat="44.98134" lon="0.72704">
        <ele>152.99</ele>
        <time>2017-08-23T16:21:03Z</time>
      </trkpt>
      <trkpt lat="44.98144" lon="0.72701">
        <ele>154.43</ele>
        <time>2017-08-23T16:21:17Z</time>
      </trkpt>
      <trkpt lat="44.98157" lon="0.72696">
        <ele>156.35</ele>
        <time>2017-08-23T16:21:34Z</time>
      </trkpt>
      <trkpt lat="44.98163" lon="0.72692">
        <ele>158.27</ele>
        <time>2017-08-23T16:21:48Z</time>
      </trkpt>
      <trkpt lat="44.98173" lon="0.72687">
        <ele>159.72</ele>
        <time>2017-08-23T16:22:01Z</time>
      </trkpt>
      <trkpt lat="44.98185" lon="0.72683">
        <ele>161.16</ele>
        <time>2017-08-23T16:22:15Z</time>
      </trkpt>
      <trkpt lat="44.98199" lon="0.72676">
        <ele>162.6</ele>
        <time>2017-08-23T16:22:30Z</time>
      </trkpt>
      <trkpt lat="44.98207" lon="0.72673">
        <ele>164.52</ele>
        <time>2017-08-23T16:22:46Z</time>
      </trkpt>
      <trkpt lat="44.98217" lon="0.72675">
        <ele>165.96</ele>
        <time>2017-08-23T16:22:59Z</time>
      </trkpt>
      <trkpt lat="44.98226" lon="0.72672">
        <ele>167.41</ele>
        <time>2017-08-23T16:23:10Z</time>
      </trkpt>
      <trkpt lat="44.98231" lon="0.72671">
        <ele>167.89</ele>
        <time>2017-08-23T16:23:24Z</time>
      </trkpt>
      <trkpt lat="44.98236" lon="0.7267">
        <ele>168.37</ele>
        <time>2017-08-23T16:23:38Z</time>
      </trkpt>
      <trkpt lat="44.98244" lon="0.72667">
        <ele>169.33</ele>
        <time>2017-08-23T16:23:49Z</time>
      </trkpt>
      <trkpt lat="44.98252" lon="0.72663">
        <ele>169.81</ele>
        <time>2017-08-23T16:24:00Z</time>
      </trkpt>
      <trkpt lat="44.98262" lon="0.7266">
        <ele>170.29</ele>
        <time>2017-08-23T16:24:13Z</time>
      </trkpt>
      <trkpt lat="44.98269" lon="0.72655">
        <ele>170.77</ele>
        <time>2017-08-23T16:24:21Z</time>
      </trkpt>
      <trkpt lat="44.98283" lon="0.72647">
        <ele>171.25</ele>
        <time>2017-08-23T16:24:35Z</time>
      </trkpt>
      <trkpt lat="44.98285" lon="0.72646">
        <ele>171.25</ele>
        <time>2017-08-23T16:24:37Z</time>
      </trkpt>
      <trkpt lat="44.98295" lon="0.7264">
        <ele>171.73</ele>
        <time>2017-08-23T16:24:48Z</time>
      </trkpt>
      <trkpt lat="44.9831" lon="0.72636">
        <ele>172.69</ele>
        <time>2017-08-23T16:25:02Z</time>
      </trkpt>
      <trkpt lat="44.9832" lon="0.72632">
        <ele>173.17</ele>
        <time>2017-08-23T16:25:14Z</time>
      </trkpt>
      <trkpt lat="44.98326" lon="0.72632">
        <ele>173.66</ele>
        <time>2017-08-23T16:25:21Z</time>
      </trkpt>
      <trkpt lat="44.98337" lon="0.7263">
        <ele>174.14</ele>
        <time>2017-08-23T16:25:32Z</time>
      </trkpt>
      <trkpt lat="44.98343" lon="0.72628">
        <ele>174.14</ele>
        <time>2017-08-23T16:25:38Z</time>
      </trkpt>
      <trkpt lat="44.98345" lon="0.72627">
        <ele>174.62</ele>
        <time>2017-08-23T16:25:40Z</time>
      </trkpt>
      <trkpt lat="44.98359" lon="0.72623">
        <ele>175.1</ele>
        <time>2017-08-23T16:25:53Z</time>
      </trkpt>
      <trkpt lat="44.98368" lon="0.72622">
        <ele>175.1</ele>
        <time>2017-08-23T16:26:02Z</time>
      </trkpt>
      <trkpt lat="44.98374" lon="0.72621">
        <ele>175.58</ele>
        <time>2017-08-23T16:26:08Z</time>
      </trkpt>
      <trkpt lat="44.98382" lon="0.72619">
        <ele>176.06</ele>
        <time>2017-08-23T16:26:15Z</time>
      </trkpt>
      <trkpt lat="44.98384" lon="0.72619">
        <ele>176.06</ele>
        <time>2017-08-23T16:26:17Z</time>
      </trkpt>
      <trkpt lat="44.98395" lon="0.72616">
        <ele>176.54</ele>
        <time>2017-08-23T16:26:29Z</time>
      </trkpt>
      <trkpt lat="44.98404" lon="0.72615">
        <ele>176.54</ele>
        <time>2017-08-23T16:26:38Z</time>
      </trkpt>
      <trkpt lat="44.9842" lon="0.72612">
        <ele>177.02</ele>
        <time>2017-08-23T16:26:54Z</time>
      </trkpt>
      <trkpt lat="44.98431" lon="0.72609">
        <ele>177.98</ele>
        <time>2017-08-23T16:27:08Z</time>
      </trkpt>
      <trkpt lat="44.98438" lon="0.72608">
        <ele>178.46</ele>
        <time>2017-08-23T16:27:20Z</time>
      </trkpt>
      <trkpt lat="44.98454" lon="0.72608">
        <ele>178.94</ele>
        <time>2017-08-23T16:27:34Z</time>
      </trkpt>
      <trkpt lat="44.9847" lon="0.72609">
        <ele>179.42</ele>
        <time>2017-08-23T16:27:49Z</time>
      </trkpt>
      <trkpt lat="44.98485" lon="0.72611">
        <ele>180.38</ele>
        <time>2017-08-23T16:28:03Z</time>
      </trkpt>
      <trkpt lat="44.98501" lon="0.72612">
        <ele>179.9</ele>
        <time>2017-08-23T16:28:19Z</time>
      </trkpt>
      <trkpt lat="44.98517" lon="0.72612">
        <ele>179.42</ele>
        <time>2017-08-23T16:28:34Z</time>
      </trkpt>
      <trkpt lat="44.98526" lon="0.7261">
        <ele>178.94</ele>
        <time>2017-08-23T16:28:48Z</time>
      </trkpt>
      <trkpt lat="44.98538" lon="0.72611">
        <ele>177.98</ele>
        <time>2017-08-23T16:29:02Z</time>
      </trkpt>
      <trkpt lat="44.98553" lon="0.72615">
        <ele>177.98</ele>
        <time>2017-08-23T16:29:15Z</time>
      </trkpt>
      <trkpt lat="44.98568" lon="0.72615">
        <ele>177.5</ele>
        <time>2017-08-23T16:29:29Z</time>
      </trkpt>
      <trkpt lat="44.98586" lon="0.72615">
        <ele>177.5</ele>
        <time>2017-08-23T16:29:43Z</time>
      </trkpt>
      <trkpt lat="44.98604" lon="0.72611">
        <ele>177.5</ele>
        <time>2017-08-23T16:29:55Z</time>
      </trkpt>
      <trkpt lat="44.9862" lon="0.72606">
        <ele>177.5</ele>
        <time>2017-08-23T16:30:07Z</time>
      </trkpt>
      <trkpt lat="44.98633" lon="0.726">
        <ele>177.5</ele>
        <time>2017-08-23T16:30:20Z</time>
      </trkpt>
      <trkpt lat="44.98637" lon="0.726">
        <ele>177.5</ele>
        <time>2017-08-23T16:30:25Z</time>
      </trkpt>
      <trkpt lat="44.98651" lon="0.72603">
        <ele>177.98</ele>
        <time>2017-08-23T16:30:40Z</time>
      </trkpt>
      <trkpt lat="44.98657" lon="0.72604">
        <ele>178.46</ele>
        <time>2017-08-23T16:30:54Z</time>
      </trkpt>
      <trkpt lat="44.98662" lon="0.72604">
        <ele>177.98</ele>
        <time>2017-08-23T16:31:18Z</time>
      </trkpt>
      <trkpt lat="44.98668" lon="0.72603">
        <ele>178.46</ele>
        <time>2017-08-23T16:31:33Z</time>
      </trkpt>
      <trkpt lat="44.98669" lon="0.72603">
        <ele>177.98</ele>
        <time>2017-08-23T16:31:34Z</time>
      </trkpt>
      <trkpt lat="44.98678" lon="0.72601">
        <ele>177.98</ele>
        <time>2017-08-23T16:31:46Z</time>
      </trkpt>
      <trkpt lat="44.98695" lon="0.72603">
        <ele>178.46</ele>
        <time>2017-08-23T16:31:59Z</time>
      </trkpt>
      <trkpt lat="44.9871" lon="0.72607">
        <ele>178.46</ele>
        <time>2017-08-23T16:32:11Z</time>
      </trkpt>
      <trkpt lat="44.98723" lon="0.7261">
        <ele>178.46</ele>
        <time>2017-08-23T16:32:24Z</time>
      </trkpt>
      <trkpt lat="44.98724" lon="0.72611">
        <ele>178.94</ele>
        <time>2017-08-23T16:32:25Z</time>
      </trkpt>
      <trkpt lat="44.98731" lon="0.72614">
        <ele>178.94</ele>
        <time>2017-08-23T16:32:35Z</time>
      </trkpt>
      <trkpt lat="44.98741" lon="0.72614">
        <ele>179.42</ele>
        <time>2017-08-23T16:32:48Z</time>
      </trkpt>
      <trkpt lat="44.98746" lon="0.72602">
        <ele>177.98</ele>
        <time>2017-08-23T16:33:03Z</time>
      </trkpt>
      <trkpt lat="44.98743" lon="0.72592">
        <ele>177.02</ele>
        <time>2017-08-23T16:33:12Z</time>
      </trkpt>
      <trkpt lat="44.98737" lon="0.72575">
        <ele>175.1</ele>
        <time>2017-08-23T16:33:27Z</time>
      </trkpt>
      <trkpt lat="44.98731" lon="0.72559">
        <ele>174.14</ele>
        <time>2017-08-23T16:33:41Z</time>
      </trkpt>
      <trkpt lat="44.98732" lon="0.72556">
        <ele>173.66</ele>
        <time>2017-08-23T16:33:44Z</time>
      </trkpt>
      <trkpt lat="44.98732" lon="0.72553">
        <ele>173.17</ele>
        <time>2017-08-23T16:33:46Z</time>
      </trkpt>
      <trkpt lat="44.98729" lon="0.72531">
        <ele>171.25</ele>
        <time>2017-08-23T16:34:03Z</time>
      </trkpt>
      <trkpt lat="44.98722" lon="0.7251">
        <ele>168.85</ele>
        <time>2017-08-23T16:34:20Z</time>
      </trkpt>
      <trkpt lat="44.98716" lon="0.72492">
        <ele>167.89</ele>
        <time>2017-08-23T16:34:34Z</time>
      </trkpt>
      <trkpt lat="44.98712" lon="0.7248">
        <ele>166.45</ele>
        <time>2017-08-23T16:34:48Z</time>
      </trkpt>
      <trkpt lat="44.98702" lon="0.7246">
        <ele>164.04</ele>
        <time>2017-08-23T16:35:06Z</time>
      </trkpt>
      <trkpt lat="44.98698" lon="0.72453">
        <ele>163.56</ele>
        <time>2017-08-23T16:35:12Z</time>
      </trkpt>
      <trkpt lat="44.9869" lon="0.72439">
        <ele>162.12</ele>
        <time>2017-08-23T16:35:27Z</time>
      </trkpt>
      <trkpt lat="44.98688" lon="0.72432">
        <ele>161.64</ele>
        <time>2017-08-23T16:35:42Z</time>
      </trkpt>
      <trkpt lat="44.98683" lon="0.72423">
        <ele>160.68</ele>
        <time>2017-08-23T16:35:57Z</time>
      </trkpt>
      <trkpt lat="44.98679" lon="0.72416">
        <ele>159.72</ele>
        <time>2017-08-23T16:36:04Z</time>
      </trkpt>
      <trkpt lat="44.98672" lon="0.72396">
        <ele>158.75</ele>
        <time>2017-08-23T16:36:20Z</time>
      </trkpt>
      <trkpt lat="44.98671" lon="0.72395">
        <ele>158.75</ele>
        <time>2017-08-23T16:36:21Z</time>
      </trkpt>
      <trkpt lat="44.9867" lon="0.72391">
        <ele>158.75</ele>
        <time>2017-08-23T16:36:24Z</time>
      </trkpt>
      <trkpt lat="44.9866" lon="0.7237">
        <ele>157.79</ele>
        <time>2017-08-23T16:36:41Z</time>
      </trkpt>
      <trkpt lat="44.98659" lon="0.72367">
        <ele>157.31</ele>
        <time>2017-08-23T16:36:44Z</time>
      </trkpt>
      <trkpt lat="44.98653" lon="0.72345">
        <ele>157.31</ele>
        <time>2017-08-23T16:37:00Z</time>
      </trkpt>
      <trkpt lat="44.98651" lon="0.7233">
        <ele>156.35</ele>
        <time>2017-08-23T16:37:13Z</time>
      </trkpt>
      <trkpt lat="44.98645" lon="0.72313">
        <ele>155.87</ele>
        <time>2017-08-23T16:37:28Z</time>
      </trkpt>
      <trkpt lat="44.9864" lon="0.72298">
        <ele>155.39</ele>
        <time>2017-08-23T16:37:42Z</time>
      </trkpt>
      <trkpt lat="44.98638" lon="0.72285">
        <ele>154.91</ele>
        <time>2017-08-23T16:37:54Z</time>
      </trkpt>
      <trkpt lat="44.98641" lon="0.72281">
        <ele>155.39</ele>
        <time>2017-08-23T16:38:00Z</time>
      </trkpt>
      <trkpt lat="44.98646" lon="0.72278">
        <ele>155.87</ele>
        <time>2017-08-23T16:38:16Z</time>
      </trkpt>
      <trkpt lat="44.98646" lon="0.72275">
        <ele>156.35</ele>
        <time>2017-08-23T16:38:32Z</time>
      </trkpt>
      <trkpt lat="44.98645" lon="0.72268">
        <ele>155.39</ele>
        <time>2017-08-23T16:38:38Z</time>
      </trkpt>
      <trkpt lat="44.9865" lon="0.72255">
        <ele>155.39</ele>
        <time>2017-08-23T16:38:48Z</time>
      </trkpt>
      <trkpt lat="44.98656" lon="0.72242">
        <ele>155.87</ele>
        <time>2017-08-23T16:38:59Z</time>
      </trkpt>
      <trkpt lat="44.98659" lon="0.72229">
        <ele>155.87</ele>
        <time>2017-08-23T16:39:08Z</time>
      </trkpt>
      <trkpt lat="44.98658" lon="0.7222">
        <ele>155.87</ele>
        <time>2017-08-23T16:39:22Z</time>
      </trkpt>
      <trkpt lat="44.98658" lon="0.7222">
        <ele>151.54</ele>
        <time>2017-08-23T16:39:38Z</time>
      </trkpt>
      <trkpt lat="44.98658" lon="0.7222">
        <ele>158.75</ele>
        <time>2017-08-23T16:39:39Z</time>
      </trkpt>
      <trkpt lat="44.98658" lon="0.7222">
        <ele>154.43</ele>
        <time>2017-08-23T16:39:40Z</time>
      </trkpt>
      <trkpt lat="44.98658" lon="0.7222">
        <ele>159.24</ele>
        <time>2017-08-23T16:39:41Z</time>
      </trkpt>
      <trkpt lat="44.98658" lon="0.7222">
        <ele>155.87</ele>
        <time>2017-08-23T16:39:42Z</time>
      </trkpt>
      <trkpt lat="44.98658" lon="0.72218">
        <ele>155.87</ele>
        <time>2017-08-23T16:39:59Z</time>
      </trkpt>
      <trkpt lat="44.98658" lon="0.72218">
        <ele>155.87</ele>
        <time>2017-08-23T16:40:09Z</time>
      </trkpt>
    </trkseg>
  </trk>
  <trk>
    <name><![CDATA[randogps24-476]]></name>
    <extensions>
      <line xmlns="http://www.topografix.com/GPX/gpx_style/0/2">
        <color>0000FF</color>
        <width>4</width>
      </line>
    </extensions>
    <trkseg>
      <trkpt lat="44.9933" lon="0.50592">
        <ele>123.19</ele>
        <time>2018-12-14T13:01:25Z</time>
      </trkpt>
      <trkpt lat="44.9933" lon="0.50592">
        <ele>124.63</ele>
        <time>2018-12-14T13:01:26Z</time>
      </trkpt>
      <trkpt lat="44.9933" lon="0.50592">
        <ele>124.63</ele>
        <time>2018-12-14T13:01:27Z</time>
      </trkpt>
      <trkpt lat="44.9933" lon="0.50591">
        <ele>123.19</ele>
        <time>2018-12-14T13:01:30Z</time>
      </trkpt>
      <trkpt lat="44.99333" lon="0.50596">
        <ele>123.67</ele>
        <time>2018-12-14T13:01:47Z</time>
      </trkpt>
      <trkpt lat="44.99327" lon="0.50593">
        <ele>124.15</ele>
        <time>2018-12-14T13:02:01Z</time>
      </trkpt>
      <trkpt lat="44.9932" lon="0.50581">
        <ele>124.15</ele>
        <time>2018-12-14T13:02:19Z</time>
      </trkpt>
      <trkpt lat="44.9932" lon="0.50582">
        <ele>124.15</ele>
        <time>2018-12-14T13:02:48Z</time>
      </trkpt>
      <trkpt lat="44.99319" lon="0.50581">
        <ele>124.15</ele>
        <time>2018-12-14T13:03:15Z</time>
      </trkpt>
      <trkpt lat="44.99319" lon="0.50576">
        <ele>124.15</ele>
        <time>2018-12-14T13:03:43Z</time>
      </trkpt>
      <trkpt lat="44.99319" lon="0.50573">
        <ele>124.15</ele>
        <time>2018-12-14T13:03:48Z</time>
      </trkpt>
      <trkpt lat="44.9932" lon="0.50558">
        <ele>124.15</ele>
        <time>2018-12-14T13:03:58Z</time>
      </trkpt>
      <trkpt lat="44.99327" lon="0.50541">
        <ele>124.15</ele>
        <time>2018-12-14T13:04:13Z</time>
      </trkpt>
      <trkpt lat="44.9934" lon="0.50522">
        <ele>125.59</ele>
        <time>2018-12-14T13:04:30Z</time>
      </trkpt>
      <trkpt lat="44.99349" lon="0.50501">
        <ele>127.51</ele>
        <time>2018-12-14T13:04:45Z</time>
      </trkpt>
      <trkpt lat="44.99354" lon="0.50487">
        <ele>128.95</ele>
        <time>2018-12-14T13:04:58Z</time>
      </trkpt>
      <trkpt lat="44.99366" lon="0.50475">
        <ele>131.36</ele>
        <time>2018-12-14T13:05:14Z</time>
      </trkpt>
      <trkpt lat="44.9938" lon="0.5046">
        <ele>133.76</ele>
        <time>2018-12-14T13:05:29Z</time>
      </trkpt>
      <trkpt lat="44.99392" lon="0.50442">
        <ele>136.16</ele>
        <time>2018-12-14T13:05:43Z</time>
      </trkpt>
      <trkpt lat="44.99401" lon="0.50425">
        <ele>139.05</ele>
        <time>2018-12-14T13:05:59Z</time>
      </trkpt>
      <trkpt lat="44.99408" lon="0.50411">
        <ele>141.93</ele>
        <time>2018-12-14T13:06:13Z</time>
      </trkpt>
      <trkpt lat="44.99418" lon="0.50397">
        <ele>144.34</ele>
        <time>2018-12-14T13:06:27Z</time>
      </trkpt>
      <trkpt lat="44.99429" lon="0.50381">
        <ele>146.74</ele>
        <time>2018-12-14T13:06:42Z</time>
      </trkpt>
      <trkpt lat="44.99436" lon="0.50365">
        <ele>149.14</ele>
        <time>2018-12-14T13:06:56Z</time>
      </trkpt>
      <trkpt lat="44.99444" lon="0.50345">
        <ele>151.54</ele>
        <time>2018-12-14T13:07:13Z</time>
      </trkpt>
      <trkpt lat="44.9945" lon="0.50326">
        <ele>152.99</ele>
        <time>2018-12-14T13:07:28Z</time>
      </trkpt>
      <trkpt lat="44.99457" lon="0.50305">
        <ele>154.91</ele>
        <time>2018-12-14T13:07:44Z</time>
      </trkpt>
      <trkpt lat="44.99464" lon="0.5029">
        <ele>155.87</ele>
        <time>2018-12-14T13:07:58Z</time>
      </trkpt>
      <trkpt lat="44.99466" lon="0.50287">
        <ele>155.87</ele>
        <time>2018-12-14T13:08:00Z</time>
      </trkpt>
      <trkpt lat="44.99468" lon="0.50282">
        <ele>156.35</ele>
        <time>2018-12-14T13:08:04Z</time>
      </trkpt>
      <trkpt lat="44.99477" lon="0.50266">
        <ele>156.35</ele>
        <time>2018-12-14T13:08:20Z</time>
      </trkpt>
      <trkpt lat="44.99486" lon="0.50248">
        <ele>156.35</ele>
        <time>2018-12-14T13:08:33Z</time>
      </trkpt>
      <trkpt lat="44.99488" lon="0.50245">
        <ele>156.35</ele>
        <time>2018-12-14T13:08:35Z</time>
      </trkpt>
      <trkpt lat="44.99501" lon="0.50224">
        <ele>153.47</ele>
        <time>2018-12-14T13:08:53Z</time>
      </trkpt>
      <trkpt lat="44.99513" lon="0.50209">
        <ele>152.51</ele>
        <time>2018-12-14T13:09:07Z</time>
      </trkpt>
      <trkpt lat="44.99515" lon="0.50203">
        <ele>151.54</ele>
        <time>2018-12-14T13:09:23Z</time>
      </trkpt>
      <trkpt lat="44.99515" lon="0.50201">
        <ele>151.54</ele>
        <time>2018-12-14T13:09:45Z</time>
      </trkpt>
      <trkpt lat="44.99518" lon="0.50196">
        <ele>151.54</ele>
        <time>2018-12-14T13:10:07Z</time>
      </trkpt>
      <trkpt lat="44.99518" lon="0.50196">
        <ele>151.06</ele>
        <time>2018-12-14T13:10:14Z</time>
      </trkpt>
      <trkpt lat="44.99501" lon="0.50186">
        <ele>152.51</ele>
        <time>2018-12-14T13:10:30Z</time>
      </trkpt>
      <trkpt lat="44.99495" lon="0.50181">
        <ele>152.99</ele>
        <time>2018-12-14T13:10:46Z</time>
      </trkpt>
      <trkpt lat="44.9948" lon="0.50171">
        <ele>153.47</ele>
        <time>2018-12-14T13:11:01Z</time>
      </trkpt>
      <trkpt lat="44.99466" lon="0.50161">
        <ele>153.47</ele>
        <time>2018-12-14T13:11:17Z</time>
      </trkpt>
      <trkpt lat="44.9945" lon="0.50149">
        <ele>154.43</ele>
        <time>2018-12-14T13:11:35Z</time>
      </trkpt>
      <trkpt lat="44.99434" lon="0.50137">
        <ele>155.39</ele>
        <time>2018-12-14T13:11:52Z</time>
      </trkpt>
      <trkpt lat="44.99418" lon="0.50124">
        <ele>156.35</ele>
        <time>2018-12-14T13:12:08Z</time>
      </trkpt>
      <trkpt lat="44.99402" lon="0.50106">
        <ele>156.83</ele>
        <time>2018-12-14T13:12:27Z</time>
      </trkpt>
      <trkpt lat="44.99393" lon="0.50098">
        <ele>155.87</ele>
        <time>2018-12-14T13:12:37Z</time>
      </trkpt>
      <trkpt lat="44.9938" lon="0.50086">
        <ele>154.91</ele>
        <time>2018-12-14T13:12:53Z</time>
      </trkpt>
      <trkpt lat="44.99373" lon="0.50077">
        <ele>154.43</ele>
        <time>2018-12-14T13:13:07Z</time>
      </trkpt>
      <trkpt lat="44.99382" lon="0.5005">
        <ele>155.87</ele>
        <time>2018-12-14T13:13:25Z</time>
      </trkpt>
      <trkpt lat="44.99392" lon="0.50025">
        <ele>157.31</ele>
        <time>2018-12-14T13:13:42Z</time>
      </trkpt>
      <trkpt lat="44.99393" lon="0.50022">
        <ele>157.31</ele>
        <time>2018-12-14T13:13:44Z</time>
      </trkpt>
      <trkpt lat="44.99405" lon="0.49996">
        <ele>159.24</ele>
        <time>2018-12-14T13:14:02Z</time>
      </trkpt>
      <trkpt lat="44.99414" lon="0.49974">
        <ele>161.16</ele>
        <time>2018-12-14T13:14:17Z</time>
      </trkpt>
      <trkpt lat="44.99423" lon="0.49954">
        <ele>162.12</ele>
        <time>2018-12-14T13:14:31Z</time>
      </trkpt>
      <trkpt lat="44.99428" lon="0.4994">
        <ele>162.6</ele>
        <time>2018-12-14T13:14:40Z</time>
      </trkpt>
      <trkpt lat="44.99429" lon="0.49938">
        <ele>162.6</ele>
        <time>2018-12-14T13:14:42Z</time>
      </trkpt>
      <trkpt lat="44.99437" lon="0.49924">
        <ele>162.6</ele>
        <time>2018-12-14T13:15:00Z</time>
      </trkpt>
      <trkpt lat="44.99439" lon="0.49912">
        <ele>162.6</ele>
        <time>2018-12-14T13:15:18Z</time>
      </trkpt>
      <trkpt lat="44.99441" lon="0.49908">
        <ele>161.16</ele>
        <time>2018-12-14T13:15:22Z</time>
      </trkpt>
      <trkpt lat="44.9945" lon="0.49885">
        <ele>158.75</ele>
        <time>2018-12-14T13:15:40Z</time>
      </trkpt>
      <trkpt lat="44.99464" lon="0.49859">
        <ele>156.35</ele>
        <time>2018-12-14T13:15:56Z</time>
      </trkpt>
      <trkpt lat="44.99478" lon="0.49841">
        <ele>153.95</ele>
        <time>2018-12-14T13:16:11Z</time>
      </trkpt>
      <trkpt lat="44.99484" lon="0.49824">
        <ele>152.03</ele>
        <time>2018-12-14T13:16:26Z</time>
      </trkpt>
      <trkpt lat="44.99491" lon="0.49802">
        <ele>150.58</ele>
        <time>2018-12-14T13:16:41Z</time>
      </trkpt>
      <trkpt lat="44.99497" lon="0.49792">
        <ele>148.66</ele>
        <time>2018-12-14T13:16:49Z</time>
      </trkpt>
      <trkpt lat="44.99501" lon="0.49785">
        <ele>148.18</ele>
        <time>2018-12-14T13:16:53Z</time>
      </trkpt>
      <trkpt lat="44.99511" lon="0.49764">
        <ele>145.3</ele>
        <time>2018-12-14T13:17:09Z</time>
      </trkpt>
      <trkpt lat="44.99516" lon="0.4974">
        <ele>144.34</ele>
        <time>2018-12-14T13:17:24Z</time>
      </trkpt>
      <trkpt lat="44.99525" lon="0.49727">
        <ele>143.85</ele>
        <time>2018-12-14T13:17:36Z</time>
      </trkpt>
      <trkpt lat="44.9953" lon="0.49708">
        <ele>142.89</ele>
        <time>2018-12-14T13:17:50Z</time>
      </trkpt>
      <trkpt lat="44.99534" lon="0.49691">
        <ele>141.45</ele>
        <time>2018-12-14T13:18:03Z</time>
      </trkpt>
      <trkpt lat="44.99533" lon="0.49655">
        <ele>139.05</ele>
        <time>2018-12-14T13:18:23Z</time>
      </trkpt>
      <trkpt lat="44.99535" lon="0.49631">
        <ele>138.09</ele>
        <time>2018-12-14T13:18:36Z</time>
      </trkpt>
      <trkpt lat="44.99535" lon="0.49603">
        <ele>138.09</ele>
        <time>2018-12-14T13:18:50Z</time>
      </trkpt>
      <trkpt lat="44.99532" lon="0.49566">
        <ele>138.09</ele>
        <time>2018-12-14T13:19:07Z</time>
      </trkpt>
      <trkpt lat="44.99531" lon="0.49555">
        <ele>139.53</ele>
        <time>2018-12-14T13:19:12Z</time>
      </trkpt>
      <trkpt lat="44.99526" lon="0.49517">
        <ele>142.41</ele>
        <time>2018-12-14T13:19:32Z</time>
      </trkpt>
      <trkpt lat="44.99527" lon="0.49488">
        <ele>142.89</ele>
        <time>2018-12-14T13:19:49Z</time>
      </trkpt>
      <trkpt lat="44.99534" lon="0.49466">
        <ele>143.37</ele>
        <time>2018-12-14T13:20:04Z</time>
      </trkpt>
      <trkpt lat="44.99535" lon="0.49444">
        <ele>140.49</ele>
        <time>2018-12-14T13:20:20Z</time>
      </trkpt>
      <trkpt lat="44.99536" lon="0.49428">
        <ele>138.57</ele>
        <time>2018-12-14T13:20:31Z</time>
      </trkpt>
      <trkpt lat="44.99536" lon="0.49401">
        <ele>136.64</ele>
        <time>2018-12-14T13:20:47Z</time>
      </trkpt>
      <trkpt lat="44.99527" lon="0.49384">
        <ele>135.2</ele>
        <time>2018-12-14T13:21:01Z</time>
      </trkpt>
      <trkpt lat="44.99522" lon="0.49365">
        <ele>134.24</ele>
        <time>2018-12-14T13:21:15Z</time>
      </trkpt>
      <trkpt lat="44.99519" lon="0.49347">
        <ele>134.24</ele>
        <time>2018-12-14T13:21:28Z</time>
      </trkpt>
      <trkpt lat="44.99524" lon="0.49329">
        <ele>133.76</ele>
        <time>2018-12-14T13:21:40Z</time>
      </trkpt>
      <trkpt lat="44.99532" lon="0.49314">
        <ele>135.2</ele>
        <time>2018-12-14T13:21:53Z</time>
      </trkpt>
      <trkpt lat="44.99541" lon="0.49292">
        <ele>135.68</ele>
        <time>2018-12-14T13:22:08Z</time>
      </trkpt>
      <trkpt lat="44.99549" lon="0.49273">
        <ele>136.16</ele>
        <time>2018-12-14T13:22:21Z</time>
      </trkpt>
      <trkpt lat="44.99557" lon="0.49253">
        <ele>137.13</ele>
        <time>2018-12-14T13:22:34Z</time>
      </trkpt>
      <trkpt lat="44.99563" lon="0.49231">
        <ele>138.57</ele>
        <time>2018-12-14T13:22:48Z</time>
      </trkpt>
      <trkpt lat="44.99569" lon="0.4921">
        <ele>139.53</ele>
        <time>2018-12-14T13:23:02Z</time>
      </trkpt>
      <trkpt lat="44.99581" lon="0.4918">
        <ele>140.01</ele>
        <time>2018-12-14T13:23:18Z</time>
      </trkpt>
      <trkpt lat="44.99591" lon="0.49149">
        <ele>138.09</ele>
        <time>2018-12-14T13:23:34Z</time>
      </trkpt>
      <trkpt lat="44.99601" lon="0.49132">
        <ele>135.2</ele>
        <time>2018-12-14T13:23:49Z</time>
      </trkpt>
      <trkpt lat="44.99602" lon="0.4913">
        <ele>134.72</ele>
        <time>2018-12-14T13:23:51Z</time>
      </trkpt>
      <trkpt lat="44.99609" lon="0.49102">
        <ele>131.36</ele>
        <time>2018-12-14T13:24:09Z</time>
      </trkpt>
      <trkpt lat="44.99617" lon="0.49077">
        <ele>129.92</ele>
        <time>2018-12-14T13:24:25Z</time>
      </trkpt>
      <trkpt lat="44.99621" lon="0.49061">
        <ele>129.92</ele>
        <time>2018-12-14T13:24:35Z</time>
      </trkpt>
      <trkpt lat="44.99629" lon="0.49042">
        <ele>132.8</ele>
        <time>2018-12-14T13:24:50Z</time>
      </trkpt>
      <trkpt lat="44.99631" lon="0.4904">
        <ele>133.28</ele>
        <time>2018-12-14T13:24:52Z</time>
      </trkpt>
      <trkpt lat="44.99642" lon="0.49022">
        <ele>135.68</ele>
        <time>2018-12-14T13:25:06Z</time>
      </trkpt>
      <trkpt lat="44.9965" lon="0.49006">
        <ele>137.13</ele>
        <time>2018-12-14T13:25:21Z</time>
      </trkpt>
      <trkpt lat="44.99655" lon="0.48989">
        <ele>139.53</ele>
        <time>2018-12-14T13:25:34Z</time>
      </trkpt>
      <trkpt lat="44.99661" lon="0.48964">
        <ele>141.93</ele>
        <time>2018-12-14T13:25:50Z</time>
      </trkpt>
      <trkpt lat="44.99661" lon="0.48961">
        <ele>141.93</ele>
        <time>2018-12-14T13:25:52Z</time>
      </trkpt>
      <trkpt lat="44.99663" lon="0.48951">
        <ele>141.93</ele>
        <time>2018-12-14T13:26:07Z</time>
      </trkpt>
      <trkpt lat="44.99665" lon="0.48944">
        <ele>141.93</ele>
        <time>2018-12-14T13:26:28Z</time>
      </trkpt>
      <trkpt lat="44.99664" lon="0.48944">
        <ele>141.93</ele>
        <time>2018-12-14T13:26:30Z</time>
      </trkpt>
      <trkpt lat="44.99688" lon="0.4894">
        <ele>140.01</ele>
        <time>2018-12-14T13:26:48Z</time>
      </trkpt>
      <trkpt lat="44.99708" lon="0.48938">
        <ele>138.57</ele>
        <time>2018-12-14T13:27:03Z</time>
      </trkpt>
      <trkpt lat="44.99729" lon="0.48937">
        <ele>137.13</ele>
        <time>2018-12-14T13:27:19Z</time>
      </trkpt>
      <trkpt lat="44.99753" lon="0.48935">
        <ele>135.68</ele>
        <time>2018-12-14T13:27:35Z</time>
      </trkpt>
      <trkpt lat="44.99778" lon="0.48929">
        <ele>133.28</ele>
        <time>2018-12-14T13:27:53Z</time>
      </trkpt>
      <trkpt lat="44.99802" lon="0.4892">
        <ele>131.36</ele>
        <time>2018-12-14T13:28:10Z</time>
      </trkpt>
      <trkpt lat="44.9981" lon="0.4892">
        <ele>130.4</ele>
        <time>2018-12-14T13:28:23Z</time>
      </trkpt>
      <trkpt lat="44.99817" lon="0.48919">
        <ele>129.43</ele>
        <time>2018-12-14T13:28:29Z</time>
      </trkpt>
      <trkpt lat="44.99844" lon="0.48928">
        <ele>127.99</ele>
        <time>2018-12-14T13:28:48Z</time>
      </trkpt>
      <trkpt lat="44.99866" lon="0.48945">
        <ele>126.55</ele>
        <time>2018-12-14T13:29:08Z</time>
      </trkpt>
      <trkpt lat="44.99888" lon="0.48961">
        <ele>125.11</ele>
        <time>2018-12-14T13:29:28Z</time>
      </trkpt>
      <trkpt lat="44.99892" lon="0.4896">
        <ele>124.63</ele>
        <time>2018-12-14T13:29:38Z</time>
      </trkpt>
      <trkpt lat="44.99887" lon="0.4895">
        <ele>124.63</ele>
        <time>2018-12-14T13:29:52Z</time>
      </trkpt>
      <trkpt lat="44.99888" lon="0.48953">
        <ele>124.63</ele>
        <time>2018-12-14T13:30:03Z</time>
      </trkpt>
      <trkpt lat="44.99889" lon="0.48957">
        <ele>124.63</ele>
        <time>2018-12-14T13:30:06Z</time>
      </trkpt>
      <trkpt lat="44.99893" lon="0.4896">
        <ele>124.63</ele>
        <time>2018-12-14T13:30:10Z</time>
      </trkpt>
      <trkpt lat="44.99906" lon="0.48943">
        <ele>123.67</ele>
        <time>2018-12-14T13:30:27Z</time>
      </trkpt>
      <trkpt lat="44.99908" lon="0.4894">
        <ele>123.67</ele>
        <time>2018-12-14T13:30:32Z</time>
      </trkpt>
      <trkpt lat="44.99905" lon="0.4894">
        <ele>123.19</ele>
        <time>2018-12-14T13:30:48Z</time>
      </trkpt>
      <trkpt lat="44.99905" lon="0.48939">
        <ele>123.19</ele>
        <time>2018-12-14T13:31:07Z</time>
      </trkpt>
      <trkpt lat="44.99904" lon="0.4894">
        <ele>123.19</ele>
        <time>2018-12-14T13:31:30Z</time>
      </trkpt>
      <trkpt lat="44.99906" lon="0.48937">
        <ele>123.19</ele>
        <time>2018-12-14T13:32:01Z</time>
      </trkpt>
      <trkpt lat="44.99905" lon="0.48936">
        <ele>123.19</ele>
        <time>2018-12-14T13:32:09Z</time>
      </trkpt>
      <trkpt lat="44.999" lon="0.48931">
        <ele>123.19</ele>
        <time>2018-12-14T13:32:14Z</time>
      </trkpt>
      <trkpt lat="44.99885" lon="0.48912">
        <ele>123.67</ele>
        <time>2018-12-14T13:32:31Z</time>
      </trkpt>
      <trkpt lat="44.99867" lon="0.48889">
        <ele>123.67</ele>
        <time>2018-12-14T13:32:49Z</time>
      </trkpt>
      <trkpt lat="44.99845" lon="0.48858">
        <ele>123.67</ele>
        <time>2018-12-14T13:33:10Z</time>
      </trkpt>
      <trkpt lat="44.99835" lon="0.48844">
        <ele>125.11</ele>
        <time>2018-12-14T13:33:20Z</time>
      </trkpt>
      <trkpt lat="44.99813" lon="0.4882">
        <ele>126.07</ele>
        <time>2018-12-14T13:33:40Z</time>
      </trkpt>
      <trkpt lat="44.99792" lon="0.48796">
        <ele>127.03</ele>
        <time>2018-12-14T13:34:00Z</time>
      </trkpt>
      <trkpt lat="44.9978" lon="0.48776">
        <ele>128.47</ele>
        <time>2018-12-14T13:34:15Z</time>
      </trkpt>
      <trkpt lat="44.9977" lon="0.48751">
        <ele>129.92</ele>
        <time>2018-12-14T13:34:31Z</time>
      </trkpt>
      <trkpt lat="44.9976" lon="0.48729">
        <ele>129.92</ele>
        <time>2018-12-14T13:34:47Z</time>
      </trkpt>
      <trkpt lat="44.99755" lon="0.48719">
        <ele>129.92</ele>
        <time>2018-12-14T13:34:53Z</time>
      </trkpt>
      <trkpt lat="44.99743" lon="0.48692">
        <ele>130.4</ele>
        <time>2018-12-14T13:35:11Z</time>
      </trkpt>
      <trkpt lat="44.99733" lon="0.48666">
        <ele>131.84</ele>
        <time>2018-12-14T13:35:27Z</time>
      </trkpt>
      <trkpt lat="44.99719" lon="0.48639">
        <ele>131.84</ele>
        <time>2018-12-14T13:35:44Z</time>
      </trkpt>
      <trkpt lat="44.99702" lon="0.48617">
        <ele>131.84</ele>
        <time>2018-12-14T13:36:02Z</time>
      </trkpt>
      <trkpt lat="44.99687" lon="0.48603">
        <ele>131.84</ele>
        <time>2018-12-14T13:36:16Z</time>
      </trkpt>
      <trkpt lat="44.99677" lon="0.48584">
        <ele>131.84</ele>
        <time>2018-12-14T13:36:31Z</time>
      </trkpt>
      <trkpt lat="44.99671" lon="0.48567">
        <ele>131.84</ele>
        <time>2018-12-14T13:36:41Z</time>
      </trkpt>
      <trkpt lat="44.99664" lon="0.48531">
        <ele>131.84</ele>
        <time>2018-12-14T13:36:58Z</time>
      </trkpt>
      <trkpt lat="44.99657" lon="0.48499">
        <ele>132.8</ele>
        <time>2018-12-14T13:37:15Z</time>
      </trkpt>
      <trkpt lat="44.99647" lon="0.48471">
        <ele>133.76</ele>
        <time>2018-12-14T13:37:32Z</time>
      </trkpt>
      <trkpt lat="44.99634" lon="0.4844">
        <ele>135.68</ele>
        <time>2018-12-14T13:37:52Z</time>
      </trkpt>
      <trkpt lat="44.99623" lon="0.48411">
        <ele>137.13</ele>
        <time>2018-12-14T13:38:10Z</time>
      </trkpt>
      <trkpt lat="44.99615" lon="0.48384">
        <ele>138.57</ele>
        <time>2018-12-14T13:38:27Z</time>
      </trkpt>
      <trkpt lat="44.9961" lon="0.48362">
        <ele>138.57</ele>
        <time>2018-12-14T13:38:43Z</time>
      </trkpt>
      <trkpt lat="44.99603" lon="0.48336">
        <ele>138.57</ele>
        <time>2018-12-14T13:38:59Z</time>
      </trkpt>
      <trkpt lat="44.99595" lon="0.48306">
        <ele>137.13</ele>
        <time>2018-12-14T13:39:16Z</time>
      </trkpt>
      <trkpt lat="44.99589" lon="0.48281">
        <ele>136.64</ele>
        <time>2018-12-14T13:39:32Z</time>
      </trkpt>
      <trkpt lat="44.99589" lon="0.48279">
        <ele>136.64</ele>
        <time>2018-12-14T13:39:33Z</time>
      </trkpt>
      <trkpt lat="44.99582" lon="0.48252">
        <ele>136.64</ele>
        <time>2018-12-14T13:39:47Z</time>
      </trkpt>
      <trkpt lat="44.99575" lon="0.48221">
        <ele>136.64</ele>
        <time>2018-12-14T13:40:02Z</time>
      </trkpt>
      <trkpt lat="44.99574" lon="0.48215">
        <ele>138.09</ele>
        <time>2018-12-14T13:40:05Z</time>
      </trkpt>
      <trkpt lat="44.99569" lon="0.48186">
        <ele>140.01</ele>
        <time>2018-12-14T13:40:22Z</time>
      </trkpt>
      <trkpt lat="44.99566" lon="0.4816">
        <ele>142.41</ele>
        <time>2018-12-14T13:40:37Z</time>
      </trkpt>
      <trkpt lat="44.99561" lon="0.4813">
        <ele>144.82</ele>
        <time>2018-12-14T13:40:57Z</time>
      </trkpt>
      <trkpt lat="44.99556" lon="0.48103">
        <ele>145.3</ele>
        <time>2018-12-14T13:41:13Z</time>
      </trkpt>
      <trkpt lat="44.99553" lon="0.48069">
        <ele>145.3</ele>
        <time>2018-12-14T13:41:32Z</time>
      </trkpt>
      <trkpt lat="44.99553" lon="0.48039">
        <ele>145.78</ele>
        <time>2018-12-14T13:41:48Z</time>
      </trkpt>
      <trkpt lat="44.99551" lon="0.48006">
        <ele>146.26</ele>
        <time>2018-12-14T13:42:06Z</time>
      </trkpt>
      <trkpt lat="44.99548" lon="0.47977">
        <ele>146.74</ele>
        <time>2018-12-14T13:42:22Z</time>
      </trkpt>
      <trkpt lat="44.99546" lon="0.47941">
        <ele>147.7</ele>
        <time>2018-12-14T13:42:41Z</time>
      </trkpt>
      <trkpt lat="44.99541" lon="0.47908">
        <ele>147.7</ele>
        <time>2018-12-14T13:43:00Z</time>
      </trkpt>
      <trkpt lat="44.99541" lon="0.47902">
        <ele>146.26</ele>
        <time>2018-12-14T13:43:04Z</time>
      </trkpt>
      <trkpt lat="44.99539" lon="0.47887">
        <ele>145.78</ele>
        <time>2018-12-14T13:43:13Z</time>
      </trkpt>
      <trkpt lat="44.99536" lon="0.47855">
        <ele>144.82</ele>
        <time>2018-12-14T13:43:31Z</time>
      </trkpt>
      <trkpt lat="44.99535" lon="0.47833">
        <ele>143.85</ele>
        <time>2018-12-14T13:43:43Z</time>
      </trkpt>
      <trkpt lat="44.99535" lon="0.47831">
        <ele>143.85</ele>
        <time>2018-12-14T13:43:44Z</time>
      </trkpt>
      <trkpt lat="44.99533" lon="0.4781">
        <ele>143.37</ele>
        <time>2018-12-14T13:43:56Z</time>
      </trkpt>
      <trkpt lat="44.99533" lon="0.47804">
        <ele>142.89</ele>
        <time>2018-12-14T13:43:59Z</time>
      </trkpt>
      <trkpt lat="44.99533" lon="0.47794">
        <ele>142.41</ele>
        <time>2018-12-14T13:44:04Z</time>
      </trkpt>
      <trkpt lat="44.9953" lon="0.47758">
        <ele>141.45</ele>
        <time>2018-12-14T13:44:22Z</time>
      </trkpt>
      <trkpt lat="44.99527" lon="0.47721">
        <ele>140.01</ele>
        <time>2018-12-14T13:44:41Z</time>
      </trkpt>
      <trkpt lat="44.99524" lon="0.47682">
        <ele>138.09</ele>
        <time>2018-12-14T13:45:01Z</time>
      </trkpt>
      <trkpt lat="44.99523" lon="0.47646">
        <ele>136.16</ele>
        <time>2018-12-14T13:45:20Z</time>
      </trkpt>
      <trkpt lat="44.99523" lon="0.47614">
        <ele>134.24</ele>
        <time>2018-12-14T13:45:37Z</time>
      </trkpt>
      <trkpt lat="44.99524" lon="0.47608">
        <ele>134.24</ele>
        <time>2018-12-14T13:45:50Z</time>
      </trkpt>
      <trkpt lat="44.99517" lon="0.47603">
        <ele>134.24</ele>
        <time>2018-12-14T13:46:06Z</time>
      </trkpt>
      <trkpt lat="44.99493" lon="0.47596">
        <ele>133.76</ele>
        <time>2018-12-14T13:46:24Z</time>
      </trkpt>
      <trkpt lat="44.99472" lon="0.47594">
        <ele>133.76</ele>
        <time>2018-12-14T13:46:40Z</time>
      </trkpt>
      <trkpt lat="44.99452" lon="0.47591">
        <ele>133.76</ele>
        <time>2018-12-14T13:46:55Z</time>
      </trkpt>
      <trkpt lat="44.99426" lon="0.47593">
        <ele>133.76</ele>
        <time>2018-12-14T13:47:14Z</time>
      </trkpt>
      <trkpt lat="44.99407" lon="0.47595">
        <ele>135.2</ele>
        <time>2018-12-14T13:47:29Z</time>
      </trkpt>
      <trkpt lat="44.99385" lon="0.47595">
        <ele>135.68</ele>
        <time>2018-12-14T13:47:47Z</time>
      </trkpt>
      <trkpt lat="44.99363" lon="0.47594">
        <ele>137.13</ele>
        <time>2018-12-14T13:48:04Z</time>
      </trkpt>
      <trkpt lat="44.99345" lon="0.47599">
        <ele>138.57</ele>
        <time>2018-12-14T13:48:19Z</time>
      </trkpt>
      <trkpt lat="44.99323" lon="0.47599">
        <ele>140.97</ele>
        <time>2018-12-14T13:48:37Z</time>
      </trkpt>
      <trkpt lat="44.99303" lon="0.47599">
        <ele>143.37</ele>
        <time>2018-12-14T13:48:54Z</time>
      </trkpt>
      <trkpt lat="44.99302" lon="0.47598">
        <ele>143.37</ele>
        <time>2018-12-14T13:48:55Z</time>
      </trkpt>
      <trkpt lat="44.99282" lon="0.47593">
        <ele>145.3</ele>
        <time>2018-12-14T13:49:12Z</time>
      </trkpt>
      <trkpt lat="44.99262" lon="0.47586">
        <ele>146.74</ele>
        <time>2018-12-14T13:49:31Z</time>
      </trkpt>
      <trkpt lat="44.99246" lon="0.47578">
        <ele>147.22</ele>
        <time>2018-12-14T13:49:47Z</time>
      </trkpt>
      <trkpt lat="44.99225" lon="0.47571">
        <ele>146.26</ele>
        <time>2018-12-14T13:50:02Z</time>
      </trkpt>
      <trkpt lat="44.99197" lon="0.47557">
        <ele>145.3</ele>
        <time>2018-12-14T13:50:22Z</time>
      </trkpt>
      <trkpt lat="44.99176" lon="0.47549">
        <ele>144.34</ele>
        <time>2018-12-14T13:50:37Z</time>
      </trkpt>
      <trkpt lat="44.9915" lon="0.47544">
        <ele>143.37</ele>
        <time>2018-12-14T13:50:54Z</time>
      </trkpt>
      <trkpt lat="44.99122" lon="0.47535">
        <ele>141.45</ele>
        <time>2018-12-14T13:51:14Z</time>
      </trkpt>
      <trkpt lat="44.99101" lon="0.47524">
        <ele>140.49</ele>
        <time>2018-12-14T13:51:30Z</time>
      </trkpt>
      <trkpt lat="44.99078" lon="0.4751">
        <ele>139.53</ele>
        <time>2018-12-14T13:51:48Z</time>
      </trkpt>
      <trkpt lat="44.99051" lon="0.47499">
        <ele>139.05</ele>
        <time>2018-12-14T13:52:07Z</time>
      </trkpt>
      <trkpt lat="44.99029" lon="0.47492">
        <ele>138.57</ele>
        <time>2018-12-14T13:52:24Z</time>
      </trkpt>
      <trkpt lat="44.99007" lon="0.47482">
        <ele>138.09</ele>
        <time>2018-12-14T13:52:41Z</time>
      </trkpt>
      <trkpt lat="44.98983" lon="0.47473">
        <ele>137.61</ele>
        <time>2018-12-14T13:52:58Z</time>
      </trkpt>
      <trkpt lat="44.98958" lon="0.47459">
        <ele>136.64</ele>
        <time>2018-12-14T13:53:17Z</time>
      </trkpt>
      <trkpt lat="44.98934" lon="0.47438">
        <ele>136.16</ele>
        <time>2018-12-14T13:53:38Z</time>
      </trkpt>
      <trkpt lat="44.98918" lon="0.47413">
        <ele>135.68</ele>
        <time>2018-12-14T13:53:57Z</time>
      </trkpt>
      <trkpt lat="44.98896" lon="0.47381">
        <ele>133.28</ele>
        <time>2018-12-14T13:54:18Z</time>
      </trkpt>
      <trkpt lat="44.98876" lon="0.47356">
        <ele>130.88</ele>
        <time>2018-12-14T13:54:37Z</time>
      </trkpt>
      <trkpt lat="44.98859" lon="0.47334">
        <ele>127.99</ele>
        <time>2018-12-14T13:54:55Z</time>
      </trkpt>
      <trkpt lat="44.98842" lon="0.47314">
        <ele>124.63</ele>
        <time>2018-12-14T13:55:12Z</time>
      </trkpt>
      <trkpt lat="44.98825" lon="0.47311">
        <ele>122.22</ele>
        <time>2018-12-14T13:55:26Z</time>
      </trkpt>
      <trkpt lat="44.98809" lon="0.47314">
        <ele>118.86</ele>
        <time>2018-12-14T13:55:41Z</time>
      </trkpt>
      <trkpt lat="44.98805" lon="0.47315">
        <ele>118.86</ele>
        <time>2018-12-14T13:55:44Z</time>
      </trkpt>
      <trkpt lat="44.988" lon="0.47315">
        <ele>117.42</ele>
        <time>2018-12-14T13:55:48Z</time>
      </trkpt>
      <trkpt lat="44.98778" lon="0.47315">
        <ele>115.01</ele>
        <time>2018-12-14T13:56:07Z</time>
      </trkpt>
      <trkpt lat="44.98755" lon="0.47313">
        <ele>112.61</ele>
        <time>2018-12-14T13:56:24Z</time>
      </trkpt>
      <trkpt lat="44.98738" lon="0.47309">
        <ele>110.21</ele>
        <time>2018-12-14T13:56:39Z</time>
      </trkpt>
      <trkpt lat="44.98722" lon="0.47301">
        <ele>108.29</ele>
        <time>2018-12-14T13:56:54Z</time>
      </trkpt>
      <trkpt lat="44.98718" lon="0.47298">
        <ele>107.32</ele>
        <time>2018-12-14T13:56:59Z</time>
      </trkpt>
      <trkpt lat="44.98701" lon="0.47286">
        <ele>105.88</ele>
        <time>2018-12-14T13:57:15Z</time>
      </trkpt>
      <trkpt lat="44.98679" lon="0.47268">
        <ele>104.44</ele>
        <time>2018-12-14T13:57:32Z</time>
      </trkpt>
      <trkpt lat="44.98655" lon="0.47255">
        <ele>103</ele>
        <time>2018-12-14T13:57:49Z</time>
      </trkpt>
      <trkpt lat="44.98631" lon="0.47246">
        <ele>101.56</ele>
        <time>2018-12-14T13:58:08Z</time>
      </trkpt>
      <trkpt lat="44.98609" lon="0.47241">
        <ele>100.6</ele>
        <time>2018-12-14T13:58:26Z</time>
      </trkpt>
      <trkpt lat="44.98585" lon="0.47232">
        <ele>97.71</ele>
        <time>2018-12-14T13:58:45Z</time>
      </trkpt>
      <trkpt lat="44.98565" lon="0.47223">
        <ele>96.27</ele>
        <time>2018-12-14T13:59:02Z</time>
      </trkpt>
      <trkpt lat="44.98557" lon="0.47223">
        <ele>95.79</ele>
        <time>2018-12-14T13:59:16Z</time>
      </trkpt>
      <trkpt lat="44.98553" lon="0.47221">
        <ele>95.31</ele>
        <time>2018-12-14T13:59:31Z</time>
      </trkpt>
      <trkpt lat="44.9855" lon="0.47222">
        <ele>94.83</ele>
        <time>2018-12-14T13:59:48Z</time>
      </trkpt>
      <trkpt lat="44.98547" lon="0.47224">
        <ele>94.35</ele>
        <time>2018-12-14T14:00:11Z</time>
      </trkpt>
      <trkpt lat="44.98547" lon="0.47229">
        <ele>94.35</ele>
        <time>2018-12-14T14:00:50Z</time>
      </trkpt>
      <trkpt lat="44.98546" lon="0.47226">
        <ele>94.35</ele>
        <time>2018-12-14T14:01:12Z</time>
      </trkpt>
      <trkpt lat="44.98547" lon="0.47226">
        <ele>94.35</ele>
        <time>2018-12-14T14:01:34Z</time>
      </trkpt>
      <trkpt lat="44.98551" lon="0.47225">
        <ele>95.79</ele>
        <time>2018-12-14T14:01:58Z</time>
      </trkpt>
      <trkpt lat="44.98547" lon="0.47227">
        <ele>95.79</ele>
        <time>2018-12-14T14:02:17Z</time>
      </trkpt>
      <trkpt lat="44.98539" lon="0.47232">
        <ele>96.27</ele>
        <time>2018-12-14T14:02:34Z</time>
      </trkpt>
      <trkpt lat="44.98529" lon="0.47224">
        <ele>94.83</ele>
        <time>2018-12-14T14:02:47Z</time>
      </trkpt>
      <trkpt lat="44.98523" lon="0.47213">
        <ele>93.39</ele>
        <time>2018-12-14T14:03:03Z</time>
      </trkpt>
      <trkpt lat="44.98511" lon="0.47213">
        <ele>93.39</ele>
        <time>2018-12-14T14:03:17Z</time>
      </trkpt>
      <trkpt lat="44.98489" lon="0.47219">
        <ele>93.87</ele>
        <time>2018-12-14T14:03:35Z</time>
      </trkpt>
      <trkpt lat="44.98469" lon="0.47222">
        <ele>93.87</ele>
        <time>2018-12-14T14:03:52Z</time>
      </trkpt>
      <trkpt lat="44.9845" lon="0.4723">
        <ele>93.87</ele>
        <time>2018-12-14T14:04:08Z</time>
      </trkpt>
      <trkpt lat="44.98428" lon="0.47233">
        <ele>93.87</ele>
        <time>2018-12-14T14:04:25Z</time>
      </trkpt>
      <trkpt lat="44.98402" lon="0.47233">
        <ele>93.87</ele>
        <time>2018-12-14T14:04:44Z</time>
      </trkpt>
      <trkpt lat="44.98379" lon="0.47248">
        <ele>94.83</ele>
        <time>2018-12-14T14:05:03Z</time>
      </trkpt>
      <trkpt lat="44.98371" lon="0.47257">
        <ele>94.83</ele>
        <time>2018-12-14T14:05:11Z</time>
      </trkpt>
      <trkpt lat="44.98355" lon="0.47276">
        <ele>95.79</ele>
        <time>2018-12-14T14:05:28Z</time>
      </trkpt>
      <trkpt lat="44.98342" lon="0.47305">
        <ele>95.79</ele>
        <time>2018-12-14T14:05:45Z</time>
      </trkpt>
      <trkpt lat="44.98336" lon="0.47334">
        <ele>96.27</ele>
        <time>2018-12-14T14:06:00Z</time>
      </trkpt>
      <trkpt lat="44.9833" lon="0.47372">
        <ele>96.75</ele>
        <time>2018-12-14T14:06:19Z</time>
      </trkpt>
      <trkpt lat="44.98325" lon="0.47398">
        <ele>97.23</ele>
        <time>2018-12-14T14:06:38Z</time>
      </trkpt>
      <trkpt lat="44.98316" lon="0.47424">
        <ele>97.71</ele>
        <time>2018-12-14T14:06:54Z</time>
      </trkpt>
      <trkpt lat="44.983" lon="0.4745">
        <ele>98.19</ele>
        <time>2018-12-14T14:07:13Z</time>
      </trkpt>
      <trkpt lat="44.98298" lon="0.47458">
        <ele>98.67</ele>
        <time>2018-12-14T14:07:29Z</time>
      </trkpt>
      <trkpt lat="44.98298" lon="0.47458">
        <ele>98.67</ele>
        <time>2018-12-14T14:07:49Z</time>
      </trkpt>
      <trkpt lat="44.983" lon="0.47459">
        <ele>99.15</ele>
        <time>2018-12-14T14:08:09Z</time>
      </trkpt>
      <trkpt lat="44.983" lon="0.47459">
        <ele>99.15</ele>
        <time>2018-12-14T14:08:23Z</time>
      </trkpt>
      <trkpt lat="44.983" lon="0.47461">
        <ele>99.63</ele>
        <time>2018-12-14T14:08:48Z</time>
      </trkpt>
      <trkpt lat="44.98301" lon="0.47457">
        <ele>99.63</ele>
        <time>2018-12-14T14:09:18Z</time>
      </trkpt>
      <trkpt lat="44.98299" lon="0.47461">
        <ele>100.11</ele>
        <time>2018-12-14T14:09:43Z</time>
      </trkpt>
      <trkpt lat="44.98289" lon="0.47469">
        <ele>100.11</ele>
        <time>2018-12-14T14:10:09Z</time>
      </trkpt>
      <trkpt lat="44.98271" lon="0.47489">
        <ele>100.6</ele>
        <time>2018-12-14T14:10:26Z</time>
      </trkpt>
      <trkpt lat="44.98252" lon="0.47508">
        <ele>100.6</ele>
        <time>2018-12-14T14:10:43Z</time>
      </trkpt>
      <trkpt lat="44.98231" lon="0.47533">
        <ele>101.08</ele>
        <time>2018-12-14T14:11:02Z</time>
      </trkpt>
      <trkpt lat="44.98209" lon="0.47559">
        <ele>101.56</ele>
        <time>2018-12-14T14:11:23Z</time>
      </trkpt>
      <trkpt lat="44.98189" lon="0.47587">
        <ele>102.52</ele>
        <time>2018-12-14T14:11:43Z</time>
      </trkpt>
      <trkpt lat="44.98166" lon="0.47607">
        <ele>103.48</ele>
        <time>2018-12-14T14:12:02Z</time>
      </trkpt>
      <trkpt lat="44.98152" lon="0.47614">
        <ele>103.96</ele>
        <time>2018-12-14T14:12:18Z</time>
      </trkpt>
      <trkpt lat="44.98151" lon="0.47615">
        <ele>103.96</ele>
        <time>2018-12-14T14:12:19Z</time>
      </trkpt>
      <trkpt lat="44.98143" lon="0.47619">
        <ele>104.44</ele>
        <time>2018-12-14T14:12:26Z</time>
      </trkpt>
      <trkpt lat="44.98122" lon="0.47633">
        <ele>105.4</ele>
        <time>2018-12-14T14:12:44Z</time>
      </trkpt>
      <trkpt lat="44.98131" lon="0.47664">
        <ele>104.44</ele>
        <time>2018-12-14T14:13:00Z</time>
      </trkpt>
      <trkpt lat="44.98148" lon="0.47699">
        <ele>103.96</ele>
        <time>2018-12-14T14:13:19Z</time>
      </trkpt>
      <trkpt lat="44.98164" lon="0.47737">
        <ele>104.44</ele>
        <time>2018-12-14T14:13:41Z</time>
      </trkpt>
      <trkpt lat="44.98179" lon="0.47767">
        <ele>104.44</ele>
        <time>2018-12-14T14:14:00Z</time>
      </trkpt>
      <trkpt lat="44.98191" lon="0.47796">
        <ele>105.88</ele>
        <time>2018-12-14T14:14:18Z</time>
      </trkpt>
      <trkpt lat="44.98208" lon="0.4782">
        <ele>107.32</ele>
        <time>2018-12-14T14:14:36Z</time>
      </trkpt>
      <trkpt lat="44.98225" lon="0.47835">
        <ele>108.77</ele>
        <time>2018-12-14T14:14:52Z</time>
      </trkpt>
      <trkpt lat="44.98233" lon="0.47845">
        <ele>109.73</ele>
        <time>2018-12-14T14:15:02Z</time>
      </trkpt>
      <trkpt lat="44.98235" lon="0.47863">
        <ele>110.21</ele>
        <time>2018-12-14T14:15:16Z</time>
      </trkpt>
      <trkpt lat="44.98226" lon="0.47878">
        <ele>110.21</ele>
        <time>2018-12-14T14:15:30Z</time>
      </trkpt>
      <trkpt lat="44.98223" lon="0.47879">
        <ele>110.21</ele>
        <time>2018-12-14T14:15:32Z</time>
      </trkpt>
      <trkpt lat="44.98201" lon="0.47894">
        <ele>110.21</ele>
        <time>2018-12-14T14:15:49Z</time>
      </trkpt>
      <trkpt lat="44.98184" lon="0.47907">
        <ele>110.21</ele>
        <time>2018-12-14T14:16:04Z</time>
      </trkpt>
      <trkpt lat="44.98167" lon="0.47922">
        <ele>110.21</ele>
        <time>2018-12-14T14:16:18Z</time>
      </trkpt>
      <trkpt lat="44.98152" lon="0.47936">
        <ele>110.21</ele>
        <time>2018-12-14T14:16:31Z</time>
      </trkpt>
      <trkpt lat="44.98138" lon="0.47946">
        <ele>109.73</ele>
        <time>2018-12-14T14:16:44Z</time>
      </trkpt>
      <trkpt lat="44.98123" lon="0.47957">
        <ele>109.73</ele>
        <time>2018-12-14T14:16:59Z</time>
      </trkpt>
      <trkpt lat="44.9811" lon="0.47971">
        <ele>109.73</ele>
        <time>2018-12-14T14:17:13Z</time>
      </trkpt>
      <trkpt lat="44.98098" lon="0.47981">
        <ele>110.21</ele>
        <time>2018-12-14T14:17:25Z</time>
      </trkpt>
      <trkpt lat="44.98083" lon="0.47995">
        <ele>110.21</ele>
        <time>2018-12-14T14:17:38Z</time>
      </trkpt>
      <trkpt lat="44.98068" lon="0.4801">
        <ele>110.21</ele>
        <time>2018-12-14T14:17:51Z</time>
      </trkpt>
      <trkpt lat="44.98049" lon="0.48028">
        <ele>109.73</ele>
        <time>2018-12-14T14:18:05Z</time>
      </trkpt>
      <trkpt lat="44.98033" lon="0.48045">
        <ele>110.21</ele>
        <time>2018-12-14T14:18:21Z</time>
      </trkpt>
      <trkpt lat="44.98023" lon="0.48062">
        <ele>110.21</ele>
        <time>2018-12-14T14:18:34Z</time>
      </trkpt>
      <trkpt lat="44.9801" lon="0.48081">
        <ele>110.69</ele>
        <time>2018-12-14T14:18:47Z</time>
      </trkpt>
      <trkpt lat="44.98" lon="0.48098">
        <ele>110.69</ele>
        <time>2018-12-14T14:19:01Z</time>
      </trkpt>
      <trkpt lat="44.97988" lon="0.48117">
        <ele>111.17</ele>
        <time>2018-12-14T14:19:15Z</time>
      </trkpt>
      <trkpt lat="44.97976" lon="0.48139">
        <ele>111.17</ele>
        <time>2018-12-14T14:19:31Z</time>
      </trkpt>
      <trkpt lat="44.97966" lon="0.48149">
        <ele>111.65</ele>
        <time>2018-12-14T14:19:43Z</time>
      </trkpt>
      <trkpt lat="44.97949" lon="0.48164">
        <ele>112.61</ele>
        <time>2018-12-14T14:20:00Z</time>
      </trkpt>
      <trkpt lat="44.97935" lon="0.48177">
        <ele>114.53</ele>
        <time>2018-12-14T14:20:15Z</time>
      </trkpt>
      <trkpt lat="44.97919" lon="0.48195">
        <ele>116.94</ele>
        <time>2018-12-14T14:20:32Z</time>
      </trkpt>
      <trkpt lat="44.97904" lon="0.48207">
        <ele>119.34</ele>
        <time>2018-12-14T14:20:48Z</time>
      </trkpt>
      <trkpt lat="44.97889" lon="0.48218">
        <ele>120.78</ele>
        <time>2018-12-14T14:21:03Z</time>
      </trkpt>
      <trkpt lat="44.97876" lon="0.48225">
        <ele>122.22</ele>
        <time>2018-12-14T14:21:16Z</time>
      </trkpt>
      <trkpt lat="44.97858" lon="0.48238">
        <ele>123.67</ele>
        <time>2018-12-14T14:21:33Z</time>
      </trkpt>
      <trkpt lat="44.97843" lon="0.4826">
        <ele>124.15</ele>
        <time>2018-12-14T14:21:49Z</time>
      </trkpt>
      <trkpt lat="44.9783" lon="0.48281">
        <ele>124.15</ele>
        <time>2018-12-14T14:22:05Z</time>
      </trkpt>
      <trkpt lat="44.97818" lon="0.48301">
        <ele>124.15</ele>
        <time>2018-12-14T14:22:19Z</time>
      </trkpt>
      <trkpt lat="44.97812" lon="0.48312">
        <ele>124.15</ele>
        <time>2018-12-14T14:22:26Z</time>
      </trkpt>
      <trkpt lat="44.97799" lon="0.48335">
        <ele>125.11</ele>
        <time>2018-12-14T14:22:42Z</time>
      </trkpt>
      <trkpt lat="44.97787" lon="0.48358">
        <ele>126.07</ele>
        <time>2018-12-14T14:22:56Z</time>
      </trkpt>
      <trkpt lat="44.9778" lon="0.48373">
        <ele>126.55</ele>
        <time>2018-12-14T14:23:04Z</time>
      </trkpt>
      <trkpt lat="44.97766" lon="0.48396">
        <ele>127.03</ele>
        <time>2018-12-14T14:23:21Z</time>
      </trkpt>
      <trkpt lat="44.97756" lon="0.48413">
        <ele>127.03</ele>
        <time>2018-12-14T14:23:32Z</time>
      </trkpt>
      <trkpt lat="44.97745" lon="0.48436">
        <ele>127.03</ele>
        <time>2018-12-14T14:23:47Z</time>
      </trkpt>
      <trkpt lat="44.9773" lon="0.48463">
        <ele>127.99</ele>
        <time>2018-12-14T14:24:05Z</time>
      </trkpt>
      <trkpt lat="44.97715" lon="0.4849">
        <ele>129.43</ele>
        <time>2018-12-14T14:24:23Z</time>
      </trkpt>
      <trkpt lat="44.97701" lon="0.48517">
        <ele>129.43</ele>
        <time>2018-12-14T14:24:40Z</time>
      </trkpt>
      <trkpt lat="44.9769" lon="0.48545">
        <ele>129.43</ele>
        <time>2018-12-14T14:24:56Z</time>
      </trkpt>
      <trkpt lat="44.97678" lon="0.48569">
        <ele>128.47</ele>
        <time>2018-12-14T14:25:12Z</time>
      </trkpt>
      <trkpt lat="44.97664" lon="0.48602">
        <ele>127.99</ele>
        <time>2018-12-14T14:25:31Z</time>
      </trkpt>
      <trkpt lat="44.97658" lon="0.48632">
        <ele>128.47</ele>
        <time>2018-12-14T14:25:47Z</time>
      </trkpt>
      <trkpt lat="44.97654" lon="0.48668">
        <ele>128.47</ele>
        <time>2018-12-14T14:26:05Z</time>
      </trkpt>
      <trkpt lat="44.97651" lon="0.48699">
        <ele>128.47</ele>
        <time>2018-12-14T14:26:20Z</time>
      </trkpt>
      <trkpt lat="44.97648" lon="0.48729">
        <ele>128.47</ele>
        <time>2018-12-14T14:26:36Z</time>
      </trkpt>
      <trkpt lat="44.97642" lon="0.48761">
        <ele>130.4</ele>
        <time>2018-12-14T14:26:55Z</time>
      </trkpt>
      <trkpt lat="44.97637" lon="0.48791">
        <ele>131.84</ele>
        <time>2018-12-14T14:27:12Z</time>
      </trkpt>
      <trkpt lat="44.97631" lon="0.48828">
        <ele>132.8</ele>
        <time>2018-12-14T14:27:31Z</time>
      </trkpt>
      <trkpt lat="44.97625" lon="0.48863">
        <ele>133.28</ele>
        <time>2018-12-14T14:27:50Z</time>
      </trkpt>
      <trkpt lat="44.97627" lon="0.48897">
        <ele>133.28</ele>
        <time>2018-12-14T14:28:09Z</time>
      </trkpt>
      <trkpt lat="44.97635" lon="0.48928">
        <ele>132.32</ele>
        <time>2018-12-14T14:28:26Z</time>
      </trkpt>
      <trkpt lat="44.97639" lon="0.48955">
        <ele>133.76</ele>
        <time>2018-12-14T14:28:41Z</time>
      </trkpt>
      <trkpt lat="44.97639" lon="0.48984">
        <ele>133.76</ele>
        <time>2018-12-14T14:28:58Z</time>
      </trkpt>
      <trkpt lat="44.97633" lon="0.49015">
        <ele>134.24</ele>
        <time>2018-12-14T14:29:16Z</time>
      </trkpt>
      <trkpt lat="44.97626" lon="0.49046">
        <ele>134.24</ele>
        <time>2018-12-14T14:29:33Z</time>
      </trkpt>
      <trkpt lat="44.97618" lon="0.49081">
        <ele>134.24</ele>
        <time>2018-12-14T14:29:51Z</time>
      </trkpt>
      <trkpt lat="44.97614" lon="0.49114">
        <ele>134.72</ele>
        <time>2018-12-14T14:30:09Z</time>
      </trkpt>
      <trkpt lat="44.97615" lon="0.49116">
        <ele>134.72</ele>
        <time>2018-12-14T14:30:29Z</time>
      </trkpt>
      <trkpt lat="44.97616" lon="0.49118">
        <ele>134.72</ele>
        <time>2018-12-14T14:30:31Z</time>
      </trkpt>
      <trkpt lat="44.97618" lon="0.49121">
        <ele>134.72</ele>
        <time>2018-12-14T14:30:33Z</time>
      </trkpt>
      <trkpt lat="44.97621" lon="0.49122">
        <ele>133.76</ele>
        <time>2018-12-14T14:30:36Z</time>
      </trkpt>
      <trkpt lat="44.97628" lon="0.49125">
        <ele>133.28</ele>
        <time>2018-12-14T14:30:43Z</time>
      </trkpt>
      <trkpt lat="44.97632" lon="0.49127">
        <ele>132.8</ele>
        <time>2018-12-14T14:30:47Z</time>
      </trkpt>
      <trkpt lat="44.9765" lon="0.49138">
        <ele>130.88</ele>
        <time>2018-12-14T14:31:03Z</time>
      </trkpt>
      <trkpt lat="44.97668" lon="0.49156">
        <ele>128.47</ele>
        <time>2018-12-14T14:31:20Z</time>
      </trkpt>
      <trkpt lat="44.9767" lon="0.49159">
        <ele>128.47</ele>
        <time>2018-12-14T14:31:22Z</time>
      </trkpt>
      <trkpt lat="44.97674" lon="0.49167">
        <ele>127.99</ele>
        <time>2018-12-14T14:31:27Z</time>
      </trkpt>
      <trkpt lat="44.9769" lon="0.49193">
        <ele>127.99</ele>
        <time>2018-12-14T14:31:42Z</time>
      </trkpt>
      <trkpt lat="44.97698" lon="0.49212">
        <ele>127.99</ele>
        <time>2018-12-14T14:31:55Z</time>
      </trkpt>
      <trkpt lat="44.97699" lon="0.49214">
        <ele>127.99</ele>
        <time>2018-12-14T14:31:56Z</time>
      </trkpt>
      <trkpt lat="44.9771" lon="0.49242">
        <ele>127.99</ele>
        <time>2018-12-14T14:32:12Z</time>
      </trkpt>
      <trkpt lat="44.97715" lon="0.49252">
        <ele>129.43</ele>
        <time>2018-12-14T14:32:18Z</time>
      </trkpt>
      <trkpt lat="44.97724" lon="0.49276">
        <ele>129.92</ele>
        <time>2018-12-14T14:32:32Z</time>
      </trkpt>
      <trkpt lat="44.97729" lon="0.49287">
        <ele>129.92</ele>
        <time>2018-12-14T14:32:38Z</time>
      </trkpt>
      <trkpt lat="44.97739" lon="0.49314">
        <ele>130.4</ele>
        <time>2018-12-14T14:32:54Z</time>
      </trkpt>
      <trkpt lat="44.97754" lon="0.49348">
        <ele>130.88</ele>
        <time>2018-12-14T14:33:13Z</time>
      </trkpt>
      <trkpt lat="44.97765" lon="0.49375">
        <ele>130.88</ele>
        <time>2018-12-14T14:33:30Z</time>
      </trkpt>
      <trkpt lat="44.9778" lon="0.49403">
        <ele>129.92</ele>
        <time>2018-12-14T14:33:47Z</time>
      </trkpt>
      <trkpt lat="44.97795" lon="0.49435">
        <ele>128.95</ele>
        <time>2018-12-14T14:34:05Z</time>
      </trkpt>
      <trkpt lat="44.97816" lon="0.49456">
        <ele>128.95</ele>
        <time>2018-12-14T14:34:24Z</time>
      </trkpt>
      <trkpt lat="44.97839" lon="0.49469">
        <ele>128.95</ele>
        <time>2018-12-14T14:34:41Z</time>
      </trkpt>
      <trkpt lat="44.97863" lon="0.49484">
        <ele>128.95</ele>
        <time>2018-12-14T14:35:00Z</time>
      </trkpt>
      <trkpt lat="44.97868" lon="0.49488">
        <ele>128.95</ele>
        <time>2018-12-14T14:35:04Z</time>
      </trkpt>
      <trkpt lat="44.97886" lon="0.49502">
        <ele>129.43</ele>
        <time>2018-12-14T14:35:19Z</time>
      </trkpt>
      <trkpt lat="44.97909" lon="0.49518">
        <ele>129.43</ele>
        <time>2018-12-14T14:35:37Z</time>
      </trkpt>
      <trkpt lat="44.97928" lon="0.49532">
        <ele>129.43</ele>
        <time>2018-12-14T14:35:53Z</time>
      </trkpt>
      <trkpt lat="44.97953" lon="0.49552">
        <ele>130.88</ele>
        <time>2018-12-14T14:36:11Z</time>
      </trkpt>
      <trkpt lat="44.97972" lon="0.49582">
        <ele>131.36</ele>
        <time>2018-12-14T14:36:30Z</time>
      </trkpt>
      <trkpt lat="44.97983" lon="0.49611">
        <ele>131.84</ele>
        <time>2018-12-14T14:36:48Z</time>
      </trkpt>
      <trkpt lat="44.97996" lon="0.49642">
        <ele>132.8</ele>
        <time>2018-12-14T14:37:07Z</time>
      </trkpt>
      <trkpt lat="44.98009" lon="0.49669">
        <ele>133.76</ele>
        <time>2018-12-14T14:37:24Z</time>
      </trkpt>
      <trkpt lat="44.98023" lon="0.497">
        <ele>134.72</ele>
        <time>2018-12-14T14:37:42Z</time>
      </trkpt>
      <trkpt lat="44.98035" lon="0.49725">
        <ele>135.68</ele>
        <time>2018-12-14T14:37:57Z</time>
      </trkpt>
      <trkpt lat="44.98044" lon="0.49748">
        <ele>136.16</ele>
        <time>2018-12-14T14:38:12Z</time>
      </trkpt>
      <trkpt lat="44.98056" lon="0.49775">
        <ele>136.16</ele>
        <time>2018-12-14T14:38:28Z</time>
      </trkpt>
      <trkpt lat="44.9807" lon="0.49804">
        <ele>136.64</ele>
        <time>2018-12-14T14:38:45Z</time>
      </trkpt>
      <trkpt lat="44.98083" lon="0.49832">
        <ele>137.61</ele>
        <time>2018-12-14T14:39:02Z</time>
      </trkpt>
      <trkpt lat="44.98094" lon="0.49857">
        <ele>138.57</ele>
        <time>2018-12-14T14:39:17Z</time>
      </trkpt>
      <trkpt lat="44.98103" lon="0.49888">
        <ele>139.05</ele>
        <time>2018-12-14T14:39:35Z</time>
      </trkpt>
      <trkpt lat="44.98116" lon="0.49919">
        <ele>140.01</ele>
        <time>2018-12-14T14:39:55Z</time>
      </trkpt>
      <trkpt lat="44.98129" lon="0.49943">
        <ele>140.97</ele>
        <time>2018-12-14T14:40:12Z</time>
      </trkpt>
      <trkpt lat="44.98144" lon="0.49963">
        <ele>141.93</ele>
        <time>2018-12-14T14:40:28Z</time>
      </trkpt>
      <trkpt lat="44.98157" lon="0.49985">
        <ele>142.89</ele>
        <time>2018-12-14T14:40:44Z</time>
      </trkpt>
      <trkpt lat="44.98167" lon="0.50008">
        <ele>143.85</ele>
        <time>2018-12-14T14:40:59Z</time>
      </trkpt>
      <trkpt lat="44.98179" lon="0.50038">
        <ele>145.78</ele>
        <time>2018-12-14T14:41:18Z</time>
      </trkpt>
      <trkpt lat="44.98187" lon="0.50044">
        <ele>146.74</ele>
        <time>2018-12-14T14:41:29Z</time>
      </trkpt>
      <trkpt lat="44.98204" lon="0.50031">
        <ele>147.22</ele>
        <time>2018-12-14T14:41:47Z</time>
      </trkpt>
      <trkpt lat="44.98221" lon="0.50018">
        <ele>149.14</ele>
        <time>2018-12-14T14:42:04Z</time>
      </trkpt>
      <trkpt lat="44.98239" lon="0.50007">
        <ele>149.62</ele>
        <time>2018-12-14T14:42:20Z</time>
      </trkpt>
      <trkpt lat="44.98263" lon="0.4999">
        <ele>150.1</ele>
        <time>2018-12-14T14:42:38Z</time>
      </trkpt>
      <trkpt lat="44.98269" lon="0.49982">
        <ele>150.1</ele>
        <time>2018-12-14T14:42:45Z</time>
      </trkpt>
      <trkpt lat="44.98281" lon="0.49967">
        <ele>151.06</ele>
        <time>2018-12-14T14:42:57Z</time>
      </trkpt>
      <trkpt lat="44.98283" lon="0.49965">
        <ele>151.06</ele>
        <time>2018-12-14T14:42:59Z</time>
      </trkpt>
      <trkpt lat="44.98301" lon="0.49942">
        <ele>153.47</ele>
        <time>2018-12-14T14:43:18Z</time>
      </trkpt>
      <trkpt lat="44.98322" lon="0.49938">
        <ele>154.91</ele>
        <time>2018-12-14T14:43:34Z</time>
      </trkpt>
      <trkpt lat="44.98342" lon="0.49962">
        <ele>155.87</ele>
        <time>2018-12-14T14:43:51Z</time>
      </trkpt>
      <trkpt lat="44.98356" lon="0.49995">
        <ele>156.35</ele>
        <time>2018-12-14T14:44:11Z</time>
      </trkpt>
      <trkpt lat="44.9837" lon="0.50022">
        <ele>157.31</ele>
        <time>2018-12-14T14:44:28Z</time>
      </trkpt>
      <trkpt lat="44.98385" lon="0.50052">
        <ele>158.27</ele>
        <time>2018-12-14T14:44:47Z</time>
      </trkpt>
      <trkpt lat="44.98396" lon="0.50076">
        <ele>160.2</ele>
        <time>2018-12-14T14:45:04Z</time>
      </trkpt>
      <trkpt lat="44.98409" lon="0.501">
        <ele>161.64</ele>
        <time>2018-12-14T14:45:22Z</time>
      </trkpt>
      <trkpt lat="44.98422" lon="0.50125">
        <ele>163.56</ele>
        <time>2018-12-14T14:45:40Z</time>
      </trkpt>
      <trkpt lat="44.98434" lon="0.5015">
        <ele>165</ele>
        <time>2018-12-14T14:45:57Z</time>
      </trkpt>
      <trkpt lat="44.98447" lon="0.50176">
        <ele>165.96</ele>
        <time>2018-12-14T14:46:15Z</time>
      </trkpt>
      <trkpt lat="44.98466" lon="0.50197">
        <ele>165.96</ele>
        <time>2018-12-14T14:46:34Z</time>
      </trkpt>
      <trkpt lat="44.98486" lon="0.50216">
        <ele>166.93</ele>
        <time>2018-12-14T14:46:53Z</time>
      </trkpt>
      <trkpt lat="44.98505" lon="0.50234">
        <ele>167.89</ele>
        <time>2018-12-14T14:47:11Z</time>
      </trkpt>
      <trkpt lat="44.98524" lon="0.50254">
        <ele>168.85</ele>
        <time>2018-12-14T14:47:29Z</time>
      </trkpt>
      <trkpt lat="44.98536" lon="0.50269">
        <ele>168.85</ele>
        <time>2018-12-14T14:47:41Z</time>
      </trkpt>
      <trkpt lat="44.98553" lon="0.50287">
        <ele>167.89</ele>
        <time>2018-12-14T14:47:57Z</time>
      </trkpt>
      <trkpt lat="44.98573" lon="0.503">
        <ele>166.93</ele>
        <time>2018-12-14T14:48:15Z</time>
      </trkpt>
      <trkpt lat="44.98599" lon="0.50312">
        <ele>166.45</ele>
        <time>2018-12-14T14:48:36Z</time>
      </trkpt>
      <trkpt lat="44.98625" lon="0.50321">
        <ele>166.45</ele>
        <time>2018-12-14T14:48:56Z</time>
      </trkpt>
      <trkpt lat="44.98637" lon="0.50337">
        <ele>166.45</ele>
        <time>2018-12-14T14:49:11Z</time>
      </trkpt>
      <trkpt lat="44.98639" lon="0.50369">
        <ele>166.45</ele>
        <time>2018-12-14T14:49:29Z</time>
      </trkpt>
      <trkpt lat="44.98644" lon="0.50403">
        <ele>166.93</ele>
        <time>2018-12-14T14:49:46Z</time>
      </trkpt>
      <trkpt lat="44.98651" lon="0.50441">
        <ele>166.93</ele>
        <time>2018-12-14T14:50:04Z</time>
      </trkpt>
      <trkpt lat="44.98655" lon="0.50462">
        <ele>167.89</ele>
        <time>2018-12-14T14:50:19Z</time>
      </trkpt>
      <trkpt lat="44.98661" lon="0.50466">
        <ele>168.37</ele>
        <time>2018-12-14T14:50:33Z</time>
      </trkpt>
      <trkpt lat="44.98672" lon="0.50463">
        <ele>168.37</ele>
        <time>2018-12-14T14:50:47Z</time>
      </trkpt>
      <trkpt lat="44.98681" lon="0.50464">
        <ele>168.37</ele>
        <time>2018-12-14T14:51:00Z</time>
      </trkpt>
      <trkpt lat="44.9869" lon="0.50473">
        <ele>168.37</ele>
        <time>2018-12-14T14:51:10Z</time>
      </trkpt>
      <trkpt lat="44.98692" lon="0.50476">
        <ele>166.93</ele>
        <time>2018-12-14T14:51:12Z</time>
      </trkpt>
      <trkpt lat="44.98698" lon="0.5049">
        <ele>166.45</ele>
        <time>2018-12-14T14:51:22Z</time>
      </trkpt>
      <trkpt lat="44.98709" lon="0.50512">
        <ele>165</ele>
        <time>2018-12-14T14:51:38Z</time>
      </trkpt>
      <trkpt lat="44.98715" lon="0.50517">
        <ele>164.52</ele>
        <time>2018-12-14T14:51:45Z</time>
      </trkpt>
      <trkpt lat="44.98729" lon="0.50528">
        <ele>162.6</ele>
        <time>2018-12-14T14:51:59Z</time>
      </trkpt>
      <trkpt lat="44.98724" lon="0.50546">
        <ele>162.12</ele>
        <time>2018-12-14T14:52:12Z</time>
      </trkpt>
      <trkpt lat="44.98719" lon="0.50563">
        <ele>163.08</ele>
        <time>2018-12-14T14:52:24Z</time>
      </trkpt>
      <trkpt lat="44.98712" lon="0.5058">
        <ele>164.52</ele>
        <time>2018-12-14T14:52:38Z</time>
      </trkpt>
      <trkpt lat="44.9871" lon="0.50596">
        <ele>166.45</ele>
        <time>2018-12-14T14:52:50Z</time>
      </trkpt>
      <trkpt lat="44.98721" lon="0.50611">
        <ele>166.93</ele>
        <time>2018-12-14T14:53:07Z</time>
      </trkpt>
      <trkpt lat="44.98738" lon="0.50628">
        <ele>167.41</ele>
        <time>2018-12-14T14:53:25Z</time>
      </trkpt>
      <trkpt lat="44.98749" lon="0.50638">
        <ele>167.41</ele>
        <time>2018-12-14T14:53:36Z</time>
      </trkpt>
      <trkpt lat="44.98751" lon="0.50639">
        <ele>167.41</ele>
        <time>2018-12-14T14:53:38Z</time>
      </trkpt>
      <trkpt lat="44.98759" lon="0.50645">
        <ele>167.41</ele>
        <time>2018-12-14T14:53:45Z</time>
      </trkpt>
      <trkpt lat="44.98773" lon="0.50656">
        <ele>167.41</ele>
        <time>2018-12-14T14:53:56Z</time>
      </trkpt>
      <trkpt lat="44.98781" lon="0.50663">
        <ele>167.41</ele>
        <time>2018-12-14T14:54:05Z</time>
      </trkpt>
      <trkpt lat="44.98799" lon="0.50679">
        <ele>165.96</ele>
        <time>2018-12-14T14:54:22Z</time>
      </trkpt>
      <trkpt lat="44.98816" lon="0.50697">
        <ele>165.48</ele>
        <time>2018-12-14T14:54:39Z</time>
      </trkpt>
      <trkpt lat="44.98824" lon="0.50703">
        <ele>165.48</ele>
        <time>2018-12-14T14:54:47Z</time>
      </trkpt>
      <trkpt lat="44.98829" lon="0.50712">
        <ele>166.93</ele>
        <time>2018-12-14T14:54:57Z</time>
      </trkpt>
      <trkpt lat="44.98828" lon="0.50717">
        <ele>165.96</ele>
        <time>2018-12-14T14:55:19Z</time>
      </trkpt>
      <trkpt lat="44.98828" lon="0.50716">
        <ele>167.41</ele>
        <time>2018-12-14T14:55:36Z</time>
      </trkpt>
      <trkpt lat="44.98832" lon="0.5072">
        <ele>167.89</ele>
        <time>2018-12-14T14:55:49Z</time>
      </trkpt>
      <trkpt lat="44.98834" lon="0.50725">
        <ele>167.89</ele>
        <time>2018-12-14T14:56:11Z</time>
      </trkpt>
      <trkpt lat="44.98844" lon="0.50741">
        <ele>167.89</ele>
        <time>2018-12-14T14:56:26Z</time>
      </trkpt>
      <trkpt lat="44.98851" lon="0.5075">
        <ele>167.89</ele>
        <time>2018-12-14T14:56:41Z</time>
      </trkpt>
      <trkpt lat="44.98867" lon="0.5075">
        <ele>165.48</ele>
        <time>2018-12-14T14:56:57Z</time>
      </trkpt>
      <trkpt lat="44.98871" lon="0.5075">
        <ele>164.52</ele>
        <time>2018-12-14T14:57:01Z</time>
      </trkpt>
      <trkpt lat="44.9889" lon="0.50751">
        <ele>162.12</ele>
        <time>2018-12-14T14:57:17Z</time>
      </trkpt>
      <trkpt lat="44.98913" lon="0.50751">
        <ele>159.72</ele>
        <time>2018-12-14T14:57:34Z</time>
      </trkpt>
      <trkpt lat="44.98937" lon="0.50753">
        <ele>158.27</ele>
        <time>2018-12-14T14:57:51Z</time>
      </trkpt>
      <trkpt lat="44.98958" lon="0.50753">
        <ele>157.31</ele>
        <time>2018-12-14T14:58:08Z</time>
      </trkpt>
      <trkpt lat="44.98984" lon="0.50752">
        <ele>156.35</ele>
        <time>2018-12-14T14:58:28Z</time>
      </trkpt>
      <trkpt lat="44.99006" lon="0.5075">
        <ele>154.91</ele>
        <time>2018-12-14T14:58:45Z</time>
      </trkpt>
      <trkpt lat="44.9903" lon="0.50748">
        <ele>154.91</ele>
        <time>2018-12-14T14:59:02Z</time>
      </trkpt>
      <trkpt lat="44.99058" lon="0.50749">
        <ele>153.95</ele>
        <time>2018-12-14T14:59:22Z</time>
      </trkpt>
      <trkpt lat="44.99085" lon="0.50747">
        <ele>152.99</ele>
        <time>2018-12-14T14:59:42Z</time>
      </trkpt>
      <trkpt lat="44.99107" lon="0.50745">
        <ele>152.03</ele>
        <time>2018-12-14T14:59:58Z</time>
      </trkpt>
      <trkpt lat="44.99109" lon="0.50744">
        <ele>151.54</ele>
        <time>2018-12-14T15:00:00Z</time>
      </trkpt>
      <trkpt lat="44.99112" lon="0.50739">
        <ele>151.54</ele>
        <time>2018-12-14T15:00:04Z</time>
      </trkpt>
      <trkpt lat="44.99108" lon="0.50705">
        <ele>150.58</ele>
        <time>2018-12-14T15:00:22Z</time>
      </trkpt>
      <trkpt lat="44.99093" lon="0.5067">
        <ele>150.1</ele>
        <time>2018-12-14T15:00:43Z</time>
      </trkpt>
      <trkpt lat="44.99075" lon="0.50641">
        <ele>150.1</ele>
        <time>2018-12-14T15:01:03Z</time>
      </trkpt>
      <trkpt lat="44.9907" lon="0.50631">
        <ele>150.1</ele>
        <time>2018-12-14T15:01:10Z</time>
      </trkpt>
      <trkpt lat="44.99057" lon="0.50596">
        <ele>150.1</ele>
        <time>2018-12-14T15:01:34Z</time>
      </trkpt>
      <trkpt lat="44.99056" lon="0.50591">
        <ele>150.1</ele>
        <time>2018-12-14T15:01:37Z</time>
      </trkpt>
      <trkpt lat="44.99056" lon="0.50583">
        <ele>149.62</ele>
        <time>2018-12-14T15:01:41Z</time>
      </trkpt>
      <trkpt lat="44.99064" lon="0.50556">
        <ele>146.26</ele>
        <time>2018-12-14T15:01:56Z</time>
      </trkpt>
      <trkpt lat="44.99088" lon="0.50538">
        <ele>143.85</ele>
        <time>2018-12-14T15:02:18Z</time>
      </trkpt>
      <trkpt lat="44.99107" lon="0.50528">
        <ele>140.97</ele>
        <time>2018-12-14T15:02:33Z</time>
      </trkpt>
      <trkpt lat="44.99128" lon="0.5052">
        <ele>138.09</ele>
        <time>2018-12-14T15:02:50Z</time>
      </trkpt>
      <trkpt lat="44.99147" lon="0.50517">
        <ele>134.72</ele>
        <time>2018-12-14T15:03:05Z</time>
      </trkpt>
      <trkpt lat="44.99165" lon="0.50513">
        <ele>131.36</ele>
        <time>2018-12-14T15:03:21Z</time>
      </trkpt>
      <trkpt lat="44.99176" lon="0.50512">
        <ele>129.43</ele>
        <time>2018-12-14T15:03:33Z</time>
      </trkpt>
      <trkpt lat="44.99195" lon="0.50506">
        <ele>126.55</ele>
        <time>2018-12-14T15:03:49Z</time>
      </trkpt>
      <trkpt lat="44.99215" lon="0.50496">
        <ele>124.63</ele>
        <time>2018-12-14T15:04:08Z</time>
      </trkpt>
      <trkpt lat="44.9924" lon="0.50475">
        <ele>124.15</ele>
        <time>2018-12-14T15:04:29Z</time>
      </trkpt>
      <trkpt lat="44.99259" lon="0.50458">
        <ele>124.15</ele>
        <time>2018-12-14T15:04:47Z</time>
      </trkpt>
      <trkpt lat="44.99273" lon="0.50448">
        <ele>125.59</ele>
        <time>2018-12-14T15:05:03Z</time>
      </trkpt>
      <trkpt lat="44.99275" lon="0.50452">
        <ele>126.07</ele>
        <time>2018-12-14T15:05:12Z</time>
      </trkpt>
      <trkpt lat="44.99285" lon="0.50475">
        <ele>126.07</ele>
        <time>2018-12-14T15:05:27Z</time>
      </trkpt>
      <trkpt lat="44.99295" lon="0.50507">
        <ele>124.63</ele>
        <time>2018-12-14T15:05:46Z</time>
      </trkpt>
      <trkpt lat="44.99311" lon="0.50533">
        <ele>123.19</ele>
        <time>2018-12-14T15:06:06Z</time>
      </trkpt>
      <trkpt lat="44.99322" lon="0.50562">
        <ele>121.74</ele>
        <time>2018-12-14T15:06:24Z</time>
      </trkpt>
      <trkpt lat="44.99327" lon="0.50579">
        <ele>121.74</ele>
        <time>2018-12-14T15:06:38Z</time>
      </trkpt>
      <trkpt lat="44.99326" lon="0.50579">
        <ele>122.71</ele>
        <time>2018-12-14T15:07:06Z</time>
      </trkpt>
      <trkpt lat="44.99326" lon="0.50578">
        <ele>122.71</ele>
        <time>2018-12-14T15:07:35Z</time>
      </trkpt>
      <trkpt lat="44.99327" lon="0.50579">
        <ele>123.19</ele>
        <time>2018-12-14T15:08:10Z</time>
      </trkpt>
    </trkseg>
  </trk>
  <trk>
    <name><![CDATA[randogps24-467]]></name>
    <trkseg>
      <trkpt lat="45.08863" lon="0.58663">
        <ele>141.74</ele>
      </trkpt>
      <trkpt lat="45.0885" lon="0.58717">
        <ele>103.7</ele>
      </trkpt>
      <trkpt lat="45.08838" lon="0.58768">
        <ele>109.7</ele>
      </trkpt>
      <trkpt lat="45.08856" lon="0.58816">
        <ele>113.7</ele>
      </trkpt>
      <trkpt lat="45.0879" lon="0.59054">
        <ele>154</ele>
      </trkpt>
      <trkpt lat="45.08794" lon="0.5921">
        <ele>174.8</ele>
      </trkpt>
      <trkpt lat="45.08889" lon="0.59268">
        <ele>176.4</ele>
      </trkpt>
      <trkpt lat="45.08929" lon="0.59343">
        <ele>178</ele>
      </trkpt>
      <trkpt lat="45.08928" lon="0.59437">
        <ele>183.5</ele>
      </trkpt>
      <trkpt lat="45.08944" lon="0.5954">
        <ele>188.3</ele>
      </trkpt>
      <trkpt lat="45.08995" lon="0.59577">
        <ele>191.6</ele>
      </trkpt>
      <trkpt lat="45.09037" lon="0.59638">
        <ele>232.18</ele>
      </trkpt>
      <trkpt lat="45.09042" lon="0.59642">
        <ele>233.09</ele>
      </trkpt>
      <trkpt lat="45.09047" lon="0.59645">
        <ele>233.7</ele>
      </trkpt>
      <trkpt lat="45.09053" lon="0.59647">
        <ele>234.32</ele>
      </trkpt>
      <trkpt lat="45.09058" lon="0.5965">
        <ele>234.61</ele>
      </trkpt>
      <trkpt lat="45.09061" lon="0.59653">
        <ele>234.74</ele>
      </trkpt>
      <trkpt lat="45.09065" lon="0.59658">
        <ele>234.87</ele>
      </trkpt>
      <trkpt lat="45.09069" lon="0.59665">
        <ele>234.83</ele>
      </trkpt>
      <trkpt lat="45.09074" lon="0.59668">
        <ele>234.88</ele>
      </trkpt>
      <trkpt lat="45.09079" lon="0.59671">
        <ele>235.13</ele>
      </trkpt>
      <trkpt lat="45.09084" lon="0.59674">
        <ele>235.35</ele>
      </trkpt>
      <trkpt lat="45.0909" lon="0.59677">
        <ele>235.59</ele>
      </trkpt>
      <trkpt lat="45.09094" lon="0.59682">
        <ele>235.95</ele>
      </trkpt>
      <trkpt lat="45.09098" lon="0.59686">
        <ele>236.32</ele>
      </trkpt>
      <trkpt lat="45.09102" lon="0.59689">
        <ele>236.52</ele>
      </trkpt>
      <trkpt lat="45.09106" lon="0.59694">
        <ele>236.51</ele>
      </trkpt>
      <trkpt lat="45.09111" lon="0.59698">
        <ele>236.62</ele>
      </trkpt>
      <trkpt lat="45.09115" lon="0.59702">
        <ele>236.96</ele>
      </trkpt>
      <trkpt lat="45.09119" lon="0.59706">
        <ele>236.95</ele>
      </trkpt>
      <trkpt lat="45.09122" lon="0.59712">
        <ele>236.53</ele>
      </trkpt>
      <trkpt lat="45.09125" lon="0.59719">
        <ele>236.17</ele>
      </trkpt>
      <trkpt lat="45.09129" lon="0.59722">
        <ele>235.91</ele>
      </trkpt>
      <trkpt lat="45.09132" lon="0.59727">
        <ele>235.72</ele>
      </trkpt>
      <trkpt lat="45.09137" lon="0.59733">
        <ele>236.25</ele>
      </trkpt>
      <trkpt lat="45.09142" lon="0.59732">
        <ele>235.54</ele>
      </trkpt>
      <trkpt lat="45.09144" lon="0.59739">
        <ele>237.66</ele>
      </trkpt>
      <trkpt lat="45.09148" lon="0.59743">
        <ele>238.59</ele>
      </trkpt>
      <trkpt lat="45.09153" lon="0.59747">
        <ele>238.94</ele>
      </trkpt>
      <trkpt lat="45.09157" lon="0.59751">
        <ele>239.45</ele>
      </trkpt>
      <trkpt lat="45.09161" lon="0.59755">
        <ele>239.74</ele>
      </trkpt>
      <trkpt lat="45.09165" lon="0.5976">
        <ele>240.08</ele>
      </trkpt>
      <trkpt lat="45.09169" lon="0.59766">
        <ele>240.25</ele>
      </trkpt>
      <trkpt lat="45.09172" lon="0.5977">
        <ele>240.19</ele>
      </trkpt>
      <trkpt lat="45.09176" lon="0.59775">
        <ele>240.13</ele>
      </trkpt>
      <trkpt lat="45.0918" lon="0.5978">
        <ele>240.07</ele>
      </trkpt>
      <trkpt lat="45.09184" lon="0.59784">
        <ele>240.01</ele>
      </trkpt>
      <trkpt lat="45.09189" lon="0.59789">
        <ele>239.98</ele>
      </trkpt>
      <trkpt lat="45.09192" lon="0.59793">
        <ele>239.73</ele>
      </trkpt>
      <trkpt lat="45.09196" lon="0.59797">
        <ele>239.52</ele>
      </trkpt>
      <trkpt lat="45.09199" lon="0.59803">
        <ele>239.05</ele>
      </trkpt>
      <trkpt lat="45.09204" lon="0.59808">
        <ele>238.67</ele>
      </trkpt>
      <trkpt lat="45.09209" lon="0.59813">
        <ele>238.5</ele>
      </trkpt>
      <trkpt lat="45.09213" lon="0.59817">
        <ele>238.63</ele>
      </trkpt>
      <trkpt lat="45.09218" lon="0.59822">
        <ele>238.78</ele>
      </trkpt>
      <trkpt lat="45.09224" lon="0.59825">
        <ele>239.1</ele>
      </trkpt>
      <trkpt lat="45.09228" lon="0.59829">
        <ele>239.1</ele>
      </trkpt>
      <trkpt lat="45.09233" lon="0.59835">
        <ele>238.73</ele>
      </trkpt>
      <trkpt lat="45.09237" lon="0.59839">
        <ele>238.48</ele>
      </trkpt>
      <trkpt lat="45.0924" lon="0.59844">
        <ele>238.46</ele>
      </trkpt>
      <trkpt lat="45.09245" lon="0.59847">
        <ele>238.5</ele>
      </trkpt>
      <trkpt lat="45.09249" lon="0.59851">
        <ele>238.61</ele>
      </trkpt>
      <trkpt lat="45.09254" lon="0.5985">
        <ele>238.8</ele>
      </trkpt>
      <trkpt lat="45.09258" lon="0.59853">
        <ele>239.02</ele>
      </trkpt>
      <trkpt lat="45.09263" lon="0.59856">
        <ele>239.21</ele>
      </trkpt>
      <trkpt lat="45.09267" lon="0.59859">
        <ele>238.94</ele>
      </trkpt>
      <trkpt lat="45.09272" lon="0.59862">
        <ele>238.41</ele>
      </trkpt>
      <trkpt lat="45.09276" lon="0.59867">
        <ele>237.95</ele>
      </trkpt>
      <trkpt lat="45.09279" lon="0.59872">
        <ele>237.8</ele>
      </trkpt>
      <trkpt lat="45.09282" lon="0.59877">
        <ele>237.8</ele>
      </trkpt>
      <trkpt lat="45.09285" lon="0.59882">
        <ele>237.91</ele>
      </trkpt>
      <trkpt lat="45.09288" lon="0.59887">
        <ele>237.81</ele>
      </trkpt>
      <trkpt lat="45.09294" lon="0.5989">
        <ele>237.47</ele>
      </trkpt>
      <trkpt lat="45.093" lon="0.59893">
        <ele>237.41</ele>
      </trkpt>
      <trkpt lat="45.09304" lon="0.59898">
        <ele>237.29</ele>
      </trkpt>
      <trkpt lat="45.09307" lon="0.59903">
        <ele>237.04</ele>
      </trkpt>
      <trkpt lat="45.09311" lon="0.59907">
        <ele>236.66</ele>
      </trkpt>
      <trkpt lat="45.09316" lon="0.59911">
        <ele>236.42</ele>
      </trkpt>
      <trkpt lat="45.0932" lon="0.59915">
        <ele>236.34</ele>
      </trkpt>
      <trkpt lat="45.09324" lon="0.59921">
        <ele>236.5</ele>
      </trkpt>
      <trkpt lat="45.09328" lon="0.59925">
        <ele>236.51</ele>
      </trkpt>
      <trkpt lat="45.09333" lon="0.5993">
        <ele>236.46</ele>
      </trkpt>
      <trkpt lat="45.09337" lon="0.59934">
        <ele>236.41</ele>
      </trkpt>
      <trkpt lat="45.09341" lon="0.59938">
        <ele>236.23</ele>
      </trkpt>
      <trkpt lat="45.09345" lon="0.59943">
        <ele>235.74</ele>
      </trkpt>
      <trkpt lat="45.09347" lon="0.59949">
        <ele>235.26</ele>
      </trkpt>
      <trkpt lat="45.09351" lon="0.59953">
        <ele>234.79</ele>
      </trkpt>
      <trkpt lat="45.09354" lon="0.59959">
        <ele>233.9</ele>
      </trkpt>
      <trkpt lat="45.09431" lon="0.60036">
        <ele>176.8</ele>
      </trkpt>
      <trkpt lat="45.09561" lon="0.60245">
        <ele>190.5</ele>
      </trkpt>
      <trkpt lat="45.09611" lon="0.60352">
        <ele>244.64</ele>
      </trkpt>
      <trkpt lat="45.09651" lon="0.60443">
        <ele>198.5</ele>
      </trkpt>
      <trkpt lat="45.09681" lon="0.60559">
        <ele>199.4</ele>
      </trkpt>
      <trkpt lat="45.09698" lon="0.60828">
        <ele>202.5</ele>
      </trkpt>
      <trkpt lat="45.09714" lon="0.60909">
        <ele>203.4</ele>
      </trkpt>
      <trkpt lat="45.09902" lon="0.60922">
        <ele>242.22</ele>
      </trkpt>
      <trkpt lat="45.09907" lon="0.6092">
        <ele>241.79</ele>
      </trkpt>
      <trkpt lat="45.09912" lon="0.60919">
        <ele>241.14</ele>
      </trkpt>
      <trkpt lat="45.09917" lon="0.60916">
        <ele>240.52</ele>
      </trkpt>
      <trkpt lat="45.09921" lon="0.60914">
        <ele>240.01</ele>
      </trkpt>
      <trkpt lat="45.09926" lon="0.60911">
        <ele>238.93</ele>
      </trkpt>
      <trkpt lat="45.0993" lon="0.60908">
        <ele>238.29</ele>
      </trkpt>
      <trkpt lat="45.09935" lon="0.60904">
        <ele>237.39</ele>
      </trkpt>
      <trkpt lat="45.09939" lon="0.60902">
        <ele>236.82</ele>
      </trkpt>
      <trkpt lat="45.09943" lon="0.60899">
        <ele>236.33</ele>
      </trkpt>
      <trkpt lat="45.09947" lon="0.60896">
        <ele>236.11</ele>
      </trkpt>
      <trkpt lat="45.09951" lon="0.60891">
        <ele>236.15</ele>
      </trkpt>
      <trkpt lat="45.09965" lon="0.60814">
        <ele>183.3</ele>
      </trkpt>
      <trkpt lat="45.09914" lon="0.60722">
        <ele>187.9</ele>
      </trkpt>
      <trkpt lat="45.09952" lon="0.6055">
        <ele>164.9</ele>
      </trkpt>
      <trkpt lat="45.09939" lon="0.60468">
        <ele>160.3</ele>
      </trkpt>
      <trkpt lat="45.09959" lon="0.60288">
        <ele>151.3</ele>
      </trkpt>
      <trkpt lat="45.09923" lon="0.60198">
        <ele>203.31</ele>
      </trkpt>
      <trkpt lat="45.09925" lon="0.60191">
        <ele>202.54</ele>
      </trkpt>
      <trkpt lat="45.09924" lon="0.60185">
        <ele>202.27</ele>
      </trkpt>
      <trkpt lat="45.09922" lon="0.60176">
        <ele>202</ele>
      </trkpt>
      <trkpt lat="45.09921" lon="0.60168">
        <ele>201.89</ele>
      </trkpt>
      <trkpt lat="45.09942" lon="0.60075">
        <ele>192.28</ele>
      </trkpt>
      <trkpt lat="45.0994" lon="0.60068">
        <ele>191.07</ele>
      </trkpt>
      <trkpt lat="45.0994" lon="0.60062">
        <ele>189.82</ele>
      </trkpt>
      <trkpt lat="45.09939" lon="0.60056">
        <ele>188.01</ele>
      </trkpt>
      <trkpt lat="45.09937" lon="0.60049">
        <ele>185.56</ele>
      </trkpt>
      <trkpt lat="45.09934" lon="0.60043">
        <ele>184.42</ele>
      </trkpt>
      <trkpt lat="45.09932" lon="0.60037">
        <ele>183.36</ele>
      </trkpt>
      <trkpt lat="45.09929" lon="0.60032">
        <ele>182.27</ele>
      </trkpt>
      <trkpt lat="45.09926" lon="0.60026">
        <ele>181.33</ele>
      </trkpt>
      <trkpt lat="45.09924" lon="0.6002">
        <ele>180.58</ele>
      </trkpt>
      <trkpt lat="45.09924" lon="0.60013">
        <ele>180.06</ele>
      </trkpt>
      <trkpt lat="45.09922" lon="0.60007">
        <ele>179.19</ele>
      </trkpt>
      <trkpt lat="45.09921" lon="0.6">
        <ele>178.43</ele>
      </trkpt>
      <trkpt lat="45.09919" lon="0.59993">
        <ele>178.04</ele>
      </trkpt>
      <trkpt lat="45.09918" lon="0.59987">
        <ele>177.75</ele>
      </trkpt>
      <trkpt lat="45.09929" lon="0.59824">
        <ele>119.7</ele>
      </trkpt>
      <trkpt lat="45.09986" lon="0.59795">
        <ele>161.97</ele>
      </trkpt>
      <trkpt lat="45.1009" lon="0.60063">
        <ele>125.2</ele>
      </trkpt>
      <trkpt lat="45.10133" lon="0.60068">
        <ele>129.7</ele>
      </trkpt>
      <trkpt lat="45.10215" lon="0.60121">
        <ele>137.2</ele>
      </trkpt>
      <trkpt lat="45.10272" lon="0.60197">
        <ele>148.9</ele>
      </trkpt>
      <trkpt lat="45.10306" lon="0.60219">
        <ele>183.15</ele>
      </trkpt>
      <trkpt lat="45.10311" lon="0.60224">
        <ele>183.39</ele>
      </trkpt>
      <trkpt lat="45.10314" lon="0.60228">
        <ele>183.94</ele>
      </trkpt>
      <trkpt lat="45.10318" lon="0.60231">
        <ele>183.92</ele>
      </trkpt>
      <trkpt lat="45.10323" lon="0.60234">
        <ele>184.06</ele>
      </trkpt>
      <trkpt lat="45.10328" lon="0.60236">
        <ele>184.19</ele>
      </trkpt>
      <trkpt lat="45.10332" lon="0.6024">
        <ele>184.29</ele>
      </trkpt>
      <trkpt lat="45.10336" lon="0.60244">
        <ele>184.41</ele>
      </trkpt>
      <trkpt lat="45.10339" lon="0.6025">
        <ele>184.63</ele>
      </trkpt>
      <trkpt lat="45.10346" lon="0.60254">
        <ele>184.31</ele>
      </trkpt>
      <trkpt lat="45.10349" lon="0.60259">
        <ele>184.26</ele>
      </trkpt>
      <trkpt lat="45.10355" lon="0.6026">
        <ele>184.69</ele>
      </trkpt>
      <trkpt lat="45.10358" lon="0.60264">
        <ele>184.99</ele>
      </trkpt>
      <trkpt lat="45.10401" lon="0.60283">
        <ele>154.8</ele>
      </trkpt>
      <trkpt lat="45.10429" lon="0.60179">
        <ele>167.4</ele>
      </trkpt>
      <trkpt lat="45.10439" lon="0.60124">
        <ele>172.2</ele>
      </trkpt>
      <trkpt lat="45.10456" lon="0.60074">
        <ele>176.9</ele>
      </trkpt>
      <trkpt lat="45.10425" lon="0.59978">
        <ele>181.5</ele>
      </trkpt>
      <trkpt lat="45.10387" lon="0.59846">
        <ele>226.37</ele>
      </trkpt>
      <trkpt lat="45.1034" lon="0.59773">
        <ele>195.5</ele>
      </trkpt>
      <trkpt lat="45.10352" lon="0.59669">
        <ele>201.7</ele>
      </trkpt>
      <trkpt lat="45.1042" lon="0.59548">
        <ele>247.13</ele>
      </trkpt>
      <trkpt lat="45.10443" lon="0.59303">
        <ele>210.1</ele>
      </trkpt>
      <trkpt lat="45.10441" lon="0.59246">
        <ele>253.31</ele>
      </trkpt>
      <trkpt lat="45.10352" lon="0.59313">
        <ele>250.89</ele>
      </trkpt>
      <trkpt lat="45.10286" lon="0.59361">
        <ele>210.3</ele>
      </trkpt>
      <trkpt lat="45.10214" lon="0.5935">
        <ele>240.06</ele>
      </trkpt>
      <trkpt lat="45.10209" lon="0.59349">
        <ele>240.08</ele>
      </trkpt>
      <trkpt lat="45.10205" lon="0.59347">
        <ele>240.1</ele>
      </trkpt>
      <trkpt lat="45.10199" lon="0.59346">
        <ele>240.5</ele>
      </trkpt>
      <trkpt lat="45.10194" lon="0.59343">
        <ele>240.47</ele>
      </trkpt>
      <trkpt lat="45.10189" lon="0.59341">
        <ele>240.51</ele>
      </trkpt>
      <trkpt lat="45.10182" lon="0.59341">
        <ele>240.58</ele>
      </trkpt>
      <trkpt lat="45.10177" lon="0.59341">
        <ele>240.63</ele>
      </trkpt>
      <trkpt lat="45.10172" lon="0.59342">
        <ele>240.81</ele>
      </trkpt>
      <trkpt lat="45.10165" lon="0.59344">
        <ele>241.08</ele>
      </trkpt>
      <trkpt lat="45.1016" lon="0.59346">
        <ele>241.39</ele>
      </trkpt>
      <trkpt lat="45.10155" lon="0.59344">
        <ele>241.74</ele>
      </trkpt>
      <trkpt lat="45.10148" lon="0.59343">
        <ele>241.92</ele>
      </trkpt>
      <trkpt lat="45.10143" lon="0.59344">
        <ele>241.81</ele>
      </trkpt>
      <trkpt lat="45.10138" lon="0.59343">
        <ele>241.7</ele>
      </trkpt>
      <trkpt lat="45.10133" lon="0.59341">
        <ele>241.69</ele>
      </trkpt>
      <trkpt lat="45.10128" lon="0.59338">
        <ele>241.66</ele>
      </trkpt>
      <trkpt lat="45.10123" lon="0.59337">
        <ele>241.66</ele>
      </trkpt>
      <trkpt lat="45.10118" lon="0.59336">
        <ele>241.62</ele>
      </trkpt>
      <trkpt lat="45.10077" lon="0.59331">
        <ele>197.3</ele>
      </trkpt>
      <trkpt lat="45.09989" lon="0.59208">
        <ele>184.1</ele>
      </trkpt>
      <trkpt lat="45.09839" lon="0.59057">
        <ele>163.2</ele>
      </trkpt>
      <trkpt lat="45.09684" lon="0.58961">
        <ele>150.4</ele>
      </trkpt>
      <trkpt lat="45.09568" lon="0.58853">
        <ele>136.1</ele>
      </trkpt>
      <trkpt lat="45.09572" lon="0.58807">
        <ele>135.8</ele>
      </trkpt>
      <trkpt lat="45.09461" lon="0.58808">
        <ele>181.5</ele>
      </trkpt>
      <trkpt lat="45.0946" lon="0.58801">
        <ele>181.28</ele>
      </trkpt>
      <trkpt lat="45.09456" lon="0.58802">
        <ele>179.99</ele>
      </trkpt>
      <trkpt lat="45.09451" lon="0.58799">
        <ele>179.74</ele>
      </trkpt>
      <trkpt lat="45.09447" lon="0.58795">
        <ele>179.19</ele>
      </trkpt>
      <trkpt lat="45.09466" lon="0.58736">
        <ele>178.67</ele>
      </trkpt>
      <trkpt lat="45.09464" lon="0.58727">
        <ele>178.61</ele>
      </trkpt>
      <trkpt lat="45.09461" lon="0.58721">
        <ele>178.38</ele>
      </trkpt>
      <trkpt lat="45.09457" lon="0.58716">
        <ele>178.16</ele>
      </trkpt>
      <trkpt lat="45.09454" lon="0.58709">
        <ele>177.79</ele>
      </trkpt>
      <trkpt lat="45.0945" lon="0.58705">
        <ele>177.36</ele>
      </trkpt>
      <trkpt lat="45.09446" lon="0.58701">
        <ele>176.79</ele>
      </trkpt>
      <trkpt lat="45.09444" lon="0.58694">
        <ele>176.13</ele>
      </trkpt>
      <trkpt lat="45.09384" lon="0.5863">
        <ele>129.7</ele>
      </trkpt>
      <trkpt lat="45.09265" lon="0.58486">
        <ele>175.09</ele>
      </trkpt>
      <trkpt lat="45.09195" lon="0.58471">
        <ele>138.8</ele>
      </trkpt>
      <trkpt lat="45.09122" lon="0.58388">
        <ele>132.1</ele>
      </trkpt>
      <trkpt lat="45.09079" lon="0.58356">
        <ele>180.97</ele>
      </trkpt>
      <trkpt lat="45.09083" lon="0.58354">
        <ele>180.07</ele>
      </trkpt>
      <trkpt lat="45.09088" lon="0.58353">
        <ele>180.47</ele>
      </trkpt>
      <trkpt lat="45.09093" lon="0.5835">
        <ele>180.58</ele>
      </trkpt>
      <trkpt lat="45.09099" lon="0.58346">
        <ele>180.92</ele>
      </trkpt>
      <trkpt lat="45.09103" lon="0.58341">
        <ele>180.94</ele>
      </trkpt>
      <trkpt lat="45.09108" lon="0.58335">
        <ele>180.69</ele>
      </trkpt>
      <trkpt lat="45.09112" lon="0.5833">
        <ele>180.15</ele>
      </trkpt>
      <trkpt lat="45.09117" lon="0.58326">
        <ele>179.54</ele>
      </trkpt>
      <trkpt lat="45.09121" lon="0.58321">
        <ele>179.14</ele>
      </trkpt>
      <trkpt lat="45.09123" lon="0.58314">
        <ele>178.71</ele>
      </trkpt>
      <trkpt lat="45.09127" lon="0.58311">
        <ele>178.68</ele>
      </trkpt>
      <trkpt lat="45.0913" lon="0.58305">
        <ele>178.26</ele>
      </trkpt>
      <trkpt lat="45.09133" lon="0.583">
        <ele>177.53</ele>
      </trkpt>
      <trkpt lat="45.09137" lon="0.58295">
        <ele>174.66</ele>
      </trkpt>
      <trkpt lat="45.09139" lon="0.58289">
        <ele>173.93</ele>
      </trkpt>
      <trkpt lat="45.09142" lon="0.58283">
        <ele>173.6</ele>
      </trkpt>
      <trkpt lat="45.09146" lon="0.58278">
        <ele>170.27</ele>
      </trkpt>
      <trkpt lat="45.09149" lon="0.58273">
        <ele>168.74</ele>
      </trkpt>
      <trkpt lat="45.09152" lon="0.58267">
        <ele>167.41</ele>
      </trkpt>
      <trkpt lat="45.09157" lon="0.58262">
        <ele>165.91</ele>
      </trkpt>
      <trkpt lat="45.09161" lon="0.58256">
        <ele>164.71</ele>
      </trkpt>
      <trkpt lat="45.09164" lon="0.58252">
        <ele>163.89</ele>
      </trkpt>
      <trkpt lat="45.09168" lon="0.58247">
        <ele>163.13</ele>
      </trkpt>
      <trkpt lat="45.09171" lon="0.58243">
        <ele>162.18</ele>
      </trkpt>
      <trkpt lat="45.09176" lon="0.5824">
        <ele>161.51</ele>
      </trkpt>
      <trkpt lat="45.0918" lon="0.58236">
        <ele>161.16</ele>
      </trkpt>
      <trkpt lat="45.09185" lon="0.58232">
        <ele>160.96</ele>
      </trkpt>
      <trkpt lat="45.0919" lon="0.58228">
        <ele>160.81</ele>
      </trkpt>
      <trkpt lat="45.09194" lon="0.58224">
        <ele>161.07</ele>
      </trkpt>
      <trkpt lat="45.09198" lon="0.5822">
        <ele>161.39</ele>
      </trkpt>
      <trkpt lat="45.09203" lon="0.58219">
        <ele>161.89</ele>
      </trkpt>
      <trkpt lat="45.09207" lon="0.58217">
        <ele>162.39</ele>
      </trkpt>
      <trkpt lat="45.09212" lon="0.58215">
        <ele>162.77</ele>
      </trkpt>
      <trkpt lat="45.09217" lon="0.58212">
        <ele>163.24</ele>
      </trkpt>
      <trkpt lat="45.09222" lon="0.58205">
        <ele>163.4</ele>
      </trkpt>
      <trkpt lat="45.09227" lon="0.58202">
        <ele>163.97</ele>
      </trkpt>
      <trkpt lat="45.0923" lon="0.58197">
        <ele>164.74</ele>
      </trkpt>
      <trkpt lat="45.09235" lon="0.58192">
        <ele>165.15</ele>
      </trkpt>
      <trkpt lat="45.09238" lon="0.58188">
        <ele>165.24</ele>
      </trkpt>
      <trkpt lat="45.09242" lon="0.58183">
        <ele>165.27</ele>
      </trkpt>
      <trkpt lat="45.09245" lon="0.58178">
        <ele>165.29</ele>
      </trkpt>
      <trkpt lat="45.09248" lon="0.58173">
        <ele>165.3</ele>
      </trkpt>
      <trkpt lat="45.09251" lon="0.58167">
        <ele>165.17</ele>
      </trkpt>
      <trkpt lat="45.09255" lon="0.58162">
        <ele>164.6</ele>
      </trkpt>
      <trkpt lat="45.09259" lon="0.58157">
        <ele>164.48</ele>
      </trkpt>
      <trkpt lat="45.09264" lon="0.58153">
        <ele>164.68</ele>
      </trkpt>
      <trkpt lat="45.09269" lon="0.58147">
        <ele>164.77</ele>
      </trkpt>
      <trkpt lat="45.09273" lon="0.58144">
        <ele>164.92</ele>
      </trkpt>
      <trkpt lat="45.09279" lon="0.58142">
        <ele>164.96</ele>
      </trkpt>
      <trkpt lat="45.09283" lon="0.58137">
        <ele>164.78</ele>
      </trkpt>
      <trkpt lat="45.09288" lon="0.58133">
        <ele>164.88</ele>
      </trkpt>
      <trkpt lat="45.09292" lon="0.58129">
        <ele>164.93</ele>
      </trkpt>
      <trkpt lat="45.09296" lon="0.58125">
        <ele>164.82</ele>
      </trkpt>
      <trkpt lat="45.09361" lon="0.57915">
        <ele>178.12</ele>
      </trkpt>
      <trkpt lat="45.09365" lon="0.57909">
        <ele>178.85</ele>
      </trkpt>
      <trkpt lat="45.09368" lon="0.57905">
        <ele>179.39</ele>
      </trkpt>
      <trkpt lat="45.09371" lon="0.57898">
        <ele>180.38</ele>
      </trkpt>
      <trkpt lat="45.09374" lon="0.57893">
        <ele>181.41</ele>
      </trkpt>
      <trkpt lat="45.09377" lon="0.57889">
        <ele>182.65</ele>
      </trkpt>
      <trkpt lat="45.09382" lon="0.57884">
        <ele>183.77</ele>
      </trkpt>
      <trkpt lat="45.09387" lon="0.5788">
        <ele>184.89</ele>
      </trkpt>
      <trkpt lat="45.0939" lon="0.57871">
        <ele>185.58</ele>
      </trkpt>
      <trkpt lat="45.09392" lon="0.57866">
        <ele>186.15</ele>
      </trkpt>
      <trkpt lat="45.09396" lon="0.57862">
        <ele>187.49</ele>
      </trkpt>
      <trkpt lat="45.09398" lon="0.57855">
        <ele>188.45</ele>
      </trkpt>
      <trkpt lat="45.09403" lon="0.5785">
        <ele>189.24</ele>
      </trkpt>
      <trkpt lat="45.09407" lon="0.57848">
        <ele>190.47</ele>
      </trkpt>
      <trkpt lat="45.09411" lon="0.57844">
        <ele>189.86</ele>
      </trkpt>
      <trkpt lat="45.09414" lon="0.57838">
        <ele>189.03</ele>
      </trkpt>
      <trkpt lat="45.09418" lon="0.57835">
        <ele>188.2</ele>
      </trkpt>
      <trkpt lat="45.09422" lon="0.57831">
        <ele>187.21</ele>
      </trkpt>
      <trkpt lat="45.09425" lon="0.57827">
        <ele>186.7</ele>
      </trkpt>
      <trkpt lat="45.09429" lon="0.57822">
        <ele>186.74</ele>
      </trkpt>
      <trkpt lat="45.09433" lon="0.57819">
        <ele>186</ele>
      </trkpt>
      <trkpt lat="45.09438" lon="0.57811">
        <ele>185.15</ele>
      </trkpt>
      <trkpt lat="45.09442" lon="0.57809">
        <ele>184.14</ele>
      </trkpt>
      <trkpt lat="45.09444" lon="0.57802">
        <ele>184</ele>
      </trkpt>
      <trkpt lat="45.09447" lon="0.57795">
        <ele>183.05</ele>
      </trkpt>
      <trkpt lat="45.09449" lon="0.57789">
        <ele>181.6</ele>
      </trkpt>
      <trkpt lat="45.09454" lon="0.57782">
        <ele>181.06</ele>
      </trkpt>
      <trkpt lat="45.09458" lon="0.57775">
        <ele>180.75</ele>
      </trkpt>
      <trkpt lat="45.0946" lon="0.5777">
        <ele>180.33</ele>
      </trkpt>
      <trkpt lat="45.09588" lon="0.5771">
        <ele>185.52</ele>
      </trkpt>
      <trkpt lat="45.09593" lon="0.57706">
        <ele>185.98</ele>
      </trkpt>
      <trkpt lat="45.09596" lon="0.57701">
        <ele>186.11</ele>
      </trkpt>
      <trkpt lat="45.09599" lon="0.57694">
        <ele>187.2</ele>
      </trkpt>
      <trkpt lat="45.096" lon="0.57687">
        <ele>188.33</ele>
      </trkpt>
      <trkpt lat="45.09599" lon="0.57681">
        <ele>189.34</ele>
      </trkpt>
      <trkpt lat="45.09601" lon="0.57673">
        <ele>190.01</ele>
      </trkpt>
      <trkpt lat="45.09602" lon="0.57666">
        <ele>190.42</ele>
      </trkpt>
      <trkpt lat="45.09606" lon="0.5766">
        <ele>191.3</ele>
      </trkpt>
      <trkpt lat="45.09609" lon="0.57655">
        <ele>191.97</ele>
      </trkpt>
      <trkpt lat="45.09613" lon="0.57649">
        <ele>192.52</ele>
      </trkpt>
      <trkpt lat="45.09682" lon="0.57593">
        <ele>197.02</ele>
      </trkpt>
      <trkpt lat="45.09685" lon="0.57586">
        <ele>196.89</ele>
      </trkpt>
      <trkpt lat="45.09687" lon="0.5758">
        <ele>196.62</ele>
      </trkpt>
      <trkpt lat="45.09689" lon="0.57574">
        <ele>196.12</ele>
      </trkpt>
      <trkpt lat="45.0969" lon="0.57566">
        <ele>195.38</ele>
      </trkpt>
      <trkpt lat="45.09689" lon="0.57559">
        <ele>194.41</ele>
      </trkpt>
      <trkpt lat="45.09691" lon="0.57552">
        <ele>193.91</ele>
      </trkpt>
      <trkpt lat="45.09694" lon="0.57547">
        <ele>193.5</ele>
      </trkpt>
      <trkpt lat="45.09696" lon="0.57541">
        <ele>193.09</ele>
      </trkpt>
      <trkpt lat="45.09699" lon="0.57535">
        <ele>192.77</ele>
      </trkpt>
      <trkpt lat="45.09702" lon="0.5753">
        <ele>192.67</ele>
      </trkpt>
      <trkpt lat="45.09706" lon="0.57525">
        <ele>192.66</ele>
      </trkpt>
      <trkpt lat="45.0971" lon="0.57521">
        <ele>192.52</ele>
      </trkpt>
      <trkpt lat="45.09714" lon="0.57515">
        <ele>192.58</ele>
      </trkpt>
      <trkpt lat="45.09714" lon="0.57509">
        <ele>192.57</ele>
      </trkpt>
      <trkpt lat="45.09718" lon="0.57506">
        <ele>191.83</ele>
      </trkpt>
      <trkpt lat="45.09721" lon="0.575">
        <ele>191.02</ele>
      </trkpt>
      <trkpt lat="45.09726" lon="0.57497">
        <ele>190.16</ele>
      </trkpt>
      <trkpt lat="45.09731" lon="0.57493">
        <ele>189.79</ele>
      </trkpt>
      <trkpt lat="45.09733" lon="0.57485">
        <ele>189.8</ele>
      </trkpt>
      <trkpt lat="45.09736" lon="0.57478">
        <ele>190.12</ele>
      </trkpt>
      <trkpt lat="45.09737" lon="0.57469">
        <ele>190.52</ele>
      </trkpt>
      <trkpt lat="45.09738" lon="0.57463">
        <ele>190.89</ele>
      </trkpt>
      <trkpt lat="45.09739" lon="0.57455">
        <ele>191.57</ele>
      </trkpt>
      <trkpt lat="45.09741" lon="0.57449">
        <ele>191.69</ele>
      </trkpt>
      <trkpt lat="45.09746" lon="0.57445">
        <ele>192.71</ele>
      </trkpt>
      <trkpt lat="45.09749" lon="0.57439">
        <ele>193.29</ele>
      </trkpt>
      <trkpt lat="45.0975" lon="0.57433">
        <ele>193</ele>
      </trkpt>
      <trkpt lat="45.09753" lon="0.57426">
        <ele>192.25</ele>
      </trkpt>
      <trkpt lat="45.09756" lon="0.5742">
        <ele>192.04</ele>
      </trkpt>
      <trkpt lat="45.09761" lon="0.57417">
        <ele>192.14</ele>
      </trkpt>
      <trkpt lat="45.09763" lon="0.57409">
        <ele>192.03</ele>
      </trkpt>
      <trkpt lat="45.09765" lon="0.57403">
        <ele>191.41</ele>
      </trkpt>
      <trkpt lat="45.09767" lon="0.57397">
        <ele>190.85</ele>
      </trkpt>
      <trkpt lat="45.09769" lon="0.57389">
        <ele>190.84</ele>
      </trkpt>
      <trkpt lat="45.09771" lon="0.57384">
        <ele>190.67</ele>
      </trkpt>
      <trkpt lat="45.09776" lon="0.57379">
        <ele>191.1</ele>
      </trkpt>
      <trkpt lat="45.09717" lon="0.57274">
        <ele>193.13</ele>
      </trkpt>
      <trkpt lat="45.09712" lon="0.57277">
        <ele>194.91</ele>
      </trkpt>
      <trkpt lat="45.09706" lon="0.57279">
        <ele>195</ele>
      </trkpt>
      <trkpt lat="45.09703" lon="0.57273">
        <ele>194.32</ele>
      </trkpt>
      <trkpt lat="45.09697" lon="0.57275">
        <ele>193.98</ele>
      </trkpt>
      <trkpt lat="45.09692" lon="0.57274">
        <ele>193.98</ele>
      </trkpt>
      <trkpt lat="45.09686" lon="0.57272">
        <ele>194.12</ele>
      </trkpt>
      <trkpt lat="45.0968" lon="0.57273">
        <ele>194.05</ele>
      </trkpt>
      <trkpt lat="45.09675" lon="0.57275">
        <ele>194.53</ele>
      </trkpt>
      <trkpt lat="45.0967" lon="0.57276">
        <ele>196.08</ele>
      </trkpt>
      <trkpt lat="45.09664" lon="0.57277">
        <ele>198.97</ele>
      </trkpt>
      <trkpt lat="45.09658" lon="0.57274">
        <ele>201.91</ele>
      </trkpt>
      <trkpt lat="45.09654" lon="0.57272">
        <ele>202.47</ele>
      </trkpt>
      <trkpt lat="45.09648" lon="0.57271">
        <ele>204.27</ele>
      </trkpt>
      <trkpt lat="45.09554" lon="0.57331">
        <ele>204.22</ele>
      </trkpt>
      <trkpt lat="45.09526" lon="0.57284">
        <ele>162.6</ele>
      </trkpt>
      <trkpt lat="45.09477" lon="0.57194">
        <ele>207.37</ele>
      </trkpt>
      <trkpt lat="45.09484" lon="0.571">
        <ele>161.5</ele>
      </trkpt>
      <trkpt lat="45.09544" lon="0.56926">
        <ele>162.1</ele>
      </trkpt>
      <trkpt lat="45.09552" lon="0.56846">
        <ele>205.85</ele>
      </trkpt>
      <trkpt lat="45.09564" lon="0.56757">
        <ele>160.1</ele>
      </trkpt>
      <trkpt lat="45.09564" lon="0.56698">
        <ele>156.3</ele>
      </trkpt>
      <trkpt lat="45.09599" lon="0.5662">
        <ele>167.2</ele>
      </trkpt>
      <trkpt lat="45.09626" lon="0.56548">
        <ele>170.3</ele>
      </trkpt>
      <trkpt lat="45.09628" lon="0.56489">
        <ele>174.9</ele>
      </trkpt>
      <trkpt lat="45.09518" lon="0.5646">
        <ele>173.6</ele>
      </trkpt>
      <trkpt lat="45.09491" lon="0.56452">
        <ele>172.2</ele>
      </trkpt>
      <trkpt lat="45.09465" lon="0.56459">
        <ele>216.97</ele>
      </trkpt>
      <trkpt lat="45.0937" lon="0.56585">
        <ele>213.58</ele>
      </trkpt>
      <trkpt lat="45.09313" lon="0.56821">
        <ele>156.8</ele>
      </trkpt>
      <trkpt lat="45.09148" lon="0.57047">
        <ele>174.88</ele>
      </trkpt>
      <trkpt lat="45.08977" lon="0.57427">
        <ele>110.7</ele>
      </trkpt>
      <trkpt lat="45.08947" lon="0.57546">
        <ele>111.3</ele>
      </trkpt>
      <trkpt lat="45.08938" lon="0.577">
        <ele>123.8</ele>
      </trkpt>
      <trkpt lat="45.08924" lon="0.57763">
        <ele>122.3</ele>
      </trkpt>
      <trkpt lat="45.08913" lon="0.5778">
        <ele>119.8</ele>
      </trkpt>
      <trkpt lat="45.08871" lon="0.57894">
        <ele>111.7</ele>
      </trkpt>
      <trkpt lat="45.08878" lon="0.58024">
        <ele>109.8</ele>
      </trkpt>
      <trkpt lat="45.08909" lon="0.58138">
        <ele>155.95</ele>
      </trkpt>
      <trkpt lat="45.08882" lon="0.58199">
        <ele>135.2</ele>
      </trkpt>
      <trkpt lat="45.08933" lon="0.58284">
        <ele>136.7</ele>
      </trkpt>
      <trkpt lat="45.08931" lon="0.58337">
        <ele>136.3</ele>
      </trkpt>
      <trkpt lat="45.08904" lon="0.58389">
        <ele>131.1</ele>
      </trkpt>
      <trkpt lat="45.08911" lon="0.5845">
        <ele>122</ele>
      </trkpt>
      <trkpt lat="45.08889" lon="0.58608">
        <ele>103.5</ele>
      </trkpt>
    </trkseg>
  </trk>
  <trk>
    <name><![CDATA[randogps24-554]]></name>
    <extensions>
      <line xmlns="http://www.topografix.com/GPX/gpx_style/0/2">
        <color>0000FF</color>
        <width>4</width>
      </line>
    </extensions>
    <trkseg>
      <trkpt lat="44.95701" lon="0.61519">
        <ele>99.63</ele>
        <time>2020-01-11T13:28:19Z</time>
      </trkpt>
      <trkpt lat="44.95701" lon="0.61519">
        <ele>99.63</ele>
        <time>2020-01-11T13:28:20Z</time>
      </trkpt>
      <trkpt lat="44.95701" lon="0.61518">
        <ele>99.63</ele>
        <time>2020-01-11T13:28:40Z</time>
      </trkpt>
      <trkpt lat="44.95698" lon="0.61521">
        <ele>99.63</ele>
        <time>2020-01-11T13:28:55Z</time>
      </trkpt>
      <trkpt lat="44.957" lon="0.61519">
        <ele>99.63</ele>
        <time>2020-01-11T13:29:21Z</time>
      </trkpt>
      <trkpt lat="44.95702" lon="0.61521">
        <ele>99.63</ele>
        <time>2020-01-11T13:29:36Z</time>
      </trkpt>
      <trkpt lat="44.95699" lon="0.61523">
        <ele>99.15</ele>
        <time>2020-01-11T13:29:54Z</time>
      </trkpt>
      <trkpt lat="44.95699" lon="0.6152">
        <ele>99.15</ele>
        <time>2020-01-11T13:30:15Z</time>
      </trkpt>
      <trkpt lat="44.95701" lon="0.61531">
        <ele>99.63</ele>
        <time>2020-01-11T13:30:25Z</time>
      </trkpt>
      <trkpt lat="44.957" lon="0.61549">
        <ele>100.11</ele>
        <time>2020-01-11T13:30:37Z</time>
      </trkpt>
      <trkpt lat="44.95698" lon="0.61557">
        <ele>100.11</ele>
        <time>2020-01-11T13:30:41Z</time>
      </trkpt>
      <trkpt lat="44.95694" lon="0.61561">
        <ele>100.11</ele>
        <time>2020-01-11T13:30:44Z</time>
      </trkpt>
      <trkpt lat="44.95661" lon="0.61571">
        <ele>100.11</ele>
        <time>2020-01-11T13:31:07Z</time>
      </trkpt>
      <trkpt lat="44.9566" lon="0.61596">
        <ele>101.08</ele>
        <time>2020-01-11T13:31:27Z</time>
      </trkpt>
      <trkpt lat="44.95659" lon="0.61646">
        <ele>103.48</ele>
        <time>2020-01-11T13:31:54Z</time>
      </trkpt>
      <trkpt lat="44.95629" lon="0.61668">
        <ele>104.92</ele>
        <time>2020-01-11T13:32:14Z</time>
      </trkpt>
      <trkpt lat="44.95594" lon="0.61679">
        <ele>105.88</ele>
        <time>2020-01-11T13:32:41Z</time>
      </trkpt>
      <trkpt lat="44.9556" lon="0.61701">
        <ele>105.88</ele>
        <time>2020-01-11T13:33:08Z</time>
      </trkpt>
      <trkpt lat="44.95523" lon="0.61721">
        <ele>105.88</ele>
        <time>2020-01-11T13:33:34Z</time>
      </trkpt>
      <trkpt lat="44.95492" lon="0.61739">
        <ele>106.36</ele>
        <time>2020-01-11T13:34:01Z</time>
      </trkpt>
      <trkpt lat="44.95454" lon="0.61761">
        <ele>107.32</ele>
        <time>2020-01-11T13:34:26Z</time>
      </trkpt>
      <trkpt lat="44.95425" lon="0.61785">
        <ele>107.32</ele>
        <time>2020-01-11T13:34:51Z</time>
      </trkpt>
      <trkpt lat="44.9541" lon="0.61798">
        <ele>105.88</ele>
        <time>2020-01-11T13:35:02Z</time>
      </trkpt>
      <trkpt lat="44.95383" lon="0.61833">
        <ele>105.88</ele>
        <time>2020-01-11T13:35:31Z</time>
      </trkpt>
      <trkpt lat="44.95345" lon="0.61863">
        <ele>105.88</ele>
        <time>2020-01-11T13:35:58Z</time>
      </trkpt>
      <trkpt lat="44.95319" lon="0.61897">
        <ele>104.92</ele>
        <time>2020-01-11T13:36:23Z</time>
      </trkpt>
      <trkpt lat="44.95294" lon="0.61926">
        <ele>103</ele>
        <time>2020-01-11T13:36:45Z</time>
      </trkpt>
      <trkpt lat="44.95269" lon="0.61959">
        <ele>101.08</ele>
        <time>2020-01-11T13:37:11Z</time>
      </trkpt>
      <trkpt lat="44.95238" lon="0.61987">
        <ele>98.67</ele>
        <time>2020-01-11T13:37:36Z</time>
      </trkpt>
      <trkpt lat="44.95211" lon="0.62008">
        <ele>97.71</ele>
        <time>2020-01-11T13:37:59Z</time>
      </trkpt>
      <trkpt lat="44.95177" lon="0.62028">
        <ele>97.71</ele>
        <time>2020-01-11T13:38:24Z</time>
      </trkpt>
      <trkpt lat="44.95186" lon="0.62029">
        <ele>99.15</ele>
        <time>2020-01-11T13:38:39Z</time>
      </trkpt>
      <trkpt lat="44.95215" lon="0.62056">
        <ele>102.04</ele>
        <time>2020-01-11T13:39:03Z</time>
      </trkpt>
      <trkpt lat="44.9523" lon="0.62091">
        <ele>105.4</ele>
        <time>2020-01-11T13:39:24Z</time>
      </trkpt>
      <trkpt lat="44.95256" lon="0.62118">
        <ele>107.81</ele>
        <time>2020-01-11T13:39:46Z</time>
      </trkpt>
      <trkpt lat="44.9529" lon="0.62139">
        <ele>109.25</ele>
        <time>2020-01-11T13:40:11Z</time>
      </trkpt>
      <trkpt lat="44.95327" lon="0.62152">
        <ele>111.65</ele>
        <time>2020-01-11T13:40:37Z</time>
      </trkpt>
      <trkpt lat="44.95362" lon="0.62168">
        <ele>114.05</ele>
        <time>2020-01-11T13:41:01Z</time>
      </trkpt>
      <trkpt lat="44.95394" lon="0.62194">
        <ele>116.94</ele>
        <time>2020-01-11T13:41:28Z</time>
      </trkpt>
      <trkpt lat="44.95424" lon="0.62221">
        <ele>119.34</ele>
        <time>2020-01-11T13:41:55Z</time>
      </trkpt>
      <trkpt lat="44.95448" lon="0.62241">
        <ele>121.74</ele>
        <time>2020-01-11T13:42:20Z</time>
      </trkpt>
      <trkpt lat="44.95468" lon="0.62265">
        <ele>123.19</ele>
        <time>2020-01-11T13:42:43Z</time>
      </trkpt>
      <trkpt lat="44.95505" lon="0.62285">
        <ele>126.07</ele>
        <time>2020-01-11T13:43:07Z</time>
      </trkpt>
      <trkpt lat="44.95518" lon="0.62293">
        <ele>127.03</ele>
        <time>2020-01-11T13:43:31Z</time>
      </trkpt>
      <trkpt lat="44.95541" lon="0.62312">
        <ele>128.95</ele>
        <time>2020-01-11T13:43:57Z</time>
      </trkpt>
      <trkpt lat="44.95562" lon="0.62331">
        <ele>131.36</ele>
        <time>2020-01-11T13:44:21Z</time>
      </trkpt>
      <trkpt lat="44.95585" lon="0.62341">
        <ele>134.72</ele>
        <time>2020-01-11T13:44:41Z</time>
      </trkpt>
      <trkpt lat="44.956" lon="0.62352">
        <ele>138.09</ele>
        <time>2020-01-11T13:44:59Z</time>
      </trkpt>
      <trkpt lat="44.95618" lon="0.62351">
        <ele>141.45</ele>
        <time>2020-01-11T13:45:20Z</time>
      </trkpt>
      <trkpt lat="44.95637" lon="0.6235">
        <ele>142.89</ele>
        <time>2020-01-11T13:45:42Z</time>
      </trkpt>
      <trkpt lat="44.95648" lon="0.62357">
        <ele>144.34</ele>
        <time>2020-01-11T13:46:00Z</time>
      </trkpt>
      <trkpt lat="44.95619" lon="0.62379">
        <ele>145.3</ele>
        <time>2020-01-11T13:46:22Z</time>
      </trkpt>
      <trkpt lat="44.95604" lon="0.62406">
        <ele>146.26</ele>
        <time>2020-01-11T13:46:45Z</time>
      </trkpt>
      <trkpt lat="44.95582" lon="0.62432">
        <ele>147.7</ele>
        <time>2020-01-11T13:47:10Z</time>
      </trkpt>
      <trkpt lat="44.95542" lon="0.62446">
        <ele>149.62</ele>
        <time>2020-01-11T13:47:35Z</time>
      </trkpt>
      <trkpt lat="44.95517" lon="0.62462">
        <ele>152.03</ele>
        <time>2020-01-11T13:47:58Z</time>
      </trkpt>
      <trkpt lat="44.95517" lon="0.62485">
        <ele>154.43</ele>
        <time>2020-01-11T13:48:19Z</time>
      </trkpt>
      <trkpt lat="44.95524" lon="0.6252">
        <ele>156.83</ele>
        <time>2020-01-11T13:48:41Z</time>
      </trkpt>
      <trkpt lat="44.95554" lon="0.62545">
        <ele>159.72</ele>
        <time>2020-01-11T13:49:06Z</time>
      </trkpt>
      <trkpt lat="44.95572" lon="0.62575">
        <ele>161.16</ele>
        <time>2020-01-11T13:49:29Z</time>
      </trkpt>
      <trkpt lat="44.95586" lon="0.6264">
        <ele>161.16</ele>
        <time>2020-01-11T13:49:55Z</time>
      </trkpt>
      <trkpt lat="44.95584" lon="0.62673">
        <ele>157.79</ele>
        <time>2020-01-11T13:50:11Z</time>
      </trkpt>
      <trkpt lat="44.95579" lon="0.62713">
        <ele>154.91</ele>
        <time>2020-01-11T13:50:30Z</time>
      </trkpt>
      <trkpt lat="44.95565" lon="0.62767">
        <ele>152.99</ele>
        <time>2020-01-11T13:50:55Z</time>
      </trkpt>
      <trkpt lat="44.95559" lon="0.62815">
        <ele>152.03</ele>
        <time>2020-01-11T13:51:18Z</time>
      </trkpt>
      <trkpt lat="44.9555" lon="0.62873">
        <ele>150.58</ele>
        <time>2020-01-11T13:51:42Z</time>
      </trkpt>
      <trkpt lat="44.95534" lon="0.62926">
        <ele>149.62</ele>
        <time>2020-01-11T13:52:06Z</time>
      </trkpt>
      <trkpt lat="44.95537" lon="0.62959">
        <ele>147.22</ele>
        <time>2020-01-11T13:52:26Z</time>
      </trkpt>
      <trkpt lat="44.95547" lon="0.62975">
        <ele>146.26</ele>
        <time>2020-01-11T13:52:35Z</time>
      </trkpt>
      <trkpt lat="44.95571" lon="0.63012">
        <ele>142.41</ele>
        <time>2020-01-11T13:52:57Z</time>
      </trkpt>
      <trkpt lat="44.95592" lon="0.63049">
        <ele>139.53</ele>
        <time>2020-01-11T13:53:18Z</time>
      </trkpt>
      <trkpt lat="44.95618" lon="0.63089">
        <ele>136.16</ele>
        <time>2020-01-11T13:53:45Z</time>
      </trkpt>
      <trkpt lat="44.95626" lon="0.63097">
        <ele>135.68</ele>
        <time>2020-01-11T13:54:04Z</time>
      </trkpt>
      <trkpt lat="44.9564" lon="0.63107">
        <ele>134.72</ele>
        <time>2020-01-11T13:54:18Z</time>
      </trkpt>
      <trkpt lat="44.95649" lon="0.63114">
        <ele>134.24</ele>
        <time>2020-01-11T13:54:28Z</time>
      </trkpt>
      <trkpt lat="44.95661" lon="0.63129">
        <ele>132.8</ele>
        <time>2020-01-11T13:54:38Z</time>
      </trkpt>
      <trkpt lat="44.9566" lon="0.63139">
        <ele>132.8</ele>
        <time>2020-01-11T13:54:43Z</time>
      </trkpt>
      <trkpt lat="44.9566" lon="0.63164">
        <ele>130.88</ele>
        <time>2020-01-11T13:54:57Z</time>
      </trkpt>
      <trkpt lat="44.95666" lon="0.63174">
        <ele>130.88</ele>
        <time>2020-01-11T13:55:11Z</time>
      </trkpt>
      <trkpt lat="44.95667" lon="0.63175">
        <ele>130.4</ele>
        <time>2020-01-11T13:55:12Z</time>
      </trkpt>
      <trkpt lat="44.95682" lon="0.63201">
        <ele>128.47</ele>
        <time>2020-01-11T13:55:26Z</time>
      </trkpt>
      <trkpt lat="44.95683" lon="0.63204">
        <ele>128.47</ele>
        <time>2020-01-11T13:55:27Z</time>
      </trkpt>
      <trkpt lat="44.95692" lon="0.63231">
        <ele>125.59</ele>
        <time>2020-01-11T13:55:40Z</time>
      </trkpt>
      <trkpt lat="44.95696" lon="0.63243">
        <ele>125.59</ele>
        <time>2020-01-11T13:55:46Z</time>
      </trkpt>
      <trkpt lat="44.95704" lon="0.63267">
        <ele>123.67</ele>
        <time>2020-01-11T13:55:59Z</time>
      </trkpt>
      <trkpt lat="44.95713" lon="0.63288">
        <ele>121.74</ele>
        <time>2020-01-11T13:56:10Z</time>
      </trkpt>
      <trkpt lat="44.95729" lon="0.63316">
        <ele>119.34</ele>
        <time>2020-01-11T13:56:23Z</time>
      </trkpt>
      <trkpt lat="44.95741" lon="0.63337">
        <ele>116.94</ele>
        <time>2020-01-11T13:56:34Z</time>
      </trkpt>
      <trkpt lat="44.95751" lon="0.63354">
        <ele>114.53</ele>
        <time>2020-01-11T13:56:45Z</time>
      </trkpt>
      <trkpt lat="44.95767" lon="0.63369">
        <ele>111.17</ele>
        <time>2020-01-11T13:57:00Z</time>
      </trkpt>
      <trkpt lat="44.95784" lon="0.63384">
        <ele>109.25</ele>
        <time>2020-01-11T13:57:11Z</time>
      </trkpt>
      <trkpt lat="44.95801" lon="0.63402">
        <ele>106.84</ele>
        <time>2020-01-11T13:57:25Z</time>
      </trkpt>
      <trkpt lat="44.95806" lon="0.63408">
        <ele>106.36</ele>
        <time>2020-01-11T13:57:29Z</time>
      </trkpt>
      <trkpt lat="44.95808" lon="0.6341">
        <ele>106.36</ele>
        <time>2020-01-11T13:57:31Z</time>
      </trkpt>
      <trkpt lat="44.95809" lon="0.63412">
        <ele>105.88</ele>
        <time>2020-01-11T13:57:32Z</time>
      </trkpt>
      <trkpt lat="44.9581" lon="0.63413">
        <ele>106.36</ele>
        <time>2020-01-11T13:57:33Z</time>
      </trkpt>
      <trkpt lat="44.95826" lon="0.6343">
        <ele>104.92</ele>
        <time>2020-01-11T13:57:47Z</time>
      </trkpt>
      <trkpt lat="44.95831" lon="0.63436">
        <ele>104.44</ele>
        <time>2020-01-11T13:57:52Z</time>
      </trkpt>
      <trkpt lat="44.95833" lon="0.63439">
        <ele>104.44</ele>
        <time>2020-01-11T13:57:55Z</time>
      </trkpt>
      <trkpt lat="44.9584" lon="0.63449">
        <ele>104.44</ele>
        <time>2020-01-11T13:58:05Z</time>
      </trkpt>
      <trkpt lat="44.95854" lon="0.6347">
        <ele>105.88</ele>
        <time>2020-01-11T13:58:19Z</time>
      </trkpt>
      <trkpt lat="44.95859" lon="0.63494">
        <ele>106.36</ele>
        <time>2020-01-11T13:58:29Z</time>
      </trkpt>
      <trkpt lat="44.95858" lon="0.63496">
        <ele>106.36</ele>
        <time>2020-01-11T13:58:30Z</time>
      </trkpt>
      <trkpt lat="44.95836" lon="0.63524">
        <ele>106.36</ele>
        <time>2020-01-11T13:58:45Z</time>
      </trkpt>
      <trkpt lat="44.95817" lon="0.63541">
        <ele>104.92</ele>
        <time>2020-01-11T13:58:58Z</time>
      </trkpt>
      <trkpt lat="44.95801" lon="0.63553">
        <ele>104.44</ele>
        <time>2020-01-11T13:59:11Z</time>
      </trkpt>
      <trkpt lat="44.95781" lon="0.6357">
        <ele>103.96</ele>
        <time>2020-01-11T13:59:26Z</time>
      </trkpt>
      <trkpt lat="44.95761" lon="0.63584">
        <ele>103.48</ele>
        <time>2020-01-11T13:59:41Z</time>
      </trkpt>
      <trkpt lat="44.9574" lon="0.63589">
        <ele>103.48</ele>
        <time>2020-01-11T13:59:55Z</time>
      </trkpt>
      <trkpt lat="44.95725" lon="0.6359">
        <ele>103.48</ele>
        <time>2020-01-11T14:00:05Z</time>
      </trkpt>
      <trkpt lat="44.95707" lon="0.63587">
        <ele>103.48</ele>
        <time>2020-01-11T14:00:19Z</time>
      </trkpt>
      <trkpt lat="44.95705" lon="0.63587">
        <ele>103.48</ele>
        <time>2020-01-11T14:00:20Z</time>
      </trkpt>
      <trkpt lat="44.95688" lon="0.63582">
        <ele>103.48</ele>
        <time>2020-01-11T14:00:29Z</time>
      </trkpt>
      <trkpt lat="44.95687" lon="0.63582">
        <ele>103.48</ele>
        <time>2020-01-11T14:00:30Z</time>
      </trkpt>
      <trkpt lat="44.95685" lon="0.63581">
        <ele>103.48</ele>
        <time>2020-01-11T14:00:31Z</time>
      </trkpt>
      <trkpt lat="44.95666" lon="0.63572">
        <ele>103.48</ele>
        <time>2020-01-11T14:00:43Z</time>
      </trkpt>
      <trkpt lat="44.95652" lon="0.63563">
        <ele>103.96</ele>
        <time>2020-01-11T14:00:55Z</time>
      </trkpt>
      <trkpt lat="44.95649" lon="0.63562">
        <ele>103.96</ele>
        <time>2020-01-11T14:00:57Z</time>
      </trkpt>
      <trkpt lat="44.95646" lon="0.63561">
        <ele>103.96</ele>
        <time>2020-01-11T14:00:58Z</time>
      </trkpt>
      <trkpt lat="44.9562" lon="0.63554">
        <ele>103.96</ele>
        <time>2020-01-11T14:01:11Z</time>
      </trkpt>
      <trkpt lat="44.95603" lon="0.63555">
        <ele>103.96</ele>
        <time>2020-01-11T14:01:22Z</time>
      </trkpt>
      <trkpt lat="44.95588" lon="0.6356">
        <ele>103.96</ele>
        <time>2020-01-11T14:01:33Z</time>
      </trkpt>
      <trkpt lat="44.9557" lon="0.63574">
        <ele>103.96</ele>
        <time>2020-01-11T14:01:46Z</time>
      </trkpt>
      <trkpt lat="44.95555" lon="0.63594">
        <ele>103.96</ele>
        <time>2020-01-11T14:02:00Z</time>
      </trkpt>
      <trkpt lat="44.95541" lon="0.63613">
        <ele>103.48</ele>
        <time>2020-01-11T14:02:13Z</time>
      </trkpt>
      <trkpt lat="44.95526" lon="0.63628">
        <ele>103.48</ele>
        <time>2020-01-11T14:02:24Z</time>
      </trkpt>
      <trkpt lat="44.95512" lon="0.63642">
        <ele>103.96</ele>
        <time>2020-01-11T14:02:36Z</time>
      </trkpt>
      <trkpt lat="44.95494" lon="0.63655">
        <ele>103.48</ele>
        <time>2020-01-11T14:02:49Z</time>
      </trkpt>
      <trkpt lat="44.95477" lon="0.63668">
        <ele>102.04</ele>
        <time>2020-01-11T14:03:03Z</time>
      </trkpt>
      <trkpt lat="44.95456" lon="0.63676">
        <ele>100.6</ele>
        <time>2020-01-11T14:03:17Z</time>
      </trkpt>
      <trkpt lat="44.9543" lon="0.63674">
        <ele>99.63</ele>
        <time>2020-01-11T14:03:31Z</time>
      </trkpt>
      <trkpt lat="44.95411" lon="0.63658">
        <ele>98.67</ele>
        <time>2020-01-11T14:03:42Z</time>
      </trkpt>
      <trkpt lat="44.9541" lon="0.63658">
        <ele>98.67</ele>
        <time>2020-01-11T14:03:43Z</time>
      </trkpt>
      <trkpt lat="44.95409" lon="0.63658">
        <ele>98.67</ele>
        <time>2020-01-11T14:03:44Z</time>
      </trkpt>
      <trkpt lat="44.95408" lon="0.63659">
        <ele>98.19</ele>
        <time>2020-01-11T14:03:45Z</time>
      </trkpt>
      <trkpt lat="44.95408" lon="0.6366">
        <ele>98.19</ele>
        <time>2020-01-11T14:03:46Z</time>
      </trkpt>
      <trkpt lat="44.95396" lon="0.63682">
        <ele>96.27</ele>
        <time>2020-01-11T14:04:01Z</time>
      </trkpt>
      <trkpt lat="44.95378" lon="0.63707">
        <ele>95.31</ele>
        <time>2020-01-11T14:04:19Z</time>
      </trkpt>
      <trkpt lat="44.95356" lon="0.63734">
        <ele>94.83</ele>
        <time>2020-01-11T14:04:37Z</time>
      </trkpt>
      <trkpt lat="44.95338" lon="0.63764">
        <ele>94.83</ele>
        <time>2020-01-11T14:04:55Z</time>
      </trkpt>
      <trkpt lat="44.95327" lon="0.63787">
        <ele>94.83</ele>
        <time>2020-01-11T14:05:08Z</time>
      </trkpt>
      <trkpt lat="44.95323" lon="0.63804">
        <ele>96.27</ele>
        <time>2020-01-11T14:05:18Z</time>
      </trkpt>
      <trkpt lat="44.95319" lon="0.63831">
        <ele>98.67</ele>
        <time>2020-01-11T14:05:34Z</time>
      </trkpt>
      <trkpt lat="44.95317" lon="0.63849">
        <ele>101.56</ele>
        <time>2020-01-11T14:05:49Z</time>
      </trkpt>
      <trkpt lat="44.95317" lon="0.63862">
        <ele>103</ele>
        <time>2020-01-11T14:06:01Z</time>
      </trkpt>
      <trkpt lat="44.95316" lon="0.63863">
        <ele>103</ele>
        <time>2020-01-11T14:06:18Z</time>
      </trkpt>
      <trkpt lat="44.95316" lon="0.63863">
        <ele>103</ele>
        <time>2020-01-11T14:06:30Z</time>
      </trkpt>
      <trkpt lat="44.95316" lon="0.63864">
        <ele>103</ele>
        <time>2020-01-11T14:06:55Z</time>
      </trkpt>
      <trkpt lat="44.95315" lon="0.63866">
        <ele>103</ele>
        <time>2020-01-11T14:06:57Z</time>
      </trkpt>
      <trkpt lat="44.95315" lon="0.63868">
        <ele>103</ele>
        <time>2020-01-11T14:06:58Z</time>
      </trkpt>
      <trkpt lat="44.95315" lon="0.63872">
        <ele>103</ele>
        <time>2020-01-11T14:07:02Z</time>
      </trkpt>
      <trkpt lat="44.95312" lon="0.63878">
        <ele>103.48</ele>
        <time>2020-01-11T14:07:08Z</time>
      </trkpt>
      <trkpt lat="44.95311" lon="0.63878">
        <ele>103.96</ele>
        <time>2020-01-11T14:07:09Z</time>
      </trkpt>
      <trkpt lat="44.95297" lon="0.6388">
        <ele>105.4</ele>
        <time>2020-01-11T14:07:22Z</time>
      </trkpt>
      <trkpt lat="44.9528" lon="0.6388">
        <ele>107.32</ele>
        <time>2020-01-11T14:07:35Z</time>
      </trkpt>
      <trkpt lat="44.9526" lon="0.63878">
        <ele>109.25</ele>
        <time>2020-01-11T14:07:50Z</time>
      </trkpt>
      <trkpt lat="44.95258" lon="0.63878">
        <ele>109.73</ele>
        <time>2020-01-11T14:07:52Z</time>
      </trkpt>
      <trkpt lat="44.95255" lon="0.63877">
        <ele>110.21</ele>
        <time>2020-01-11T14:07:54Z</time>
      </trkpt>
      <trkpt lat="44.95254" lon="0.63877">
        <ele>110.21</ele>
        <time>2020-01-11T14:07:55Z</time>
      </trkpt>
      <trkpt lat="44.95234" lon="0.63876">
        <ele>112.61</ele>
        <time>2020-01-11T14:08:10Z</time>
      </trkpt>
      <trkpt lat="44.95225" lon="0.63874">
        <ele>113.57</ele>
        <time>2020-01-11T14:08:19Z</time>
      </trkpt>
      <trkpt lat="44.95218" lon="0.63875">
        <ele>115.01</ele>
        <time>2020-01-11T14:08:25Z</time>
      </trkpt>
      <trkpt lat="44.95207" lon="0.6388">
        <ele>116.94</ele>
        <time>2020-01-11T14:08:36Z</time>
      </trkpt>
      <trkpt lat="44.95189" lon="0.63881">
        <ele>119.34</ele>
        <time>2020-01-11T14:08:51Z</time>
      </trkpt>
      <trkpt lat="44.95171" lon="0.63877">
        <ele>121.26</ele>
        <time>2020-01-11T14:09:04Z</time>
      </trkpt>
      <trkpt lat="44.95162" lon="0.63873">
        <ele>120.78</ele>
        <time>2020-01-11T14:09:10Z</time>
      </trkpt>
      <trkpt lat="44.95161" lon="0.63872">
        <ele>120.78</ele>
        <time>2020-01-11T14:09:11Z</time>
      </trkpt>
      <trkpt lat="44.95151" lon="0.63871">
        <ele>121.74</ele>
        <time>2020-01-11T14:09:24Z</time>
      </trkpt>
      <trkpt lat="44.9515" lon="0.63873">
        <ele>121.74</ele>
        <time>2020-01-11T14:09:30Z</time>
      </trkpt>
      <trkpt lat="44.9515" lon="0.63874">
        <ele>122.22</ele>
        <time>2020-01-11T14:09:31Z</time>
      </trkpt>
      <trkpt lat="44.9515" lon="0.63876">
        <ele>122.22</ele>
        <time>2020-01-11T14:09:32Z</time>
      </trkpt>
      <trkpt lat="44.9515" lon="0.63877">
        <ele>122.22</ele>
        <time>2020-01-11T14:09:33Z</time>
      </trkpt>
      <trkpt lat="44.9515" lon="0.63878">
        <ele>123.19</ele>
        <time>2020-01-11T14:09:34Z</time>
      </trkpt>
      <trkpt lat="44.9515" lon="0.6388">
        <ele>123.19</ele>
        <time>2020-01-11T14:09:35Z</time>
      </trkpt>
      <trkpt lat="44.95154" lon="0.63901">
        <ele>125.59</ele>
        <time>2020-01-11T14:09:49Z</time>
      </trkpt>
      <trkpt lat="44.95156" lon="0.63906">
        <ele>126.55</ele>
        <time>2020-01-11T14:09:52Z</time>
      </trkpt>
      <trkpt lat="44.95156" lon="0.63907">
        <ele>126.55</ele>
        <time>2020-01-11T14:09:53Z</time>
      </trkpt>
      <trkpt lat="44.9516" lon="0.6393">
        <ele>128.95</ele>
        <time>2020-01-11T14:10:07Z</time>
      </trkpt>
      <trkpt lat="44.95178" lon="0.63947">
        <ele>130.4</ele>
        <time>2020-01-11T14:10:21Z</time>
      </trkpt>
      <trkpt lat="44.95182" lon="0.63955">
        <ele>130.88</ele>
        <time>2020-01-11T14:10:25Z</time>
      </trkpt>
      <trkpt lat="44.95182" lon="0.63962">
        <ele>130.88</ele>
        <time>2020-01-11T14:10:29Z</time>
      </trkpt>
      <trkpt lat="44.95182" lon="0.63964">
        <ele>130.88</ele>
        <time>2020-01-11T14:10:30Z</time>
      </trkpt>
      <trkpt lat="44.95186" lon="0.63981">
        <ele>130.88</ele>
        <time>2020-01-11T14:10:40Z</time>
      </trkpt>
      <trkpt lat="44.95187" lon="0.63982">
        <ele>130.88</ele>
        <time>2020-01-11T14:10:41Z</time>
      </trkpt>
      <trkpt lat="44.95188" lon="0.63984">
        <ele>130.88</ele>
        <time>2020-01-11T14:10:42Z</time>
      </trkpt>
      <trkpt lat="44.95188" lon="0.63986">
        <ele>130.88</ele>
        <time>2020-01-11T14:10:43Z</time>
      </trkpt>
      <trkpt lat="44.95189" lon="0.63987">
        <ele>130.88</ele>
        <time>2020-01-11T14:10:44Z</time>
      </trkpt>
      <trkpt lat="44.9519" lon="0.63989">
        <ele>130.88</ele>
        <time>2020-01-11T14:10:45Z</time>
      </trkpt>
      <trkpt lat="44.95191" lon="0.6399">
        <ele>130.88</ele>
        <time>2020-01-11T14:10:46Z</time>
      </trkpt>
      <trkpt lat="44.95194" lon="0.63994">
        <ele>130.88</ele>
        <time>2020-01-11T14:10:51Z</time>
      </trkpt>
      <trkpt lat="44.95195" lon="0.63996">
        <ele>130.88</ele>
        <time>2020-01-11T14:10:52Z</time>
      </trkpt>
      <trkpt lat="44.95195" lon="0.63997">
        <ele>130.88</ele>
        <time>2020-01-11T14:10:53Z</time>
      </trkpt>
      <trkpt lat="44.95204" lon="0.64034">
        <ele>129.92</ele>
        <time>2020-01-11T14:11:12Z</time>
      </trkpt>
      <trkpt lat="44.95217" lon="0.64056">
        <ele>129.43</ele>
        <time>2020-01-11T14:11:26Z</time>
      </trkpt>
      <trkpt lat="44.95228" lon="0.6407">
        <ele>130.88</ele>
        <time>2020-01-11T14:11:39Z</time>
      </trkpt>
      <trkpt lat="44.95243" lon="0.6408">
        <ele>133.28</ele>
        <time>2020-01-11T14:11:55Z</time>
      </trkpt>
      <trkpt lat="44.95261" lon="0.64072">
        <ele>133.28</ele>
        <time>2020-01-11T14:12:10Z</time>
      </trkpt>
      <trkpt lat="44.95272" lon="0.6405">
        <ele>133.76</ele>
        <time>2020-01-11T14:12:23Z</time>
      </trkpt>
      <trkpt lat="44.95288" lon="0.64046">
        <ele>133.76</ele>
        <time>2020-01-11T14:12:36Z</time>
      </trkpt>
      <trkpt lat="44.95307" lon="0.64063">
        <ele>133.76</ele>
        <time>2020-01-11T14:12:50Z</time>
      </trkpt>
      <trkpt lat="44.95326" lon="0.64084">
        <ele>133.76</ele>
        <time>2020-01-11T14:13:07Z</time>
      </trkpt>
      <trkpt lat="44.95327" lon="0.64085">
        <ele>133.76</ele>
        <time>2020-01-11T14:13:08Z</time>
      </trkpt>
      <trkpt lat="44.95328" lon="0.64086">
        <ele>133.76</ele>
        <time>2020-01-11T14:13:09Z</time>
      </trkpt>
      <trkpt lat="44.95329" lon="0.64087">
        <ele>133.76</ele>
        <time>2020-01-11T14:13:10Z</time>
      </trkpt>
      <trkpt lat="44.9533" lon="0.64088">
        <ele>133.76</ele>
        <time>2020-01-11T14:13:11Z</time>
      </trkpt>
      <trkpt lat="44.95331" lon="0.64089">
        <ele>133.76</ele>
        <time>2020-01-11T14:13:12Z</time>
      </trkpt>
      <trkpt lat="44.95332" lon="0.6409">
        <ele>133.76</ele>
        <time>2020-01-11T14:13:13Z</time>
      </trkpt>
      <trkpt lat="44.95333" lon="0.64091">
        <ele>133.76</ele>
        <time>2020-01-11T14:13:14Z</time>
      </trkpt>
      <trkpt lat="44.95357" lon="0.64113">
        <ele>134.24</ele>
        <time>2020-01-11T14:13:34Z</time>
      </trkpt>
      <trkpt lat="44.95385" lon="0.6414">
        <ele>134.72</ele>
        <time>2020-01-11T14:13:55Z</time>
      </trkpt>
      <trkpt lat="44.95408" lon="0.64158">
        <ele>135.68</ele>
        <time>2020-01-11T14:14:13Z</time>
      </trkpt>
      <trkpt lat="44.95434" lon="0.64176">
        <ele>136.16</ele>
        <time>2020-01-11T14:14:31Z</time>
      </trkpt>
      <trkpt lat="44.95455" lon="0.64195">
        <ele>136.64</ele>
        <time>2020-01-11T14:14:47Z</time>
      </trkpt>
      <trkpt lat="44.95473" lon="0.64222">
        <ele>136.64</ele>
        <time>2020-01-11T14:15:05Z</time>
      </trkpt>
      <trkpt lat="44.95493" lon="0.64254">
        <ele>137.61</ele>
        <time>2020-01-11T14:15:25Z</time>
      </trkpt>
      <trkpt lat="44.95511" lon="0.6428">
        <ele>138.09</ele>
        <time>2020-01-11T14:15:41Z</time>
      </trkpt>
      <trkpt lat="44.95531" lon="0.64302">
        <ele>139.05</ele>
        <time>2020-01-11T14:15:57Z</time>
      </trkpt>
      <trkpt lat="44.95533" lon="0.64306">
        <ele>139.05</ele>
        <time>2020-01-11T14:15:59Z</time>
      </trkpt>
      <trkpt lat="44.95535" lon="0.64307">
        <ele>139.05</ele>
        <time>2020-01-11T14:16:00Z</time>
      </trkpt>
      <trkpt lat="44.95557" lon="0.64334">
        <ele>139.05</ele>
        <time>2020-01-11T14:16:20Z</time>
      </trkpt>
      <trkpt lat="44.9558" lon="0.64361">
        <ele>140.01</ele>
        <time>2020-01-11T14:16:41Z</time>
      </trkpt>
      <trkpt lat="44.95608" lon="0.64385">
        <ele>140.01</ele>
        <time>2020-01-11T14:17:01Z</time>
      </trkpt>
      <trkpt lat="44.95632" lon="0.64403">
        <ele>140.01</ele>
        <time>2020-01-11T14:17:18Z</time>
      </trkpt>
      <trkpt lat="44.95654" lon="0.64416">
        <ele>140.01</ele>
        <time>2020-01-11T14:17:35Z</time>
      </trkpt>
      <trkpt lat="44.95683" lon="0.64427">
        <ele>140.01</ele>
        <time>2020-01-11T14:17:53Z</time>
      </trkpt>
      <trkpt lat="44.9571" lon="0.64438">
        <ele>140.01</ele>
        <time>2020-01-11T14:18:12Z</time>
      </trkpt>
      <trkpt lat="44.95732" lon="0.64452">
        <ele>140.01</ele>
        <time>2020-01-11T14:18:28Z</time>
      </trkpt>
      <trkpt lat="44.95754" lon="0.64469">
        <ele>140.01</ele>
        <time>2020-01-11T14:18:43Z</time>
      </trkpt>
      <trkpt lat="44.95782" lon="0.64492">
        <ele>140.97</ele>
        <time>2020-01-11T14:19:03Z</time>
      </trkpt>
      <trkpt lat="44.95806" lon="0.64507">
        <ele>141.45</ele>
        <time>2020-01-11T14:19:21Z</time>
      </trkpt>
      <trkpt lat="44.95833" lon="0.64529">
        <ele>141.93</ele>
        <time>2020-01-11T14:19:41Z</time>
      </trkpt>
      <trkpt lat="44.95859" lon="0.64551">
        <ele>142.89</ele>
        <time>2020-01-11T14:20:02Z</time>
      </trkpt>
      <trkpt lat="44.95886" lon="0.64572">
        <ele>142.41</ele>
        <time>2020-01-11T14:20:21Z</time>
      </trkpt>
      <trkpt lat="44.9591" lon="0.6459">
        <ele>142.41</ele>
        <time>2020-01-11T14:20:40Z</time>
      </trkpt>
      <trkpt lat="44.95932" lon="0.64608">
        <ele>142.41</ele>
        <time>2020-01-11T14:20:58Z</time>
      </trkpt>
      <trkpt lat="44.9596" lon="0.64626">
        <ele>142.41</ele>
        <time>2020-01-11T14:21:17Z</time>
      </trkpt>
      <trkpt lat="44.95987" lon="0.64638">
        <ele>142.41</ele>
        <time>2020-01-11T14:21:36Z</time>
      </trkpt>
      <trkpt lat="44.96014" lon="0.64651">
        <ele>142.41</ele>
        <time>2020-01-11T14:21:56Z</time>
      </trkpt>
      <trkpt lat="44.96028" lon="0.64653">
        <ele>142.89</ele>
        <time>2020-01-11T14:22:12Z</time>
      </trkpt>
      <trkpt lat="44.96027" lon="0.64652">
        <ele>142.89</ele>
        <time>2020-01-11T14:22:14Z</time>
      </trkpt>
      <trkpt lat="44.96026" lon="0.64651">
        <ele>141.45</ele>
        <time>2020-01-11T14:22:15Z</time>
      </trkpt>
      <trkpt lat="44.96025" lon="0.64649">
        <ele>141.45</ele>
        <time>2020-01-11T14:22:16Z</time>
      </trkpt>
      <trkpt lat="44.96024" lon="0.64649">
        <ele>141.45</ele>
        <time>2020-01-11T14:22:17Z</time>
      </trkpt>
      <trkpt lat="44.96023" lon="0.64648">
        <ele>140.97</ele>
        <time>2020-01-11T14:22:18Z</time>
      </trkpt>
      <trkpt lat="44.96005" lon="0.6463">
        <ele>138.57</ele>
        <time>2020-01-11T14:22:34Z</time>
      </trkpt>
      <trkpt lat="44.95989" lon="0.64614">
        <ele>135.68</ele>
        <time>2020-01-11T14:22:49Z</time>
      </trkpt>
      <trkpt lat="44.95971" lon="0.64591">
        <ele>132.8</ele>
        <time>2020-01-11T14:23:04Z</time>
      </trkpt>
      <trkpt lat="44.95956" lon="0.6457">
        <ele>131.36</ele>
        <time>2020-01-11T14:23:20Z</time>
      </trkpt>
      <trkpt lat="44.9593" lon="0.64552">
        <ele>129.92</ele>
        <time>2020-01-11T14:23:38Z</time>
      </trkpt>
      <trkpt lat="44.9592" lon="0.6454">
        <ele>129.43</ele>
        <time>2020-01-11T14:23:47Z</time>
      </trkpt>
      <trkpt lat="44.9592" lon="0.64538">
        <ele>129.43</ele>
        <time>2020-01-11T14:23:48Z</time>
      </trkpt>
      <trkpt lat="44.9592" lon="0.64536">
        <ele>129.43</ele>
        <time>2020-01-11T14:23:49Z</time>
      </trkpt>
      <trkpt lat="44.9592" lon="0.64534">
        <ele>129.43</ele>
        <time>2020-01-11T14:23:50Z</time>
      </trkpt>
      <trkpt lat="44.9592" lon="0.64532">
        <ele>129.43</ele>
        <time>2020-01-11T14:23:51Z</time>
      </trkpt>
      <trkpt lat="44.95921" lon="0.6453">
        <ele>128.95</ele>
        <time>2020-01-11T14:23:52Z</time>
      </trkpt>
      <trkpt lat="44.95922" lon="0.64528">
        <ele>128.95</ele>
        <time>2020-01-11T14:23:53Z</time>
      </trkpt>
      <trkpt lat="44.95922" lon="0.64527">
        <ele>128.47</ele>
        <time>2020-01-11T14:23:54Z</time>
      </trkpt>
      <trkpt lat="44.95926" lon="0.64524">
        <ele>127.99</ele>
        <time>2020-01-11T14:23:57Z</time>
      </trkpt>
      <trkpt lat="44.95928" lon="0.64524">
        <ele>127.99</ele>
        <time>2020-01-11T14:23:58Z</time>
      </trkpt>
      <trkpt lat="44.95929" lon="0.64524">
        <ele>127.99</ele>
        <time>2020-01-11T14:23:59Z</time>
      </trkpt>
      <trkpt lat="44.95931" lon="0.64524">
        <ele>127.51</ele>
        <time>2020-01-11T14:24:00Z</time>
      </trkpt>
      <trkpt lat="44.95932" lon="0.64524">
        <ele>127.51</ele>
        <time>2020-01-11T14:24:01Z</time>
      </trkpt>
      <trkpt lat="44.95934" lon="0.64524">
        <ele>127.51</ele>
        <time>2020-01-11T14:24:02Z</time>
      </trkpt>
      <trkpt lat="44.95936" lon="0.64524">
        <ele>127.03</ele>
        <time>2020-01-11T14:24:03Z</time>
      </trkpt>
      <trkpt lat="44.95963" lon="0.64524">
        <ele>124.15</ele>
        <time>2020-01-11T14:24:22Z</time>
      </trkpt>
      <trkpt lat="44.95989" lon="0.64526">
        <ele>122.22</ele>
        <time>2020-01-11T14:24:39Z</time>
      </trkpt>
      <trkpt lat="44.96017" lon="0.64527">
        <ele>120.3</ele>
        <time>2020-01-11T14:24:56Z</time>
      </trkpt>
      <trkpt lat="44.96042" lon="0.64528">
        <ele>117.9</ele>
        <time>2020-01-11T14:25:14Z</time>
      </trkpt>
      <trkpt lat="44.9607" lon="0.64528">
        <ele>115.01</ele>
        <time>2020-01-11T14:25:31Z</time>
      </trkpt>
      <trkpt lat="44.96091" lon="0.64527">
        <ele>114.05</ele>
        <time>2020-01-11T14:25:44Z</time>
      </trkpt>
      <trkpt lat="44.96113" lon="0.64526">
        <ele>111.17</ele>
        <time>2020-01-11T14:26:00Z</time>
      </trkpt>
      <trkpt lat="44.96131" lon="0.64511">
        <ele>107.81</ele>
        <time>2020-01-11T14:26:16Z</time>
      </trkpt>
      <trkpt lat="44.96132" lon="0.64477">
        <ele>106.36</ele>
        <time>2020-01-11T14:26:32Z</time>
      </trkpt>
      <trkpt lat="44.96134" lon="0.64454">
        <ele>105.88</ele>
        <time>2020-01-11T14:26:47Z</time>
      </trkpt>
      <trkpt lat="44.96138" lon="0.64424">
        <ele>105.88</ele>
        <time>2020-01-11T14:27:05Z</time>
      </trkpt>
      <trkpt lat="44.9614" lon="0.64419">
        <ele>106.84</ele>
        <time>2020-01-11T14:27:09Z</time>
      </trkpt>
      <trkpt lat="44.96143" lon="0.64416">
        <ele>107.32</ele>
        <time>2020-01-11T14:27:12Z</time>
      </trkpt>
      <trkpt lat="44.96144" lon="0.64415">
        <ele>107.32</ele>
        <time>2020-01-11T14:27:13Z</time>
      </trkpt>
      <trkpt lat="44.96145" lon="0.64415">
        <ele>107.32</ele>
        <time>2020-01-11T14:27:14Z</time>
      </trkpt>
      <trkpt lat="44.96155" lon="0.64413">
        <ele>107.32</ele>
        <time>2020-01-11T14:27:21Z</time>
      </trkpt>
      <trkpt lat="44.96157" lon="0.64412">
        <ele>107.32</ele>
        <time>2020-01-11T14:27:22Z</time>
      </trkpt>
      <trkpt lat="44.9618" lon="0.64408">
        <ele>107.81</ele>
        <time>2020-01-11T14:27:38Z</time>
      </trkpt>
      <trkpt lat="44.96201" lon="0.64411">
        <ele>107.81</ele>
        <time>2020-01-11T14:27:53Z</time>
      </trkpt>
      <trkpt lat="44.96221" lon="0.64416">
        <ele>107.81</ele>
        <time>2020-01-11T14:28:07Z</time>
      </trkpt>
      <trkpt lat="44.96238" lon="0.64419">
        <ele>109.25</ele>
        <time>2020-01-11T14:28:21Z</time>
      </trkpt>
      <trkpt lat="44.9624" lon="0.6442">
        <ele>109.25</ele>
        <time>2020-01-11T14:28:22Z</time>
      </trkpt>
      <trkpt lat="44.96241" lon="0.6442">
        <ele>109.25</ele>
        <time>2020-01-11T14:28:23Z</time>
      </trkpt>
      <trkpt lat="44.96242" lon="0.6442">
        <ele>109.25</ele>
        <time>2020-01-11T14:28:24Z</time>
      </trkpt>
      <trkpt lat="44.96243" lon="0.6442">
        <ele>109.25</ele>
        <time>2020-01-11T14:28:25Z</time>
      </trkpt>
      <trkpt lat="44.96244" lon="0.6442">
        <ele>109.25</ele>
        <time>2020-01-11T14:28:26Z</time>
      </trkpt>
      <trkpt lat="44.96257" lon="0.64421">
        <ele>110.69</ele>
        <time>2020-01-11T14:28:38Z</time>
      </trkpt>
      <trkpt lat="44.96279" lon="0.6443">
        <ele>112.13</ele>
        <time>2020-01-11T14:28:51Z</time>
      </trkpt>
      <trkpt lat="44.96302" lon="0.64438">
        <ele>113.09</ele>
        <time>2020-01-11T14:29:07Z</time>
      </trkpt>
      <trkpt lat="44.9633" lon="0.64449">
        <ele>113.57</ele>
        <time>2020-01-11T14:29:23Z</time>
      </trkpt>
      <trkpt lat="44.96352" lon="0.64455">
        <ele>113.57</ele>
        <time>2020-01-11T14:29:39Z</time>
      </trkpt>
      <trkpt lat="44.96376" lon="0.64457">
        <ele>113.57</ele>
        <time>2020-01-11T14:29:56Z</time>
      </trkpt>
      <trkpt lat="44.96399" lon="0.64458">
        <ele>114.53</ele>
        <time>2020-01-11T14:30:13Z</time>
      </trkpt>
      <trkpt lat="44.9642" lon="0.64458">
        <ele>114.53</ele>
        <time>2020-01-11T14:30:27Z</time>
      </trkpt>
      <trkpt lat="44.96442" lon="0.64462">
        <ele>113.57</ele>
        <time>2020-01-11T14:30:45Z</time>
      </trkpt>
      <trkpt lat="44.96456" lon="0.64454">
        <ele>113.09</ele>
        <time>2020-01-11T14:30:58Z</time>
      </trkpt>
      <trkpt lat="44.96465" lon="0.64438">
        <ele>114.53</ele>
        <time>2020-01-11T14:31:09Z</time>
      </trkpt>
      <trkpt lat="44.96476" lon="0.64418">
        <ele>115.98</ele>
        <time>2020-01-11T14:31:23Z</time>
      </trkpt>
      <trkpt lat="44.96478" lon="0.64409">
        <ele>116.46</ele>
        <time>2020-01-11T14:31:27Z</time>
      </trkpt>
      <trkpt lat="44.96485" lon="0.64386">
        <ele>116.94</ele>
        <time>2020-01-11T14:31:41Z</time>
      </trkpt>
      <trkpt lat="44.9649" lon="0.64376">
        <ele>117.42</ele>
        <time>2020-01-11T14:31:46Z</time>
      </trkpt>
      <trkpt lat="44.96491" lon="0.64372">
        <ele>117.42</ele>
        <time>2020-01-11T14:31:48Z</time>
      </trkpt>
      <trkpt lat="44.96505" lon="0.6434">
        <ele>116.94</ele>
        <time>2020-01-11T14:32:06Z</time>
      </trkpt>
      <trkpt lat="44.96516" lon="0.6432">
        <ele>117.42</ele>
        <time>2020-01-11T14:32:19Z</time>
      </trkpt>
      <trkpt lat="44.96519" lon="0.64317">
        <ele>117.42</ele>
        <time>2020-01-11T14:32:21Z</time>
      </trkpt>
      <trkpt lat="44.96526" lon="0.64308">
        <ele>117.42</ele>
        <time>2020-01-11T14:32:27Z</time>
      </trkpt>
      <trkpt lat="44.96532" lon="0.643">
        <ele>117.42</ele>
        <time>2020-01-11T14:32:32Z</time>
      </trkpt>
      <trkpt lat="44.96544" lon="0.64279">
        <ele>117.42</ele>
        <time>2020-01-11T14:32:46Z</time>
      </trkpt>
      <trkpt lat="44.96546" lon="0.64277">
        <ele>117.42</ele>
        <time>2020-01-11T14:32:48Z</time>
      </trkpt>
      <trkpt lat="44.96554" lon="0.64269">
        <ele>117.42</ele>
        <time>2020-01-11T14:32:54Z</time>
      </trkpt>
      <trkpt lat="44.96569" lon="0.64255">
        <ele>118.38</ele>
        <time>2020-01-11T14:33:08Z</time>
      </trkpt>
      <trkpt lat="44.9657" lon="0.64254">
        <ele>118.38</ele>
        <time>2020-01-11T14:33:09Z</time>
      </trkpt>
      <trkpt lat="44.96582" lon="0.64242">
        <ele>120.3</ele>
        <time>2020-01-11T14:33:20Z</time>
      </trkpt>
      <trkpt lat="44.96603" lon="0.64235">
        <ele>121.26</ele>
        <time>2020-01-11T14:33:33Z</time>
      </trkpt>
      <trkpt lat="44.96618" lon="0.64233">
        <ele>121.26</ele>
        <time>2020-01-11T14:33:45Z</time>
      </trkpt>
      <trkpt lat="44.96634" lon="0.64225">
        <ele>121.26</ele>
        <time>2020-01-11T14:33:58Z</time>
      </trkpt>
      <trkpt lat="44.9665" lon="0.64216">
        <ele>121.26</ele>
        <time>2020-01-11T14:34:10Z</time>
      </trkpt>
      <trkpt lat="44.96669" lon="0.6421">
        <ele>121.26</ele>
        <time>2020-01-11T14:34:22Z</time>
      </trkpt>
      <trkpt lat="44.96675" lon="0.64206">
        <ele>121.26</ele>
        <time>2020-01-11T14:34:27Z</time>
      </trkpt>
      <trkpt lat="44.96691" lon="0.64211">
        <ele>119.82</ele>
        <time>2020-01-11T14:34:40Z</time>
      </trkpt>
      <trkpt lat="44.96701" lon="0.64214">
        <ele>119.82</ele>
        <time>2020-01-11T14:34:53Z</time>
      </trkpt>
      <trkpt lat="44.96701" lon="0.64213">
        <ele>119.82</ele>
        <time>2020-01-11T14:34:55Z</time>
      </trkpt>
      <trkpt lat="44.96709" lon="0.6422">
        <ele>119.82</ele>
        <time>2020-01-11T14:34:58Z</time>
      </trkpt>
      <trkpt lat="44.96739" lon="0.64259">
        <ele>119.82</ele>
        <time>2020-01-11T14:35:14Z</time>
      </trkpt>
      <trkpt lat="44.96751" lon="0.64275">
        <ele>119.34</ele>
        <time>2020-01-11T14:35:22Z</time>
      </trkpt>
      <trkpt lat="44.96749" lon="0.6431">
        <ele>118.86</ele>
        <time>2020-01-11T14:35:37Z</time>
      </trkpt>
      <trkpt lat="44.96749" lon="0.64318">
        <ele>118.86</ele>
        <time>2020-01-11T14:35:41Z</time>
      </trkpt>
      <trkpt lat="44.96765" lon="0.64337">
        <ele>118.86</ele>
        <time>2020-01-11T14:35:58Z</time>
      </trkpt>
      <trkpt lat="44.96783" lon="0.6435">
        <ele>119.82</ele>
        <time>2020-01-11T14:36:12Z</time>
      </trkpt>
      <trkpt lat="44.96794" lon="0.6436">
        <ele>120.78</ele>
        <time>2020-01-11T14:36:21Z</time>
      </trkpt>
      <trkpt lat="44.96797" lon="0.64399">
        <ele>120.78</ele>
        <time>2020-01-11T14:36:38Z</time>
      </trkpt>
      <trkpt lat="44.96802" lon="0.64418">
        <ele>121.26</ele>
        <time>2020-01-11T14:36:52Z</time>
      </trkpt>
      <trkpt lat="44.96802" lon="0.64417">
        <ele>121.74</ele>
        <time>2020-01-11T14:37:12Z</time>
      </trkpt>
      <trkpt lat="44.968" lon="0.64418">
        <ele>121.74</ele>
        <time>2020-01-11T14:37:32Z</time>
      </trkpt>
      <trkpt lat="44.96799" lon="0.64419">
        <ele>122.22</ele>
        <time>2020-01-11T14:37:56Z</time>
      </trkpt>
      <trkpt lat="44.968" lon="0.64417">
        <ele>122.71</ele>
        <time>2020-01-11T14:38:20Z</time>
      </trkpt>
      <trkpt lat="44.96799" lon="0.64416">
        <ele>122.71</ele>
        <time>2020-01-11T14:38:40Z</time>
      </trkpt>
      <trkpt lat="44.96803" lon="0.6442">
        <ele>122.71</ele>
        <time>2020-01-11T14:39:05Z</time>
      </trkpt>
      <trkpt lat="44.96802" lon="0.64418">
        <ele>122.71</ele>
        <time>2020-01-11T14:39:19Z</time>
      </trkpt>
      <trkpt lat="44.96799" lon="0.64415">
        <ele>122.71</ele>
        <time>2020-01-11T14:39:38Z</time>
      </trkpt>
      <trkpt lat="44.96801" lon="0.64415">
        <ele>122.71</ele>
        <time>2020-01-11T14:39:58Z</time>
      </trkpt>
      <trkpt lat="44.96816" lon="0.64417">
        <ele>123.19</ele>
        <time>2020-01-11T14:40:19Z</time>
      </trkpt>
      <trkpt lat="44.96821" lon="0.64419">
        <ele>123.19</ele>
        <time>2020-01-11T14:40:23Z</time>
      </trkpt>
      <trkpt lat="44.96855" lon="0.64427">
        <ele>123.67</ele>
        <time>2020-01-11T14:40:47Z</time>
      </trkpt>
      <trkpt lat="44.96883" lon="0.64433">
        <ele>124.63</ele>
        <time>2020-01-11T14:41:09Z</time>
      </trkpt>
      <trkpt lat="44.96912" lon="0.64435">
        <ele>125.59</ele>
        <time>2020-01-11T14:41:31Z</time>
      </trkpt>
      <trkpt lat="44.96946" lon="0.64439">
        <ele>126.55</ele>
        <time>2020-01-11T14:41:55Z</time>
      </trkpt>
      <trkpt lat="44.96977" lon="0.64445">
        <ele>127.51</ele>
        <time>2020-01-11T14:42:15Z</time>
      </trkpt>
      <trkpt lat="44.97017" lon="0.64449">
        <ele>128.47</ele>
        <time>2020-01-11T14:42:40Z</time>
      </trkpt>
      <trkpt lat="44.97051" lon="0.64465">
        <ele>129.43</ele>
        <time>2020-01-11T14:43:02Z</time>
      </trkpt>
      <trkpt lat="44.97083" lon="0.64481">
        <ele>130.88</ele>
        <time>2020-01-11T14:43:24Z</time>
      </trkpt>
      <trkpt lat="44.97096" lon="0.64482">
        <ele>131.36</ele>
        <time>2020-01-11T14:43:34Z</time>
      </trkpt>
      <trkpt lat="44.97106" lon="0.64477">
        <ele>130.4</ele>
        <time>2020-01-11T14:43:44Z</time>
      </trkpt>
      <trkpt lat="44.97114" lon="0.64447">
        <ele>130.4</ele>
        <time>2020-01-11T14:44:06Z</time>
      </trkpt>
      <trkpt lat="44.97118" lon="0.64419">
        <ele>131.84</ele>
        <time>2020-01-11T14:44:21Z</time>
      </trkpt>
      <trkpt lat="44.9714" lon="0.64391">
        <ele>134.72</ele>
        <time>2020-01-11T14:44:44Z</time>
      </trkpt>
      <trkpt lat="44.97161" lon="0.64371">
        <ele>136.16</ele>
        <time>2020-01-11T14:45:03Z</time>
      </trkpt>
      <trkpt lat="44.97192" lon="0.64339">
        <ele>138.09</ele>
        <time>2020-01-11T14:45:29Z</time>
      </trkpt>
      <trkpt lat="44.97216" lon="0.64311">
        <ele>140.97</ele>
        <time>2020-01-11T14:45:52Z</time>
      </trkpt>
      <trkpt lat="44.9724" lon="0.64273">
        <ele>141.45</ele>
        <time>2020-01-11T14:46:15Z</time>
      </trkpt>
      <trkpt lat="44.97259" lon="0.64245">
        <ele>142.41</ele>
        <time>2020-01-11T14:46:36Z</time>
      </trkpt>
      <trkpt lat="44.97286" lon="0.64209">
        <ele>143.37</ele>
        <time>2020-01-11T14:46:58Z</time>
      </trkpt>
      <trkpt lat="44.97309" lon="0.64171">
        <ele>144.34</ele>
        <time>2020-01-11T14:47:21Z</time>
      </trkpt>
      <trkpt lat="44.97328" lon="0.64138">
        <ele>145.3</ele>
        <time>2020-01-11T14:47:42Z</time>
      </trkpt>
      <trkpt lat="44.97356" lon="0.64105">
        <ele>146.26</ele>
        <time>2020-01-11T14:48:06Z</time>
      </trkpt>
      <trkpt lat="44.97382" lon="0.64074">
        <ele>147.7</ele>
        <time>2020-01-11T14:48:28Z</time>
      </trkpt>
      <trkpt lat="44.97403" lon="0.64033">
        <ele>149.14</ele>
        <time>2020-01-11T14:48:52Z</time>
      </trkpt>
      <trkpt lat="44.9742" lon="0.63989">
        <ele>150.1</ele>
        <time>2020-01-11T14:49:14Z</time>
      </trkpt>
      <trkpt lat="44.97431" lon="0.6397">
        <ele>152.03</ele>
        <time>2020-01-11T14:49:28Z</time>
      </trkpt>
      <trkpt lat="44.97458" lon="0.63935">
        <ele>152.51</ele>
        <time>2020-01-11T14:49:52Z</time>
      </trkpt>
      <trkpt lat="44.97482" lon="0.63914">
        <ele>154.43</ele>
        <time>2020-01-11T14:50:14Z</time>
      </trkpt>
      <trkpt lat="44.97516" lon="0.63908">
        <ele>155.39</ele>
        <time>2020-01-11T14:50:37Z</time>
      </trkpt>
      <trkpt lat="44.97547" lon="0.63893">
        <ele>156.83</ele>
        <time>2020-01-11T14:51:00Z</time>
      </trkpt>
      <trkpt lat="44.97577" lon="0.63887">
        <ele>158.75</ele>
        <time>2020-01-11T14:51:24Z</time>
      </trkpt>
      <trkpt lat="44.97608" lon="0.63888">
        <ele>160.68</ele>
        <time>2020-01-11T14:51:47Z</time>
      </trkpt>
      <trkpt lat="44.97638" lon="0.63896">
        <ele>162.12</ele>
        <time>2020-01-11T14:52:10Z</time>
      </trkpt>
      <trkpt lat="44.97672" lon="0.63894">
        <ele>164.04</ele>
        <time>2020-01-11T14:52:33Z</time>
      </trkpt>
      <trkpt lat="44.97701" lon="0.63903">
        <ele>166.93</ele>
        <time>2020-01-11T14:52:53Z</time>
      </trkpt>
      <trkpt lat="44.97719" lon="0.63915">
        <ele>170.29</ele>
        <time>2020-01-11T14:53:11Z</time>
      </trkpt>
      <trkpt lat="44.97738" lon="0.63932">
        <ele>172.69</ele>
        <time>2020-01-11T14:53:30Z</time>
      </trkpt>
      <trkpt lat="44.97757" lon="0.63944">
        <ele>176.06</ele>
        <time>2020-01-11T14:53:49Z</time>
      </trkpt>
      <trkpt lat="44.97772" lon="0.63956">
        <ele>178.94</ele>
        <time>2020-01-11T14:54:05Z</time>
      </trkpt>
      <trkpt lat="44.97791" lon="0.63961">
        <ele>181.83</ele>
        <time>2020-01-11T14:54:25Z</time>
      </trkpt>
      <trkpt lat="44.97815" lon="0.63966">
        <ele>184.71</ele>
        <time>2020-01-11T14:54:47Z</time>
      </trkpt>
      <trkpt lat="44.97843" lon="0.63965">
        <ele>186.63</ele>
        <time>2020-01-11T14:55:09Z</time>
      </trkpt>
      <trkpt lat="44.97869" lon="0.63966">
        <ele>189.52</ele>
        <time>2020-01-11T14:55:32Z</time>
      </trkpt>
      <trkpt lat="44.97891" lon="0.63969">
        <ele>191.44</ele>
        <time>2020-01-11T14:55:52Z</time>
      </trkpt>
      <trkpt lat="44.97921" lon="0.63987">
        <ele>193.36</ele>
        <time>2020-01-11T14:56:15Z</time>
      </trkpt>
      <trkpt lat="44.97927" lon="0.63989">
        <ele>194.32</ele>
        <time>2020-01-11T14:56:21Z</time>
      </trkpt>
      <trkpt lat="44.97949" lon="0.63996">
        <ele>198.17</ele>
        <time>2020-01-11T14:56:42Z</time>
      </trkpt>
      <trkpt lat="44.97972" lon="0.64006">
        <ele>200.57</ele>
        <time>2020-01-11T14:57:04Z</time>
      </trkpt>
      <trkpt lat="44.97981" lon="0.64012">
        <ele>201.05</ele>
        <time>2020-01-11T14:57:27Z</time>
      </trkpt>
      <trkpt lat="44.97981" lon="0.64013">
        <ele>201.53</ele>
        <time>2020-01-11T14:57:49Z</time>
      </trkpt>
      <trkpt lat="44.97995" lon="0.64017">
        <ele>202.01</ele>
        <time>2020-01-11T14:58:10Z</time>
      </trkpt>
      <trkpt lat="44.97997" lon="0.64017">
        <ele>202.01</ele>
        <time>2020-01-11T14:58:34Z</time>
      </trkpt>
      <trkpt lat="44.97991" lon="0.64021">
        <ele>202.49</ele>
        <time>2020-01-11T14:58:58Z</time>
      </trkpt>
      <trkpt lat="44.97995" lon="0.64014">
        <ele>202.49</ele>
        <time>2020-01-11T14:59:24Z</time>
      </trkpt>
      <trkpt lat="44.97996" lon="0.64004">
        <ele>202.98</ele>
        <time>2020-01-11T14:59:33Z</time>
      </trkpt>
      <trkpt lat="44.9799" lon="0.63972">
        <ele>202.98</ele>
        <time>2020-01-11T14:59:51Z</time>
      </trkpt>
      <trkpt lat="44.97985" lon="0.63925">
        <ele>202.98</ele>
        <time>2020-01-11T15:00:14Z</time>
      </trkpt>
      <trkpt lat="44.97979" lon="0.63886">
        <ele>203.46</ele>
        <time>2020-01-11T15:00:37Z</time>
      </trkpt>
      <trkpt lat="44.97969" lon="0.63848">
        <ele>202.01</ele>
        <time>2020-01-11T15:00:57Z</time>
      </trkpt>
      <trkpt lat="44.97947" lon="0.63807">
        <ele>201.05</ele>
        <time>2020-01-11T15:01:21Z</time>
      </trkpt>
      <trkpt lat="44.97944" lon="0.63803">
        <ele>201.05</ele>
        <time>2020-01-11T15:01:23Z</time>
      </trkpt>
      <trkpt lat="44.97919" lon="0.63764">
        <ele>200.57</ele>
        <time>2020-01-11T15:01:46Z</time>
      </trkpt>
      <trkpt lat="44.97894" lon="0.63721">
        <ele>200.57</ele>
        <time>2020-01-11T15:02:12Z</time>
      </trkpt>
      <trkpt lat="44.97898" lon="0.63704">
        <ele>201.53</ele>
        <time>2020-01-11T15:02:21Z</time>
      </trkpt>
      <trkpt lat="44.97906" lon="0.6366">
        <ele>201.53</ele>
        <time>2020-01-11T15:02:43Z</time>
      </trkpt>
      <trkpt lat="44.97916" lon="0.6363">
        <ele>200.57</ele>
        <time>2020-01-11T15:03:00Z</time>
      </trkpt>
      <trkpt lat="44.97924" lon="0.63583">
        <ele>198.65</ele>
        <time>2020-01-11T15:03:22Z</time>
      </trkpt>
      <trkpt lat="44.97928" lon="0.63545">
        <ele>197.69</ele>
        <time>2020-01-11T15:03:41Z</time>
      </trkpt>
      <trkpt lat="44.97935" lon="0.63495">
        <ele>197.21</ele>
        <time>2020-01-11T15:04:06Z</time>
      </trkpt>
      <trkpt lat="44.97937" lon="0.63446">
        <ele>196.73</ele>
        <time>2020-01-11T15:04:28Z</time>
      </trkpt>
      <trkpt lat="44.97938" lon="0.63391">
        <ele>196.73</ele>
        <time>2020-01-11T15:04:53Z</time>
      </trkpt>
      <trkpt lat="44.97933" lon="0.6336">
        <ele>198.17</ele>
        <time>2020-01-11T15:05:08Z</time>
      </trkpt>
      <trkpt lat="44.97924" lon="0.63319">
        <ele>198.17</ele>
        <time>2020-01-11T15:05:29Z</time>
      </trkpt>
      <trkpt lat="44.97916" lon="0.63269">
        <ele>199.13</ele>
        <time>2020-01-11T15:05:54Z</time>
      </trkpt>
      <trkpt lat="44.97911" lon="0.6321">
        <ele>199.13</ele>
        <time>2020-01-11T15:06:19Z</time>
      </trkpt>
      <trkpt lat="44.97911" lon="0.63154">
        <ele>197.21</ele>
        <time>2020-01-11T15:06:45Z</time>
      </trkpt>
      <trkpt lat="44.97912" lon="0.63095">
        <ele>194.8</ele>
        <time>2020-01-11T15:07:12Z</time>
      </trkpt>
      <trkpt lat="44.9791" lon="0.63041">
        <ele>193.36</ele>
        <time>2020-01-11T15:07:37Z</time>
      </trkpt>
      <trkpt lat="44.97907" lon="0.62993">
        <ele>192.88</ele>
        <time>2020-01-11T15:08:01Z</time>
      </trkpt>
      <trkpt lat="44.97908" lon="0.62955">
        <ele>192.88</ele>
        <time>2020-01-11T15:08:20Z</time>
      </trkpt>
      <trkpt lat="44.97909" lon="0.62915">
        <ele>192.88</ele>
        <time>2020-01-11T15:08:38Z</time>
      </trkpt>
      <trkpt lat="44.97909" lon="0.62871">
        <ele>192.88</ele>
        <time>2020-01-11T15:09:00Z</time>
      </trkpt>
      <trkpt lat="44.9791" lon="0.62859">
        <ele>193.84</ele>
        <time>2020-01-11T15:09:06Z</time>
      </trkpt>
      <trkpt lat="44.97909" lon="0.62811">
        <ele>195.28</ele>
        <time>2020-01-11T15:09:29Z</time>
      </trkpt>
      <trkpt lat="44.97905" lon="0.62778">
        <ele>195.77</ele>
        <time>2020-01-11T15:09:47Z</time>
      </trkpt>
      <trkpt lat="44.979" lon="0.62734">
        <ele>195.77</ele>
        <time>2020-01-11T15:10:07Z</time>
      </trkpt>
      <trkpt lat="44.97902" lon="0.6269">
        <ele>195.77</ele>
        <time>2020-01-11T15:10:25Z</time>
      </trkpt>
      <trkpt lat="44.97902" lon="0.62638">
        <ele>194.8</ele>
        <time>2020-01-11T15:10:48Z</time>
      </trkpt>
      <trkpt lat="44.97902" lon="0.62572">
        <ele>193.36</ele>
        <time>2020-01-11T15:11:16Z</time>
      </trkpt>
      <trkpt lat="44.979" lon="0.62525">
        <ele>194.32</ele>
        <time>2020-01-11T15:11:37Z</time>
      </trkpt>
      <trkpt lat="44.9791" lon="0.62473">
        <ele>192.4</ele>
        <time>2020-01-11T15:12:03Z</time>
      </trkpt>
      <trkpt lat="44.97919" lon="0.62436">
        <ele>192.4</ele>
        <time>2020-01-11T15:12:20Z</time>
      </trkpt>
      <trkpt lat="44.97925" lon="0.62396">
        <ele>193.84</ele>
        <time>2020-01-11T15:12:40Z</time>
      </trkpt>
      <trkpt lat="44.97925" lon="0.62353">
        <ele>195.28</ele>
        <time>2020-01-11T15:13:02Z</time>
      </trkpt>
      <trkpt lat="44.97929" lon="0.62304">
        <ele>197.69</ele>
        <time>2020-01-11T15:13:26Z</time>
      </trkpt>
      <trkpt lat="44.9795" lon="0.62293">
        <ele>196.73</ele>
        <time>2020-01-11T15:13:43Z</time>
      </trkpt>
      <trkpt lat="44.9798" lon="0.62274">
        <ele>193.84</ele>
        <time>2020-01-11T15:14:08Z</time>
      </trkpt>
      <trkpt lat="44.9798" lon="0.62272">
        <ele>193.84</ele>
        <time>2020-01-11T15:14:09Z</time>
      </trkpt>
      <trkpt lat="44.9798" lon="0.62269">
        <ele>193.84</ele>
        <time>2020-01-11T15:14:10Z</time>
      </trkpt>
      <trkpt lat="44.9798" lon="0.62267">
        <ele>193.84</ele>
        <time>2020-01-11T15:14:11Z</time>
      </trkpt>
      <trkpt lat="44.97979" lon="0.62265">
        <ele>193.84</ele>
        <time>2020-01-11T15:14:12Z</time>
      </trkpt>
      <trkpt lat="44.97979" lon="0.62262">
        <ele>193.36</ele>
        <time>2020-01-11T15:14:13Z</time>
      </trkpt>
      <trkpt lat="44.97962" lon="0.62231">
        <ele>192.88</ele>
        <time>2020-01-11T15:14:33Z</time>
      </trkpt>
      <trkpt lat="44.97947" lon="0.62188">
        <ele>190.48</ele>
        <time>2020-01-11T15:14:57Z</time>
      </trkpt>
      <trkpt lat="44.97943" lon="0.62145">
        <ele>189.52</ele>
        <time>2020-01-11T15:15:21Z</time>
      </trkpt>
      <trkpt lat="44.97941" lon="0.62101">
        <ele>189.52</ele>
        <time>2020-01-11T15:15:42Z</time>
      </trkpt>
      <trkpt lat="44.97942" lon="0.62079">
        <ele>189.52</ele>
        <time>2020-01-11T15:15:52Z</time>
      </trkpt>
      <trkpt lat="44.97946" lon="0.62023">
        <ele>190</ele>
        <time>2020-01-11T15:16:16Z</time>
      </trkpt>
      <trkpt lat="44.97953" lon="0.61968">
        <ele>189.52</ele>
        <time>2020-01-11T15:16:43Z</time>
      </trkpt>
      <trkpt lat="44.97958" lon="0.61917">
        <ele>189.04</ele>
        <time>2020-01-11T15:17:08Z</time>
      </trkpt>
      <trkpt lat="44.9796" lon="0.61866">
        <ele>189.04</ele>
        <time>2020-01-11T15:17:32Z</time>
      </trkpt>
      <trkpt lat="44.97961" lon="0.6182">
        <ele>190</ele>
        <time>2020-01-11T15:17:54Z</time>
      </trkpt>
      <trkpt lat="44.97961" lon="0.61772">
        <ele>190.48</ele>
        <time>2020-01-11T15:18:16Z</time>
      </trkpt>
      <trkpt lat="44.9796" lon="0.61731">
        <ele>191.44</ele>
        <time>2020-01-11T15:18:38Z</time>
      </trkpt>
      <trkpt lat="44.9795" lon="0.61689">
        <ele>190.48</ele>
        <time>2020-01-11T15:19:00Z</time>
      </trkpt>
      <trkpt lat="44.97941" lon="0.61642">
        <ele>189.52</ele>
        <time>2020-01-11T15:19:23Z</time>
      </trkpt>
      <trkpt lat="44.97935" lon="0.61596">
        <ele>188.08</ele>
        <time>2020-01-11T15:19:47Z</time>
      </trkpt>
      <trkpt lat="44.97923" lon="0.61547">
        <ele>187.11</ele>
        <time>2020-01-11T15:20:10Z</time>
      </trkpt>
      <trkpt lat="44.97915" lon="0.61492">
        <ele>186.15</ele>
        <time>2020-01-11T15:20:35Z</time>
      </trkpt>
      <trkpt lat="44.97908" lon="0.61447">
        <ele>185.67</ele>
        <time>2020-01-11T15:20:58Z</time>
      </trkpt>
      <trkpt lat="44.979" lon="0.61404">
        <ele>184.71</ele>
        <time>2020-01-11T15:21:20Z</time>
      </trkpt>
      <trkpt lat="44.97891" lon="0.61372">
        <ele>183.75</ele>
        <time>2020-01-11T15:21:36Z</time>
      </trkpt>
      <trkpt lat="44.97874" lon="0.61328">
        <ele>183.27</ele>
        <time>2020-01-11T15:21:59Z</time>
      </trkpt>
      <trkpt lat="44.97859" lon="0.61299">
        <ele>182.79</ele>
        <time>2020-01-11T15:22:15Z</time>
      </trkpt>
      <trkpt lat="44.97845" lon="0.61258">
        <ele>181.83</ele>
        <time>2020-01-11T15:22:36Z</time>
      </trkpt>
      <trkpt lat="44.97825" lon="0.61219">
        <ele>179.42</ele>
        <time>2020-01-11T15:23:00Z</time>
      </trkpt>
      <trkpt lat="44.97801" lon="0.61177">
        <ele>178.94</ele>
        <time>2020-01-11T15:23:28Z</time>
      </trkpt>
      <trkpt lat="44.97781" lon="0.61145">
        <ele>179.42</ele>
        <time>2020-01-11T15:23:50Z</time>
      </trkpt>
      <trkpt lat="44.97759" lon="0.61103">
        <ele>180.87</ele>
        <time>2020-01-11T15:24:11Z</time>
      </trkpt>
      <trkpt lat="44.97738" lon="0.6107">
        <ele>183.75</ele>
        <time>2020-01-11T15:24:32Z</time>
      </trkpt>
      <trkpt lat="44.97717" lon="0.61047">
        <ele>186.15</ele>
        <time>2020-01-11T15:24:54Z</time>
      </trkpt>
      <trkpt lat="44.977" lon="0.61026">
        <ele>188.08</ele>
        <time>2020-01-11T15:25:13Z</time>
      </trkpt>
      <trkpt lat="44.97678" lon="0.61001">
        <ele>190</ele>
        <time>2020-01-11T15:25:35Z</time>
      </trkpt>
      <trkpt lat="44.97659" lon="0.60964">
        <ele>190</ele>
        <time>2020-01-11T15:25:58Z</time>
      </trkpt>
      <trkpt lat="44.97646" lon="0.60941">
        <ele>188.56</ele>
        <time>2020-01-11T15:26:14Z</time>
      </trkpt>
      <trkpt lat="44.97639" lon="0.6093">
        <ele>188.56</ele>
        <time>2020-01-11T15:26:22Z</time>
      </trkpt>
      <trkpt lat="44.97638" lon="0.60927">
        <ele>188.56</ele>
        <time>2020-01-11T15:26:23Z</time>
      </trkpt>
      <trkpt lat="44.97627" lon="0.60915">
        <ele>188.56</ele>
        <time>2020-01-11T15:26:34Z</time>
      </trkpt>
      <trkpt lat="44.97622" lon="0.6091">
        <ele>188.56</ele>
        <time>2020-01-11T15:26:51Z</time>
      </trkpt>
      <trkpt lat="44.97619" lon="0.60891">
        <ele>188.56</ele>
        <time>2020-01-11T15:27:06Z</time>
      </trkpt>
      <trkpt lat="44.97618" lon="0.60884">
        <ele>188.56</ele>
        <time>2020-01-11T15:27:11Z</time>
      </trkpt>
      <trkpt lat="44.97616" lon="0.60855">
        <ele>188.08</ele>
        <time>2020-01-11T15:27:29Z</time>
      </trkpt>
      <trkpt lat="44.97611" lon="0.60822">
        <ele>188.56</ele>
        <time>2020-01-11T15:27:49Z</time>
      </trkpt>
      <trkpt lat="44.97607" lon="0.60772">
        <ele>185.67</ele>
        <time>2020-01-11T15:28:12Z</time>
      </trkpt>
      <trkpt lat="44.97594" lon="0.60724">
        <ele>183.27</ele>
        <time>2020-01-11T15:28:36Z</time>
      </trkpt>
      <trkpt lat="44.97575" lon="0.60689">
        <ele>182.31</ele>
        <time>2020-01-11T15:28:58Z</time>
      </trkpt>
      <trkpt lat="44.97546" lon="0.60656">
        <ele>180.38</ele>
        <time>2020-01-11T15:29:21Z</time>
      </trkpt>
      <trkpt lat="44.97523" lon="0.60622">
        <ele>180.38</ele>
        <time>2020-01-11T15:29:44Z</time>
      </trkpt>
      <trkpt lat="44.97515" lon="0.60584">
        <ele>180.38</ele>
        <time>2020-01-11T15:30:06Z</time>
      </trkpt>
      <trkpt lat="44.97514" lon="0.60529">
        <ele>180.38</ele>
        <time>2020-01-11T15:30:30Z</time>
      </trkpt>
      <trkpt lat="44.97512" lon="0.60475">
        <ele>182.31</ele>
        <time>2020-01-11T15:30:54Z</time>
      </trkpt>
      <trkpt lat="44.97504" lon="0.60429">
        <ele>182.31</ele>
        <time>2020-01-11T15:31:16Z</time>
      </trkpt>
      <trkpt lat="44.97503" lon="0.60427">
        <ele>182.31</ele>
        <time>2020-01-11T15:31:17Z</time>
      </trkpt>
      <trkpt lat="44.97497" lon="0.604">
        <ele>180.38</ele>
        <time>2020-01-11T15:31:30Z</time>
      </trkpt>
      <trkpt lat="44.97497" lon="0.6035">
        <ele>180.38</ele>
        <time>2020-01-11T15:31:53Z</time>
      </trkpt>
      <trkpt lat="44.97497" lon="0.60345">
        <ele>180.38</ele>
        <time>2020-01-11T15:31:55Z</time>
      </trkpt>
      <trkpt lat="44.97497" lon="0.60304">
        <ele>182.31</ele>
        <time>2020-01-11T15:32:15Z</time>
      </trkpt>
      <trkpt lat="44.97486" lon="0.60255">
        <ele>184.23</ele>
        <time>2020-01-11T15:32:40Z</time>
      </trkpt>
      <trkpt lat="44.97476" lon="0.6025">
        <ele>184.23</ele>
        <time>2020-01-11T15:32:59Z</time>
      </trkpt>
      <trkpt lat="44.97456" lon="0.60277">
        <ele>184.71</ele>
        <time>2020-01-11T15:33:20Z</time>
      </trkpt>
      <trkpt lat="44.9744" lon="0.60295">
        <ele>184.71</ele>
        <time>2020-01-11T15:33:40Z</time>
      </trkpt>
      <trkpt lat="44.97419" lon="0.60327">
        <ele>184.71</ele>
        <time>2020-01-11T15:34:03Z</time>
      </trkpt>
      <trkpt lat="44.97395" lon="0.60363">
        <ele>184.71</ele>
        <time>2020-01-11T15:34:26Z</time>
      </trkpt>
      <trkpt lat="44.97387" lon="0.60374">
        <ele>184.23</ele>
        <time>2020-01-11T15:34:35Z</time>
      </trkpt>
      <trkpt lat="44.97356" lon="0.60418">
        <ele>184.23</ele>
        <time>2020-01-11T15:35:01Z</time>
      </trkpt>
      <trkpt lat="44.97353" lon="0.60421">
        <ele>184.23</ele>
        <time>2020-01-11T15:35:03Z</time>
      </trkpt>
      <trkpt lat="44.97329" lon="0.60449">
        <ele>184.71</ele>
        <time>2020-01-11T15:35:23Z</time>
      </trkpt>
      <trkpt lat="44.97298" lon="0.60477">
        <ele>184.71</ele>
        <time>2020-01-11T15:35:45Z</time>
      </trkpt>
      <trkpt lat="44.97273" lon="0.605">
        <ele>184.71</ele>
        <time>2020-01-11T15:36:07Z</time>
      </trkpt>
      <trkpt lat="44.97245" lon="0.60527">
        <ele>184.71</ele>
        <time>2020-01-11T15:36:31Z</time>
      </trkpt>
      <trkpt lat="44.9722" lon="0.60557">
        <ele>184.71</ele>
        <time>2020-01-11T15:36:55Z</time>
      </trkpt>
      <trkpt lat="44.97194" lon="0.60604">
        <ele>184.71</ele>
        <time>2020-01-11T15:37:23Z</time>
      </trkpt>
      <trkpt lat="44.97172" lon="0.60658">
        <ele>185.19</ele>
        <time>2020-01-11T15:37:49Z</time>
      </trkpt>
      <trkpt lat="44.97148" lon="0.60703">
        <ele>184.71</ele>
        <time>2020-01-11T15:38:16Z</time>
      </trkpt>
      <trkpt lat="44.97126" lon="0.60747">
        <ele>184.71</ele>
        <time>2020-01-11T15:38:40Z</time>
      </trkpt>
      <trkpt lat="44.97096" lon="0.60778">
        <ele>184.71</ele>
        <time>2020-01-11T15:39:05Z</time>
      </trkpt>
      <trkpt lat="44.97064" lon="0.60793">
        <ele>184.71</ele>
        <time>2020-01-11T15:39:26Z</time>
      </trkpt>
      <trkpt lat="44.97033" lon="0.60794">
        <ele>182.79</ele>
        <time>2020-01-11T15:39:51Z</time>
      </trkpt>
      <trkpt lat="44.97003" lon="0.6079">
        <ele>183.27</ele>
        <time>2020-01-11T15:40:12Z</time>
      </trkpt>
      <trkpt lat="44.96964" lon="0.60793">
        <ele>180.87</ele>
        <time>2020-01-11T15:40:36Z</time>
      </trkpt>
      <trkpt lat="44.9693" lon="0.60782">
        <ele>179.9</ele>
        <time>2020-01-11T15:41:02Z</time>
      </trkpt>
      <trkpt lat="44.96904" lon="0.60759">
        <ele>178.94</ele>
        <time>2020-01-11T15:41:24Z</time>
      </trkpt>
      <trkpt lat="44.96876" lon="0.60737">
        <ele>177.5</ele>
        <time>2020-01-11T15:41:48Z</time>
      </trkpt>
      <trkpt lat="44.96844" lon="0.60728">
        <ele>177.5</ele>
        <time>2020-01-11T15:42:12Z</time>
      </trkpt>
      <trkpt lat="44.96837" lon="0.6073">
        <ele>176.06</ele>
        <time>2020-01-11T15:42:16Z</time>
      </trkpt>
      <trkpt lat="44.96811" lon="0.6073">
        <ele>176.06</ele>
        <time>2020-01-11T15:42:37Z</time>
      </trkpt>
      <trkpt lat="44.96784" lon="0.60734">
        <ele>175.1</ele>
        <time>2020-01-11T15:42:58Z</time>
      </trkpt>
      <trkpt lat="44.96775" lon="0.60742">
        <ele>174.14</ele>
        <time>2020-01-11T15:43:07Z</time>
      </trkpt>
      <trkpt lat="44.96774" lon="0.60742">
        <ele>175.1</ele>
        <time>2020-01-11T15:43:09Z</time>
      </trkpt>
      <trkpt lat="44.96755" lon="0.60756">
        <ele>175.1</ele>
        <time>2020-01-11T15:43:25Z</time>
      </trkpt>
      <trkpt lat="44.96724" lon="0.60786">
        <ele>175.1</ele>
        <time>2020-01-11T15:43:50Z</time>
      </trkpt>
      <trkpt lat="44.96697" lon="0.60804">
        <ele>175.58</ele>
        <time>2020-01-11T15:44:14Z</time>
      </trkpt>
      <trkpt lat="44.96689" lon="0.60833">
        <ele>174.14</ele>
        <time>2020-01-11T15:44:30Z</time>
      </trkpt>
      <trkpt lat="44.96686" lon="0.60846">
        <ele>173.17</ele>
        <time>2020-01-11T15:44:38Z</time>
      </trkpt>
      <trkpt lat="44.96682" lon="0.60872">
        <ele>169.81</ele>
        <time>2020-01-11T15:44:56Z</time>
      </trkpt>
      <trkpt lat="44.96676" lon="0.60907">
        <ele>167.89</ele>
        <time>2020-01-11T15:45:18Z</time>
      </trkpt>
      <trkpt lat="44.96677" lon="0.60924">
        <ele>165</ele>
        <time>2020-01-11T15:45:35Z</time>
      </trkpt>
      <trkpt lat="44.96669" lon="0.60957">
        <ele>162.12</ele>
        <time>2020-01-11T15:46:00Z</time>
      </trkpt>
      <trkpt lat="44.96665" lon="0.60972">
        <ele>160.2</ele>
        <time>2020-01-11T15:46:08Z</time>
      </trkpt>
      <trkpt lat="44.9666" lon="0.61011">
        <ele>157.79</ele>
        <time>2020-01-11T15:46:34Z</time>
      </trkpt>
      <trkpt lat="44.96642" lon="0.61038">
        <ele>155.87</ele>
        <time>2020-01-11T15:47:00Z</time>
      </trkpt>
      <trkpt lat="44.9663" lon="0.61058">
        <ele>154.91</ele>
        <time>2020-01-11T15:47:20Z</time>
      </trkpt>
      <trkpt lat="44.96617" lon="0.61083">
        <ele>153.47</ele>
        <time>2020-01-11T15:47:44Z</time>
      </trkpt>
      <trkpt lat="44.96608" lon="0.61122">
        <ele>151.54</ele>
        <time>2020-01-11T15:48:04Z</time>
      </trkpt>
      <trkpt lat="44.96598" lon="0.61155">
        <ele>151.06</ele>
        <time>2020-01-11T15:48:26Z</time>
      </trkpt>
      <trkpt lat="44.96576" lon="0.61176">
        <ele>151.06</ele>
        <time>2020-01-11T15:48:49Z</time>
      </trkpt>
      <trkpt lat="44.96556" lon="0.61191">
        <ele>152.99</ele>
        <time>2020-01-11T15:49:12Z</time>
      </trkpt>
      <trkpt lat="44.96533" lon="0.61221">
        <ele>154.43</ele>
        <time>2020-01-11T15:49:36Z</time>
      </trkpt>
      <trkpt lat="44.96523" lon="0.61247">
        <ele>155.87</ele>
        <time>2020-01-11T15:49:59Z</time>
      </trkpt>
      <trkpt lat="44.96505" lon="0.61265">
        <ele>158.27</ele>
        <time>2020-01-11T15:50:25Z</time>
      </trkpt>
      <trkpt lat="44.96479" lon="0.61282">
        <ele>160.2</ele>
        <time>2020-01-11T15:50:50Z</time>
      </trkpt>
      <trkpt lat="44.96455" lon="0.61309">
        <ele>161.64</ele>
        <time>2020-01-11T15:51:15Z</time>
      </trkpt>
      <trkpt lat="44.96437" lon="0.61333">
        <ele>161.64</ele>
        <time>2020-01-11T15:51:39Z</time>
      </trkpt>
      <trkpt lat="44.96418" lon="0.61359">
        <ele>159.24</ele>
        <time>2020-01-11T15:52:04Z</time>
      </trkpt>
      <trkpt lat="44.96403" lon="0.61388">
        <ele>157.79</ele>
        <time>2020-01-11T15:52:27Z</time>
      </trkpt>
      <trkpt lat="44.9639" lon="0.61421">
        <ele>156.83</ele>
        <time>2020-01-11T15:52:51Z</time>
      </trkpt>
      <trkpt lat="44.96402" lon="0.61418">
        <ele>156.83</ele>
        <time>2020-01-11T15:53:07Z</time>
      </trkpt>
      <trkpt lat="44.964" lon="0.61421">
        <ele>156.83</ele>
        <time>2020-01-11T15:53:35Z</time>
      </trkpt>
      <trkpt lat="44.96401" lon="0.61419">
        <ele>156.83</ele>
        <time>2020-01-11T15:54:12Z</time>
      </trkpt>
      <trkpt lat="44.96402" lon="0.61418">
        <ele>156.83</ele>
        <time>2020-01-11T15:54:37Z</time>
      </trkpt>
      <trkpt lat="44.96393" lon="0.61428">
        <ele>157.79</ele>
        <time>2020-01-11T15:54:53Z</time>
      </trkpt>
      <trkpt lat="44.96366" lon="0.61437">
        <ele>156.35</ele>
        <time>2020-01-11T15:55:15Z</time>
      </trkpt>
      <trkpt lat="44.96345" lon="0.61455">
        <ele>155.39</ele>
        <time>2020-01-11T15:55:37Z</time>
      </trkpt>
      <trkpt lat="44.96325" lon="0.61458">
        <ele>153.95</ele>
        <time>2020-01-11T15:55:58Z</time>
      </trkpt>
      <trkpt lat="44.96294" lon="0.61478">
        <ele>152.51</ele>
        <time>2020-01-11T15:56:20Z</time>
      </trkpt>
      <trkpt lat="44.96263" lon="0.61489">
        <ele>150.58</ele>
        <time>2020-01-11T15:56:41Z</time>
      </trkpt>
      <trkpt lat="44.96228" lon="0.61501">
        <ele>148.18</ele>
        <time>2020-01-11T15:57:05Z</time>
      </trkpt>
      <trkpt lat="44.96196" lon="0.61514">
        <ele>144.82</ele>
        <time>2020-01-11T15:57:25Z</time>
      </trkpt>
      <trkpt lat="44.96173" lon="0.61527">
        <ele>141.93</ele>
        <time>2020-01-11T15:57:45Z</time>
      </trkpt>
      <trkpt lat="44.96149" lon="0.61536">
        <ele>138.57</ele>
        <time>2020-01-11T15:58:03Z</time>
      </trkpt>
      <trkpt lat="44.96134" lon="0.6154">
        <ele>136.16</ele>
        <time>2020-01-11T15:58:12Z</time>
      </trkpt>
      <trkpt lat="44.96121" lon="0.61545">
        <ele>133.28</ele>
        <time>2020-01-11T15:58:23Z</time>
      </trkpt>
      <trkpt lat="44.96107" lon="0.6156">
        <ele>129.43</ele>
        <time>2020-01-11T15:58:36Z</time>
      </trkpt>
      <trkpt lat="44.96084" lon="0.61561">
        <ele>126.07</ele>
        <time>2020-01-11T15:58:52Z</time>
      </trkpt>
      <trkpt lat="44.9607" lon="0.61556">
        <ele>122.71</ele>
        <time>2020-01-11T15:59:04Z</time>
      </trkpt>
      <trkpt lat="44.96047" lon="0.61551">
        <ele>119.34</ele>
        <time>2020-01-11T15:59:20Z</time>
      </trkpt>
      <trkpt lat="44.96027" lon="0.61549">
        <ele>116.46</ele>
        <time>2020-01-11T15:59:34Z</time>
      </trkpt>
      <trkpt lat="44.96008" lon="0.61548">
        <ele>112.61</ele>
        <time>2020-01-11T15:59:48Z</time>
      </trkpt>
      <trkpt lat="44.95992" lon="0.61542">
        <ele>109.25</ele>
        <time>2020-01-11T16:00:02Z</time>
      </trkpt>
      <trkpt lat="44.95973" lon="0.61535">
        <ele>105.88</ele>
        <time>2020-01-11T16:00:17Z</time>
      </trkpt>
      <trkpt lat="44.95965" lon="0.61531">
        <ele>103.96</ele>
        <time>2020-01-11T16:00:24Z</time>
      </trkpt>
      <trkpt lat="44.95959" lon="0.61526">
        <ele>103.96</ele>
        <time>2020-01-11T16:00:28Z</time>
      </trkpt>
      <trkpt lat="44.95921" lon="0.61503">
        <ele>102.04</ele>
        <time>2020-01-11T16:00:54Z</time>
      </trkpt>
      <trkpt lat="44.9589" lon="0.61477">
        <ele>101.56</ele>
        <time>2020-01-11T16:01:19Z</time>
      </trkpt>
      <trkpt lat="44.95863" lon="0.6145">
        <ele>101.56</ele>
        <time>2020-01-11T16:01:43Z</time>
      </trkpt>
      <trkpt lat="44.95859" lon="0.61448">
        <ele>103</ele>
        <time>2020-01-11T16:01:47Z</time>
      </trkpt>
      <trkpt lat="44.95855" lon="0.61444">
        <ele>103</ele>
        <time>2020-01-11T16:01:51Z</time>
      </trkpt>
      <trkpt lat="44.95846" lon="0.61438">
        <ele>103.48</ele>
        <time>2020-01-11T16:01:56Z</time>
      </trkpt>
      <trkpt lat="44.95807" lon="0.61439">
        <ele>104.44</ele>
        <time>2020-01-11T16:02:24Z</time>
      </trkpt>
      <trkpt lat="44.95773" lon="0.61456">
        <ele>104.92</ele>
        <time>2020-01-11T16:02:51Z</time>
      </trkpt>
      <trkpt lat="44.95735" lon="0.61468">
        <ele>104.92</ele>
        <time>2020-01-11T16:03:13Z</time>
      </trkpt>
      <trkpt lat="44.95704" lon="0.61464">
        <ele>104.44</ele>
        <time>2020-01-11T16:03:38Z</time>
      </trkpt>
      <trkpt lat="44.957" lon="0.61472">
        <ele>103.48</ele>
        <time>2020-01-11T16:03:42Z</time>
      </trkpt>
      <trkpt lat="44.95696" lon="0.61499">
        <ele>101.56</ele>
        <time>2020-01-11T16:04:02Z</time>
      </trkpt>
      <trkpt lat="44.95703" lon="0.61519">
        <ele>100.11</ele>
        <time>2020-01-11T16:04:23Z</time>
      </trkpt>
      <trkpt lat="44.95705" lon="0.61526">
        <ele>100.11</ele>
        <time>2020-01-11T16:04:44Z</time>
      </trkpt>
      <trkpt lat="44.95703" lon="0.61528">
        <ele>100.11</ele>
        <time>2020-01-11T16:05:05Z</time>
      </trkpt>
    </trkseg>
  </trk>
  <trk>
    <name><![CDATA[track]]></name>
    <trkseg>
      <trkpt lat="44.98503" lon="0.68095">
        <ele>170</ele>
        <time>2019-02-14T13:45:56Z</time>
      </trkpt>
      <trkpt lat="44.98507" lon="0.68078">
        <ele>183</ele>
        <time>2019-02-14T13:46:11Z</time>
      </trkpt>
      <trkpt lat="44.98503" lon="0.68079">
        <ele>179</ele>
        <time>2019-02-14T13:46:27Z</time>
      </trkpt>
      <trkpt lat="44.98503" lon="0.68079">
        <ele>178</ele>
        <time>2019-02-14T13:46:43Z</time>
      </trkpt>
      <trkpt lat="44.98503" lon="0.68079">
        <ele>178</ele>
        <time>2019-02-14T13:46:58Z</time>
      </trkpt>
      <trkpt lat="44.98504" lon="0.68074">
        <ele>178</ele>
        <time>2019-02-14T13:47:14Z</time>
      </trkpt>
      <trkpt lat="44.98504" lon="0.68073">
        <ele>179</ele>
        <time>2019-02-14T13:47:30Z</time>
      </trkpt>
      <trkpt lat="44.98504" lon="0.68073">
        <ele>179</ele>
        <time>2019-02-14T13:47:46Z</time>
      </trkpt>
      <trkpt lat="44.98504" lon="0.68076">
        <ele>180</ele>
        <time>2019-02-14T13:48:02Z</time>
      </trkpt>
      <trkpt lat="44.98507" lon="0.68079">
        <ele>181</ele>
        <time>2019-02-14T13:48:18Z</time>
      </trkpt>
      <trkpt lat="44.98506" lon="0.6808">
        <ele>181</ele>
        <time>2019-02-14T13:48:34Z</time>
      </trkpt>
      <trkpt lat="44.98501" lon="0.68071">
        <ele>182</ele>
        <time>2019-02-14T13:48:50Z</time>
      </trkpt>
      <trkpt lat="44.98487" lon="0.68058">
        <ele>184</ele>
        <time>2019-02-14T13:49:06Z</time>
      </trkpt>
      <trkpt lat="44.98476" lon="0.68049">
        <ele>188</ele>
        <time>2019-02-14T13:49:22Z</time>
      </trkpt>
      <trkpt lat="44.98459" lon="0.6806">
        <ele>192</ele>
        <time>2019-02-14T13:49:38Z</time>
      </trkpt>
      <trkpt lat="44.98449" lon="0.68081">
        <ele>195</ele>
        <time>2019-02-14T13:49:53Z</time>
      </trkpt>
      <trkpt lat="44.98437" lon="0.68089">
        <ele>195</ele>
        <time>2019-02-14T13:50:09Z</time>
      </trkpt>
      <trkpt lat="44.98422" lon="0.68103">
        <ele>194</ele>
        <time>2019-02-14T13:50:25Z</time>
      </trkpt>
      <trkpt lat="44.98407" lon="0.68113">
        <ele>191</ele>
        <time>2019-02-14T13:50:41Z</time>
      </trkpt>
      <trkpt lat="44.98407" lon="0.68116">
        <ele>189</ele>
        <time>2019-02-14T13:50:56Z</time>
      </trkpt>
      <trkpt lat="44.98401" lon="0.68122">
        <ele>187</ele>
        <time>2019-02-14T13:51:12Z</time>
      </trkpt>
      <trkpt lat="44.98384" lon="0.68127">
        <ele>185</ele>
        <time>2019-02-14T13:51:28Z</time>
      </trkpt>
      <trkpt lat="44.98376" lon="0.6812">
        <ele>185</ele>
        <time>2019-02-14T13:51:44Z</time>
      </trkpt>
      <trkpt lat="44.98377" lon="0.68117">
        <ele>185</ele>
        <time>2019-02-14T13:52:00Z</time>
      </trkpt>
      <trkpt lat="44.98377" lon="0.68116">
        <ele>185</ele>
        <time>2019-02-14T13:52:16Z</time>
      </trkpt>
      <trkpt lat="44.98364" lon="0.68122">
        <ele>185</ele>
        <time>2019-02-14T13:52:32Z</time>
      </trkpt>
      <trkpt lat="44.98342" lon="0.68118">
        <ele>184</ele>
        <time>2019-02-14T13:52:48Z</time>
      </trkpt>
      <trkpt lat="44.98326" lon="0.68105">
        <ele>185</ele>
        <time>2019-02-14T13:53:04Z</time>
      </trkpt>
      <trkpt lat="44.98304" lon="0.68099">
        <ele>185</ele>
        <time>2019-02-14T13:53:20Z</time>
      </trkpt>
      <trkpt lat="44.98284" lon="0.68089">
        <ele>187</ele>
        <time>2019-02-14T13:53:36Z</time>
      </trkpt>
      <trkpt lat="44.9826" lon="0.68086">
        <ele>187</ele>
        <time>2019-02-14T13:53:52Z</time>
      </trkpt>
      <trkpt lat="44.98238" lon="0.68081">
        <ele>186</ele>
        <time>2019-02-14T13:54:08Z</time>
      </trkpt>
      <trkpt lat="44.98215" lon="0.6808">
        <ele>185</ele>
        <time>2019-02-14T13:54:24Z</time>
      </trkpt>
      <trkpt lat="44.98191" lon="0.68076">
        <ele>186</ele>
        <time>2019-02-14T13:54:40Z</time>
      </trkpt>
      <trkpt lat="44.98172" lon="0.68075">
        <ele>186</ele>
        <time>2019-02-14T13:54:56Z</time>
      </trkpt>
      <trkpt lat="44.98153" lon="0.68069">
        <ele>185</ele>
        <time>2019-02-14T13:55:12Z</time>
      </trkpt>
      <trkpt lat="44.98133" lon="0.68077">
        <ele>185</ele>
        <time>2019-02-14T13:55:28Z</time>
      </trkpt>
      <trkpt lat="44.98119" lon="0.68093">
        <ele>186</ele>
        <time>2019-02-14T13:55:44Z</time>
      </trkpt>
      <trkpt lat="44.98101" lon="0.68108">
        <ele>187</ele>
        <time>2019-02-14T13:56:00Z</time>
      </trkpt>
      <trkpt lat="44.9808" lon="0.68121">
        <ele>189</ele>
        <time>2019-02-14T13:56:16Z</time>
      </trkpt>
      <trkpt lat="44.9806" lon="0.68132">
        <ele>191</ele>
        <time>2019-02-14T13:56:32Z</time>
      </trkpt>
      <trkpt lat="44.98042" lon="0.68138">
        <ele>190</ele>
        <time>2019-02-14T13:56:47Z</time>
      </trkpt>
      <trkpt lat="44.98021" lon="0.68141">
        <ele>190</ele>
        <time>2019-02-14T13:57:03Z</time>
      </trkpt>
      <trkpt lat="44.98001" lon="0.68142">
        <ele>190</ele>
        <time>2019-02-14T13:57:19Z</time>
      </trkpt>
      <trkpt lat="44.97983" lon="0.68144">
        <ele>191</ele>
        <time>2019-02-14T13:57:35Z</time>
      </trkpt>
      <trkpt lat="44.9798" lon="0.68146">
        <ele>191</ele>
        <time>2019-02-14T13:57:51Z</time>
      </trkpt>
      <trkpt lat="44.97958" lon="0.68146">
        <ele>192</ele>
        <time>2019-02-14T13:58:07Z</time>
      </trkpt>
      <trkpt lat="44.97937" lon="0.68146">
        <ele>192</ele>
        <time>2019-02-14T13:58:23Z</time>
      </trkpt>
      <trkpt lat="44.97918" lon="0.68144">
        <ele>192</ele>
        <time>2019-02-14T13:58:38Z</time>
      </trkpt>
      <trkpt lat="44.97896" lon="0.6814">
        <ele>192</ele>
        <time>2019-02-14T13:58:53Z</time>
      </trkpt>
      <trkpt lat="44.97875" lon="0.68133">
        <ele>191</ele>
        <time>2019-02-14T13:59:09Z</time>
      </trkpt>
      <trkpt lat="44.97855" lon="0.68119">
        <ele>190</ele>
        <time>2019-02-14T13:59:25Z</time>
      </trkpt>
      <trkpt lat="44.97835" lon="0.68103">
        <ele>190</ele>
        <time>2019-02-14T13:59:41Z</time>
      </trkpt>
      <trkpt lat="44.97817" lon="0.68092">
        <ele>189</ele>
        <time>2019-02-14T13:59:57Z</time>
      </trkpt>
      <trkpt lat="44.97799" lon="0.68081">
        <ele>188</ele>
        <time>2019-02-14T14:00:13Z</time>
      </trkpt>
      <trkpt lat="44.97783" lon="0.68077">
        <ele>187</ele>
        <time>2019-02-14T14:00:29Z</time>
      </trkpt>
      <trkpt lat="44.97763" lon="0.68068">
        <ele>187</ele>
        <time>2019-02-14T14:00:44Z</time>
      </trkpt>
      <trkpt lat="44.9774" lon="0.6806">
        <ele>188</ele>
        <time>2019-02-14T14:01:00Z</time>
      </trkpt>
      <trkpt lat="44.97717" lon="0.68057">
        <ele>190</ele>
        <time>2019-02-14T14:01:16Z</time>
      </trkpt>
      <trkpt lat="44.97696" lon="0.68058">
        <ele>190</ele>
        <time>2019-02-14T14:01:32Z</time>
      </trkpt>
      <trkpt lat="44.97673" lon="0.68058">
        <ele>190</ele>
        <time>2019-02-14T14:01:48Z</time>
      </trkpt>
      <trkpt lat="44.97652" lon="0.68059">
        <ele>189</ele>
        <time>2019-02-14T14:02:03Z</time>
      </trkpt>
      <trkpt lat="44.97629" lon="0.68059">
        <ele>188</ele>
        <time>2019-02-14T14:02:19Z</time>
      </trkpt>
      <trkpt lat="44.97607" lon="0.68059">
        <ele>187</ele>
        <time>2019-02-14T14:02:35Z</time>
      </trkpt>
      <trkpt lat="44.97587" lon="0.68061">
        <ele>186</ele>
        <time>2019-02-14T14:02:51Z</time>
      </trkpt>
      <trkpt lat="44.97561" lon="0.68061">
        <ele>187</ele>
        <time>2019-02-14T14:03:07Z</time>
      </trkpt>
      <trkpt lat="44.97541" lon="0.68063">
        <ele>188</ele>
        <time>2019-02-14T14:03:22Z</time>
      </trkpt>
      <trkpt lat="44.97519" lon="0.68063">
        <ele>187</ele>
        <time>2019-02-14T14:03:38Z</time>
      </trkpt>
      <trkpt lat="44.97497" lon="0.68062">
        <ele>187</ele>
        <time>2019-02-14T14:03:54Z</time>
      </trkpt>
      <trkpt lat="44.9748" lon="0.68068">
        <ele>186</ele>
        <time>2019-02-14T14:04:10Z</time>
      </trkpt>
      <trkpt lat="44.97458" lon="0.68077">
        <ele>186</ele>
        <time>2019-02-14T14:04:26Z</time>
      </trkpt>
      <trkpt lat="44.97437" lon="0.68084">
        <ele>185</ele>
        <time>2019-02-14T14:04:42Z</time>
      </trkpt>
      <trkpt lat="44.97414" lon="0.68088">
        <ele>184</ele>
        <time>2019-02-14T14:04:57Z</time>
      </trkpt>
      <trkpt lat="44.97394" lon="0.68095">
        <ele>183</ele>
        <time>2019-02-14T14:05:13Z</time>
      </trkpt>
      <trkpt lat="44.97376" lon="0.68099">
        <ele>181</ele>
        <time>2019-02-14T14:05:29Z</time>
      </trkpt>
      <trkpt lat="44.97357" lon="0.68108">
        <ele>179</ele>
        <time>2019-02-14T14:05:45Z</time>
      </trkpt>
      <trkpt lat="44.9734" lon="0.68115">
        <ele>178</ele>
        <time>2019-02-14T14:06:00Z</time>
      </trkpt>
      <trkpt lat="44.97319" lon="0.68125">
        <ele>178</ele>
        <time>2019-02-14T14:06:16Z</time>
      </trkpt>
      <trkpt lat="44.97299" lon="0.68133">
        <ele>177</ele>
        <time>2019-02-14T14:06:31Z</time>
      </trkpt>
      <trkpt lat="44.97278" lon="0.68143">
        <ele>177</ele>
        <time>2019-02-14T14:06:47Z</time>
      </trkpt>
      <trkpt lat="44.97257" lon="0.68153">
        <ele>178</ele>
        <time>2019-02-14T14:07:03Z</time>
      </trkpt>
      <trkpt lat="44.97241" lon="0.6817">
        <ele>177</ele>
        <time>2019-02-14T14:07:19Z</time>
      </trkpt>
      <trkpt lat="44.97225" lon="0.68183">
        <ele>176</ele>
        <time>2019-02-14T14:07:35Z</time>
      </trkpt>
      <trkpt lat="44.97205" lon="0.68202">
        <ele>177</ele>
        <time>2019-02-14T14:07:51Z</time>
      </trkpt>
      <trkpt lat="44.97182" lon="0.68214">
        <ele>176</ele>
        <time>2019-02-14T14:08:07Z</time>
      </trkpt>
      <trkpt lat="44.97166" lon="0.68227">
        <ele>175</ele>
        <time>2019-02-14T14:08:23Z</time>
      </trkpt>
      <trkpt lat="44.97146" lon="0.68241">
        <ele>174</ele>
        <time>2019-02-14T14:08:39Z</time>
      </trkpt>
      <trkpt lat="44.97127" lon="0.68254">
        <ele>173</ele>
        <time>2019-02-14T14:08:54Z</time>
      </trkpt>
      <trkpt lat="44.97107" lon="0.68264">
        <ele>172</ele>
        <time>2019-02-14T14:09:10Z</time>
      </trkpt>
      <trkpt lat="44.97089" lon="0.68277">
        <ele>172</ele>
        <time>2019-02-14T14:09:26Z</time>
      </trkpt>
      <trkpt lat="44.97074" lon="0.68296">
        <ele>171</ele>
        <time>2019-02-14T14:09:42Z</time>
      </trkpt>
      <trkpt lat="44.97056" lon="0.68318">
        <ele>170</ele>
        <time>2019-02-14T14:09:58Z</time>
      </trkpt>
      <trkpt lat="44.9704" lon="0.68336">
        <ele>169</ele>
        <time>2019-02-14T14:10:13Z</time>
      </trkpt>
      <trkpt lat="44.97021" lon="0.68352">
        <ele>169</ele>
        <time>2019-02-14T14:10:29Z</time>
      </trkpt>
      <trkpt lat="44.97002" lon="0.6837">
        <ele>168</ele>
        <time>2019-02-14T14:10:45Z</time>
      </trkpt>
      <trkpt lat="44.96985" lon="0.68386">
        <ele>168</ele>
        <time>2019-02-14T14:11:00Z</time>
      </trkpt>
      <trkpt lat="44.96963" lon="0.68384">
        <ele>167</ele>
        <time>2019-02-14T14:11:16Z</time>
      </trkpt>
      <trkpt lat="44.96944" lon="0.68389">
        <ele>166</ele>
        <time>2019-02-14T14:11:32Z</time>
      </trkpt>
      <trkpt lat="44.96923" lon="0.68395">
        <ele>164</ele>
        <time>2019-02-14T14:11:48Z</time>
      </trkpt>
      <trkpt lat="44.969" lon="0.68401">
        <ele>163</ele>
        <time>2019-02-14T14:12:03Z</time>
      </trkpt>
      <trkpt lat="44.96882" lon="0.68414">
        <ele>163</ele>
        <time>2019-02-14T14:12:19Z</time>
      </trkpt>
      <trkpt lat="44.96867" lon="0.68434">
        <ele>161</ele>
        <time>2019-02-14T14:12:35Z</time>
      </trkpt>
      <trkpt lat="44.96849" lon="0.68449">
        <ele>161</ele>
        <time>2019-02-14T14:12:51Z</time>
      </trkpt>
      <trkpt lat="44.96826" lon="0.68447">
        <ele>160</ele>
        <time>2019-02-14T14:13:07Z</time>
      </trkpt>
      <trkpt lat="44.96808" lon="0.68461">
        <ele>160</ele>
        <time>2019-02-14T14:13:23Z</time>
      </trkpt>
      <trkpt lat="44.96788" lon="0.6847">
        <ele>158</ele>
        <time>2019-02-14T14:13:39Z</time>
      </trkpt>
      <trkpt lat="44.96768" lon="0.6847">
        <ele>157</ele>
        <time>2019-02-14T14:13:55Z</time>
      </trkpt>
      <trkpt lat="44.96749" lon="0.68473">
        <ele>154</ele>
        <time>2019-02-14T14:14:11Z</time>
      </trkpt>
      <trkpt lat="44.9673" lon="0.68473">
        <ele>152</ele>
        <time>2019-02-14T14:14:27Z</time>
      </trkpt>
      <trkpt lat="44.96708" lon="0.68464">
        <ele>149</ele>
        <time>2019-02-14T14:14:43Z</time>
      </trkpt>
      <trkpt lat="44.967" lon="0.68458">
        <ele>148</ele>
        <time>2019-02-14T14:14:59Z</time>
      </trkpt>
      <trkpt lat="44.96699" lon="0.68458">
        <ele>148</ele>
        <time>2019-02-14T14:15:15Z</time>
      </trkpt>
      <trkpt lat="44.96699" lon="0.68459">
        <ele>147</ele>
        <time>2019-02-14T14:15:31Z</time>
      </trkpt>
      <trkpt lat="44.96696" lon="0.68455">
        <ele>147</ele>
        <time>2019-02-14T14:15:47Z</time>
      </trkpt>
      <trkpt lat="44.96683" lon="0.68441">
        <ele>145</ele>
        <time>2019-02-14T14:16:03Z</time>
      </trkpt>
      <trkpt lat="44.96673" lon="0.68428">
        <ele>143</ele>
        <time>2019-02-14T14:16:18Z</time>
      </trkpt>
      <trkpt lat="44.96672" lon="0.68422">
        <ele>142</ele>
        <time>2019-02-14T14:16:34Z</time>
      </trkpt>
      <trkpt lat="44.96661" lon="0.68404">
        <ele>140</ele>
        <time>2019-02-14T14:16:50Z</time>
      </trkpt>
      <trkpt lat="44.96647" lon="0.68391">
        <ele>137</ele>
        <time>2019-02-14T14:17:05Z</time>
      </trkpt>
      <trkpt lat="44.96632" lon="0.68376">
        <ele>133</ele>
        <time>2019-02-14T14:17:21Z</time>
      </trkpt>
      <trkpt lat="44.96612" lon="0.68361">
        <ele>129</ele>
        <time>2019-02-14T14:17:37Z</time>
      </trkpt>
      <trkpt lat="44.9659" lon="0.68365">
        <ele>126</ele>
        <time>2019-02-14T14:17:53Z</time>
      </trkpt>
      <trkpt lat="44.96571" lon="0.68366">
        <ele>125</ele>
        <time>2019-02-14T14:18:09Z</time>
      </trkpt>
      <trkpt lat="44.96546" lon="0.68363">
        <ele>125</ele>
        <time>2019-02-14T14:18:25Z</time>
      </trkpt>
      <trkpt lat="44.96532" lon="0.68382">
        <ele>125</ele>
        <time>2019-02-14T14:18:40Z</time>
      </trkpt>
      <trkpt lat="44.96533" lon="0.68407">
        <ele>123</ele>
        <time>2019-02-14T14:18:56Z</time>
      </trkpt>
      <trkpt lat="44.96532" lon="0.68419">
        <ele>120</ele>
        <time>2019-02-14T14:19:12Z</time>
      </trkpt>
      <trkpt lat="44.96523" lon="0.68406">
        <ele>118</ele>
        <time>2019-02-14T14:19:27Z</time>
      </trkpt>
      <trkpt lat="44.9651" lon="0.68385">
        <ele>115</ele>
        <time>2019-02-14T14:19:43Z</time>
      </trkpt>
      <trkpt lat="44.96497" lon="0.68359">
        <ele>112</ele>
        <time>2019-02-14T14:19:59Z</time>
      </trkpt>
      <trkpt lat="44.96488" lon="0.68337">
        <ele>110</ele>
        <time>2019-02-14T14:20:15Z</time>
      </trkpt>
      <trkpt lat="44.96479" lon="0.68306">
        <ele>108</ele>
        <time>2019-02-14T14:20:31Z</time>
      </trkpt>
      <trkpt lat="44.9646" lon="0.6828">
        <ele>107</ele>
        <time>2019-02-14T14:20:47Z</time>
      </trkpt>
      <trkpt lat="44.9644" lon="0.68269">
        <ele>109</ele>
        <time>2019-02-14T14:21:03Z</time>
      </trkpt>
      <trkpt lat="44.96423" lon="0.68261">
        <ele>111</ele>
        <time>2019-02-14T14:21:18Z</time>
      </trkpt>
      <trkpt lat="44.96403" lon="0.68254">
        <ele>112</ele>
        <time>2019-02-14T14:21:34Z</time>
      </trkpt>
      <trkpt lat="44.96383" lon="0.68247">
        <ele>112</ele>
        <time>2019-02-14T14:21:49Z</time>
      </trkpt>
      <trkpt lat="44.96371" lon="0.68226">
        <ele>112</ele>
        <time>2019-02-14T14:22:05Z</time>
      </trkpt>
      <trkpt lat="44.96367" lon="0.68208">
        <ele>112</ele>
        <time>2019-02-14T14:22:20Z</time>
      </trkpt>
      <trkpt lat="44.9636" lon="0.68185">
        <ele>112</ele>
        <time>2019-02-14T14:22:36Z</time>
      </trkpt>
      <trkpt lat="44.96356" lon="0.68159">
        <ele>112</ele>
        <time>2019-02-14T14:22:52Z</time>
      </trkpt>
      <trkpt lat="44.96364" lon="0.68139">
        <ele>114</ele>
        <time>2019-02-14T14:23:08Z</time>
      </trkpt>
      <trkpt lat="44.96371" lon="0.68122">
        <ele>116</ele>
        <time>2019-02-14T14:23:24Z</time>
      </trkpt>
      <trkpt lat="44.96379" lon="0.68097">
        <ele>118</ele>
        <time>2019-02-14T14:23:40Z</time>
      </trkpt>
      <trkpt lat="44.96394" lon="0.6808">
        <ele>119</ele>
        <time>2019-02-14T14:23:55Z</time>
      </trkpt>
      <trkpt lat="44.9641" lon="0.68064">
        <ele>120</ele>
        <time>2019-02-14T14:24:11Z</time>
      </trkpt>
      <trkpt lat="44.96422" lon="0.68041">
        <ele>122</ele>
        <time>2019-02-14T14:24:27Z</time>
      </trkpt>
      <trkpt lat="44.96428" lon="0.68024">
        <ele>122</ele>
        <time>2019-02-14T14:24:43Z</time>
      </trkpt>
      <trkpt lat="44.96419" lon="0.68">
        <ele>123</ele>
        <time>2019-02-14T14:24:59Z</time>
      </trkpt>
      <trkpt lat="44.96402" lon="0.67978">
        <ele>124</ele>
        <time>2019-02-14T14:25:15Z</time>
      </trkpt>
      <trkpt lat="44.96384" lon="0.67955">
        <ele>127</ele>
        <time>2019-02-14T14:25:31Z</time>
      </trkpt>
      <trkpt lat="44.96369" lon="0.67936">
        <ele>131</ele>
        <time>2019-02-14T14:25:47Z</time>
      </trkpt>
      <trkpt lat="44.96353" lon="0.67923">
        <ele>135</ele>
        <time>2019-02-14T14:26:03Z</time>
      </trkpt>
      <trkpt lat="44.96337" lon="0.67906">
        <ele>139</ele>
        <time>2019-02-14T14:26:19Z</time>
      </trkpt>
      <trkpt lat="44.96325" lon="0.67889">
        <ele>141</ele>
        <time>2019-02-14T14:26:35Z</time>
      </trkpt>
      <trkpt lat="44.96314" lon="0.67869">
        <ele>142</ele>
        <time>2019-02-14T14:26:51Z</time>
      </trkpt>
      <trkpt lat="44.96317" lon="0.67843">
        <ele>143</ele>
        <time>2019-02-14T14:27:07Z</time>
      </trkpt>
      <trkpt lat="44.96328" lon="0.67819">
        <ele>143</ele>
        <time>2019-02-14T14:27:23Z</time>
      </trkpt>
      <trkpt lat="44.9634" lon="0.6779">
        <ele>144</ele>
        <time>2019-02-14T14:27:39Z</time>
      </trkpt>
      <trkpt lat="44.96324" lon="0.67779">
        <ele>145</ele>
        <time>2019-02-14T14:27:54Z</time>
      </trkpt>
      <trkpt lat="44.96301" lon="0.67777">
        <ele>145</ele>
        <time>2019-02-14T14:28:10Z</time>
      </trkpt>
      <trkpt lat="44.96285" lon="0.67772">
        <ele>145</ele>
        <time>2019-02-14T14:28:26Z</time>
      </trkpt>
      <trkpt lat="44.96265" lon="0.67759">
        <ele>145</ele>
        <time>2019-02-14T14:28:42Z</time>
      </trkpt>
      <trkpt lat="44.9625" lon="0.67751">
        <ele>145</ele>
        <time>2019-02-14T14:28:58Z</time>
      </trkpt>
      <trkpt lat="44.96246" lon="0.6775">
        <ele>144</ele>
        <time>2019-02-14T14:29:14Z</time>
      </trkpt>
      <trkpt lat="44.96228" lon="0.67737">
        <ele>143</ele>
        <time>2019-02-14T14:29:30Z</time>
      </trkpt>
      <trkpt lat="44.96212" lon="0.67723">
        <ele>143</ele>
        <time>2019-02-14T14:29:46Z</time>
      </trkpt>
      <trkpt lat="44.96197" lon="0.677">
        <ele>142</ele>
        <time>2019-02-14T14:30:02Z</time>
      </trkpt>
      <trkpt lat="44.96187" lon="0.67674">
        <ele>140</ele>
        <time>2019-02-14T14:30:18Z</time>
      </trkpt>
      <trkpt lat="44.96174" lon="0.67656">
        <ele>138</ele>
        <time>2019-02-14T14:30:34Z</time>
      </trkpt>
      <trkpt lat="44.9616" lon="0.67636">
        <ele>136</ele>
        <time>2019-02-14T14:30:50Z</time>
      </trkpt>
      <trkpt lat="44.96148" lon="0.67609">
        <ele>134</ele>
        <time>2019-02-14T14:31:05Z</time>
      </trkpt>
      <trkpt lat="44.96133" lon="0.67589">
        <ele>133</ele>
        <time>2019-02-14T14:31:20Z</time>
      </trkpt>
      <trkpt lat="44.96119" lon="0.67569">
        <ele>131</ele>
        <time>2019-02-14T14:31:36Z</time>
      </trkpt>
      <trkpt lat="44.96106" lon="0.67547">
        <ele>129</ele>
        <time>2019-02-14T14:31:52Z</time>
      </trkpt>
      <trkpt lat="44.96098" lon="0.67525">
        <ele>127</ele>
        <time>2019-02-14T14:32:08Z</time>
      </trkpt>
      <trkpt lat="44.96088" lon="0.67501">
        <ele>126</ele>
        <time>2019-02-14T14:32:23Z</time>
      </trkpt>
      <trkpt lat="44.96079" lon="0.67476">
        <ele>124</ele>
        <time>2019-02-14T14:32:39Z</time>
      </trkpt>
      <trkpt lat="44.9607" lon="0.67446">
        <ele>121</ele>
        <time>2019-02-14T14:32:54Z</time>
      </trkpt>
      <trkpt lat="44.9607" lon="0.67414">
        <ele>119</ele>
        <time>2019-02-14T14:33:10Z</time>
      </trkpt>
      <trkpt lat="44.96072" lon="0.67384">
        <ele>117</ele>
        <time>2019-02-14T14:33:26Z</time>
      </trkpt>
      <trkpt lat="44.96069" lon="0.67354">
        <ele>115</ele>
        <time>2019-02-14T14:33:42Z</time>
      </trkpt>
      <trkpt lat="44.96062" lon="0.67323">
        <ele>113</ele>
        <time>2019-02-14T14:33:59Z</time>
      </trkpt>
      <trkpt lat="44.96059" lon="0.67297">
        <ele>112</ele>
        <time>2019-02-14T14:34:15Z</time>
      </trkpt>
      <trkpt lat="44.96054" lon="0.67268">
        <ele>111</ele>
        <time>2019-02-14T14:34:31Z</time>
      </trkpt>
      <trkpt lat="44.96043" lon="0.67245">
        <ele>109</ele>
        <time>2019-02-14T14:34:47Z</time>
      </trkpt>
      <trkpt lat="44.96024" lon="0.67244">
        <ele>109</ele>
        <time>2019-02-14T14:35:03Z</time>
      </trkpt>
      <trkpt lat="44.96003" lon="0.67254">
        <ele>109</ele>
        <time>2019-02-14T14:35:18Z</time>
      </trkpt>
      <trkpt lat="44.95983" lon="0.67254">
        <ele>109</ele>
        <time>2019-02-14T14:35:34Z</time>
      </trkpt>
      <trkpt lat="44.95962" lon="0.67259">
        <ele>108</ele>
        <time>2019-02-14T14:35:50Z</time>
      </trkpt>
      <trkpt lat="44.95941" lon="0.67264">
        <ele>109</ele>
        <time>2019-02-14T14:36:05Z</time>
      </trkpt>
      <trkpt lat="44.95918" lon="0.67264">
        <ele>111</ele>
        <time>2019-02-14T14:36:21Z</time>
      </trkpt>
      <trkpt lat="44.95899" lon="0.67268">
        <ele>112</ele>
        <time>2019-02-14T14:36:37Z</time>
      </trkpt>
      <trkpt lat="44.95878" lon="0.67267">
        <ele>112</ele>
        <time>2019-02-14T14:36:52Z</time>
      </trkpt>
      <trkpt lat="44.95858" lon="0.67269">
        <ele>113</ele>
        <time>2019-02-14T14:37:08Z</time>
      </trkpt>
      <trkpt lat="44.95837" lon="0.67269">
        <ele>113</ele>
        <time>2019-02-14T14:37:23Z</time>
      </trkpt>
      <trkpt lat="44.95821" lon="0.67267">
        <ele>112</ele>
        <time>2019-02-14T14:37:38Z</time>
      </trkpt>
      <trkpt lat="44.95798" lon="0.6726">
        <ele>112</ele>
        <time>2019-02-14T14:37:54Z</time>
      </trkpt>
      <trkpt lat="44.95778" lon="0.67247">
        <ele>111</ele>
        <time>2019-02-14T14:38:10Z</time>
      </trkpt>
      <trkpt lat="44.95758" lon="0.67235">
        <ele>110</ele>
        <time>2019-02-14T14:38:26Z</time>
      </trkpt>
      <trkpt lat="44.95741" lon="0.67228">
        <ele>110</ele>
        <time>2019-02-14T14:38:42Z</time>
      </trkpt>
      <trkpt lat="44.95729" lon="0.67223">
        <ele>110</ele>
        <time>2019-02-14T14:38:58Z</time>
      </trkpt>
      <trkpt lat="44.95712" lon="0.67211">
        <ele>109</ele>
        <time>2019-02-14T14:39:14Z</time>
      </trkpt>
      <trkpt lat="44.95692" lon="0.672">
        <ele>107</ele>
        <time>2019-02-14T14:39:30Z</time>
      </trkpt>
      <trkpt lat="44.95671" lon="0.67188">
        <ele>106</ele>
        <time>2019-02-14T14:39:46Z</time>
      </trkpt>
      <trkpt lat="44.95659" lon="0.6717">
        <ele>105</ele>
        <time>2019-02-14T14:40:02Z</time>
      </trkpt>
      <trkpt lat="44.95665" lon="0.67146">
        <ele>103</ele>
        <time>2019-02-14T14:40:17Z</time>
      </trkpt>
      <trkpt lat="44.95673" lon="0.67121">
        <ele>100</ele>
        <time>2019-02-14T14:40:33Z</time>
      </trkpt>
      <trkpt lat="44.95676" lon="0.67092">
        <ele>98</ele>
        <time>2019-02-14T14:40:49Z</time>
      </trkpt>
      <trkpt lat="44.95673" lon="0.67067">
        <ele>98</ele>
        <time>2019-02-14T14:41:04Z</time>
      </trkpt>
      <trkpt lat="44.95668" lon="0.67041">
        <ele>98</ele>
        <time>2019-02-14T14:41:20Z</time>
      </trkpt>
      <trkpt lat="44.95658" lon="0.67016">
        <ele>98</ele>
        <time>2019-02-14T14:41:36Z</time>
      </trkpt>
      <trkpt lat="44.95667" lon="0.67021">
        <ele>97</ele>
        <time>2019-02-14T14:41:52Z</time>
      </trkpt>
      <trkpt lat="44.9567" lon="0.67023">
        <ele>96</ele>
        <time>2019-02-14T14:42:08Z</time>
      </trkpt>
      <trkpt lat="44.95684" lon="0.67022">
        <ele>95</ele>
        <time>2019-02-14T14:42:24Z</time>
      </trkpt>
      <trkpt lat="44.95691" lon="0.67028">
        <ele>95</ele>
        <time>2019-02-14T14:42:40Z</time>
      </trkpt>
      <trkpt lat="44.95703" lon="0.67039">
        <ele>95</ele>
        <time>2019-02-14T14:42:56Z</time>
      </trkpt>
      <trkpt lat="44.95719" lon="0.67046">
        <ele>94</ele>
        <time>2019-02-14T14:43:12Z</time>
      </trkpt>
      <trkpt lat="44.9573" lon="0.67058">
        <ele>92</ele>
        <time>2019-02-14T14:43:27Z</time>
      </trkpt>
      <trkpt lat="44.95747" lon="0.67067">
        <ele>90</ele>
        <time>2019-02-14T14:43:43Z</time>
      </trkpt>
      <trkpt lat="44.95771" lon="0.67072">
        <ele>89</ele>
        <time>2019-02-14T14:43:59Z</time>
      </trkpt>
      <trkpt lat="44.95796" lon="0.67075">
        <ele>90</ele>
        <time>2019-02-14T14:44:15Z</time>
      </trkpt>
      <trkpt lat="44.95817" lon="0.67079">
        <ele>91</ele>
        <time>2019-02-14T14:44:31Z</time>
      </trkpt>
      <trkpt lat="44.95834" lon="0.67085">
        <ele>93</ele>
        <time>2019-02-14T14:44:47Z</time>
      </trkpt>
      <trkpt lat="44.95846" lon="0.67089">
        <ele>93</ele>
        <time>2019-02-14T14:45:03Z</time>
      </trkpt>
      <trkpt lat="44.9587" lon="0.67089">
        <ele>91</ele>
        <time>2019-02-14T14:45:19Z</time>
      </trkpt>
      <trkpt lat="44.95887" lon="0.67093">
        <ele>91</ele>
        <time>2019-02-14T14:45:35Z</time>
      </trkpt>
      <trkpt lat="44.9591" lon="0.67065">
        <ele>92</ele>
        <time>2019-02-14T14:45:51Z</time>
      </trkpt>
      <trkpt lat="44.95919" lon="0.67058">
        <ele>95</ele>
        <time>2019-02-14T14:46:07Z</time>
      </trkpt>
      <trkpt lat="44.95917" lon="0.67062">
        <ele>96</ele>
        <time>2019-02-14T14:46:23Z</time>
      </trkpt>
      <trkpt lat="44.95928" lon="0.67056">
        <ele>97</ele>
        <time>2019-02-14T14:46:39Z</time>
      </trkpt>
      <trkpt lat="44.95943" lon="0.67045">
        <ele>98</ele>
        <time>2019-02-14T14:46:54Z</time>
      </trkpt>
      <trkpt lat="44.95948" lon="0.67047">
        <ele>101</ele>
        <time>2019-02-14T14:47:10Z</time>
      </trkpt>
      <trkpt lat="44.95964" lon="0.67037">
        <ele>102</ele>
        <time>2019-02-14T14:47:26Z</time>
      </trkpt>
      <trkpt lat="44.95973" lon="0.6703">
        <ele>103</ele>
        <time>2019-02-14T14:47:41Z</time>
      </trkpt>
      <trkpt lat="44.95988" lon="0.67022">
        <ele>104</ele>
        <time>2019-02-14T14:47:57Z</time>
      </trkpt>
      <trkpt lat="44.96004" lon="0.67013">
        <ele>106</ele>
        <time>2019-02-14T14:48:13Z</time>
      </trkpt>
      <trkpt lat="44.96017" lon="0.67004">
        <ele>108</ele>
        <time>2019-02-14T14:48:29Z</time>
      </trkpt>
      <trkpt lat="44.96023" lon="0.67003">
        <ele>109</ele>
        <time>2019-02-14T14:48:45Z</time>
      </trkpt>
      <trkpt lat="44.96039" lon="0.67">
        <ele>110</ele>
        <time>2019-02-14T14:49:01Z</time>
      </trkpt>
      <trkpt lat="44.96056" lon="0.66999">
        <ele>111</ele>
        <time>2019-02-14T14:49:17Z</time>
      </trkpt>
      <trkpt lat="44.96075" lon="0.66991">
        <ele>112</ele>
        <time>2019-02-14T14:49:33Z</time>
      </trkpt>
      <trkpt lat="44.96094" lon="0.66986">
        <ele>113</ele>
        <time>2019-02-14T14:49:49Z</time>
      </trkpt>
      <trkpt lat="44.96113" lon="0.6698">
        <ele>114</ele>
        <time>2019-02-14T14:50:05Z</time>
      </trkpt>
      <trkpt lat="44.96128" lon="0.66977">
        <ele>114</ele>
        <time>2019-02-14T14:50:21Z</time>
      </trkpt>
      <trkpt lat="44.96143" lon="0.66969">
        <ele>115</ele>
        <time>2019-02-14T14:50:37Z</time>
      </trkpt>
      <trkpt lat="44.96157" lon="0.66964">
        <ele>115</ele>
        <time>2019-02-14T14:50:52Z</time>
      </trkpt>
      <trkpt lat="44.96173" lon="0.66956">
        <ele>113</ele>
        <time>2019-02-14T14:51:08Z</time>
      </trkpt>
      <trkpt lat="44.96198" lon="0.6695">
        <ele>111</ele>
        <time>2019-02-14T14:51:24Z</time>
      </trkpt>
      <trkpt lat="44.96214" lon="0.6694">
        <ele>112</ele>
        <time>2019-02-14T14:51:40Z</time>
      </trkpt>
      <trkpt lat="44.96218" lon="0.66917">
        <ele>115</ele>
        <time>2019-02-14T14:51:56Z</time>
      </trkpt>
      <trkpt lat="44.9621" lon="0.66899">
        <ele>119</ele>
        <time>2019-02-14T14:52:11Z</time>
      </trkpt>
      <trkpt lat="44.96206" lon="0.66879">
        <ele>123</ele>
        <time>2019-02-14T14:52:27Z</time>
      </trkpt>
      <trkpt lat="44.96206" lon="0.6687">
        <ele>125</ele>
        <time>2019-02-14T14:52:43Z</time>
      </trkpt>
      <trkpt lat="44.96197" lon="0.66848">
        <ele>129</ele>
        <time>2019-02-14T14:52:59Z</time>
      </trkpt>
      <trkpt lat="44.96187" lon="0.66837">
        <ele>132</ele>
        <time>2019-02-14T14:53:15Z</time>
      </trkpt>
      <trkpt lat="44.96173" lon="0.66844">
        <ele>135</ele>
        <time>2019-02-14T14:53:30Z</time>
      </trkpt>
      <trkpt lat="44.96158" lon="0.66855">
        <ele>136</ele>
        <time>2019-02-14T14:53:46Z</time>
      </trkpt>
      <trkpt lat="44.96144" lon="0.66851">
        <ele>138</ele>
        <time>2019-02-14T14:54:02Z</time>
      </trkpt>
      <trkpt lat="44.96134" lon="0.66824">
        <ele>139</ele>
        <time>2019-02-14T14:54:18Z</time>
      </trkpt>
      <trkpt lat="44.96127" lon="0.66811">
        <ele>140</ele>
        <time>2019-02-14T14:54:33Z</time>
      </trkpt>
      <trkpt lat="44.96124" lon="0.66812">
        <ele>141</ele>
        <time>2019-02-14T14:54:49Z</time>
      </trkpt>
      <trkpt lat="44.96109" lon="0.66807">
        <ele>144</ele>
        <time>2019-02-14T14:55:05Z</time>
      </trkpt>
      <trkpt lat="44.96092" lon="0.66789">
        <ele>146</ele>
        <time>2019-02-14T14:55:21Z</time>
      </trkpt>
      <trkpt lat="44.96076" lon="0.66776">
        <ele>148</ele>
        <time>2019-02-14T14:55:37Z</time>
      </trkpt>
      <trkpt lat="44.96062" lon="0.66764">
        <ele>149</ele>
        <time>2019-02-14T14:55:53Z</time>
      </trkpt>
      <trkpt lat="44.96044" lon="0.6675">
        <ele>148</ele>
        <time>2019-02-14T14:56:09Z</time>
      </trkpt>
      <trkpt lat="44.96044" lon="0.6673">
        <ele>148</ele>
        <time>2019-02-14T14:56:24Z</time>
      </trkpt>
      <trkpt lat="44.96045" lon="0.66707">
        <ele>147</ele>
        <time>2019-02-14T14:56:40Z</time>
      </trkpt>
      <trkpt lat="44.96038" lon="0.66687">
        <ele>147</ele>
        <time>2019-02-14T14:56:56Z</time>
      </trkpt>
      <trkpt lat="44.96029" lon="0.66665">
        <ele>148</ele>
        <time>2019-02-14T14:57:12Z</time>
      </trkpt>
      <trkpt lat="44.96034" lon="0.66645">
        <ele>147</ele>
        <time>2019-02-14T14:57:28Z</time>
      </trkpt>
      <trkpt lat="44.96043" lon="0.66641">
        <ele>147</ele>
        <time>2019-02-14T14:57:44Z</time>
      </trkpt>
      <trkpt lat="44.96054" lon="0.66638">
        <ele>147</ele>
        <time>2019-02-14T14:57:59Z</time>
      </trkpt>
      <trkpt lat="44.96076" lon="0.66632">
        <ele>147</ele>
        <time>2019-02-14T14:58:15Z</time>
      </trkpt>
      <trkpt lat="44.96093" lon="0.66635">
        <ele>147</ele>
        <time>2019-02-14T14:58:31Z</time>
      </trkpt>
      <trkpt lat="44.96111" lon="0.66633">
        <ele>148</ele>
        <time>2019-02-14T14:58:47Z</time>
      </trkpt>
      <trkpt lat="44.96129" lon="0.66634">
        <ele>149</ele>
        <time>2019-02-14T14:59:02Z</time>
      </trkpt>
      <trkpt lat="44.96145" lon="0.66635">
        <ele>150</ele>
        <time>2019-02-14T14:59:18Z</time>
      </trkpt>
      <trkpt lat="44.96162" lon="0.66639">
        <ele>150</ele>
        <time>2019-02-14T14:59:34Z</time>
      </trkpt>
      <trkpt lat="44.96183" lon="0.66638">
        <ele>150</ele>
        <time>2019-02-14T14:59:50Z</time>
      </trkpt>
      <trkpt lat="44.96203" lon="0.66639">
        <ele>149</ele>
        <time>2019-02-14T15:00:06Z</time>
      </trkpt>
      <trkpt lat="44.96224" lon="0.66633">
        <ele>148</ele>
        <time>2019-02-14T15:00:22Z</time>
      </trkpt>
      <trkpt lat="44.96242" lon="0.66638">
        <ele>148</ele>
        <time>2019-02-14T15:00:38Z</time>
      </trkpt>
      <trkpt lat="44.96261" lon="0.66642">
        <ele>148</ele>
        <time>2019-02-14T15:00:54Z</time>
      </trkpt>
      <trkpt lat="44.96282" lon="0.66644">
        <ele>147</ele>
        <time>2019-02-14T15:01:10Z</time>
      </trkpt>
      <trkpt lat="44.963" lon="0.66641">
        <ele>146</ele>
        <time>2019-02-14T15:01:26Z</time>
      </trkpt>
      <trkpt lat="44.9632" lon="0.66634">
        <ele>147</ele>
        <time>2019-02-14T15:01:42Z</time>
      </trkpt>
      <trkpt lat="44.96342" lon="0.66634">
        <ele>148</ele>
        <time>2019-02-14T15:01:57Z</time>
      </trkpt>
      <trkpt lat="44.96361" lon="0.66637">
        <ele>149</ele>
        <time>2019-02-14T15:02:13Z</time>
      </trkpt>
      <trkpt lat="44.96382" lon="0.66638">
        <ele>149</ele>
        <time>2019-02-14T15:02:29Z</time>
      </trkpt>
      <trkpt lat="44.96398" lon="0.66641">
        <ele>150</ele>
        <time>2019-02-14T15:02:44Z</time>
      </trkpt>
      <trkpt lat="44.96419" lon="0.66643">
        <ele>149</ele>
        <time>2019-02-14T15:03:00Z</time>
      </trkpt>
      <trkpt lat="44.96439" lon="0.66643">
        <ele>149</ele>
        <time>2019-02-14T15:03:16Z</time>
      </trkpt>
      <trkpt lat="44.96456" lon="0.66633">
        <ele>150</ele>
        <time>2019-02-14T15:03:32Z</time>
      </trkpt>
      <trkpt lat="44.96478" lon="0.6663">
        <ele>150</ele>
        <time>2019-02-14T15:03:48Z</time>
      </trkpt>
      <trkpt lat="44.96502" lon="0.66624">
        <ele>152</ele>
        <time>2019-02-14T15:04:04Z</time>
      </trkpt>
      <trkpt lat="44.9652" lon="0.66619">
        <ele>153</ele>
        <time>2019-02-14T15:04:20Z</time>
      </trkpt>
      <trkpt lat="44.96538" lon="0.66618">
        <ele>154</ele>
        <time>2019-02-14T15:04:35Z</time>
      </trkpt>
      <trkpt lat="44.96554" lon="0.66621">
        <ele>155</ele>
        <time>2019-02-14T15:04:51Z</time>
      </trkpt>
      <trkpt lat="44.96575" lon="0.66615">
        <ele>156</ele>
        <time>2019-02-14T15:05:07Z</time>
      </trkpt>
      <trkpt lat="44.96596" lon="0.66617">
        <ele>158</ele>
        <time>2019-02-14T15:05:23Z</time>
      </trkpt>
      <trkpt lat="44.96614" lon="0.66618">
        <ele>160</ele>
        <time>2019-02-14T15:05:39Z</time>
      </trkpt>
      <trkpt lat="44.96635" lon="0.6662">
        <ele>161</ele>
        <time>2019-02-14T15:05:55Z</time>
      </trkpt>
      <trkpt lat="44.96658" lon="0.66626">
        <ele>162</ele>
        <time>2019-02-14T15:06:11Z</time>
      </trkpt>
      <trkpt lat="44.96669" lon="0.66632">
        <ele>162</ele>
        <time>2019-02-14T15:06:27Z</time>
      </trkpt>
      <trkpt lat="44.96681" lon="0.66649">
        <ele>161</ele>
        <time>2019-02-14T15:06:42Z</time>
      </trkpt>
      <trkpt lat="44.96679" lon="0.66672">
        <ele>159</ele>
        <time>2019-02-14T15:06:58Z</time>
      </trkpt>
      <trkpt lat="44.96678" lon="0.66699">
        <ele>158</ele>
        <time>2019-02-14T15:07:14Z</time>
      </trkpt>
      <trkpt lat="44.96679" lon="0.66732">
        <ele>157</ele>
        <time>2019-02-14T15:07:30Z</time>
      </trkpt>
      <trkpt lat="44.96677" lon="0.66761">
        <ele>157</ele>
        <time>2019-02-14T15:07:46Z</time>
      </trkpt>
      <trkpt lat="44.96675" lon="0.66785">
        <ele>157</ele>
        <time>2019-02-14T15:08:01Z</time>
      </trkpt>
      <trkpt lat="44.96679" lon="0.66806">
        <ele>158</ele>
        <time>2019-02-14T15:08:17Z</time>
      </trkpt>
      <trkpt lat="44.9668" lon="0.66811">
        <ele>158</ele>
        <time>2019-02-14T15:08:33Z</time>
      </trkpt>
      <trkpt lat="44.96694" lon="0.66839">
        <ele>158</ele>
        <time>2019-02-14T15:08:49Z</time>
      </trkpt>
      <trkpt lat="44.96701" lon="0.66866">
        <ele>158</ele>
        <time>2019-02-14T15:09:05Z</time>
      </trkpt>
      <trkpt lat="44.96704" lon="0.66894">
        <ele>159</ele>
        <time>2019-02-14T15:09:20Z</time>
      </trkpt>
      <trkpt lat="44.96714" lon="0.66918">
        <ele>160</ele>
        <time>2019-02-14T15:09:36Z</time>
      </trkpt>
      <trkpt lat="44.96724" lon="0.66938">
        <ele>160</ele>
        <time>2019-02-14T15:09:52Z</time>
      </trkpt>
      <trkpt lat="44.9674" lon="0.66954">
        <ele>159</ele>
        <time>2019-02-14T15:10:08Z</time>
      </trkpt>
      <trkpt lat="44.96755" lon="0.66964">
        <ele>157</ele>
        <time>2019-02-14T15:10:24Z</time>
      </trkpt>
      <trkpt lat="44.9677" lon="0.66979">
        <ele>155</ele>
        <time>2019-02-14T15:10:40Z</time>
      </trkpt>
      <trkpt lat="44.96775" lon="0.66985">
        <ele>153</ele>
        <time>2019-02-14T15:10:56Z</time>
      </trkpt>
      <trkpt lat="44.96792" lon="0.66992">
        <ele>149</ele>
        <time>2019-02-14T15:11:11Z</time>
      </trkpt>
      <trkpt lat="44.96803" lon="0.66999">
        <ele>148</ele>
        <time>2019-02-14T15:11:27Z</time>
      </trkpt>
      <trkpt lat="44.96828" lon="0.66995">
        <ele>145</ele>
        <time>2019-02-14T15:11:43Z</time>
      </trkpt>
      <trkpt lat="44.96845" lon="0.67">
        <ele>144</ele>
        <time>2019-02-14T15:11:59Z</time>
      </trkpt>
      <trkpt lat="44.96868" lon="0.67006">
        <ele>142</ele>
        <time>2019-02-14T15:12:15Z</time>
      </trkpt>
      <trkpt lat="44.96887" lon="0.67013">
        <ele>140</ele>
        <time>2019-02-14T15:12:31Z</time>
      </trkpt>
      <trkpt lat="44.96912" lon="0.67018">
        <ele>138</ele>
        <time>2019-02-14T15:12:47Z</time>
      </trkpt>
      <trkpt lat="44.96925" lon="0.6702">
        <ele>137</ele>
        <time>2019-02-14T15:13:03Z</time>
      </trkpt>
      <trkpt lat="44.96943" lon="0.67027">
        <ele>137</ele>
        <time>2019-02-14T15:13:19Z</time>
      </trkpt>
      <trkpt lat="44.9696" lon="0.67029">
        <ele>137</ele>
        <time>2019-02-14T15:13:35Z</time>
      </trkpt>
      <trkpt lat="44.96982" lon="0.6704">
        <ele>137</ele>
        <time>2019-02-14T15:13:51Z</time>
      </trkpt>
      <trkpt lat="44.96986" lon="0.67037">
        <ele>136</ele>
        <time>2019-02-14T15:14:07Z</time>
      </trkpt>
      <trkpt lat="44.96999" lon="0.67044">
        <ele>134</ele>
        <time>2019-02-14T15:14:23Z</time>
      </trkpt>
      <trkpt lat="44.97016" lon="0.67051">
        <ele>131</ele>
        <time>2019-02-14T15:14:39Z</time>
      </trkpt>
      <trkpt lat="44.97035" lon="0.67057">
        <ele>127</ele>
        <time>2019-02-14T15:14:55Z</time>
      </trkpt>
      <trkpt lat="44.97055" lon="0.67062">
        <ele>124</ele>
        <time>2019-02-14T15:15:11Z</time>
      </trkpt>
      <trkpt lat="44.9707" lon="0.67067">
        <ele>123</ele>
        <time>2019-02-14T15:15:27Z</time>
      </trkpt>
      <trkpt lat="44.97089" lon="0.67072">
        <ele>125</ele>
        <time>2019-02-14T15:15:42Z</time>
      </trkpt>
      <trkpt lat="44.97101" lon="0.6707">
        <ele>128</ele>
        <time>2019-02-14T15:15:58Z</time>
      </trkpt>
      <trkpt lat="44.97117" lon="0.67069">
        <ele>130</ele>
        <time>2019-02-14T15:16:14Z</time>
      </trkpt>
      <trkpt lat="44.97133" lon="0.67063">
        <ele>131</ele>
        <time>2019-02-14T15:16:30Z</time>
      </trkpt>
      <trkpt lat="44.97146" lon="0.6706">
        <ele>134</ele>
        <time>2019-02-14T15:16:46Z</time>
      </trkpt>
      <trkpt lat="44.9716" lon="0.67055">
        <ele>135</ele>
        <time>2019-02-14T15:17:01Z</time>
      </trkpt>
      <trkpt lat="44.97181" lon="0.67051">
        <ele>135</ele>
        <time>2019-02-14T15:17:17Z</time>
      </trkpt>
      <trkpt lat="44.97202" lon="0.67047">
        <ele>134</ele>
        <time>2019-02-14T15:17:33Z</time>
      </trkpt>
      <trkpt lat="44.97227" lon="0.67048">
        <ele>132</ele>
        <time>2019-02-14T15:17:49Z</time>
      </trkpt>
      <trkpt lat="44.97253" lon="0.67051">
        <ele>130</ele>
        <time>2019-02-14T15:18:05Z</time>
      </trkpt>
      <trkpt lat="44.97269" lon="0.67054">
        <ele>129</ele>
        <time>2019-02-14T15:18:21Z</time>
      </trkpt>
      <trkpt lat="44.97276" lon="0.67063">
        <ele>129</ele>
        <time>2019-02-14T15:18:37Z</time>
      </trkpt>
      <trkpt lat="44.9729" lon="0.67062">
        <ele>130</ele>
        <time>2019-02-14T15:18:53Z</time>
      </trkpt>
      <trkpt lat="44.97306" lon="0.67059">
        <ele>129</ele>
        <time>2019-02-14T15:19:09Z</time>
      </trkpt>
      <trkpt lat="44.9733" lon="0.67061">
        <ele>129</ele>
        <time>2019-02-14T15:19:25Z</time>
      </trkpt>
      <trkpt lat="44.97343" lon="0.67073">
        <ele>128</ele>
        <time>2019-02-14T15:19:41Z</time>
      </trkpt>
      <trkpt lat="44.97362" lon="0.67082">
        <ele>128</ele>
        <time>2019-02-14T15:19:56Z</time>
      </trkpt>
      <trkpt lat="44.97379" lon="0.67094">
        <ele>128</ele>
        <time>2019-02-14T15:20:12Z</time>
      </trkpt>
      <trkpt lat="44.97396" lon="0.67106">
        <ele>127</ele>
        <time>2019-02-14T15:20:28Z</time>
      </trkpt>
      <trkpt lat="44.97408" lon="0.67107">
        <ele>124</ele>
        <time>2019-02-14T15:20:44Z</time>
      </trkpt>
      <trkpt lat="44.97433" lon="0.67118">
        <ele>121</ele>
        <time>2019-02-14T15:21:00Z</time>
      </trkpt>
      <trkpt lat="44.9745" lon="0.67128">
        <ele>119</ele>
        <time>2019-02-14T15:21:16Z</time>
      </trkpt>
      <trkpt lat="44.97474" lon="0.67144">
        <ele>120</ele>
        <time>2019-02-14T15:21:32Z</time>
      </trkpt>
      <trkpt lat="44.97488" lon="0.67152">
        <ele>123</ele>
        <time>2019-02-14T15:21:48Z</time>
      </trkpt>
      <trkpt lat="44.97502" lon="0.6715">
        <ele>126</ele>
        <time>2019-02-14T15:22:04Z</time>
      </trkpt>
      <trkpt lat="44.97523" lon="0.67145">
        <ele>128</ele>
        <time>2019-02-14T15:22:20Z</time>
      </trkpt>
      <trkpt lat="44.97545" lon="0.67147">
        <ele>130</ele>
        <time>2019-02-14T15:22:36Z</time>
      </trkpt>
      <trkpt lat="44.97561" lon="0.6716">
        <ele>131</ele>
        <time>2019-02-14T15:22:52Z</time>
      </trkpt>
      <trkpt lat="44.97571" lon="0.67176">
        <ele>133</ele>
        <time>2019-02-14T15:23:08Z</time>
      </trkpt>
      <trkpt lat="44.97575" lon="0.67197">
        <ele>135</ele>
        <time>2019-02-14T15:23:24Z</time>
      </trkpt>
      <trkpt lat="44.97574" lon="0.67219">
        <ele>135</ele>
        <time>2019-02-14T15:23:40Z</time>
      </trkpt>
      <trkpt lat="44.97587" lon="0.67237">
        <ele>134</ele>
        <time>2019-02-14T15:23:56Z</time>
      </trkpt>
      <trkpt lat="44.97598" lon="0.67255">
        <ele>133</ele>
        <time>2019-02-14T15:24:12Z</time>
      </trkpt>
      <trkpt lat="44.9761" lon="0.67273">
        <ele>130</ele>
        <time>2019-02-14T15:24:28Z</time>
      </trkpt>
      <trkpt lat="44.97631" lon="0.67288">
        <ele>127</ele>
        <time>2019-02-14T15:24:44Z</time>
      </trkpt>
      <trkpt lat="44.97647" lon="0.67309">
        <ele>125</ele>
        <time>2019-02-14T15:24:59Z</time>
      </trkpt>
      <trkpt lat="44.97661" lon="0.67333">
        <ele>126</ele>
        <time>2019-02-14T15:25:15Z</time>
      </trkpt>
      <trkpt lat="44.97674" lon="0.67354">
        <ele>128</ele>
        <time>2019-02-14T15:25:31Z</time>
      </trkpt>
      <trkpt lat="44.9768" lon="0.67379">
        <ele>130</ele>
        <time>2019-02-14T15:25:46Z</time>
      </trkpt>
      <trkpt lat="44.97681" lon="0.67403">
        <ele>132</ele>
        <time>2019-02-14T15:26:01Z</time>
      </trkpt>
      <trkpt lat="44.97688" lon="0.67423">
        <ele>135</ele>
        <time>2019-02-14T15:26:17Z</time>
      </trkpt>
      <trkpt lat="44.97694" lon="0.67428">
        <ele>136</ele>
        <time>2019-02-14T15:26:33Z</time>
      </trkpt>
      <trkpt lat="44.97712" lon="0.67436">
        <ele>137</ele>
        <time>2019-02-14T15:26:49Z</time>
      </trkpt>
      <trkpt lat="44.97732" lon="0.67437">
        <ele>136</ele>
        <time>2019-02-14T15:27:05Z</time>
      </trkpt>
      <trkpt lat="44.97744" lon="0.67439">
        <ele>136</ele>
        <time>2019-02-14T15:27:21Z</time>
      </trkpt>
      <trkpt lat="44.9776" lon="0.67448">
        <ele>136</ele>
        <time>2019-02-14T15:27:36Z</time>
      </trkpt>
      <trkpt lat="44.97763" lon="0.67447">
        <ele>137</ele>
        <time>2019-02-14T15:27:52Z</time>
      </trkpt>
      <trkpt lat="44.97761" lon="0.67443">
        <ele>139</ele>
        <time>2019-02-14T15:28:08Z</time>
      </trkpt>
      <trkpt lat="44.97761" lon="0.67443">
        <ele>139</ele>
        <time>2019-02-14T15:28:24Z</time>
      </trkpt>
      <trkpt lat="44.97771" lon="0.67448">
        <ele>140</ele>
        <time>2019-02-14T15:28:40Z</time>
      </trkpt>
      <trkpt lat="44.97789" lon="0.67454">
        <ele>142</ele>
        <time>2019-02-14T15:28:55Z</time>
      </trkpt>
      <trkpt lat="44.97798" lon="0.67455">
        <ele>143</ele>
        <time>2019-02-14T15:29:11Z</time>
      </trkpt>
      <trkpt lat="44.978" lon="0.67454">
        <ele>143</ele>
        <time>2019-02-14T15:29:27Z</time>
      </trkpt>
      <trkpt lat="44.97804" lon="0.67453">
        <ele>144</ele>
        <time>2019-02-14T15:29:42Z</time>
      </trkpt>
      <trkpt lat="44.97824" lon="0.67454">
        <ele>147</ele>
        <time>2019-02-14T15:29:58Z</time>
      </trkpt>
      <trkpt lat="44.97845" lon="0.6746">
        <ele>149</ele>
        <time>2019-02-14T15:30:14Z</time>
      </trkpt>
      <trkpt lat="44.97865" lon="0.67462">
        <ele>152</ele>
        <time>2019-02-14T15:30:30Z</time>
      </trkpt>
      <trkpt lat="44.97879" lon="0.6747">
        <ele>152</ele>
        <time>2019-02-14T15:30:46Z</time>
      </trkpt>
      <trkpt lat="44.97898" lon="0.67478">
        <ele>151</ele>
        <time>2019-02-14T15:31:01Z</time>
      </trkpt>
      <trkpt lat="44.97912" lon="0.67497">
        <ele>150</ele>
        <time>2019-02-14T15:31:17Z</time>
      </trkpt>
      <trkpt lat="44.97919" lon="0.67523">
        <ele>149</ele>
        <time>2019-02-14T15:31:33Z</time>
      </trkpt>
      <trkpt lat="44.97922" lon="0.6755">
        <ele>148</ele>
        <time>2019-02-14T15:31:49Z</time>
      </trkpt>
      <trkpt lat="44.9793" lon="0.67571">
        <ele>148</ele>
        <time>2019-02-14T15:32:05Z</time>
      </trkpt>
      <trkpt lat="44.97943" lon="0.67596">
        <ele>147</ele>
        <time>2019-02-14T15:32:21Z</time>
      </trkpt>
      <trkpt lat="44.97958" lon="0.67614">
        <ele>147</ele>
        <time>2019-02-14T15:32:37Z</time>
      </trkpt>
      <trkpt lat="44.97962" lon="0.67622">
        <ele>148</ele>
        <time>2019-02-14T15:32:53Z</time>
      </trkpt>
      <trkpt lat="44.97965" lon="0.67625">
        <ele>147</ele>
        <time>2019-02-14T15:33:09Z</time>
      </trkpt>
      <trkpt lat="44.97979" lon="0.67642">
        <ele>145</ele>
        <time>2019-02-14T15:33:24Z</time>
      </trkpt>
      <trkpt lat="44.97996" lon="0.67654">
        <ele>145</ele>
        <time>2019-02-14T15:33:40Z</time>
      </trkpt>
      <trkpt lat="44.98015" lon="0.67664">
        <ele>145</ele>
        <time>2019-02-14T15:33:56Z</time>
      </trkpt>
      <trkpt lat="44.98037" lon="0.6767">
        <ele>144</ele>
        <time>2019-02-14T15:34:12Z</time>
      </trkpt>
      <trkpt lat="44.98057" lon="0.67683">
        <ele>144</ele>
        <time>2019-02-14T15:34:28Z</time>
      </trkpt>
      <trkpt lat="44.98074" lon="0.677">
        <ele>145</ele>
        <time>2019-02-14T15:34:44Z</time>
      </trkpt>
      <trkpt lat="44.98091" lon="0.67713">
        <ele>145</ele>
        <time>2019-02-14T15:35:00Z</time>
      </trkpt>
      <trkpt lat="44.98105" lon="0.67728">
        <ele>146</ele>
        <time>2019-02-14T15:35:16Z</time>
      </trkpt>
      <trkpt lat="44.98122" lon="0.67733">
        <ele>146</ele>
        <time>2019-02-14T15:35:32Z</time>
      </trkpt>
      <trkpt lat="44.98134" lon="0.6775">
        <ele>146</ele>
        <time>2019-02-14T15:35:48Z</time>
      </trkpt>
      <trkpt lat="44.98153" lon="0.67763">
        <ele>145</ele>
        <time>2019-02-14T15:36:04Z</time>
      </trkpt>
      <trkpt lat="44.98172" lon="0.67771">
        <ele>147</ele>
        <time>2019-02-14T15:36:20Z</time>
      </trkpt>
      <trkpt lat="44.98184" lon="0.67771">
        <ele>148</ele>
        <time>2019-02-14T15:36:36Z</time>
      </trkpt>
      <trkpt lat="44.982" lon="0.67784">
        <ele>147</ele>
        <time>2019-02-14T15:36:52Z</time>
      </trkpt>
      <trkpt lat="44.98216" lon="0.67794">
        <ele>149</ele>
        <time>2019-02-14T15:37:08Z</time>
      </trkpt>
      <trkpt lat="44.98232" lon="0.67802">
        <ele>151</ele>
        <time>2019-02-14T15:37:24Z</time>
      </trkpt>
      <trkpt lat="44.98236" lon="0.67798">
        <ele>151</ele>
        <time>2019-02-14T15:37:40Z</time>
      </trkpt>
      <trkpt lat="44.98246" lon="0.67783">
        <ele>152</ele>
        <time>2019-02-14T15:37:56Z</time>
      </trkpt>
      <trkpt lat="44.98261" lon="0.67765">
        <ele>152</ele>
        <time>2019-02-14T15:38:12Z</time>
      </trkpt>
      <trkpt lat="44.98278" lon="0.67752">
        <ele>153</ele>
        <time>2019-02-14T15:38:27Z</time>
      </trkpt>
      <trkpt lat="44.9829" lon="0.67742">
        <ele>154</ele>
        <time>2019-02-14T15:38:43Z</time>
      </trkpt>
      <trkpt lat="44.98313" lon="0.67725">
        <ele>156</ele>
        <time>2019-02-14T15:38:58Z</time>
      </trkpt>
      <trkpt lat="44.98324" lon="0.67711">
        <ele>158</ele>
        <time>2019-02-14T15:39:14Z</time>
      </trkpt>
      <trkpt lat="44.98342" lon="0.67695">
        <ele>161</ele>
        <time>2019-02-14T15:39:30Z</time>
      </trkpt>
      <trkpt lat="44.98356" lon="0.67687">
        <ele>164</ele>
        <time>2019-02-14T15:39:46Z</time>
      </trkpt>
      <trkpt lat="44.98366" lon="0.67674">
        <ele>166</ele>
        <time>2019-02-14T15:40:02Z</time>
      </trkpt>
      <trkpt lat="44.98379" lon="0.67666">
        <ele>168</ele>
        <time>2019-02-14T15:40:18Z</time>
      </trkpt>
      <trkpt lat="44.98397" lon="0.67658">
        <ele>170</ele>
        <time>2019-02-14T15:40:34Z</time>
      </trkpt>
      <trkpt lat="44.98419" lon="0.67653">
        <ele>173</ele>
        <time>2019-02-14T15:40:50Z</time>
      </trkpt>
      <trkpt lat="44.98428" lon="0.67649">
        <ele>176</ele>
        <time>2019-02-14T15:41:06Z</time>
      </trkpt>
      <trkpt lat="44.98434" lon="0.67645">
        <ele>178</ele>
        <time>2019-02-14T15:41:22Z</time>
      </trkpt>
      <trkpt lat="44.98449" lon="0.67637">
        <ele>179</ele>
        <time>2019-02-14T15:41:38Z</time>
      </trkpt>
      <trkpt lat="44.98463" lon="0.6763">
        <ele>179</ele>
        <time>2019-02-14T15:41:54Z</time>
      </trkpt>
      <trkpt lat="44.98482" lon="0.67637">
        <ele>179</ele>
        <time>2019-02-14T15:42:10Z</time>
      </trkpt>
      <trkpt lat="44.98497" lon="0.67642">
        <ele>178</ele>
        <time>2019-02-14T15:42:26Z</time>
      </trkpt>
      <trkpt lat="44.98513" lon="0.67655">
        <ele>177</ele>
        <time>2019-02-14T15:42:42Z</time>
      </trkpt>
      <trkpt lat="44.98513" lon="0.67682">
        <ele>176</ele>
        <time>2019-02-14T15:42:58Z</time>
      </trkpt>
      <trkpt lat="44.98511" lon="0.6771">
        <ele>175</ele>
        <time>2019-02-14T15:43:13Z</time>
      </trkpt>
      <trkpt lat="44.98514" lon="0.67734">
        <ele>173</ele>
        <time>2019-02-14T15:43:29Z</time>
      </trkpt>
      <trkpt lat="44.9851" lon="0.67759">
        <ele>170</ele>
        <time>2019-02-14T15:43:44Z</time>
      </trkpt>
      <trkpt lat="44.98507" lon="0.67788">
        <ele>168</ele>
        <time>2019-02-14T15:44:00Z</time>
      </trkpt>
      <trkpt lat="44.98503" lon="0.67815">
        <ele>169</ele>
        <time>2019-02-14T15:44:16Z</time>
      </trkpt>
      <trkpt lat="44.985" lon="0.6784">
        <ele>169</ele>
        <time>2019-02-14T15:44:32Z</time>
      </trkpt>
      <trkpt lat="44.98497" lon="0.67866">
        <ele>170</ele>
        <time>2019-02-14T15:44:48Z</time>
      </trkpt>
      <trkpt lat="44.98489" lon="0.67886">
        <ele>172</ele>
        <time>2019-02-14T15:45:04Z</time>
      </trkpt>
      <trkpt lat="44.98485" lon="0.6791">
        <ele>174</ele>
        <time>2019-02-14T15:45:20Z</time>
      </trkpt>
      <trkpt lat="44.98478" lon="0.67925">
        <ele>176</ele>
        <time>2019-02-14T15:45:36Z</time>
      </trkpt>
      <trkpt lat="44.98469" lon="0.67944">
        <ele>176</ele>
        <time>2019-02-14T15:45:51Z</time>
      </trkpt>
      <trkpt lat="44.98464" lon="0.67969">
        <ele>177</ele>
        <time>2019-02-14T15:46:07Z</time>
      </trkpt>
      <trkpt lat="44.98458" lon="0.67994">
        <ele>179</ele>
        <time>2019-02-14T15:46:23Z</time>
      </trkpt>
      <trkpt lat="44.98458" lon="0.68009">
        <ele>180</ele>
        <time>2019-02-14T15:46:39Z</time>
      </trkpt>
      <trkpt lat="44.98469" lon="0.68034">
        <ele>180</ele>
        <time>2019-02-14T15:46:55Z</time>
      </trkpt>
      <trkpt lat="44.98489" lon="0.68047">
        <ele>182</ele>
        <time>2019-02-14T15:47:11Z</time>
      </trkpt>
      <trkpt lat="44.98499" lon="0.68066">
        <ele>184</ele>
        <time>2019-02-14T15:47:27Z</time>
      </trkpt>
      <trkpt lat="44.98505" lon="0.68074">
        <ele>185</ele>
        <time>2019-02-14T15:47:43Z</time>
      </trkpt>
      <trkpt lat="44.98505" lon="0.68076">
        <ele>186</ele>
        <time>2019-02-14T15:47:59Z</time>
      </trkpt>
      <trkpt lat="44.98505" lon="0.68076">
        <ele>185</ele>
        <time>2019-02-14T15:48:15Z</time>
      </trkpt>
      <trkpt lat="44.98506" lon="0.68075">
        <ele>186</ele>
        <time>2019-02-14T15:48:31Z</time>
      </trkpt>
    </trkseg>
  </trk>
  <trk>
    <name><![CDATA[randogps24-430]]></name>
    <extensions>
      <line xmlns="http://www.topografix.com/GPX/gpx_style/0/2">
        <color>0000FF</color>
        <width>4</width>
      </line>
    </extensions>
    <trkseg>
      <trkpt lat="44.98769" lon="0.64029">
        <ele>189.52</ele>
        <time>2018-03-16T13:14:39Z</time>
      </trkpt>
      <trkpt lat="44.98769" lon="0.64029">
        <ele>189.52</ele>
        <time>2018-03-16T13:14:40Z</time>
      </trkpt>
      <trkpt lat="44.9877" lon="0.64031">
        <ele>190</ele>
        <time>2018-03-16T13:14:58Z</time>
      </trkpt>
      <trkpt lat="44.9877" lon="0.6404">
        <ele>190.48</ele>
        <time>2018-03-16T13:15:08Z</time>
      </trkpt>
      <trkpt lat="44.98761" lon="0.64063">
        <ele>191.44</ele>
        <time>2018-03-16T13:15:23Z</time>
      </trkpt>
      <trkpt lat="44.98756" lon="0.64088">
        <ele>192.4</ele>
        <time>2018-03-16T13:15:38Z</time>
      </trkpt>
      <trkpt lat="44.98752" lon="0.64118">
        <ele>193.84</ele>
        <time>2018-03-16T13:15:54Z</time>
      </trkpt>
      <trkpt lat="44.98745" lon="0.64151">
        <ele>194.32</ele>
        <time>2018-03-16T13:16:12Z</time>
      </trkpt>
      <trkpt lat="44.98744" lon="0.64171">
        <ele>194.32</ele>
        <time>2018-03-16T13:16:22Z</time>
      </trkpt>
      <trkpt lat="44.98747" lon="0.64199">
        <ele>194.32</ele>
        <time>2018-03-16T13:16:37Z</time>
      </trkpt>
      <trkpt lat="44.98752" lon="0.64225">
        <ele>194.32</ele>
        <time>2018-03-16T13:16:50Z</time>
      </trkpt>
      <trkpt lat="44.98756" lon="0.64251">
        <ele>192.88</ele>
        <time>2018-03-16T13:17:03Z</time>
      </trkpt>
      <trkpt lat="44.98756" lon="0.64253">
        <ele>192.88</ele>
        <time>2018-03-16T13:17:04Z</time>
      </trkpt>
      <trkpt lat="44.98749" lon="0.64269">
        <ele>191.44</ele>
        <time>2018-03-16T13:17:15Z</time>
      </trkpt>
      <trkpt lat="44.98732" lon="0.64276">
        <ele>188.56</ele>
        <time>2018-03-16T13:17:28Z</time>
      </trkpt>
      <trkpt lat="44.98714" lon="0.64284">
        <ele>185.67</ele>
        <time>2018-03-16T13:17:43Z</time>
      </trkpt>
      <trkpt lat="44.98696" lon="0.64289">
        <ele>182.79</ele>
        <time>2018-03-16T13:17:57Z</time>
      </trkpt>
      <trkpt lat="44.98675" lon="0.64296">
        <ele>179.42</ele>
        <time>2018-03-16T13:18:15Z</time>
      </trkpt>
      <trkpt lat="44.98664" lon="0.64299">
        <ele>178.46</ele>
        <time>2018-03-16T13:18:23Z</time>
      </trkpt>
      <trkpt lat="44.98642" lon="0.6431">
        <ele>176.06</ele>
        <time>2018-03-16T13:18:37Z</time>
      </trkpt>
      <trkpt lat="44.98624" lon="0.64323">
        <ele>174.14</ele>
        <time>2018-03-16T13:18:53Z</time>
      </trkpt>
      <trkpt lat="44.98612" lon="0.64336">
        <ele>172.69</ele>
        <time>2018-03-16T13:19:04Z</time>
      </trkpt>
      <trkpt lat="44.98599" lon="0.64342">
        <ele>170.29</ele>
        <time>2018-03-16T13:19:21Z</time>
      </trkpt>
      <trkpt lat="44.986" lon="0.6434">
        <ele>170.29</ele>
        <time>2018-03-16T13:19:27Z</time>
      </trkpt>
      <trkpt lat="44.98603" lon="0.64343">
        <ele>171.73</ele>
        <time>2018-03-16T13:19:31Z</time>
      </trkpt>
      <trkpt lat="44.98608" lon="0.64342">
        <ele>171.73</ele>
        <time>2018-03-16T13:19:34Z</time>
      </trkpt>
      <trkpt lat="44.98623" lon="0.64322">
        <ele>174.62</ele>
        <time>2018-03-16T13:19:52Z</time>
      </trkpt>
      <trkpt lat="44.98625" lon="0.64321">
        <ele>175.1</ele>
        <time>2018-03-16T13:19:53Z</time>
      </trkpt>
      <trkpt lat="44.98629" lon="0.64325">
        <ele>175.1</ele>
        <time>2018-03-16T13:19:57Z</time>
      </trkpt>
      <trkpt lat="44.98631" lon="0.64345">
        <ele>175.1</ele>
        <time>2018-03-16T13:20:11Z</time>
      </trkpt>
      <trkpt lat="44.98633" lon="0.64384">
        <ele>175.58</ele>
        <time>2018-03-16T13:20:30Z</time>
      </trkpt>
      <trkpt lat="44.98632" lon="0.64422">
        <ele>176.06</ele>
        <time>2018-03-16T13:20:49Z</time>
      </trkpt>
      <trkpt lat="44.98631" lon="0.64459">
        <ele>176.54</ele>
        <time>2018-03-16T13:21:09Z</time>
      </trkpt>
      <trkpt lat="44.9863" lon="0.64495">
        <ele>176.06</ele>
        <time>2018-03-16T13:21:28Z</time>
      </trkpt>
      <trkpt lat="44.98632" lon="0.64535">
        <ele>176.06</ele>
        <time>2018-03-16T13:21:48Z</time>
      </trkpt>
      <trkpt lat="44.98634" lon="0.64578">
        <ele>174.62</ele>
        <time>2018-03-16T13:22:08Z</time>
      </trkpt>
      <trkpt lat="44.98637" lon="0.64619">
        <ele>173.66</ele>
        <time>2018-03-16T13:22:27Z</time>
      </trkpt>
      <trkpt lat="44.9864" lon="0.64661">
        <ele>173.17</ele>
        <time>2018-03-16T13:22:46Z</time>
      </trkpt>
      <trkpt lat="44.98642" lon="0.64699">
        <ele>172.21</ele>
        <time>2018-03-16T13:23:06Z</time>
      </trkpt>
      <trkpt lat="44.98645" lon="0.64737">
        <ele>171.73</ele>
        <time>2018-03-16T13:23:25Z</time>
      </trkpt>
      <trkpt lat="44.98648" lon="0.64776">
        <ele>171.25</ele>
        <time>2018-03-16T13:23:42Z</time>
      </trkpt>
      <trkpt lat="44.9865" lon="0.64814">
        <ele>171.25</ele>
        <time>2018-03-16T13:24:00Z</time>
      </trkpt>
      <trkpt lat="44.98653" lon="0.64846">
        <ele>170.77</ele>
        <time>2018-03-16T13:24:16Z</time>
      </trkpt>
      <trkpt lat="44.98653" lon="0.64848">
        <ele>170.77</ele>
        <time>2018-03-16T13:24:17Z</time>
      </trkpt>
      <trkpt lat="44.98639" lon="0.64864">
        <ele>166.93</ele>
        <time>2018-03-16T13:24:33Z</time>
      </trkpt>
      <trkpt lat="44.98638" lon="0.64868">
        <ele>166.45</ele>
        <time>2018-03-16T13:24:52Z</time>
      </trkpt>
      <trkpt lat="44.98641" lon="0.64859">
        <ele>166.45</ele>
        <time>2018-03-16T13:25:16Z</time>
      </trkpt>
      <trkpt lat="44.98654" lon="0.6485">
        <ele>169.81</ele>
        <time>2018-03-16T13:25:29Z</time>
      </trkpt>
      <trkpt lat="44.98655" lon="0.6485">
        <ele>169.81</ele>
        <time>2018-03-16T13:25:30Z</time>
      </trkpt>
      <trkpt lat="44.98662" lon="0.64865">
        <ele>170.29</ele>
        <time>2018-03-16T13:25:42Z</time>
      </trkpt>
      <trkpt lat="44.98668" lon="0.64907">
        <ele>170.29</ele>
        <time>2018-03-16T13:26:02Z</time>
      </trkpt>
      <trkpt lat="44.9867" lon="0.64933">
        <ele>170.29</ele>
        <time>2018-03-16T13:26:16Z</time>
      </trkpt>
      <trkpt lat="44.98669" lon="0.64938">
        <ele>170.29</ele>
        <time>2018-03-16T13:26:18Z</time>
      </trkpt>
      <trkpt lat="44.98669" lon="0.64943">
        <ele>170.29</ele>
        <time>2018-03-16T13:26:21Z</time>
      </trkpt>
      <trkpt lat="44.98664" lon="0.64967">
        <ele>169.81</ele>
        <time>2018-03-16T13:26:36Z</time>
      </trkpt>
      <trkpt lat="44.98649" lon="0.65004">
        <ele>169.81</ele>
        <time>2018-03-16T13:26:55Z</time>
      </trkpt>
      <trkpt lat="44.98635" lon="0.65031">
        <ele>169.81</ele>
        <time>2018-03-16T13:27:12Z</time>
      </trkpt>
      <trkpt lat="44.9862" lon="0.65067">
        <ele>168.37</ele>
        <time>2018-03-16T13:27:31Z</time>
      </trkpt>
      <trkpt lat="44.98604" lon="0.65096">
        <ele>168.37</ele>
        <time>2018-03-16T13:27:50Z</time>
      </trkpt>
      <trkpt lat="44.98587" lon="0.65127">
        <ele>168.37</ele>
        <time>2018-03-16T13:28:09Z</time>
      </trkpt>
      <trkpt lat="44.98575" lon="0.65156">
        <ele>168.37</ele>
        <time>2018-03-16T13:28:26Z</time>
      </trkpt>
      <trkpt lat="44.98566" lon="0.65172">
        <ele>169.33</ele>
        <time>2018-03-16T13:28:42Z</time>
      </trkpt>
      <trkpt lat="44.98564" lon="0.65175">
        <ele>167.89</ele>
        <time>2018-03-16T13:28:45Z</time>
      </trkpt>
      <trkpt lat="44.98555" lon="0.65181">
        <ele>167.41</ele>
        <time>2018-03-16T13:29:01Z</time>
      </trkpt>
      <trkpt lat="44.98552" lon="0.65191">
        <ele>165.96</ele>
        <time>2018-03-16T13:29:18Z</time>
      </trkpt>
      <trkpt lat="44.98552" lon="0.65187">
        <ele>165.96</ele>
        <time>2018-03-16T13:29:43Z</time>
      </trkpt>
      <trkpt lat="44.98555" lon="0.65183">
        <ele>167.41</ele>
        <time>2018-03-16T13:30:04Z</time>
      </trkpt>
      <trkpt lat="44.98545" lon="0.65168">
        <ele>166.93</ele>
        <time>2018-03-16T13:30:19Z</time>
      </trkpt>
      <trkpt lat="44.9854" lon="0.65167">
        <ele>166.93</ele>
        <time>2018-03-16T13:30:22Z</time>
      </trkpt>
      <trkpt lat="44.98538" lon="0.65163">
        <ele>166.93</ele>
        <time>2018-03-16T13:30:37Z</time>
      </trkpt>
      <trkpt lat="44.98538" lon="0.65163">
        <ele>166.93</ele>
        <time>2018-03-16T13:31:00Z</time>
      </trkpt>
      <trkpt lat="44.98537" lon="0.65161">
        <ele>166.93</ele>
        <time>2018-03-16T13:31:33Z</time>
      </trkpt>
      <trkpt lat="44.98534" lon="0.65159">
        <ele>166.45</ele>
        <time>2018-03-16T13:32:00Z</time>
      </trkpt>
      <trkpt lat="44.98538" lon="0.65149">
        <ele>166.45</ele>
        <time>2018-03-16T13:32:17Z</time>
      </trkpt>
      <trkpt lat="44.98546" lon="0.65136">
        <ele>166.45</ele>
        <time>2018-03-16T13:32:31Z</time>
      </trkpt>
      <trkpt lat="44.98547" lon="0.65131">
        <ele>166.45</ele>
        <time>2018-03-16T13:32:34Z</time>
      </trkpt>
      <trkpt lat="44.98553" lon="0.65112">
        <ele>166.45</ele>
        <time>2018-03-16T13:32:48Z</time>
      </trkpt>
      <trkpt lat="44.98554" lon="0.65099">
        <ele>166.93</ele>
        <time>2018-03-16T13:33:07Z</time>
      </trkpt>
      <trkpt lat="44.98552" lon="0.65079">
        <ele>167.89</ele>
        <time>2018-03-16T13:33:22Z</time>
      </trkpt>
      <trkpt lat="44.98556" lon="0.65055">
        <ele>167.89</ele>
        <time>2018-03-16T13:33:37Z</time>
      </trkpt>
      <trkpt lat="44.98562" lon="0.65041">
        <ele>167.89</ele>
        <time>2018-03-16T13:33:51Z</time>
      </trkpt>
      <trkpt lat="44.98578" lon="0.65017">
        <ele>167.89</ele>
        <time>2018-03-16T13:34:09Z</time>
      </trkpt>
      <trkpt lat="44.98589" lon="0.64994">
        <ele>166.45</ele>
        <time>2018-03-16T13:34:25Z</time>
      </trkpt>
      <trkpt lat="44.98592" lon="0.64978">
        <ele>166.45</ele>
        <time>2018-03-16T13:34:36Z</time>
      </trkpt>
      <trkpt lat="44.98594" lon="0.64964">
        <ele>166.45</ele>
        <time>2018-03-16T13:34:44Z</time>
      </trkpt>
      <trkpt lat="44.98595" lon="0.64938">
        <ele>166.45</ele>
        <time>2018-03-16T13:34:59Z</time>
      </trkpt>
      <trkpt lat="44.9859" lon="0.64917">
        <ele>165.96</ele>
        <time>2018-03-16T13:35:16Z</time>
      </trkpt>
      <trkpt lat="44.98588" lon="0.64912">
        <ele>165.96</ele>
        <time>2018-03-16T13:35:23Z</time>
      </trkpt>
      <trkpt lat="44.98589" lon="0.64912">
        <ele>165.96</ele>
        <time>2018-03-16T13:35:39Z</time>
      </trkpt>
      <trkpt lat="44.98585" lon="0.64916">
        <ele>165.96</ele>
        <time>2018-03-16T13:35:53Z</time>
      </trkpt>
      <trkpt lat="44.9858" lon="0.64924">
        <ele>167.41</ele>
        <time>2018-03-16T13:35:59Z</time>
      </trkpt>
      <trkpt lat="44.98561" lon="0.64935">
        <ele>169.81</ele>
        <time>2018-03-16T13:36:16Z</time>
      </trkpt>
      <trkpt lat="44.98537" lon="0.64945">
        <ele>171.73</ele>
        <time>2018-03-16T13:36:34Z</time>
      </trkpt>
      <trkpt lat="44.98516" lon="0.64951">
        <ele>173.17</ele>
        <time>2018-03-16T13:36:50Z</time>
      </trkpt>
      <trkpt lat="44.98495" lon="0.64953">
        <ele>174.62</ele>
        <time>2018-03-16T13:37:07Z</time>
      </trkpt>
      <trkpt lat="44.98472" lon="0.64947">
        <ele>176.06</ele>
        <time>2018-03-16T13:37:23Z</time>
      </trkpt>
      <trkpt lat="44.98452" lon="0.6494">
        <ele>177.5</ele>
        <time>2018-03-16T13:37:39Z</time>
      </trkpt>
      <trkpt lat="44.98428" lon="0.64935">
        <ele>179.9</ele>
        <time>2018-03-16T13:37:59Z</time>
      </trkpt>
      <trkpt lat="44.98406" lon="0.64928">
        <ele>181.83</ele>
        <time>2018-03-16T13:38:16Z</time>
      </trkpt>
      <trkpt lat="44.98386" lon="0.64923">
        <ele>183.75</ele>
        <time>2018-03-16T13:38:33Z</time>
      </trkpt>
      <trkpt lat="44.98366" lon="0.64921">
        <ele>184.71</ele>
        <time>2018-03-16T13:38:51Z</time>
      </trkpt>
      <trkpt lat="44.9835" lon="0.64916">
        <ele>186.15</ele>
        <time>2018-03-16T13:39:05Z</time>
      </trkpt>
      <trkpt lat="44.98329" lon="0.6491">
        <ele>186.63</ele>
        <time>2018-03-16T13:39:19Z</time>
      </trkpt>
      <trkpt lat="44.98302" lon="0.64903">
        <ele>188.08</ele>
        <time>2018-03-16T13:39:39Z</time>
      </trkpt>
      <trkpt lat="44.98277" lon="0.64896">
        <ele>189.04</ele>
        <time>2018-03-16T13:39:59Z</time>
      </trkpt>
      <trkpt lat="44.98255" lon="0.64891">
        <ele>189.52</ele>
        <time>2018-03-16T13:40:17Z</time>
      </trkpt>
      <trkpt lat="44.9823" lon="0.64887">
        <ele>191.44</ele>
        <time>2018-03-16T13:40:34Z</time>
      </trkpt>
      <trkpt lat="44.98215" lon="0.64882">
        <ele>192.4</ele>
        <time>2018-03-16T13:40:45Z</time>
      </trkpt>
      <trkpt lat="44.98195" lon="0.64877">
        <ele>192.88</ele>
        <time>2018-03-16T13:41:02Z</time>
      </trkpt>
      <trkpt lat="44.98176" lon="0.64873">
        <ele>194.32</ele>
        <time>2018-03-16T13:41:17Z</time>
      </trkpt>
      <trkpt lat="44.98157" lon="0.64867">
        <ele>195.28</ele>
        <time>2018-03-16T13:41:32Z</time>
      </trkpt>
      <trkpt lat="44.98137" lon="0.64863">
        <ele>195.28</ele>
        <time>2018-03-16T13:41:48Z</time>
      </trkpt>
      <trkpt lat="44.98131" lon="0.64856">
        <ele>195.77</ele>
        <time>2018-03-16T13:41:55Z</time>
      </trkpt>
      <trkpt lat="44.98127" lon="0.64831">
        <ele>196.73</ele>
        <time>2018-03-16T13:42:10Z</time>
      </trkpt>
      <trkpt lat="44.98127" lon="0.64805">
        <ele>196.73</ele>
        <time>2018-03-16T13:42:28Z</time>
      </trkpt>
      <trkpt lat="44.98128" lon="0.64783">
        <ele>194.8</ele>
        <time>2018-03-16T13:42:46Z</time>
      </trkpt>
      <trkpt lat="44.98136" lon="0.64779">
        <ele>195.28</ele>
        <time>2018-03-16T13:43:08Z</time>
      </trkpt>
      <trkpt lat="44.98129" lon="0.64779">
        <ele>191.44</ele>
        <time>2018-03-16T13:43:36Z</time>
      </trkpt>
      <trkpt lat="44.98129" lon="0.64779">
        <ele>193.84</ele>
        <time>2018-03-16T13:43:37Z</time>
      </trkpt>
      <trkpt lat="44.9814" lon="0.64754">
        <ele>195.28</ele>
        <time>2018-03-16T13:44:45Z</time>
      </trkpt>
      <trkpt lat="44.98129" lon="0.64773">
        <ele>195.28</ele>
        <time>2018-03-16T13:45:16Z</time>
      </trkpt>
      <trkpt lat="44.9813" lon="0.64778">
        <ele>195.28</ele>
        <time>2018-03-16T13:45:45Z</time>
      </trkpt>
      <trkpt lat="44.98131" lon="0.64775">
        <ele>195.28</ele>
        <time>2018-03-16T13:46:12Z</time>
      </trkpt>
      <trkpt lat="44.98122" lon="0.64784">
        <ele>195.77</ele>
        <time>2018-03-16T13:46:32Z</time>
      </trkpt>
      <trkpt lat="44.98109" lon="0.64762">
        <ele>195.77</ele>
        <time>2018-03-16T13:46:48Z</time>
      </trkpt>
      <trkpt lat="44.98105" lon="0.64738">
        <ele>193.84</ele>
        <time>2018-03-16T13:47:07Z</time>
      </trkpt>
      <trkpt lat="44.98109" lon="0.64712">
        <ele>192.4</ele>
        <time>2018-03-16T13:47:27Z</time>
      </trkpt>
      <trkpt lat="44.98112" lon="0.64686">
        <ele>190</ele>
        <time>2018-03-16T13:47:47Z</time>
      </trkpt>
      <trkpt lat="44.98116" lon="0.64657">
        <ele>187.59</ele>
        <time>2018-03-16T13:48:07Z</time>
      </trkpt>
      <trkpt lat="44.98114" lon="0.64629">
        <ele>185.19</ele>
        <time>2018-03-16T13:48:28Z</time>
      </trkpt>
      <trkpt lat="44.98097" lon="0.64597">
        <ele>184.71</ele>
        <time>2018-03-16T13:48:49Z</time>
      </trkpt>
      <trkpt lat="44.98083" lon="0.64566">
        <ele>183.27</ele>
        <time>2018-03-16T13:49:09Z</time>
      </trkpt>
      <trkpt lat="44.98071" lon="0.64536">
        <ele>182.79</ele>
        <time>2018-03-16T13:49:29Z</time>
      </trkpt>
      <trkpt lat="44.98054" lon="0.645">
        <ele>181.83</ele>
        <time>2018-03-16T13:49:51Z</time>
      </trkpt>
      <trkpt lat="44.98044" lon="0.64469">
        <ele>181.83</ele>
        <time>2018-03-16T13:50:11Z</time>
      </trkpt>
      <trkpt lat="44.98042" lon="0.64452">
        <ele>181.83</ele>
        <time>2018-03-16T13:50:20Z</time>
      </trkpt>
      <trkpt lat="44.98042" lon="0.64417">
        <ele>183.75</ele>
        <time>2018-03-16T13:50:39Z</time>
      </trkpt>
      <trkpt lat="44.98043" lon="0.64408">
        <ele>183.75</ele>
        <time>2018-03-16T13:50:44Z</time>
      </trkpt>
      <trkpt lat="44.98044" lon="0.64378">
        <ele>184.23</ele>
        <time>2018-03-16T13:51:00Z</time>
      </trkpt>
      <trkpt lat="44.98042" lon="0.64344">
        <ele>184.23</ele>
        <time>2018-03-16T13:51:18Z</time>
      </trkpt>
      <trkpt lat="44.98046" lon="0.64315">
        <ele>182.31</ele>
        <time>2018-03-16T13:51:38Z</time>
      </trkpt>
      <trkpt lat="44.98049" lon="0.64307">
        <ele>182.31</ele>
        <time>2018-03-16T13:52:03Z</time>
      </trkpt>
      <trkpt lat="44.9805" lon="0.64287">
        <ele>181.83</ele>
        <time>2018-03-16T13:52:32Z</time>
      </trkpt>
      <trkpt lat="44.98045" lon="0.64258">
        <ele>180.87</ele>
        <time>2018-03-16T13:52:54Z</time>
      </trkpt>
      <trkpt lat="44.98037" lon="0.64236">
        <ele>180.38</ele>
        <time>2018-03-16T13:53:13Z</time>
      </trkpt>
      <trkpt lat="44.98035" lon="0.64229">
        <ele>181.35</ele>
        <time>2018-03-16T13:53:22Z</time>
      </trkpt>
      <trkpt lat="44.98032" lon="0.642">
        <ele>181.35</ele>
        <time>2018-03-16T13:53:40Z</time>
      </trkpt>
      <trkpt lat="44.98028" lon="0.64163">
        <ele>181.83</ele>
        <time>2018-03-16T13:54:01Z</time>
      </trkpt>
      <trkpt lat="44.98027" lon="0.64129">
        <ele>181.83</ele>
        <time>2018-03-16T13:54:22Z</time>
      </trkpt>
      <trkpt lat="44.98017" lon="0.64094">
        <ele>183.75</ele>
        <time>2018-03-16T13:54:44Z</time>
      </trkpt>
      <trkpt lat="44.9801" lon="0.64073">
        <ele>186.15</ele>
        <time>2018-03-16T13:55:03Z</time>
      </trkpt>
      <trkpt lat="44.98005" lon="0.64049">
        <ele>187.11</ele>
        <time>2018-03-16T13:55:22Z</time>
      </trkpt>
      <trkpt lat="44.98001" lon="0.6402">
        <ele>187.11</ele>
        <time>2018-03-16T13:55:40Z</time>
      </trkpt>
      <trkpt lat="44.97998" lon="0.64012">
        <ele>187.11</ele>
        <time>2018-03-16T13:55:59Z</time>
      </trkpt>
      <trkpt lat="44.97995" lon="0.64005">
        <ele>186.63</ele>
        <time>2018-03-16T13:56:28Z</time>
      </trkpt>
      <trkpt lat="44.97996" lon="0.64008">
        <ele>186.63</ele>
        <time>2018-03-16T13:56:50Z</time>
      </trkpt>
      <trkpt lat="44.97993" lon="0.63989">
        <ele>186.63</ele>
        <time>2018-03-16T13:57:15Z</time>
      </trkpt>
      <trkpt lat="44.97988" lon="0.6396">
        <ele>187.11</ele>
        <time>2018-03-16T13:57:32Z</time>
      </trkpt>
      <trkpt lat="44.97988" lon="0.63957">
        <ele>187.11</ele>
        <time>2018-03-16T13:57:34Z</time>
      </trkpt>
      <trkpt lat="44.97982" lon="0.63916">
        <ele>187.59</ele>
        <time>2018-03-16T13:57:57Z</time>
      </trkpt>
      <trkpt lat="44.97977" lon="0.63885">
        <ele>186.63</ele>
        <time>2018-03-16T13:58:15Z</time>
      </trkpt>
      <trkpt lat="44.97967" lon="0.63855">
        <ele>186.15</ele>
        <time>2018-03-16T13:58:32Z</time>
      </trkpt>
      <trkpt lat="44.9796" lon="0.63823">
        <ele>185.19</ele>
        <time>2018-03-16T13:58:50Z</time>
      </trkpt>
      <trkpt lat="44.97962" lon="0.63794">
        <ele>182.31</ele>
        <time>2018-03-16T13:59:06Z</time>
      </trkpt>
      <trkpt lat="44.97964" lon="0.63763">
        <ele>180.38</ele>
        <time>2018-03-16T13:59:23Z</time>
      </trkpt>
      <trkpt lat="44.97973" lon="0.63737">
        <ele>178.46</ele>
        <time>2018-03-16T13:59:41Z</time>
      </trkpt>
      <trkpt lat="44.97988" lon="0.63707">
        <ele>176.06</ele>
        <time>2018-03-16T13:59:55Z</time>
      </trkpt>
      <trkpt lat="44.98002" lon="0.63675">
        <ele>174.62</ele>
        <time>2018-03-16T14:00:13Z</time>
      </trkpt>
      <trkpt lat="44.98016" lon="0.63646">
        <ele>174.62</ele>
        <time>2018-03-16T14:00:28Z</time>
      </trkpt>
      <trkpt lat="44.98031" lon="0.63622">
        <ele>174.62</ele>
        <time>2018-03-16T14:00:47Z</time>
      </trkpt>
      <trkpt lat="44.98034" lon="0.6359">
        <ele>174.62</ele>
        <time>2018-03-16T14:01:02Z</time>
      </trkpt>
      <trkpt lat="44.98045" lon="0.63551">
        <ele>173.17</ele>
        <time>2018-03-16T14:01:20Z</time>
      </trkpt>
      <trkpt lat="44.98052" lon="0.63518">
        <ele>172.21</ele>
        <time>2018-03-16T14:01:38Z</time>
      </trkpt>
      <trkpt lat="44.98054" lon="0.63486">
        <ele>172.21</ele>
        <time>2018-03-16T14:01:54Z</time>
      </trkpt>
      <trkpt lat="44.98057" lon="0.63451">
        <ele>174.14</ele>
        <time>2018-03-16T14:02:12Z</time>
      </trkpt>
      <trkpt lat="44.98058" lon="0.63417">
        <ele>176.54</ele>
        <time>2018-03-16T14:02:29Z</time>
      </trkpt>
      <trkpt lat="44.98063" lon="0.63386">
        <ele>177.98</ele>
        <time>2018-03-16T14:02:46Z</time>
      </trkpt>
      <trkpt lat="44.9807" lon="0.63363">
        <ele>178.46</ele>
        <time>2018-03-16T14:03:04Z</time>
      </trkpt>
      <trkpt lat="44.98077" lon="0.6334">
        <ele>178.46</ele>
        <time>2018-03-16T14:03:19Z</time>
      </trkpt>
      <trkpt lat="44.9808" lon="0.63316">
        <ele>177.02</ele>
        <time>2018-03-16T14:03:31Z</time>
      </trkpt>
      <trkpt lat="44.98081" lon="0.63308">
        <ele>176.54</ele>
        <time>2018-03-16T14:03:35Z</time>
      </trkpt>
      <trkpt lat="44.98096" lon="0.63274">
        <ele>176.06</ele>
        <time>2018-03-16T14:03:54Z</time>
      </trkpt>
      <trkpt lat="44.98106" lon="0.63266">
        <ele>177.5</ele>
        <time>2018-03-16T14:04:05Z</time>
      </trkpt>
      <trkpt lat="44.9813" lon="0.6325">
        <ele>178.94</ele>
        <time>2018-03-16T14:04:27Z</time>
      </trkpt>
      <trkpt lat="44.98136" lon="0.63246">
        <ele>178.94</ele>
        <time>2018-03-16T14:04:32Z</time>
      </trkpt>
      <trkpt lat="44.98164" lon="0.63227">
        <ele>178.94</ele>
        <time>2018-03-16T14:04:51Z</time>
      </trkpt>
      <trkpt lat="44.98183" lon="0.63218">
        <ele>176.06</ele>
        <time>2018-03-16T14:05:04Z</time>
      </trkpt>
      <trkpt lat="44.98196" lon="0.63192">
        <ele>174.62</ele>
        <time>2018-03-16T14:05:22Z</time>
      </trkpt>
      <trkpt lat="44.98194" lon="0.63164">
        <ele>174.62</ele>
        <time>2018-03-16T14:05:37Z</time>
      </trkpt>
      <trkpt lat="44.98191" lon="0.6313">
        <ele>174.62</ele>
        <time>2018-03-16T14:05:54Z</time>
      </trkpt>
      <trkpt lat="44.98192" lon="0.63097">
        <ele>174.62</ele>
        <time>2018-03-16T14:06:12Z</time>
      </trkpt>
      <trkpt lat="44.98194" lon="0.63083">
        <ele>174.14</ele>
        <time>2018-03-16T14:06:20Z</time>
      </trkpt>
      <trkpt lat="44.9819" lon="0.6305">
        <ele>173.66</ele>
        <time>2018-03-16T14:06:37Z</time>
      </trkpt>
      <trkpt lat="44.98188" lon="0.63022">
        <ele>172.69</ele>
        <time>2018-03-16T14:06:52Z</time>
      </trkpt>
      <trkpt lat="44.98187" lon="0.63015">
        <ele>172.69</ele>
        <time>2018-03-16T14:06:56Z</time>
      </trkpt>
      <trkpt lat="44.98197" lon="0.62997">
        <ele>170.29</ele>
        <time>2018-03-16T14:07:15Z</time>
      </trkpt>
      <trkpt lat="44.98213" lon="0.62982">
        <ele>168.85</ele>
        <time>2018-03-16T14:07:34Z</time>
      </trkpt>
      <trkpt lat="44.98234" lon="0.62966">
        <ele>165.96</ele>
        <time>2018-03-16T14:07:55Z</time>
      </trkpt>
      <trkpt lat="44.98246" lon="0.62962">
        <ele>165.48</ele>
        <time>2018-03-16T14:08:10Z</time>
      </trkpt>
      <trkpt lat="44.98248" lon="0.62964">
        <ele>165.48</ele>
        <time>2018-03-16T14:08:42Z</time>
      </trkpt>
      <trkpt lat="44.98247" lon="0.62964">
        <ele>165.48</ele>
        <time>2018-03-16T14:09:23Z</time>
      </trkpt>
      <trkpt lat="44.98244" lon="0.62965">
        <ele>165.48</ele>
        <time>2018-03-16T14:09:53Z</time>
      </trkpt>
      <trkpt lat="44.98245" lon="0.62964">
        <ele>165.48</ele>
        <time>2018-03-16T14:10:27Z</time>
      </trkpt>
      <trkpt lat="44.98243" lon="0.6296">
        <ele>165.96</ele>
        <time>2018-03-16T14:11:02Z</time>
      </trkpt>
      <trkpt lat="44.98257" lon="0.6295">
        <ele>164.52</ele>
        <time>2018-03-16T14:11:18Z</time>
      </trkpt>
      <trkpt lat="44.98272" lon="0.62936">
        <ele>162.6</ele>
        <time>2018-03-16T14:11:35Z</time>
      </trkpt>
      <trkpt lat="44.98271" lon="0.62927">
        <ele>162.12</ele>
        <time>2018-03-16T14:11:50Z</time>
      </trkpt>
      <trkpt lat="44.98272" lon="0.62915">
        <ele>161.16</ele>
        <time>2018-03-16T14:12:05Z</time>
      </trkpt>
      <trkpt lat="44.98276" lon="0.62903">
        <ele>159.72</ele>
        <time>2018-03-16T14:12:11Z</time>
      </trkpt>
      <trkpt lat="44.98283" lon="0.62871">
        <ele>156.35</ele>
        <time>2018-03-16T14:12:30Z</time>
      </trkpt>
      <trkpt lat="44.9829" lon="0.62865">
        <ele>154.43</ele>
        <time>2018-03-16T14:12:45Z</time>
      </trkpt>
      <trkpt lat="44.98299" lon="0.62871">
        <ele>152.99</ele>
        <time>2018-03-16T14:13:03Z</time>
      </trkpt>
      <trkpt lat="44.98301" lon="0.6287">
        <ele>152.99</ele>
        <time>2018-03-16T14:13:35Z</time>
      </trkpt>
      <trkpt lat="44.98296" lon="0.62868">
        <ele>153.95</ele>
        <time>2018-03-16T14:13:57Z</time>
      </trkpt>
      <trkpt lat="44.98293" lon="0.62866">
        <ele>153.95</ele>
        <time>2018-03-16T14:14:00Z</time>
      </trkpt>
      <trkpt lat="44.98289" lon="0.62857">
        <ele>155.39</ele>
        <time>2018-03-16T14:14:06Z</time>
      </trkpt>
      <trkpt lat="44.98288" lon="0.62849">
        <ele>155.39</ele>
        <time>2018-03-16T14:14:10Z</time>
      </trkpt>
      <trkpt lat="44.98294" lon="0.62815">
        <ele>155.39</ele>
        <time>2018-03-16T14:14:27Z</time>
      </trkpt>
      <trkpt lat="44.98301" lon="0.62782">
        <ele>158.27</ele>
        <time>2018-03-16T14:14:46Z</time>
      </trkpt>
      <trkpt lat="44.98303" lon="0.62772">
        <ele>159.24</ele>
        <time>2018-03-16T14:14:52Z</time>
      </trkpt>
      <trkpt lat="44.9831" lon="0.62747">
        <ele>162.6</ele>
        <time>2018-03-16T14:15:08Z</time>
      </trkpt>
      <trkpt lat="44.98315" lon="0.62728">
        <ele>164.52</ele>
        <time>2018-03-16T14:15:21Z</time>
      </trkpt>
      <trkpt lat="44.98321" lon="0.627">
        <ele>166.45</ele>
        <time>2018-03-16T14:15:39Z</time>
      </trkpt>
      <trkpt lat="44.98312" lon="0.62683">
        <ele>167.41</ele>
        <time>2018-03-16T14:15:54Z</time>
      </trkpt>
      <trkpt lat="44.98308" lon="0.6268">
        <ele>167.89</ele>
        <time>2018-03-16T14:15:58Z</time>
      </trkpt>
      <trkpt lat="44.98289" lon="0.62666">
        <ele>168.37</ele>
        <time>2018-03-16T14:16:17Z</time>
      </trkpt>
      <trkpt lat="44.9827" lon="0.62654">
        <ele>168.85</ele>
        <time>2018-03-16T14:16:34Z</time>
      </trkpt>
      <trkpt lat="44.98248" lon="0.62642">
        <ele>169.33</ele>
        <time>2018-03-16T14:16:51Z</time>
      </trkpt>
      <trkpt lat="44.98229" lon="0.62632">
        <ele>170.29</ele>
        <time>2018-03-16T14:17:07Z</time>
      </trkpt>
      <trkpt lat="44.98207" lon="0.62612">
        <ele>170.29</ele>
        <time>2018-03-16T14:17:26Z</time>
      </trkpt>
      <trkpt lat="44.98196" lon="0.62585">
        <ele>171.73</ele>
        <time>2018-03-16T14:17:46Z</time>
      </trkpt>
      <trkpt lat="44.98186" lon="0.62562">
        <ele>171.25</ele>
        <time>2018-03-16T14:18:04Z</time>
      </trkpt>
      <trkpt lat="44.98174" lon="0.62543">
        <ele>172.21</ele>
        <time>2018-03-16T14:18:17Z</time>
      </trkpt>
      <trkpt lat="44.98149" lon="0.62536">
        <ele>172.69</ele>
        <time>2018-03-16T14:18:34Z</time>
      </trkpt>
      <trkpt lat="44.98142" lon="0.62539">
        <ele>173.17</ele>
        <time>2018-03-16T14:18:39Z</time>
      </trkpt>
      <trkpt lat="44.98136" lon="0.62541">
        <ele>173.17</ele>
        <time>2018-03-16T14:18:43Z</time>
      </trkpt>
      <trkpt lat="44.98115" lon="0.62556">
        <ele>173.66</ele>
        <time>2018-03-16T14:19:03Z</time>
      </trkpt>
      <trkpt lat="44.98112" lon="0.62559">
        <ele>172.21</ele>
        <time>2018-03-16T14:19:06Z</time>
      </trkpt>
      <trkpt lat="44.98092" lon="0.62578">
        <ele>170.29</ele>
        <time>2018-03-16T14:19:25Z</time>
      </trkpt>
      <trkpt lat="44.9809" lon="0.6258">
        <ele>170.29</ele>
        <time>2018-03-16T14:19:27Z</time>
      </trkpt>
      <trkpt lat="44.98084" lon="0.62579">
        <ele>170.29</ele>
        <time>2018-03-16T14:19:32Z</time>
      </trkpt>
      <trkpt lat="44.98074" lon="0.62559">
        <ele>171.73</ele>
        <time>2018-03-16T14:19:46Z</time>
      </trkpt>
      <trkpt lat="44.98065" lon="0.62534">
        <ele>173.17</ele>
        <time>2018-03-16T14:20:02Z</time>
      </trkpt>
      <trkpt lat="44.98051" lon="0.62507">
        <ele>175.58</ele>
        <time>2018-03-16T14:20:21Z</time>
      </trkpt>
      <trkpt lat="44.98035" lon="0.62486">
        <ele>176.54</ele>
        <time>2018-03-16T14:20:38Z</time>
      </trkpt>
      <trkpt lat="44.9802" lon="0.62461">
        <ele>178.46</ele>
        <time>2018-03-16T14:20:58Z</time>
      </trkpt>
      <trkpt lat="44.98013" lon="0.62439">
        <ele>179.42</ele>
        <time>2018-03-16T14:21:13Z</time>
      </trkpt>
      <trkpt lat="44.98008" lon="0.62413">
        <ele>180.87</ele>
        <time>2018-03-16T14:21:29Z</time>
      </trkpt>
      <trkpt lat="44.98001" lon="0.6238">
        <ele>180.87</ele>
        <time>2018-03-16T14:21:46Z</time>
      </trkpt>
      <trkpt lat="44.97994" lon="0.62352">
        <ele>180.87</ele>
        <time>2018-03-16T14:22:01Z</time>
      </trkpt>
      <trkpt lat="44.97986" lon="0.62317">
        <ele>178.94</ele>
        <time>2018-03-16T14:22:21Z</time>
      </trkpt>
      <trkpt lat="44.97983" lon="0.62291">
        <ele>177.5</ele>
        <time>2018-03-16T14:22:38Z</time>
      </trkpt>
      <trkpt lat="44.97987" lon="0.62272">
        <ele>177.5</ele>
        <time>2018-03-16T14:22:56Z</time>
      </trkpt>
      <trkpt lat="44.97992" lon="0.62265">
        <ele>177.02</ele>
        <time>2018-03-16T14:23:13Z</time>
      </trkpt>
      <trkpt lat="44.97999" lon="0.62252">
        <ele>175.1</ele>
        <time>2018-03-16T14:23:32Z</time>
      </trkpt>
      <trkpt lat="44.98001" lon="0.62249">
        <ele>175.1</ele>
        <time>2018-03-16T14:23:34Z</time>
      </trkpt>
      <trkpt lat="44.98027" lon="0.62237">
        <ele>171.73</ele>
        <time>2018-03-16T14:23:54Z</time>
      </trkpt>
      <trkpt lat="44.98062" lon="0.62234">
        <ele>169.33</ele>
        <time>2018-03-16T14:24:15Z</time>
      </trkpt>
      <trkpt lat="44.98094" lon="0.62229">
        <ele>166.45</ele>
        <time>2018-03-16T14:24:37Z</time>
      </trkpt>
      <trkpt lat="44.98123" lon="0.62225">
        <ele>165</ele>
        <time>2018-03-16T14:24:58Z</time>
      </trkpt>
      <trkpt lat="44.98152" lon="0.62223">
        <ele>163.08</ele>
        <time>2018-03-16T14:25:18Z</time>
      </trkpt>
      <trkpt lat="44.98179" lon="0.62215">
        <ele>161.16</ele>
        <time>2018-03-16T14:25:38Z</time>
      </trkpt>
      <trkpt lat="44.98203" lon="0.62207">
        <ele>158.75</ele>
        <time>2018-03-16T14:25:56Z</time>
      </trkpt>
      <trkpt lat="44.98229" lon="0.62206">
        <ele>157.31</ele>
        <time>2018-03-16T14:26:16Z</time>
      </trkpt>
      <trkpt lat="44.98255" lon="0.62213">
        <ele>155.39</ele>
        <time>2018-03-16T14:26:37Z</time>
      </trkpt>
      <trkpt lat="44.98265" lon="0.62215">
        <ele>154.43</ele>
        <time>2018-03-16T14:26:46Z</time>
      </trkpt>
      <trkpt lat="44.98286" lon="0.62226">
        <ele>153.47</ele>
        <time>2018-03-16T14:27:08Z</time>
      </trkpt>
      <trkpt lat="44.98293" lon="0.62232">
        <ele>152.99</ele>
        <time>2018-03-16T14:27:23Z</time>
      </trkpt>
      <trkpt lat="44.98305" lon="0.62237">
        <ele>152.03</ele>
        <time>2018-03-16T14:27:46Z</time>
      </trkpt>
      <trkpt lat="44.98329" lon="0.62247">
        <ele>150.58</ele>
        <time>2018-03-16T14:28:06Z</time>
      </trkpt>
      <trkpt lat="44.98348" lon="0.6226">
        <ele>149.14</ele>
        <time>2018-03-16T14:28:25Z</time>
      </trkpt>
      <trkpt lat="44.98367" lon="0.62271">
        <ele>146.74</ele>
        <time>2018-03-16T14:28:43Z</time>
      </trkpt>
      <trkpt lat="44.98389" lon="0.62285">
        <ele>144.82</ele>
        <time>2018-03-16T14:29:01Z</time>
      </trkpt>
      <trkpt lat="44.98415" lon="0.6229">
        <ele>143.37</ele>
        <time>2018-03-16T14:29:19Z</time>
      </trkpt>
      <trkpt lat="44.9844" lon="0.62292">
        <ele>141.93</ele>
        <time>2018-03-16T14:29:38Z</time>
      </trkpt>
      <trkpt lat="44.98475" lon="0.62302">
        <ele>140.49</ele>
        <time>2018-03-16T14:29:57Z</time>
      </trkpt>
      <trkpt lat="44.98496" lon="0.62309">
        <ele>138.57</ele>
        <time>2018-03-16T14:30:15Z</time>
      </trkpt>
      <trkpt lat="44.98521" lon="0.62315">
        <ele>136.64</ele>
        <time>2018-03-16T14:30:35Z</time>
      </trkpt>
      <trkpt lat="44.98551" lon="0.62316">
        <ele>134.24</ele>
        <time>2018-03-16T14:30:53Z</time>
      </trkpt>
      <trkpt lat="44.98564" lon="0.62311">
        <ele>133.28</ele>
        <time>2018-03-16T14:31:00Z</time>
      </trkpt>
      <trkpt lat="44.98579" lon="0.62295">
        <ele>131.36</ele>
        <time>2018-03-16T14:31:16Z</time>
      </trkpt>
      <trkpt lat="44.98586" lon="0.6227">
        <ele>130.88</ele>
        <time>2018-03-16T14:31:32Z</time>
      </trkpt>
      <trkpt lat="44.98588" lon="0.62259">
        <ele>130.88</ele>
        <time>2018-03-16T14:31:38Z</time>
      </trkpt>
      <trkpt lat="44.98596" lon="0.6223">
        <ele>130.88</ele>
        <time>2018-03-16T14:31:55Z</time>
      </trkpt>
      <trkpt lat="44.986" lon="0.62197">
        <ele>130.4</ele>
        <time>2018-03-16T14:32:11Z</time>
      </trkpt>
      <trkpt lat="44.98602" lon="0.62164">
        <ele>130.4</ele>
        <time>2018-03-16T14:32:28Z</time>
      </trkpt>
      <trkpt lat="44.98603" lon="0.62143">
        <ele>130.4</ele>
        <time>2018-03-16T14:32:42Z</time>
      </trkpt>
      <trkpt lat="44.98602" lon="0.6214">
        <ele>131.84</ele>
        <time>2018-03-16T14:32:49Z</time>
      </trkpt>
      <trkpt lat="44.98589" lon="0.62127">
        <ele>133.28</ele>
        <time>2018-03-16T14:33:09Z</time>
      </trkpt>
      <trkpt lat="44.98584" lon="0.62119">
        <ele>133.28</ele>
        <time>2018-03-16T14:33:37Z</time>
      </trkpt>
      <trkpt lat="44.98589" lon="0.6212">
        <ele>132.8</ele>
        <time>2018-03-16T14:34:03Z</time>
      </trkpt>
      <trkpt lat="44.98583" lon="0.62113">
        <ele>132.8</ele>
        <time>2018-03-16T14:34:33Z</time>
      </trkpt>
      <trkpt lat="44.98592" lon="0.62126">
        <ele>133.28</ele>
        <time>2018-03-16T14:34:58Z</time>
      </trkpt>
      <trkpt lat="44.98598" lon="0.62128">
        <ele>133.28</ele>
        <time>2018-03-16T14:35:21Z</time>
      </trkpt>
      <trkpt lat="44.98607" lon="0.62132">
        <ele>130.4</ele>
        <time>2018-03-16T14:35:40Z</time>
      </trkpt>
      <trkpt lat="44.98612" lon="0.62145">
        <ele>129.92</ele>
        <time>2018-03-16T14:35:54Z</time>
      </trkpt>
      <trkpt lat="44.98606" lon="0.62168">
        <ele>129.92</ele>
        <time>2018-03-16T14:36:12Z</time>
      </trkpt>
      <trkpt lat="44.98601" lon="0.62205">
        <ele>129.92</ele>
        <time>2018-03-16T14:36:30Z</time>
      </trkpt>
      <trkpt lat="44.98595" lon="0.6224">
        <ele>129.92</ele>
        <time>2018-03-16T14:36:48Z</time>
      </trkpt>
      <trkpt lat="44.98595" lon="0.62244">
        <ele>129.92</ele>
        <time>2018-03-16T14:36:50Z</time>
      </trkpt>
      <trkpt lat="44.98594" lon="0.62267">
        <ele>129.92</ele>
        <time>2018-03-16T14:37:03Z</time>
      </trkpt>
      <trkpt lat="44.98596" lon="0.62271">
        <ele>129.92</ele>
        <time>2018-03-16T14:37:06Z</time>
      </trkpt>
      <trkpt lat="44.98617" lon="0.62288">
        <ele>128.95</ele>
        <time>2018-03-16T14:37:25Z</time>
      </trkpt>
      <trkpt lat="44.9864" lon="0.623">
        <ele>127.99</ele>
        <time>2018-03-16T14:37:44Z</time>
      </trkpt>
      <trkpt lat="44.98651" lon="0.62306">
        <ele>127.99</ele>
        <time>2018-03-16T14:37:57Z</time>
      </trkpt>
      <trkpt lat="44.98674" lon="0.62319">
        <ele>127.99</ele>
        <time>2018-03-16T14:38:14Z</time>
      </trkpt>
      <trkpt lat="44.98694" lon="0.62332">
        <ele>129.43</ele>
        <time>2018-03-16T14:38:32Z</time>
      </trkpt>
      <trkpt lat="44.98712" lon="0.6235">
        <ele>129.92</ele>
        <time>2018-03-16T14:38:49Z</time>
      </trkpt>
      <trkpt lat="44.98722" lon="0.62359">
        <ele>130.4</ele>
        <time>2018-03-16T14:38:58Z</time>
      </trkpt>
      <trkpt lat="44.98728" lon="0.62359">
        <ele>130.4</ele>
        <time>2018-03-16T14:39:03Z</time>
      </trkpt>
      <trkpt lat="44.98733" lon="0.62349">
        <ele>129.92</ele>
        <time>2018-03-16T14:39:11Z</time>
      </trkpt>
      <trkpt lat="44.98736" lon="0.62314">
        <ele>129.92</ele>
        <time>2018-03-16T14:39:30Z</time>
      </trkpt>
      <trkpt lat="44.98739" lon="0.6227">
        <ele>129.92</ele>
        <time>2018-03-16T14:39:51Z</time>
      </trkpt>
      <trkpt lat="44.98743" lon="0.62254">
        <ele>129.92</ele>
        <time>2018-03-16T14:39:59Z</time>
      </trkpt>
      <trkpt lat="44.98743" lon="0.62227">
        <ele>129.92</ele>
        <time>2018-03-16T14:40:15Z</time>
      </trkpt>
      <trkpt lat="44.98742" lon="0.62208">
        <ele>128.95</ele>
        <time>2018-03-16T14:40:25Z</time>
      </trkpt>
      <trkpt lat="44.98746" lon="0.62178">
        <ele>128.95</ele>
        <time>2018-03-16T14:40:41Z</time>
      </trkpt>
      <trkpt lat="44.98747" lon="0.62166">
        <ele>128.95</ele>
        <time>2018-03-16T14:40:47Z</time>
      </trkpt>
      <trkpt lat="44.98754" lon="0.62134">
        <ele>128.95</ele>
        <time>2018-03-16T14:41:04Z</time>
      </trkpt>
      <trkpt lat="44.9876" lon="0.62109">
        <ele>128.47</ele>
        <time>2018-03-16T14:41:19Z</time>
      </trkpt>
      <trkpt lat="44.98765" lon="0.6208">
        <ele>128.47</ele>
        <time>2018-03-16T14:41:35Z</time>
      </trkpt>
      <trkpt lat="44.98773" lon="0.62054">
        <ele>127.51</ele>
        <time>2018-03-16T14:41:49Z</time>
      </trkpt>
      <trkpt lat="44.98775" lon="0.62018">
        <ele>127.51</ele>
        <time>2018-03-16T14:42:04Z</time>
      </trkpt>
      <trkpt lat="44.98776" lon="0.62002">
        <ele>127.51</ele>
        <time>2018-03-16T14:42:12Z</time>
      </trkpt>
      <trkpt lat="44.98782" lon="0.61984">
        <ele>127.03</ele>
        <time>2018-03-16T14:42:23Z</time>
      </trkpt>
      <trkpt lat="44.98787" lon="0.61946">
        <ele>126.55</ele>
        <time>2018-03-16T14:42:42Z</time>
      </trkpt>
      <trkpt lat="44.98787" lon="0.61938">
        <ele>126.55</ele>
        <time>2018-03-16T14:42:46Z</time>
      </trkpt>
      <trkpt lat="44.98787" lon="0.61902">
        <ele>126.07</ele>
        <time>2018-03-16T14:43:04Z</time>
      </trkpt>
      <trkpt lat="44.98785" lon="0.61865">
        <ele>125.59</ele>
        <time>2018-03-16T14:43:23Z</time>
      </trkpt>
      <trkpt lat="44.98787" lon="0.61843">
        <ele>125.59</ele>
        <time>2018-03-16T14:43:38Z</time>
      </trkpt>
      <trkpt lat="44.98787" lon="0.61842">
        <ele>126.55</ele>
        <time>2018-03-16T14:43:40Z</time>
      </trkpt>
      <trkpt lat="44.98802" lon="0.61836">
        <ele>127.51</ele>
        <time>2018-03-16T14:43:56Z</time>
      </trkpt>
      <trkpt lat="44.98803" lon="0.61837">
        <ele>127.51</ele>
        <time>2018-03-16T14:43:57Z</time>
      </trkpt>
      <trkpt lat="44.98814" lon="0.61837">
        <ele>128.95</ele>
        <time>2018-03-16T14:44:03Z</time>
      </trkpt>
      <trkpt lat="44.98826" lon="0.61836">
        <ele>132.32</ele>
        <time>2018-03-16T14:44:17Z</time>
      </trkpt>
      <trkpt lat="44.9883" lon="0.61834">
        <ele>135.68</ele>
        <time>2018-03-16T14:44:32Z</time>
      </trkpt>
      <trkpt lat="44.98835" lon="0.61829">
        <ele>137.61</ele>
        <time>2018-03-16T14:44:47Z</time>
      </trkpt>
      <trkpt lat="44.98844" lon="0.61829">
        <ele>140.01</ele>
        <time>2018-03-16T14:45:07Z</time>
      </trkpt>
      <trkpt lat="44.98853" lon="0.61827">
        <ele>143.37</ele>
        <time>2018-03-16T14:45:27Z</time>
      </trkpt>
      <trkpt lat="44.98859" lon="0.61812">
        <ele>144.82</ele>
        <time>2018-03-16T14:45:49Z</time>
      </trkpt>
      <trkpt lat="44.98866" lon="0.61795">
        <ele>145.3</ele>
        <time>2018-03-16T14:46:17Z</time>
      </trkpt>
      <trkpt lat="44.98868" lon="0.61802">
        <ele>145.3</ele>
        <time>2018-03-16T14:46:52Z</time>
      </trkpt>
      <trkpt lat="44.98866" lon="0.61817">
        <ele>145.3</ele>
        <time>2018-03-16T14:47:27Z</time>
      </trkpt>
      <trkpt lat="44.98865" lon="0.61808">
        <ele>143.85</ele>
        <time>2018-03-16T14:47:36Z</time>
      </trkpt>
      <trkpt lat="44.98855" lon="0.61787">
        <ele>141.93</ele>
        <time>2018-03-16T14:47:57Z</time>
      </trkpt>
      <trkpt lat="44.98852" lon="0.61788">
        <ele>141.93</ele>
        <time>2018-03-16T14:48:24Z</time>
      </trkpt>
      <trkpt lat="44.98845" lon="0.61782">
        <ele>141.45</ele>
        <time>2018-03-16T14:48:54Z</time>
      </trkpt>
      <trkpt lat="44.98835" lon="0.61757">
        <ele>140.01</ele>
        <time>2018-03-16T14:49:10Z</time>
      </trkpt>
      <trkpt lat="44.98825" lon="0.61737">
        <ele>137.13</ele>
        <time>2018-03-16T14:49:26Z</time>
      </trkpt>
      <trkpt lat="44.98815" lon="0.61718">
        <ele>134.24</ele>
        <time>2018-03-16T14:49:44Z</time>
      </trkpt>
      <trkpt lat="44.98803" lon="0.61692">
        <ele>130.88</ele>
        <time>2018-03-16T14:50:00Z</time>
      </trkpt>
      <trkpt lat="44.98793" lon="0.61675">
        <ele>127.51</ele>
        <time>2018-03-16T14:50:20Z</time>
      </trkpt>
      <trkpt lat="44.98787" lon="0.61656">
        <ele>127.03</ele>
        <time>2018-03-16T14:50:34Z</time>
      </trkpt>
      <trkpt lat="44.98784" lon="0.61629">
        <ele>126.55</ele>
        <time>2018-03-16T14:50:51Z</time>
      </trkpt>
      <trkpt lat="44.98784" lon="0.61612">
        <ele>126.55</ele>
        <time>2018-03-16T14:51:02Z</time>
      </trkpt>
      <trkpt lat="44.98789" lon="0.61576">
        <ele>127.03</ele>
        <time>2018-03-16T14:51:19Z</time>
      </trkpt>
      <trkpt lat="44.98788" lon="0.61563">
        <ele>127.03</ele>
        <time>2018-03-16T14:51:37Z</time>
      </trkpt>
      <trkpt lat="44.98784" lon="0.61558">
        <ele>126.55</ele>
        <time>2018-03-16T14:51:57Z</time>
      </trkpt>
      <trkpt lat="44.98785" lon="0.6154">
        <ele>126.07</ele>
        <time>2018-03-16T14:52:11Z</time>
      </trkpt>
      <trkpt lat="44.98782" lon="0.6153">
        <ele>127.51</ele>
        <time>2018-03-16T14:52:20Z</time>
      </trkpt>
      <trkpt lat="44.98778" lon="0.61525">
        <ele>127.51</ele>
        <time>2018-03-16T14:52:26Z</time>
      </trkpt>
      <trkpt lat="44.98762" lon="0.61505">
        <ele>125.59</ele>
        <time>2018-03-16T14:52:43Z</time>
      </trkpt>
      <trkpt lat="44.9876" lon="0.615">
        <ele>125.59</ele>
        <time>2018-03-16T14:52:46Z</time>
      </trkpt>
      <trkpt lat="44.98749" lon="0.61471">
        <ele>125.11</ele>
        <time>2018-03-16T14:53:05Z</time>
      </trkpt>
      <trkpt lat="44.98738" lon="0.6144">
        <ele>124.63</ele>
        <time>2018-03-16T14:53:22Z</time>
      </trkpt>
      <trkpt lat="44.98732" lon="0.61405">
        <ele>124.15</ele>
        <time>2018-03-16T14:53:41Z</time>
      </trkpt>
      <trkpt lat="44.98727" lon="0.61372">
        <ele>123.67</ele>
        <time>2018-03-16T14:53:59Z</time>
      </trkpt>
      <trkpt lat="44.98726" lon="0.61344">
        <ele>123.19</ele>
        <time>2018-03-16T14:54:14Z</time>
      </trkpt>
      <trkpt lat="44.98728" lon="0.61317">
        <ele>122.71</ele>
        <time>2018-03-16T14:54:31Z</time>
      </trkpt>
      <trkpt lat="44.98732" lon="0.61287">
        <ele>122.71</ele>
        <time>2018-03-16T14:54:49Z</time>
      </trkpt>
      <trkpt lat="44.98734" lon="0.61249">
        <ele>122.71</ele>
        <time>2018-03-16T14:55:08Z</time>
      </trkpt>
      <trkpt lat="44.98736" lon="0.61208">
        <ele>122.71</ele>
        <time>2018-03-16T14:55:27Z</time>
      </trkpt>
      <trkpt lat="44.98739" lon="0.61183">
        <ele>122.71</ele>
        <time>2018-03-16T14:55:42Z</time>
      </trkpt>
      <trkpt lat="44.98744" lon="0.61151">
        <ele>122.71</ele>
        <time>2018-03-16T14:56:01Z</time>
      </trkpt>
      <trkpt lat="44.98743" lon="0.61137">
        <ele>122.71</ele>
        <time>2018-03-16T14:56:08Z</time>
      </trkpt>
      <trkpt lat="44.98744" lon="0.61094">
        <ele>122.71</ele>
        <time>2018-03-16T14:56:28Z</time>
      </trkpt>
      <trkpt lat="44.9875" lon="0.61055">
        <ele>122.71</ele>
        <time>2018-03-16T14:56:48Z</time>
      </trkpt>
      <trkpt lat="44.98759" lon="0.61026">
        <ele>122.22</ele>
        <time>2018-03-16T14:57:04Z</time>
      </trkpt>
      <trkpt lat="44.98775" lon="0.61003">
        <ele>121.74</ele>
        <time>2018-03-16T14:57:21Z</time>
      </trkpt>
      <trkpt lat="44.98771" lon="0.60974">
        <ele>121.26</ele>
        <time>2018-03-16T14:57:37Z</time>
      </trkpt>
      <trkpt lat="44.98766" lon="0.60952">
        <ele>121.26</ele>
        <time>2018-03-16T14:57:51Z</time>
      </trkpt>
      <trkpt lat="44.9876" lon="0.60928">
        <ele>121.26</ele>
        <time>2018-03-16T14:58:07Z</time>
      </trkpt>
      <trkpt lat="44.98754" lon="0.60894">
        <ele>121.26</ele>
        <time>2018-03-16T14:58:23Z</time>
      </trkpt>
      <trkpt lat="44.98751" lon="0.60863">
        <ele>121.26</ele>
        <time>2018-03-16T14:58:40Z</time>
      </trkpt>
      <trkpt lat="44.98748" lon="0.6083">
        <ele>121.26</ele>
        <time>2018-03-16T14:58:58Z</time>
      </trkpt>
      <trkpt lat="44.98747" lon="0.60798">
        <ele>121.26</ele>
        <time>2018-03-16T14:59:13Z</time>
      </trkpt>
      <trkpt lat="44.98747" lon="0.60761">
        <ele>121.26</ele>
        <time>2018-03-16T14:59:32Z</time>
      </trkpt>
      <trkpt lat="44.98748" lon="0.60727">
        <ele>121.26</ele>
        <time>2018-03-16T14:59:51Z</time>
      </trkpt>
      <trkpt lat="44.9875" lon="0.60696">
        <ele>121.74</ele>
        <time>2018-03-16T15:00:09Z</time>
      </trkpt>
      <trkpt lat="44.98752" lon="0.60663">
        <ele>121.74</ele>
        <time>2018-03-16T15:00:27Z</time>
      </trkpt>
      <trkpt lat="44.98756" lon="0.60628">
        <ele>121.26</ele>
        <time>2018-03-16T15:00:45Z</time>
      </trkpt>
      <trkpt lat="44.98762" lon="0.60596">
        <ele>121.26</ele>
        <time>2018-03-16T15:01:02Z</time>
      </trkpt>
      <trkpt lat="44.98772" lon="0.6057">
        <ele>120.78</ele>
        <time>2018-03-16T15:01:18Z</time>
      </trkpt>
      <trkpt lat="44.98783" lon="0.60541">
        <ele>120.3</ele>
        <time>2018-03-16T15:01:36Z</time>
      </trkpt>
      <trkpt lat="44.98796" lon="0.60514">
        <ele>120.3</ele>
        <time>2018-03-16T15:01:52Z</time>
      </trkpt>
      <trkpt lat="44.9881" lon="0.6049">
        <ele>120.3</ele>
        <time>2018-03-16T15:02:11Z</time>
      </trkpt>
      <trkpt lat="44.98826" lon="0.60465">
        <ele>120.3</ele>
        <time>2018-03-16T15:02:28Z</time>
      </trkpt>
      <trkpt lat="44.98842" lon="0.60441">
        <ele>120.3</ele>
        <time>2018-03-16T15:02:47Z</time>
      </trkpt>
      <trkpt lat="44.98858" lon="0.60422">
        <ele>120.3</ele>
        <time>2018-03-16T15:03:04Z</time>
      </trkpt>
      <trkpt lat="44.98875" lon="0.60405">
        <ele>118.86</ele>
        <time>2018-03-16T15:03:19Z</time>
      </trkpt>
      <trkpt lat="44.98879" lon="0.60402">
        <ele>118.86</ele>
        <time>2018-03-16T15:03:41Z</time>
      </trkpt>
      <trkpt lat="44.98885" lon="0.60404">
        <ele>120.3</ele>
        <time>2018-03-16T15:03:47Z</time>
      </trkpt>
      <trkpt lat="44.98906" lon="0.60412">
        <ele>122.22</ele>
        <time>2018-03-16T15:04:06Z</time>
      </trkpt>
      <trkpt lat="44.98926" lon="0.60427">
        <ele>125.59</ele>
        <time>2018-03-16T15:04:26Z</time>
      </trkpt>
      <trkpt lat="44.98944" lon="0.60437">
        <ele>127.51</ele>
        <time>2018-03-16T15:04:43Z</time>
      </trkpt>
      <trkpt lat="44.98964" lon="0.6045">
        <ele>129.43</ele>
        <time>2018-03-16T15:05:01Z</time>
      </trkpt>
      <trkpt lat="44.98967" lon="0.60451">
        <ele>129.43</ele>
        <time>2018-03-16T15:05:03Z</time>
      </trkpt>
      <trkpt lat="44.98983" lon="0.6046">
        <ele>130.88</ele>
        <time>2018-03-16T15:05:18Z</time>
      </trkpt>
      <trkpt lat="44.98987" lon="0.60462">
        <ele>130.88</ele>
        <time>2018-03-16T15:05:21Z</time>
      </trkpt>
      <trkpt lat="44.99007" lon="0.60469">
        <ele>131.36</ele>
        <time>2018-03-16T15:05:38Z</time>
      </trkpt>
      <trkpt lat="44.99027" lon="0.60476">
        <ele>131.36</ele>
        <time>2018-03-16T15:05:55Z</time>
      </trkpt>
      <trkpt lat="44.99038" lon="0.6048">
        <ele>129.92</ele>
        <time>2018-03-16T15:06:03Z</time>
      </trkpt>
      <trkpt lat="44.99063" lon="0.60489">
        <ele>129.92</ele>
        <time>2018-03-16T15:06:20Z</time>
      </trkpt>
      <trkpt lat="44.99082" lon="0.60495">
        <ele>129.92</ele>
        <time>2018-03-16T15:06:36Z</time>
      </trkpt>
      <trkpt lat="44.99102" lon="0.60507">
        <ele>129.92</ele>
        <time>2018-03-16T15:06:52Z</time>
      </trkpt>
      <trkpt lat="44.99114" lon="0.60513">
        <ele>129.92</ele>
        <time>2018-03-16T15:07:01Z</time>
      </trkpt>
      <trkpt lat="44.99115" lon="0.60515">
        <ele>129.92</ele>
        <time>2018-03-16T15:07:03Z</time>
      </trkpt>
      <trkpt lat="44.99128" lon="0.60527">
        <ele>131.84</ele>
        <time>2018-03-16T15:07:22Z</time>
      </trkpt>
      <trkpt lat="44.99159" lon="0.60539">
        <ele>132.32</ele>
        <time>2018-03-16T15:07:39Z</time>
      </trkpt>
      <trkpt lat="44.99182" lon="0.6055">
        <ele>132.8</ele>
        <time>2018-03-16T15:07:56Z</time>
      </trkpt>
      <trkpt lat="44.99197" lon="0.60559">
        <ele>132.8</ele>
        <time>2018-03-16T15:08:09Z</time>
      </trkpt>
      <trkpt lat="44.99206" lon="0.60565">
        <ele>131.36</ele>
        <time>2018-03-16T15:08:18Z</time>
      </trkpt>
      <trkpt lat="44.99225" lon="0.60576">
        <ele>130.88</ele>
        <time>2018-03-16T15:08:34Z</time>
      </trkpt>
      <trkpt lat="44.99243" lon="0.60588">
        <ele>130.88</ele>
        <time>2018-03-16T15:08:53Z</time>
      </trkpt>
      <trkpt lat="44.99273" lon="0.60597">
        <ele>132.8</ele>
        <time>2018-03-16T15:09:12Z</time>
      </trkpt>
      <trkpt lat="44.993" lon="0.60601">
        <ele>133.76</ele>
        <time>2018-03-16T15:09:31Z</time>
      </trkpt>
      <trkpt lat="44.99318" lon="0.60605">
        <ele>134.72</ele>
        <time>2018-03-16T15:09:46Z</time>
      </trkpt>
      <trkpt lat="44.9934" lon="0.60615">
        <ele>135.68</ele>
        <time>2018-03-16T15:10:04Z</time>
      </trkpt>
      <trkpt lat="44.99359" lon="0.60626">
        <ele>138.09</ele>
        <time>2018-03-16T15:10:22Z</time>
      </trkpt>
      <trkpt lat="44.99376" lon="0.60634">
        <ele>141.45</ele>
        <time>2018-03-16T15:10:38Z</time>
      </trkpt>
      <trkpt lat="44.99395" lon="0.60645">
        <ele>144.34</ele>
        <time>2018-03-16T15:10:56Z</time>
      </trkpt>
      <trkpt lat="44.9941" lon="0.60657">
        <ele>146.74</ele>
        <time>2018-03-16T15:11:14Z</time>
      </trkpt>
      <trkpt lat="44.99424" lon="0.60671">
        <ele>149.14</ele>
        <time>2018-03-16T15:11:31Z</time>
      </trkpt>
      <trkpt lat="44.99439" lon="0.60694">
        <ele>151.54</ele>
        <time>2018-03-16T15:11:49Z</time>
      </trkpt>
      <trkpt lat="44.99447" lon="0.60717">
        <ele>152.51</ele>
        <time>2018-03-16T15:12:04Z</time>
      </trkpt>
      <trkpt lat="44.99449" lon="0.60726">
        <ele>152.99</ele>
        <time>2018-03-16T15:12:09Z</time>
      </trkpt>
      <trkpt lat="44.99452" lon="0.6074">
        <ele>153.47</ele>
        <time>2018-03-16T15:12:17Z</time>
      </trkpt>
      <trkpt lat="44.99453" lon="0.60748">
        <ele>153.47</ele>
        <time>2018-03-16T15:12:21Z</time>
      </trkpt>
      <trkpt lat="44.99461" lon="0.6077">
        <ele>153.95</ele>
        <time>2018-03-16T15:12:35Z</time>
      </trkpt>
      <trkpt lat="44.99475" lon="0.60788">
        <ele>154.91</ele>
        <time>2018-03-16T15:12:50Z</time>
      </trkpt>
      <trkpt lat="44.99495" lon="0.60805">
        <ele>156.35</ele>
        <time>2018-03-16T15:13:06Z</time>
      </trkpt>
      <trkpt lat="44.99511" lon="0.60809">
        <ele>158.27</ele>
        <time>2018-03-16T15:13:22Z</time>
      </trkpt>
      <trkpt lat="44.99515" lon="0.60809">
        <ele>158.75</ele>
        <time>2018-03-16T15:13:25Z</time>
      </trkpt>
      <trkpt lat="44.99531" lon="0.6081">
        <ele>159.72</ele>
        <time>2018-03-16T15:13:33Z</time>
      </trkpt>
      <trkpt lat="44.99546" lon="0.60813">
        <ele>161.64</ele>
        <time>2018-03-16T15:13:48Z</time>
      </trkpt>
      <trkpt lat="44.99551" lon="0.60815">
        <ele>162.6</ele>
        <time>2018-03-16T15:13:54Z</time>
      </trkpt>
      <trkpt lat="44.99566" lon="0.60822">
        <ele>164.52</ele>
        <time>2018-03-16T15:14:09Z</time>
      </trkpt>
      <trkpt lat="44.99576" lon="0.60827">
        <ele>165.48</ele>
        <time>2018-03-16T15:14:19Z</time>
      </trkpt>
      <trkpt lat="44.99593" lon="0.60837">
        <ele>167.89</ele>
        <time>2018-03-16T15:14:35Z</time>
      </trkpt>
      <trkpt lat="44.996" lon="0.6084">
        <ele>168.37</ele>
        <time>2018-03-16T15:14:42Z</time>
      </trkpt>
      <trkpt lat="44.99614" lon="0.60846">
        <ele>168.85</ele>
        <time>2018-03-16T15:14:55Z</time>
      </trkpt>
      <trkpt lat="44.99634" lon="0.60853">
        <ele>169.33</ele>
        <time>2018-03-16T15:15:11Z</time>
      </trkpt>
      <trkpt lat="44.99658" lon="0.60867">
        <ele>167.41</ele>
        <time>2018-03-16T15:15:29Z</time>
      </trkpt>
      <trkpt lat="44.99673" lon="0.60894">
        <ele>166.45</ele>
        <time>2018-03-16T15:15:45Z</time>
      </trkpt>
      <trkpt lat="44.99674" lon="0.60895">
        <ele>166.45</ele>
        <time>2018-03-16T15:15:46Z</time>
      </trkpt>
      <trkpt lat="44.99691" lon="0.60924">
        <ele>165.96</ele>
        <time>2018-03-16T15:16:06Z</time>
      </trkpt>
      <trkpt lat="44.99696" lon="0.60933">
        <ele>167.41</ele>
        <time>2018-03-16T15:16:13Z</time>
      </trkpt>
      <trkpt lat="44.99699" lon="0.60938">
        <ele>167.89</ele>
        <time>2018-03-16T15:16:16Z</time>
      </trkpt>
      <trkpt lat="44.99701" lon="0.60943">
        <ele>167.89</ele>
        <time>2018-03-16T15:16:19Z</time>
      </trkpt>
      <trkpt lat="44.99707" lon="0.60973">
        <ele>169.33</ele>
        <time>2018-03-16T15:16:36Z</time>
      </trkpt>
      <trkpt lat="44.99711" lon="0.60999">
        <ele>170.29</ele>
        <time>2018-03-16T15:16:50Z</time>
      </trkpt>
      <trkpt lat="44.99713" lon="0.6101">
        <ele>170.77</ele>
        <time>2018-03-16T15:16:56Z</time>
      </trkpt>
      <trkpt lat="44.99718" lon="0.61041">
        <ele>171.25</ele>
        <time>2018-03-16T15:17:13Z</time>
      </trkpt>
      <trkpt lat="44.99729" lon="0.61062">
        <ele>171.25</ele>
        <time>2018-03-16T15:17:28Z</time>
      </trkpt>
      <trkpt lat="44.99742" lon="0.61083">
        <ele>170.29</ele>
        <time>2018-03-16T15:17:43Z</time>
      </trkpt>
      <trkpt lat="44.99756" lon="0.61102">
        <ele>169.81</ele>
        <time>2018-03-16T15:17:59Z</time>
      </trkpt>
      <trkpt lat="44.99768" lon="0.61121">
        <ele>169.33</ele>
        <time>2018-03-16T15:18:13Z</time>
      </trkpt>
      <trkpt lat="44.9978" lon="0.61139">
        <ele>169.33</ele>
        <time>2018-03-16T15:18:24Z</time>
      </trkpt>
      <trkpt lat="44.99799" lon="0.61177">
        <ele>170.77</ele>
        <time>2018-03-16T15:18:44Z</time>
      </trkpt>
      <trkpt lat="44.99798" lon="0.61206">
        <ele>172.21</ele>
        <time>2018-03-16T15:19:00Z</time>
      </trkpt>
      <trkpt lat="44.99797" lon="0.61217">
        <ele>172.69</ele>
        <time>2018-03-16T15:19:05Z</time>
      </trkpt>
      <trkpt lat="44.99795" lon="0.61252">
        <ele>173.66</ele>
        <time>2018-03-16T15:19:24Z</time>
      </trkpt>
      <trkpt lat="44.99792" lon="0.61279">
        <ele>174.62</ele>
        <time>2018-03-16T15:19:39Z</time>
      </trkpt>
      <trkpt lat="44.99791" lon="0.61281">
        <ele>174.62</ele>
        <time>2018-03-16T15:19:40Z</time>
      </trkpt>
      <trkpt lat="44.9978" lon="0.61313">
        <ele>176.06</ele>
        <time>2018-03-16T15:19:56Z</time>
      </trkpt>
      <trkpt lat="44.99772" lon="0.61342">
        <ele>177.98</ele>
        <time>2018-03-16T15:20:12Z</time>
      </trkpt>
      <trkpt lat="44.99763" lon="0.61371">
        <ele>178.46</ele>
        <time>2018-03-16T15:20:28Z</time>
      </trkpt>
      <trkpt lat="44.99753" lon="0.614">
        <ele>180.38</ele>
        <time>2018-03-16T15:20:44Z</time>
      </trkpt>
      <trkpt lat="44.99745" lon="0.61427">
        <ele>180.87</ele>
        <time>2018-03-16T15:20:59Z</time>
      </trkpt>
      <trkpt lat="44.99737" lon="0.61454">
        <ele>180.87</ele>
        <time>2018-03-16T15:21:16Z</time>
      </trkpt>
      <trkpt lat="44.9973" lon="0.61488">
        <ele>179.9</ele>
        <time>2018-03-16T15:21:36Z</time>
      </trkpt>
      <trkpt lat="44.99725" lon="0.61519">
        <ele>179.9</ele>
        <time>2018-03-16T15:21:53Z</time>
      </trkpt>
      <trkpt lat="44.99716" lon="0.61553">
        <ele>179.9</ele>
        <time>2018-03-16T15:22:11Z</time>
      </trkpt>
      <trkpt lat="44.99711" lon="0.61584">
        <ele>181.35</ele>
        <time>2018-03-16T15:22:28Z</time>
      </trkpt>
      <trkpt lat="44.99713" lon="0.61607">
        <ele>182.31</ele>
        <time>2018-03-16T15:22:41Z</time>
      </trkpt>
      <trkpt lat="44.99715" lon="0.61641">
        <ele>182.79</ele>
        <time>2018-03-16T15:22:57Z</time>
      </trkpt>
      <trkpt lat="44.99714" lon="0.61671">
        <ele>184.23</ele>
        <time>2018-03-16T15:23:14Z</time>
      </trkpt>
      <trkpt lat="44.99707" lon="0.61703">
        <ele>185.67</ele>
        <time>2018-03-16T15:23:31Z</time>
      </trkpt>
      <trkpt lat="44.99699" lon="0.61733">
        <ele>187.11</ele>
        <time>2018-03-16T15:23:48Z</time>
      </trkpt>
      <trkpt lat="44.99691" lon="0.61766">
        <ele>188.56</ele>
        <time>2018-03-16T15:24:06Z</time>
      </trkpt>
      <trkpt lat="44.99687" lon="0.61802">
        <ele>189.04</ele>
        <time>2018-03-16T15:24:24Z</time>
      </trkpt>
      <trkpt lat="44.99683" lon="0.61827">
        <ele>190</ele>
        <time>2018-03-16T15:24:38Z</time>
      </trkpt>
      <trkpt lat="44.99681" lon="0.61856">
        <ele>190.96</ele>
        <time>2018-03-16T15:24:52Z</time>
      </trkpt>
      <trkpt lat="44.99676" lon="0.61884">
        <ele>191.92</ele>
        <time>2018-03-16T15:25:07Z</time>
      </trkpt>
      <trkpt lat="44.99669" lon="0.6192">
        <ele>191.92</ele>
        <time>2018-03-16T15:25:25Z</time>
      </trkpt>
      <trkpt lat="44.99668" lon="0.61926">
        <ele>190.48</ele>
        <time>2018-03-16T15:25:28Z</time>
      </trkpt>
      <trkpt lat="44.99664" lon="0.61962">
        <ele>190.48</ele>
        <time>2018-03-16T15:25:45Z</time>
      </trkpt>
      <trkpt lat="44.99663" lon="0.61994">
        <ele>189.04</ele>
        <time>2018-03-16T15:26:00Z</time>
      </trkpt>
      <trkpt lat="44.99665" lon="0.62017">
        <ele>188.08</ele>
        <time>2018-03-16T15:26:12Z</time>
      </trkpt>
      <trkpt lat="44.99666" lon="0.6203">
        <ele>187.59</ele>
        <time>2018-03-16T15:26:18Z</time>
      </trkpt>
      <trkpt lat="44.99668" lon="0.62065">
        <ele>184.23</ele>
        <time>2018-03-16T15:26:35Z</time>
      </trkpt>
      <trkpt lat="44.9967" lon="0.62108">
        <ele>181.83</ele>
        <time>2018-03-16T15:26:54Z</time>
      </trkpt>
      <trkpt lat="44.99663" lon="0.62139">
        <ele>181.83</ele>
        <time>2018-03-16T15:27:11Z</time>
      </trkpt>
      <trkpt lat="44.99645" lon="0.62174">
        <ele>181.83</ele>
        <time>2018-03-16T15:27:30Z</time>
      </trkpt>
      <trkpt lat="44.9963" lon="0.62205">
        <ele>180.38</ele>
        <time>2018-03-16T15:27:48Z</time>
      </trkpt>
      <trkpt lat="44.99626" lon="0.6222">
        <ele>178.94</ele>
        <time>2018-03-16T15:27:56Z</time>
      </trkpt>
      <trkpt lat="44.99621" lon="0.62256">
        <ele>175.58</ele>
        <time>2018-03-16T15:28:14Z</time>
      </trkpt>
      <trkpt lat="44.99617" lon="0.62294">
        <ele>173.66</ele>
        <time>2018-03-16T15:28:32Z</time>
      </trkpt>
      <trkpt lat="44.99611" lon="0.62324">
        <ele>173.17</ele>
        <time>2018-03-16T15:28:47Z</time>
      </trkpt>
      <trkpt lat="44.99598" lon="0.62358">
        <ele>172.21</ele>
        <time>2018-03-16T15:29:05Z</time>
      </trkpt>
      <trkpt lat="44.99583" lon="0.62385">
        <ele>172.21</ele>
        <time>2018-03-16T15:29:23Z</time>
      </trkpt>
      <trkpt lat="44.99565" lon="0.62413">
        <ele>171.73</ele>
        <time>2018-03-16T15:29:41Z</time>
      </trkpt>
      <trkpt lat="44.99544" lon="0.62442">
        <ele>172.21</ele>
        <time>2018-03-16T15:30:02Z</time>
      </trkpt>
      <trkpt lat="44.99538" lon="0.62454">
        <ele>172.21</ele>
        <time>2018-03-16T15:30:11Z</time>
      </trkpt>
      <trkpt lat="44.99526" lon="0.62492">
        <ele>172.21</ele>
        <time>2018-03-16T15:30:32Z</time>
      </trkpt>
      <trkpt lat="44.99521" lon="0.62527">
        <ele>173.66</ele>
        <time>2018-03-16T15:30:50Z</time>
      </trkpt>
      <trkpt lat="44.9951" lon="0.62564">
        <ele>173.66</ele>
        <time>2018-03-16T15:31:07Z</time>
      </trkpt>
      <trkpt lat="44.99495" lon="0.62599">
        <ele>173.66</ele>
        <time>2018-03-16T15:31:26Z</time>
      </trkpt>
      <trkpt lat="44.99491" lon="0.6261">
        <ele>173.66</ele>
        <time>2018-03-16T15:31:38Z</time>
      </trkpt>
      <trkpt lat="44.99473" lon="0.6263">
        <ele>173.66</ele>
        <time>2018-03-16T15:31:55Z</time>
      </trkpt>
      <trkpt lat="44.99458" lon="0.62646">
        <ele>173.66</ele>
        <time>2018-03-16T15:32:12Z</time>
      </trkpt>
      <trkpt lat="44.99453" lon="0.62651">
        <ele>172.69</ele>
        <time>2018-03-16T15:32:28Z</time>
      </trkpt>
      <trkpt lat="44.99445" lon="0.62656">
        <ele>172.21</ele>
        <time>2018-03-16T15:32:39Z</time>
      </trkpt>
      <trkpt lat="44.99423" lon="0.62666">
        <ele>170.29</ele>
        <time>2018-03-16T15:32:58Z</time>
      </trkpt>
      <trkpt lat="44.9942" lon="0.62672">
        <ele>169.81</ele>
        <time>2018-03-16T15:33:06Z</time>
      </trkpt>
      <trkpt lat="44.99425" lon="0.62681">
        <ele>169.81</ele>
        <time>2018-03-16T15:33:13Z</time>
      </trkpt>
      <trkpt lat="44.99427" lon="0.62686">
        <ele>169.81</ele>
        <time>2018-03-16T15:33:16Z</time>
      </trkpt>
      <trkpt lat="44.99431" lon="0.62692">
        <ele>170.77</ele>
        <time>2018-03-16T15:33:32Z</time>
      </trkpt>
      <trkpt lat="44.99432" lon="0.62696">
        <ele>170.77</ele>
        <time>2018-03-16T15:33:45Z</time>
      </trkpt>
      <trkpt lat="44.99436" lon="0.62695">
        <ele>171.25</ele>
        <time>2018-03-16T15:33:58Z</time>
      </trkpt>
      <trkpt lat="44.99453" lon="0.6271">
        <ele>171.25</ele>
        <time>2018-03-16T15:34:14Z</time>
      </trkpt>
      <trkpt lat="44.99471" lon="0.62731">
        <ele>171.25</ele>
        <time>2018-03-16T15:34:32Z</time>
      </trkpt>
      <trkpt lat="44.99475" lon="0.62757">
        <ele>171.73</ele>
        <time>2018-03-16T15:34:46Z</time>
      </trkpt>
      <trkpt lat="44.99475" lon="0.62763">
        <ele>171.73</ele>
        <time>2018-03-16T15:34:49Z</time>
      </trkpt>
      <trkpt lat="44.99475" lon="0.6277">
        <ele>172.21</ele>
        <time>2018-03-16T15:34:53Z</time>
      </trkpt>
      <trkpt lat="44.99474" lon="0.62796">
        <ele>172.21</ele>
        <time>2018-03-16T15:35:07Z</time>
      </trkpt>
      <trkpt lat="44.99474" lon="0.62802">
        <ele>172.21</ele>
        <time>2018-03-16T15:35:10Z</time>
      </trkpt>
      <trkpt lat="44.9948" lon="0.62813">
        <ele>172.69</ele>
        <time>2018-03-16T15:35:18Z</time>
      </trkpt>
      <trkpt lat="44.99503" lon="0.62815">
        <ele>173.17</ele>
        <time>2018-03-16T15:35:36Z</time>
      </trkpt>
      <trkpt lat="44.99527" lon="0.62827">
        <ele>174.14</ele>
        <time>2018-03-16T15:35:56Z</time>
      </trkpt>
      <trkpt lat="44.99538" lon="0.62839">
        <ele>174.62</ele>
        <time>2018-03-16T15:36:08Z</time>
      </trkpt>
      <trkpt lat="44.99559" lon="0.62859">
        <ele>174.62</ele>
        <time>2018-03-16T15:36:27Z</time>
      </trkpt>
      <trkpt lat="44.99567" lon="0.62868">
        <ele>173.17</ele>
        <time>2018-03-16T15:36:36Z</time>
      </trkpt>
      <trkpt lat="44.99574" lon="0.6288">
        <ele>172.69</ele>
        <time>2018-03-16T15:36:52Z</time>
      </trkpt>
      <trkpt lat="44.9959" lon="0.62898">
        <ele>172.21</ele>
        <time>2018-03-16T15:37:09Z</time>
      </trkpt>
      <trkpt lat="44.9961" lon="0.62916">
        <ele>171.73</ele>
        <time>2018-03-16T15:37:27Z</time>
      </trkpt>
      <trkpt lat="44.99626" lon="0.62938">
        <ele>171.25</ele>
        <time>2018-03-16T15:37:46Z</time>
      </trkpt>
      <trkpt lat="44.99623" lon="0.6294">
        <ele>171.25</ele>
        <time>2018-03-16T15:37:49Z</time>
      </trkpt>
      <trkpt lat="44.996" lon="0.62952">
        <ele>169.81</ele>
        <time>2018-03-16T15:38:07Z</time>
      </trkpt>
      <trkpt lat="44.99595" lon="0.62957">
        <ele>169.81</ele>
        <time>2018-03-16T15:38:20Z</time>
      </trkpt>
      <trkpt lat="44.99581" lon="0.62977">
        <ele>169.81</ele>
        <time>2018-03-16T15:38:35Z</time>
      </trkpt>
      <trkpt lat="44.99572" lon="0.62992">
        <ele>170.29</ele>
        <time>2018-03-16T15:38:50Z</time>
      </trkpt>
      <trkpt lat="44.99564" lon="0.63012">
        <ele>170.29</ele>
        <time>2018-03-16T15:39:10Z</time>
      </trkpt>
      <trkpt lat="44.99561" lon="0.63017">
        <ele>170.29</ele>
        <time>2018-03-16T15:39:16Z</time>
      </trkpt>
      <trkpt lat="44.99557" lon="0.63023">
        <ele>170.29</ele>
        <time>2018-03-16T15:39:20Z</time>
      </trkpt>
      <trkpt lat="44.99552" lon="0.6303">
        <ele>170.29</ele>
        <time>2018-03-16T15:39:29Z</time>
      </trkpt>
      <trkpt lat="44.99551" lon="0.63032">
        <ele>170.29</ele>
        <time>2018-03-16T15:39:31Z</time>
      </trkpt>
      <trkpt lat="44.99537" lon="0.63057">
        <ele>170.29</ele>
        <time>2018-03-16T15:39:49Z</time>
      </trkpt>
      <trkpt lat="44.9952" lon="0.63079">
        <ele>170.29</ele>
        <time>2018-03-16T15:40:05Z</time>
      </trkpt>
      <trkpt lat="44.99502" lon="0.63099">
        <ele>171.73</ele>
        <time>2018-03-16T15:40:21Z</time>
      </trkpt>
      <trkpt lat="44.99482" lon="0.63118">
        <ele>172.69</ele>
        <time>2018-03-16T15:40:38Z</time>
      </trkpt>
      <trkpt lat="44.99465" lon="0.63135">
        <ele>174.14</ele>
        <time>2018-03-16T15:40:54Z</time>
      </trkpt>
      <trkpt lat="44.99444" lon="0.63156">
        <ele>174.62</ele>
        <time>2018-03-16T15:41:12Z</time>
      </trkpt>
      <trkpt lat="44.99423" lon="0.63178">
        <ele>175.58</ele>
        <time>2018-03-16T15:41:31Z</time>
      </trkpt>
      <trkpt lat="44.99407" lon="0.63193">
        <ele>176.06</ele>
        <time>2018-03-16T15:41:45Z</time>
      </trkpt>
      <trkpt lat="44.99396" lon="0.63202">
        <ele>174.62</ele>
        <time>2018-03-16T15:41:55Z</time>
      </trkpt>
      <trkpt lat="44.99374" lon="0.63218">
        <ele>173.66</ele>
        <time>2018-03-16T15:42:13Z</time>
      </trkpt>
      <trkpt lat="44.99351" lon="0.63232">
        <ele>173.17</ele>
        <time>2018-03-16T15:42:30Z</time>
      </trkpt>
      <trkpt lat="44.99329" lon="0.63246">
        <ele>173.17</ele>
        <time>2018-03-16T15:42:46Z</time>
      </trkpt>
      <trkpt lat="44.99308" lon="0.63262">
        <ele>173.17</ele>
        <time>2018-03-16T15:43:02Z</time>
      </trkpt>
      <trkpt lat="44.99293" lon="0.63274">
        <ele>173.17</ele>
        <time>2018-03-16T15:43:15Z</time>
      </trkpt>
      <trkpt lat="44.99288" lon="0.6328">
        <ele>173.17</ele>
        <time>2018-03-16T15:43:20Z</time>
      </trkpt>
      <trkpt lat="44.99287" lon="0.63283">
        <ele>174.62</ele>
        <time>2018-03-16T15:43:22Z</time>
      </trkpt>
      <trkpt lat="44.99275" lon="0.63309">
        <ele>176.06</ele>
        <time>2018-03-16T15:43:39Z</time>
      </trkpt>
      <trkpt lat="44.99265" lon="0.63334">
        <ele>177.5</ele>
        <time>2018-03-16T15:43:55Z</time>
      </trkpt>
      <trkpt lat="44.99254" lon="0.63361">
        <ele>178.94</ele>
        <time>2018-03-16T15:44:11Z</time>
      </trkpt>
      <trkpt lat="44.99244" lon="0.63387">
        <ele>179.42</ele>
        <time>2018-03-16T15:44:27Z</time>
      </trkpt>
      <trkpt lat="44.99234" lon="0.63406">
        <ele>179.9</ele>
        <time>2018-03-16T15:44:42Z</time>
      </trkpt>
      <trkpt lat="44.99231" lon="0.63407">
        <ele>179.9</ele>
        <time>2018-03-16T15:44:47Z</time>
      </trkpt>
      <trkpt lat="44.99226" lon="0.63406">
        <ele>179.9</ele>
        <time>2018-03-16T15:44:51Z</time>
      </trkpt>
      <trkpt lat="44.99203" lon="0.63397">
        <ele>178.94</ele>
        <time>2018-03-16T15:45:09Z</time>
      </trkpt>
      <trkpt lat="44.99181" lon="0.6339">
        <ele>177.98</ele>
        <time>2018-03-16T15:45:25Z</time>
      </trkpt>
      <trkpt lat="44.99161" lon="0.63384">
        <ele>175.1</ele>
        <time>2018-03-16T15:45:40Z</time>
      </trkpt>
      <trkpt lat="44.99137" lon="0.63375">
        <ele>173.66</ele>
        <time>2018-03-16T15:45:57Z</time>
      </trkpt>
      <trkpt lat="44.99116" lon="0.63368">
        <ele>173.17</ele>
        <time>2018-03-16T15:46:14Z</time>
      </trkpt>
      <trkpt lat="44.99104" lon="0.63351">
        <ele>172.69</ele>
        <time>2018-03-16T15:46:28Z</time>
      </trkpt>
      <trkpt lat="44.99084" lon="0.63343">
        <ele>171.25</ele>
        <time>2018-03-16T15:46:45Z</time>
      </trkpt>
      <trkpt lat="44.9907" lon="0.63335">
        <ele>169.81</ele>
        <time>2018-03-16T15:47:03Z</time>
      </trkpt>
      <trkpt lat="44.99066" lon="0.63328">
        <ele>169.33</ele>
        <time>2018-03-16T15:47:08Z</time>
      </trkpt>
      <trkpt lat="44.99037" lon="0.6333">
        <ele>166.93</ele>
        <time>2018-03-16T15:47:27Z</time>
      </trkpt>
      <trkpt lat="44.99019" lon="0.63325">
        <ele>165.48</ele>
        <time>2018-03-16T15:47:45Z</time>
      </trkpt>
      <trkpt lat="44.99017" lon="0.63304">
        <ele>165.48</ele>
        <time>2018-03-16T15:48:05Z</time>
      </trkpt>
      <trkpt lat="44.99016" lon="0.63314">
        <ele>165.96</ele>
        <time>2018-03-16T15:48:34Z</time>
      </trkpt>
      <trkpt lat="44.99023" lon="0.63346">
        <ele>165.96</ele>
        <time>2018-03-16T15:48:53Z</time>
      </trkpt>
      <trkpt lat="44.99013" lon="0.63369">
        <ele>163.56</ele>
        <time>2018-03-16T15:49:09Z</time>
      </trkpt>
      <trkpt lat="44.99" lon="0.63384">
        <ele>162.12</ele>
        <time>2018-03-16T15:49:21Z</time>
      </trkpt>
      <trkpt lat="44.98987" lon="0.63402">
        <ele>159.72</ele>
        <time>2018-03-16T15:49:36Z</time>
      </trkpt>
      <trkpt lat="44.98977" lon="0.63416">
        <ele>158.27</ele>
        <time>2018-03-16T15:49:53Z</time>
      </trkpt>
      <trkpt lat="44.98967" lon="0.63431">
        <ele>156.83</ele>
        <time>2018-03-16T15:50:08Z</time>
      </trkpt>
      <trkpt lat="44.98949" lon="0.63453">
        <ele>153.95</ele>
        <time>2018-03-16T15:50:25Z</time>
      </trkpt>
      <trkpt lat="44.98937" lon="0.63471">
        <ele>151.06</ele>
        <time>2018-03-16T15:50:43Z</time>
      </trkpt>
      <trkpt lat="44.98926" lon="0.63492">
        <ele>148.66</ele>
        <time>2018-03-16T15:50:58Z</time>
      </trkpt>
      <trkpt lat="44.98918" lon="0.63516">
        <ele>146.74</ele>
        <time>2018-03-16T15:51:12Z</time>
      </trkpt>
      <trkpt lat="44.98908" lon="0.63545">
        <ele>144.34</ele>
        <time>2018-03-16T15:51:28Z</time>
      </trkpt>
      <trkpt lat="44.98901" lon="0.6357">
        <ele>142.41</ele>
        <time>2018-03-16T15:51:44Z</time>
      </trkpt>
      <trkpt lat="44.98897" lon="0.63582">
        <ele>142.41</ele>
        <time>2018-03-16T15:51:52Z</time>
      </trkpt>
      <trkpt lat="44.98871" lon="0.636">
        <ele>140.49</ele>
        <time>2018-03-16T15:52:11Z</time>
      </trkpt>
      <trkpt lat="44.98837" lon="0.63623">
        <ele>138.57</ele>
        <time>2018-03-16T15:52:35Z</time>
      </trkpt>
      <trkpt lat="44.98825" lon="0.63659">
        <ele>138.09</ele>
        <time>2018-03-16T15:52:54Z</time>
      </trkpt>
      <trkpt lat="44.98819" lon="0.63678">
        <ele>138.09</ele>
        <time>2018-03-16T15:53:04Z</time>
      </trkpt>
      <trkpt lat="44.98805" lon="0.63704">
        <ele>138.09</ele>
        <time>2018-03-16T15:53:19Z</time>
      </trkpt>
      <trkpt lat="44.98798" lon="0.63708">
        <ele>138.09</ele>
        <time>2018-03-16T15:53:25Z</time>
      </trkpt>
      <trkpt lat="44.98789" lon="0.63709">
        <ele>138.09</ele>
        <time>2018-03-16T15:53:30Z</time>
      </trkpt>
      <trkpt lat="44.98783" lon="0.63703">
        <ele>138.09</ele>
        <time>2018-03-16T15:53:36Z</time>
      </trkpt>
      <trkpt lat="44.98761" lon="0.63683">
        <ele>139.53</ele>
        <time>2018-03-16T15:53:53Z</time>
      </trkpt>
      <trkpt lat="44.98742" lon="0.63683">
        <ele>140.49</ele>
        <time>2018-03-16T15:54:09Z</time>
      </trkpt>
      <trkpt lat="44.98739" lon="0.63683">
        <ele>140.49</ele>
        <time>2018-03-16T15:54:11Z</time>
      </trkpt>
      <trkpt lat="44.98729" lon="0.63692">
        <ele>141.93</ele>
        <time>2018-03-16T15:54:29Z</time>
      </trkpt>
      <trkpt lat="44.98729" lon="0.63698">
        <ele>142.41</ele>
        <time>2018-03-16T15:54:39Z</time>
      </trkpt>
      <trkpt lat="44.98727" lon="0.63704">
        <ele>142.89</ele>
        <time>2018-03-16T15:54:43Z</time>
      </trkpt>
      <trkpt lat="44.98722" lon="0.63726">
        <ele>145.3</ele>
        <time>2018-03-16T15:54:59Z</time>
      </trkpt>
      <trkpt lat="44.98714" lon="0.63749">
        <ele>148.66</ele>
        <time>2018-03-16T15:55:18Z</time>
      </trkpt>
      <trkpt lat="44.98706" lon="0.63769">
        <ele>151.06</ele>
        <time>2018-03-16T15:55:37Z</time>
      </trkpt>
      <trkpt lat="44.98701" lon="0.6379">
        <ele>153.47</ele>
        <time>2018-03-16T15:55:53Z</time>
      </trkpt>
      <trkpt lat="44.98691" lon="0.63809">
        <ele>156.35</ele>
        <time>2018-03-16T15:56:12Z</time>
      </trkpt>
      <trkpt lat="44.98695" lon="0.63827">
        <ele>158.27</ele>
        <time>2018-03-16T15:56:26Z</time>
      </trkpt>
      <trkpt lat="44.98691" lon="0.63855">
        <ele>160.68</ele>
        <time>2018-03-16T15:56:44Z</time>
      </trkpt>
      <trkpt lat="44.98691" lon="0.63882">
        <ele>162.12</ele>
        <time>2018-03-16T15:57:02Z</time>
      </trkpt>
      <trkpt lat="44.98695" lon="0.63904">
        <ele>165</ele>
        <time>2018-03-16T15:57:20Z</time>
      </trkpt>
      <trkpt lat="44.98701" lon="0.63924">
        <ele>167.89</ele>
        <time>2018-03-16T15:57:39Z</time>
      </trkpt>
      <trkpt lat="44.98706" lon="0.63943">
        <ele>168.85</ele>
        <time>2018-03-16T15:57:55Z</time>
      </trkpt>
      <trkpt lat="44.98721" lon="0.63937">
        <ele>170.29</ele>
        <time>2018-03-16T15:58:13Z</time>
      </trkpt>
      <trkpt lat="44.98737" lon="0.63937">
        <ele>170.77</ele>
        <time>2018-03-16T15:58:26Z</time>
      </trkpt>
      <trkpt lat="44.98742" lon="0.63944">
        <ele>170.77</ele>
        <time>2018-03-16T15:58:31Z</time>
      </trkpt>
      <trkpt lat="44.98746" lon="0.63953">
        <ele>171.73</ele>
        <time>2018-03-16T15:58:48Z</time>
      </trkpt>
      <trkpt lat="44.98749" lon="0.63978">
        <ele>173.66</ele>
        <time>2018-03-16T15:59:06Z</time>
      </trkpt>
      <trkpt lat="44.9875" lon="0.63979">
        <ele>174.62</ele>
        <time>2018-03-16T15:59:07Z</time>
      </trkpt>
      <trkpt lat="44.98753" lon="0.64007">
        <ele>176.54</ele>
        <time>2018-03-16T15:59:25Z</time>
      </trkpt>
      <trkpt lat="44.98756" lon="0.6402">
        <ele>177.5</ele>
        <time>2018-03-16T15:59:36Z</time>
      </trkpt>
      <trkpt lat="44.9877" lon="0.64026">
        <ele>177.98</ele>
        <time>2018-03-16T15:59:50Z</time>
      </trkpt>
      <trkpt lat="44.98771" lon="0.64028">
        <ele>177.98</ele>
        <time>2018-03-16T16:00:07Z</time>
      </trkpt>
      <trkpt lat="44.98771" lon="0.64026">
        <ele>178.94</ele>
        <time>2018-03-16T16:00:24Z</time>
      </trkpt>
      <trkpt lat="44.98772" lon="0.64027">
        <ele>179.42</ele>
        <time>2018-03-16T16:00:53Z</time>
      </trkpt>
      <trkpt lat="44.9877" lon="0.64028">
        <ele>179.42</ele>
        <time>2018-03-16T16:01:12Z</time>
      </trkpt>
      <trkpt lat="44.98769" lon="0.64028">
        <ele>179.9</ele>
        <time>2018-03-16T16:01:31Z</time>
      </trkpt>
      <trkpt lat="44.9877" lon="0.64028">
        <ele>178.46</ele>
        <time>2018-03-16T16:01:33Z</time>
      </trkpt>
      <trkpt lat="44.9877" lon="0.64028">
        <ele>179.42</ele>
        <time>2018-03-16T16:01:35Z</time>
      </trkpt>
      <trkpt lat="44.98769" lon="0.6403">
        <ele>179.42</ele>
        <time>2018-03-16T16:01:58Z</time>
      </trkpt>
    </trkseg>
  </trk>
  <trk>
    <name><![CDATA[randogps24-413]]></name>
    <extensions>
      <line xmlns="http://www.topografix.com/GPX/gpx_style/0/2">
        <color>0000FF</color>
        <width>4</width>
      </line>
    </extensions>
    <trkseg>
      <trkpt lat="45.04531" lon="0.59825">
        <ele>223.16</ele>
        <time>2018-01-18T12:38:15Z</time>
      </trkpt>
      <trkpt lat="45.04531" lon="0.59824">
        <ele>223.16</ele>
        <time>2018-01-18T12:38:16Z</time>
      </trkpt>
      <trkpt lat="45.0453" lon="0.59824">
        <ele>206.34</ele>
        <time>2018-01-18T12:38:19Z</time>
      </trkpt>
      <trkpt lat="45.0453" lon="0.59824">
        <ele>206.34</ele>
        <time>2018-01-18T12:38:20Z</time>
      </trkpt>
      <trkpt lat="45.04529" lon="0.59823">
        <ele>206.34</ele>
        <time>2018-01-18T12:38:37Z</time>
      </trkpt>
      <trkpt lat="45.0453" lon="0.59822">
        <ele>206.82</ele>
        <time>2018-01-18T12:38:54Z</time>
      </trkpt>
      <trkpt lat="45.04529" lon="0.59822">
        <ele>206.82</ele>
        <time>2018-01-18T12:39:11Z</time>
      </trkpt>
      <trkpt lat="45.04531" lon="0.59822">
        <ele>206.82</ele>
        <time>2018-01-18T12:39:31Z</time>
      </trkpt>
      <trkpt lat="45.04531" lon="0.59822">
        <ele>206.82</ele>
        <time>2018-01-18T12:40:00Z</time>
      </trkpt>
      <trkpt lat="45.0453" lon="0.59826">
        <ele>207.3</ele>
        <time>2018-01-18T12:40:20Z</time>
      </trkpt>
      <trkpt lat="45.04528" lon="0.59825">
        <ele>206.82</ele>
        <time>2018-01-18T12:40:32Z</time>
      </trkpt>
      <trkpt lat="45.04528" lon="0.59826">
        <ele>206.82</ele>
        <time>2018-01-18T12:40:49Z</time>
      </trkpt>
      <trkpt lat="45.04528" lon="0.59825">
        <ele>207.3</ele>
        <time>2018-01-18T12:41:16Z</time>
      </trkpt>
      <trkpt lat="45.04524" lon="0.59824">
        <ele>207.3</ele>
        <time>2018-01-18T12:41:31Z</time>
      </trkpt>
      <trkpt lat="45.04519" lon="0.59819">
        <ele>207.3</ele>
        <time>2018-01-18T12:41:38Z</time>
      </trkpt>
      <trkpt lat="45.04515" lon="0.59812">
        <ele>207.78</ele>
        <time>2018-01-18T12:41:45Z</time>
      </trkpt>
      <trkpt lat="45.04509" lon="0.59798">
        <ele>208.26</ele>
        <time>2018-01-18T12:42:01Z</time>
      </trkpt>
      <trkpt lat="45.04504" lon="0.59798">
        <ele>209.22</ele>
        <time>2018-01-18T12:42:06Z</time>
      </trkpt>
      <trkpt lat="45.04492" lon="0.59799">
        <ele>209.22</ele>
        <time>2018-01-18T12:42:18Z</time>
      </trkpt>
      <trkpt lat="45.04484" lon="0.59777">
        <ele>209.22</ele>
        <time>2018-01-18T12:42:33Z</time>
      </trkpt>
      <trkpt lat="45.04483" lon="0.59772">
        <ele>208.74</ele>
        <time>2018-01-18T12:42:36Z</time>
      </trkpt>
      <trkpt lat="45.04485" lon="0.59744">
        <ele>207.78</ele>
        <time>2018-01-18T12:42:53Z</time>
      </trkpt>
      <trkpt lat="45.04492" lon="0.59712">
        <ele>207.3</ele>
        <time>2018-01-18T12:43:12Z</time>
      </trkpt>
      <trkpt lat="45.04504" lon="0.59697">
        <ele>207.3</ele>
        <time>2018-01-18T12:43:27Z</time>
      </trkpt>
      <trkpt lat="45.04519" lon="0.59677">
        <ele>206.82</ele>
        <time>2018-01-18T12:43:45Z</time>
      </trkpt>
      <trkpt lat="45.04536" lon="0.59662">
        <ele>205.38</ele>
        <time>2018-01-18T12:44:02Z</time>
      </trkpt>
      <trkpt lat="45.04557" lon="0.59648">
        <ele>204.42</ele>
        <time>2018-01-18T12:44:20Z</time>
      </trkpt>
      <trkpt lat="45.04572" lon="0.59628">
        <ele>202.01</ele>
        <time>2018-01-18T12:44:39Z</time>
      </trkpt>
      <trkpt lat="45.04588" lon="0.59606">
        <ele>200.09</ele>
        <time>2018-01-18T12:44:59Z</time>
      </trkpt>
      <trkpt lat="45.0461" lon="0.59615">
        <ele>199.13</ele>
        <time>2018-01-18T12:45:18Z</time>
      </trkpt>
      <trkpt lat="45.04615" lon="0.59627">
        <ele>198.65</ele>
        <time>2018-01-18T12:45:29Z</time>
      </trkpt>
      <trkpt lat="45.04618" lon="0.59632">
        <ele>200.09</ele>
        <time>2018-01-18T12:45:34Z</time>
      </trkpt>
      <trkpt lat="45.04621" lon="0.59634">
        <ele>200.09</ele>
        <time>2018-01-18T12:45:37Z</time>
      </trkpt>
      <trkpt lat="45.04625" lon="0.59635">
        <ele>200.57</ele>
        <time>2018-01-18T12:45:40Z</time>
      </trkpt>
      <trkpt lat="45.04633" lon="0.59631">
        <ele>200.57</ele>
        <time>2018-01-18T12:45:49Z</time>
      </trkpt>
      <trkpt lat="45.04638" lon="0.59624">
        <ele>199.13</ele>
        <time>2018-01-18T12:45:57Z</time>
      </trkpt>
      <trkpt lat="45.04652" lon="0.59623">
        <ele>197.21</ele>
        <time>2018-01-18T12:46:12Z</time>
      </trkpt>
      <trkpt lat="45.04667" lon="0.59628">
        <ele>195.28</ele>
        <time>2018-01-18T12:46:28Z</time>
      </trkpt>
      <trkpt lat="45.04679" lon="0.59634">
        <ele>192.88</ele>
        <time>2018-01-18T12:46:43Z</time>
      </trkpt>
      <trkpt lat="45.04686" lon="0.59637">
        <ele>191.44</ele>
        <time>2018-01-18T12:46:57Z</time>
      </trkpt>
      <trkpt lat="45.04698" lon="0.59641">
        <ele>189.04</ele>
        <time>2018-01-18T12:47:09Z</time>
      </trkpt>
      <trkpt lat="45.04713" lon="0.59646">
        <ele>188.08</ele>
        <time>2018-01-18T12:47:25Z</time>
      </trkpt>
      <trkpt lat="45.04731" lon="0.59655">
        <ele>187.11</ele>
        <time>2018-01-18T12:47:41Z</time>
      </trkpt>
      <trkpt lat="45.04736" lon="0.59658">
        <ele>187.11</ele>
        <time>2018-01-18T12:47:47Z</time>
      </trkpt>
      <trkpt lat="45.04741" lon="0.59663">
        <ele>186.63</ele>
        <time>2018-01-18T12:47:52Z</time>
      </trkpt>
      <trkpt lat="45.04749" lon="0.59668">
        <ele>186.63</ele>
        <time>2018-01-18T12:48:00Z</time>
      </trkpt>
      <trkpt lat="45.04761" lon="0.59675">
        <ele>186.15</ele>
        <time>2018-01-18T12:48:12Z</time>
      </trkpt>
      <trkpt lat="45.04775" lon="0.59682">
        <ele>185.67</ele>
        <time>2018-01-18T12:48:26Z</time>
      </trkpt>
      <trkpt lat="45.04789" lon="0.59691">
        <ele>185.19</ele>
        <time>2018-01-18T12:48:42Z</time>
      </trkpt>
      <trkpt lat="45.04793" lon="0.59696">
        <ele>185.19</ele>
        <time>2018-01-18T12:48:48Z</time>
      </trkpt>
      <trkpt lat="45.04802" lon="0.5971">
        <ele>186.63</ele>
        <time>2018-01-18T12:49:02Z</time>
      </trkpt>
      <trkpt lat="45.04809" lon="0.5973">
        <ele>187.11</ele>
        <time>2018-01-18T12:49:15Z</time>
      </trkpt>
      <trkpt lat="45.04814" lon="0.59744">
        <ele>186.63</ele>
        <time>2018-01-18T12:49:28Z</time>
      </trkpt>
      <trkpt lat="45.04825" lon="0.59758">
        <ele>184.71</ele>
        <time>2018-01-18T12:49:43Z</time>
      </trkpt>
      <trkpt lat="45.04825" lon="0.59759">
        <ele>184.71</ele>
        <time>2018-01-18T12:49:44Z</time>
      </trkpt>
      <trkpt lat="45.04833" lon="0.59769">
        <ele>184.71</ele>
        <time>2018-01-18T12:49:58Z</time>
      </trkpt>
      <trkpt lat="45.04843" lon="0.59778">
        <ele>184.71</ele>
        <time>2018-01-18T12:50:11Z</time>
      </trkpt>
      <trkpt lat="45.04855" lon="0.59783">
        <ele>185.67</ele>
        <time>2018-01-18T12:50:25Z</time>
      </trkpt>
      <trkpt lat="45.04871" lon="0.5979">
        <ele>186.63</ele>
        <time>2018-01-18T12:50:39Z</time>
      </trkpt>
      <trkpt lat="45.04884" lon="0.59806">
        <ele>186.63</ele>
        <time>2018-01-18T12:50:55Z</time>
      </trkpt>
      <trkpt lat="45.04897" lon="0.59824">
        <ele>187.11</ele>
        <time>2018-01-18T12:51:11Z</time>
      </trkpt>
      <trkpt lat="45.04897" lon="0.5984">
        <ele>187.11</ele>
        <time>2018-01-18T12:51:26Z</time>
      </trkpt>
      <trkpt lat="45.04885" lon="0.59854">
        <ele>187.59</ele>
        <time>2018-01-18T12:51:41Z</time>
      </trkpt>
      <trkpt lat="45.04872" lon="0.59873">
        <ele>189.04</ele>
        <time>2018-01-18T12:51:58Z</time>
      </trkpt>
      <trkpt lat="45.04874" lon="0.59876">
        <ele>189.04</ele>
        <time>2018-01-18T12:52:06Z</time>
      </trkpt>
      <trkpt lat="45.04886" lon="0.59871">
        <ele>187.59</ele>
        <time>2018-01-18T12:52:18Z</time>
      </trkpt>
      <trkpt lat="45.04901" lon="0.59865">
        <ele>186.15</ele>
        <time>2018-01-18T12:52:32Z</time>
      </trkpt>
      <trkpt lat="45.04918" lon="0.59864">
        <ele>184.23</ele>
        <time>2018-01-18T12:52:47Z</time>
      </trkpt>
      <trkpt lat="45.04943" lon="0.59864">
        <ele>182.79</ele>
        <time>2018-01-18T12:53:05Z</time>
      </trkpt>
      <trkpt lat="45.04972" lon="0.59869">
        <ele>182.31</ele>
        <time>2018-01-18T12:53:25Z</time>
      </trkpt>
      <trkpt lat="45.04994" lon="0.59875">
        <ele>182.31</ele>
        <time>2018-01-18T12:53:42Z</time>
      </trkpt>
      <trkpt lat="45.05013" lon="0.59883">
        <ele>181.83</ele>
        <time>2018-01-18T12:53:58Z</time>
      </trkpt>
      <trkpt lat="45.0503" lon="0.59898">
        <ele>181.83</ele>
        <time>2018-01-18T12:54:14Z</time>
      </trkpt>
      <trkpt lat="45.05046" lon="0.59915">
        <ele>181.83</ele>
        <time>2018-01-18T12:54:30Z</time>
      </trkpt>
      <trkpt lat="45.0506" lon="0.59935">
        <ele>183.27</ele>
        <time>2018-01-18T12:54:47Z</time>
      </trkpt>
      <trkpt lat="45.0507" lon="0.59944">
        <ele>184.23</ele>
        <time>2018-01-18T12:54:58Z</time>
      </trkpt>
      <trkpt lat="45.05076" lon="0.59951">
        <ele>184.23</ele>
        <time>2018-01-18T12:55:11Z</time>
      </trkpt>
      <trkpt lat="45.0509" lon="0.59965">
        <ele>184.71</ele>
        <time>2018-01-18T12:55:25Z</time>
      </trkpt>
      <trkpt lat="45.05106" lon="0.59968">
        <ele>185.19</ele>
        <time>2018-01-18T12:55:40Z</time>
      </trkpt>
      <trkpt lat="45.05118" lon="0.59961">
        <ele>183.75</ele>
        <time>2018-01-18T12:55:54Z</time>
      </trkpt>
      <trkpt lat="45.05124" lon="0.59956">
        <ele>183.27</ele>
        <time>2018-01-18T12:56:01Z</time>
      </trkpt>
      <trkpt lat="45.05138" lon="0.59947">
        <ele>181.83</ele>
        <time>2018-01-18T12:56:16Z</time>
      </trkpt>
      <trkpt lat="45.0515" lon="0.59931">
        <ele>180.38</ele>
        <time>2018-01-18T12:56:32Z</time>
      </trkpt>
      <trkpt lat="45.05159" lon="0.59922">
        <ele>179.42</ele>
        <time>2018-01-18T12:56:45Z</time>
      </trkpt>
      <trkpt lat="45.05173" lon="0.59907">
        <ele>178.94</ele>
        <time>2018-01-18T12:57:02Z</time>
      </trkpt>
      <trkpt lat="45.05182" lon="0.59893">
        <ele>177.02</ele>
        <time>2018-01-18T12:57:18Z</time>
      </trkpt>
      <trkpt lat="45.05192" lon="0.59878">
        <ele>176.06</ele>
        <time>2018-01-18T12:57:34Z</time>
      </trkpt>
      <trkpt lat="45.05194" lon="0.59877">
        <ele>175.58</ele>
        <time>2018-01-18T12:57:46Z</time>
      </trkpt>
      <trkpt lat="45.05199" lon="0.59862">
        <ele>173.66</ele>
        <time>2018-01-18T12:57:58Z</time>
      </trkpt>
      <trkpt lat="45.0521" lon="0.59847">
        <ele>172.69</ele>
        <time>2018-01-18T12:58:11Z</time>
      </trkpt>
      <trkpt lat="45.05219" lon="0.59834">
        <ele>170.77</ele>
        <time>2018-01-18T12:58:25Z</time>
      </trkpt>
      <trkpt lat="45.0523" lon="0.59821">
        <ele>167.89</ele>
        <time>2018-01-18T12:58:42Z</time>
      </trkpt>
      <trkpt lat="45.05242" lon="0.59807">
        <ele>165.96</ele>
        <time>2018-01-18T12:58:58Z</time>
      </trkpt>
      <trkpt lat="45.0525" lon="0.59795">
        <ele>164.04</ele>
        <time>2018-01-18T12:59:11Z</time>
      </trkpt>
      <trkpt lat="45.05257" lon="0.59784">
        <ele>162.6</ele>
        <time>2018-01-18T12:59:24Z</time>
      </trkpt>
      <trkpt lat="45.05263" lon="0.59768">
        <ele>160.68</ele>
        <time>2018-01-18T12:59:38Z</time>
      </trkpt>
      <trkpt lat="45.0527" lon="0.5975">
        <ele>158.27</ele>
        <time>2018-01-18T12:59:52Z</time>
      </trkpt>
      <trkpt lat="45.05272" lon="0.5974">
        <ele>156.35</ele>
        <time>2018-01-18T13:00:05Z</time>
      </trkpt>
      <trkpt lat="45.05274" lon="0.59734">
        <ele>155.87</ele>
        <time>2018-01-18T13:00:18Z</time>
      </trkpt>
      <trkpt lat="45.05278" lon="0.59726">
        <ele>154.43</ele>
        <time>2018-01-18T13:00:32Z</time>
      </trkpt>
      <trkpt lat="45.05283" lon="0.59714">
        <ele>152.51</ele>
        <time>2018-01-18T13:00:48Z</time>
      </trkpt>
      <trkpt lat="45.05288" lon="0.59702">
        <ele>150.1</ele>
        <time>2018-01-18T13:01:02Z</time>
      </trkpt>
      <trkpt lat="45.0529" lon="0.59696">
        <ele>149.14</ele>
        <time>2018-01-18T13:01:14Z</time>
      </trkpt>
      <trkpt lat="45.05295" lon="0.59685">
        <ele>147.22</ele>
        <time>2018-01-18T13:01:27Z</time>
      </trkpt>
      <trkpt lat="45.05299" lon="0.59678">
        <ele>146.74</ele>
        <time>2018-01-18T13:01:42Z</time>
      </trkpt>
      <trkpt lat="45.053" lon="0.59678">
        <ele>146.74</ele>
        <time>2018-01-18T13:02:10Z</time>
      </trkpt>
      <trkpt lat="45.0531" lon="0.59676">
        <ele>146.74</ele>
        <time>2018-01-18T13:02:27Z</time>
      </trkpt>
      <trkpt lat="45.05316" lon="0.59674">
        <ele>145.78</ele>
        <time>2018-01-18T13:02:41Z</time>
      </trkpt>
      <trkpt lat="45.05318" lon="0.59672">
        <ele>145.3</ele>
        <time>2018-01-18T13:03:00Z</time>
      </trkpt>
      <trkpt lat="45.05317" lon="0.59675">
        <ele>145.3</ele>
        <time>2018-01-18T13:03:28Z</time>
      </trkpt>
      <trkpt lat="45.05326" lon="0.59657">
        <ele>145.3</ele>
        <time>2018-01-18T13:03:43Z</time>
      </trkpt>
      <trkpt lat="45.05331" lon="0.59641">
        <ele>144.82</ele>
        <time>2018-01-18T13:03:56Z</time>
      </trkpt>
      <trkpt lat="45.05345" lon="0.59637">
        <ele>144.34</ele>
        <time>2018-01-18T13:04:12Z</time>
      </trkpt>
      <trkpt lat="45.05355" lon="0.59633">
        <ele>144.34</ele>
        <time>2018-01-18T13:04:25Z</time>
      </trkpt>
      <trkpt lat="45.05367" lon="0.59627">
        <ele>144.34</ele>
        <time>2018-01-18T13:04:39Z</time>
      </trkpt>
      <trkpt lat="45.05378" lon="0.59618">
        <ele>143.85</ele>
        <time>2018-01-18T13:04:55Z</time>
      </trkpt>
      <trkpt lat="45.05389" lon="0.59611">
        <ele>143.85</ele>
        <time>2018-01-18T13:05:12Z</time>
      </trkpt>
      <trkpt lat="45.054" lon="0.59605">
        <ele>143.37</ele>
        <time>2018-01-18T13:05:25Z</time>
      </trkpt>
      <trkpt lat="45.05401" lon="0.59604">
        <ele>143.37</ele>
        <time>2018-01-18T13:05:27Z</time>
      </trkpt>
      <trkpt lat="45.05409" lon="0.59599">
        <ele>144.82</ele>
        <time>2018-01-18T13:05:35Z</time>
      </trkpt>
      <trkpt lat="45.05422" lon="0.59591">
        <ele>145.3</ele>
        <time>2018-01-18T13:05:51Z</time>
      </trkpt>
      <trkpt lat="45.05431" lon="0.59584">
        <ele>144.82</ele>
        <time>2018-01-18T13:06:09Z</time>
      </trkpt>
      <trkpt lat="45.05434" lon="0.59586">
        <ele>145.3</ele>
        <time>2018-01-18T13:06:26Z</time>
      </trkpt>
      <trkpt lat="45.05435" lon="0.59587">
        <ele>145.3</ele>
        <time>2018-01-18T13:06:48Z</time>
      </trkpt>
      <trkpt lat="45.05437" lon="0.59587">
        <ele>145.3</ele>
        <time>2018-01-18T13:07:16Z</time>
      </trkpt>
      <trkpt lat="45.05439" lon="0.59587">
        <ele>146.26</ele>
        <time>2018-01-18T13:07:40Z</time>
      </trkpt>
      <trkpt lat="45.05439" lon="0.59586">
        <ele>146.26</ele>
        <time>2018-01-18T13:08:07Z</time>
      </trkpt>
      <trkpt lat="45.0544" lon="0.59591">
        <ele>146.26</ele>
        <time>2018-01-18T13:08:17Z</time>
      </trkpt>
      <trkpt lat="45.05442" lon="0.5959">
        <ele>145.3</ele>
        <time>2018-01-18T13:08:29Z</time>
      </trkpt>
      <trkpt lat="45.05442" lon="0.59589">
        <ele>144.82</ele>
        <time>2018-01-18T13:08:43Z</time>
      </trkpt>
      <trkpt lat="45.05442" lon="0.59589">
        <ele>144.82</ele>
        <time>2018-01-18T13:09:13Z</time>
      </trkpt>
      <trkpt lat="45.05454" lon="0.59586">
        <ele>144.34</ele>
        <time>2018-01-18T13:09:28Z</time>
      </trkpt>
      <trkpt lat="45.05467" lon="0.59581">
        <ele>144.34</ele>
        <time>2018-01-18T13:09:44Z</time>
      </trkpt>
      <trkpt lat="45.05483" lon="0.59581">
        <ele>144.34</ele>
        <time>2018-01-18T13:09:59Z</time>
      </trkpt>
      <trkpt lat="45.05485" lon="0.59595">
        <ele>142.89</ele>
        <time>2018-01-18T13:10:13Z</time>
      </trkpt>
      <trkpt lat="45.0549" lon="0.59608">
        <ele>140.97</ele>
        <time>2018-01-18T13:10:27Z</time>
      </trkpt>
      <trkpt lat="45.05506" lon="0.59608">
        <ele>140.01</ele>
        <time>2018-01-18T13:10:41Z</time>
      </trkpt>
      <trkpt lat="45.05518" lon="0.59613">
        <ele>139.53</ele>
        <time>2018-01-18T13:10:53Z</time>
      </trkpt>
      <trkpt lat="45.05533" lon="0.59618">
        <ele>139.05</ele>
        <time>2018-01-18T13:11:07Z</time>
      </trkpt>
      <trkpt lat="45.05544" lon="0.59625">
        <ele>138.57</ele>
        <time>2018-01-18T13:11:20Z</time>
      </trkpt>
      <trkpt lat="45.05558" lon="0.59634">
        <ele>138.57</ele>
        <time>2018-01-18T13:11:34Z</time>
      </trkpt>
      <trkpt lat="45.05573" lon="0.59647">
        <ele>138.09</ele>
        <time>2018-01-18T13:11:48Z</time>
      </trkpt>
      <trkpt lat="45.05587" lon="0.59658">
        <ele>138.09</ele>
        <time>2018-01-18T13:12:01Z</time>
      </trkpt>
      <trkpt lat="45.05601" lon="0.59671">
        <ele>137.61</ele>
        <time>2018-01-18T13:12:17Z</time>
      </trkpt>
      <trkpt lat="45.05614" lon="0.59683">
        <ele>137.13</ele>
        <time>2018-01-18T13:12:32Z</time>
      </trkpt>
      <trkpt lat="45.05628" lon="0.59694">
        <ele>136.64</ele>
        <time>2018-01-18T13:12:48Z</time>
      </trkpt>
      <trkpt lat="45.0564" lon="0.59704">
        <ele>136.64</ele>
        <time>2018-01-18T13:13:01Z</time>
      </trkpt>
      <trkpt lat="45.05649" lon="0.59711">
        <ele>136.64</ele>
        <time>2018-01-18T13:13:12Z</time>
      </trkpt>
      <trkpt lat="45.05664" lon="0.59724">
        <ele>137.13</ele>
        <time>2018-01-18T13:13:27Z</time>
      </trkpt>
      <trkpt lat="45.05674" lon="0.59732">
        <ele>136.64</ele>
        <time>2018-01-18T13:13:39Z</time>
      </trkpt>
      <trkpt lat="45.05687" lon="0.59737">
        <ele>136.16</ele>
        <time>2018-01-18T13:13:51Z</time>
      </trkpt>
      <trkpt lat="45.05699" lon="0.59747">
        <ele>135.2</ele>
        <time>2018-01-18T13:14:05Z</time>
      </trkpt>
      <trkpt lat="45.05713" lon="0.5976">
        <ele>133.76</ele>
        <time>2018-01-18T13:14:20Z</time>
      </trkpt>
      <trkpt lat="45.05719" lon="0.59769">
        <ele>134.24</ele>
        <time>2018-01-18T13:14:34Z</time>
      </trkpt>
      <trkpt lat="45.05736" lon="0.59774">
        <ele>135.2</ele>
        <time>2018-01-18T13:14:49Z</time>
      </trkpt>
      <trkpt lat="45.05743" lon="0.59777">
        <ele>135.2</ele>
        <time>2018-01-18T13:14:57Z</time>
      </trkpt>
      <trkpt lat="45.0575" lon="0.59779">
        <ele>135.68</ele>
        <time>2018-01-18T13:15:04Z</time>
      </trkpt>
      <trkpt lat="45.05764" lon="0.59781">
        <ele>135.68</ele>
        <time>2018-01-18T13:15:20Z</time>
      </trkpt>
      <trkpt lat="45.05779" lon="0.59774">
        <ele>135.68</ele>
        <time>2018-01-18T13:15:33Z</time>
      </trkpt>
      <trkpt lat="45.05782" lon="0.5977">
        <ele>134.24</ele>
        <time>2018-01-18T13:15:37Z</time>
      </trkpt>
      <trkpt lat="45.05795" lon="0.5976">
        <ele>132.32</ele>
        <time>2018-01-18T13:15:53Z</time>
      </trkpt>
      <trkpt lat="45.05807" lon="0.59756">
        <ele>132.32</ele>
        <time>2018-01-18T13:16:06Z</time>
      </trkpt>
      <trkpt lat="45.05808" lon="0.59756">
        <ele>132.32</ele>
        <time>2018-01-18T13:16:07Z</time>
      </trkpt>
      <trkpt lat="45.05821" lon="0.59757">
        <ele>131.84</ele>
        <time>2018-01-18T13:16:21Z</time>
      </trkpt>
      <trkpt lat="45.05824" lon="0.59759">
        <ele>131.84</ele>
        <time>2018-01-18T13:16:25Z</time>
      </trkpt>
      <trkpt lat="45.05836" lon="0.59765">
        <ele>131.84</ele>
        <time>2018-01-18T13:16:38Z</time>
      </trkpt>
      <trkpt lat="45.05846" lon="0.59769">
        <ele>131.36</ele>
        <time>2018-01-18T13:16:50Z</time>
      </trkpt>
      <trkpt lat="45.05858" lon="0.59779">
        <ele>131.36</ele>
        <time>2018-01-18T13:17:03Z</time>
      </trkpt>
      <trkpt lat="45.05858" lon="0.5978">
        <ele>131.36</ele>
        <time>2018-01-18T13:17:04Z</time>
      </trkpt>
      <trkpt lat="45.05875" lon="0.59796">
        <ele>131.36</ele>
        <time>2018-01-18T13:17:18Z</time>
      </trkpt>
      <trkpt lat="45.05888" lon="0.59801">
        <ele>132.32</ele>
        <time>2018-01-18T13:17:32Z</time>
      </trkpt>
      <trkpt lat="45.05896" lon="0.59803">
        <ele>132.32</ele>
        <time>2018-01-18T13:17:40Z</time>
      </trkpt>
      <trkpt lat="45.05912" lon="0.59802">
        <ele>132.32</ele>
        <time>2018-01-18T13:17:54Z</time>
      </trkpt>
      <trkpt lat="45.05923" lon="0.59803">
        <ele>130.88</ele>
        <time>2018-01-18T13:18:06Z</time>
      </trkpt>
      <trkpt lat="45.05939" lon="0.59805">
        <ele>129.92</ele>
        <time>2018-01-18T13:18:21Z</time>
      </trkpt>
      <trkpt lat="45.05946" lon="0.59806">
        <ele>129.43</ele>
        <time>2018-01-18T13:18:27Z</time>
      </trkpt>
      <trkpt lat="45.05959" lon="0.59807">
        <ele>128.47</ele>
        <time>2018-01-18T13:18:38Z</time>
      </trkpt>
      <trkpt lat="45.05975" lon="0.59812">
        <ele>127.51</ele>
        <time>2018-01-18T13:18:53Z</time>
      </trkpt>
      <trkpt lat="45.05978" lon="0.59812">
        <ele>127.51</ele>
        <time>2018-01-18T13:18:56Z</time>
      </trkpt>
      <trkpt lat="45.05993" lon="0.59822">
        <ele>127.03</ele>
        <time>2018-01-18T13:19:11Z</time>
      </trkpt>
      <trkpt lat="45.06005" lon="0.5983">
        <ele>126.55</ele>
        <time>2018-01-18T13:19:25Z</time>
      </trkpt>
      <trkpt lat="45.06019" lon="0.59841">
        <ele>126.55</ele>
        <time>2018-01-18T13:19:40Z</time>
      </trkpt>
      <trkpt lat="45.06023" lon="0.59844">
        <ele>126.55</ele>
        <time>2018-01-18T13:19:43Z</time>
      </trkpt>
      <trkpt lat="45.06033" lon="0.59853">
        <ele>126.55</ele>
        <time>2018-01-18T13:19:54Z</time>
      </trkpt>
      <trkpt lat="45.06035" lon="0.59854">
        <ele>126.55</ele>
        <time>2018-01-18T13:19:56Z</time>
      </trkpt>
      <trkpt lat="45.0605" lon="0.59865">
        <ele>126.55</ele>
        <time>2018-01-18T13:20:11Z</time>
      </trkpt>
      <trkpt lat="45.06061" lon="0.59871">
        <ele>126.55</ele>
        <time>2018-01-18T13:20:23Z</time>
      </trkpt>
      <trkpt lat="45.06072" lon="0.59877">
        <ele>126.55</ele>
        <time>2018-01-18T13:20:35Z</time>
      </trkpt>
      <trkpt lat="45.06085" lon="0.59884">
        <ele>126.55</ele>
        <time>2018-01-18T13:20:48Z</time>
      </trkpt>
      <trkpt lat="45.06101" lon="0.59892">
        <ele>126.55</ele>
        <time>2018-01-18T13:21:02Z</time>
      </trkpt>
      <trkpt lat="45.06105" lon="0.59894">
        <ele>126.55</ele>
        <time>2018-01-18T13:21:06Z</time>
      </trkpt>
      <trkpt lat="45.06107" lon="0.59894">
        <ele>126.55</ele>
        <time>2018-01-18T13:21:08Z</time>
      </trkpt>
      <trkpt lat="45.06122" lon="0.59895">
        <ele>126.55</ele>
        <time>2018-01-18T13:21:23Z</time>
      </trkpt>
      <trkpt lat="45.06135" lon="0.59894">
        <ele>127.51</ele>
        <time>2018-01-18T13:21:36Z</time>
      </trkpt>
      <trkpt lat="45.06149" lon="0.59896">
        <ele>127.51</ele>
        <time>2018-01-18T13:21:49Z</time>
      </trkpt>
      <trkpt lat="45.06151" lon="0.59896">
        <ele>127.51</ele>
        <time>2018-01-18T13:21:51Z</time>
      </trkpt>
      <trkpt lat="45.0617" lon="0.59894">
        <ele>127.99</ele>
        <time>2018-01-18T13:22:09Z</time>
      </trkpt>
      <trkpt lat="45.06184" lon="0.59894">
        <ele>127.99</ele>
        <time>2018-01-18T13:22:22Z</time>
      </trkpt>
      <trkpt lat="45.06197" lon="0.59894">
        <ele>127.99</ele>
        <time>2018-01-18T13:22:36Z</time>
      </trkpt>
      <trkpt lat="45.06201" lon="0.59894">
        <ele>127.99</ele>
        <time>2018-01-18T13:22:39Z</time>
      </trkpt>
      <trkpt lat="45.06209" lon="0.59893">
        <ele>128.47</ele>
        <time>2018-01-18T13:22:46Z</time>
      </trkpt>
      <trkpt lat="45.06211" lon="0.59893">
        <ele>128.47</ele>
        <time>2018-01-18T13:22:48Z</time>
      </trkpt>
      <trkpt lat="45.06213" lon="0.59892">
        <ele>128.95</ele>
        <time>2018-01-18T13:22:52Z</time>
      </trkpt>
      <trkpt lat="45.06214" lon="0.59893">
        <ele>128.95</ele>
        <time>2018-01-18T13:23:05Z</time>
      </trkpt>
      <trkpt lat="45.06214" lon="0.59894">
        <ele>128.95</ele>
        <time>2018-01-18T13:23:29Z</time>
      </trkpt>
      <trkpt lat="45.06214" lon="0.59892">
        <ele>128.95</ele>
        <time>2018-01-18T13:23:50Z</time>
      </trkpt>
      <trkpt lat="45.06213" lon="0.59893">
        <ele>128.95</ele>
        <time>2018-01-18T13:24:11Z</time>
      </trkpt>
      <trkpt lat="45.06208" lon="0.59895">
        <ele>128.95</ele>
        <time>2018-01-18T13:24:25Z</time>
      </trkpt>
      <trkpt lat="45.06203" lon="0.59899">
        <ele>128.95</ele>
        <time>2018-01-18T13:24:39Z</time>
      </trkpt>
      <trkpt lat="45.062" lon="0.59898">
        <ele>128.47</ele>
        <time>2018-01-18T13:25:05Z</time>
      </trkpt>
      <trkpt lat="45.06202" lon="0.59896">
        <ele>128.47</ele>
        <time>2018-01-18T13:25:30Z</time>
      </trkpt>
      <trkpt lat="45.06204" lon="0.59895">
        <ele>128.47</ele>
        <time>2018-01-18T13:25:32Z</time>
      </trkpt>
      <trkpt lat="45.06206" lon="0.59893">
        <ele>128.47</ele>
        <time>2018-01-18T13:25:34Z</time>
      </trkpt>
      <trkpt lat="45.06213" lon="0.5989">
        <ele>128.47</ele>
        <time>2018-01-18T13:25:49Z</time>
      </trkpt>
      <trkpt lat="45.06217" lon="0.5989">
        <ele>128.47</ele>
        <time>2018-01-18T13:26:06Z</time>
      </trkpt>
      <trkpt lat="45.06228" lon="0.599">
        <ele>128.47</ele>
        <time>2018-01-18T13:26:20Z</time>
      </trkpt>
      <trkpt lat="45.06232" lon="0.59904">
        <ele>128.47</ele>
        <time>2018-01-18T13:26:25Z</time>
      </trkpt>
      <trkpt lat="45.06242" lon="0.59915">
        <ele>127.03</ele>
        <time>2018-01-18T13:26:37Z</time>
      </trkpt>
      <trkpt lat="45.06257" lon="0.59932">
        <ele>126.07</ele>
        <time>2018-01-18T13:26:53Z</time>
      </trkpt>
      <trkpt lat="45.06274" lon="0.59951">
        <ele>125.59</ele>
        <time>2018-01-18T13:27:12Z</time>
      </trkpt>
      <trkpt lat="45.06284" lon="0.59962">
        <ele>124.63</ele>
        <time>2018-01-18T13:27:22Z</time>
      </trkpt>
      <trkpt lat="45.06293" lon="0.59973">
        <ele>124.15</ele>
        <time>2018-01-18T13:27:33Z</time>
      </trkpt>
      <trkpt lat="45.06297" lon="0.59977">
        <ele>123.67</ele>
        <time>2018-01-18T13:27:37Z</time>
      </trkpt>
      <trkpt lat="45.06313" lon="0.59994">
        <ele>123.67</ele>
        <time>2018-01-18T13:27:54Z</time>
      </trkpt>
      <trkpt lat="45.0632" lon="0.60001">
        <ele>123.19</ele>
        <time>2018-01-18T13:28:02Z</time>
      </trkpt>
      <trkpt lat="45.06331" lon="0.60012">
        <ele>122.71</ele>
        <time>2018-01-18T13:28:14Z</time>
      </trkpt>
      <trkpt lat="45.06345" lon="0.60027">
        <ele>121.74</ele>
        <time>2018-01-18T13:28:30Z</time>
      </trkpt>
      <trkpt lat="45.06348" lon="0.6003">
        <ele>121.74</ele>
        <time>2018-01-18T13:28:33Z</time>
      </trkpt>
      <trkpt lat="45.06362" lon="0.60043">
        <ele>121.74</ele>
        <time>2018-01-18T13:28:49Z</time>
      </trkpt>
      <trkpt lat="45.06365" lon="0.60047">
        <ele>121.26</ele>
        <time>2018-01-18T13:28:53Z</time>
      </trkpt>
      <trkpt lat="45.06367" lon="0.60048">
        <ele>121.26</ele>
        <time>2018-01-18T13:28:55Z</time>
      </trkpt>
      <trkpt lat="45.06382" lon="0.60062">
        <ele>120.78</ele>
        <time>2018-01-18T13:29:11Z</time>
      </trkpt>
      <trkpt lat="45.06397" lon="0.60075">
        <ele>120.3</ele>
        <time>2018-01-18T13:29:27Z</time>
      </trkpt>
      <trkpt lat="45.0641" lon="0.60085">
        <ele>119.34</ele>
        <time>2018-01-18T13:29:43Z</time>
      </trkpt>
      <trkpt lat="45.06411" lon="0.60088">
        <ele>119.34</ele>
        <time>2018-01-18T13:29:46Z</time>
      </trkpt>
      <trkpt lat="45.06411" lon="0.60091">
        <ele>118.86</ele>
        <time>2018-01-18T13:29:48Z</time>
      </trkpt>
      <trkpt lat="45.06404" lon="0.60101">
        <ele>118.86</ele>
        <time>2018-01-18T13:29:56Z</time>
      </trkpt>
      <trkpt lat="45.06399" lon="0.6011">
        <ele>118.38</ele>
        <time>2018-01-18T13:30:03Z</time>
      </trkpt>
      <trkpt lat="45.06388" lon="0.60133">
        <ele>116.94</ele>
        <time>2018-01-18T13:30:20Z</time>
      </trkpt>
      <trkpt lat="45.06378" lon="0.60154">
        <ele>116.46</ele>
        <time>2018-01-18T13:30:37Z</time>
      </trkpt>
      <trkpt lat="45.0637" lon="0.60166">
        <ele>116.46</ele>
        <time>2018-01-18T13:30:50Z</time>
      </trkpt>
      <trkpt lat="45.0637" lon="0.60171">
        <ele>116.46</ele>
        <time>2018-01-18T13:31:00Z</time>
      </trkpt>
      <trkpt lat="45.06365" lon="0.6019">
        <ele>115.5</ele>
        <time>2018-01-18T13:31:15Z</time>
      </trkpt>
      <trkpt lat="45.0636" lon="0.60204">
        <ele>115.5</ele>
        <time>2018-01-18T13:31:25Z</time>
      </trkpt>
      <trkpt lat="45.0635" lon="0.6022">
        <ele>115.01</ele>
        <time>2018-01-18T13:31:39Z</time>
      </trkpt>
      <trkpt lat="45.06335" lon="0.60242">
        <ele>115.01</ele>
        <time>2018-01-18T13:31:57Z</time>
      </trkpt>
      <trkpt lat="45.0632" lon="0.60263">
        <ele>115.01</ele>
        <time>2018-01-18T13:32:15Z</time>
      </trkpt>
      <trkpt lat="45.06305" lon="0.60286">
        <ele>115.98</ele>
        <time>2018-01-18T13:32:33Z</time>
      </trkpt>
      <trkpt lat="45.06291" lon="0.60307">
        <ele>115.98</ele>
        <time>2018-01-18T13:32:51Z</time>
      </trkpt>
      <trkpt lat="45.06278" lon="0.60326">
        <ele>115.98</ele>
        <time>2018-01-18T13:33:07Z</time>
      </trkpt>
      <trkpt lat="45.06262" lon="0.60348">
        <ele>115.98</ele>
        <time>2018-01-18T13:33:25Z</time>
      </trkpt>
      <trkpt lat="45.06247" lon="0.60372">
        <ele>116.94</ele>
        <time>2018-01-18T13:33:45Z</time>
      </trkpt>
      <trkpt lat="45.06235" lon="0.60396">
        <ele>117.42</ele>
        <time>2018-01-18T13:34:03Z</time>
      </trkpt>
      <trkpt lat="45.06226" lon="0.60419">
        <ele>117.9</ele>
        <time>2018-01-18T13:34:19Z</time>
      </trkpt>
      <trkpt lat="45.06216" lon="0.60447">
        <ele>118.38</ele>
        <time>2018-01-18T13:34:38Z</time>
      </trkpt>
      <trkpt lat="45.06206" lon="0.60475">
        <ele>117.9</ele>
        <time>2018-01-18T13:34:57Z</time>
      </trkpt>
      <trkpt lat="45.06199" lon="0.60502">
        <ele>118.38</ele>
        <time>2018-01-18T13:35:15Z</time>
      </trkpt>
      <trkpt lat="45.0619" lon="0.60528">
        <ele>118.38</ele>
        <time>2018-01-18T13:35:31Z</time>
      </trkpt>
      <trkpt lat="45.06183" lon="0.60552">
        <ele>118.86</ele>
        <time>2018-01-18T13:35:47Z</time>
      </trkpt>
      <trkpt lat="45.0618" lon="0.60561">
        <ele>118.86</ele>
        <time>2018-01-18T13:35:52Z</time>
      </trkpt>
      <trkpt lat="45.06172" lon="0.60588">
        <ele>119.34</ele>
        <time>2018-01-18T13:36:09Z</time>
      </trkpt>
      <trkpt lat="45.06163" lon="0.60615">
        <ele>119.82</ele>
        <time>2018-01-18T13:36:26Z</time>
      </trkpt>
      <trkpt lat="45.06154" lon="0.60641">
        <ele>119.82</ele>
        <time>2018-01-18T13:36:42Z</time>
      </trkpt>
      <trkpt lat="45.0615" lon="0.60655">
        <ele>119.82</ele>
        <time>2018-01-18T13:36:51Z</time>
      </trkpt>
      <trkpt lat="45.06142" lon="0.6068">
        <ele>119.82</ele>
        <time>2018-01-18T13:37:06Z</time>
      </trkpt>
      <trkpt lat="45.06139" lon="0.60701">
        <ele>119.82</ele>
        <time>2018-01-18T13:37:21Z</time>
      </trkpt>
      <trkpt lat="45.06131" lon="0.60722">
        <ele>119.82</ele>
        <time>2018-01-18T13:37:35Z</time>
      </trkpt>
      <trkpt lat="45.0612" lon="0.60748">
        <ele>120.3</ele>
        <time>2018-01-18T13:37:52Z</time>
      </trkpt>
      <trkpt lat="45.06111" lon="0.60774">
        <ele>120.3</ele>
        <time>2018-01-18T13:38:08Z</time>
      </trkpt>
      <trkpt lat="45.06103" lon="0.60802">
        <ele>121.26</ele>
        <time>2018-01-18T13:38:26Z</time>
      </trkpt>
      <trkpt lat="45.06097" lon="0.60829">
        <ele>121.74</ele>
        <time>2018-01-18T13:38:43Z</time>
      </trkpt>
      <trkpt lat="45.06092" lon="0.60855">
        <ele>123.19</ele>
        <time>2018-01-18T13:39:00Z</time>
      </trkpt>
      <trkpt lat="45.06086" lon="0.60885">
        <ele>124.15</ele>
        <time>2018-01-18T13:39:18Z</time>
      </trkpt>
      <trkpt lat="45.06085" lon="0.60893">
        <ele>124.15</ele>
        <time>2018-01-18T13:39:23Z</time>
      </trkpt>
      <trkpt lat="45.06083" lon="0.60907">
        <ele>124.63</ele>
        <time>2018-01-18T13:39:32Z</time>
      </trkpt>
      <trkpt lat="45.06081" lon="0.60917">
        <ele>125.11</ele>
        <time>2018-01-18T13:39:38Z</time>
      </trkpt>
      <trkpt lat="45.06079" lon="0.60933">
        <ele>126.07</ele>
        <time>2018-01-18T13:39:48Z</time>
      </trkpt>
      <trkpt lat="45.0608" lon="0.60938">
        <ele>126.07</ele>
        <time>2018-01-18T13:39:54Z</time>
      </trkpt>
      <trkpt lat="45.06078" lon="0.60949">
        <ele>126.07</ele>
        <time>2018-01-18T13:40:02Z</time>
      </trkpt>
      <trkpt lat="45.06076" lon="0.60953">
        <ele>126.07</ele>
        <time>2018-01-18T13:40:05Z</time>
      </trkpt>
      <trkpt lat="45.0607" lon="0.6098">
        <ele>127.03</ele>
        <time>2018-01-18T13:40:22Z</time>
      </trkpt>
      <trkpt lat="45.06066" lon="0.60998">
        <ele>128.47</ele>
        <time>2018-01-18T13:40:36Z</time>
      </trkpt>
      <trkpt lat="45.06064" lon="0.61008">
        <ele>128.47</ele>
        <time>2018-01-18T13:40:44Z</time>
      </trkpt>
      <trkpt lat="45.06061" lon="0.61024">
        <ele>128.95</ele>
        <time>2018-01-18T13:40:54Z</time>
      </trkpt>
      <trkpt lat="45.0606" lon="0.6103">
        <ele>129.92</ele>
        <time>2018-01-18T13:40:58Z</time>
      </trkpt>
      <trkpt lat="45.06059" lon="0.61034">
        <ele>130.4</ele>
        <time>2018-01-18T13:41:01Z</time>
      </trkpt>
      <trkpt lat="45.06057" lon="0.61044">
        <ele>130.88</ele>
        <time>2018-01-18T13:41:07Z</time>
      </trkpt>
      <trkpt lat="45.06055" lon="0.6105">
        <ele>131.84</ele>
        <time>2018-01-18T13:41:11Z</time>
      </trkpt>
      <trkpt lat="45.06053" lon="0.61055">
        <ele>131.84</ele>
        <time>2018-01-18T13:41:14Z</time>
      </trkpt>
      <trkpt lat="45.0605" lon="0.61065">
        <ele>132.8</ele>
        <time>2018-01-18T13:41:21Z</time>
      </trkpt>
      <trkpt lat="45.06047" lon="0.61074">
        <ele>133.28</ele>
        <time>2018-01-18T13:41:27Z</time>
      </trkpt>
      <trkpt lat="45.06044" lon="0.61091">
        <ele>134.24</ele>
        <time>2018-01-18T13:41:41Z</time>
      </trkpt>
      <trkpt lat="45.06044" lon="0.61097">
        <ele>134.72</ele>
        <time>2018-01-18T13:41:54Z</time>
      </trkpt>
      <trkpt lat="45.06045" lon="0.61095">
        <ele>134.72</ele>
        <time>2018-01-18T13:42:17Z</time>
      </trkpt>
      <trkpt lat="45.06044" lon="0.61094">
        <ele>134.72</ele>
        <time>2018-01-18T13:42:27Z</time>
      </trkpt>
      <trkpt lat="45.06045" lon="0.61095">
        <ele>134.72</ele>
        <time>2018-01-18T13:42:43Z</time>
      </trkpt>
      <trkpt lat="45.06045" lon="0.61093">
        <ele>134.72</ele>
        <time>2018-01-18T13:43:06Z</time>
      </trkpt>
      <trkpt lat="45.06046" lon="0.61094">
        <ele>134.72</ele>
        <time>2018-01-18T13:43:27Z</time>
      </trkpt>
      <trkpt lat="45.06042" lon="0.61096">
        <ele>134.72</ele>
        <time>2018-01-18T13:43:42Z</time>
      </trkpt>
      <trkpt lat="45.06039" lon="0.61095">
        <ele>134.72</ele>
        <time>2018-01-18T13:43:51Z</time>
      </trkpt>
      <trkpt lat="45.06036" lon="0.61097">
        <ele>134.72</ele>
        <time>2018-01-18T13:44:05Z</time>
      </trkpt>
      <trkpt lat="45.06041" lon="0.61094">
        <ele>134.72</ele>
        <time>2018-01-18T13:44:21Z</time>
      </trkpt>
      <trkpt lat="45.06042" lon="0.61099">
        <ele>134.72</ele>
        <time>2018-01-18T13:44:33Z</time>
      </trkpt>
      <trkpt lat="45.06046" lon="0.61099">
        <ele>134.72</ele>
        <time>2018-01-18T13:44:55Z</time>
      </trkpt>
      <trkpt lat="45.06049" lon="0.61096">
        <ele>134.72</ele>
        <time>2018-01-18T13:45:09Z</time>
      </trkpt>
      <trkpt lat="45.06048" lon="0.61094">
        <ele>134.72</ele>
        <time>2018-01-18T13:45:30Z</time>
      </trkpt>
      <trkpt lat="45.06049" lon="0.61094">
        <ele>134.72</ele>
        <time>2018-01-18T13:45:47Z</time>
      </trkpt>
      <trkpt lat="45.06051" lon="0.61095">
        <ele>134.72</ele>
        <time>2018-01-18T13:46:00Z</time>
      </trkpt>
      <trkpt lat="45.06051" lon="0.61096">
        <ele>133.28</ele>
        <time>2018-01-18T13:46:15Z</time>
      </trkpt>
      <trkpt lat="45.06051" lon="0.61097">
        <ele>134.24</ele>
        <time>2018-01-18T13:46:36Z</time>
      </trkpt>
      <trkpt lat="45.06052" lon="0.61097">
        <ele>134.24</ele>
        <time>2018-01-18T13:46:47Z</time>
      </trkpt>
      <trkpt lat="45.06052" lon="0.61098">
        <ele>134.24</ele>
        <time>2018-01-18T13:47:11Z</time>
      </trkpt>
      <trkpt lat="45.06052" lon="0.61098">
        <ele>134.24</ele>
        <time>2018-01-18T13:47:29Z</time>
      </trkpt>
      <trkpt lat="45.06051" lon="0.61098">
        <ele>133.76</ele>
        <time>2018-01-18T13:47:57Z</time>
      </trkpt>
      <trkpt lat="45.06052" lon="0.61096">
        <ele>133.76</ele>
        <time>2018-01-18T13:48:23Z</time>
      </trkpt>
      <trkpt lat="45.06053" lon="0.611">
        <ele>133.76</ele>
        <time>2018-01-18T13:48:53Z</time>
      </trkpt>
      <trkpt lat="45.06051" lon="0.611">
        <ele>133.76</ele>
        <time>2018-01-18T13:49:19Z</time>
      </trkpt>
      <trkpt lat="45.0605" lon="0.61099">
        <ele>133.76</ele>
        <time>2018-01-18T13:49:43Z</time>
      </trkpt>
      <trkpt lat="45.06052" lon="0.61098">
        <ele>134.24</ele>
        <time>2018-01-18T13:50:15Z</time>
      </trkpt>
      <trkpt lat="45.06051" lon="0.61098">
        <ele>134.24</ele>
        <time>2018-01-18T13:50:48Z</time>
      </trkpt>
      <trkpt lat="45.06051" lon="0.61098">
        <ele>134.24</ele>
        <time>2018-01-18T13:51:17Z</time>
      </trkpt>
      <trkpt lat="45.06049" lon="0.61097">
        <ele>134.24</ele>
        <time>2018-01-18T13:51:52Z</time>
      </trkpt>
      <trkpt lat="45.06048" lon="0.61098">
        <ele>134.72</ele>
        <time>2018-01-18T13:52:20Z</time>
      </trkpt>
      <trkpt lat="45.0605" lon="0.61098">
        <ele>134.72</ele>
        <time>2018-01-18T13:52:57Z</time>
      </trkpt>
      <trkpt lat="45.06051" lon="0.61098">
        <ele>134.72</ele>
        <time>2018-01-18T13:53:23Z</time>
      </trkpt>
      <trkpt lat="45.06048" lon="0.61097">
        <ele>134.72</ele>
        <time>2018-01-18T13:53:55Z</time>
      </trkpt>
      <trkpt lat="45.06051" lon="0.61097">
        <ele>135.2</ele>
        <time>2018-01-18T13:54:29Z</time>
      </trkpt>
      <trkpt lat="45.06049" lon="0.61098">
        <ele>135.2</ele>
        <time>2018-01-18T13:54:58Z</time>
      </trkpt>
      <trkpt lat="45.06051" lon="0.61096">
        <ele>135.2</ele>
        <time>2018-01-18T13:55:30Z</time>
      </trkpt>
      <trkpt lat="45.06052" lon="0.61098">
        <ele>135.68</ele>
        <time>2018-01-18T13:56:03Z</time>
      </trkpt>
      <trkpt lat="45.06051" lon="0.61099">
        <ele>135.68</ele>
        <time>2018-01-18T13:56:35Z</time>
      </trkpt>
      <trkpt lat="45.06052" lon="0.61097">
        <ele>135.68</ele>
        <time>2018-01-18T13:57:05Z</time>
      </trkpt>
      <trkpt lat="45.06051" lon="0.61097">
        <ele>135.68</ele>
        <time>2018-01-18T13:57:37Z</time>
      </trkpt>
      <trkpt lat="45.06051" lon="0.61097">
        <ele>135.68</ele>
        <time>2018-01-18T13:58:05Z</time>
      </trkpt>
      <trkpt lat="45.06048" lon="0.61097">
        <ele>135.68</ele>
        <time>2018-01-18T13:58:28Z</time>
      </trkpt>
      <trkpt lat="45.06048" lon="0.61097">
        <ele>135.68</ele>
        <time>2018-01-18T13:58:55Z</time>
      </trkpt>
      <trkpt lat="45.0605" lon="0.61098">
        <ele>135.68</ele>
        <time>2018-01-18T13:59:16Z</time>
      </trkpt>
      <trkpt lat="45.06052" lon="0.61097">
        <ele>135.68</ele>
        <time>2018-01-18T13:59:43Z</time>
      </trkpt>
      <trkpt lat="45.06051" lon="0.61099">
        <ele>135.68</ele>
        <time>2018-01-18T14:00:04Z</time>
      </trkpt>
      <trkpt lat="45.06041" lon="0.61103">
        <ele>136.16</ele>
        <time>2018-01-18T14:00:18Z</time>
      </trkpt>
      <trkpt lat="45.06039" lon="0.61106">
        <ele>136.16</ele>
        <time>2018-01-18T14:00:22Z</time>
      </trkpt>
      <trkpt lat="45.06036" lon="0.61116">
        <ele>137.13</ele>
        <time>2018-01-18T14:00:35Z</time>
      </trkpt>
      <trkpt lat="45.06028" lon="0.61125">
        <ele>138.09</ele>
        <time>2018-01-18T14:00:47Z</time>
      </trkpt>
      <trkpt lat="45.06017" lon="0.61139">
        <ele>138.09</ele>
        <time>2018-01-18T14:01:02Z</time>
      </trkpt>
      <trkpt lat="45.06008" lon="0.61161">
        <ele>138.57</ele>
        <time>2018-01-18T14:01:18Z</time>
      </trkpt>
      <trkpt lat="45.06007" lon="0.61162">
        <ele>138.57</ele>
        <time>2018-01-18T14:01:19Z</time>
      </trkpt>
      <trkpt lat="45.06004" lon="0.61167">
        <ele>138.57</ele>
        <time>2018-01-18T14:01:23Z</time>
      </trkpt>
      <trkpt lat="45.05993" lon="0.61182">
        <ele>136.64</ele>
        <time>2018-01-18T14:01:36Z</time>
      </trkpt>
      <trkpt lat="45.05985" lon="0.61208">
        <ele>135.68</ele>
        <time>2018-01-18T14:01:53Z</time>
      </trkpt>
      <trkpt lat="45.05984" lon="0.61227">
        <ele>135.2</ele>
        <time>2018-01-18T14:02:05Z</time>
      </trkpt>
      <trkpt lat="45.05991" lon="0.61255">
        <ele>135.2</ele>
        <time>2018-01-18T14:02:22Z</time>
      </trkpt>
      <trkpt lat="45.05995" lon="0.61273">
        <ele>136.64</ele>
        <time>2018-01-18T14:02:35Z</time>
      </trkpt>
      <trkpt lat="45.0599" lon="0.61277">
        <ele>137.61</ele>
        <time>2018-01-18T14:02:47Z</time>
      </trkpt>
      <trkpt lat="45.05974" lon="0.61275">
        <ele>139.53</ele>
        <time>2018-01-18T14:03:03Z</time>
      </trkpt>
      <trkpt lat="45.05963" lon="0.6127">
        <ele>141.45</ele>
        <time>2018-01-18T14:03:17Z</time>
      </trkpt>
      <trkpt lat="45.05952" lon="0.61266">
        <ele>142.89</ele>
        <time>2018-01-18T14:03:30Z</time>
      </trkpt>
      <trkpt lat="45.05937" lon="0.61259">
        <ele>144.82</ele>
        <time>2018-01-18T14:03:46Z</time>
      </trkpt>
      <trkpt lat="45.05924" lon="0.61256">
        <ele>146.26</ele>
        <time>2018-01-18T14:04:01Z</time>
      </trkpt>
      <trkpt lat="45.0591" lon="0.61252">
        <ele>147.22</ele>
        <time>2018-01-18T14:04:16Z</time>
      </trkpt>
      <trkpt lat="45.059" lon="0.61249">
        <ele>148.66</ele>
        <time>2018-01-18T14:04:29Z</time>
      </trkpt>
      <trkpt lat="45.05899" lon="0.61258">
        <ele>150.58</ele>
        <time>2018-01-18T14:04:44Z</time>
      </trkpt>
      <trkpt lat="45.05905" lon="0.61262">
        <ele>151.06</ele>
        <time>2018-01-18T14:04:53Z</time>
      </trkpt>
      <trkpt lat="45.05917" lon="0.61279">
        <ele>152.03</ele>
        <time>2018-01-18T14:05:10Z</time>
      </trkpt>
      <trkpt lat="45.05923" lon="0.61295">
        <ele>154.43</ele>
        <time>2018-01-18T14:05:24Z</time>
      </trkpt>
      <trkpt lat="45.05919" lon="0.61315">
        <ele>155.87</ele>
        <time>2018-01-18T14:05:39Z</time>
      </trkpt>
      <trkpt lat="45.05914" lon="0.61328">
        <ele>157.79</ele>
        <time>2018-01-18T14:05:51Z</time>
      </trkpt>
      <trkpt lat="45.05907" lon="0.61339">
        <ele>159.72</ele>
        <time>2018-01-18T14:06:03Z</time>
      </trkpt>
      <trkpt lat="45.05898" lon="0.61349">
        <ele>160.68</ele>
        <time>2018-01-18T14:06:14Z</time>
      </trkpt>
      <trkpt lat="45.05886" lon="0.61355">
        <ele>162.6</ele>
        <time>2018-01-18T14:06:28Z</time>
      </trkpt>
      <trkpt lat="45.05873" lon="0.61361">
        <ele>165</ele>
        <time>2018-01-18T14:06:45Z</time>
      </trkpt>
      <trkpt lat="45.05862" lon="0.61366">
        <ele>165.96</ele>
        <time>2018-01-18T14:06:59Z</time>
      </trkpt>
      <trkpt lat="45.05856" lon="0.61369">
        <ele>166.93</ele>
        <time>2018-01-18T14:07:07Z</time>
      </trkpt>
      <trkpt lat="45.05843" lon="0.61371">
        <ele>168.37</ele>
        <time>2018-01-18T14:07:21Z</time>
      </trkpt>
      <trkpt lat="45.05834" lon="0.61372">
        <ele>169.33</ele>
        <time>2018-01-18T14:07:34Z</time>
      </trkpt>
      <trkpt lat="45.05825" lon="0.61378">
        <ele>170.77</ele>
        <time>2018-01-18T14:07:49Z</time>
      </trkpt>
      <trkpt lat="45.05811" lon="0.61383">
        <ele>172.21</ele>
        <time>2018-01-18T14:08:04Z</time>
      </trkpt>
      <trkpt lat="45.05796" lon="0.61386">
        <ele>173.66</ele>
        <time>2018-01-18T14:08:19Z</time>
      </trkpt>
      <trkpt lat="45.05783" lon="0.61389">
        <ele>174.62</ele>
        <time>2018-01-18T14:08:34Z</time>
      </trkpt>
      <trkpt lat="45.05772" lon="0.61395">
        <ele>176.06</ele>
        <time>2018-01-18T14:08:47Z</time>
      </trkpt>
      <trkpt lat="45.05761" lon="0.61403">
        <ele>177.5</ele>
        <time>2018-01-18T14:09:01Z</time>
      </trkpt>
      <trkpt lat="45.0575" lon="0.61407">
        <ele>177.98</ele>
        <time>2018-01-18T14:09:13Z</time>
      </trkpt>
      <trkpt lat="45.05736" lon="0.61417">
        <ele>179.42</ele>
        <time>2018-01-18T14:09:29Z</time>
      </trkpt>
      <trkpt lat="45.05725" lon="0.61423">
        <ele>180.38</ele>
        <time>2018-01-18T14:09:42Z</time>
      </trkpt>
      <trkpt lat="45.05713" lon="0.6143">
        <ele>181.35</ele>
        <time>2018-01-18T14:09:56Z</time>
      </trkpt>
      <trkpt lat="45.057" lon="0.61439">
        <ele>181.83</ele>
        <time>2018-01-18T14:10:10Z</time>
      </trkpt>
      <trkpt lat="45.05687" lon="0.61446">
        <ele>182.31</ele>
        <time>2018-01-18T14:10:25Z</time>
      </trkpt>
      <trkpt lat="45.05672" lon="0.61453">
        <ele>183.27</ele>
        <time>2018-01-18T14:10:39Z</time>
      </trkpt>
      <trkpt lat="45.05657" lon="0.61461">
        <ele>183.27</ele>
        <time>2018-01-18T14:10:53Z</time>
      </trkpt>
      <trkpt lat="45.05644" lon="0.61468">
        <ele>184.23</ele>
        <time>2018-01-18T14:11:08Z</time>
      </trkpt>
      <trkpt lat="45.05631" lon="0.61477">
        <ele>184.23</ele>
        <time>2018-01-18T14:11:22Z</time>
      </trkpt>
      <trkpt lat="45.05617" lon="0.61489">
        <ele>184.71</ele>
        <time>2018-01-18T14:11:37Z</time>
      </trkpt>
      <trkpt lat="45.05602" lon="0.61497">
        <ele>185.19</ele>
        <time>2018-01-18T14:11:52Z</time>
      </trkpt>
      <trkpt lat="45.05589" lon="0.61502">
        <ele>185.67</ele>
        <time>2018-01-18T14:12:05Z</time>
      </trkpt>
      <trkpt lat="45.05574" lon="0.61503">
        <ele>186.15</ele>
        <time>2018-01-18T14:12:21Z</time>
      </trkpt>
      <trkpt lat="45.05575" lon="0.61505">
        <ele>186.15</ele>
        <time>2018-01-18T14:12:37Z</time>
      </trkpt>
      <trkpt lat="45.05573" lon="0.61507">
        <ele>186.15</ele>
        <time>2018-01-18T14:12:55Z</time>
      </trkpt>
      <trkpt lat="45.05566" lon="0.61504">
        <ele>186.15</ele>
        <time>2018-01-18T14:13:17Z</time>
      </trkpt>
      <trkpt lat="45.05561" lon="0.61504">
        <ele>186.63</ele>
        <time>2018-01-18T14:13:31Z</time>
      </trkpt>
      <trkpt lat="45.05544" lon="0.61512">
        <ele>187.11</ele>
        <time>2018-01-18T14:13:45Z</time>
      </trkpt>
      <trkpt lat="45.05527" lon="0.61518">
        <ele>188.08</ele>
        <time>2018-01-18T14:14:01Z</time>
      </trkpt>
      <trkpt lat="45.05513" lon="0.61527">
        <ele>188.56</ele>
        <time>2018-01-18T14:14:17Z</time>
      </trkpt>
      <trkpt lat="45.05497" lon="0.61533">
        <ele>189.52</ele>
        <time>2018-01-18T14:14:32Z</time>
      </trkpt>
      <trkpt lat="45.05485" lon="0.61538">
        <ele>190</ele>
        <time>2018-01-18T14:14:46Z</time>
      </trkpt>
      <trkpt lat="45.05484" lon="0.61539">
        <ele>190.48</ele>
        <time>2018-01-18T14:15:02Z</time>
      </trkpt>
      <trkpt lat="45.05486" lon="0.61538">
        <ele>190.48</ele>
        <time>2018-01-18T14:15:18Z</time>
      </trkpt>
      <trkpt lat="45.05489" lon="0.61534">
        <ele>190.96</ele>
        <time>2018-01-18T14:15:44Z</time>
      </trkpt>
      <trkpt lat="45.0549" lon="0.61534">
        <ele>190.96</ele>
        <time>2018-01-18T14:16:09Z</time>
      </trkpt>
      <trkpt lat="45.05493" lon="0.61537">
        <ele>190.96</ele>
        <time>2018-01-18T14:16:28Z</time>
      </trkpt>
      <trkpt lat="45.0549" lon="0.61533">
        <ele>191.44</ele>
        <time>2018-01-18T14:16:55Z</time>
      </trkpt>
      <trkpt lat="45.05488" lon="0.61535">
        <ele>191.44</ele>
        <time>2018-01-18T14:17:17Z</time>
      </trkpt>
      <trkpt lat="45.05482" lon="0.61536">
        <ele>191.44</ele>
        <time>2018-01-18T14:17:44Z</time>
      </trkpt>
      <trkpt lat="45.05484" lon="0.61532">
        <ele>191.44</ele>
        <time>2018-01-18T14:18:05Z</time>
      </trkpt>
      <trkpt lat="45.05487" lon="0.61533">
        <ele>191.44</ele>
        <time>2018-01-18T14:18:32Z</time>
      </trkpt>
      <trkpt lat="45.05479" lon="0.61534">
        <ele>191.44</ele>
        <time>2018-01-18T14:18:53Z</time>
      </trkpt>
      <trkpt lat="45.05465" lon="0.61535">
        <ele>192.4</ele>
        <time>2018-01-18T14:19:07Z</time>
      </trkpt>
      <trkpt lat="45.05451" lon="0.61535">
        <ele>192.88</ele>
        <time>2018-01-18T14:19:21Z</time>
      </trkpt>
      <trkpt lat="45.05445" lon="0.61535">
        <ele>192.88</ele>
        <time>2018-01-18T14:19:28Z</time>
      </trkpt>
      <trkpt lat="45.05431" lon="0.61531">
        <ele>193.36</ele>
        <time>2018-01-18T14:19:41Z</time>
      </trkpt>
      <trkpt lat="45.05427" lon="0.61531">
        <ele>193.36</ele>
        <time>2018-01-18T14:19:44Z</time>
      </trkpt>
      <trkpt lat="45.0541" lon="0.61522">
        <ele>193.36</ele>
        <time>2018-01-18T14:20:03Z</time>
      </trkpt>
      <trkpt lat="45.05397" lon="0.61514">
        <ele>193.36</ele>
        <time>2018-01-18T14:20:20Z</time>
      </trkpt>
      <trkpt lat="45.05381" lon="0.61509">
        <ele>192.88</ele>
        <time>2018-01-18T14:20:35Z</time>
      </trkpt>
      <trkpt lat="45.05366" lon="0.61503">
        <ele>191.44</ele>
        <time>2018-01-18T14:20:50Z</time>
      </trkpt>
      <trkpt lat="45.0535" lon="0.61501">
        <ele>190.48</ele>
        <time>2018-01-18T14:21:05Z</time>
      </trkpt>
      <trkpt lat="45.05334" lon="0.61501">
        <ele>190.48</ele>
        <time>2018-01-18T14:21:19Z</time>
      </trkpt>
      <trkpt lat="45.05322" lon="0.61505">
        <ele>190</ele>
        <time>2018-01-18T14:21:35Z</time>
      </trkpt>
      <trkpt lat="45.0531" lon="0.6151">
        <ele>191.44</ele>
        <time>2018-01-18T14:21:46Z</time>
      </trkpt>
      <trkpt lat="45.05293" lon="0.61518">
        <ele>191.44</ele>
        <time>2018-01-18T14:22:02Z</time>
      </trkpt>
      <trkpt lat="45.05275" lon="0.61525">
        <ele>191.44</ele>
        <time>2018-01-18T14:22:19Z</time>
      </trkpt>
      <trkpt lat="45.05257" lon="0.61524">
        <ele>191.44</ele>
        <time>2018-01-18T14:22:35Z</time>
      </trkpt>
      <trkpt lat="45.05246" lon="0.61519">
        <ele>191.44</ele>
        <time>2018-01-18T14:22:45Z</time>
      </trkpt>
      <trkpt lat="45.05228" lon="0.61511">
        <ele>192.4</ele>
        <time>2018-01-18T14:23:02Z</time>
      </trkpt>
      <trkpt lat="45.05208" lon="0.61495">
        <ele>192.4</ele>
        <time>2018-01-18T14:23:21Z</time>
      </trkpt>
      <trkpt lat="45.05191" lon="0.61473">
        <ele>190.96</ele>
        <time>2018-01-18T14:23:41Z</time>
      </trkpt>
      <trkpt lat="45.05178" lon="0.61448">
        <ele>190</ele>
        <time>2018-01-18T14:24:00Z</time>
      </trkpt>
      <trkpt lat="45.0516" lon="0.61424">
        <ele>188.08</ele>
        <time>2018-01-18T14:24:21Z</time>
      </trkpt>
      <trkpt lat="45.05141" lon="0.6141">
        <ele>188.08</ele>
        <time>2018-01-18T14:24:39Z</time>
      </trkpt>
      <trkpt lat="45.05124" lon="0.61399">
        <ele>188.08</ele>
        <time>2018-01-18T14:24:55Z</time>
      </trkpt>
      <trkpt lat="45.05103" lon="0.61384">
        <ele>187.59</ele>
        <time>2018-01-18T14:25:15Z</time>
      </trkpt>
      <trkpt lat="45.05099" lon="0.61381">
        <ele>187.59</ele>
        <time>2018-01-18T14:25:19Z</time>
      </trkpt>
      <trkpt lat="45.05092" lon="0.61375">
        <ele>187.11</ele>
        <time>2018-01-18T14:25:26Z</time>
      </trkpt>
      <trkpt lat="45.05074" lon="0.6136">
        <ele>186.63</ele>
        <time>2018-01-18T14:25:44Z</time>
      </trkpt>
      <trkpt lat="45.05054" lon="0.61345">
        <ele>184.23</ele>
        <time>2018-01-18T14:26:03Z</time>
      </trkpt>
      <trkpt lat="45.05033" lon="0.61339">
        <ele>181.35</ele>
        <time>2018-01-18T14:26:22Z</time>
      </trkpt>
      <trkpt lat="45.0501" lon="0.6133">
        <ele>180.38</ele>
        <time>2018-01-18T14:26:42Z</time>
      </trkpt>
      <trkpt lat="45.04993" lon="0.61312">
        <ele>179.9</ele>
        <time>2018-01-18T14:26:59Z</time>
      </trkpt>
      <trkpt lat="45.04982" lon="0.61284">
        <ele>179.9</ele>
        <time>2018-01-18T14:27:16Z</time>
      </trkpt>
      <trkpt lat="45.04979" lon="0.61275">
        <ele>179.9</ele>
        <time>2018-01-18T14:27:22Z</time>
      </trkpt>
      <trkpt lat="45.04968" lon="0.61247">
        <ele>181.35</ele>
        <time>2018-01-18T14:27:41Z</time>
      </trkpt>
      <trkpt lat="45.04963" lon="0.61231">
        <ele>182.31</ele>
        <time>2018-01-18T14:27:51Z</time>
      </trkpt>
      <trkpt lat="45.0496" lon="0.61224">
        <ele>182.31</ele>
        <time>2018-01-18T14:27:56Z</time>
      </trkpt>
      <trkpt lat="45.04949" lon="0.61199">
        <ele>182.79</ele>
        <time>2018-01-18T14:28:13Z</time>
      </trkpt>
      <trkpt lat="45.04937" lon="0.61176">
        <ele>182.79</ele>
        <time>2018-01-18T14:28:31Z</time>
      </trkpt>
      <trkpt lat="45.04924" lon="0.61152">
        <ele>181.35</ele>
        <time>2018-01-18T14:28:49Z</time>
      </trkpt>
      <trkpt lat="45.04916" lon="0.61122">
        <ele>181.35</ele>
        <time>2018-01-18T14:29:07Z</time>
      </trkpt>
      <trkpt lat="45.04906" lon="0.61096">
        <ele>180.87</ele>
        <time>2018-01-18T14:29:24Z</time>
      </trkpt>
      <trkpt lat="45.04896" lon="0.6107">
        <ele>182.31</ele>
        <time>2018-01-18T14:29:41Z</time>
      </trkpt>
      <trkpt lat="45.04885" lon="0.61046">
        <ele>182.31</ele>
        <time>2018-01-18T14:29:59Z</time>
      </trkpt>
      <trkpt lat="45.0488" lon="0.61031">
        <ele>182.31</ele>
        <time>2018-01-18T14:30:09Z</time>
      </trkpt>
      <trkpt lat="45.04881" lon="0.61023">
        <ele>181.35</ele>
        <time>2018-01-18T14:30:14Z</time>
      </trkpt>
      <trkpt lat="45.04882" lon="0.6099">
        <ele>179.9</ele>
        <time>2018-01-18T14:30:35Z</time>
      </trkpt>
      <trkpt lat="45.0487" lon="0.60973">
        <ele>177.98</ele>
        <time>2018-01-18T14:30:53Z</time>
      </trkpt>
      <trkpt lat="45.04863" lon="0.60966">
        <ele>176.54</ele>
        <time>2018-01-18T14:31:09Z</time>
      </trkpt>
      <trkpt lat="45.04856" lon="0.60957">
        <ele>175.1</ele>
        <time>2018-01-18T14:31:23Z</time>
      </trkpt>
      <trkpt lat="45.04846" lon="0.60947">
        <ele>172.69</ele>
        <time>2018-01-18T14:31:39Z</time>
      </trkpt>
      <trkpt lat="45.04835" lon="0.60938">
        <ele>170.29</ele>
        <time>2018-01-18T14:31:53Z</time>
      </trkpt>
      <trkpt lat="45.04828" lon="0.6093">
        <ele>167.89</ele>
        <time>2018-01-18T14:32:06Z</time>
      </trkpt>
      <trkpt lat="45.04821" lon="0.60922">
        <ele>165.48</ele>
        <time>2018-01-18T14:32:19Z</time>
      </trkpt>
      <trkpt lat="45.04819" lon="0.60913">
        <ele>163.56</ele>
        <time>2018-01-18T14:32:35Z</time>
      </trkpt>
      <trkpt lat="45.04814" lon="0.609">
        <ele>160.2</ele>
        <time>2018-01-18T14:32:50Z</time>
      </trkpt>
      <trkpt lat="45.0481" lon="0.60892">
        <ele>157.31</ele>
        <time>2018-01-18T14:33:07Z</time>
      </trkpt>
      <trkpt lat="45.04803" lon="0.60883">
        <ele>154.91</ele>
        <time>2018-01-18T14:33:22Z</time>
      </trkpt>
      <trkpt lat="45.04794" lon="0.60876">
        <ele>152.03</ele>
        <time>2018-01-18T14:33:36Z</time>
      </trkpt>
      <trkpt lat="45.04783" lon="0.60862">
        <ele>150.1</ele>
        <time>2018-01-18T14:33:51Z</time>
      </trkpt>
      <trkpt lat="45.04771" lon="0.60835">
        <ele>148.66</ele>
        <time>2018-01-18T14:34:08Z</time>
      </trkpt>
      <trkpt lat="45.04769" lon="0.60833">
        <ele>148.66</ele>
        <time>2018-01-18T14:34:10Z</time>
      </trkpt>
      <trkpt lat="45.04761" lon="0.60813">
        <ele>150.1</ele>
        <time>2018-01-18T14:34:26Z</time>
      </trkpt>
      <trkpt lat="45.04754" lon="0.60797">
        <ele>152.03</ele>
        <time>2018-01-18T14:34:40Z</time>
      </trkpt>
      <trkpt lat="45.0475" lon="0.60789">
        <ele>153.95</ele>
        <time>2018-01-18T14:34:52Z</time>
      </trkpt>
      <trkpt lat="45.04746" lon="0.60778">
        <ele>157.31</ele>
        <time>2018-01-18T14:35:07Z</time>
      </trkpt>
      <trkpt lat="45.04743" lon="0.60765">
        <ele>159.72</ele>
        <time>2018-01-18T14:35:21Z</time>
      </trkpt>
      <trkpt lat="45.0474" lon="0.60752">
        <ele>162.12</ele>
        <time>2018-01-18T14:35:34Z</time>
      </trkpt>
      <trkpt lat="45.04738" lon="0.60739">
        <ele>163.56</ele>
        <time>2018-01-18T14:35:47Z</time>
      </trkpt>
      <trkpt lat="45.04732" lon="0.60728">
        <ele>165.48</ele>
        <time>2018-01-18T14:36:00Z</time>
      </trkpt>
      <trkpt lat="45.04731" lon="0.60729">
        <ele>165.96</ele>
        <time>2018-01-18T14:36:15Z</time>
      </trkpt>
      <trkpt lat="45.04732" lon="0.60729">
        <ele>166.45</ele>
        <time>2018-01-18T14:36:39Z</time>
      </trkpt>
      <trkpt lat="45.04729" lon="0.6073">
        <ele>165.96</ele>
        <time>2018-01-18T14:37:04Z</time>
      </trkpt>
      <trkpt lat="45.04716" lon="0.60741">
        <ele>166.45</ele>
        <time>2018-01-18T14:37:21Z</time>
      </trkpt>
      <trkpt lat="45.04713" lon="0.60743">
        <ele>166.45</ele>
        <time>2018-01-18T14:37:24Z</time>
      </trkpt>
      <trkpt lat="45.04698" lon="0.6075">
        <ele>166.93</ele>
        <time>2018-01-18T14:37:39Z</time>
      </trkpt>
      <trkpt lat="45.04681" lon="0.60761">
        <ele>167.89</ele>
        <time>2018-01-18T14:37:55Z</time>
      </trkpt>
      <trkpt lat="45.04667" lon="0.60766">
        <ele>167.89</ele>
        <time>2018-01-18T14:38:12Z</time>
      </trkpt>
      <trkpt lat="45.04653" lon="0.60771">
        <ele>168.37</ele>
        <time>2018-01-18T14:38:26Z</time>
      </trkpt>
      <trkpt lat="45.04635" lon="0.60779">
        <ele>169.33</ele>
        <time>2018-01-18T14:38:42Z</time>
      </trkpt>
      <trkpt lat="45.0462" lon="0.6079">
        <ele>170.29</ele>
        <time>2018-01-18T14:38:56Z</time>
      </trkpt>
      <trkpt lat="45.04606" lon="0.608">
        <ele>171.25</ele>
        <time>2018-01-18T14:39:12Z</time>
      </trkpt>
      <trkpt lat="45.04594" lon="0.6081">
        <ele>171.73</ele>
        <time>2018-01-18T14:39:25Z</time>
      </trkpt>
      <trkpt lat="45.0459" lon="0.60813">
        <ele>172.21</ele>
        <time>2018-01-18T14:39:29Z</time>
      </trkpt>
      <trkpt lat="45.04581" lon="0.60822">
        <ele>172.21</ele>
        <time>2018-01-18T14:39:39Z</time>
      </trkpt>
      <trkpt lat="45.04566" lon="0.60839">
        <ele>172.69</ele>
        <time>2018-01-18T14:39:56Z</time>
      </trkpt>
      <trkpt lat="45.04554" lon="0.60857">
        <ele>172.69</ele>
        <time>2018-01-18T14:40:12Z</time>
      </trkpt>
      <trkpt lat="45.04549" lon="0.60863">
        <ele>173.17</ele>
        <time>2018-01-18T14:40:18Z</time>
      </trkpt>
      <trkpt lat="45.04534" lon="0.60881">
        <ele>173.17</ele>
        <time>2018-01-18T14:40:34Z</time>
      </trkpt>
      <trkpt lat="45.04526" lon="0.60892">
        <ele>173.17</ele>
        <time>2018-01-18T14:40:44Z</time>
      </trkpt>
      <trkpt lat="45.04514" lon="0.60904">
        <ele>173.17</ele>
        <time>2018-01-18T14:40:58Z</time>
      </trkpt>
      <trkpt lat="45.04501" lon="0.60925">
        <ele>171.25</ele>
        <time>2018-01-18T14:41:14Z</time>
      </trkpt>
      <trkpt lat="45.04501" lon="0.60928">
        <ele>171.25</ele>
        <time>2018-01-18T14:41:16Z</time>
      </trkpt>
      <trkpt lat="45.04497" lon="0.60947">
        <ele>171.25</ele>
        <time>2018-01-18T14:41:29Z</time>
      </trkpt>
      <trkpt lat="45.04493" lon="0.60965">
        <ele>171.25</ele>
        <time>2018-01-18T14:41:40Z</time>
      </trkpt>
      <trkpt lat="45.04489" lon="0.60989">
        <ele>171.25</ele>
        <time>2018-01-18T14:41:52Z</time>
      </trkpt>
      <trkpt lat="45.04482" lon="0.61017">
        <ele>171.25</ele>
        <time>2018-01-18T14:42:07Z</time>
      </trkpt>
      <trkpt lat="45.04479" lon="0.61034">
        <ele>171.25</ele>
        <time>2018-01-18T14:42:19Z</time>
      </trkpt>
      <trkpt lat="45.04475" lon="0.61053">
        <ele>171.25</ele>
        <time>2018-01-18T14:42:33Z</time>
      </trkpt>
      <trkpt lat="45.04467" lon="0.61069">
        <ele>170.29</ele>
        <time>2018-01-18T14:42:45Z</time>
      </trkpt>
      <trkpt lat="45.04452" lon="0.61091">
        <ele>168.85</ele>
        <time>2018-01-18T14:43:01Z</time>
      </trkpt>
      <trkpt lat="45.04439" lon="0.61106">
        <ele>167.41</ele>
        <time>2018-01-18T14:43:16Z</time>
      </trkpt>
      <trkpt lat="45.04426" lon="0.61119">
        <ele>167.41</ele>
        <time>2018-01-18T14:43:31Z</time>
      </trkpt>
      <trkpt lat="45.0442" lon="0.61127">
        <ele>166.93</ele>
        <time>2018-01-18T14:43:39Z</time>
      </trkpt>
      <trkpt lat="45.04407" lon="0.61139">
        <ele>166.93</ele>
        <time>2018-01-18T14:43:53Z</time>
      </trkpt>
      <trkpt lat="45.04394" lon="0.61154">
        <ele>166.93</ele>
        <time>2018-01-18T14:44:10Z</time>
      </trkpt>
      <trkpt lat="45.04383" lon="0.61166">
        <ele>166.45</ele>
        <time>2018-01-18T14:44:23Z</time>
      </trkpt>
      <trkpt lat="45.04371" lon="0.61185">
        <ele>165.96</ele>
        <time>2018-01-18T14:44:38Z</time>
      </trkpt>
      <trkpt lat="45.04364" lon="0.612">
        <ele>165.96</ele>
        <time>2018-01-18T14:44:49Z</time>
      </trkpt>
      <trkpt lat="45.04357" lon="0.61221">
        <ele>165.48</ele>
        <time>2018-01-18T14:45:03Z</time>
      </trkpt>
      <trkpt lat="45.04353" lon="0.61232">
        <ele>165.48</ele>
        <time>2018-01-18T14:45:10Z</time>
      </trkpt>
      <trkpt lat="45.04352" lon="0.61235">
        <ele>165.48</ele>
        <time>2018-01-18T14:45:12Z</time>
      </trkpt>
      <trkpt lat="45.04345" lon="0.61252">
        <ele>165.48</ele>
        <time>2018-01-18T14:45:22Z</time>
      </trkpt>
      <trkpt lat="45.04336" lon="0.61271">
        <ele>166.93</ele>
        <time>2018-01-18T14:45:36Z</time>
      </trkpt>
      <trkpt lat="45.0433" lon="0.61281">
        <ele>167.41</ele>
        <time>2018-01-18T14:45:44Z</time>
      </trkpt>
      <trkpt lat="45.04321" lon="0.61299">
        <ele>168.37</ele>
        <time>2018-01-18T14:45:58Z</time>
      </trkpt>
      <trkpt lat="45.04312" lon="0.61311">
        <ele>168.85</ele>
        <time>2018-01-18T14:46:10Z</time>
      </trkpt>
      <trkpt lat="45.04303" lon="0.61327">
        <ele>168.85</ele>
        <time>2018-01-18T14:46:24Z</time>
      </trkpt>
      <trkpt lat="45.04295" lon="0.61341">
        <ele>168.37</ele>
        <time>2018-01-18T14:46:38Z</time>
      </trkpt>
      <trkpt lat="45.04289" lon="0.61351">
        <ele>169.33</ele>
        <time>2018-01-18T14:46:48Z</time>
      </trkpt>
      <trkpt lat="45.04279" lon="0.61344">
        <ele>170.77</ele>
        <time>2018-01-18T14:47:01Z</time>
      </trkpt>
      <trkpt lat="45.04272" lon="0.61331">
        <ele>172.21</ele>
        <time>2018-01-18T14:47:14Z</time>
      </trkpt>
      <trkpt lat="45.04266" lon="0.61317">
        <ele>173.17</ele>
        <time>2018-01-18T14:47:24Z</time>
      </trkpt>
      <trkpt lat="45.04266" lon="0.61313">
        <ele>173.17</ele>
        <time>2018-01-18T14:47:26Z</time>
      </trkpt>
      <trkpt lat="45.04261" lon="0.61297">
        <ele>175.1</ele>
        <time>2018-01-18T14:47:40Z</time>
      </trkpt>
      <trkpt lat="45.04255" lon="0.61278">
        <ele>176.54</ele>
        <time>2018-01-18T14:47:54Z</time>
      </trkpt>
      <trkpt lat="45.04254" lon="0.61274">
        <ele>177.02</ele>
        <time>2018-01-18T14:47:56Z</time>
      </trkpt>
      <trkpt lat="45.0425" lon="0.61256">
        <ele>178.46</ele>
        <time>2018-01-18T14:48:10Z</time>
      </trkpt>
      <trkpt lat="45.04245" lon="0.61241">
        <ele>179.42</ele>
        <time>2018-01-18T14:48:21Z</time>
      </trkpt>
      <trkpt lat="45.04241" lon="0.61221">
        <ele>180.87</ele>
        <time>2018-01-18T14:48:35Z</time>
      </trkpt>
      <trkpt lat="45.04238" lon="0.61203">
        <ele>181.35</ele>
        <time>2018-01-18T14:48:49Z</time>
      </trkpt>
      <trkpt lat="45.04235" lon="0.61187">
        <ele>182.31</ele>
        <time>2018-01-18T14:49:02Z</time>
      </trkpt>
      <trkpt lat="45.04232" lon="0.61171">
        <ele>183.27</ele>
        <time>2018-01-18T14:49:14Z</time>
      </trkpt>
      <trkpt lat="45.04231" lon="0.6115">
        <ele>184.71</ele>
        <time>2018-01-18T14:49:27Z</time>
      </trkpt>
      <trkpt lat="45.04231" lon="0.61127">
        <ele>187.11</ele>
        <time>2018-01-18T14:49:44Z</time>
      </trkpt>
      <trkpt lat="45.04231" lon="0.61106">
        <ele>189.52</ele>
        <time>2018-01-18T14:49:59Z</time>
      </trkpt>
      <trkpt lat="45.0423" lon="0.61086">
        <ele>191.92</ele>
        <time>2018-01-18T14:50:14Z</time>
      </trkpt>
      <trkpt lat="45.04228" lon="0.61061">
        <ele>193.84</ele>
        <time>2018-01-18T14:50:28Z</time>
      </trkpt>
      <trkpt lat="45.04228" lon="0.61044">
        <ele>194.8</ele>
        <time>2018-01-18T14:50:39Z</time>
      </trkpt>
      <trkpt lat="45.04228" lon="0.61035">
        <ele>195.77</ele>
        <time>2018-01-18T14:50:44Z</time>
      </trkpt>
      <trkpt lat="45.04227" lon="0.61026">
        <ele>196.73</ele>
        <time>2018-01-18T14:50:50Z</time>
      </trkpt>
      <trkpt lat="45.04227" lon="0.61007">
        <ele>198.17</ele>
        <time>2018-01-18T14:51:02Z</time>
      </trkpt>
      <trkpt lat="45.04226" lon="0.60995">
        <ele>199.13</ele>
        <time>2018-01-18T14:51:10Z</time>
      </trkpt>
      <trkpt lat="45.04227" lon="0.60975">
        <ele>201.05</ele>
        <time>2018-01-18T14:51:23Z</time>
      </trkpt>
      <trkpt lat="45.04227" lon="0.60964">
        <ele>202.01</ele>
        <time>2018-01-18T14:51:31Z</time>
      </trkpt>
      <trkpt lat="45.04227" lon="0.60961">
        <ele>202.49</ele>
        <time>2018-01-18T14:51:33Z</time>
      </trkpt>
      <trkpt lat="45.04228" lon="0.60948">
        <ele>203.94</ele>
        <time>2018-01-18T14:51:43Z</time>
      </trkpt>
      <trkpt lat="45.04228" lon="0.60945">
        <ele>203.94</ele>
        <time>2018-01-18T14:51:45Z</time>
      </trkpt>
      <trkpt lat="45.04227" lon="0.60931">
        <ele>205.86</ele>
        <time>2018-01-18T14:51:55Z</time>
      </trkpt>
      <trkpt lat="45.04226" lon="0.60924">
        <ele>206.34</ele>
        <time>2018-01-18T14:52:00Z</time>
      </trkpt>
      <trkpt lat="45.04225" lon="0.609">
        <ele>208.26</ele>
        <time>2018-01-18T14:52:15Z</time>
      </trkpt>
      <trkpt lat="45.04222" lon="0.60879">
        <ele>208.26</ele>
        <time>2018-01-18T14:52:29Z</time>
      </trkpt>
      <trkpt lat="45.04222" lon="0.60866">
        <ele>208.26</ele>
        <time>2018-01-18T14:52:43Z</time>
      </trkpt>
      <trkpt lat="45.04223" lon="0.60868">
        <ele>208.26</ele>
        <time>2018-01-18T14:52:57Z</time>
      </trkpt>
      <trkpt lat="45.04222" lon="0.60865">
        <ele>208.74</ele>
        <time>2018-01-18T14:53:12Z</time>
      </trkpt>
      <trkpt lat="45.04224" lon="0.60866">
        <ele>208.74</ele>
        <time>2018-01-18T14:53:39Z</time>
      </trkpt>
      <trkpt lat="45.04223" lon="0.60863">
        <ele>209.22</ele>
        <time>2018-01-18T14:53:57Z</time>
      </trkpt>
      <trkpt lat="45.04222" lon="0.60864">
        <ele>209.22</ele>
        <time>2018-01-18T14:54:20Z</time>
      </trkpt>
      <trkpt lat="45.04223" lon="0.60864">
        <ele>209.22</ele>
        <time>2018-01-18T14:54:42Z</time>
      </trkpt>
      <trkpt lat="45.04223" lon="0.60863">
        <ele>209.22</ele>
        <time>2018-01-18T14:55:02Z</time>
      </trkpt>
      <trkpt lat="45.04221" lon="0.60864">
        <ele>209.22</ele>
        <time>2018-01-18T14:55:23Z</time>
      </trkpt>
      <trkpt lat="45.04221" lon="0.60864">
        <ele>206.82</ele>
        <time>2018-01-18T14:55:46Z</time>
      </trkpt>
      <trkpt lat="45.04221" lon="0.60865">
        <ele>209.22</ele>
        <time>2018-01-18T14:56:07Z</time>
      </trkpt>
      <trkpt lat="45.04218" lon="0.60856">
        <ele>209.22</ele>
        <time>2018-01-18T14:56:25Z</time>
      </trkpt>
      <trkpt lat="45.04216" lon="0.60851">
        <ele>207.78</ele>
        <time>2018-01-18T14:56:30Z</time>
      </trkpt>
      <trkpt lat="45.04208" lon="0.60834">
        <ele>206.34</ele>
        <time>2018-01-18T14:56:45Z</time>
      </trkpt>
      <trkpt lat="45.04205" lon="0.60826">
        <ele>205.38</ele>
        <time>2018-01-18T14:56:52Z</time>
      </trkpt>
      <trkpt lat="45.04195" lon="0.60802">
        <ele>205.86</ele>
        <time>2018-01-18T14:57:10Z</time>
      </trkpt>
      <trkpt lat="45.04186" lon="0.60787">
        <ele>205.86</ele>
        <time>2018-01-18T14:57:24Z</time>
      </trkpt>
      <trkpt lat="45.04175" lon="0.60782">
        <ele>205.86</ele>
        <time>2018-01-18T14:57:34Z</time>
      </trkpt>
      <trkpt lat="45.04173" lon="0.60782">
        <ele>206.82</ele>
        <time>2018-01-18T14:57:36Z</time>
      </trkpt>
      <trkpt lat="45.04172" lon="0.60782">
        <ele>206.82</ele>
        <time>2018-01-18T14:57:37Z</time>
      </trkpt>
      <trkpt lat="45.04156" lon="0.60778">
        <ele>207.78</ele>
        <time>2018-01-18T14:57:52Z</time>
      </trkpt>
      <trkpt lat="45.0415" lon="0.60776">
        <ele>207.78</ele>
        <time>2018-01-18T14:57:57Z</time>
      </trkpt>
      <trkpt lat="45.04141" lon="0.60773">
        <ele>208.26</ele>
        <time>2018-01-18T14:58:06Z</time>
      </trkpt>
      <trkpt lat="45.04126" lon="0.6077">
        <ele>208.26</ele>
        <time>2018-01-18T14:58:19Z</time>
      </trkpt>
      <trkpt lat="45.04111" lon="0.60763">
        <ele>208.26</ele>
        <time>2018-01-18T14:58:33Z</time>
      </trkpt>
      <trkpt lat="45.04107" lon="0.60755">
        <ele>208.26</ele>
        <time>2018-01-18T14:58:39Z</time>
      </trkpt>
      <trkpt lat="45.04106" lon="0.60741">
        <ele>206.82</ele>
        <time>2018-01-18T14:58:47Z</time>
      </trkpt>
      <trkpt lat="45.04102" lon="0.60722">
        <ele>204.9</ele>
        <time>2018-01-18T14:59:00Z</time>
      </trkpt>
      <trkpt lat="45.04104" lon="0.60692">
        <ele>203.46</ele>
        <time>2018-01-18T14:59:18Z</time>
      </trkpt>
      <trkpt lat="45.04109" lon="0.60659">
        <ele>201.53</ele>
        <time>2018-01-18T14:59:37Z</time>
      </trkpt>
      <trkpt lat="45.04112" lon="0.6063">
        <ele>200.09</ele>
        <time>2018-01-18T14:59:57Z</time>
      </trkpt>
      <trkpt lat="45.04114" lon="0.60609">
        <ele>199.61</ele>
        <time>2018-01-18T15:00:11Z</time>
      </trkpt>
      <trkpt lat="45.04116" lon="0.60598">
        <ele>199.61</ele>
        <time>2018-01-18T15:00:30Z</time>
      </trkpt>
      <trkpt lat="45.04116" lon="0.60597">
        <ele>199.61</ele>
        <time>2018-01-18T15:00:31Z</time>
      </trkpt>
      <trkpt lat="45.04115" lon="0.60583">
        <ele>198.17</ele>
        <time>2018-01-18T15:00:40Z</time>
      </trkpt>
      <trkpt lat="45.04115" lon="0.60566">
        <ele>197.21</ele>
        <time>2018-01-18T15:00:56Z</time>
      </trkpt>
      <trkpt lat="45.04115" lon="0.60548">
        <ele>196.73</ele>
        <time>2018-01-18T15:01:11Z</time>
      </trkpt>
      <trkpt lat="45.04114" lon="0.60524">
        <ele>195.28</ele>
        <time>2018-01-18T15:01:27Z</time>
      </trkpt>
      <trkpt lat="45.04113" lon="0.60513">
        <ele>195.28</ele>
        <time>2018-01-18T15:01:35Z</time>
      </trkpt>
      <trkpt lat="45.041" lon="0.60497">
        <ele>192.88</ele>
        <time>2018-01-18T15:01:52Z</time>
      </trkpt>
      <trkpt lat="45.04083" lon="0.60485">
        <ele>190</ele>
        <time>2018-01-18T15:02:09Z</time>
      </trkpt>
      <trkpt lat="45.04066" lon="0.60473">
        <ele>187.11</ele>
        <time>2018-01-18T15:02:25Z</time>
      </trkpt>
      <trkpt lat="45.04047" lon="0.60457">
        <ele>184.71</ele>
        <time>2018-01-18T15:02:43Z</time>
      </trkpt>
      <trkpt lat="45.04037" lon="0.60434">
        <ele>182.31</ele>
        <time>2018-01-18T15:02:59Z</time>
      </trkpt>
      <trkpt lat="45.04033" lon="0.60404">
        <ele>180.38</ele>
        <time>2018-01-18T15:03:16Z</time>
      </trkpt>
      <trkpt lat="45.04031" lon="0.60373">
        <ele>178.46</ele>
        <time>2018-01-18T15:03:34Z</time>
      </trkpt>
      <trkpt lat="45.04034" lon="0.60346">
        <ele>177.5</ele>
        <time>2018-01-18T15:03:50Z</time>
      </trkpt>
      <trkpt lat="45.04048" lon="0.6032">
        <ele>176.54</ele>
        <time>2018-01-18T15:04:09Z</time>
      </trkpt>
      <trkpt lat="45.04063" lon="0.60298">
        <ele>175.58</ele>
        <time>2018-01-18T15:04:27Z</time>
      </trkpt>
      <trkpt lat="45.04074" lon="0.60276">
        <ele>175.1</ele>
        <time>2018-01-18T15:04:44Z</time>
      </trkpt>
      <trkpt lat="45.04081" lon="0.60254">
        <ele>174.14</ele>
        <time>2018-01-18T15:05:00Z</time>
      </trkpt>
      <trkpt lat="45.04085" lon="0.60228">
        <ele>172.69</ele>
        <time>2018-01-18T15:05:17Z</time>
      </trkpt>
      <trkpt lat="45.04086" lon="0.60207">
        <ele>171.73</ele>
        <time>2018-01-18T15:05:30Z</time>
      </trkpt>
      <trkpt lat="45.04088" lon="0.60181">
        <ele>171.25</ele>
        <time>2018-01-18T15:05:47Z</time>
      </trkpt>
      <trkpt lat="45.04091" lon="0.6016">
        <ele>171.25</ele>
        <time>2018-01-18T15:06:03Z</time>
      </trkpt>
      <trkpt lat="45.04094" lon="0.60137">
        <ele>173.17</ele>
        <time>2018-01-18T15:06:18Z</time>
      </trkpt>
      <trkpt lat="45.04095" lon="0.60117">
        <ele>175.1</ele>
        <time>2018-01-18T15:06:33Z</time>
      </trkpt>
      <trkpt lat="45.04097" lon="0.60098">
        <ele>177.5</ele>
        <time>2018-01-18T15:06:47Z</time>
      </trkpt>
      <trkpt lat="45.04099" lon="0.60084">
        <ele>178.94</ele>
        <time>2018-01-18T15:06:57Z</time>
      </trkpt>
      <trkpt lat="45.04101" lon="0.60064">
        <ele>179.9</ele>
        <time>2018-01-18T15:07:10Z</time>
      </trkpt>
      <trkpt lat="45.04103" lon="0.60041">
        <ele>182.31</ele>
        <time>2018-01-18T15:07:24Z</time>
      </trkpt>
      <trkpt lat="45.04103" lon="0.60022">
        <ele>183.75</ele>
        <time>2018-01-18T15:07:36Z</time>
      </trkpt>
      <trkpt lat="45.04109" lon="0.59999">
        <ele>185.67</ele>
        <time>2018-01-18T15:07:52Z</time>
      </trkpt>
      <trkpt lat="45.04117" lon="0.59977">
        <ele>187.11</ele>
        <time>2018-01-18T15:08:07Z</time>
      </trkpt>
      <trkpt lat="45.04119" lon="0.5997">
        <ele>187.59</ele>
        <time>2018-01-18T15:08:12Z</time>
      </trkpt>
      <trkpt lat="45.0412" lon="0.59965">
        <ele>188.08</ele>
        <time>2018-01-18T15:08:15Z</time>
      </trkpt>
      <trkpt lat="45.04126" lon="0.59947">
        <ele>189.52</ele>
        <time>2018-01-18T15:08:28Z</time>
      </trkpt>
      <trkpt lat="45.04133" lon="0.59926">
        <ele>190.96</ele>
        <time>2018-01-18T15:08:43Z</time>
      </trkpt>
      <trkpt lat="45.0414" lon="0.59908">
        <ele>191.92</ele>
        <time>2018-01-18T15:08:56Z</time>
      </trkpt>
      <trkpt lat="45.04151" lon="0.59886">
        <ele>192.4</ele>
        <time>2018-01-18T15:09:13Z</time>
      </trkpt>
      <trkpt lat="45.04165" lon="0.59865">
        <ele>194.8</ele>
        <time>2018-01-18T15:09:31Z</time>
      </trkpt>
      <trkpt lat="45.04178" lon="0.59843">
        <ele>195.28</ele>
        <time>2018-01-18T15:09:49Z</time>
      </trkpt>
      <trkpt lat="45.04189" lon="0.59828">
        <ele>196.25</ele>
        <time>2018-01-18T15:10:01Z</time>
      </trkpt>
      <trkpt lat="45.04202" lon="0.59813">
        <ele>197.69</ele>
        <time>2018-01-18T15:10:16Z</time>
      </trkpt>
      <trkpt lat="45.04216" lon="0.59798">
        <ele>199.61</ele>
        <time>2018-01-18T15:10:31Z</time>
      </trkpt>
      <trkpt lat="45.04225" lon="0.59789">
        <ele>201.05</ele>
        <time>2018-01-18T15:10:41Z</time>
      </trkpt>
      <trkpt lat="45.04228" lon="0.59786">
        <ele>201.05</ele>
        <time>2018-01-18T15:10:44Z</time>
      </trkpt>
      <trkpt lat="45.04233" lon="0.5978">
        <ele>202.01</ele>
        <time>2018-01-18T15:10:50Z</time>
      </trkpt>
      <trkpt lat="45.04236" lon="0.59777">
        <ele>202.49</ele>
        <time>2018-01-18T15:10:53Z</time>
      </trkpt>
      <trkpt lat="45.04248" lon="0.59762">
        <ele>203.94</ele>
        <time>2018-01-18T15:11:08Z</time>
      </trkpt>
      <trkpt lat="45.04261" lon="0.59749">
        <ele>204.9</ele>
        <time>2018-01-18T15:11:23Z</time>
      </trkpt>
      <trkpt lat="45.04266" lon="0.59743">
        <ele>205.38</ele>
        <time>2018-01-18T15:11:29Z</time>
      </trkpt>
      <trkpt lat="45.04279" lon="0.59731">
        <ele>206.82</ele>
        <time>2018-01-18T15:11:46Z</time>
      </trkpt>
      <trkpt lat="45.0428" lon="0.59732">
        <ele>206.82</ele>
        <time>2018-01-18T15:12:05Z</time>
      </trkpt>
      <trkpt lat="45.04281" lon="0.59732">
        <ele>206.34</ele>
        <time>2018-01-18T15:12:31Z</time>
      </trkpt>
      <trkpt lat="45.0428" lon="0.59731">
        <ele>206.34</ele>
        <time>2018-01-18T15:12:57Z</time>
      </trkpt>
      <trkpt lat="45.04284" lon="0.59737">
        <ele>206.82</ele>
        <time>2018-01-18T15:13:17Z</time>
      </trkpt>
      <trkpt lat="45.04285" lon="0.59734">
        <ele>206.82</ele>
        <time>2018-01-18T15:13:34Z</time>
      </trkpt>
      <trkpt lat="45.04287" lon="0.5973">
        <ele>206.82</ele>
        <time>2018-01-18T15:13:45Z</time>
      </trkpt>
      <trkpt lat="45.04287" lon="0.59733">
        <ele>206.34</ele>
        <time>2018-01-18T15:14:07Z</time>
      </trkpt>
      <trkpt lat="45.04291" lon="0.59735">
        <ele>206.82</ele>
        <time>2018-01-18T15:14:27Z</time>
      </trkpt>
      <trkpt lat="45.043" lon="0.59741">
        <ele>207.78</ele>
        <time>2018-01-18T15:14:39Z</time>
      </trkpt>
      <trkpt lat="45.04307" lon="0.59745">
        <ele>208.74</ele>
        <time>2018-01-18T15:14:50Z</time>
      </trkpt>
      <trkpt lat="45.04318" lon="0.59753">
        <ele>208.74</ele>
        <time>2018-01-18T15:15:05Z</time>
      </trkpt>
      <trkpt lat="45.04323" lon="0.59759">
        <ele>208.74</ele>
        <time>2018-01-18T15:15:16Z</time>
      </trkpt>
      <trkpt lat="45.04334" lon="0.59765">
        <ele>207.78</ele>
        <time>2018-01-18T15:15:30Z</time>
      </trkpt>
      <trkpt lat="45.0434" lon="0.59769">
        <ele>207.3</ele>
        <time>2018-01-18T15:15:38Z</time>
      </trkpt>
      <trkpt lat="45.04345" lon="0.59773">
        <ele>206.82</ele>
        <time>2018-01-18T15:15:44Z</time>
      </trkpt>
      <trkpt lat="45.04347" lon="0.59774">
        <ele>206.82</ele>
        <time>2018-01-18T15:15:46Z</time>
      </trkpt>
      <trkpt lat="45.04358" lon="0.59779">
        <ele>205.86</ele>
        <time>2018-01-18T15:15:57Z</time>
      </trkpt>
      <trkpt lat="45.0436" lon="0.59784">
        <ele>205.38</ele>
        <time>2018-01-18T15:16:05Z</time>
      </trkpt>
      <trkpt lat="45.04376" lon="0.59795">
        <ele>203.46</ele>
        <time>2018-01-18T15:16:22Z</time>
      </trkpt>
      <trkpt lat="45.04379" lon="0.59796">
        <ele>203.46</ele>
        <time>2018-01-18T15:16:25Z</time>
      </trkpt>
      <trkpt lat="45.04392" lon="0.59798">
        <ele>203.46</ele>
        <time>2018-01-18T15:16:39Z</time>
      </trkpt>
      <trkpt lat="45.04412" lon="0.59801">
        <ele>203.46</ele>
        <time>2018-01-18T15:16:58Z</time>
      </trkpt>
      <trkpt lat="45.04434" lon="0.59804">
        <ele>203.46</ele>
        <time>2018-01-18T15:17:18Z</time>
      </trkpt>
      <trkpt lat="45.04453" lon="0.59808">
        <ele>202.98</ele>
        <time>2018-01-18T15:17:36Z</time>
      </trkpt>
      <trkpt lat="45.04466" lon="0.59808">
        <ele>204.42</ele>
        <time>2018-01-18T15:17:48Z</time>
      </trkpt>
      <trkpt lat="45.04474" lon="0.59812">
        <ele>204.42</ele>
        <time>2018-01-18T15:18:03Z</time>
      </trkpt>
      <trkpt lat="45.04484" lon="0.59805">
        <ele>204.42</ele>
        <time>2018-01-18T15:18:17Z</time>
      </trkpt>
      <trkpt lat="45.04489" lon="0.59803">
        <ele>203.46</ele>
        <time>2018-01-18T15:18:27Z</time>
      </trkpt>
      <trkpt lat="45.04492" lon="0.59801">
        <ele>204.42</ele>
        <time>2018-01-18T15:18:48Z</time>
      </trkpt>
      <trkpt lat="45.04493" lon="0.59801">
        <ele>203.94</ele>
        <time>2018-01-18T15:18:49Z</time>
      </trkpt>
      <trkpt lat="45.0451" lon="0.59798">
        <ele>204.42</ele>
        <time>2018-01-18T15:19:05Z</time>
      </trkpt>
      <trkpt lat="45.04515" lon="0.59798">
        <ele>202.98</ele>
        <time>2018-01-18T15:19:10Z</time>
      </trkpt>
      <trkpt lat="45.04522" lon="0.59814">
        <ele>202.49</ele>
        <time>2018-01-18T15:19:24Z</time>
      </trkpt>
      <trkpt lat="45.04524" lon="0.59816">
        <ele>202.49</ele>
        <time>2018-01-18T15:19:27Z</time>
      </trkpt>
      <trkpt lat="45.04534" lon="0.59827">
        <ele>202.01</ele>
        <time>2018-01-18T15:19:43Z</time>
      </trkpt>
      <trkpt lat="45.04531" lon="0.59827">
        <ele>202.01</ele>
        <time>2018-01-18T15:19:55Z</time>
      </trkpt>
      <trkpt lat="45.04533" lon="0.59827">
        <ele>202.01</ele>
        <time>2018-01-18T15:20:08Z</time>
      </trkpt>
      <trkpt lat="45.04539" lon="0.59826">
        <ele>202.01</ele>
        <time>2018-01-18T15:20:19Z</time>
      </trkpt>
      <trkpt lat="45.04538" lon="0.59827">
        <ele>201.53</ele>
        <time>2018-01-18T15:20:33Z</time>
      </trkpt>
      <trkpt lat="45.04538" lon="0.59828">
        <ele>201.05</ele>
        <time>2018-01-18T15:21:01Z</time>
      </trkpt>
      <trkpt lat="45.04538" lon="0.59829">
        <ele>201.05</ele>
        <time>2018-01-18T15:21:17Z</time>
      </trkpt>
      <trkpt lat="45.04538" lon="0.59831">
        <ele>201.05</ele>
        <time>2018-01-18T15:21:43Z</time>
      </trkpt>
      <trkpt lat="45.04538" lon="0.5983">
        <ele>202.49</ele>
        <time>2018-01-18T15:22:12Z</time>
      </trkpt>
      <trkpt lat="45.04538" lon="0.5983">
        <ele>202.49</ele>
        <time>2018-01-18T15:22:13Z</time>
      </trkpt>
    </trkseg>
  </trk>
</gpx>